<?xml version="1.0" encoding="UTF-8" standalone="no" ?>
<gpx xmlns="http://www.topografix.com/GPX/1/1" xmlns:xsi="http://www.w3.org/2001/XMLSchema-instance" xsi:schemaLocation="http://www.topografix.com/GPX/1/1 http://www.topografix.com/GPX/1/1/gpx.xsd" version="1.1" creator="VisuGPX - https://www.visugpx.com">
  <metadata>
    <name>SO 910</name>
  </metadata>
  <trk>
    <name><![CDATA[Vélo du matin]]></name>
    <trkseg>
      <trkpt lat="49.28653" lon="-0.11919">
        <ele>5.5</ele>
        <time>2024-02-04T07:51:23Z</time>
      </trkpt>
      <trkpt lat="49.28657" lon="-0.1192">
        <ele>5.5</ele>
        <time>2024-02-04T07:51:24Z</time>
      </trkpt>
      <trkpt lat="49.28654" lon="-0.11924">
        <ele>5.5</ele>
        <time>2024-02-04T07:51:26Z</time>
      </trkpt>
      <trkpt lat="49.28651" lon="-0.11922">
        <ele>5.5</ele>
        <time>2024-02-04T07:51:27Z</time>
      </trkpt>
      <trkpt lat="49.28648" lon="-0.11922">
        <ele>5.5</ele>
        <time>2024-02-04T07:51:28Z</time>
      </trkpt>
      <trkpt lat="49.28648" lon="-0.11923">
        <ele>5.5</ele>
        <time>2024-02-04T07:51:29Z</time>
      </trkpt>
      <trkpt lat="49.28647" lon="-0.11922">
        <ele>5.5</ele>
        <time>2024-02-04T07:51:30Z</time>
      </trkpt>
      <trkpt lat="49.28647" lon="-0.11923">
        <ele>5.5</ele>
        <time>2024-02-04T07:51:31Z</time>
      </trkpt>
      <trkpt lat="49.28646" lon="-0.11924">
        <ele>5.5</ele>
        <time>2024-02-04T07:51:32Z</time>
      </trkpt>
      <trkpt lat="49.28646" lon="-0.11924">
        <ele>5.5</ele>
        <time>2024-02-04T07:51:33Z</time>
      </trkpt>
      <trkpt lat="49.28646" lon="-0.11924">
        <ele>5.5</ele>
        <time>2024-02-04T07:51:34Z</time>
      </trkpt>
      <trkpt lat="49.28646" lon="-0.11924">
        <ele>5.5</ele>
        <time>2024-02-04T07:51:35Z</time>
      </trkpt>
      <trkpt lat="49.28646" lon="-0.11924">
        <ele>5.5</ele>
        <time>2024-02-04T07:51:36Z</time>
      </trkpt>
      <trkpt lat="49.28646" lon="-0.11924">
        <ele>5.5</ele>
        <time>2024-02-04T07:51:37Z</time>
      </trkpt>
      <trkpt lat="49.28646" lon="-0.11924">
        <ele>5.5</ele>
        <time>2024-02-04T07:51:38Z</time>
      </trkpt>
      <trkpt lat="49.28646" lon="-0.11924">
        <ele>5.5</ele>
        <time>2024-02-04T07:51:39Z</time>
      </trkpt>
      <trkpt lat="49.28647" lon="-0.11925">
        <ele>5.5</ele>
        <time>2024-02-04T07:51:40Z</time>
      </trkpt>
      <trkpt lat="49.28647" lon="-0.11925">
        <ele>5.5</ele>
        <time>2024-02-04T07:51:41Z</time>
      </trkpt>
      <trkpt lat="49.28648" lon="-0.11925">
        <ele>5.5</ele>
        <time>2024-02-04T07:51:42Z</time>
      </trkpt>
      <trkpt lat="49.28648" lon="-0.11924">
        <ele>5.5</ele>
        <time>2024-02-04T07:51:43Z</time>
      </trkpt>
      <trkpt lat="49.28648" lon="-0.11924">
        <ele>5.5</ele>
        <time>2024-02-04T07:51:44Z</time>
      </trkpt>
      <trkpt lat="49.28648" lon="-0.11924">
        <ele>5.5</ele>
        <time>2024-02-04T07:51:45Z</time>
      </trkpt>
      <trkpt lat="49.28649" lon="-0.11924">
        <ele>5.5</ele>
        <time>2024-02-04T07:51:46Z</time>
      </trkpt>
      <trkpt lat="49.28649" lon="-0.11924">
        <ele>5.5</ele>
        <time>2024-02-04T07:51:47Z</time>
      </trkpt>
      <trkpt lat="49.28649" lon="-0.11925">
        <ele>5.5</ele>
        <time>2024-02-04T07:51:48Z</time>
      </trkpt>
      <trkpt lat="49.28647" lon="-0.11925">
        <ele>5.5</ele>
        <time>2024-02-04T07:51:56Z</time>
      </trkpt>
      <trkpt lat="49.28646" lon="-0.11925">
        <ele>5.5</ele>
        <time>2024-02-04T07:51:57Z</time>
      </trkpt>
      <trkpt lat="49.28646" lon="-0.11925">
        <ele>5.5</ele>
        <time>2024-02-04T07:51:58Z</time>
      </trkpt>
      <trkpt lat="49.28646" lon="-0.11925">
        <ele>5.5</ele>
        <time>2024-02-04T07:51:59Z</time>
      </trkpt>
      <trkpt lat="49.28646" lon="-0.11925">
        <ele>5.5</ele>
        <time>2024-02-04T07:52:00Z</time>
      </trkpt>
      <trkpt lat="49.28646" lon="-0.11925">
        <ele>5.5</ele>
        <time>2024-02-04T07:52:01Z</time>
      </trkpt>
      <trkpt lat="49.28646" lon="-0.11925">
        <ele>5.5</ele>
        <time>2024-02-04T07:52:02Z</time>
      </trkpt>
      <trkpt lat="49.28646" lon="-0.11924">
        <ele>5.5</ele>
        <time>2024-02-04T07:52:03Z</time>
      </trkpt>
      <trkpt lat="49.28647" lon="-0.11924">
        <ele>5.5</ele>
        <time>2024-02-04T07:52:04Z</time>
      </trkpt>
      <trkpt lat="49.28647" lon="-0.11924">
        <ele>5.5</ele>
        <time>2024-02-04T07:52:05Z</time>
      </trkpt>
      <trkpt lat="49.28647" lon="-0.11924">
        <ele>5.5</ele>
        <time>2024-02-04T07:52:06Z</time>
      </trkpt>
      <trkpt lat="49.28647" lon="-0.11924">
        <ele>5.5</ele>
        <time>2024-02-04T07:52:07Z</time>
      </trkpt>
      <trkpt lat="49.28647" lon="-0.11924">
        <ele>5.5</ele>
        <time>2024-02-04T07:52:08Z</time>
      </trkpt>
      <trkpt lat="49.28647" lon="-0.11924">
        <ele>5.5</ele>
        <time>2024-02-04T07:52:09Z</time>
      </trkpt>
      <trkpt lat="49.28647" lon="-0.11924">
        <ele>5.5</ele>
        <time>2024-02-04T07:52:10Z</time>
      </trkpt>
      <trkpt lat="49.28646" lon="-0.11924">
        <ele>5.5</ele>
        <time>2024-02-04T07:52:12Z</time>
      </trkpt>
      <trkpt lat="49.28645" lon="-0.11923">
        <ele>5.5</ele>
        <time>2024-02-04T07:52:13Z</time>
      </trkpt>
      <trkpt lat="49.28645" lon="-0.11923">
        <ele>5.5</ele>
        <time>2024-02-04T07:52:14Z</time>
      </trkpt>
      <trkpt lat="49.28645" lon="-0.11923">
        <ele>5.5</ele>
        <time>2024-02-04T07:52:15Z</time>
      </trkpt>
      <trkpt lat="49.28645" lon="-0.11923">
        <ele>5.5</ele>
        <time>2024-02-04T07:52:16Z</time>
      </trkpt>
      <trkpt lat="49.28645" lon="-0.11923">
        <ele>5.5</ele>
        <time>2024-02-04T07:52:17Z</time>
      </trkpt>
      <trkpt lat="49.28645" lon="-0.11923">
        <ele>5.5</ele>
        <time>2024-02-04T07:52:18Z</time>
      </trkpt>
      <trkpt lat="49.28645" lon="-0.11923">
        <ele>5.5</ele>
        <time>2024-02-04T07:52:19Z</time>
      </trkpt>
      <trkpt lat="49.28645" lon="-0.11922">
        <ele>5.5</ele>
        <time>2024-02-04T07:52:20Z</time>
      </trkpt>
      <trkpt lat="49.28646" lon="-0.11922">
        <ele>5.5</ele>
        <time>2024-02-04T07:52:21Z</time>
      </trkpt>
      <trkpt lat="49.28646" lon="-0.11922">
        <ele>5.5</ele>
        <time>2024-02-04T07:52:22Z</time>
      </trkpt>
      <trkpt lat="49.28645" lon="-0.11921">
        <ele>5.5</ele>
        <time>2024-02-04T07:52:23Z</time>
      </trkpt>
      <trkpt lat="49.28645" lon="-0.11921">
        <ele>5.5</ele>
        <time>2024-02-04T07:52:24Z</time>
      </trkpt>
      <trkpt lat="49.28645" lon="-0.11921">
        <ele>5.5</ele>
        <time>2024-02-04T07:52:25Z</time>
      </trkpt>
      <trkpt lat="49.28645" lon="-0.11921">
        <ele>5.5</ele>
        <time>2024-02-04T07:52:26Z</time>
      </trkpt>
      <trkpt lat="49.28645" lon="-0.11921">
        <ele>5.5</ele>
        <time>2024-02-04T07:52:27Z</time>
      </trkpt>
      <trkpt lat="49.28645" lon="-0.11921">
        <ele>5.5</ele>
        <time>2024-02-04T07:52:28Z</time>
      </trkpt>
      <trkpt lat="49.28645" lon="-0.11921">
        <ele>5.5</ele>
        <time>2024-02-04T07:52:29Z</time>
      </trkpt>
      <trkpt lat="49.28645" lon="-0.11921">
        <ele>5.5</ele>
        <time>2024-02-04T07:52:30Z</time>
      </trkpt>
      <trkpt lat="49.28645" lon="-0.11921">
        <ele>5.5</ele>
        <time>2024-02-04T07:52:31Z</time>
      </trkpt>
      <trkpt lat="49.28645" lon="-0.11921">
        <ele>5.5</ele>
        <time>2024-02-04T07:52:32Z</time>
      </trkpt>
      <trkpt lat="49.28645" lon="-0.11921">
        <ele>5.5</ele>
        <time>2024-02-04T07:52:33Z</time>
      </trkpt>
      <trkpt lat="49.28646" lon="-0.11922">
        <ele>5.5</ele>
        <time>2024-02-04T07:52:34Z</time>
      </trkpt>
      <trkpt lat="49.28647" lon="-0.11922">
        <ele>5.5</ele>
        <time>2024-02-04T07:52:35Z</time>
      </trkpt>
      <trkpt lat="49.28648" lon="-0.11922">
        <ele>5.5</ele>
        <time>2024-02-04T07:52:36Z</time>
      </trkpt>
      <trkpt lat="49.28648" lon="-0.11923">
        <ele>5.5</ele>
        <time>2024-02-04T07:52:37Z</time>
      </trkpt>
      <trkpt lat="49.28648" lon="-0.11923">
        <ele>5.5</ele>
        <time>2024-02-04T07:52:38Z</time>
      </trkpt>
      <trkpt lat="49.28648" lon="-0.11923">
        <ele>5.5</ele>
        <time>2024-02-04T07:52:39Z</time>
      </trkpt>
      <trkpt lat="49.28648" lon="-0.11923">
        <ele>5.5</ele>
        <time>2024-02-04T07:52:40Z</time>
      </trkpt>
      <trkpt lat="49.28648" lon="-0.11923">
        <ele>5.5</ele>
        <time>2024-02-04T07:52:41Z</time>
      </trkpt>
      <trkpt lat="49.28648" lon="-0.11923">
        <ele>5.5</ele>
        <time>2024-02-04T07:52:42Z</time>
      </trkpt>
      <trkpt lat="49.28648" lon="-0.11923">
        <ele>5.5</ele>
        <time>2024-02-04T07:52:43Z</time>
      </trkpt>
      <trkpt lat="49.28648" lon="-0.11924">
        <ele>5.5</ele>
        <time>2024-02-04T07:52:44Z</time>
      </trkpt>
      <trkpt lat="49.28647" lon="-0.11924">
        <ele>5.5</ele>
        <time>2024-02-04T07:52:45Z</time>
      </trkpt>
      <trkpt lat="49.28647" lon="-0.11924">
        <ele>5.5</ele>
        <time>2024-02-04T07:52:46Z</time>
      </trkpt>
      <trkpt lat="49.28647" lon="-0.11924">
        <ele>5.5</ele>
        <time>2024-02-04T07:52:47Z</time>
      </trkpt>
      <trkpt lat="49.28647" lon="-0.11924">
        <ele>5.5</ele>
        <time>2024-02-04T07:52:48Z</time>
      </trkpt>
      <trkpt lat="49.28647" lon="-0.11924">
        <ele>5.5</ele>
        <time>2024-02-04T07:59:17Z</time>
      </trkpt>
      <trkpt lat="49.28647" lon="-0.11924">
        <ele>5.5</ele>
        <time>2024-02-04T07:59:18Z</time>
      </trkpt>
      <trkpt lat="49.28647" lon="-0.11924">
        <ele>5.5</ele>
        <time>2024-02-04T07:59:19Z</time>
      </trkpt>
      <trkpt lat="49.28647" lon="-0.11924">
        <ele>5.5</ele>
        <time>2024-02-04T07:59:20Z</time>
      </trkpt>
      <trkpt lat="49.28646" lon="-0.11924">
        <ele>5.5</ele>
        <time>2024-02-04T07:59:21Z</time>
      </trkpt>
      <trkpt lat="49.28646" lon="-0.11924">
        <ele>5.5</ele>
        <time>2024-02-04T07:59:22Z</time>
      </trkpt>
      <trkpt lat="49.28646" lon="-0.11924">
        <ele>5.5</ele>
        <time>2024-02-04T07:59:23Z</time>
      </trkpt>
      <trkpt lat="49.28646" lon="-0.11925">
        <ele>5.5</ele>
        <time>2024-02-04T07:59:24Z</time>
      </trkpt>
      <trkpt lat="49.28646" lon="-0.11925">
        <ele>5.5</ele>
        <time>2024-02-04T07:59:25Z</time>
      </trkpt>
      <trkpt lat="49.28646" lon="-0.11925">
        <ele>5.5</ele>
        <time>2024-02-04T07:59:26Z</time>
      </trkpt>
      <trkpt lat="49.28646" lon="-0.11925">
        <ele>5.5</ele>
        <time>2024-02-04T07:59:27Z</time>
      </trkpt>
      <trkpt lat="49.28645" lon="-0.11925">
        <ele>5.5</ele>
        <time>2024-02-04T07:59:28Z</time>
      </trkpt>
      <trkpt lat="49.28645" lon="-0.11925">
        <ele>5.5</ele>
        <time>2024-02-04T07:59:29Z</time>
      </trkpt>
      <trkpt lat="49.28645" lon="-0.11925">
        <ele>5.5</ele>
        <time>2024-02-04T07:59:30Z</time>
      </trkpt>
      <trkpt lat="49.28645" lon="-0.11925">
        <ele>5.5</ele>
        <time>2024-02-04T07:59:31Z</time>
      </trkpt>
      <trkpt lat="49.28645" lon="-0.11925">
        <ele>5.5</ele>
        <time>2024-02-04T07:59:32Z</time>
      </trkpt>
      <trkpt lat="49.28645" lon="-0.11925">
        <ele>5.5</ele>
        <time>2024-02-04T07:59:33Z</time>
      </trkpt>
      <trkpt lat="49.28645" lon="-0.11925">
        <ele>5.5</ele>
        <time>2024-02-04T07:59:34Z</time>
      </trkpt>
      <trkpt lat="49.28645" lon="-0.11925">
        <ele>5.5</ele>
        <time>2024-02-04T07:59:35Z</time>
      </trkpt>
      <trkpt lat="49.28644" lon="-0.11926">
        <ele>5.5</ele>
        <time>2024-02-04T07:59:36Z</time>
      </trkpt>
      <trkpt lat="49.28644" lon="-0.11926">
        <ele>5.5</ele>
        <time>2024-02-04T07:59:37Z</time>
      </trkpt>
      <trkpt lat="49.28644" lon="-0.11926">
        <ele>5.5</ele>
        <time>2024-02-04T07:59:38Z</time>
      </trkpt>
      <trkpt lat="49.28644" lon="-0.11926">
        <ele>5.5</ele>
        <time>2024-02-04T07:59:39Z</time>
      </trkpt>
      <trkpt lat="49.28644" lon="-0.11926">
        <ele>5.5</ele>
        <time>2024-02-04T07:59:40Z</time>
      </trkpt>
      <trkpt lat="49.28644" lon="-0.11926">
        <ele>5.5</ele>
        <time>2024-02-04T07:59:41Z</time>
      </trkpt>
      <trkpt lat="49.28644" lon="-0.11926">
        <ele>5.5</ele>
        <time>2024-02-04T07:59:42Z</time>
      </trkpt>
      <trkpt lat="49.28644" lon="-0.11926">
        <ele>5.5</ele>
        <time>2024-02-04T07:59:43Z</time>
      </trkpt>
      <trkpt lat="49.28643" lon="-0.11926">
        <ele>5.5</ele>
        <time>2024-02-04T07:59:44Z</time>
      </trkpt>
      <trkpt lat="49.28643" lon="-0.11926">
        <ele>5.5</ele>
        <time>2024-02-04T07:59:45Z</time>
      </trkpt>
      <trkpt lat="49.28643" lon="-0.11926">
        <ele>5.5</ele>
        <time>2024-02-04T07:59:46Z</time>
      </trkpt>
      <trkpt lat="49.28643" lon="-0.11926">
        <ele>5.5</ele>
        <time>2024-02-04T07:59:47Z</time>
      </trkpt>
      <trkpt lat="49.28643" lon="-0.11926">
        <ele>5.5</ele>
        <time>2024-02-04T07:59:48Z</time>
      </trkpt>
      <trkpt lat="49.28643" lon="-0.11927">
        <ele>5.5</ele>
        <time>2024-02-04T07:59:49Z</time>
      </trkpt>
      <trkpt lat="49.28643" lon="-0.11927">
        <ele>5.5</ele>
        <time>2024-02-04T07:59:50Z</time>
      </trkpt>
      <trkpt lat="49.28643" lon="-0.11927">
        <ele>5.5</ele>
        <time>2024-02-04T07:59:51Z</time>
      </trkpt>
      <trkpt lat="49.28642" lon="-0.11927">
        <ele>5.5</ele>
        <time>2024-02-04T07:59:52Z</time>
      </trkpt>
      <trkpt lat="49.28642" lon="-0.11927">
        <ele>5.5</ele>
        <time>2024-02-04T07:59:53Z</time>
      </trkpt>
      <trkpt lat="49.28642" lon="-0.11927">
        <ele>5.5</ele>
        <time>2024-02-04T07:59:54Z</time>
      </trkpt>
      <trkpt lat="49.28642" lon="-0.11927">
        <ele>5.5</ele>
        <time>2024-02-04T07:59:55Z</time>
      </trkpt>
      <trkpt lat="49.28642" lon="-0.11927">
        <ele>5.5</ele>
        <time>2024-02-04T07:59:56Z</time>
      </trkpt>
      <trkpt lat="49.28642" lon="-0.11927">
        <ele>5.5</ele>
        <time>2024-02-04T07:59:57Z</time>
      </trkpt>
      <trkpt lat="49.28642" lon="-0.11927">
        <ele>5.5</ele>
        <time>2024-02-04T07:59:58Z</time>
      </trkpt>
      <trkpt lat="49.28642" lon="-0.11927">
        <ele>5.5</ele>
        <time>2024-02-04T07:59:59Z</time>
      </trkpt>
      <trkpt lat="49.28641" lon="-0.11927">
        <ele>5.5</ele>
        <time>2024-02-04T08:00:00Z</time>
      </trkpt>
      <trkpt lat="49.28641" lon="-0.11928">
        <ele>5.5</ele>
        <time>2024-02-04T08:00:01Z</time>
      </trkpt>
      <trkpt lat="49.28641" lon="-0.11928">
        <ele>5.5</ele>
        <time>2024-02-04T08:00:02Z</time>
      </trkpt>
      <trkpt lat="49.28641" lon="-0.11928">
        <ele>5.5</ele>
        <time>2024-02-04T08:00:03Z</time>
      </trkpt>
      <trkpt lat="49.28641" lon="-0.11928">
        <ele>5.5</ele>
        <time>2024-02-04T08:00:04Z</time>
      </trkpt>
      <trkpt lat="49.28641" lon="-0.11928">
        <ele>5.5</ele>
        <time>2024-02-04T08:00:05Z</time>
      </trkpt>
      <trkpt lat="49.28641" lon="-0.11928">
        <ele>5.5</ele>
        <time>2024-02-04T08:00:06Z</time>
      </trkpt>
      <trkpt lat="49.28641" lon="-0.11928">
        <ele>5.5</ele>
        <time>2024-02-04T08:00:07Z</time>
      </trkpt>
      <trkpt lat="49.2864" lon="-0.11928">
        <ele>5.5</ele>
        <time>2024-02-04T08:00:08Z</time>
      </trkpt>
      <trkpt lat="49.2864" lon="-0.11928">
        <ele>5.5</ele>
        <time>2024-02-04T08:00:09Z</time>
      </trkpt>
      <trkpt lat="49.2864" lon="-0.11928">
        <ele>5.5</ele>
        <time>2024-02-04T08:00:10Z</time>
      </trkpt>
      <trkpt lat="49.2864" lon="-0.11928">
        <ele>5.5</ele>
        <time>2024-02-04T08:00:12Z</time>
      </trkpt>
      <trkpt lat="49.2864" lon="-0.11928">
        <ele>5.5</ele>
        <time>2024-02-04T08:02:35Z</time>
      </trkpt>
      <trkpt lat="49.2864" lon="-0.11929">
        <ele>5.5</ele>
        <time>2024-02-04T08:02:36Z</time>
      </trkpt>
      <trkpt lat="49.2864" lon="-0.11929">
        <ele>5.5</ele>
        <time>2024-02-04T08:02:37Z</time>
      </trkpt>
      <trkpt lat="49.28639" lon="-0.11929">
        <ele>5.5</ele>
        <time>2024-02-04T08:02:38Z</time>
      </trkpt>
      <trkpt lat="49.28639" lon="-0.11929">
        <ele>5.5</ele>
        <time>2024-02-04T08:02:40Z</time>
      </trkpt>
      <trkpt lat="49.28639" lon="-0.11929">
        <ele>5.5</ele>
        <time>2024-02-04T08:02:41Z</time>
      </trkpt>
      <trkpt lat="49.28639" lon="-0.11929">
        <ele>5.5</ele>
        <time>2024-02-04T08:02:42Z</time>
      </trkpt>
      <trkpt lat="49.28639" lon="-0.11929">
        <ele>5.5</ele>
        <time>2024-02-04T08:02:43Z</time>
      </trkpt>
      <trkpt lat="49.28639" lon="-0.11929">
        <ele>5.5</ele>
        <time>2024-02-04T08:02:44Z</time>
      </trkpt>
      <trkpt lat="49.28639" lon="-0.11929">
        <ele>5.5</ele>
        <time>2024-02-04T08:02:45Z</time>
      </trkpt>
      <trkpt lat="49.28639" lon="-0.11929">
        <ele>5.5</ele>
        <time>2024-02-04T08:02:46Z</time>
      </trkpt>
      <trkpt lat="49.28638" lon="-0.11929">
        <ele>5.5</ele>
        <time>2024-02-04T08:02:47Z</time>
      </trkpt>
      <trkpt lat="49.28636" lon="-0.11932">
        <ele>5.5</ele>
        <time>2024-02-04T08:02:48Z</time>
      </trkpt>
      <trkpt lat="49.28635" lon="-0.11933">
        <ele>5.5</ele>
        <time>2024-02-04T08:02:49Z</time>
      </trkpt>
      <trkpt lat="49.28632" lon="-0.11936">
        <ele>5.5</ele>
        <time>2024-02-04T08:02:50Z</time>
      </trkpt>
      <trkpt lat="49.28631" lon="-0.11938">
        <ele>5.5</ele>
        <time>2024-02-04T08:02:51Z</time>
      </trkpt>
      <trkpt lat="49.2863" lon="-0.11941">
        <ele>5.5</ele>
        <time>2024-02-04T08:02:52Z</time>
      </trkpt>
      <trkpt lat="49.28628" lon="-0.11946">
        <ele>5.5</ele>
        <time>2024-02-04T08:02:53Z</time>
      </trkpt>
      <trkpt lat="49.28626" lon="-0.1195">
        <ele>5.5</ele>
        <time>2024-02-04T08:02:54Z</time>
      </trkpt>
      <trkpt lat="49.28624" lon="-0.11956">
        <ele>5.5</ele>
        <time>2024-02-04T08:02:55Z</time>
      </trkpt>
      <trkpt lat="49.28621" lon="-0.11961">
        <ele>5.5</ele>
        <time>2024-02-04T08:02:56Z</time>
      </trkpt>
      <trkpt lat="49.28619" lon="-0.11965">
        <ele>5.5</ele>
        <time>2024-02-04T08:02:57Z</time>
      </trkpt>
      <trkpt lat="49.28616" lon="-0.11969">
        <ele>5.4</ele>
        <time>2024-02-04T08:02:58Z</time>
      </trkpt>
      <trkpt lat="49.28612" lon="-0.11972">
        <ele>5.4</ele>
        <time>2024-02-04T08:02:59Z</time>
      </trkpt>
      <trkpt lat="49.28607" lon="-0.11971">
        <ele>5.3</ele>
        <time>2024-02-04T08:03:00Z</time>
      </trkpt>
      <trkpt lat="49.28602" lon="-0.11972">
        <ele>5.2</ele>
        <time>2024-02-04T08:03:01Z</time>
      </trkpt>
      <trkpt lat="49.28599" lon="-0.11976">
        <ele>5.2</ele>
        <time>2024-02-04T08:03:02Z</time>
      </trkpt>
      <trkpt lat="49.28596" lon="-0.11981">
        <ele>5.1</ele>
        <time>2024-02-04T08:03:03Z</time>
      </trkpt>
      <trkpt lat="49.28593" lon="-0.11987">
        <ele>5.1</ele>
        <time>2024-02-04T08:03:04Z</time>
      </trkpt>
      <trkpt lat="49.2859" lon="-0.11993">
        <ele>5.1</ele>
        <time>2024-02-04T08:03:05Z</time>
      </trkpt>
      <trkpt lat="49.28587" lon="-0.11999">
        <ele>5.1</ele>
        <time>2024-02-04T08:03:06Z</time>
      </trkpt>
      <trkpt lat="49.28583" lon="-0.12005">
        <ele>5.1</ele>
        <time>2024-02-04T08:03:07Z</time>
      </trkpt>
      <trkpt lat="49.28579" lon="-0.12011">
        <ele>5.1</ele>
        <time>2024-02-04T08:03:08Z</time>
      </trkpt>
      <trkpt lat="49.28576" lon="-0.12017">
        <ele>5.1</ele>
        <time>2024-02-04T08:03:09Z</time>
      </trkpt>
      <trkpt lat="49.28572" lon="-0.12023">
        <ele>5.1</ele>
        <time>2024-02-04T08:03:10Z</time>
      </trkpt>
      <trkpt lat="49.28569" lon="-0.12029">
        <ele>5.2</ele>
        <time>2024-02-04T08:03:11Z</time>
      </trkpt>
      <trkpt lat="49.28565" lon="-0.12035">
        <ele>5.2</ele>
        <time>2024-02-04T08:03:12Z</time>
      </trkpt>
      <trkpt lat="49.28562" lon="-0.12042">
        <ele>5.2</ele>
        <time>2024-02-04T08:03:13Z</time>
      </trkpt>
      <trkpt lat="49.28558" lon="-0.12049">
        <ele>5.2</ele>
        <time>2024-02-04T08:03:14Z</time>
      </trkpt>
      <trkpt lat="49.28554" lon="-0.12056">
        <ele>5.2</ele>
        <time>2024-02-04T08:03:15Z</time>
      </trkpt>
      <trkpt lat="49.28551" lon="-0.12062">
        <ele>5.2</ele>
        <time>2024-02-04T08:03:16Z</time>
      </trkpt>
      <trkpt lat="49.28547" lon="-0.12069">
        <ele>5.2</ele>
        <time>2024-02-04T08:03:17Z</time>
      </trkpt>
      <trkpt lat="49.28543" lon="-0.12076">
        <ele>5.2</ele>
        <time>2024-02-04T08:03:18Z</time>
      </trkpt>
      <trkpt lat="49.2854" lon="-0.12083">
        <ele>5.2</ele>
        <time>2024-02-04T08:03:19Z</time>
      </trkpt>
      <trkpt lat="49.28536" lon="-0.1209">
        <ele>5.1</ele>
        <time>2024-02-04T08:03:20Z</time>
      </trkpt>
      <trkpt lat="49.28533" lon="-0.12097">
        <ele>5.1</ele>
        <time>2024-02-04T08:03:21Z</time>
      </trkpt>
      <trkpt lat="49.2853" lon="-0.12103">
        <ele>5.1</ele>
        <time>2024-02-04T08:03:22Z</time>
      </trkpt>
      <trkpt lat="49.28526" lon="-0.12109">
        <ele>5.1</ele>
        <time>2024-02-04T08:03:23Z</time>
      </trkpt>
      <trkpt lat="49.28523" lon="-0.12115">
        <ele>5.1</ele>
        <time>2024-02-04T08:03:24Z</time>
      </trkpt>
      <trkpt lat="49.28519" lon="-0.12122">
        <ele>5.1</ele>
        <time>2024-02-04T08:03:25Z</time>
      </trkpt>
      <trkpt lat="49.28515" lon="-0.12129">
        <ele>5.1</ele>
        <time>2024-02-04T08:03:26Z</time>
      </trkpt>
      <trkpt lat="49.28512" lon="-0.12135">
        <ele>5</ele>
        <time>2024-02-04T08:03:27Z</time>
      </trkpt>
      <trkpt lat="49.28508" lon="-0.12142">
        <ele>5</ele>
        <time>2024-02-04T08:03:28Z</time>
      </trkpt>
      <trkpt lat="49.28504" lon="-0.12149">
        <ele>4.9</ele>
        <time>2024-02-04T08:03:29Z</time>
      </trkpt>
      <trkpt lat="49.285" lon="-0.12156">
        <ele>4.9</ele>
        <time>2024-02-04T08:03:30Z</time>
      </trkpt>
      <trkpt lat="49.28496" lon="-0.12162">
        <ele>4.8</ele>
        <time>2024-02-04T08:03:31Z</time>
      </trkpt>
      <trkpt lat="49.28488" lon="-0.12175">
        <ele>4.7</ele>
        <time>2024-02-04T08:03:33Z</time>
      </trkpt>
      <trkpt lat="49.28484" lon="-0.12181">
        <ele>4.7</ele>
        <time>2024-02-04T08:03:34Z</time>
      </trkpt>
      <trkpt lat="49.28481" lon="-0.12188">
        <ele>4.7</ele>
        <time>2024-02-04T08:03:35Z</time>
      </trkpt>
      <trkpt lat="49.28477" lon="-0.12194">
        <ele>4.7</ele>
        <time>2024-02-04T08:03:36Z</time>
      </trkpt>
      <trkpt lat="49.28474" lon="-0.12201">
        <ele>4.6</ele>
        <time>2024-02-04T08:03:37Z</time>
      </trkpt>
      <trkpt lat="49.28471" lon="-0.12206">
        <ele>4.5</ele>
        <time>2024-02-04T08:03:38Z</time>
      </trkpt>
      <trkpt lat="49.28468" lon="-0.12212">
        <ele>4.5</ele>
        <time>2024-02-04T08:03:39Z</time>
      </trkpt>
      <trkpt lat="49.28465" lon="-0.12219">
        <ele>4.4</ele>
        <time>2024-02-04T08:03:40Z</time>
      </trkpt>
      <trkpt lat="49.28461" lon="-0.12225">
        <ele>4.4</ele>
        <time>2024-02-04T08:03:41Z</time>
      </trkpt>
      <trkpt lat="49.28457" lon="-0.12232">
        <ele>4.4</ele>
        <time>2024-02-04T08:03:42Z</time>
      </trkpt>
      <trkpt lat="49.28454" lon="-0.1224">
        <ele>4.4</ele>
        <time>2024-02-04T08:03:43Z</time>
      </trkpt>
      <trkpt lat="49.2845" lon="-0.12247">
        <ele>4.4</ele>
        <time>2024-02-04T08:03:44Z</time>
      </trkpt>
      <trkpt lat="49.28446" lon="-0.12254">
        <ele>4.4</ele>
        <time>2024-02-04T08:03:45Z</time>
      </trkpt>
      <trkpt lat="49.28442" lon="-0.12261">
        <ele>4.4</ele>
        <time>2024-02-04T08:03:46Z</time>
      </trkpt>
      <trkpt lat="49.28438" lon="-0.12268">
        <ele>4.4</ele>
        <time>2024-02-04T08:03:47Z</time>
      </trkpt>
      <trkpt lat="49.28434" lon="-0.12276">
        <ele>4.5</ele>
        <time>2024-02-04T08:03:48Z</time>
      </trkpt>
      <trkpt lat="49.28429" lon="-0.12283">
        <ele>4.5</ele>
        <time>2024-02-04T08:03:49Z</time>
      </trkpt>
      <trkpt lat="49.28425" lon="-0.12291">
        <ele>4.5</ele>
        <time>2024-02-04T08:03:50Z</time>
      </trkpt>
      <trkpt lat="49.28421" lon="-0.12299">
        <ele>4.4</ele>
        <time>2024-02-04T08:03:51Z</time>
      </trkpt>
      <trkpt lat="49.28416" lon="-0.12306">
        <ele>4.4</ele>
        <time>2024-02-04T08:03:52Z</time>
      </trkpt>
      <trkpt lat="49.28411" lon="-0.12314">
        <ele>4.4</ele>
        <time>2024-02-04T08:03:53Z</time>
      </trkpt>
      <trkpt lat="49.28407" lon="-0.12323">
        <ele>4.4</ele>
        <time>2024-02-04T08:03:54Z</time>
      </trkpt>
      <trkpt lat="49.28402" lon="-0.12331">
        <ele>4.4</ele>
        <time>2024-02-04T08:03:55Z</time>
      </trkpt>
      <trkpt lat="49.28398" lon="-0.1234">
        <ele>4.4</ele>
        <time>2024-02-04T08:03:56Z</time>
      </trkpt>
      <trkpt lat="49.28393" lon="-0.12348">
        <ele>4.4</ele>
        <time>2024-02-04T08:03:57Z</time>
      </trkpt>
      <trkpt lat="49.28388" lon="-0.12357">
        <ele>4.4</ele>
        <time>2024-02-04T08:03:58Z</time>
      </trkpt>
      <trkpt lat="49.28383" lon="-0.12366">
        <ele>4.4</ele>
        <time>2024-02-04T08:03:59Z</time>
      </trkpt>
      <trkpt lat="49.28379" lon="-0.12374">
        <ele>4.4</ele>
        <time>2024-02-04T08:04:00Z</time>
      </trkpt>
      <trkpt lat="49.28375" lon="-0.12381">
        <ele>4.4</ele>
        <time>2024-02-04T08:04:01Z</time>
      </trkpt>
      <trkpt lat="49.2837" lon="-0.12388">
        <ele>4.4</ele>
        <time>2024-02-04T08:04:02Z</time>
      </trkpt>
      <trkpt lat="49.28367" lon="-0.12396">
        <ele>4.4</ele>
        <time>2024-02-04T08:04:03Z</time>
      </trkpt>
      <trkpt lat="49.28363" lon="-0.12403">
        <ele>4.4</ele>
        <time>2024-02-04T08:04:04Z</time>
      </trkpt>
      <trkpt lat="49.28361" lon="-0.12411">
        <ele>4.4</ele>
        <time>2024-02-04T08:04:05Z</time>
      </trkpt>
      <trkpt lat="49.2836" lon="-0.1242">
        <ele>4.4</ele>
        <time>2024-02-04T08:04:06Z</time>
      </trkpt>
      <trkpt lat="49.28361" lon="-0.1243">
        <ele>4.4</ele>
        <time>2024-02-04T08:04:07Z</time>
      </trkpt>
      <trkpt lat="49.28364" lon="-0.12439">
        <ele>4.4</ele>
        <time>2024-02-04T08:04:08Z</time>
      </trkpt>
      <trkpt lat="49.28368" lon="-0.12447">
        <ele>4.4</ele>
        <time>2024-02-04T08:04:09Z</time>
      </trkpt>
      <trkpt lat="49.28373" lon="-0.12454">
        <ele>4.4</ele>
        <time>2024-02-04T08:04:10Z</time>
      </trkpt>
      <trkpt lat="49.28378" lon="-0.1246">
        <ele>4.4</ele>
        <time>2024-02-04T08:04:11Z</time>
      </trkpt>
      <trkpt lat="49.28383" lon="-0.12465">
        <ele>4.4</ele>
        <time>2024-02-04T08:04:12Z</time>
      </trkpt>
      <trkpt lat="49.28389" lon="-0.1247">
        <ele>4.4</ele>
        <time>2024-02-04T08:04:13Z</time>
      </trkpt>
      <trkpt lat="49.28394" lon="-0.12475">
        <ele>4.4</ele>
        <time>2024-02-04T08:04:14Z</time>
      </trkpt>
      <trkpt lat="49.28399" lon="-0.12479">
        <ele>4.4</ele>
        <time>2024-02-04T08:04:15Z</time>
      </trkpt>
      <trkpt lat="49.28404" lon="-0.12484">
        <ele>4.4</ele>
        <time>2024-02-04T08:04:16Z</time>
      </trkpt>
      <trkpt lat="49.2841" lon="-0.12488">
        <ele>4.4</ele>
        <time>2024-02-04T08:04:17Z</time>
      </trkpt>
      <trkpt lat="49.28415" lon="-0.12493">
        <ele>4.4</ele>
        <time>2024-02-04T08:04:18Z</time>
      </trkpt>
      <trkpt lat="49.2842" lon="-0.12498">
        <ele>4.4</ele>
        <time>2024-02-04T08:04:19Z</time>
      </trkpt>
      <trkpt lat="49.28426" lon="-0.12502">
        <ele>4.4</ele>
        <time>2024-02-04T08:04:20Z</time>
      </trkpt>
      <trkpt lat="49.28431" lon="-0.12506">
        <ele>4.4</ele>
        <time>2024-02-04T08:04:21Z</time>
      </trkpt>
      <trkpt lat="49.28437" lon="-0.1251">
        <ele>4.4</ele>
        <time>2024-02-04T08:04:22Z</time>
      </trkpt>
      <trkpt lat="49.28442" lon="-0.12513">
        <ele>4.4</ele>
        <time>2024-02-04T08:04:23Z</time>
      </trkpt>
      <trkpt lat="49.28448" lon="-0.12517">
        <ele>4.4</ele>
        <time>2024-02-04T08:04:24Z</time>
      </trkpt>
      <trkpt lat="49.28454" lon="-0.1252">
        <ele>4.4</ele>
        <time>2024-02-04T08:04:25Z</time>
      </trkpt>
      <trkpt lat="49.2846" lon="-0.12523">
        <ele>4.4</ele>
        <time>2024-02-04T08:04:26Z</time>
      </trkpt>
      <trkpt lat="49.28466" lon="-0.12527">
        <ele>4.4</ele>
        <time>2024-02-04T08:04:27Z</time>
      </trkpt>
      <trkpt lat="49.28472" lon="-0.1253">
        <ele>4.4</ele>
        <time>2024-02-04T08:04:28Z</time>
      </trkpt>
      <trkpt lat="49.28478" lon="-0.12534">
        <ele>4.4</ele>
        <time>2024-02-04T08:04:29Z</time>
      </trkpt>
      <trkpt lat="49.28484" lon="-0.12536">
        <ele>4.4</ele>
        <time>2024-02-04T08:04:30Z</time>
      </trkpt>
      <trkpt lat="49.28489" lon="-0.12538">
        <ele>4.4</ele>
        <time>2024-02-04T08:04:31Z</time>
      </trkpt>
      <trkpt lat="49.28494" lon="-0.12541">
        <ele>4.4</ele>
        <time>2024-02-04T08:04:32Z</time>
      </trkpt>
      <trkpt lat="49.285" lon="-0.12543">
        <ele>4.4</ele>
        <time>2024-02-04T08:04:33Z</time>
      </trkpt>
      <trkpt lat="49.28506" lon="-0.12543">
        <ele>4.4</ele>
        <time>2024-02-04T08:04:34Z</time>
      </trkpt>
      <trkpt lat="49.28511" lon="-0.12543">
        <ele>4.4</ele>
        <time>2024-02-04T08:04:35Z</time>
      </trkpt>
      <trkpt lat="49.28517" lon="-0.12542">
        <ele>4.5</ele>
        <time>2024-02-04T08:04:36Z</time>
      </trkpt>
      <trkpt lat="49.28522" lon="-0.1254">
        <ele>4.5</ele>
        <time>2024-02-04T08:04:37Z</time>
      </trkpt>
      <trkpt lat="49.28527" lon="-0.12537">
        <ele>4.5</ele>
        <time>2024-02-04T08:04:38Z</time>
      </trkpt>
      <trkpt lat="49.28532" lon="-0.12536">
        <ele>4.5</ele>
        <time>2024-02-04T08:04:39Z</time>
      </trkpt>
      <trkpt lat="49.28537" lon="-0.12535">
        <ele>4.5</ele>
        <time>2024-02-04T08:04:40Z</time>
      </trkpt>
      <trkpt lat="49.28542" lon="-0.12537">
        <ele>4.5</ele>
        <time>2024-02-04T08:04:41Z</time>
      </trkpt>
      <trkpt lat="49.28547" lon="-0.12541">
        <ele>4.5</ele>
        <time>2024-02-04T08:04:42Z</time>
      </trkpt>
      <trkpt lat="49.28551" lon="-0.12546">
        <ele>4.5</ele>
        <time>2024-02-04T08:04:43Z</time>
      </trkpt>
      <trkpt lat="49.28556" lon="-0.12552">
        <ele>4.5</ele>
        <time>2024-02-04T08:04:44Z</time>
      </trkpt>
      <trkpt lat="49.28561" lon="-0.12556">
        <ele>4.5</ele>
        <time>2024-02-04T08:04:45Z</time>
      </trkpt>
      <trkpt lat="49.28567" lon="-0.12559">
        <ele>4.5</ele>
        <time>2024-02-04T08:04:46Z</time>
      </trkpt>
      <trkpt lat="49.28574" lon="-0.12562">
        <ele>4.6</ele>
        <time>2024-02-04T08:04:47Z</time>
      </trkpt>
      <trkpt lat="49.2858" lon="-0.12564">
        <ele>4.6</ele>
        <time>2024-02-04T08:04:48Z</time>
      </trkpt>
      <trkpt lat="49.28586" lon="-0.12566">
        <ele>4.6</ele>
        <time>2024-02-04T08:04:49Z</time>
      </trkpt>
      <trkpt lat="49.28593" lon="-0.12568">
        <ele>4.6</ele>
        <time>2024-02-04T08:04:50Z</time>
      </trkpt>
      <trkpt lat="49.28599" lon="-0.12571">
        <ele>4.7</ele>
        <time>2024-02-04T08:04:51Z</time>
      </trkpt>
      <trkpt lat="49.28605" lon="-0.12573">
        <ele>4.7</ele>
        <time>2024-02-04T08:04:52Z</time>
      </trkpt>
      <trkpt lat="49.28612" lon="-0.12575">
        <ele>4.7</ele>
        <time>2024-02-04T08:04:53Z</time>
      </trkpt>
      <trkpt lat="49.28618" lon="-0.12577">
        <ele>4.7</ele>
        <time>2024-02-04T08:04:54Z</time>
      </trkpt>
      <trkpt lat="49.28624" lon="-0.12578">
        <ele>4.7</ele>
        <time>2024-02-04T08:04:55Z</time>
      </trkpt>
      <trkpt lat="49.2863" lon="-0.1258">
        <ele>4.7</ele>
        <time>2024-02-04T08:04:56Z</time>
      </trkpt>
      <trkpt lat="49.28636" lon="-0.12581">
        <ele>4.8</ele>
        <time>2024-02-04T08:04:57Z</time>
      </trkpt>
      <trkpt lat="49.28642" lon="-0.12583">
        <ele>4.8</ele>
        <time>2024-02-04T08:04:58Z</time>
      </trkpt>
      <trkpt lat="49.28649" lon="-0.12585">
        <ele>4.8</ele>
        <time>2024-02-04T08:04:59Z</time>
      </trkpt>
      <trkpt lat="49.28655" lon="-0.12587">
        <ele>4.9</ele>
        <time>2024-02-04T08:05:00Z</time>
      </trkpt>
      <trkpt lat="49.28661" lon="-0.12588">
        <ele>4.9</ele>
        <time>2024-02-04T08:05:01Z</time>
      </trkpt>
      <trkpt lat="49.28666" lon="-0.1259">
        <ele>4.9</ele>
        <time>2024-02-04T08:05:02Z</time>
      </trkpt>
      <trkpt lat="49.28672" lon="-0.12592">
        <ele>5</ele>
        <time>2024-02-04T08:05:03Z</time>
      </trkpt>
      <trkpt lat="49.28677" lon="-0.12594">
        <ele>5</ele>
        <time>2024-02-04T08:05:04Z</time>
      </trkpt>
      <trkpt lat="49.28682" lon="-0.12595">
        <ele>5</ele>
        <time>2024-02-04T08:05:05Z</time>
      </trkpt>
      <trkpt lat="49.28687" lon="-0.12597">
        <ele>5.1</ele>
        <time>2024-02-04T08:05:06Z</time>
      </trkpt>
      <trkpt lat="49.28691" lon="-0.12597">
        <ele>5.1</ele>
        <time>2024-02-04T08:05:07Z</time>
      </trkpt>
      <trkpt lat="49.28695" lon="-0.12599">
        <ele>5.2</ele>
        <time>2024-02-04T08:05:08Z</time>
      </trkpt>
      <trkpt lat="49.287" lon="-0.126">
        <ele>5.2</ele>
        <time>2024-02-04T08:05:09Z</time>
      </trkpt>
      <trkpt lat="49.28704" lon="-0.12601">
        <ele>5.3</ele>
        <time>2024-02-04T08:05:10Z</time>
      </trkpt>
      <trkpt lat="49.28708" lon="-0.12603">
        <ele>5.3</ele>
        <time>2024-02-04T08:05:11Z</time>
      </trkpt>
      <trkpt lat="49.28712" lon="-0.12604">
        <ele>5.3</ele>
        <time>2024-02-04T08:05:12Z</time>
      </trkpt>
      <trkpt lat="49.28716" lon="-0.12606">
        <ele>5.3</ele>
        <time>2024-02-04T08:05:13Z</time>
      </trkpt>
      <trkpt lat="49.28718" lon="-0.12608">
        <ele>5.4</ele>
        <time>2024-02-04T08:05:14Z</time>
      </trkpt>
      <trkpt lat="49.2872" lon="-0.12612">
        <ele>5.4</ele>
        <time>2024-02-04T08:05:15Z</time>
      </trkpt>
      <trkpt lat="49.28721" lon="-0.12618">
        <ele>5.4</ele>
        <time>2024-02-04T08:05:16Z</time>
      </trkpt>
      <trkpt lat="49.28722" lon="-0.12626">
        <ele>5.4</ele>
        <time>2024-02-04T08:05:17Z</time>
      </trkpt>
      <trkpt lat="49.28722" lon="-0.12633">
        <ele>5.3</ele>
        <time>2024-02-04T08:05:18Z</time>
      </trkpt>
      <trkpt lat="49.28721" lon="-0.12642">
        <ele>5.3</ele>
        <time>2024-02-04T08:05:19Z</time>
      </trkpt>
      <trkpt lat="49.2872" lon="-0.1265">
        <ele>5.3</ele>
        <time>2024-02-04T08:05:20Z</time>
      </trkpt>
      <trkpt lat="49.28718" lon="-0.12666">
        <ele>5.3</ele>
        <time>2024-02-04T08:05:22Z</time>
      </trkpt>
      <trkpt lat="49.28717" lon="-0.12674">
        <ele>5.3</ele>
        <time>2024-02-04T08:05:23Z</time>
      </trkpt>
      <trkpt lat="49.28715" lon="-0.12683">
        <ele>5.3</ele>
        <time>2024-02-04T08:05:24Z</time>
      </trkpt>
      <trkpt lat="49.28714" lon="-0.12691">
        <ele>5.3</ele>
        <time>2024-02-04T08:05:25Z</time>
      </trkpt>
      <trkpt lat="49.28713" lon="-0.12701">
        <ele>5.3</ele>
        <time>2024-02-04T08:05:26Z</time>
      </trkpt>
      <trkpt lat="49.28711" lon="-0.1271">
        <ele>5.3</ele>
        <time>2024-02-04T08:05:27Z</time>
      </trkpt>
      <trkpt lat="49.2871" lon="-0.1272">
        <ele>5.3</ele>
        <time>2024-02-04T08:05:28Z</time>
      </trkpt>
      <trkpt lat="49.28709" lon="-0.12729">
        <ele>5.3</ele>
        <time>2024-02-04T08:05:29Z</time>
      </trkpt>
      <trkpt lat="49.28707" lon="-0.12739">
        <ele>5.3</ele>
        <time>2024-02-04T08:05:30Z</time>
      </trkpt>
      <trkpt lat="49.28706" lon="-0.12749">
        <ele>5.3</ele>
        <time>2024-02-04T08:05:31Z</time>
      </trkpt>
      <trkpt lat="49.28705" lon="-0.12758">
        <ele>5.2</ele>
        <time>2024-02-04T08:05:32Z</time>
      </trkpt>
      <trkpt lat="49.28704" lon="-0.12768">
        <ele>5.2</ele>
        <time>2024-02-04T08:05:33Z</time>
      </trkpt>
      <trkpt lat="49.28702" lon="-0.12778">
        <ele>5.2</ele>
        <time>2024-02-04T08:05:34Z</time>
      </trkpt>
      <trkpt lat="49.28701" lon="-0.12788">
        <ele>5.2</ele>
        <time>2024-02-04T08:05:35Z</time>
      </trkpt>
      <trkpt lat="49.287" lon="-0.12798">
        <ele>5.2</ele>
        <time>2024-02-04T08:05:36Z</time>
      </trkpt>
      <trkpt lat="49.28699" lon="-0.12808">
        <ele>5.2</ele>
        <time>2024-02-04T08:05:37Z</time>
      </trkpt>
      <trkpt lat="49.28697" lon="-0.12818">
        <ele>5.2</ele>
        <time>2024-02-04T08:05:38Z</time>
      </trkpt>
      <trkpt lat="49.28696" lon="-0.12827">
        <ele>5.2</ele>
        <time>2024-02-04T08:05:39Z</time>
      </trkpt>
      <trkpt lat="49.28695" lon="-0.12837">
        <ele>5.2</ele>
        <time>2024-02-04T08:05:40Z</time>
      </trkpt>
      <trkpt lat="49.28693" lon="-0.12847">
        <ele>5.1</ele>
        <time>2024-02-04T08:05:41Z</time>
      </trkpt>
      <trkpt lat="49.28692" lon="-0.12857">
        <ele>5.1</ele>
        <time>2024-02-04T08:05:42Z</time>
      </trkpt>
      <trkpt lat="49.28691" lon="-0.12867">
        <ele>5.1</ele>
        <time>2024-02-04T08:05:43Z</time>
      </trkpt>
      <trkpt lat="49.2869" lon="-0.12877">
        <ele>5.1</ele>
        <time>2024-02-04T08:05:44Z</time>
      </trkpt>
      <trkpt lat="49.28689" lon="-0.12886">
        <ele>5.1</ele>
        <time>2024-02-04T08:05:45Z</time>
      </trkpt>
      <trkpt lat="49.28687" lon="-0.12896">
        <ele>5.1</ele>
        <time>2024-02-04T08:05:46Z</time>
      </trkpt>
      <trkpt lat="49.28686" lon="-0.12906">
        <ele>5.1</ele>
        <time>2024-02-04T08:05:47Z</time>
      </trkpt>
      <trkpt lat="49.28685" lon="-0.12915">
        <ele>5</ele>
        <time>2024-02-04T08:05:48Z</time>
      </trkpt>
      <trkpt lat="49.28684" lon="-0.12925">
        <ele>5</ele>
        <time>2024-02-04T08:05:49Z</time>
      </trkpt>
      <trkpt lat="49.28683" lon="-0.12935">
        <ele>5</ele>
        <time>2024-02-04T08:05:50Z</time>
      </trkpt>
      <trkpt lat="49.28681" lon="-0.12944">
        <ele>5</ele>
        <time>2024-02-04T08:05:51Z</time>
      </trkpt>
      <trkpt lat="49.2868" lon="-0.12954">
        <ele>5</ele>
        <time>2024-02-04T08:05:52Z</time>
      </trkpt>
      <trkpt lat="49.28679" lon="-0.12964">
        <ele>5</ele>
        <time>2024-02-04T08:05:53Z</time>
      </trkpt>
      <trkpt lat="49.28677" lon="-0.12974">
        <ele>5</ele>
        <time>2024-02-04T08:05:54Z</time>
      </trkpt>
      <trkpt lat="49.28676" lon="-0.12984">
        <ele>5</ele>
        <time>2024-02-04T08:05:55Z</time>
      </trkpt>
      <trkpt lat="49.28674" lon="-0.12993">
        <ele>5</ele>
        <time>2024-02-04T08:05:56Z</time>
      </trkpt>
      <trkpt lat="49.28673" lon="-0.13003">
        <ele>5</ele>
        <time>2024-02-04T08:05:57Z</time>
      </trkpt>
      <trkpt lat="49.28671" lon="-0.13014">
        <ele>5</ele>
        <time>2024-02-04T08:05:58Z</time>
      </trkpt>
      <trkpt lat="49.2867" lon="-0.13024">
        <ele>4.9</ele>
        <time>2024-02-04T08:05:59Z</time>
      </trkpt>
      <trkpt lat="49.28669" lon="-0.13034">
        <ele>4.9</ele>
        <time>2024-02-04T08:06:00Z</time>
      </trkpt>
      <trkpt lat="49.28668" lon="-0.13045">
        <ele>4.9</ele>
        <time>2024-02-04T08:06:01Z</time>
      </trkpt>
      <trkpt lat="49.28667" lon="-0.13055">
        <ele>4.9</ele>
        <time>2024-02-04T08:06:02Z</time>
      </trkpt>
      <trkpt lat="49.28665" lon="-0.13065">
        <ele>5</ele>
        <time>2024-02-04T08:06:03Z</time>
      </trkpt>
      <trkpt lat="49.28664" lon="-0.13075">
        <ele>5</ele>
        <time>2024-02-04T08:06:04Z</time>
      </trkpt>
      <trkpt lat="49.28663" lon="-0.13085">
        <ele>5</ele>
        <time>2024-02-04T08:06:05Z</time>
      </trkpt>
      <trkpt lat="49.28661" lon="-0.13095">
        <ele>5</ele>
        <time>2024-02-04T08:06:06Z</time>
      </trkpt>
      <trkpt lat="49.2866" lon="-0.13105">
        <ele>5</ele>
        <time>2024-02-04T08:06:07Z</time>
      </trkpt>
      <trkpt lat="49.28659" lon="-0.13115">
        <ele>5</ele>
        <time>2024-02-04T08:06:08Z</time>
      </trkpt>
      <trkpt lat="49.28658" lon="-0.13126">
        <ele>5</ele>
        <time>2024-02-04T08:06:09Z</time>
      </trkpt>
      <trkpt lat="49.28656" lon="-0.13135">
        <ele>5</ele>
        <time>2024-02-04T08:06:10Z</time>
      </trkpt>
      <trkpt lat="49.28655" lon="-0.13145">
        <ele>5</ele>
        <time>2024-02-04T08:06:11Z</time>
      </trkpt>
      <trkpt lat="49.28654" lon="-0.13155">
        <ele>5</ele>
        <time>2024-02-04T08:06:12Z</time>
      </trkpt>
      <trkpt lat="49.28653" lon="-0.13165">
        <ele>5.1</ele>
        <time>2024-02-04T08:06:13Z</time>
      </trkpt>
      <trkpt lat="49.28651" lon="-0.13175">
        <ele>5.1</ele>
        <time>2024-02-04T08:06:14Z</time>
      </trkpt>
      <trkpt lat="49.2865" lon="-0.13186">
        <ele>5.1</ele>
        <time>2024-02-04T08:06:15Z</time>
      </trkpt>
      <trkpt lat="49.28649" lon="-0.13196">
        <ele>5.1</ele>
        <time>2024-02-04T08:06:16Z</time>
      </trkpt>
      <trkpt lat="49.28647" lon="-0.13206">
        <ele>5.1</ele>
        <time>2024-02-04T08:06:17Z</time>
      </trkpt>
      <trkpt lat="49.28646" lon="-0.13217">
        <ele>5.1</ele>
        <time>2024-02-04T08:06:18Z</time>
      </trkpt>
      <trkpt lat="49.28644" lon="-0.13227">
        <ele>5.1</ele>
        <time>2024-02-04T08:06:19Z</time>
      </trkpt>
      <trkpt lat="49.28643" lon="-0.13237">
        <ele>5.1</ele>
        <time>2024-02-04T08:06:20Z</time>
      </trkpt>
      <trkpt lat="49.28642" lon="-0.13247">
        <ele>5.2</ele>
        <time>2024-02-04T08:06:21Z</time>
      </trkpt>
      <trkpt lat="49.2864" lon="-0.13257">
        <ele>5.2</ele>
        <time>2024-02-04T08:06:22Z</time>
      </trkpt>
      <trkpt lat="49.28639" lon="-0.13267">
        <ele>5.2</ele>
        <time>2024-02-04T08:06:23Z</time>
      </trkpt>
      <trkpt lat="49.28637" lon="-0.13277">
        <ele>5.2</ele>
        <time>2024-02-04T08:06:24Z</time>
      </trkpt>
      <trkpt lat="49.28636" lon="-0.13288">
        <ele>5.3</ele>
        <time>2024-02-04T08:06:25Z</time>
      </trkpt>
      <trkpt lat="49.28634" lon="-0.13298">
        <ele>5.3</ele>
        <time>2024-02-04T08:06:26Z</time>
      </trkpt>
      <trkpt lat="49.28633" lon="-0.13307">
        <ele>5.3</ele>
        <time>2024-02-04T08:06:27Z</time>
      </trkpt>
      <trkpt lat="49.28632" lon="-0.13317">
        <ele>5.3</ele>
        <time>2024-02-04T08:06:28Z</time>
      </trkpt>
      <trkpt lat="49.28631" lon="-0.13326">
        <ele>5.3</ele>
        <time>2024-02-04T08:06:29Z</time>
      </trkpt>
      <trkpt lat="49.2863" lon="-0.13336">
        <ele>5.3</ele>
        <time>2024-02-04T08:06:30Z</time>
      </trkpt>
      <trkpt lat="49.28629" lon="-0.13345">
        <ele>5.3</ele>
        <time>2024-02-04T08:06:31Z</time>
      </trkpt>
      <trkpt lat="49.28627" lon="-0.13355">
        <ele>5.4</ele>
        <time>2024-02-04T08:06:32Z</time>
      </trkpt>
      <trkpt lat="49.28626" lon="-0.13365">
        <ele>5.4</ele>
        <time>2024-02-04T08:06:33Z</time>
      </trkpt>
      <trkpt lat="49.28625" lon="-0.13374">
        <ele>5.4</ele>
        <time>2024-02-04T08:06:34Z</time>
      </trkpt>
      <trkpt lat="49.28624" lon="-0.13383">
        <ele>5.4</ele>
        <time>2024-02-04T08:06:35Z</time>
      </trkpt>
      <trkpt lat="49.28623" lon="-0.13393">
        <ele>5.4</ele>
        <time>2024-02-04T08:06:36Z</time>
      </trkpt>
      <trkpt lat="49.28621" lon="-0.13402">
        <ele>5.4</ele>
        <time>2024-02-04T08:06:37Z</time>
      </trkpt>
      <trkpt lat="49.2862" lon="-0.13412">
        <ele>5.4</ele>
        <time>2024-02-04T08:06:38Z</time>
      </trkpt>
      <trkpt lat="49.28618" lon="-0.13421">
        <ele>5.4</ele>
        <time>2024-02-04T08:06:39Z</time>
      </trkpt>
      <trkpt lat="49.28617" lon="-0.1343">
        <ele>5.4</ele>
        <time>2024-02-04T08:06:40Z</time>
      </trkpt>
      <trkpt lat="49.28616" lon="-0.13439">
        <ele>5.4</ele>
        <time>2024-02-04T08:06:41Z</time>
      </trkpt>
      <trkpt lat="49.28614" lon="-0.13447">
        <ele>5.4</ele>
        <time>2024-02-04T08:06:42Z</time>
      </trkpt>
      <trkpt lat="49.28613" lon="-0.13456">
        <ele>5.4</ele>
        <time>2024-02-04T08:06:43Z</time>
      </trkpt>
      <trkpt lat="49.28612" lon="-0.13464">
        <ele>5.4</ele>
        <time>2024-02-04T08:06:44Z</time>
      </trkpt>
      <trkpt lat="49.28611" lon="-0.13473">
        <ele>5.4</ele>
        <time>2024-02-04T08:06:45Z</time>
      </trkpt>
      <trkpt lat="49.2861" lon="-0.13481">
        <ele>5.4</ele>
        <time>2024-02-04T08:06:46Z</time>
      </trkpt>
      <trkpt lat="49.28609" lon="-0.1349">
        <ele>5.4</ele>
        <time>2024-02-04T08:06:47Z</time>
      </trkpt>
      <trkpt lat="49.28608" lon="-0.135">
        <ele>5.4</ele>
        <time>2024-02-04T08:06:48Z</time>
      </trkpt>
      <trkpt lat="49.28607" lon="-0.13509">
        <ele>5.4</ele>
        <time>2024-02-04T08:06:49Z</time>
      </trkpt>
      <trkpt lat="49.28606" lon="-0.13518">
        <ele>5.4</ele>
        <time>2024-02-04T08:06:50Z</time>
      </trkpt>
      <trkpt lat="49.28605" lon="-0.13527">
        <ele>5.4</ele>
        <time>2024-02-04T08:06:51Z</time>
      </trkpt>
      <trkpt lat="49.28604" lon="-0.13536">
        <ele>5.4</ele>
        <time>2024-02-04T08:06:52Z</time>
      </trkpt>
      <trkpt lat="49.28603" lon="-0.13544">
        <ele>5.4</ele>
        <time>2024-02-04T08:06:53Z</time>
      </trkpt>
      <trkpt lat="49.28602" lon="-0.13552">
        <ele>5.4</ele>
        <time>2024-02-04T08:06:54Z</time>
      </trkpt>
      <trkpt lat="49.286" lon="-0.13561">
        <ele>5.4</ele>
        <time>2024-02-04T08:06:55Z</time>
      </trkpt>
      <trkpt lat="49.28599" lon="-0.13569">
        <ele>5.3</ele>
        <time>2024-02-04T08:06:56Z</time>
      </trkpt>
      <trkpt lat="49.28597" lon="-0.13578">
        <ele>5.3</ele>
        <time>2024-02-04T08:06:57Z</time>
      </trkpt>
      <trkpt lat="49.28596" lon="-0.13586">
        <ele>5.3</ele>
        <time>2024-02-04T08:06:58Z</time>
      </trkpt>
      <trkpt lat="49.28595" lon="-0.13595">
        <ele>5.3</ele>
        <time>2024-02-04T08:06:59Z</time>
      </trkpt>
      <trkpt lat="49.28594" lon="-0.13604">
        <ele>5.3</ele>
        <time>2024-02-04T08:07:00Z</time>
      </trkpt>
      <trkpt lat="49.28594" lon="-0.13612">
        <ele>5.3</ele>
        <time>2024-02-04T08:07:01Z</time>
      </trkpt>
      <trkpt lat="49.28593" lon="-0.13621">
        <ele>5.3</ele>
        <time>2024-02-04T08:07:02Z</time>
      </trkpt>
      <trkpt lat="49.28592" lon="-0.13629">
        <ele>5.3</ele>
        <time>2024-02-04T08:07:03Z</time>
      </trkpt>
      <trkpt lat="49.28591" lon="-0.13637">
        <ele>5.2</ele>
        <time>2024-02-04T08:07:04Z</time>
      </trkpt>
      <trkpt lat="49.2859" lon="-0.13645">
        <ele>5.2</ele>
        <time>2024-02-04T08:07:05Z</time>
      </trkpt>
      <trkpt lat="49.28589" lon="-0.13652">
        <ele>5.2</ele>
        <time>2024-02-04T08:07:06Z</time>
      </trkpt>
      <trkpt lat="49.28588" lon="-0.13659">
        <ele>5.2</ele>
        <time>2024-02-04T08:07:07Z</time>
      </trkpt>
      <trkpt lat="49.28587" lon="-0.13667">
        <ele>5.2</ele>
        <time>2024-02-04T08:07:08Z</time>
      </trkpt>
      <trkpt lat="49.28586" lon="-0.13675">
        <ele>5.2</ele>
        <time>2024-02-04T08:07:09Z</time>
      </trkpt>
      <trkpt lat="49.28585" lon="-0.13683">
        <ele>5.1</ele>
        <time>2024-02-04T08:07:10Z</time>
      </trkpt>
      <trkpt lat="49.28583" lon="-0.13691">
        <ele>5.1</ele>
        <time>2024-02-04T08:07:11Z</time>
      </trkpt>
      <trkpt lat="49.28582" lon="-0.137">
        <ele>5.1</ele>
        <time>2024-02-04T08:07:12Z</time>
      </trkpt>
      <trkpt lat="49.28581" lon="-0.13709">
        <ele>5.1</ele>
        <time>2024-02-04T08:07:13Z</time>
      </trkpt>
      <trkpt lat="49.28579" lon="-0.13719">
        <ele>5.1</ele>
        <time>2024-02-04T08:07:14Z</time>
      </trkpt>
      <trkpt lat="49.28577" lon="-0.13729">
        <ele>5.1</ele>
        <time>2024-02-04T08:07:15Z</time>
      </trkpt>
      <trkpt lat="49.28576" lon="-0.13739">
        <ele>5</ele>
        <time>2024-02-04T08:07:16Z</time>
      </trkpt>
      <trkpt lat="49.28575" lon="-0.13749">
        <ele>5</ele>
        <time>2024-02-04T08:07:17Z</time>
      </trkpt>
      <trkpt lat="49.28573" lon="-0.13759">
        <ele>5</ele>
        <time>2024-02-04T08:07:18Z</time>
      </trkpt>
      <trkpt lat="49.28572" lon="-0.13769">
        <ele>5</ele>
        <time>2024-02-04T08:07:19Z</time>
      </trkpt>
      <trkpt lat="49.28571" lon="-0.13778">
        <ele>4.9</ele>
        <time>2024-02-04T08:07:20Z</time>
      </trkpt>
      <trkpt lat="49.2857" lon="-0.13788">
        <ele>4.9</ele>
        <time>2024-02-04T08:07:21Z</time>
      </trkpt>
      <trkpt lat="49.28569" lon="-0.13798">
        <ele>4.9</ele>
        <time>2024-02-04T08:07:22Z</time>
      </trkpt>
      <trkpt lat="49.28568" lon="-0.13808">
        <ele>4.9</ele>
        <time>2024-02-04T08:07:23Z</time>
      </trkpt>
      <trkpt lat="49.28566" lon="-0.13818">
        <ele>4.9</ele>
        <time>2024-02-04T08:07:24Z</time>
      </trkpt>
      <trkpt lat="49.28564" lon="-0.13828">
        <ele>4.9</ele>
        <time>2024-02-04T08:07:25Z</time>
      </trkpt>
      <trkpt lat="49.28563" lon="-0.13839">
        <ele>4.8</ele>
        <time>2024-02-04T08:07:26Z</time>
      </trkpt>
      <trkpt lat="49.28561" lon="-0.13849">
        <ele>4.8</ele>
        <time>2024-02-04T08:07:27Z</time>
      </trkpt>
      <trkpt lat="49.2856" lon="-0.1386">
        <ele>4.8</ele>
        <time>2024-02-04T08:07:28Z</time>
      </trkpt>
      <trkpt lat="49.28559" lon="-0.1387">
        <ele>4.8</ele>
        <time>2024-02-04T08:07:29Z</time>
      </trkpt>
      <trkpt lat="49.28557" lon="-0.13881">
        <ele>4.7</ele>
        <time>2024-02-04T08:07:30Z</time>
      </trkpt>
      <trkpt lat="49.28556" lon="-0.13891">
        <ele>4.7</ele>
        <time>2024-02-04T08:07:31Z</time>
      </trkpt>
      <trkpt lat="49.28555" lon="-0.13902">
        <ele>4.7</ele>
        <time>2024-02-04T08:07:32Z</time>
      </trkpt>
      <trkpt lat="49.28553" lon="-0.13912">
        <ele>4.7</ele>
        <time>2024-02-04T08:07:33Z</time>
      </trkpt>
      <trkpt lat="49.28552" lon="-0.13923">
        <ele>4.7</ele>
        <time>2024-02-04T08:07:34Z</time>
      </trkpt>
      <trkpt lat="49.28551" lon="-0.13932">
        <ele>4.7</ele>
        <time>2024-02-04T08:07:35Z</time>
      </trkpt>
      <trkpt lat="49.28551" lon="-0.13942">
        <ele>4.8</ele>
        <time>2024-02-04T08:07:36Z</time>
      </trkpt>
      <trkpt lat="49.2855" lon="-0.13952">
        <ele>4.8</ele>
        <time>2024-02-04T08:07:37Z</time>
      </trkpt>
      <trkpt lat="49.2855" lon="-0.13962">
        <ele>4.8</ele>
        <time>2024-02-04T08:07:38Z</time>
      </trkpt>
      <trkpt lat="49.2855" lon="-0.13972">
        <ele>4.8</ele>
        <time>2024-02-04T08:07:39Z</time>
      </trkpt>
      <trkpt lat="49.2855" lon="-0.13982">
        <ele>4.8</ele>
        <time>2024-02-04T08:07:40Z</time>
      </trkpt>
      <trkpt lat="49.28549" lon="-0.13993">
        <ele>4.8</ele>
        <time>2024-02-04T08:07:41Z</time>
      </trkpt>
      <trkpt lat="49.28549" lon="-0.14004">
        <ele>4.8</ele>
        <time>2024-02-04T08:07:42Z</time>
      </trkpt>
      <trkpt lat="49.28549" lon="-0.14014">
        <ele>4.8</ele>
        <time>2024-02-04T08:07:43Z</time>
      </trkpt>
      <trkpt lat="49.28549" lon="-0.14024">
        <ele>4.8</ele>
        <time>2024-02-04T08:07:44Z</time>
      </trkpt>
      <trkpt lat="49.28549" lon="-0.14035">
        <ele>4.7</ele>
        <time>2024-02-04T08:07:45Z</time>
      </trkpt>
      <trkpt lat="49.28549" lon="-0.14045">
        <ele>4.7</ele>
        <time>2024-02-04T08:07:46Z</time>
      </trkpt>
      <trkpt lat="49.28548" lon="-0.14055">
        <ele>4.7</ele>
        <time>2024-02-04T08:07:47Z</time>
      </trkpt>
      <trkpt lat="49.28548" lon="-0.14066">
        <ele>4.7</ele>
        <time>2024-02-04T08:07:48Z</time>
      </trkpt>
      <trkpt lat="49.28548" lon="-0.14076">
        <ele>4.8</ele>
        <time>2024-02-04T08:07:49Z</time>
      </trkpt>
      <trkpt lat="49.28547" lon="-0.14087">
        <ele>4.8</ele>
        <time>2024-02-04T08:07:50Z</time>
      </trkpt>
      <trkpt lat="49.28547" lon="-0.14097">
        <ele>4.8</ele>
        <time>2024-02-04T08:07:51Z</time>
      </trkpt>
      <trkpt lat="49.28546" lon="-0.14107">
        <ele>4.8</ele>
        <time>2024-02-04T08:07:52Z</time>
      </trkpt>
      <trkpt lat="49.28545" lon="-0.14117">
        <ele>4.8</ele>
        <time>2024-02-04T08:07:53Z</time>
      </trkpt>
      <trkpt lat="49.28543" lon="-0.14127">
        <ele>4.9</ele>
        <time>2024-02-04T08:07:54Z</time>
      </trkpt>
      <trkpt lat="49.28542" lon="-0.14137">
        <ele>4.9</ele>
        <time>2024-02-04T08:07:55Z</time>
      </trkpt>
      <trkpt lat="49.28541" lon="-0.14147">
        <ele>4.9</ele>
        <time>2024-02-04T08:07:56Z</time>
      </trkpt>
      <trkpt lat="49.28539" lon="-0.14157">
        <ele>4.9</ele>
        <time>2024-02-04T08:07:57Z</time>
      </trkpt>
      <trkpt lat="49.28538" lon="-0.14168">
        <ele>4.9</ele>
        <time>2024-02-04T08:07:58Z</time>
      </trkpt>
      <trkpt lat="49.28537" lon="-0.14178">
        <ele>4.9</ele>
        <time>2024-02-04T08:07:59Z</time>
      </trkpt>
      <trkpt lat="49.28535" lon="-0.14188">
        <ele>4.9</ele>
        <time>2024-02-04T08:08:00Z</time>
      </trkpt>
      <trkpt lat="49.28534" lon="-0.14198">
        <ele>4.9</ele>
        <time>2024-02-04T08:08:01Z</time>
      </trkpt>
      <trkpt lat="49.28532" lon="-0.14207">
        <ele>4.9</ele>
        <time>2024-02-04T08:08:02Z</time>
      </trkpt>
      <trkpt lat="49.28531" lon="-0.14217">
        <ele>4.9</ele>
        <time>2024-02-04T08:08:03Z</time>
      </trkpt>
      <trkpt lat="49.28529" lon="-0.14227">
        <ele>4.9</ele>
        <time>2024-02-04T08:08:04Z</time>
      </trkpt>
      <trkpt lat="49.28528" lon="-0.14237">
        <ele>4.9</ele>
        <time>2024-02-04T08:08:05Z</time>
      </trkpt>
      <trkpt lat="49.28527" lon="-0.14247">
        <ele>4.9</ele>
        <time>2024-02-04T08:08:06Z</time>
      </trkpt>
      <trkpt lat="49.28526" lon="-0.14257">
        <ele>4.9</ele>
        <time>2024-02-04T08:08:07Z</time>
      </trkpt>
      <trkpt lat="49.28524" lon="-0.14267">
        <ele>4.9</ele>
        <time>2024-02-04T08:08:08Z</time>
      </trkpt>
      <trkpt lat="49.28523" lon="-0.14277">
        <ele>4.9</ele>
        <time>2024-02-04T08:08:09Z</time>
      </trkpt>
      <trkpt lat="49.28521" lon="-0.14288">
        <ele>4.9</ele>
        <time>2024-02-04T08:08:10Z</time>
      </trkpt>
      <trkpt lat="49.2852" lon="-0.14299">
        <ele>4.8</ele>
        <time>2024-02-04T08:08:11Z</time>
      </trkpt>
      <trkpt lat="49.28518" lon="-0.14309">
        <ele>4.8</ele>
        <time>2024-02-04T08:08:12Z</time>
      </trkpt>
      <trkpt lat="49.28517" lon="-0.1432">
        <ele>4.8</ele>
        <time>2024-02-04T08:08:13Z</time>
      </trkpt>
      <trkpt lat="49.28516" lon="-0.1433">
        <ele>4.8</ele>
        <time>2024-02-04T08:08:14Z</time>
      </trkpt>
      <trkpt lat="49.28514" lon="-0.14341">
        <ele>4.8</ele>
        <time>2024-02-04T08:08:15Z</time>
      </trkpt>
      <trkpt lat="49.28513" lon="-0.14351">
        <ele>4.8</ele>
        <time>2024-02-04T08:08:16Z</time>
      </trkpt>
      <trkpt lat="49.28511" lon="-0.14362">
        <ele>4.8</ele>
        <time>2024-02-04T08:08:17Z</time>
      </trkpt>
      <trkpt lat="49.28509" lon="-0.14373">
        <ele>4.8</ele>
        <time>2024-02-04T08:08:18Z</time>
      </trkpt>
      <trkpt lat="49.28507" lon="-0.14383">
        <ele>4.8</ele>
        <time>2024-02-04T08:08:19Z</time>
      </trkpt>
      <trkpt lat="49.28505" lon="-0.14393">
        <ele>4.7</ele>
        <time>2024-02-04T08:08:20Z</time>
      </trkpt>
      <trkpt lat="49.28503" lon="-0.14404">
        <ele>4.7</ele>
        <time>2024-02-04T08:08:21Z</time>
      </trkpt>
      <trkpt lat="49.28501" lon="-0.14415">
        <ele>4.7</ele>
        <time>2024-02-04T08:08:22Z</time>
      </trkpt>
      <trkpt lat="49.28499" lon="-0.14425">
        <ele>4.7</ele>
        <time>2024-02-04T08:08:23Z</time>
      </trkpt>
      <trkpt lat="49.28497" lon="-0.14435">
        <ele>4.7</ele>
        <time>2024-02-04T08:08:24Z</time>
      </trkpt>
      <trkpt lat="49.28494" lon="-0.14445">
        <ele>4.7</ele>
        <time>2024-02-04T08:08:25Z</time>
      </trkpt>
      <trkpt lat="49.28492" lon="-0.14455">
        <ele>4.7</ele>
        <time>2024-02-04T08:08:26Z</time>
      </trkpt>
      <trkpt lat="49.2849" lon="-0.14465">
        <ele>4.6</ele>
        <time>2024-02-04T08:08:27Z</time>
      </trkpt>
      <trkpt lat="49.28487" lon="-0.14475">
        <ele>4.6</ele>
        <time>2024-02-04T08:08:28Z</time>
      </trkpt>
      <trkpt lat="49.28485" lon="-0.14485">
        <ele>4.6</ele>
        <time>2024-02-04T08:08:29Z</time>
      </trkpt>
      <trkpt lat="49.28482" lon="-0.14495">
        <ele>4.6</ele>
        <time>2024-02-04T08:08:30Z</time>
      </trkpt>
      <trkpt lat="49.2848" lon="-0.14505">
        <ele>4.6</ele>
        <time>2024-02-04T08:08:31Z</time>
      </trkpt>
      <trkpt lat="49.28478" lon="-0.14515">
        <ele>4.6</ele>
        <time>2024-02-04T08:08:32Z</time>
      </trkpt>
      <trkpt lat="49.28476" lon="-0.14525">
        <ele>4.6</ele>
        <time>2024-02-04T08:08:33Z</time>
      </trkpt>
      <trkpt lat="49.28475" lon="-0.14535">
        <ele>4.5</ele>
        <time>2024-02-04T08:08:34Z</time>
      </trkpt>
      <trkpt lat="49.28473" lon="-0.14546">
        <ele>4.5</ele>
        <time>2024-02-04T08:08:35Z</time>
      </trkpt>
      <trkpt lat="49.28472" lon="-0.14557">
        <ele>4.5</ele>
        <time>2024-02-04T08:08:36Z</time>
      </trkpt>
      <trkpt lat="49.28471" lon="-0.14567">
        <ele>4.5</ele>
        <time>2024-02-04T08:08:37Z</time>
      </trkpt>
      <trkpt lat="49.2847" lon="-0.14578">
        <ele>4.5</ele>
        <time>2024-02-04T08:08:38Z</time>
      </trkpt>
      <trkpt lat="49.28469" lon="-0.14588">
        <ele>4.4</ele>
        <time>2024-02-04T08:08:39Z</time>
      </trkpt>
      <trkpt lat="49.28468" lon="-0.14598">
        <ele>4.4</ele>
        <time>2024-02-04T08:08:40Z</time>
      </trkpt>
      <trkpt lat="49.28468" lon="-0.14609">
        <ele>4.4</ele>
        <time>2024-02-04T08:08:41Z</time>
      </trkpt>
      <trkpt lat="49.28467" lon="-0.14619">
        <ele>4.4</ele>
        <time>2024-02-04T08:08:42Z</time>
      </trkpt>
      <trkpt lat="49.28467" lon="-0.1463">
        <ele>4.4</ele>
        <time>2024-02-04T08:08:43Z</time>
      </trkpt>
      <trkpt lat="49.28466" lon="-0.1464">
        <ele>4.4</ele>
        <time>2024-02-04T08:08:44Z</time>
      </trkpt>
      <trkpt lat="49.28466" lon="-0.14651">
        <ele>4.4</ele>
        <time>2024-02-04T08:08:45Z</time>
      </trkpt>
      <trkpt lat="49.28465" lon="-0.14663">
        <ele>4.5</ele>
        <time>2024-02-04T08:08:46Z</time>
      </trkpt>
      <trkpt lat="49.28465" lon="-0.14673">
        <ele>4.5</ele>
        <time>2024-02-04T08:08:47Z</time>
      </trkpt>
      <trkpt lat="49.28465" lon="-0.14684">
        <ele>4.5</ele>
        <time>2024-02-04T08:08:48Z</time>
      </trkpt>
      <trkpt lat="49.28464" lon="-0.14694">
        <ele>4.5</ele>
        <time>2024-02-04T08:08:49Z</time>
      </trkpt>
      <trkpt lat="49.28463" lon="-0.14705">
        <ele>4.5</ele>
        <time>2024-02-04T08:08:50Z</time>
      </trkpt>
      <trkpt lat="49.28462" lon="-0.14716">
        <ele>4.5</ele>
        <time>2024-02-04T08:08:51Z</time>
      </trkpt>
      <trkpt lat="49.28461" lon="-0.14727">
        <ele>4.5</ele>
        <time>2024-02-04T08:08:52Z</time>
      </trkpt>
      <trkpt lat="49.28461" lon="-0.14738">
        <ele>4.5</ele>
        <time>2024-02-04T08:08:53Z</time>
      </trkpt>
      <trkpt lat="49.2846" lon="-0.14748">
        <ele>4.5</ele>
        <time>2024-02-04T08:08:54Z</time>
      </trkpt>
      <trkpt lat="49.28459" lon="-0.14759">
        <ele>4.5</ele>
        <time>2024-02-04T08:08:55Z</time>
      </trkpt>
      <trkpt lat="49.28459" lon="-0.14769">
        <ele>4.5</ele>
        <time>2024-02-04T08:08:56Z</time>
      </trkpt>
      <trkpt lat="49.28458" lon="-0.1478">
        <ele>4.5</ele>
        <time>2024-02-04T08:08:57Z</time>
      </trkpt>
      <trkpt lat="49.28457" lon="-0.14791">
        <ele>4.5</ele>
        <time>2024-02-04T08:08:58Z</time>
      </trkpt>
      <trkpt lat="49.28457" lon="-0.14802">
        <ele>4.5</ele>
        <time>2024-02-04T08:08:59Z</time>
      </trkpt>
      <trkpt lat="49.28456" lon="-0.14812">
        <ele>4.5</ele>
        <time>2024-02-04T08:09:00Z</time>
      </trkpt>
      <trkpt lat="49.28456" lon="-0.14822">
        <ele>4.5</ele>
        <time>2024-02-04T08:09:01Z</time>
      </trkpt>
      <trkpt lat="49.28455" lon="-0.14833">
        <ele>4.5</ele>
        <time>2024-02-04T08:09:02Z</time>
      </trkpt>
      <trkpt lat="49.28454" lon="-0.14844">
        <ele>4.4</ele>
        <time>2024-02-04T08:09:03Z</time>
      </trkpt>
      <trkpt lat="49.28453" lon="-0.14855">
        <ele>4.4</ele>
        <time>2024-02-04T08:09:04Z</time>
      </trkpt>
      <trkpt lat="49.28453" lon="-0.14866">
        <ele>4.4</ele>
        <time>2024-02-04T08:09:05Z</time>
      </trkpt>
      <trkpt lat="49.28452" lon="-0.14876">
        <ele>4.5</ele>
        <time>2024-02-04T08:09:06Z</time>
      </trkpt>
      <trkpt lat="49.28451" lon="-0.14887">
        <ele>4.5</ele>
        <time>2024-02-04T08:09:07Z</time>
      </trkpt>
      <trkpt lat="49.2845" lon="-0.14898">
        <ele>4.5</ele>
        <time>2024-02-04T08:09:08Z</time>
      </trkpt>
      <trkpt lat="49.28449" lon="-0.14908">
        <ele>4.5</ele>
        <time>2024-02-04T08:09:09Z</time>
      </trkpt>
      <trkpt lat="49.28448" lon="-0.14919">
        <ele>4.5</ele>
        <time>2024-02-04T08:09:10Z</time>
      </trkpt>
      <trkpt lat="49.28448" lon="-0.1493">
        <ele>4.5</ele>
        <time>2024-02-04T08:09:11Z</time>
      </trkpt>
      <trkpt lat="49.28447" lon="-0.14941">
        <ele>4.5</ele>
        <time>2024-02-04T08:09:12Z</time>
      </trkpt>
      <trkpt lat="49.28446" lon="-0.14951">
        <ele>4.5</ele>
        <time>2024-02-04T08:09:13Z</time>
      </trkpt>
      <trkpt lat="49.28445" lon="-0.14962">
        <ele>4.5</ele>
        <time>2024-02-04T08:09:14Z</time>
      </trkpt>
      <trkpt lat="49.28445" lon="-0.14973">
        <ele>4.5</ele>
        <time>2024-02-04T08:09:15Z</time>
      </trkpt>
      <trkpt lat="49.28444" lon="-0.14984">
        <ele>4.5</ele>
        <time>2024-02-04T08:09:16Z</time>
      </trkpt>
      <trkpt lat="49.28443" lon="-0.14994">
        <ele>4.5</ele>
        <time>2024-02-04T08:09:17Z</time>
      </trkpt>
      <trkpt lat="49.28442" lon="-0.15005">
        <ele>4.5</ele>
        <time>2024-02-04T08:09:18Z</time>
      </trkpt>
      <trkpt lat="49.28442" lon="-0.15015">
        <ele>4.5</ele>
        <time>2024-02-04T08:09:19Z</time>
      </trkpt>
      <trkpt lat="49.28441" lon="-0.15026">
        <ele>4.5</ele>
        <time>2024-02-04T08:09:20Z</time>
      </trkpt>
      <trkpt lat="49.2844" lon="-0.15037">
        <ele>4.5</ele>
        <time>2024-02-04T08:09:21Z</time>
      </trkpt>
      <trkpt lat="49.2844" lon="-0.15048">
        <ele>4.6</ele>
        <time>2024-02-04T08:09:22Z</time>
      </trkpt>
      <trkpt lat="49.28439" lon="-0.1506">
        <ele>4.6</ele>
        <time>2024-02-04T08:09:23Z</time>
      </trkpt>
      <trkpt lat="49.28438" lon="-0.15071">
        <ele>4.6</ele>
        <time>2024-02-04T08:09:24Z</time>
      </trkpt>
      <trkpt lat="49.28438" lon="-0.15082">
        <ele>4.6</ele>
        <time>2024-02-04T08:09:25Z</time>
      </trkpt>
      <trkpt lat="49.28438" lon="-0.15093">
        <ele>4.6</ele>
        <time>2024-02-04T08:09:26Z</time>
      </trkpt>
      <trkpt lat="49.28437" lon="-0.15104">
        <ele>4.6</ele>
        <time>2024-02-04T08:09:27Z</time>
      </trkpt>
      <trkpt lat="49.28437" lon="-0.15114">
        <ele>4.6</ele>
        <time>2024-02-04T08:09:28Z</time>
      </trkpt>
      <trkpt lat="49.28437" lon="-0.15125">
        <ele>4.6</ele>
        <time>2024-02-04T08:09:29Z</time>
      </trkpt>
      <trkpt lat="49.28437" lon="-0.15135">
        <ele>4.7</ele>
        <time>2024-02-04T08:09:30Z</time>
      </trkpt>
      <trkpt lat="49.28438" lon="-0.15146">
        <ele>4.7</ele>
        <time>2024-02-04T08:09:31Z</time>
      </trkpt>
      <trkpt lat="49.28438" lon="-0.15156">
        <ele>4.7</ele>
        <time>2024-02-04T08:09:32Z</time>
      </trkpt>
      <trkpt lat="49.28438" lon="-0.15166">
        <ele>4.7</ele>
        <time>2024-02-04T08:09:33Z</time>
      </trkpt>
      <trkpt lat="49.28438" lon="-0.15176">
        <ele>4.7</ele>
        <time>2024-02-04T08:09:34Z</time>
      </trkpt>
      <trkpt lat="49.28439" lon="-0.15186">
        <ele>4.7</ele>
        <time>2024-02-04T08:09:35Z</time>
      </trkpt>
      <trkpt lat="49.28439" lon="-0.15196">
        <ele>4.7</ele>
        <time>2024-02-04T08:09:36Z</time>
      </trkpt>
      <trkpt lat="49.2844" lon="-0.15206">
        <ele>4.7</ele>
        <time>2024-02-04T08:09:37Z</time>
      </trkpt>
      <trkpt lat="49.28439" lon="-0.15217">
        <ele>4.6</ele>
        <time>2024-02-04T08:09:38Z</time>
      </trkpt>
      <trkpt lat="49.2844" lon="-0.15229">
        <ele>4.6</ele>
        <time>2024-02-04T08:09:39Z</time>
      </trkpt>
      <trkpt lat="49.2844" lon="-0.15241">
        <ele>4.5</ele>
        <time>2024-02-04T08:09:40Z</time>
      </trkpt>
      <trkpt lat="49.28441" lon="-0.15253">
        <ele>4.5</ele>
        <time>2024-02-04T08:09:41Z</time>
      </trkpt>
      <trkpt lat="49.28441" lon="-0.15264">
        <ele>4.5</ele>
        <time>2024-02-04T08:09:42Z</time>
      </trkpt>
      <trkpt lat="49.28442" lon="-0.15275">
        <ele>4.4</ele>
        <time>2024-02-04T08:09:43Z</time>
      </trkpt>
      <trkpt lat="49.28442" lon="-0.15287">
        <ele>4.4</ele>
        <time>2024-02-04T08:09:44Z</time>
      </trkpt>
      <trkpt lat="49.28443" lon="-0.15298">
        <ele>4.4</ele>
        <time>2024-02-04T08:09:45Z</time>
      </trkpt>
      <trkpt lat="49.28444" lon="-0.1531">
        <ele>4.4</ele>
        <time>2024-02-04T08:09:46Z</time>
      </trkpt>
      <trkpt lat="49.28444" lon="-0.15321">
        <ele>4.4</ele>
        <time>2024-02-04T08:09:47Z</time>
      </trkpt>
      <trkpt lat="49.28444" lon="-0.15332">
        <ele>4.4</ele>
        <time>2024-02-04T08:09:48Z</time>
      </trkpt>
      <trkpt lat="49.28444" lon="-0.15343">
        <ele>4.4</ele>
        <time>2024-02-04T08:09:49Z</time>
      </trkpt>
      <trkpt lat="49.28444" lon="-0.15354">
        <ele>4.4</ele>
        <time>2024-02-04T08:09:50Z</time>
      </trkpt>
      <trkpt lat="49.28445" lon="-0.15366">
        <ele>4.4</ele>
        <time>2024-02-04T08:09:51Z</time>
      </trkpt>
      <trkpt lat="49.28445" lon="-0.15376">
        <ele>4.5</ele>
        <time>2024-02-04T08:09:52Z</time>
      </trkpt>
      <trkpt lat="49.28446" lon="-0.15387">
        <ele>4.5</ele>
        <time>2024-02-04T08:09:53Z</time>
      </trkpt>
      <trkpt lat="49.28447" lon="-0.15398">
        <ele>4.5</ele>
        <time>2024-02-04T08:09:54Z</time>
      </trkpt>
      <trkpt lat="49.28447" lon="-0.15409">
        <ele>4.5</ele>
        <time>2024-02-04T08:09:55Z</time>
      </trkpt>
      <trkpt lat="49.28447" lon="-0.1542">
        <ele>4.5</ele>
        <time>2024-02-04T08:09:56Z</time>
      </trkpt>
      <trkpt lat="49.28447" lon="-0.15431">
        <ele>4.6</ele>
        <time>2024-02-04T08:09:57Z</time>
      </trkpt>
      <trkpt lat="49.28448" lon="-0.15443">
        <ele>4.6</ele>
        <time>2024-02-04T08:09:58Z</time>
      </trkpt>
      <trkpt lat="49.28448" lon="-0.15454">
        <ele>4.6</ele>
        <time>2024-02-04T08:09:59Z</time>
      </trkpt>
      <trkpt lat="49.28449" lon="-0.15465">
        <ele>4.7</ele>
        <time>2024-02-04T08:10:00Z</time>
      </trkpt>
      <trkpt lat="49.28449" lon="-0.15475">
        <ele>4.7</ele>
        <time>2024-02-04T08:10:01Z</time>
      </trkpt>
      <trkpt lat="49.28449" lon="-0.15486">
        <ele>4.7</ele>
        <time>2024-02-04T08:10:02Z</time>
      </trkpt>
      <trkpt lat="49.2845" lon="-0.15496">
        <ele>4.7</ele>
        <time>2024-02-04T08:10:03Z</time>
      </trkpt>
      <trkpt lat="49.2845" lon="-0.15507">
        <ele>4.7</ele>
        <time>2024-02-04T08:10:04Z</time>
      </trkpt>
      <trkpt lat="49.2845" lon="-0.15517">
        <ele>4.7</ele>
        <time>2024-02-04T08:10:05Z</time>
      </trkpt>
      <trkpt lat="49.2845" lon="-0.15528">
        <ele>4.7</ele>
        <time>2024-02-04T08:10:06Z</time>
      </trkpt>
      <trkpt lat="49.2845" lon="-0.15539">
        <ele>4.7</ele>
        <time>2024-02-04T08:10:07Z</time>
      </trkpt>
      <trkpt lat="49.28451" lon="-0.15549">
        <ele>4.7</ele>
        <time>2024-02-04T08:10:08Z</time>
      </trkpt>
      <trkpt lat="49.28451" lon="-0.15559">
        <ele>4.7</ele>
        <time>2024-02-04T08:10:09Z</time>
      </trkpt>
      <trkpt lat="49.28451" lon="-0.15569">
        <ele>4.7</ele>
        <time>2024-02-04T08:10:10Z</time>
      </trkpt>
      <trkpt lat="49.28452" lon="-0.1558">
        <ele>4.7</ele>
        <time>2024-02-04T08:10:11Z</time>
      </trkpt>
      <trkpt lat="49.28453" lon="-0.15591">
        <ele>4.7</ele>
        <time>2024-02-04T08:10:12Z</time>
      </trkpt>
      <trkpt lat="49.28453" lon="-0.15602">
        <ele>4.7</ele>
        <time>2024-02-04T08:10:13Z</time>
      </trkpt>
      <trkpt lat="49.28453" lon="-0.15612">
        <ele>4.8</ele>
        <time>2024-02-04T08:10:14Z</time>
      </trkpt>
      <trkpt lat="49.28454" lon="-0.15623">
        <ele>4.8</ele>
        <time>2024-02-04T08:10:15Z</time>
      </trkpt>
      <trkpt lat="49.28454" lon="-0.15634">
        <ele>4.8</ele>
        <time>2024-02-04T08:10:16Z</time>
      </trkpt>
      <trkpt lat="49.28454" lon="-0.15645">
        <ele>4.8</ele>
        <time>2024-02-04T08:10:17Z</time>
      </trkpt>
      <trkpt lat="49.28455" lon="-0.15656">
        <ele>4.8</ele>
        <time>2024-02-04T08:10:18Z</time>
      </trkpt>
      <trkpt lat="49.28455" lon="-0.15666">
        <ele>4.8</ele>
        <time>2024-02-04T08:10:19Z</time>
      </trkpt>
      <trkpt lat="49.28456" lon="-0.15677">
        <ele>4.9</ele>
        <time>2024-02-04T08:10:20Z</time>
      </trkpt>
      <trkpt lat="49.28456" lon="-0.15687">
        <ele>4.9</ele>
        <time>2024-02-04T08:10:21Z</time>
      </trkpt>
      <trkpt lat="49.28456" lon="-0.15698">
        <ele>4.9</ele>
        <time>2024-02-04T08:10:22Z</time>
      </trkpt>
      <trkpt lat="49.28457" lon="-0.15709">
        <ele>4.9</ele>
        <time>2024-02-04T08:10:23Z</time>
      </trkpt>
      <trkpt lat="49.28457" lon="-0.1572">
        <ele>4.9</ele>
        <time>2024-02-04T08:10:24Z</time>
      </trkpt>
      <trkpt lat="49.28457" lon="-0.15731">
        <ele>4.9</ele>
        <time>2024-02-04T08:10:25Z</time>
      </trkpt>
      <trkpt lat="49.28458" lon="-0.15742">
        <ele>4.9</ele>
        <time>2024-02-04T08:10:26Z</time>
      </trkpt>
      <trkpt lat="49.28458" lon="-0.15752">
        <ele>4.9</ele>
        <time>2024-02-04T08:10:27Z</time>
      </trkpt>
      <trkpt lat="49.28458" lon="-0.15763">
        <ele>4.9</ele>
        <time>2024-02-04T08:10:28Z</time>
      </trkpt>
      <trkpt lat="49.28458" lon="-0.15773">
        <ele>4.9</ele>
        <time>2024-02-04T08:10:29Z</time>
      </trkpt>
      <trkpt lat="49.28459" lon="-0.15784">
        <ele>4.9</ele>
        <time>2024-02-04T08:10:30Z</time>
      </trkpt>
      <trkpt lat="49.28459" lon="-0.15794">
        <ele>4.9</ele>
        <time>2024-02-04T08:10:31Z</time>
      </trkpt>
      <trkpt lat="49.2846" lon="-0.15805">
        <ele>4.9</ele>
        <time>2024-02-04T08:10:32Z</time>
      </trkpt>
      <trkpt lat="49.2846" lon="-0.15816">
        <ele>4.9</ele>
        <time>2024-02-04T08:10:33Z</time>
      </trkpt>
      <trkpt lat="49.2846" lon="-0.15827">
        <ele>4.9</ele>
        <time>2024-02-04T08:10:34Z</time>
      </trkpt>
      <trkpt lat="49.28461" lon="-0.15837">
        <ele>4.9</ele>
        <time>2024-02-04T08:10:35Z</time>
      </trkpt>
      <trkpt lat="49.28461" lon="-0.15848">
        <ele>4.9</ele>
        <time>2024-02-04T08:10:36Z</time>
      </trkpt>
      <trkpt lat="49.28461" lon="-0.15859">
        <ele>4.9</ele>
        <time>2024-02-04T08:10:37Z</time>
      </trkpt>
      <trkpt lat="49.28462" lon="-0.1587">
        <ele>4.9</ele>
        <time>2024-02-04T08:10:38Z</time>
      </trkpt>
      <trkpt lat="49.28462" lon="-0.15881">
        <ele>4.9</ele>
        <time>2024-02-04T08:10:39Z</time>
      </trkpt>
      <trkpt lat="49.28463" lon="-0.15892">
        <ele>4.9</ele>
        <time>2024-02-04T08:10:40Z</time>
      </trkpt>
      <trkpt lat="49.28464" lon="-0.15904">
        <ele>4.9</ele>
        <time>2024-02-04T08:10:41Z</time>
      </trkpt>
      <trkpt lat="49.28465" lon="-0.15915">
        <ele>4.9</ele>
        <time>2024-02-04T08:10:42Z</time>
      </trkpt>
      <trkpt lat="49.28465" lon="-0.15926">
        <ele>4.9</ele>
        <time>2024-02-04T08:10:43Z</time>
      </trkpt>
      <trkpt lat="49.28466" lon="-0.15937">
        <ele>4.9</ele>
        <time>2024-02-04T08:10:44Z</time>
      </trkpt>
      <trkpt lat="49.28467" lon="-0.15948">
        <ele>4.8</ele>
        <time>2024-02-04T08:10:45Z</time>
      </trkpt>
      <trkpt lat="49.28467" lon="-0.15959">
        <ele>4.8</ele>
        <time>2024-02-04T08:10:46Z</time>
      </trkpt>
      <trkpt lat="49.28468" lon="-0.1597">
        <ele>4.8</ele>
        <time>2024-02-04T08:10:47Z</time>
      </trkpt>
      <trkpt lat="49.28468" lon="-0.15981">
        <ele>4.8</ele>
        <time>2024-02-04T08:10:48Z</time>
      </trkpt>
      <trkpt lat="49.28469" lon="-0.15992">
        <ele>4.9</ele>
        <time>2024-02-04T08:10:49Z</time>
      </trkpt>
      <trkpt lat="49.28469" lon="-0.16003">
        <ele>4.9</ele>
        <time>2024-02-04T08:10:50Z</time>
      </trkpt>
      <trkpt lat="49.28469" lon="-0.16014">
        <ele>4.9</ele>
        <time>2024-02-04T08:10:51Z</time>
      </trkpt>
      <trkpt lat="49.2847" lon="-0.16026">
        <ele>4.8</ele>
        <time>2024-02-04T08:10:52Z</time>
      </trkpt>
      <trkpt lat="49.28471" lon="-0.16037">
        <ele>4.8</ele>
        <time>2024-02-04T08:10:53Z</time>
      </trkpt>
      <trkpt lat="49.28472" lon="-0.16048">
        <ele>4.8</ele>
        <time>2024-02-04T08:10:54Z</time>
      </trkpt>
      <trkpt lat="49.28473" lon="-0.16058">
        <ele>4.8</ele>
        <time>2024-02-04T08:10:55Z</time>
      </trkpt>
      <trkpt lat="49.28474" lon="-0.16069">
        <ele>4.8</ele>
        <time>2024-02-04T08:10:56Z</time>
      </trkpt>
      <trkpt lat="49.28474" lon="-0.16079">
        <ele>4.8</ele>
        <time>2024-02-04T08:10:57Z</time>
      </trkpt>
      <trkpt lat="49.28475" lon="-0.1609">
        <ele>4.9</ele>
        <time>2024-02-04T08:10:58Z</time>
      </trkpt>
      <trkpt lat="49.28476" lon="-0.161">
        <ele>4.9</ele>
        <time>2024-02-04T08:10:59Z</time>
      </trkpt>
      <trkpt lat="49.28477" lon="-0.1611">
        <ele>4.9</ele>
        <time>2024-02-04T08:11:00Z</time>
      </trkpt>
      <trkpt lat="49.28478" lon="-0.16121">
        <ele>4.9</ele>
        <time>2024-02-04T08:11:01Z</time>
      </trkpt>
      <trkpt lat="49.28479" lon="-0.16132">
        <ele>4.9</ele>
        <time>2024-02-04T08:11:02Z</time>
      </trkpt>
      <trkpt lat="49.28479" lon="-0.16141">
        <ele>4.9</ele>
        <time>2024-02-04T08:11:03Z</time>
      </trkpt>
      <trkpt lat="49.28479" lon="-0.16152">
        <ele>4.9</ele>
        <time>2024-02-04T08:11:04Z</time>
      </trkpt>
      <trkpt lat="49.2848" lon="-0.16162">
        <ele>4.9</ele>
        <time>2024-02-04T08:11:05Z</time>
      </trkpt>
      <trkpt lat="49.2848" lon="-0.16173">
        <ele>4.9</ele>
        <time>2024-02-04T08:11:06Z</time>
      </trkpt>
      <trkpt lat="49.2848" lon="-0.16183">
        <ele>4.9</ele>
        <time>2024-02-04T08:11:07Z</time>
      </trkpt>
      <trkpt lat="49.28481" lon="-0.16194">
        <ele>4.9</ele>
        <time>2024-02-04T08:11:08Z</time>
      </trkpt>
      <trkpt lat="49.28481" lon="-0.16205">
        <ele>4.9</ele>
        <time>2024-02-04T08:11:09Z</time>
      </trkpt>
      <trkpt lat="49.28481" lon="-0.16216">
        <ele>4.9</ele>
        <time>2024-02-04T08:11:10Z</time>
      </trkpt>
      <trkpt lat="49.28481" lon="-0.16226">
        <ele>4.9</ele>
        <time>2024-02-04T08:11:11Z</time>
      </trkpt>
      <trkpt lat="49.2848" lon="-0.16237">
        <ele>4.9</ele>
        <time>2024-02-04T08:11:12Z</time>
      </trkpt>
      <trkpt lat="49.28479" lon="-0.16248">
        <ele>4.9</ele>
        <time>2024-02-04T08:11:13Z</time>
      </trkpt>
      <trkpt lat="49.28478" lon="-0.16259">
        <ele>4.9</ele>
        <time>2024-02-04T08:11:14Z</time>
      </trkpt>
      <trkpt lat="49.28477" lon="-0.1627">
        <ele>4.9</ele>
        <time>2024-02-04T08:11:15Z</time>
      </trkpt>
      <trkpt lat="49.28475" lon="-0.16281">
        <ele>5</ele>
        <time>2024-02-04T08:11:16Z</time>
      </trkpt>
      <trkpt lat="49.28474" lon="-0.16292">
        <ele>5</ele>
        <time>2024-02-04T08:11:17Z</time>
      </trkpt>
      <trkpt lat="49.28473" lon="-0.16302">
        <ele>5</ele>
        <time>2024-02-04T08:11:18Z</time>
      </trkpt>
      <trkpt lat="49.28471" lon="-0.16313">
        <ele>5</ele>
        <time>2024-02-04T08:11:19Z</time>
      </trkpt>
      <trkpt lat="49.2847" lon="-0.16323">
        <ele>5.1</ele>
        <time>2024-02-04T08:11:20Z</time>
      </trkpt>
      <trkpt lat="49.28468" lon="-0.16334">
        <ele>5.1</ele>
        <time>2024-02-04T08:11:21Z</time>
      </trkpt>
      <trkpt lat="49.28467" lon="-0.16345">
        <ele>5.1</ele>
        <time>2024-02-04T08:11:22Z</time>
      </trkpt>
      <trkpt lat="49.28465" lon="-0.16356">
        <ele>5.1</ele>
        <time>2024-02-04T08:11:23Z</time>
      </trkpt>
      <trkpt lat="49.28463" lon="-0.16366">
        <ele>5.2</ele>
        <time>2024-02-04T08:11:24Z</time>
      </trkpt>
      <trkpt lat="49.28462" lon="-0.16376">
        <ele>5.2</ele>
        <time>2024-02-04T08:11:25Z</time>
      </trkpt>
      <trkpt lat="49.28461" lon="-0.16387">
        <ele>5.2</ele>
        <time>2024-02-04T08:11:26Z</time>
      </trkpt>
      <trkpt lat="49.2846" lon="-0.16397">
        <ele>5.2</ele>
        <time>2024-02-04T08:11:27Z</time>
      </trkpt>
      <trkpt lat="49.2846" lon="-0.16408">
        <ele>5.2</ele>
        <time>2024-02-04T08:11:28Z</time>
      </trkpt>
      <trkpt lat="49.28459" lon="-0.16419">
        <ele>5.3</ele>
        <time>2024-02-04T08:11:29Z</time>
      </trkpt>
      <trkpt lat="49.28458" lon="-0.1643">
        <ele>5.3</ele>
        <time>2024-02-04T08:11:30Z</time>
      </trkpt>
      <trkpt lat="49.28458" lon="-0.16441">
        <ele>5.3</ele>
        <time>2024-02-04T08:11:31Z</time>
      </trkpt>
      <trkpt lat="49.28457" lon="-0.16451">
        <ele>5.3</ele>
        <time>2024-02-04T08:11:32Z</time>
      </trkpt>
      <trkpt lat="49.28456" lon="-0.16462">
        <ele>5.3</ele>
        <time>2024-02-04T08:11:33Z</time>
      </trkpt>
      <trkpt lat="49.28455" lon="-0.16473">
        <ele>5.3</ele>
        <time>2024-02-04T08:11:34Z</time>
      </trkpt>
      <trkpt lat="49.28454" lon="-0.16485">
        <ele>5.3</ele>
        <time>2024-02-04T08:11:35Z</time>
      </trkpt>
      <trkpt lat="49.28453" lon="-0.16496">
        <ele>5.3</ele>
        <time>2024-02-04T08:11:36Z</time>
      </trkpt>
      <trkpt lat="49.28452" lon="-0.16507">
        <ele>5.3</ele>
        <time>2024-02-04T08:11:37Z</time>
      </trkpt>
      <trkpt lat="49.28451" lon="-0.16518">
        <ele>5.3</ele>
        <time>2024-02-04T08:11:38Z</time>
      </trkpt>
      <trkpt lat="49.2845" lon="-0.16529">
        <ele>5.3</ele>
        <time>2024-02-04T08:11:39Z</time>
      </trkpt>
      <trkpt lat="49.2845" lon="-0.1654">
        <ele>5.3</ele>
        <time>2024-02-04T08:11:40Z</time>
      </trkpt>
      <trkpt lat="49.28449" lon="-0.16551">
        <ele>5.3</ele>
        <time>2024-02-04T08:11:41Z</time>
      </trkpt>
      <trkpt lat="49.28449" lon="-0.16563">
        <ele>5.3</ele>
        <time>2024-02-04T08:11:42Z</time>
      </trkpt>
      <trkpt lat="49.28449" lon="-0.16574">
        <ele>5.3</ele>
        <time>2024-02-04T08:11:43Z</time>
      </trkpt>
      <trkpt lat="49.28449" lon="-0.16585">
        <ele>5.3</ele>
        <time>2024-02-04T08:11:44Z</time>
      </trkpt>
      <trkpt lat="49.28449" lon="-0.16597">
        <ele>5.3</ele>
        <time>2024-02-04T08:11:45Z</time>
      </trkpt>
      <trkpt lat="49.28449" lon="-0.16608">
        <ele>5.3</ele>
        <time>2024-02-04T08:11:46Z</time>
      </trkpt>
      <trkpt lat="49.2845" lon="-0.1662">
        <ele>5.3</ele>
        <time>2024-02-04T08:11:47Z</time>
      </trkpt>
      <trkpt lat="49.2845" lon="-0.16631">
        <ele>5.3</ele>
        <time>2024-02-04T08:11:48Z</time>
      </trkpt>
      <trkpt lat="49.28451" lon="-0.16642">
        <ele>5.3</ele>
        <time>2024-02-04T08:11:49Z</time>
      </trkpt>
      <trkpt lat="49.28452" lon="-0.16653">
        <ele>5.3</ele>
        <time>2024-02-04T08:11:50Z</time>
      </trkpt>
      <trkpt lat="49.28452" lon="-0.16663">
        <ele>5.3</ele>
        <time>2024-02-04T08:11:51Z</time>
      </trkpt>
      <trkpt lat="49.28453" lon="-0.16674">
        <ele>5.3</ele>
        <time>2024-02-04T08:11:52Z</time>
      </trkpt>
      <trkpt lat="49.28454" lon="-0.16685">
        <ele>5.3</ele>
        <time>2024-02-04T08:11:53Z</time>
      </trkpt>
      <trkpt lat="49.28455" lon="-0.16695">
        <ele>5.3</ele>
        <time>2024-02-04T08:11:54Z</time>
      </trkpt>
      <trkpt lat="49.28455" lon="-0.16706">
        <ele>5.3</ele>
        <time>2024-02-04T08:11:55Z</time>
      </trkpt>
      <trkpt lat="49.28456" lon="-0.16718">
        <ele>5.2</ele>
        <time>2024-02-04T08:11:56Z</time>
      </trkpt>
      <trkpt lat="49.28456" lon="-0.16729">
        <ele>5.2</ele>
        <time>2024-02-04T08:11:57Z</time>
      </trkpt>
      <trkpt lat="49.28456" lon="-0.16741">
        <ele>5.2</ele>
        <time>2024-02-04T08:11:58Z</time>
      </trkpt>
      <trkpt lat="49.28456" lon="-0.16753">
        <ele>5.2</ele>
        <time>2024-02-04T08:11:59Z</time>
      </trkpt>
      <trkpt lat="49.28455" lon="-0.16765">
        <ele>5.1</ele>
        <time>2024-02-04T08:12:00Z</time>
      </trkpt>
      <trkpt lat="49.28455" lon="-0.16776">
        <ele>5.1</ele>
        <time>2024-02-04T08:12:01Z</time>
      </trkpt>
      <trkpt lat="49.28455" lon="-0.16787">
        <ele>5</ele>
        <time>2024-02-04T08:12:02Z</time>
      </trkpt>
      <trkpt lat="49.28454" lon="-0.16798">
        <ele>5</ele>
        <time>2024-02-04T08:12:03Z</time>
      </trkpt>
      <trkpt lat="49.28453" lon="-0.16809">
        <ele>5</ele>
        <time>2024-02-04T08:12:04Z</time>
      </trkpt>
      <trkpt lat="49.28452" lon="-0.1682">
        <ele>5</ele>
        <time>2024-02-04T08:12:05Z</time>
      </trkpt>
      <trkpt lat="49.2845" lon="-0.16831">
        <ele>5</ele>
        <time>2024-02-04T08:12:06Z</time>
      </trkpt>
      <trkpt lat="49.28449" lon="-0.16842">
        <ele>4.9</ele>
        <time>2024-02-04T08:12:07Z</time>
      </trkpt>
      <trkpt lat="49.28447" lon="-0.16853">
        <ele>4.9</ele>
        <time>2024-02-04T08:12:08Z</time>
      </trkpt>
      <trkpt lat="49.28446" lon="-0.16864">
        <ele>4.9</ele>
        <time>2024-02-04T08:12:09Z</time>
      </trkpt>
      <trkpt lat="49.28444" lon="-0.16875">
        <ele>4.9</ele>
        <time>2024-02-04T08:12:10Z</time>
      </trkpt>
      <trkpt lat="49.28443" lon="-0.16887">
        <ele>5</ele>
        <time>2024-02-04T08:12:11Z</time>
      </trkpt>
      <trkpt lat="49.28441" lon="-0.16898">
        <ele>4.9</ele>
        <time>2024-02-04T08:12:12Z</time>
      </trkpt>
      <trkpt lat="49.2844" lon="-0.16909">
        <ele>4.9</ele>
        <time>2024-02-04T08:12:13Z</time>
      </trkpt>
      <trkpt lat="49.28439" lon="-0.1692">
        <ele>4.9</ele>
        <time>2024-02-04T08:12:14Z</time>
      </trkpt>
      <trkpt lat="49.28438" lon="-0.16931">
        <ele>4.9</ele>
        <time>2024-02-04T08:12:15Z</time>
      </trkpt>
      <trkpt lat="49.28437" lon="-0.16942">
        <ele>4.9</ele>
        <time>2024-02-04T08:12:16Z</time>
      </trkpt>
      <trkpt lat="49.28436" lon="-0.16953">
        <ele>4.9</ele>
        <time>2024-02-04T08:12:17Z</time>
      </trkpt>
      <trkpt lat="49.28436" lon="-0.16964">
        <ele>4.8</ele>
        <time>2024-02-04T08:12:18Z</time>
      </trkpt>
      <trkpt lat="49.28436" lon="-0.16975">
        <ele>4.8</ele>
        <time>2024-02-04T08:12:19Z</time>
      </trkpt>
      <trkpt lat="49.28435" lon="-0.16987">
        <ele>4.8</ele>
        <time>2024-02-04T08:12:20Z</time>
      </trkpt>
      <trkpt lat="49.28435" lon="-0.16998">
        <ele>4.7</ele>
        <time>2024-02-04T08:12:21Z</time>
      </trkpt>
      <trkpt lat="49.28435" lon="-0.1701">
        <ele>4.7</ele>
        <time>2024-02-04T08:12:22Z</time>
      </trkpt>
      <trkpt lat="49.28435" lon="-0.17021">
        <ele>4.7</ele>
        <time>2024-02-04T08:12:23Z</time>
      </trkpt>
      <trkpt lat="49.28436" lon="-0.17033">
        <ele>4.7</ele>
        <time>2024-02-04T08:12:24Z</time>
      </trkpt>
      <trkpt lat="49.28437" lon="-0.17044">
        <ele>4.7</ele>
        <time>2024-02-04T08:12:25Z</time>
      </trkpt>
      <trkpt lat="49.28438" lon="-0.17055">
        <ele>4.7</ele>
        <time>2024-02-04T08:12:26Z</time>
      </trkpt>
      <trkpt lat="49.2844" lon="-0.17066">
        <ele>4.7</ele>
        <time>2024-02-04T08:12:27Z</time>
      </trkpt>
      <trkpt lat="49.28441" lon="-0.17076">
        <ele>4.8</ele>
        <time>2024-02-04T08:12:28Z</time>
      </trkpt>
      <trkpt lat="49.28442" lon="-0.17087">
        <ele>4.8</ele>
        <time>2024-02-04T08:12:29Z</time>
      </trkpt>
      <trkpt lat="49.28444" lon="-0.17097">
        <ele>4.8</ele>
        <time>2024-02-04T08:12:30Z</time>
      </trkpt>
      <trkpt lat="49.28445" lon="-0.17108">
        <ele>4.8</ele>
        <time>2024-02-04T08:12:31Z</time>
      </trkpt>
      <trkpt lat="49.28447" lon="-0.17118">
        <ele>4.8</ele>
        <time>2024-02-04T08:12:32Z</time>
      </trkpt>
      <trkpt lat="49.28448" lon="-0.17129">
        <ele>4.8</ele>
        <time>2024-02-04T08:12:33Z</time>
      </trkpt>
      <trkpt lat="49.28449" lon="-0.1714">
        <ele>4.8</ele>
        <time>2024-02-04T08:12:34Z</time>
      </trkpt>
      <trkpt lat="49.2845" lon="-0.17151">
        <ele>4.8</ele>
        <time>2024-02-04T08:12:35Z</time>
      </trkpt>
      <trkpt lat="49.28451" lon="-0.17162">
        <ele>4.8</ele>
        <time>2024-02-04T08:12:36Z</time>
      </trkpt>
      <trkpt lat="49.28453" lon="-0.17173">
        <ele>4.8</ele>
        <time>2024-02-04T08:12:37Z</time>
      </trkpt>
      <trkpt lat="49.28454" lon="-0.17184">
        <ele>4.8</ele>
        <time>2024-02-04T08:12:38Z</time>
      </trkpt>
      <trkpt lat="49.28455" lon="-0.17195">
        <ele>4.8</ele>
        <time>2024-02-04T08:12:39Z</time>
      </trkpt>
      <trkpt lat="49.28456" lon="-0.17205">
        <ele>4.8</ele>
        <time>2024-02-04T08:12:40Z</time>
      </trkpt>
      <trkpt lat="49.28458" lon="-0.17216">
        <ele>4.8</ele>
        <time>2024-02-04T08:12:41Z</time>
      </trkpt>
      <trkpt lat="49.28459" lon="-0.17226">
        <ele>4.8</ele>
        <time>2024-02-04T08:12:42Z</time>
      </trkpt>
      <trkpt lat="49.2846" lon="-0.17236">
        <ele>4.8</ele>
        <time>2024-02-04T08:12:43Z</time>
      </trkpt>
      <trkpt lat="49.28462" lon="-0.17247">
        <ele>4.8</ele>
        <time>2024-02-04T08:12:44Z</time>
      </trkpt>
      <trkpt lat="49.28463" lon="-0.17257">
        <ele>4.8</ele>
        <time>2024-02-04T08:12:45Z</time>
      </trkpt>
      <trkpt lat="49.28465" lon="-0.17268">
        <ele>4.9</ele>
        <time>2024-02-04T08:12:46Z</time>
      </trkpt>
      <trkpt lat="49.28466" lon="-0.17279">
        <ele>4.9</ele>
        <time>2024-02-04T08:12:47Z</time>
      </trkpt>
      <trkpt lat="49.28468" lon="-0.1729">
        <ele>4.9</ele>
        <time>2024-02-04T08:12:48Z</time>
      </trkpt>
      <trkpt lat="49.28469" lon="-0.17301">
        <ele>4.9</ele>
        <time>2024-02-04T08:12:49Z</time>
      </trkpt>
      <trkpt lat="49.2847" lon="-0.17312">
        <ele>4.9</ele>
        <time>2024-02-04T08:12:50Z</time>
      </trkpt>
      <trkpt lat="49.28471" lon="-0.17323">
        <ele>4.9</ele>
        <time>2024-02-04T08:12:51Z</time>
      </trkpt>
      <trkpt lat="49.28472" lon="-0.17334">
        <ele>4.9</ele>
        <time>2024-02-04T08:12:52Z</time>
      </trkpt>
      <trkpt lat="49.28474" lon="-0.17345">
        <ele>5</ele>
        <time>2024-02-04T08:12:53Z</time>
      </trkpt>
      <trkpt lat="49.28475" lon="-0.17356">
        <ele>5</ele>
        <time>2024-02-04T08:12:54Z</time>
      </trkpt>
      <trkpt lat="49.28477" lon="-0.17367">
        <ele>5</ele>
        <time>2024-02-04T08:12:55Z</time>
      </trkpt>
      <trkpt lat="49.28478" lon="-0.17378">
        <ele>5</ele>
        <time>2024-02-04T08:12:56Z</time>
      </trkpt>
      <trkpt lat="49.28479" lon="-0.17389">
        <ele>5</ele>
        <time>2024-02-04T08:12:57Z</time>
      </trkpt>
      <trkpt lat="49.28481" lon="-0.174">
        <ele>5</ele>
        <time>2024-02-04T08:12:58Z</time>
      </trkpt>
      <trkpt lat="49.28482" lon="-0.1741">
        <ele>5.1</ele>
        <time>2024-02-04T08:12:59Z</time>
      </trkpt>
      <trkpt lat="49.28483" lon="-0.17421">
        <ele>5.1</ele>
        <time>2024-02-04T08:13:00Z</time>
      </trkpt>
      <trkpt lat="49.28485" lon="-0.17431">
        <ele>5.1</ele>
        <time>2024-02-04T08:13:01Z</time>
      </trkpt>
      <trkpt lat="49.28486" lon="-0.17441">
        <ele>5.2</ele>
        <time>2024-02-04T08:13:02Z</time>
      </trkpt>
      <trkpt lat="49.28487" lon="-0.17452">
        <ele>5.2</ele>
        <time>2024-02-04T08:13:03Z</time>
      </trkpt>
      <trkpt lat="49.28488" lon="-0.17462">
        <ele>5.2</ele>
        <time>2024-02-04T08:13:04Z</time>
      </trkpt>
      <trkpt lat="49.28489" lon="-0.17473">
        <ele>5.2</ele>
        <time>2024-02-04T08:13:05Z</time>
      </trkpt>
      <trkpt lat="49.28491" lon="-0.17484">
        <ele>5.3</ele>
        <time>2024-02-04T08:13:06Z</time>
      </trkpt>
      <trkpt lat="49.28492" lon="-0.17496">
        <ele>5.3</ele>
        <time>2024-02-04T08:13:07Z</time>
      </trkpt>
      <trkpt lat="49.28493" lon="-0.17506">
        <ele>5.3</ele>
        <time>2024-02-04T08:13:08Z</time>
      </trkpt>
      <trkpt lat="49.28495" lon="-0.17516">
        <ele>5.4</ele>
        <time>2024-02-04T08:13:09Z</time>
      </trkpt>
      <trkpt lat="49.28497" lon="-0.17525">
        <ele>5.4</ele>
        <time>2024-02-04T08:13:10Z</time>
      </trkpt>
      <trkpt lat="49.28499" lon="-0.17536">
        <ele>5.4</ele>
        <time>2024-02-04T08:13:11Z</time>
      </trkpt>
      <trkpt lat="49.285" lon="-0.17546">
        <ele>5.4</ele>
        <time>2024-02-04T08:13:12Z</time>
      </trkpt>
      <trkpt lat="49.28502" lon="-0.17557">
        <ele>5.5</ele>
        <time>2024-02-04T08:13:13Z</time>
      </trkpt>
      <trkpt lat="49.28502" lon="-0.17568">
        <ele>5.5</ele>
        <time>2024-02-04T08:13:14Z</time>
      </trkpt>
      <trkpt lat="49.28503" lon="-0.17578">
        <ele>5.5</ele>
        <time>2024-02-04T08:13:15Z</time>
      </trkpt>
      <trkpt lat="49.28503" lon="-0.17589">
        <ele>5.4</ele>
        <time>2024-02-04T08:13:16Z</time>
      </trkpt>
      <trkpt lat="49.28504" lon="-0.17601">
        <ele>5.4</ele>
        <time>2024-02-04T08:13:17Z</time>
      </trkpt>
      <trkpt lat="49.28504" lon="-0.17612">
        <ele>5.4</ele>
        <time>2024-02-04T08:13:18Z</time>
      </trkpt>
      <trkpt lat="49.28504" lon="-0.17623">
        <ele>5.4</ele>
        <time>2024-02-04T08:13:19Z</time>
      </trkpt>
      <trkpt lat="49.28504" lon="-0.17634">
        <ele>5.3</ele>
        <time>2024-02-04T08:13:20Z</time>
      </trkpt>
      <trkpt lat="49.28504" lon="-0.17645">
        <ele>5.3</ele>
        <time>2024-02-04T08:13:21Z</time>
      </trkpt>
      <trkpt lat="49.28503" lon="-0.17656">
        <ele>5.3</ele>
        <time>2024-02-04T08:13:22Z</time>
      </trkpt>
      <trkpt lat="49.28502" lon="-0.17667">
        <ele>5.3</ele>
        <time>2024-02-04T08:13:23Z</time>
      </trkpt>
      <trkpt lat="49.28501" lon="-0.17677">
        <ele>5.3</ele>
        <time>2024-02-04T08:13:24Z</time>
      </trkpt>
      <trkpt lat="49.28499" lon="-0.17687">
        <ele>5.3</ele>
        <time>2024-02-04T08:13:25Z</time>
      </trkpt>
      <trkpt lat="49.28498" lon="-0.17696">
        <ele>5.2</ele>
        <time>2024-02-04T08:13:26Z</time>
      </trkpt>
      <trkpt lat="49.28496" lon="-0.17706">
        <ele>5.2</ele>
        <time>2024-02-04T08:13:27Z</time>
      </trkpt>
      <trkpt lat="49.28494" lon="-0.17714">
        <ele>5.2</ele>
        <time>2024-02-04T08:13:28Z</time>
      </trkpt>
      <trkpt lat="49.28493" lon="-0.17723">
        <ele>5.2</ele>
        <time>2024-02-04T08:13:29Z</time>
      </trkpt>
      <trkpt lat="49.28492" lon="-0.17732">
        <ele>5.2</ele>
        <time>2024-02-04T08:13:30Z</time>
      </trkpt>
      <trkpt lat="49.28491" lon="-0.17741">
        <ele>5.2</ele>
        <time>2024-02-04T08:13:31Z</time>
      </trkpt>
      <trkpt lat="49.2849" lon="-0.1775">
        <ele>5.2</ele>
        <time>2024-02-04T08:13:32Z</time>
      </trkpt>
      <trkpt lat="49.28488" lon="-0.17758">
        <ele>5.2</ele>
        <time>2024-02-04T08:13:33Z</time>
      </trkpt>
      <trkpt lat="49.28487" lon="-0.17765">
        <ele>5.3</ele>
        <time>2024-02-04T08:13:34Z</time>
      </trkpt>
      <trkpt lat="49.28486" lon="-0.17773">
        <ele>5.3</ele>
        <time>2024-02-04T08:13:35Z</time>
      </trkpt>
      <trkpt lat="49.28484" lon="-0.17789">
        <ele>5.3</ele>
        <time>2024-02-04T08:13:37Z</time>
      </trkpt>
      <trkpt lat="49.28483" lon="-0.17796">
        <ele>5.3</ele>
        <time>2024-02-04T08:13:38Z</time>
      </trkpt>
      <trkpt lat="49.28481" lon="-0.17801">
        <ele>5.3</ele>
        <time>2024-02-04T08:13:39Z</time>
      </trkpt>
      <trkpt lat="49.28477" lon="-0.17806">
        <ele>5.3</ele>
        <time>2024-02-04T08:13:40Z</time>
      </trkpt>
      <trkpt lat="49.28472" lon="-0.17806">
        <ele>5.2</ele>
        <time>2024-02-04T08:13:41Z</time>
      </trkpt>
      <trkpt lat="49.28466" lon="-0.17805">
        <ele>5.1</ele>
        <time>2024-02-04T08:13:42Z</time>
      </trkpt>
      <trkpt lat="49.28461" lon="-0.17806">
        <ele>5</ele>
        <time>2024-02-04T08:13:43Z</time>
      </trkpt>
      <trkpt lat="49.28455" lon="-0.17808">
        <ele>4.9</ele>
        <time>2024-02-04T08:13:44Z</time>
      </trkpt>
      <trkpt lat="49.28451" lon="-0.17813">
        <ele>4.8</ele>
        <time>2024-02-04T08:13:45Z</time>
      </trkpt>
      <trkpt lat="49.28446" lon="-0.17817">
        <ele>4.7</ele>
        <time>2024-02-04T08:13:46Z</time>
      </trkpt>
      <trkpt lat="49.28441" lon="-0.17822">
        <ele>4.6</ele>
        <time>2024-02-04T08:13:47Z</time>
      </trkpt>
      <trkpt lat="49.28435" lon="-0.17828">
        <ele>4.5</ele>
        <time>2024-02-04T08:13:48Z</time>
      </trkpt>
      <trkpt lat="49.2843" lon="-0.17833">
        <ele>4.4</ele>
        <time>2024-02-04T08:13:49Z</time>
      </trkpt>
      <trkpt lat="49.28424" lon="-0.17839">
        <ele>4.3</ele>
        <time>2024-02-04T08:13:50Z</time>
      </trkpt>
      <trkpt lat="49.28418" lon="-0.17844">
        <ele>4.2</ele>
        <time>2024-02-04T08:13:51Z</time>
      </trkpt>
      <trkpt lat="49.28412" lon="-0.1785">
        <ele>4.1</ele>
        <time>2024-02-04T08:13:52Z</time>
      </trkpt>
      <trkpt lat="49.28406" lon="-0.17855">
        <ele>4.1</ele>
        <time>2024-02-04T08:13:53Z</time>
      </trkpt>
      <trkpt lat="49.28399" lon="-0.17861">
        <ele>4</ele>
        <time>2024-02-04T08:13:54Z</time>
      </trkpt>
      <trkpt lat="49.28393" lon="-0.17868">
        <ele>4</ele>
        <time>2024-02-04T08:13:55Z</time>
      </trkpt>
      <trkpt lat="49.28387" lon="-0.17874">
        <ele>3.9</ele>
        <time>2024-02-04T08:13:56Z</time>
      </trkpt>
      <trkpt lat="49.2838" lon="-0.1788">
        <ele>3.9</ele>
        <time>2024-02-04T08:13:57Z</time>
      </trkpt>
      <trkpt lat="49.28374" lon="-0.17886">
        <ele>3.8</ele>
        <time>2024-02-04T08:13:58Z</time>
      </trkpt>
      <trkpt lat="49.28368" lon="-0.17893">
        <ele>3.8</ele>
        <time>2024-02-04T08:13:59Z</time>
      </trkpt>
      <trkpt lat="49.28361" lon="-0.17899">
        <ele>3.7</ele>
        <time>2024-02-04T08:14:00Z</time>
      </trkpt>
      <trkpt lat="49.28354" lon="-0.17905">
        <ele>3.7</ele>
        <time>2024-02-04T08:14:01Z</time>
      </trkpt>
      <trkpt lat="49.28348" lon="-0.17911">
        <ele>3.7</ele>
        <time>2024-02-04T08:14:02Z</time>
      </trkpt>
      <trkpt lat="49.28342" lon="-0.17917">
        <ele>3.7</ele>
        <time>2024-02-04T08:14:03Z</time>
      </trkpt>
      <trkpt lat="49.28336" lon="-0.17923">
        <ele>3.8</ele>
        <time>2024-02-04T08:14:04Z</time>
      </trkpt>
      <trkpt lat="49.2833" lon="-0.17928">
        <ele>3.8</ele>
        <time>2024-02-04T08:14:05Z</time>
      </trkpt>
      <trkpt lat="49.28324" lon="-0.17933">
        <ele>3.8</ele>
        <time>2024-02-04T08:14:06Z</time>
      </trkpt>
      <trkpt lat="49.28319" lon="-0.1794">
        <ele>3.9</ele>
        <time>2024-02-04T08:14:07Z</time>
      </trkpt>
      <trkpt lat="49.28313" lon="-0.17945">
        <ele>3.9</ele>
        <time>2024-02-04T08:14:08Z</time>
      </trkpt>
      <trkpt lat="49.28307" lon="-0.17951">
        <ele>3.8</ele>
        <time>2024-02-04T08:14:09Z</time>
      </trkpt>
      <trkpt lat="49.28301" lon="-0.17957">
        <ele>3.8</ele>
        <time>2024-02-04T08:14:10Z</time>
      </trkpt>
      <trkpt lat="49.28295" lon="-0.17962">
        <ele>3.8</ele>
        <time>2024-02-04T08:14:11Z</time>
      </trkpt>
      <trkpt lat="49.28289" lon="-0.17968">
        <ele>3.7</ele>
        <time>2024-02-04T08:14:12Z</time>
      </trkpt>
      <trkpt lat="49.28283" lon="-0.17975">
        <ele>3.7</ele>
        <time>2024-02-04T08:14:13Z</time>
      </trkpt>
      <trkpt lat="49.28277" lon="-0.17981">
        <ele>3.7</ele>
        <time>2024-02-04T08:14:14Z</time>
      </trkpt>
      <trkpt lat="49.28271" lon="-0.17986">
        <ele>3.7</ele>
        <time>2024-02-04T08:14:15Z</time>
      </trkpt>
      <trkpt lat="49.28264" lon="-0.17992">
        <ele>3.7</ele>
        <time>2024-02-04T08:14:16Z</time>
      </trkpt>
      <trkpt lat="49.28258" lon="-0.17997">
        <ele>3.6</ele>
        <time>2024-02-04T08:14:17Z</time>
      </trkpt>
      <trkpt lat="49.28252" lon="-0.18003">
        <ele>3.6</ele>
        <time>2024-02-04T08:14:18Z</time>
      </trkpt>
      <trkpt lat="49.28246" lon="-0.18009">
        <ele>3.7</ele>
        <time>2024-02-04T08:14:19Z</time>
      </trkpt>
      <trkpt lat="49.2824" lon="-0.18015">
        <ele>3.7</ele>
        <time>2024-02-04T08:14:20Z</time>
      </trkpt>
      <trkpt lat="49.28234" lon="-0.1802">
        <ele>3.7</ele>
        <time>2024-02-04T08:14:21Z</time>
      </trkpt>
      <trkpt lat="49.28228" lon="-0.18026">
        <ele>3.7</ele>
        <time>2024-02-04T08:14:22Z</time>
      </trkpt>
      <trkpt lat="49.28222" lon="-0.18031">
        <ele>3.8</ele>
        <time>2024-02-04T08:14:23Z</time>
      </trkpt>
      <trkpt lat="49.28217" lon="-0.18037">
        <ele>3.8</ele>
        <time>2024-02-04T08:14:24Z</time>
      </trkpt>
      <trkpt lat="49.28211" lon="-0.18042">
        <ele>3.8</ele>
        <time>2024-02-04T08:14:25Z</time>
      </trkpt>
      <trkpt lat="49.28205" lon="-0.18048">
        <ele>3.8</ele>
        <time>2024-02-04T08:14:26Z</time>
      </trkpt>
      <trkpt lat="49.28199" lon="-0.18054">
        <ele>3.8</ele>
        <time>2024-02-04T08:14:27Z</time>
      </trkpt>
      <trkpt lat="49.28193" lon="-0.18061">
        <ele>3.8</ele>
        <time>2024-02-04T08:14:28Z</time>
      </trkpt>
      <trkpt lat="49.28187" lon="-0.18066">
        <ele>3.8</ele>
        <time>2024-02-04T08:14:29Z</time>
      </trkpt>
      <trkpt lat="49.28181" lon="-0.18072">
        <ele>3.8</ele>
        <time>2024-02-04T08:14:30Z</time>
      </trkpt>
      <trkpt lat="49.28175" lon="-0.18078">
        <ele>3.8</ele>
        <time>2024-02-04T08:14:31Z</time>
      </trkpt>
      <trkpt lat="49.28169" lon="-0.18083">
        <ele>3.8</ele>
        <time>2024-02-04T08:14:32Z</time>
      </trkpt>
      <trkpt lat="49.28163" lon="-0.18089">
        <ele>3.9</ele>
        <time>2024-02-04T08:14:33Z</time>
      </trkpt>
      <trkpt lat="49.28157" lon="-0.18095">
        <ele>3.9</ele>
        <time>2024-02-04T08:14:34Z</time>
      </trkpt>
      <trkpt lat="49.28152" lon="-0.18101">
        <ele>3.9</ele>
        <time>2024-02-04T08:14:35Z</time>
      </trkpt>
      <trkpt lat="49.28147" lon="-0.18106">
        <ele>3.9</ele>
        <time>2024-02-04T08:14:36Z</time>
      </trkpt>
      <trkpt lat="49.28142" lon="-0.18111">
        <ele>3.9</ele>
        <time>2024-02-04T08:14:37Z</time>
      </trkpt>
      <trkpt lat="49.28137" lon="-0.18115">
        <ele>3.9</ele>
        <time>2024-02-04T08:14:38Z</time>
      </trkpt>
      <trkpt lat="49.28132" lon="-0.18119">
        <ele>3.9</ele>
        <time>2024-02-04T08:14:39Z</time>
      </trkpt>
      <trkpt lat="49.28128" lon="-0.18123">
        <ele>3.9</ele>
        <time>2024-02-04T08:14:40Z</time>
      </trkpt>
      <trkpt lat="49.28123" lon="-0.18127">
        <ele>3.9</ele>
        <time>2024-02-04T08:14:41Z</time>
      </trkpt>
      <trkpt lat="49.28119" lon="-0.18131">
        <ele>4</ele>
        <time>2024-02-04T08:14:42Z</time>
      </trkpt>
      <trkpt lat="49.28115" lon="-0.18136">
        <ele>4</ele>
        <time>2024-02-04T08:14:43Z</time>
      </trkpt>
      <trkpt lat="49.2811" lon="-0.1814">
        <ele>4</ele>
        <time>2024-02-04T08:14:44Z</time>
      </trkpt>
      <trkpt lat="49.28105" lon="-0.18145">
        <ele>4</ele>
        <time>2024-02-04T08:14:45Z</time>
      </trkpt>
      <trkpt lat="49.28101" lon="-0.18149">
        <ele>4</ele>
        <time>2024-02-04T08:14:46Z</time>
      </trkpt>
      <trkpt lat="49.28096" lon="-0.18154">
        <ele>4</ele>
        <time>2024-02-04T08:14:47Z</time>
      </trkpt>
      <trkpt lat="49.28091" lon="-0.18159">
        <ele>4</ele>
        <time>2024-02-04T08:14:48Z</time>
      </trkpt>
      <trkpt lat="49.28085" lon="-0.18164">
        <ele>4.1</ele>
        <time>2024-02-04T08:14:49Z</time>
      </trkpt>
      <trkpt lat="49.2808" lon="-0.18169">
        <ele>4.1</ele>
        <time>2024-02-04T08:14:50Z</time>
      </trkpt>
      <trkpt lat="49.28075" lon="-0.18174">
        <ele>4.2</ele>
        <time>2024-02-04T08:14:51Z</time>
      </trkpt>
      <trkpt lat="49.28069" lon="-0.18179">
        <ele>4.2</ele>
        <time>2024-02-04T08:14:52Z</time>
      </trkpt>
      <trkpt lat="49.28064" lon="-0.18184">
        <ele>4.2</ele>
        <time>2024-02-04T08:14:53Z</time>
      </trkpt>
      <trkpt lat="49.28059" lon="-0.18189">
        <ele>4.3</ele>
        <time>2024-02-04T08:14:54Z</time>
      </trkpt>
      <trkpt lat="49.28054" lon="-0.18194">
        <ele>4.3</ele>
        <time>2024-02-04T08:14:55Z</time>
      </trkpt>
      <trkpt lat="49.28049" lon="-0.18199">
        <ele>4.3</ele>
        <time>2024-02-04T08:14:56Z</time>
      </trkpt>
      <trkpt lat="49.28043" lon="-0.18204">
        <ele>4.4</ele>
        <time>2024-02-04T08:14:57Z</time>
      </trkpt>
      <trkpt lat="49.28038" lon="-0.18209">
        <ele>4.4</ele>
        <time>2024-02-04T08:14:58Z</time>
      </trkpt>
      <trkpt lat="49.28032" lon="-0.18215">
        <ele>4.5</ele>
        <time>2024-02-04T08:14:59Z</time>
      </trkpt>
      <trkpt lat="49.28027" lon="-0.1822">
        <ele>4.5</ele>
        <time>2024-02-04T08:15:00Z</time>
      </trkpt>
      <trkpt lat="49.28022" lon="-0.18225">
        <ele>4.5</ele>
        <time>2024-02-04T08:15:01Z</time>
      </trkpt>
      <trkpt lat="49.28016" lon="-0.1823">
        <ele>4.5</ele>
        <time>2024-02-04T08:15:02Z</time>
      </trkpt>
      <trkpt lat="49.28012" lon="-0.18235">
        <ele>4.5</ele>
        <time>2024-02-04T08:15:03Z</time>
      </trkpt>
      <trkpt lat="49.28008" lon="-0.18239">
        <ele>4.4</ele>
        <time>2024-02-04T08:15:04Z</time>
      </trkpt>
      <trkpt lat="49.28004" lon="-0.18243">
        <ele>4.3</ele>
        <time>2024-02-04T08:15:05Z</time>
      </trkpt>
      <trkpt lat="49.28" lon="-0.18247">
        <ele>4.3</ele>
        <time>2024-02-04T08:15:06Z</time>
      </trkpt>
      <trkpt lat="49.27996" lon="-0.18251">
        <ele>4.3</ele>
        <time>2024-02-04T08:15:07Z</time>
      </trkpt>
      <trkpt lat="49.27992" lon="-0.18254">
        <ele>4.2</ele>
        <time>2024-02-04T08:15:08Z</time>
      </trkpt>
      <trkpt lat="49.27989" lon="-0.18257">
        <ele>4.2</ele>
        <time>2024-02-04T08:15:09Z</time>
      </trkpt>
      <trkpt lat="49.27985" lon="-0.1826">
        <ele>4.2</ele>
        <time>2024-02-04T08:15:10Z</time>
      </trkpt>
      <trkpt lat="49.27981" lon="-0.18264">
        <ele>4.2</ele>
        <time>2024-02-04T08:15:11Z</time>
      </trkpt>
      <trkpt lat="49.27978" lon="-0.18267">
        <ele>4.2</ele>
        <time>2024-02-04T08:15:12Z</time>
      </trkpt>
      <trkpt lat="49.27974" lon="-0.18271">
        <ele>4.2</ele>
        <time>2024-02-04T08:15:13Z</time>
      </trkpt>
      <trkpt lat="49.2797" lon="-0.18275">
        <ele>4.2</ele>
        <time>2024-02-04T08:15:14Z</time>
      </trkpt>
      <trkpt lat="49.27967" lon="-0.18278">
        <ele>4.2</ele>
        <time>2024-02-04T08:15:15Z</time>
      </trkpt>
      <trkpt lat="49.27963" lon="-0.18282">
        <ele>4.2</ele>
        <time>2024-02-04T08:15:16Z</time>
      </trkpt>
      <trkpt lat="49.2796" lon="-0.18286">
        <ele>4.2</ele>
        <time>2024-02-04T08:15:17Z</time>
      </trkpt>
      <trkpt lat="49.27956" lon="-0.18289">
        <ele>4.2</ele>
        <time>2024-02-04T08:15:18Z</time>
      </trkpt>
      <trkpt lat="49.27953" lon="-0.18292">
        <ele>4.2</ele>
        <time>2024-02-04T08:15:19Z</time>
      </trkpt>
      <trkpt lat="49.27949" lon="-0.18295">
        <ele>4.2</ele>
        <time>2024-02-04T08:15:20Z</time>
      </trkpt>
      <trkpt lat="49.27946" lon="-0.18298">
        <ele>4.1</ele>
        <time>2024-02-04T08:15:21Z</time>
      </trkpt>
      <trkpt lat="49.27943" lon="-0.18301">
        <ele>4.1</ele>
        <time>2024-02-04T08:15:22Z</time>
      </trkpt>
      <trkpt lat="49.2794" lon="-0.18303">
        <ele>4.1</ele>
        <time>2024-02-04T08:15:23Z</time>
      </trkpt>
      <trkpt lat="49.27937" lon="-0.18306">
        <ele>4.1</ele>
        <time>2024-02-04T08:15:24Z</time>
      </trkpt>
      <trkpt lat="49.27935" lon="-0.18309">
        <ele>4.1</ele>
        <time>2024-02-04T08:15:25Z</time>
      </trkpt>
      <trkpt lat="49.27932" lon="-0.18312">
        <ele>4</ele>
        <time>2024-02-04T08:15:26Z</time>
      </trkpt>
      <trkpt lat="49.27929" lon="-0.18314">
        <ele>4</ele>
        <time>2024-02-04T08:15:27Z</time>
      </trkpt>
      <trkpt lat="49.27926" lon="-0.18317">
        <ele>4</ele>
        <time>2024-02-04T08:15:28Z</time>
      </trkpt>
      <trkpt lat="49.27924" lon="-0.1832">
        <ele>4</ele>
        <time>2024-02-04T08:15:29Z</time>
      </trkpt>
      <trkpt lat="49.2792" lon="-0.18322">
        <ele>4</ele>
        <time>2024-02-04T08:15:30Z</time>
      </trkpt>
      <trkpt lat="49.27917" lon="-0.18326">
        <ele>4</ele>
        <time>2024-02-04T08:15:31Z</time>
      </trkpt>
      <trkpt lat="49.27914" lon="-0.18329">
        <ele>4</ele>
        <time>2024-02-04T08:15:32Z</time>
      </trkpt>
      <trkpt lat="49.2791" lon="-0.18332">
        <ele>4</ele>
        <time>2024-02-04T08:15:33Z</time>
      </trkpt>
      <trkpt lat="49.27906" lon="-0.18337">
        <ele>4</ele>
        <time>2024-02-04T08:15:34Z</time>
      </trkpt>
      <trkpt lat="49.27903" lon="-0.1834">
        <ele>4</ele>
        <time>2024-02-04T08:15:35Z</time>
      </trkpt>
      <trkpt lat="49.27899" lon="-0.18344">
        <ele>4</ele>
        <time>2024-02-04T08:15:36Z</time>
      </trkpt>
      <trkpt lat="49.27896" lon="-0.18347">
        <ele>4</ele>
        <time>2024-02-04T08:15:37Z</time>
      </trkpt>
      <trkpt lat="49.27892" lon="-0.1835">
        <ele>4</ele>
        <time>2024-02-04T08:15:38Z</time>
      </trkpt>
      <trkpt lat="49.27888" lon="-0.18353">
        <ele>4</ele>
        <time>2024-02-04T08:15:39Z</time>
      </trkpt>
      <trkpt lat="49.27885" lon="-0.18356">
        <ele>4</ele>
        <time>2024-02-04T08:15:40Z</time>
      </trkpt>
      <trkpt lat="49.27881" lon="-0.18359">
        <ele>4</ele>
        <time>2024-02-04T08:15:41Z</time>
      </trkpt>
      <trkpt lat="49.27877" lon="-0.18363">
        <ele>4</ele>
        <time>2024-02-04T08:15:42Z</time>
      </trkpt>
      <trkpt lat="49.27873" lon="-0.18366">
        <ele>4</ele>
        <time>2024-02-04T08:15:43Z</time>
      </trkpt>
      <trkpt lat="49.27869" lon="-0.1837">
        <ele>4</ele>
        <time>2024-02-04T08:15:44Z</time>
      </trkpt>
      <trkpt lat="49.27865" lon="-0.18373">
        <ele>4</ele>
        <time>2024-02-04T08:15:45Z</time>
      </trkpt>
      <trkpt lat="49.27861" lon="-0.18376">
        <ele>4</ele>
        <time>2024-02-04T08:15:46Z</time>
      </trkpt>
      <trkpt lat="49.27857" lon="-0.1838">
        <ele>4</ele>
        <time>2024-02-04T08:15:47Z</time>
      </trkpt>
      <trkpt lat="49.27853" lon="-0.18384">
        <ele>4</ele>
        <time>2024-02-04T08:15:48Z</time>
      </trkpt>
      <trkpt lat="49.27849" lon="-0.18388">
        <ele>4</ele>
        <time>2024-02-04T08:15:49Z</time>
      </trkpt>
      <trkpt lat="49.27845" lon="-0.18392">
        <ele>4</ele>
        <time>2024-02-04T08:15:50Z</time>
      </trkpt>
      <trkpt lat="49.27841" lon="-0.18396">
        <ele>4</ele>
        <time>2024-02-04T08:15:51Z</time>
      </trkpt>
      <trkpt lat="49.27838" lon="-0.184">
        <ele>4</ele>
        <time>2024-02-04T08:15:52Z</time>
      </trkpt>
      <trkpt lat="49.27834" lon="-0.18403">
        <ele>4</ele>
        <time>2024-02-04T08:15:53Z</time>
      </trkpt>
      <trkpt lat="49.2783" lon="-0.18408">
        <ele>4</ele>
        <time>2024-02-04T08:15:54Z</time>
      </trkpt>
      <trkpt lat="49.27826" lon="-0.18412">
        <ele>4</ele>
        <time>2024-02-04T08:15:55Z</time>
      </trkpt>
      <trkpt lat="49.27821" lon="-0.18417">
        <ele>4</ele>
        <time>2024-02-04T08:15:56Z</time>
      </trkpt>
      <trkpt lat="49.27816" lon="-0.18422">
        <ele>4</ele>
        <time>2024-02-04T08:15:57Z</time>
      </trkpt>
      <trkpt lat="49.27811" lon="-0.18427">
        <ele>4</ele>
        <time>2024-02-04T08:15:58Z</time>
      </trkpt>
      <trkpt lat="49.27807" lon="-0.18431">
        <ele>3.9</ele>
        <time>2024-02-04T08:15:59Z</time>
      </trkpt>
      <trkpt lat="49.27802" lon="-0.18436">
        <ele>3.9</ele>
        <time>2024-02-04T08:16:00Z</time>
      </trkpt>
      <trkpt lat="49.27797" lon="-0.18441">
        <ele>3.9</ele>
        <time>2024-02-04T08:16:01Z</time>
      </trkpt>
      <trkpt lat="49.27792" lon="-0.18446">
        <ele>3.9</ele>
        <time>2024-02-04T08:16:02Z</time>
      </trkpt>
      <trkpt lat="49.27786" lon="-0.18451">
        <ele>3.9</ele>
        <time>2024-02-04T08:16:03Z</time>
      </trkpt>
      <trkpt lat="49.27781" lon="-0.18457">
        <ele>3.9</ele>
        <time>2024-02-04T08:16:04Z</time>
      </trkpt>
      <trkpt lat="49.27775" lon="-0.18462">
        <ele>4</ele>
        <time>2024-02-04T08:16:05Z</time>
      </trkpt>
      <trkpt lat="49.2777" lon="-0.18467">
        <ele>4</ele>
        <time>2024-02-04T08:16:06Z</time>
      </trkpt>
      <trkpt lat="49.27764" lon="-0.18473">
        <ele>4</ele>
        <time>2024-02-04T08:16:07Z</time>
      </trkpt>
      <trkpt lat="49.27759" lon="-0.18478">
        <ele>4</ele>
        <time>2024-02-04T08:16:08Z</time>
      </trkpt>
      <trkpt lat="49.27753" lon="-0.18483">
        <ele>4</ele>
        <time>2024-02-04T08:16:09Z</time>
      </trkpt>
      <trkpt lat="49.27747" lon="-0.18489">
        <ele>4</ele>
        <time>2024-02-04T08:16:10Z</time>
      </trkpt>
      <trkpt lat="49.27742" lon="-0.18495">
        <ele>4</ele>
        <time>2024-02-04T08:16:11Z</time>
      </trkpt>
      <trkpt lat="49.27736" lon="-0.185">
        <ele>4</ele>
        <time>2024-02-04T08:16:12Z</time>
      </trkpt>
      <trkpt lat="49.2773" lon="-0.18506">
        <ele>4</ele>
        <time>2024-02-04T08:16:13Z</time>
      </trkpt>
      <trkpt lat="49.27724" lon="-0.18512">
        <ele>4</ele>
        <time>2024-02-04T08:16:14Z</time>
      </trkpt>
      <trkpt lat="49.27718" lon="-0.18517">
        <ele>4</ele>
        <time>2024-02-04T08:16:15Z</time>
      </trkpt>
      <trkpt lat="49.27713" lon="-0.18523">
        <ele>4</ele>
        <time>2024-02-04T08:16:16Z</time>
      </trkpt>
      <trkpt lat="49.27707" lon="-0.18528">
        <ele>4</ele>
        <time>2024-02-04T08:16:17Z</time>
      </trkpt>
      <trkpt lat="49.27702" lon="-0.18533">
        <ele>4</ele>
        <time>2024-02-04T08:16:18Z</time>
      </trkpt>
      <trkpt lat="49.27696" lon="-0.18538">
        <ele>4.1</ele>
        <time>2024-02-04T08:16:19Z</time>
      </trkpt>
      <trkpt lat="49.2769" lon="-0.18544">
        <ele>4</ele>
        <time>2024-02-04T08:16:20Z</time>
      </trkpt>
      <trkpt lat="49.27685" lon="-0.1855">
        <ele>4</ele>
        <time>2024-02-04T08:16:21Z</time>
      </trkpt>
      <trkpt lat="49.27679" lon="-0.18556">
        <ele>4</ele>
        <time>2024-02-04T08:16:22Z</time>
      </trkpt>
      <trkpt lat="49.27674" lon="-0.18562">
        <ele>3.9</ele>
        <time>2024-02-04T08:16:23Z</time>
      </trkpt>
      <trkpt lat="49.27668" lon="-0.18567">
        <ele>3.9</ele>
        <time>2024-02-04T08:16:24Z</time>
      </trkpt>
      <trkpt lat="49.27661" lon="-0.18573">
        <ele>3.9</ele>
        <time>2024-02-04T08:16:25Z</time>
      </trkpt>
      <trkpt lat="49.27655" lon="-0.18578">
        <ele>3.8</ele>
        <time>2024-02-04T08:16:26Z</time>
      </trkpt>
      <trkpt lat="49.2765" lon="-0.18584">
        <ele>3.9</ele>
        <time>2024-02-04T08:16:27Z</time>
      </trkpt>
      <trkpt lat="49.27644" lon="-0.1859">
        <ele>3.9</ele>
        <time>2024-02-04T08:16:28Z</time>
      </trkpt>
      <trkpt lat="49.27638" lon="-0.18595">
        <ele>3.9</ele>
        <time>2024-02-04T08:16:29Z</time>
      </trkpt>
      <trkpt lat="49.27632" lon="-0.18601">
        <ele>3.9</ele>
        <time>2024-02-04T08:16:30Z</time>
      </trkpt>
      <trkpt lat="49.27626" lon="-0.18607">
        <ele>3.9</ele>
        <time>2024-02-04T08:16:31Z</time>
      </trkpt>
      <trkpt lat="49.2762" lon="-0.18613">
        <ele>3.9</ele>
        <time>2024-02-04T08:16:32Z</time>
      </trkpt>
      <trkpt lat="49.27613" lon="-0.18619">
        <ele>3.9</ele>
        <time>2024-02-04T08:16:33Z</time>
      </trkpt>
      <trkpt lat="49.27607" lon="-0.18625">
        <ele>3.9</ele>
        <time>2024-02-04T08:16:34Z</time>
      </trkpt>
      <trkpt lat="49.27601" lon="-0.18631">
        <ele>3.9</ele>
        <time>2024-02-04T08:16:35Z</time>
      </trkpt>
      <trkpt lat="49.27594" lon="-0.18637">
        <ele>3.9</ele>
        <time>2024-02-04T08:16:36Z</time>
      </trkpt>
      <trkpt lat="49.27588" lon="-0.18643">
        <ele>3.9</ele>
        <time>2024-02-04T08:16:37Z</time>
      </trkpt>
      <trkpt lat="49.27582" lon="-0.18649">
        <ele>4</ele>
        <time>2024-02-04T08:16:38Z</time>
      </trkpt>
      <trkpt lat="49.27576" lon="-0.18654">
        <ele>4</ele>
        <time>2024-02-04T08:16:39Z</time>
      </trkpt>
      <trkpt lat="49.2757" lon="-0.1866">
        <ele>4</ele>
        <time>2024-02-04T08:16:40Z</time>
      </trkpt>
      <trkpt lat="49.27563" lon="-0.18667">
        <ele>4</ele>
        <time>2024-02-04T08:16:41Z</time>
      </trkpt>
      <trkpt lat="49.27557" lon="-0.18673">
        <ele>4</ele>
        <time>2024-02-04T08:16:42Z</time>
      </trkpt>
      <trkpt lat="49.2755" lon="-0.18679">
        <ele>4</ele>
        <time>2024-02-04T08:16:43Z</time>
      </trkpt>
      <trkpt lat="49.27543" lon="-0.18685">
        <ele>3.9</ele>
        <time>2024-02-04T08:16:44Z</time>
      </trkpt>
      <trkpt lat="49.27536" lon="-0.18692">
        <ele>3.9</ele>
        <time>2024-02-04T08:16:45Z</time>
      </trkpt>
      <trkpt lat="49.2753" lon="-0.18699">
        <ele>3.9</ele>
        <time>2024-02-04T08:16:46Z</time>
      </trkpt>
      <trkpt lat="49.27523" lon="-0.18705">
        <ele>3.9</ele>
        <time>2024-02-04T08:16:47Z</time>
      </trkpt>
      <trkpt lat="49.27517" lon="-0.18711">
        <ele>3.9</ele>
        <time>2024-02-04T08:16:48Z</time>
      </trkpt>
      <trkpt lat="49.27511" lon="-0.18717">
        <ele>3.9</ele>
        <time>2024-02-04T08:16:49Z</time>
      </trkpt>
      <trkpt lat="49.27505" lon="-0.18724">
        <ele>4</ele>
        <time>2024-02-04T08:16:50Z</time>
      </trkpt>
      <trkpt lat="49.27499" lon="-0.18729">
        <ele>4</ele>
        <time>2024-02-04T08:16:51Z</time>
      </trkpt>
      <trkpt lat="49.27493" lon="-0.18735">
        <ele>4</ele>
        <time>2024-02-04T08:16:52Z</time>
      </trkpt>
      <trkpt lat="49.27487" lon="-0.18741">
        <ele>4</ele>
        <time>2024-02-04T08:16:53Z</time>
      </trkpt>
      <trkpt lat="49.27481" lon="-0.18747">
        <ele>4</ele>
        <time>2024-02-04T08:16:54Z</time>
      </trkpt>
      <trkpt lat="49.27468" lon="-0.18759">
        <ele>3.9</ele>
        <time>2024-02-04T08:16:56Z</time>
      </trkpt>
      <trkpt lat="49.27461" lon="-0.18766">
        <ele>3.9</ele>
        <time>2024-02-04T08:16:57Z</time>
      </trkpt>
      <trkpt lat="49.27454" lon="-0.18772">
        <ele>3.9</ele>
        <time>2024-02-04T08:16:58Z</time>
      </trkpt>
      <trkpt lat="49.2744" lon="-0.18785">
        <ele>3.9</ele>
        <time>2024-02-04T08:17:00Z</time>
      </trkpt>
      <trkpt lat="49.27434" lon="-0.18791">
        <ele>3.9</ele>
        <time>2024-02-04T08:17:01Z</time>
      </trkpt>
      <trkpt lat="49.2742" lon="-0.18804">
        <ele>3.8</ele>
        <time>2024-02-04T08:17:03Z</time>
      </trkpt>
      <trkpt lat="49.27414" lon="-0.1881">
        <ele>3.8</ele>
        <time>2024-02-04T08:17:04Z</time>
      </trkpt>
      <trkpt lat="49.27408" lon="-0.18816">
        <ele>3.8</ele>
        <time>2024-02-04T08:17:05Z</time>
      </trkpt>
      <trkpt lat="49.27401" lon="-0.18822">
        <ele>3.9</ele>
        <time>2024-02-04T08:17:06Z</time>
      </trkpt>
      <trkpt lat="49.27389" lon="-0.18834">
        <ele>4</ele>
        <time>2024-02-04T08:17:08Z</time>
      </trkpt>
      <trkpt lat="49.27383" lon="-0.18839">
        <ele>4.1</ele>
        <time>2024-02-04T08:17:09Z</time>
      </trkpt>
      <trkpt lat="49.27377" lon="-0.18845">
        <ele>4.1</ele>
        <time>2024-02-04T08:17:10Z</time>
      </trkpt>
      <trkpt lat="49.27371" lon="-0.18851">
        <ele>4.2</ele>
        <time>2024-02-04T08:17:11Z</time>
      </trkpt>
      <trkpt lat="49.27365" lon="-0.18857">
        <ele>4.3</ele>
        <time>2024-02-04T08:17:12Z</time>
      </trkpt>
      <trkpt lat="49.27354" lon="-0.18868">
        <ele>4.5</ele>
        <time>2024-02-04T08:17:14Z</time>
      </trkpt>
      <trkpt lat="49.27342" lon="-0.18879">
        <ele>4.7</ele>
        <time>2024-02-04T08:17:16Z</time>
      </trkpt>
      <trkpt lat="49.27337" lon="-0.18885">
        <ele>4.8</ele>
        <time>2024-02-04T08:17:17Z</time>
      </trkpt>
      <trkpt lat="49.27324" lon="-0.18897">
        <ele>5.1</ele>
        <time>2024-02-04T08:17:19Z</time>
      </trkpt>
      <trkpt lat="49.27318" lon="-0.18903">
        <ele>5.2</ele>
        <time>2024-02-04T08:17:20Z</time>
      </trkpt>
      <trkpt lat="49.27312" lon="-0.18909">
        <ele>5.3</ele>
        <time>2024-02-04T08:17:21Z</time>
      </trkpt>
      <trkpt lat="49.27306" lon="-0.18914">
        <ele>5.5</ele>
        <time>2024-02-04T08:17:22Z</time>
      </trkpt>
      <trkpt lat="49.273" lon="-0.1892">
        <ele>5.6</ele>
        <time>2024-02-04T08:17:23Z</time>
      </trkpt>
      <trkpt lat="49.27294" lon="-0.18926">
        <ele>5.8</ele>
        <time>2024-02-04T08:17:24Z</time>
      </trkpt>
      <trkpt lat="49.27288" lon="-0.18931">
        <ele>5.9</ele>
        <time>2024-02-04T08:17:25Z</time>
      </trkpt>
      <trkpt lat="49.27282" lon="-0.18937">
        <ele>6.1</ele>
        <time>2024-02-04T08:17:26Z</time>
      </trkpt>
      <trkpt lat="49.27276" lon="-0.18942">
        <ele>6.2</ele>
        <time>2024-02-04T08:17:27Z</time>
      </trkpt>
      <trkpt lat="49.27271" lon="-0.18948">
        <ele>6.4</ele>
        <time>2024-02-04T08:17:28Z</time>
      </trkpt>
      <trkpt lat="49.27259" lon="-0.18959">
        <ele>6.7</ele>
        <time>2024-02-04T08:17:30Z</time>
      </trkpt>
      <trkpt lat="49.27253" lon="-0.18965">
        <ele>6.9</ele>
        <time>2024-02-04T08:17:31Z</time>
      </trkpt>
      <trkpt lat="49.27248" lon="-0.18971">
        <ele>7</ele>
        <time>2024-02-04T08:17:32Z</time>
      </trkpt>
      <trkpt lat="49.27242" lon="-0.18977">
        <ele>7.2</ele>
        <time>2024-02-04T08:17:33Z</time>
      </trkpt>
      <trkpt lat="49.27236" lon="-0.18982">
        <ele>7.4</ele>
        <time>2024-02-04T08:17:34Z</time>
      </trkpt>
      <trkpt lat="49.2723" lon="-0.18987">
        <ele>7.6</ele>
        <time>2024-02-04T08:17:35Z</time>
      </trkpt>
      <trkpt lat="49.27224" lon="-0.18993">
        <ele>7.8</ele>
        <time>2024-02-04T08:17:36Z</time>
      </trkpt>
      <trkpt lat="49.27212" lon="-0.19004">
        <ele>8.2</ele>
        <time>2024-02-04T08:17:38Z</time>
      </trkpt>
      <trkpt lat="49.27207" lon="-0.1901">
        <ele>8.4</ele>
        <time>2024-02-04T08:17:39Z</time>
      </trkpt>
      <trkpt lat="49.27201" lon="-0.19015">
        <ele>8.6</ele>
        <time>2024-02-04T08:17:40Z</time>
      </trkpt>
      <trkpt lat="49.27195" lon="-0.19021">
        <ele>8.9</ele>
        <time>2024-02-04T08:17:41Z</time>
      </trkpt>
      <trkpt lat="49.27189" lon="-0.19026">
        <ele>9.1</ele>
        <time>2024-02-04T08:17:42Z</time>
      </trkpt>
      <trkpt lat="49.27183" lon="-0.19031">
        <ele>9.3</ele>
        <time>2024-02-04T08:17:43Z</time>
      </trkpt>
      <trkpt lat="49.27177" lon="-0.19037">
        <ele>9.5</ele>
        <time>2024-02-04T08:17:44Z</time>
      </trkpt>
      <trkpt lat="49.27171" lon="-0.19042">
        <ele>9.8</ele>
        <time>2024-02-04T08:17:45Z</time>
      </trkpt>
      <trkpt lat="49.27166" lon="-0.19048">
        <ele>10</ele>
        <time>2024-02-04T08:17:46Z</time>
      </trkpt>
      <trkpt lat="49.2716" lon="-0.19053">
        <ele>10.2</ele>
        <time>2024-02-04T08:17:47Z</time>
      </trkpt>
      <trkpt lat="49.27155" lon="-0.19057">
        <ele>10.3</ele>
        <time>2024-02-04T08:17:48Z</time>
      </trkpt>
      <trkpt lat="49.2715" lon="-0.19061">
        <ele>10.5</ele>
        <time>2024-02-04T08:17:49Z</time>
      </trkpt>
      <trkpt lat="49.27144" lon="-0.19066">
        <ele>10.7</ele>
        <time>2024-02-04T08:17:50Z</time>
      </trkpt>
      <trkpt lat="49.27139" lon="-0.1907">
        <ele>10.8</ele>
        <time>2024-02-04T08:17:51Z</time>
      </trkpt>
      <trkpt lat="49.27133" lon="-0.19074">
        <ele>11</ele>
        <time>2024-02-04T08:17:52Z</time>
      </trkpt>
      <trkpt lat="49.27127" lon="-0.19076">
        <ele>11.1</ele>
        <time>2024-02-04T08:17:53Z</time>
      </trkpt>
      <trkpt lat="49.27121" lon="-0.1908">
        <ele>11.2</ele>
        <time>2024-02-04T08:17:54Z</time>
      </trkpt>
      <trkpt lat="49.27115" lon="-0.19084">
        <ele>11.3</ele>
        <time>2024-02-04T08:17:55Z</time>
      </trkpt>
      <trkpt lat="49.27109" lon="-0.19088">
        <ele>11.4</ele>
        <time>2024-02-04T08:17:56Z</time>
      </trkpt>
      <trkpt lat="49.27103" lon="-0.19093">
        <ele>11.5</ele>
        <time>2024-02-04T08:17:57Z</time>
      </trkpt>
      <trkpt lat="49.27098" lon="-0.19098">
        <ele>11.7</ele>
        <time>2024-02-04T08:17:58Z</time>
      </trkpt>
      <trkpt lat="49.27092" lon="-0.19103">
        <ele>11.8</ele>
        <time>2024-02-04T08:17:59Z</time>
      </trkpt>
      <trkpt lat="49.27086" lon="-0.19108">
        <ele>11.9</ele>
        <time>2024-02-04T08:18:00Z</time>
      </trkpt>
      <trkpt lat="49.2708" lon="-0.19113">
        <ele>12</ele>
        <time>2024-02-04T08:18:01Z</time>
      </trkpt>
      <trkpt lat="49.27074" lon="-0.19117">
        <ele>12.2</ele>
        <time>2024-02-04T08:18:02Z</time>
      </trkpt>
      <trkpt lat="49.27068" lon="-0.19122">
        <ele>12.3</ele>
        <time>2024-02-04T08:18:03Z</time>
      </trkpt>
      <trkpt lat="49.27062" lon="-0.19127">
        <ele>12.5</ele>
        <time>2024-02-04T08:18:04Z</time>
      </trkpt>
      <trkpt lat="49.27056" lon="-0.19132">
        <ele>12.6</ele>
        <time>2024-02-04T08:18:05Z</time>
      </trkpt>
      <trkpt lat="49.27051" lon="-0.19136">
        <ele>12.8</ele>
        <time>2024-02-04T08:18:06Z</time>
      </trkpt>
      <trkpt lat="49.27045" lon="-0.1914">
        <ele>12.9</ele>
        <time>2024-02-04T08:18:07Z</time>
      </trkpt>
      <trkpt lat="49.27039" lon="-0.19145">
        <ele>13</ele>
        <time>2024-02-04T08:18:08Z</time>
      </trkpt>
      <trkpt lat="49.27033" lon="-0.19149">
        <ele>13.2</ele>
        <time>2024-02-04T08:18:09Z</time>
      </trkpt>
      <trkpt lat="49.27027" lon="-0.19154">
        <ele>13.3</ele>
        <time>2024-02-04T08:18:10Z</time>
      </trkpt>
      <trkpt lat="49.27021" lon="-0.19158">
        <ele>13.4</ele>
        <time>2024-02-04T08:18:11Z</time>
      </trkpt>
      <trkpt lat="49.27014" lon="-0.19163">
        <ele>13.5</ele>
        <time>2024-02-04T08:18:12Z</time>
      </trkpt>
      <trkpt lat="49.27008" lon="-0.19169">
        <ele>13.6</ele>
        <time>2024-02-04T08:18:13Z</time>
      </trkpt>
      <trkpt lat="49.27002" lon="-0.19174">
        <ele>13.7</ele>
        <time>2024-02-04T08:18:14Z</time>
      </trkpt>
      <trkpt lat="49.26996" lon="-0.19178">
        <ele>13.8</ele>
        <time>2024-02-04T08:18:15Z</time>
      </trkpt>
      <trkpt lat="49.2699" lon="-0.19183">
        <ele>13.9</ele>
        <time>2024-02-04T08:18:16Z</time>
      </trkpt>
      <trkpt lat="49.26984" lon="-0.19187">
        <ele>14</ele>
        <time>2024-02-04T08:18:17Z</time>
      </trkpt>
      <trkpt lat="49.26978" lon="-0.19192">
        <ele>14</ele>
        <time>2024-02-04T08:18:18Z</time>
      </trkpt>
      <trkpt lat="49.26971" lon="-0.19197">
        <ele>14.1</ele>
        <time>2024-02-04T08:18:19Z</time>
      </trkpt>
      <trkpt lat="49.26965" lon="-0.19203">
        <ele>14.1</ele>
        <time>2024-02-04T08:18:20Z</time>
      </trkpt>
      <trkpt lat="49.26959" lon="-0.19208">
        <ele>14.2</ele>
        <time>2024-02-04T08:18:21Z</time>
      </trkpt>
      <trkpt lat="49.26954" lon="-0.19214">
        <ele>14.2</ele>
        <time>2024-02-04T08:18:22Z</time>
      </trkpt>
      <trkpt lat="49.26948" lon="-0.1922">
        <ele>14.3</ele>
        <time>2024-02-04T08:18:23Z</time>
      </trkpt>
      <trkpt lat="49.26941" lon="-0.19225">
        <ele>14.3</ele>
        <time>2024-02-04T08:18:24Z</time>
      </trkpt>
      <trkpt lat="49.26935" lon="-0.19231">
        <ele>14.4</ele>
        <time>2024-02-04T08:18:25Z</time>
      </trkpt>
      <trkpt lat="49.26929" lon="-0.19236">
        <ele>14.4</ele>
        <time>2024-02-04T08:18:26Z</time>
      </trkpt>
      <trkpt lat="49.26923" lon="-0.19241">
        <ele>14.5</ele>
        <time>2024-02-04T08:18:27Z</time>
      </trkpt>
      <trkpt lat="49.26917" lon="-0.19246">
        <ele>14.5</ele>
        <time>2024-02-04T08:18:28Z</time>
      </trkpt>
      <trkpt lat="49.2691" lon="-0.1925">
        <ele>14.5</ele>
        <time>2024-02-04T08:18:29Z</time>
      </trkpt>
      <trkpt lat="49.26904" lon="-0.19255">
        <ele>14.6</ele>
        <time>2024-02-04T08:18:30Z</time>
      </trkpt>
      <trkpt lat="49.26899" lon="-0.1926">
        <ele>14.6</ele>
        <time>2024-02-04T08:18:31Z</time>
      </trkpt>
      <trkpt lat="49.26893" lon="-0.19265">
        <ele>14.6</ele>
        <time>2024-02-04T08:18:32Z</time>
      </trkpt>
      <trkpt lat="49.26887" lon="-0.1927">
        <ele>14.7</ele>
        <time>2024-02-04T08:18:33Z</time>
      </trkpt>
      <trkpt lat="49.26882" lon="-0.19274">
        <ele>14.7</ele>
        <time>2024-02-04T08:18:34Z</time>
      </trkpt>
      <trkpt lat="49.26876" lon="-0.19279">
        <ele>14.7</ele>
        <time>2024-02-04T08:18:35Z</time>
      </trkpt>
      <trkpt lat="49.2687" lon="-0.19284">
        <ele>14.7</ele>
        <time>2024-02-04T08:18:36Z</time>
      </trkpt>
      <trkpt lat="49.26863" lon="-0.19288">
        <ele>14.7</ele>
        <time>2024-02-04T08:18:37Z</time>
      </trkpt>
      <trkpt lat="49.26857" lon="-0.19292">
        <ele>14.7</ele>
        <time>2024-02-04T08:18:38Z</time>
      </trkpt>
      <trkpt lat="49.2685" lon="-0.19297">
        <ele>14.7</ele>
        <time>2024-02-04T08:18:39Z</time>
      </trkpt>
      <trkpt lat="49.26844" lon="-0.19302">
        <ele>14.7</ele>
        <time>2024-02-04T08:18:40Z</time>
      </trkpt>
      <trkpt lat="49.26838" lon="-0.19307">
        <ele>14.7</ele>
        <time>2024-02-04T08:18:41Z</time>
      </trkpt>
      <trkpt lat="49.26832" lon="-0.19311">
        <ele>14.7</ele>
        <time>2024-02-04T08:18:42Z</time>
      </trkpt>
      <trkpt lat="49.26826" lon="-0.19316">
        <ele>14.7</ele>
        <time>2024-02-04T08:18:43Z</time>
      </trkpt>
      <trkpt lat="49.2682" lon="-0.19321">
        <ele>14.7</ele>
        <time>2024-02-04T08:18:44Z</time>
      </trkpt>
      <trkpt lat="49.26814" lon="-0.19326">
        <ele>14.7</ele>
        <time>2024-02-04T08:18:45Z</time>
      </trkpt>
      <trkpt lat="49.26808" lon="-0.1933">
        <ele>14.7</ele>
        <time>2024-02-04T08:18:46Z</time>
      </trkpt>
      <trkpt lat="49.26801" lon="-0.19334">
        <ele>14.7</ele>
        <time>2024-02-04T08:18:47Z</time>
      </trkpt>
      <trkpt lat="49.26795" lon="-0.19338">
        <ele>14.7</ele>
        <time>2024-02-04T08:18:48Z</time>
      </trkpt>
      <trkpt lat="49.26789" lon="-0.19343">
        <ele>14.7</ele>
        <time>2024-02-04T08:18:49Z</time>
      </trkpt>
      <trkpt lat="49.26782" lon="-0.19348">
        <ele>14.7</ele>
        <time>2024-02-04T08:18:50Z</time>
      </trkpt>
      <trkpt lat="49.26776" lon="-0.19353">
        <ele>14.7</ele>
        <time>2024-02-04T08:18:51Z</time>
      </trkpt>
      <trkpt lat="49.2677" lon="-0.19357">
        <ele>14.6</ele>
        <time>2024-02-04T08:18:52Z</time>
      </trkpt>
      <trkpt lat="49.26764" lon="-0.19362">
        <ele>14.6</ele>
        <time>2024-02-04T08:18:53Z</time>
      </trkpt>
      <trkpt lat="49.26758" lon="-0.19366">
        <ele>14.6</ele>
        <time>2024-02-04T08:18:54Z</time>
      </trkpt>
      <trkpt lat="49.26752" lon="-0.19371">
        <ele>14.5</ele>
        <time>2024-02-04T08:18:55Z</time>
      </trkpt>
      <trkpt lat="49.26746" lon="-0.19375">
        <ele>14.5</ele>
        <time>2024-02-04T08:18:56Z</time>
      </trkpt>
      <trkpt lat="49.26739" lon="-0.1938">
        <ele>14.5</ele>
        <time>2024-02-04T08:18:57Z</time>
      </trkpt>
      <trkpt lat="49.26733" lon="-0.19385">
        <ele>14.4</ele>
        <time>2024-02-04T08:18:58Z</time>
      </trkpt>
      <trkpt lat="49.26727" lon="-0.19389">
        <ele>14.4</ele>
        <time>2024-02-04T08:18:59Z</time>
      </trkpt>
      <trkpt lat="49.2672" lon="-0.19394">
        <ele>14.3</ele>
        <time>2024-02-04T08:19:00Z</time>
      </trkpt>
      <trkpt lat="49.26714" lon="-0.19399">
        <ele>14.3</ele>
        <time>2024-02-04T08:19:01Z</time>
      </trkpt>
      <trkpt lat="49.26708" lon="-0.19405">
        <ele>14.2</ele>
        <time>2024-02-04T08:19:02Z</time>
      </trkpt>
      <trkpt lat="49.26701" lon="-0.19411">
        <ele>14.2</ele>
        <time>2024-02-04T08:19:03Z</time>
      </trkpt>
      <trkpt lat="49.26695" lon="-0.19416">
        <ele>14.1</ele>
        <time>2024-02-04T08:19:04Z</time>
      </trkpt>
      <trkpt lat="49.26688" lon="-0.19422">
        <ele>14.1</ele>
        <time>2024-02-04T08:19:05Z</time>
      </trkpt>
      <trkpt lat="49.26682" lon="-0.19426">
        <ele>14.1</ele>
        <time>2024-02-04T08:19:06Z</time>
      </trkpt>
      <trkpt lat="49.26675" lon="-0.19431">
        <ele>14</ele>
        <time>2024-02-04T08:19:07Z</time>
      </trkpt>
      <trkpt lat="49.26669" lon="-0.19437">
        <ele>14</ele>
        <time>2024-02-04T08:19:08Z</time>
      </trkpt>
      <trkpt lat="49.26663" lon="-0.19441">
        <ele>14</ele>
        <time>2024-02-04T08:19:09Z</time>
      </trkpt>
      <trkpt lat="49.26657" lon="-0.19446">
        <ele>13.9</ele>
        <time>2024-02-04T08:19:10Z</time>
      </trkpt>
      <trkpt lat="49.2665" lon="-0.19451">
        <ele>13.9</ele>
        <time>2024-02-04T08:19:11Z</time>
      </trkpt>
      <trkpt lat="49.26644" lon="-0.19456">
        <ele>13.8</ele>
        <time>2024-02-04T08:19:12Z</time>
      </trkpt>
      <trkpt lat="49.26638" lon="-0.19461">
        <ele>13.7</ele>
        <time>2024-02-04T08:19:13Z</time>
      </trkpt>
      <trkpt lat="49.26631" lon="-0.19466">
        <ele>13.7</ele>
        <time>2024-02-04T08:19:14Z</time>
      </trkpt>
      <trkpt lat="49.26626" lon="-0.19472">
        <ele>13.7</ele>
        <time>2024-02-04T08:19:15Z</time>
      </trkpt>
      <trkpt lat="49.2662" lon="-0.19477">
        <ele>13.7</ele>
        <time>2024-02-04T08:19:16Z</time>
      </trkpt>
      <trkpt lat="49.26614" lon="-0.19483">
        <ele>13.8</ele>
        <time>2024-02-04T08:19:17Z</time>
      </trkpt>
      <trkpt lat="49.26608" lon="-0.1949">
        <ele>13.8</ele>
        <time>2024-02-04T08:19:18Z</time>
      </trkpt>
      <trkpt lat="49.26602" lon="-0.19496">
        <ele>13.9</ele>
        <time>2024-02-04T08:19:19Z</time>
      </trkpt>
      <trkpt lat="49.26596" lon="-0.19502">
        <ele>13.9</ele>
        <time>2024-02-04T08:19:20Z</time>
      </trkpt>
      <trkpt lat="49.26591" lon="-0.19509">
        <ele>13.9</ele>
        <time>2024-02-04T08:19:21Z</time>
      </trkpt>
      <trkpt lat="49.26586" lon="-0.19515">
        <ele>14</ele>
        <time>2024-02-04T08:19:22Z</time>
      </trkpt>
      <trkpt lat="49.2658" lon="-0.19522">
        <ele>14</ele>
        <time>2024-02-04T08:19:23Z</time>
      </trkpt>
      <trkpt lat="49.26575" lon="-0.19528">
        <ele>14.1</ele>
        <time>2024-02-04T08:19:24Z</time>
      </trkpt>
      <trkpt lat="49.26569" lon="-0.19535">
        <ele>14.1</ele>
        <time>2024-02-04T08:19:25Z</time>
      </trkpt>
      <trkpt lat="49.26564" lon="-0.19541">
        <ele>14.2</ele>
        <time>2024-02-04T08:19:26Z</time>
      </trkpt>
      <trkpt lat="49.26559" lon="-0.19548">
        <ele>14.3</ele>
        <time>2024-02-04T08:19:27Z</time>
      </trkpt>
      <trkpt lat="49.26553" lon="-0.19554">
        <ele>14.3</ele>
        <time>2024-02-04T08:19:28Z</time>
      </trkpt>
      <trkpt lat="49.26548" lon="-0.1956">
        <ele>14.4</ele>
        <time>2024-02-04T08:19:29Z</time>
      </trkpt>
      <trkpt lat="49.26544" lon="-0.19567">
        <ele>14.5</ele>
        <time>2024-02-04T08:19:30Z</time>
      </trkpt>
      <trkpt lat="49.26539" lon="-0.19573">
        <ele>14.5</ele>
        <time>2024-02-04T08:19:31Z</time>
      </trkpt>
      <trkpt lat="49.26533" lon="-0.19579">
        <ele>14.6</ele>
        <time>2024-02-04T08:19:32Z</time>
      </trkpt>
      <trkpt lat="49.26528" lon="-0.19585">
        <ele>14.6</ele>
        <time>2024-02-04T08:19:33Z</time>
      </trkpt>
      <trkpt lat="49.26522" lon="-0.19591">
        <ele>14.7</ele>
        <time>2024-02-04T08:19:34Z</time>
      </trkpt>
      <trkpt lat="49.26516" lon="-0.19595">
        <ele>14.7</ele>
        <time>2024-02-04T08:19:35Z</time>
      </trkpt>
      <trkpt lat="49.2651" lon="-0.19599">
        <ele>14.8</ele>
        <time>2024-02-04T08:19:36Z</time>
      </trkpt>
      <trkpt lat="49.26503" lon="-0.19604">
        <ele>14.9</ele>
        <time>2024-02-04T08:19:37Z</time>
      </trkpt>
      <trkpt lat="49.26497" lon="-0.19607">
        <ele>14.9</ele>
        <time>2024-02-04T08:19:38Z</time>
      </trkpt>
      <trkpt lat="49.2649" lon="-0.19611">
        <ele>15</ele>
        <time>2024-02-04T08:19:39Z</time>
      </trkpt>
      <trkpt lat="49.26483" lon="-0.19615">
        <ele>15.1</ele>
        <time>2024-02-04T08:19:40Z</time>
      </trkpt>
      <trkpt lat="49.26476" lon="-0.19619">
        <ele>15.1</ele>
        <time>2024-02-04T08:19:41Z</time>
      </trkpt>
      <trkpt lat="49.26469" lon="-0.19623">
        <ele>15.2</ele>
        <time>2024-02-04T08:19:42Z</time>
      </trkpt>
      <trkpt lat="49.26463" lon="-0.19626">
        <ele>15.3</ele>
        <time>2024-02-04T08:19:43Z</time>
      </trkpt>
      <trkpt lat="49.26456" lon="-0.19629">
        <ele>15.4</ele>
        <time>2024-02-04T08:19:44Z</time>
      </trkpt>
      <trkpt lat="49.2645" lon="-0.19633">
        <ele>15.5</ele>
        <time>2024-02-04T08:19:45Z</time>
      </trkpt>
      <trkpt lat="49.26444" lon="-0.19636">
        <ele>15.6</ele>
        <time>2024-02-04T08:19:46Z</time>
      </trkpt>
      <trkpt lat="49.26437" lon="-0.1964">
        <ele>15.6</ele>
        <time>2024-02-04T08:19:47Z</time>
      </trkpt>
      <trkpt lat="49.2643" lon="-0.19644">
        <ele>15.7</ele>
        <time>2024-02-04T08:19:48Z</time>
      </trkpt>
      <trkpt lat="49.26424" lon="-0.19647">
        <ele>15.7</ele>
        <time>2024-02-04T08:19:49Z</time>
      </trkpt>
      <trkpt lat="49.26418" lon="-0.19651">
        <ele>15.8</ele>
        <time>2024-02-04T08:19:50Z</time>
      </trkpt>
      <trkpt lat="49.26411" lon="-0.19654">
        <ele>15.9</ele>
        <time>2024-02-04T08:19:51Z</time>
      </trkpt>
      <trkpt lat="49.26405" lon="-0.19657">
        <ele>16</ele>
        <time>2024-02-04T08:19:52Z</time>
      </trkpt>
      <trkpt lat="49.26398" lon="-0.19661">
        <ele>16.1</ele>
        <time>2024-02-04T08:19:53Z</time>
      </trkpt>
      <trkpt lat="49.26392" lon="-0.19664">
        <ele>16.1</ele>
        <time>2024-02-04T08:19:54Z</time>
      </trkpt>
      <trkpt lat="49.26386" lon="-0.19666">
        <ele>16.3</ele>
        <time>2024-02-04T08:19:55Z</time>
      </trkpt>
      <trkpt lat="49.26379" lon="-0.19669">
        <ele>16.4</ele>
        <time>2024-02-04T08:19:56Z</time>
      </trkpt>
      <trkpt lat="49.26373" lon="-0.19673">
        <ele>16.5</ele>
        <time>2024-02-04T08:19:57Z</time>
      </trkpt>
      <trkpt lat="49.26366" lon="-0.19676">
        <ele>16.6</ele>
        <time>2024-02-04T08:19:58Z</time>
      </trkpt>
      <trkpt lat="49.26359" lon="-0.19679">
        <ele>16.8</ele>
        <time>2024-02-04T08:19:59Z</time>
      </trkpt>
      <trkpt lat="49.26352" lon="-0.19683">
        <ele>16.9</ele>
        <time>2024-02-04T08:20:00Z</time>
      </trkpt>
      <trkpt lat="49.26345" lon="-0.19686">
        <ele>17.1</ele>
        <time>2024-02-04T08:20:01Z</time>
      </trkpt>
      <trkpt lat="49.26339" lon="-0.19689">
        <ele>17.2</ele>
        <time>2024-02-04T08:20:02Z</time>
      </trkpt>
      <trkpt lat="49.26333" lon="-0.19692">
        <ele>17.4</ele>
        <time>2024-02-04T08:20:03Z</time>
      </trkpt>
      <trkpt lat="49.26326" lon="-0.19695">
        <ele>17.6</ele>
        <time>2024-02-04T08:20:04Z</time>
      </trkpt>
      <trkpt lat="49.2632" lon="-0.19698">
        <ele>17.7</ele>
        <time>2024-02-04T08:20:05Z</time>
      </trkpt>
      <trkpt lat="49.26313" lon="-0.19701">
        <ele>17.8</ele>
        <time>2024-02-04T08:20:06Z</time>
      </trkpt>
      <trkpt lat="49.26307" lon="-0.19704">
        <ele>18</ele>
        <time>2024-02-04T08:20:07Z</time>
      </trkpt>
      <trkpt lat="49.263" lon="-0.19708">
        <ele>18.1</ele>
        <time>2024-02-04T08:20:08Z</time>
      </trkpt>
      <trkpt lat="49.26294" lon="-0.19712">
        <ele>18.2</ele>
        <time>2024-02-04T08:20:09Z</time>
      </trkpt>
      <trkpt lat="49.26288" lon="-0.19716">
        <ele>18.4</ele>
        <time>2024-02-04T08:20:10Z</time>
      </trkpt>
      <trkpt lat="49.26281" lon="-0.19721">
        <ele>18.5</ele>
        <time>2024-02-04T08:20:11Z</time>
      </trkpt>
      <trkpt lat="49.26275" lon="-0.19726">
        <ele>18.7</ele>
        <time>2024-02-04T08:20:12Z</time>
      </trkpt>
      <trkpt lat="49.26268" lon="-0.19731">
        <ele>18.8</ele>
        <time>2024-02-04T08:20:13Z</time>
      </trkpt>
      <trkpt lat="49.26262" lon="-0.19736">
        <ele>18.9</ele>
        <time>2024-02-04T08:20:14Z</time>
      </trkpt>
      <trkpt lat="49.26256" lon="-0.19741">
        <ele>19</ele>
        <time>2024-02-04T08:20:15Z</time>
      </trkpt>
      <trkpt lat="49.2625" lon="-0.19746">
        <ele>19.1</ele>
        <time>2024-02-04T08:20:16Z</time>
      </trkpt>
      <trkpt lat="49.26244" lon="-0.19752">
        <ele>19.2</ele>
        <time>2024-02-04T08:20:17Z</time>
      </trkpt>
      <trkpt lat="49.26238" lon="-0.19757">
        <ele>19.3</ele>
        <time>2024-02-04T08:20:18Z</time>
      </trkpt>
      <trkpt lat="49.26232" lon="-0.19762">
        <ele>19.3</ele>
        <time>2024-02-04T08:20:19Z</time>
      </trkpt>
      <trkpt lat="49.26227" lon="-0.19767">
        <ele>19.4</ele>
        <time>2024-02-04T08:20:20Z</time>
      </trkpt>
      <trkpt lat="49.26221" lon="-0.19773">
        <ele>19.4</ele>
        <time>2024-02-04T08:20:21Z</time>
      </trkpt>
      <trkpt lat="49.26215" lon="-0.19778">
        <ele>19.4</ele>
        <time>2024-02-04T08:20:22Z</time>
      </trkpt>
      <trkpt lat="49.26209" lon="-0.19785">
        <ele>19.3</ele>
        <time>2024-02-04T08:20:23Z</time>
      </trkpt>
      <trkpt lat="49.26203" lon="-0.19791">
        <ele>19.3</ele>
        <time>2024-02-04T08:20:24Z</time>
      </trkpt>
      <trkpt lat="49.26198" lon="-0.19798">
        <ele>19.2</ele>
        <time>2024-02-04T08:20:25Z</time>
      </trkpt>
      <trkpt lat="49.26192" lon="-0.19805">
        <ele>19.1</ele>
        <time>2024-02-04T08:20:26Z</time>
      </trkpt>
      <trkpt lat="49.26187" lon="-0.19812">
        <ele>19</ele>
        <time>2024-02-04T08:20:27Z</time>
      </trkpt>
      <trkpt lat="49.26181" lon="-0.19819">
        <ele>18.9</ele>
        <time>2024-02-04T08:20:28Z</time>
      </trkpt>
      <trkpt lat="49.26172" lon="-0.19833">
        <ele>18.8</ele>
        <time>2024-02-04T08:20:30Z</time>
      </trkpt>
      <trkpt lat="49.26167" lon="-0.1984">
        <ele>18.7</ele>
        <time>2024-02-04T08:20:31Z</time>
      </trkpt>
      <trkpt lat="49.26162" lon="-0.19848">
        <ele>18.6</ele>
        <time>2024-02-04T08:20:32Z</time>
      </trkpt>
      <trkpt lat="49.26157" lon="-0.19856">
        <ele>18.4</ele>
        <time>2024-02-04T08:20:33Z</time>
      </trkpt>
      <trkpt lat="49.26152" lon="-0.19864">
        <ele>18.3</ele>
        <time>2024-02-04T08:20:34Z</time>
      </trkpt>
      <trkpt lat="49.26147" lon="-0.19872">
        <ele>18.2</ele>
        <time>2024-02-04T08:20:35Z</time>
      </trkpt>
      <trkpt lat="49.26142" lon="-0.19879">
        <ele>18</ele>
        <time>2024-02-04T08:20:36Z</time>
      </trkpt>
      <trkpt lat="49.26136" lon="-0.19887">
        <ele>17.9</ele>
        <time>2024-02-04T08:20:37Z</time>
      </trkpt>
      <trkpt lat="49.26131" lon="-0.19895">
        <ele>17.7</ele>
        <time>2024-02-04T08:20:38Z</time>
      </trkpt>
      <trkpt lat="49.26126" lon="-0.19904">
        <ele>17.5</ele>
        <time>2024-02-04T08:20:39Z</time>
      </trkpt>
      <trkpt lat="49.26122" lon="-0.19912">
        <ele>17.4</ele>
        <time>2024-02-04T08:20:40Z</time>
      </trkpt>
      <trkpt lat="49.26117" lon="-0.1992">
        <ele>17.3</ele>
        <time>2024-02-04T08:20:41Z</time>
      </trkpt>
      <trkpt lat="49.26112" lon="-0.19927">
        <ele>17.2</ele>
        <time>2024-02-04T08:20:42Z</time>
      </trkpt>
      <trkpt lat="49.26107" lon="-0.19935">
        <ele>17.1</ele>
        <time>2024-02-04T08:20:43Z</time>
      </trkpt>
      <trkpt lat="49.26102" lon="-0.19943">
        <ele>17</ele>
        <time>2024-02-04T08:20:44Z</time>
      </trkpt>
      <trkpt lat="49.26097" lon="-0.19951">
        <ele>16.9</ele>
        <time>2024-02-04T08:20:45Z</time>
      </trkpt>
      <trkpt lat="49.26093" lon="-0.19959">
        <ele>16.9</ele>
        <time>2024-02-04T08:20:46Z</time>
      </trkpt>
      <trkpt lat="49.26089" lon="-0.19967">
        <ele>16.9</ele>
        <time>2024-02-04T08:20:47Z</time>
      </trkpt>
      <trkpt lat="49.26085" lon="-0.19974">
        <ele>16.9</ele>
        <time>2024-02-04T08:20:48Z</time>
      </trkpt>
      <trkpt lat="49.2608" lon="-0.19982">
        <ele>16.9</ele>
        <time>2024-02-04T08:20:49Z</time>
      </trkpt>
      <trkpt lat="49.26075" lon="-0.1999">
        <ele>16.9</ele>
        <time>2024-02-04T08:20:50Z</time>
      </trkpt>
      <trkpt lat="49.2607" lon="-0.19998">
        <ele>17</ele>
        <time>2024-02-04T08:20:51Z</time>
      </trkpt>
      <trkpt lat="49.26065" lon="-0.20006">
        <ele>17.1</ele>
        <time>2024-02-04T08:20:52Z</time>
      </trkpt>
      <trkpt lat="49.26061" lon="-0.20014">
        <ele>17.2</ele>
        <time>2024-02-04T08:20:53Z</time>
      </trkpt>
      <trkpt lat="49.26056" lon="-0.20021">
        <ele>17.3</ele>
        <time>2024-02-04T08:20:54Z</time>
      </trkpt>
      <trkpt lat="49.26052" lon="-0.20028">
        <ele>17.4</ele>
        <time>2024-02-04T08:20:55Z</time>
      </trkpt>
      <trkpt lat="49.26047" lon="-0.20036">
        <ele>17.5</ele>
        <time>2024-02-04T08:20:56Z</time>
      </trkpt>
      <trkpt lat="49.26043" lon="-0.20043">
        <ele>17.6</ele>
        <time>2024-02-04T08:20:57Z</time>
      </trkpt>
      <trkpt lat="49.26039" lon="-0.2005">
        <ele>17.8</ele>
        <time>2024-02-04T08:20:58Z</time>
      </trkpt>
      <trkpt lat="49.26036" lon="-0.20056">
        <ele>17.9</ele>
        <time>2024-02-04T08:20:59Z</time>
      </trkpt>
      <trkpt lat="49.26031" lon="-0.20063">
        <ele>18</ele>
        <time>2024-02-04T08:21:00Z</time>
      </trkpt>
      <trkpt lat="49.26027" lon="-0.2007">
        <ele>18.1</ele>
        <time>2024-02-04T08:21:01Z</time>
      </trkpt>
      <trkpt lat="49.26022" lon="-0.20077">
        <ele>18.3</ele>
        <time>2024-02-04T08:21:02Z</time>
      </trkpt>
      <trkpt lat="49.26018" lon="-0.20084">
        <ele>18.4</ele>
        <time>2024-02-04T08:21:03Z</time>
      </trkpt>
      <trkpt lat="49.26012" lon="-0.2009">
        <ele>18.6</ele>
        <time>2024-02-04T08:21:04Z</time>
      </trkpt>
      <trkpt lat="49.26008" lon="-0.20096">
        <ele>18.8</ele>
        <time>2024-02-04T08:21:05Z</time>
      </trkpt>
      <trkpt lat="49.26002" lon="-0.20103">
        <ele>18.9</ele>
        <time>2024-02-04T08:21:06Z</time>
      </trkpt>
      <trkpt lat="49.25997" lon="-0.20109">
        <ele>19.1</ele>
        <time>2024-02-04T08:21:07Z</time>
      </trkpt>
      <trkpt lat="49.25993" lon="-0.20116">
        <ele>19.2</ele>
        <time>2024-02-04T08:21:08Z</time>
      </trkpt>
      <trkpt lat="49.25988" lon="-0.20122">
        <ele>19.4</ele>
        <time>2024-02-04T08:21:09Z</time>
      </trkpt>
      <trkpt lat="49.25984" lon="-0.20129">
        <ele>19.5</ele>
        <time>2024-02-04T08:21:10Z</time>
      </trkpt>
      <trkpt lat="49.25978" lon="-0.20135">
        <ele>19.7</ele>
        <time>2024-02-04T08:21:11Z</time>
      </trkpt>
      <trkpt lat="49.25974" lon="-0.20141">
        <ele>19.9</ele>
        <time>2024-02-04T08:21:12Z</time>
      </trkpt>
      <trkpt lat="49.2597" lon="-0.20147">
        <ele>20</ele>
        <time>2024-02-04T08:21:13Z</time>
      </trkpt>
      <trkpt lat="49.25965" lon="-0.20154">
        <ele>20.2</ele>
        <time>2024-02-04T08:21:14Z</time>
      </trkpt>
      <trkpt lat="49.25961" lon="-0.20161">
        <ele>20.3</ele>
        <time>2024-02-04T08:21:15Z</time>
      </trkpt>
      <trkpt lat="49.25956" lon="-0.20167">
        <ele>20.5</ele>
        <time>2024-02-04T08:21:16Z</time>
      </trkpt>
      <trkpt lat="49.25951" lon="-0.20174">
        <ele>20.6</ele>
        <time>2024-02-04T08:21:17Z</time>
      </trkpt>
      <trkpt lat="49.25946" lon="-0.2018">
        <ele>20.8</ele>
        <time>2024-02-04T08:21:18Z</time>
      </trkpt>
      <trkpt lat="49.2594" lon="-0.20187">
        <ele>20.9</ele>
        <time>2024-02-04T08:21:19Z</time>
      </trkpt>
      <trkpt lat="49.25935" lon="-0.20193">
        <ele>21.1</ele>
        <time>2024-02-04T08:21:20Z</time>
      </trkpt>
      <trkpt lat="49.25929" lon="-0.20199">
        <ele>21.2</ele>
        <time>2024-02-04T08:21:21Z</time>
      </trkpt>
      <trkpt lat="49.25924" lon="-0.20206">
        <ele>21.3</ele>
        <time>2024-02-04T08:21:22Z</time>
      </trkpt>
      <trkpt lat="49.25919" lon="-0.20211">
        <ele>21.4</ele>
        <time>2024-02-04T08:21:23Z</time>
      </trkpt>
      <trkpt lat="49.25914" lon="-0.20217">
        <ele>21.6</ele>
        <time>2024-02-04T08:21:24Z</time>
      </trkpt>
      <trkpt lat="49.2591" lon="-0.20223">
        <ele>21.7</ele>
        <time>2024-02-04T08:21:25Z</time>
      </trkpt>
      <trkpt lat="49.25905" lon="-0.20229">
        <ele>21.8</ele>
        <time>2024-02-04T08:21:26Z</time>
      </trkpt>
      <trkpt lat="49.25901" lon="-0.20234">
        <ele>21.9</ele>
        <time>2024-02-04T08:21:27Z</time>
      </trkpt>
      <trkpt lat="49.25896" lon="-0.2024">
        <ele>22</ele>
        <time>2024-02-04T08:21:28Z</time>
      </trkpt>
      <trkpt lat="49.25892" lon="-0.20245">
        <ele>22.1</ele>
        <time>2024-02-04T08:21:29Z</time>
      </trkpt>
      <trkpt lat="49.25887" lon="-0.20251">
        <ele>22.2</ele>
        <time>2024-02-04T08:21:30Z</time>
      </trkpt>
      <trkpt lat="49.25882" lon="-0.20257">
        <ele>22.4</ele>
        <time>2024-02-04T08:21:31Z</time>
      </trkpt>
      <trkpt lat="49.25877" lon="-0.20263">
        <ele>22.5</ele>
        <time>2024-02-04T08:21:32Z</time>
      </trkpt>
      <trkpt lat="49.25872" lon="-0.20269">
        <ele>22.6</ele>
        <time>2024-02-04T08:21:33Z</time>
      </trkpt>
      <trkpt lat="49.25867" lon="-0.20275">
        <ele>22.7</ele>
        <time>2024-02-04T08:21:34Z</time>
      </trkpt>
      <trkpt lat="49.25862" lon="-0.20281">
        <ele>22.8</ele>
        <time>2024-02-04T08:21:35Z</time>
      </trkpt>
      <trkpt lat="49.25857" lon="-0.20286">
        <ele>22.9</ele>
        <time>2024-02-04T08:21:36Z</time>
      </trkpt>
      <trkpt lat="49.25852" lon="-0.20292">
        <ele>23.1</ele>
        <time>2024-02-04T08:21:37Z</time>
      </trkpt>
      <trkpt lat="49.25847" lon="-0.20298">
        <ele>23.2</ele>
        <time>2024-02-04T08:21:38Z</time>
      </trkpt>
      <trkpt lat="49.25842" lon="-0.20304">
        <ele>23.3</ele>
        <time>2024-02-04T08:21:39Z</time>
      </trkpt>
      <trkpt lat="49.25837" lon="-0.2031">
        <ele>23.4</ele>
        <time>2024-02-04T08:21:40Z</time>
      </trkpt>
      <trkpt lat="49.25832" lon="-0.20316">
        <ele>23.5</ele>
        <time>2024-02-04T08:21:41Z</time>
      </trkpt>
      <trkpt lat="49.25827" lon="-0.20322">
        <ele>23.6</ele>
        <time>2024-02-04T08:21:42Z</time>
      </trkpt>
      <trkpt lat="49.25822" lon="-0.20328">
        <ele>23.7</ele>
        <time>2024-02-04T08:21:43Z</time>
      </trkpt>
      <trkpt lat="49.25817" lon="-0.20334">
        <ele>23.8</ele>
        <time>2024-02-04T08:21:44Z</time>
      </trkpt>
      <trkpt lat="49.25812" lon="-0.20341">
        <ele>23.9</ele>
        <time>2024-02-04T08:21:45Z</time>
      </trkpt>
      <trkpt lat="49.25806" lon="-0.20347">
        <ele>24</ele>
        <time>2024-02-04T08:21:46Z</time>
      </trkpt>
      <trkpt lat="49.25801" lon="-0.20354">
        <ele>24.2</ele>
        <time>2024-02-04T08:21:47Z</time>
      </trkpt>
      <trkpt lat="49.25795" lon="-0.20361">
        <ele>24.3</ele>
        <time>2024-02-04T08:21:48Z</time>
      </trkpt>
      <trkpt lat="49.2579" lon="-0.20367">
        <ele>24.4</ele>
        <time>2024-02-04T08:21:49Z</time>
      </trkpt>
      <trkpt lat="49.25785" lon="-0.20373">
        <ele>24.4</ele>
        <time>2024-02-04T08:21:50Z</time>
      </trkpt>
      <trkpt lat="49.2578" lon="-0.20379">
        <ele>24.5</ele>
        <time>2024-02-04T08:21:51Z</time>
      </trkpt>
      <trkpt lat="49.25775" lon="-0.20385">
        <ele>24.6</ele>
        <time>2024-02-04T08:21:52Z</time>
      </trkpt>
      <trkpt lat="49.25769" lon="-0.20391">
        <ele>24.8</ele>
        <time>2024-02-04T08:21:53Z</time>
      </trkpt>
      <trkpt lat="49.25764" lon="-0.20398">
        <ele>24.9</ele>
        <time>2024-02-04T08:21:54Z</time>
      </trkpt>
      <trkpt lat="49.25759" lon="-0.20404">
        <ele>25</ele>
        <time>2024-02-04T08:21:55Z</time>
      </trkpt>
      <trkpt lat="49.25754" lon="-0.2041">
        <ele>25.1</ele>
        <time>2024-02-04T08:21:56Z</time>
      </trkpt>
      <trkpt lat="49.25749" lon="-0.20417">
        <ele>25.2</ele>
        <time>2024-02-04T08:21:57Z</time>
      </trkpt>
      <trkpt lat="49.25744" lon="-0.20423">
        <ele>25.4</ele>
        <time>2024-02-04T08:21:58Z</time>
      </trkpt>
      <trkpt lat="49.25739" lon="-0.2043">
        <ele>25.5</ele>
        <time>2024-02-04T08:21:59Z</time>
      </trkpt>
      <trkpt lat="49.25734" lon="-0.20436">
        <ele>25.7</ele>
        <time>2024-02-04T08:22:00Z</time>
      </trkpt>
      <trkpt lat="49.25729" lon="-0.20442">
        <ele>25.8</ele>
        <time>2024-02-04T08:22:01Z</time>
      </trkpt>
      <trkpt lat="49.25724" lon="-0.20448">
        <ele>25.9</ele>
        <time>2024-02-04T08:22:02Z</time>
      </trkpt>
      <trkpt lat="49.25719" lon="-0.20455">
        <ele>26.1</ele>
        <time>2024-02-04T08:22:03Z</time>
      </trkpt>
      <trkpt lat="49.25714" lon="-0.20461">
        <ele>26.2</ele>
        <time>2024-02-04T08:22:04Z</time>
      </trkpt>
      <trkpt lat="49.25709" lon="-0.20467">
        <ele>26.3</ele>
        <time>2024-02-04T08:22:05Z</time>
      </trkpt>
      <trkpt lat="49.25704" lon="-0.20473">
        <ele>26.5</ele>
        <time>2024-02-04T08:22:06Z</time>
      </trkpt>
      <trkpt lat="49.25699" lon="-0.20479">
        <ele>26.6</ele>
        <time>2024-02-04T08:22:07Z</time>
      </trkpt>
      <trkpt lat="49.25695" lon="-0.20485">
        <ele>26.7</ele>
        <time>2024-02-04T08:22:08Z</time>
      </trkpt>
      <trkpt lat="49.2569" lon="-0.20491">
        <ele>26.9</ele>
        <time>2024-02-04T08:22:09Z</time>
      </trkpt>
      <trkpt lat="49.25685" lon="-0.20497">
        <ele>27</ele>
        <time>2024-02-04T08:22:10Z</time>
      </trkpt>
      <trkpt lat="49.2568" lon="-0.20503">
        <ele>27.2</ele>
        <time>2024-02-04T08:22:11Z</time>
      </trkpt>
      <trkpt lat="49.25675" lon="-0.20509">
        <ele>27.4</ele>
        <time>2024-02-04T08:22:12Z</time>
      </trkpt>
      <trkpt lat="49.2567" lon="-0.20515">
        <ele>27.6</ele>
        <time>2024-02-04T08:22:13Z</time>
      </trkpt>
      <trkpt lat="49.25665" lon="-0.20521">
        <ele>27.7</ele>
        <time>2024-02-04T08:22:14Z</time>
      </trkpt>
      <trkpt lat="49.2566" lon="-0.20526">
        <ele>27.9</ele>
        <time>2024-02-04T08:22:15Z</time>
      </trkpt>
      <trkpt lat="49.25654" lon="-0.20532">
        <ele>28</ele>
        <time>2024-02-04T08:22:16Z</time>
      </trkpt>
      <trkpt lat="49.25649" lon="-0.20537">
        <ele>28.1</ele>
        <time>2024-02-04T08:22:17Z</time>
      </trkpt>
      <trkpt lat="49.25643" lon="-0.20543">
        <ele>28.3</ele>
        <time>2024-02-04T08:22:18Z</time>
      </trkpt>
      <trkpt lat="49.25637" lon="-0.20548">
        <ele>28.4</ele>
        <time>2024-02-04T08:22:19Z</time>
      </trkpt>
      <trkpt lat="49.25632" lon="-0.20553">
        <ele>28.5</ele>
        <time>2024-02-04T08:22:20Z</time>
      </trkpt>
      <trkpt lat="49.25626" lon="-0.20558">
        <ele>28.7</ele>
        <time>2024-02-04T08:22:21Z</time>
      </trkpt>
      <trkpt lat="49.2562" lon="-0.20563">
        <ele>28.8</ele>
        <time>2024-02-04T08:22:22Z</time>
      </trkpt>
      <trkpt lat="49.25615" lon="-0.20568">
        <ele>28.9</ele>
        <time>2024-02-04T08:22:23Z</time>
      </trkpt>
      <trkpt lat="49.2561" lon="-0.20573">
        <ele>29</ele>
        <time>2024-02-04T08:22:24Z</time>
      </trkpt>
      <trkpt lat="49.25605" lon="-0.20578">
        <ele>29.1</ele>
        <time>2024-02-04T08:22:25Z</time>
      </trkpt>
      <trkpt lat="49.25599" lon="-0.20583">
        <ele>29.2</ele>
        <time>2024-02-04T08:22:26Z</time>
      </trkpt>
      <trkpt lat="49.25593" lon="-0.20589">
        <ele>29.4</ele>
        <time>2024-02-04T08:22:27Z</time>
      </trkpt>
      <trkpt lat="49.25588" lon="-0.20594">
        <ele>29.5</ele>
        <time>2024-02-04T08:22:28Z</time>
      </trkpt>
      <trkpt lat="49.25582" lon="-0.206">
        <ele>29.6</ele>
        <time>2024-02-04T08:22:29Z</time>
      </trkpt>
      <trkpt lat="49.25577" lon="-0.20607">
        <ele>29.7</ele>
        <time>2024-02-04T08:22:30Z</time>
      </trkpt>
      <trkpt lat="49.25572" lon="-0.20613">
        <ele>29.8</ele>
        <time>2024-02-04T08:22:31Z</time>
      </trkpt>
      <trkpt lat="49.25567" lon="-0.2062">
        <ele>29.9</ele>
        <time>2024-02-04T08:22:32Z</time>
      </trkpt>
      <trkpt lat="49.25562" lon="-0.20626">
        <ele>30.1</ele>
        <time>2024-02-04T08:22:33Z</time>
      </trkpt>
      <trkpt lat="49.25556" lon="-0.20633">
        <ele>30.2</ele>
        <time>2024-02-04T08:22:34Z</time>
      </trkpt>
      <trkpt lat="49.25551" lon="-0.2064">
        <ele>30.3</ele>
        <time>2024-02-04T08:22:35Z</time>
      </trkpt>
      <trkpt lat="49.25546" lon="-0.20646">
        <ele>30.4</ele>
        <time>2024-02-04T08:22:36Z</time>
      </trkpt>
      <trkpt lat="49.25541" lon="-0.20653">
        <ele>30.5</ele>
        <time>2024-02-04T08:22:37Z</time>
      </trkpt>
      <trkpt lat="49.25536" lon="-0.2066">
        <ele>30.6</ele>
        <time>2024-02-04T08:22:38Z</time>
      </trkpt>
      <trkpt lat="49.25531" lon="-0.20667">
        <ele>30.7</ele>
        <time>2024-02-04T08:22:39Z</time>
      </trkpt>
      <trkpt lat="49.25526" lon="-0.20674">
        <ele>30.8</ele>
        <time>2024-02-04T08:22:40Z</time>
      </trkpt>
      <trkpt lat="49.25521" lon="-0.20681">
        <ele>30.9</ele>
        <time>2024-02-04T08:22:41Z</time>
      </trkpt>
      <trkpt lat="49.25515" lon="-0.20686">
        <ele>31</ele>
        <time>2024-02-04T08:22:42Z</time>
      </trkpt>
      <trkpt lat="49.2551" lon="-0.20692">
        <ele>31.1</ele>
        <time>2024-02-04T08:22:43Z</time>
      </trkpt>
      <trkpt lat="49.25504" lon="-0.20697">
        <ele>31.2</ele>
        <time>2024-02-04T08:22:44Z</time>
      </trkpt>
      <trkpt lat="49.25498" lon="-0.20702">
        <ele>31.3</ele>
        <time>2024-02-04T08:22:45Z</time>
      </trkpt>
      <trkpt lat="49.25492" lon="-0.20707">
        <ele>31.4</ele>
        <time>2024-02-04T08:22:46Z</time>
      </trkpt>
      <trkpt lat="49.25486" lon="-0.20712">
        <ele>31.5</ele>
        <time>2024-02-04T08:22:47Z</time>
      </trkpt>
      <trkpt lat="49.2548" lon="-0.20717">
        <ele>31.6</ele>
        <time>2024-02-04T08:22:48Z</time>
      </trkpt>
      <trkpt lat="49.25473" lon="-0.20721">
        <ele>31.7</ele>
        <time>2024-02-04T08:22:49Z</time>
      </trkpt>
      <trkpt lat="49.25467" lon="-0.20726">
        <ele>31.8</ele>
        <time>2024-02-04T08:22:50Z</time>
      </trkpt>
      <trkpt lat="49.25461" lon="-0.2073">
        <ele>31.8</ele>
        <time>2024-02-04T08:22:51Z</time>
      </trkpt>
      <trkpt lat="49.25455" lon="-0.20735">
        <ele>31.9</ele>
        <time>2024-02-04T08:22:52Z</time>
      </trkpt>
      <trkpt lat="49.25449" lon="-0.20739">
        <ele>32</ele>
        <time>2024-02-04T08:22:53Z</time>
      </trkpt>
      <trkpt lat="49.25443" lon="-0.20744">
        <ele>32.1</ele>
        <time>2024-02-04T08:22:54Z</time>
      </trkpt>
      <trkpt lat="49.25437" lon="-0.20748">
        <ele>32.1</ele>
        <time>2024-02-04T08:22:55Z</time>
      </trkpt>
      <trkpt lat="49.25431" lon="-0.20753">
        <ele>32.2</ele>
        <time>2024-02-04T08:22:56Z</time>
      </trkpt>
      <trkpt lat="49.25425" lon="-0.20758">
        <ele>32.2</ele>
        <time>2024-02-04T08:22:57Z</time>
      </trkpt>
      <trkpt lat="49.25419" lon="-0.20763">
        <ele>32.3</ele>
        <time>2024-02-04T08:22:58Z</time>
      </trkpt>
      <trkpt lat="49.25413" lon="-0.20768">
        <ele>32.4</ele>
        <time>2024-02-04T08:22:59Z</time>
      </trkpt>
      <trkpt lat="49.25407" lon="-0.20773">
        <ele>32.5</ele>
        <time>2024-02-04T08:23:00Z</time>
      </trkpt>
      <trkpt lat="49.25401" lon="-0.20778">
        <ele>32.5</ele>
        <time>2024-02-04T08:23:01Z</time>
      </trkpt>
      <trkpt lat="49.25394" lon="-0.20782">
        <ele>32.6</ele>
        <time>2024-02-04T08:23:02Z</time>
      </trkpt>
      <trkpt lat="49.25388" lon="-0.20787">
        <ele>32.7</ele>
        <time>2024-02-04T08:23:03Z</time>
      </trkpt>
      <trkpt lat="49.25382" lon="-0.20791">
        <ele>32.7</ele>
        <time>2024-02-04T08:23:04Z</time>
      </trkpt>
      <trkpt lat="49.25375" lon="-0.20796">
        <ele>32.8</ele>
        <time>2024-02-04T08:23:05Z</time>
      </trkpt>
      <trkpt lat="49.25369" lon="-0.208">
        <ele>32.9</ele>
        <time>2024-02-04T08:23:06Z</time>
      </trkpt>
      <trkpt lat="49.25362" lon="-0.20803">
        <ele>32.9</ele>
        <time>2024-02-04T08:23:07Z</time>
      </trkpt>
      <trkpt lat="49.25355" lon="-0.20807">
        <ele>33</ele>
        <time>2024-02-04T08:23:08Z</time>
      </trkpt>
      <trkpt lat="49.25348" lon="-0.2081">
        <ele>33</ele>
        <time>2024-02-04T08:23:09Z</time>
      </trkpt>
      <trkpt lat="49.25341" lon="-0.20814">
        <ele>33.1</ele>
        <time>2024-02-04T08:23:10Z</time>
      </trkpt>
      <trkpt lat="49.25334" lon="-0.20818">
        <ele>33.2</ele>
        <time>2024-02-04T08:23:11Z</time>
      </trkpt>
      <trkpt lat="49.25328" lon="-0.20821">
        <ele>33.2</ele>
        <time>2024-02-04T08:23:12Z</time>
      </trkpt>
      <trkpt lat="49.25322" lon="-0.20824">
        <ele>33.2</ele>
        <time>2024-02-04T08:23:13Z</time>
      </trkpt>
      <trkpt lat="49.25315" lon="-0.20828">
        <ele>33.3</ele>
        <time>2024-02-04T08:23:14Z</time>
      </trkpt>
      <trkpt lat="49.25309" lon="-0.2083">
        <ele>33.4</ele>
        <time>2024-02-04T08:23:15Z</time>
      </trkpt>
      <trkpt lat="49.25302" lon="-0.20833">
        <ele>33.4</ele>
        <time>2024-02-04T08:23:16Z</time>
      </trkpt>
      <trkpt lat="49.25296" lon="-0.20837">
        <ele>33.5</ele>
        <time>2024-02-04T08:23:17Z</time>
      </trkpt>
      <trkpt lat="49.2529" lon="-0.2084">
        <ele>33.5</ele>
        <time>2024-02-04T08:23:18Z</time>
      </trkpt>
      <trkpt lat="49.25283" lon="-0.20843">
        <ele>33.6</ele>
        <time>2024-02-04T08:23:19Z</time>
      </trkpt>
      <trkpt lat="49.25277" lon="-0.20847">
        <ele>33.7</ele>
        <time>2024-02-04T08:23:20Z</time>
      </trkpt>
      <trkpt lat="49.25271" lon="-0.2085">
        <ele>33.7</ele>
        <time>2024-02-04T08:23:21Z</time>
      </trkpt>
      <trkpt lat="49.25264" lon="-0.20853">
        <ele>33.8</ele>
        <time>2024-02-04T08:23:22Z</time>
      </trkpt>
      <trkpt lat="49.25258" lon="-0.20857">
        <ele>33.9</ele>
        <time>2024-02-04T08:23:23Z</time>
      </trkpt>
      <trkpt lat="49.25252" lon="-0.2086">
        <ele>34</ele>
        <time>2024-02-04T08:23:24Z</time>
      </trkpt>
      <trkpt lat="49.25246" lon="-0.20864">
        <ele>34.1</ele>
        <time>2024-02-04T08:23:25Z</time>
      </trkpt>
      <trkpt lat="49.25239" lon="-0.20867">
        <ele>34.1</ele>
        <time>2024-02-04T08:23:26Z</time>
      </trkpt>
      <trkpt lat="49.25233" lon="-0.20871">
        <ele>34.2</ele>
        <time>2024-02-04T08:23:27Z</time>
      </trkpt>
      <trkpt lat="49.25226" lon="-0.20875">
        <ele>34.3</ele>
        <time>2024-02-04T08:23:28Z</time>
      </trkpt>
      <trkpt lat="49.2522" lon="-0.20878">
        <ele>34.3</ele>
        <time>2024-02-04T08:23:29Z</time>
      </trkpt>
      <trkpt lat="49.25214" lon="-0.20882">
        <ele>34.4</ele>
        <time>2024-02-04T08:23:30Z</time>
      </trkpt>
      <trkpt lat="49.25208" lon="-0.20885">
        <ele>34.4</ele>
        <time>2024-02-04T08:23:31Z</time>
      </trkpt>
      <trkpt lat="49.25202" lon="-0.20889">
        <ele>34.5</ele>
        <time>2024-02-04T08:23:32Z</time>
      </trkpt>
      <trkpt lat="49.25195" lon="-0.20892">
        <ele>34.5</ele>
        <time>2024-02-04T08:23:33Z</time>
      </trkpt>
      <trkpt lat="49.25189" lon="-0.20896">
        <ele>34.6</ele>
        <time>2024-02-04T08:23:34Z</time>
      </trkpt>
      <trkpt lat="49.25183" lon="-0.20899">
        <ele>34.6</ele>
        <time>2024-02-04T08:23:35Z</time>
      </trkpt>
      <trkpt lat="49.25177" lon="-0.20903">
        <ele>34.7</ele>
        <time>2024-02-04T08:23:36Z</time>
      </trkpt>
      <trkpt lat="49.25171" lon="-0.20907">
        <ele>34.8</ele>
        <time>2024-02-04T08:23:37Z</time>
      </trkpt>
      <trkpt lat="49.25165" lon="-0.2091">
        <ele>34.9</ele>
        <time>2024-02-04T08:23:38Z</time>
      </trkpt>
      <trkpt lat="49.25159" lon="-0.20914">
        <ele>35</ele>
        <time>2024-02-04T08:23:39Z</time>
      </trkpt>
      <trkpt lat="49.25153" lon="-0.20918">
        <ele>35.1</ele>
        <time>2024-02-04T08:23:40Z</time>
      </trkpt>
      <trkpt lat="49.25147" lon="-0.20922">
        <ele>35.2</ele>
        <time>2024-02-04T08:23:41Z</time>
      </trkpt>
      <trkpt lat="49.25141" lon="-0.20925">
        <ele>35.3</ele>
        <time>2024-02-04T08:23:42Z</time>
      </trkpt>
      <trkpt lat="49.25135" lon="-0.20929">
        <ele>35.4</ele>
        <time>2024-02-04T08:23:43Z</time>
      </trkpt>
      <trkpt lat="49.25129" lon="-0.20933">
        <ele>35.4</ele>
        <time>2024-02-04T08:23:44Z</time>
      </trkpt>
      <trkpt lat="49.25123" lon="-0.20937">
        <ele>35.5</ele>
        <time>2024-02-04T08:23:45Z</time>
      </trkpt>
      <trkpt lat="49.25117" lon="-0.20941">
        <ele>35.6</ele>
        <time>2024-02-04T08:23:46Z</time>
      </trkpt>
      <trkpt lat="49.25111" lon="-0.20945">
        <ele>35.7</ele>
        <time>2024-02-04T08:23:47Z</time>
      </trkpt>
      <trkpt lat="49.25105" lon="-0.20949">
        <ele>35.8</ele>
        <time>2024-02-04T08:23:48Z</time>
      </trkpt>
      <trkpt lat="49.25099" lon="-0.20954">
        <ele>35.9</ele>
        <time>2024-02-04T08:23:49Z</time>
      </trkpt>
      <trkpt lat="49.25092" lon="-0.20958">
        <ele>36</ele>
        <time>2024-02-04T08:23:50Z</time>
      </trkpt>
      <trkpt lat="49.25086" lon="-0.20962">
        <ele>36.1</ele>
        <time>2024-02-04T08:23:51Z</time>
      </trkpt>
      <trkpt lat="49.2508" lon="-0.20967">
        <ele>36.2</ele>
        <time>2024-02-04T08:23:52Z</time>
      </trkpt>
      <trkpt lat="49.25073" lon="-0.20971">
        <ele>36.3</ele>
        <time>2024-02-04T08:23:53Z</time>
      </trkpt>
      <trkpt lat="49.25067" lon="-0.20976">
        <ele>36.4</ele>
        <time>2024-02-04T08:23:54Z</time>
      </trkpt>
      <trkpt lat="49.25061" lon="-0.2098">
        <ele>36.5</ele>
        <time>2024-02-04T08:23:55Z</time>
      </trkpt>
      <trkpt lat="49.25055" lon="-0.20985">
        <ele>36.5</ele>
        <time>2024-02-04T08:23:56Z</time>
      </trkpt>
      <trkpt lat="49.25049" lon="-0.20989">
        <ele>36.6</ele>
        <time>2024-02-04T08:23:57Z</time>
      </trkpt>
      <trkpt lat="49.25043" lon="-0.20994">
        <ele>36.7</ele>
        <time>2024-02-04T08:23:58Z</time>
      </trkpt>
      <trkpt lat="49.25037" lon="-0.20999">
        <ele>36.7</ele>
        <time>2024-02-04T08:23:59Z</time>
      </trkpt>
      <trkpt lat="49.25031" lon="-0.21004">
        <ele>36.8</ele>
        <time>2024-02-04T08:24:00Z</time>
      </trkpt>
      <trkpt lat="49.25025" lon="-0.2101">
        <ele>36.8</ele>
        <time>2024-02-04T08:24:01Z</time>
      </trkpt>
      <trkpt lat="49.2502" lon="-0.21016">
        <ele>36.9</ele>
        <time>2024-02-04T08:24:02Z</time>
      </trkpt>
      <trkpt lat="49.25014" lon="-0.21021">
        <ele>37</ele>
        <time>2024-02-04T08:24:03Z</time>
      </trkpt>
      <trkpt lat="49.25009" lon="-0.21027">
        <ele>37</ele>
        <time>2024-02-04T08:24:04Z</time>
      </trkpt>
      <trkpt lat="49.25003" lon="-0.21033">
        <ele>37.1</ele>
        <time>2024-02-04T08:24:05Z</time>
      </trkpt>
      <trkpt lat="49.24998" lon="-0.21039">
        <ele>37.1</ele>
        <time>2024-02-04T08:24:06Z</time>
      </trkpt>
      <trkpt lat="49.24992" lon="-0.21044">
        <ele>37.1</ele>
        <time>2024-02-04T08:24:07Z</time>
      </trkpt>
      <trkpt lat="49.24987" lon="-0.2105">
        <ele>37.2</ele>
        <time>2024-02-04T08:24:08Z</time>
      </trkpt>
      <trkpt lat="49.24981" lon="-0.21056">
        <ele>37.2</ele>
        <time>2024-02-04T08:24:09Z</time>
      </trkpt>
      <trkpt lat="49.24975" lon="-0.21061">
        <ele>37.2</ele>
        <time>2024-02-04T08:24:10Z</time>
      </trkpt>
      <trkpt lat="49.24969" lon="-0.21067">
        <ele>37.3</ele>
        <time>2024-02-04T08:24:11Z</time>
      </trkpt>
      <trkpt lat="49.24963" lon="-0.21072">
        <ele>37.3</ele>
        <time>2024-02-04T08:24:12Z</time>
      </trkpt>
      <trkpt lat="49.24957" lon="-0.21077">
        <ele>37.4</ele>
        <time>2024-02-04T08:24:13Z</time>
      </trkpt>
      <trkpt lat="49.24951" lon="-0.21082">
        <ele>37.4</ele>
        <time>2024-02-04T08:24:14Z</time>
      </trkpt>
      <trkpt lat="49.24944" lon="-0.21086">
        <ele>37.5</ele>
        <time>2024-02-04T08:24:15Z</time>
      </trkpt>
      <trkpt lat="49.24938" lon="-0.21089">
        <ele>37.5</ele>
        <time>2024-02-04T08:24:16Z</time>
      </trkpt>
      <trkpt lat="49.24932" lon="-0.21093">
        <ele>37.6</ele>
        <time>2024-02-04T08:24:17Z</time>
      </trkpt>
      <trkpt lat="49.24925" lon="-0.21096">
        <ele>37.6</ele>
        <time>2024-02-04T08:24:18Z</time>
      </trkpt>
      <trkpt lat="49.24919" lon="-0.211">
        <ele>37.7</ele>
        <time>2024-02-04T08:24:19Z</time>
      </trkpt>
      <trkpt lat="49.24912" lon="-0.21104">
        <ele>37.8</ele>
        <time>2024-02-04T08:24:20Z</time>
      </trkpt>
      <trkpt lat="49.24906" lon="-0.21107">
        <ele>37.8</ele>
        <time>2024-02-04T08:24:21Z</time>
      </trkpt>
      <trkpt lat="49.24899" lon="-0.21111">
        <ele>37.8</ele>
        <time>2024-02-04T08:24:22Z</time>
      </trkpt>
      <trkpt lat="49.24893" lon="-0.21114">
        <ele>37.9</ele>
        <time>2024-02-04T08:24:23Z</time>
      </trkpt>
      <trkpt lat="49.24887" lon="-0.21117">
        <ele>37.9</ele>
        <time>2024-02-04T08:24:24Z</time>
      </trkpt>
      <trkpt lat="49.2488" lon="-0.21121">
        <ele>37.9</ele>
        <time>2024-02-04T08:24:25Z</time>
      </trkpt>
      <trkpt lat="49.24873" lon="-0.21124">
        <ele>38</ele>
        <time>2024-02-04T08:24:26Z</time>
      </trkpt>
      <trkpt lat="49.24866" lon="-0.21128">
        <ele>38</ele>
        <time>2024-02-04T08:24:27Z</time>
      </trkpt>
      <trkpt lat="49.2486" lon="-0.21132">
        <ele>38.1</ele>
        <time>2024-02-04T08:24:28Z</time>
      </trkpt>
      <trkpt lat="49.24853" lon="-0.21135">
        <ele>38.1</ele>
        <time>2024-02-04T08:24:29Z</time>
      </trkpt>
      <trkpt lat="49.24846" lon="-0.21139">
        <ele>38.2</ele>
        <time>2024-02-04T08:24:30Z</time>
      </trkpt>
      <trkpt lat="49.2484" lon="-0.21143">
        <ele>38.3</ele>
        <time>2024-02-04T08:24:31Z</time>
      </trkpt>
      <trkpt lat="49.24833" lon="-0.21147">
        <ele>38.3</ele>
        <time>2024-02-04T08:24:32Z</time>
      </trkpt>
      <trkpt lat="49.24827" lon="-0.21151">
        <ele>38.4</ele>
        <time>2024-02-04T08:24:33Z</time>
      </trkpt>
      <trkpt lat="49.2482" lon="-0.21155">
        <ele>38.5</ele>
        <time>2024-02-04T08:24:34Z</time>
      </trkpt>
      <trkpt lat="49.24814" lon="-0.21159">
        <ele>38.5</ele>
        <time>2024-02-04T08:24:35Z</time>
      </trkpt>
      <trkpt lat="49.24807" lon="-0.21163">
        <ele>38.6</ele>
        <time>2024-02-04T08:24:36Z</time>
      </trkpt>
      <trkpt lat="49.24801" lon="-0.21168">
        <ele>38.7</ele>
        <time>2024-02-04T08:24:37Z</time>
      </trkpt>
      <trkpt lat="49.24795" lon="-0.21172">
        <ele>38.8</ele>
        <time>2024-02-04T08:24:38Z</time>
      </trkpt>
      <trkpt lat="49.24789" lon="-0.21176">
        <ele>38.9</ele>
        <time>2024-02-04T08:24:39Z</time>
      </trkpt>
      <trkpt lat="49.24783" lon="-0.21181">
        <ele>39</ele>
        <time>2024-02-04T08:24:40Z</time>
      </trkpt>
      <trkpt lat="49.24777" lon="-0.21185">
        <ele>39.1</ele>
        <time>2024-02-04T08:24:41Z</time>
      </trkpt>
      <trkpt lat="49.24771" lon="-0.2119">
        <ele>39.3</ele>
        <time>2024-02-04T08:24:42Z</time>
      </trkpt>
      <trkpt lat="49.24764" lon="-0.21194">
        <ele>39.5</ele>
        <time>2024-02-04T08:24:43Z</time>
      </trkpt>
      <trkpt lat="49.24758" lon="-0.21198">
        <ele>39.6</ele>
        <time>2024-02-04T08:24:44Z</time>
      </trkpt>
      <trkpt lat="49.24753" lon="-0.21202">
        <ele>39.8</ele>
        <time>2024-02-04T08:24:45Z</time>
      </trkpt>
      <trkpt lat="49.24747" lon="-0.21207">
        <ele>40</ele>
        <time>2024-02-04T08:24:46Z</time>
      </trkpt>
      <trkpt lat="49.24741" lon="-0.21211">
        <ele>40.2</ele>
        <time>2024-02-04T08:24:47Z</time>
      </trkpt>
      <trkpt lat="49.24735" lon="-0.21216">
        <ele>40.4</ele>
        <time>2024-02-04T08:24:48Z</time>
      </trkpt>
      <trkpt lat="49.2473" lon="-0.21219">
        <ele>40.6</ele>
        <time>2024-02-04T08:24:49Z</time>
      </trkpt>
      <trkpt lat="49.24724" lon="-0.21223">
        <ele>40.8</ele>
        <time>2024-02-04T08:24:50Z</time>
      </trkpt>
      <trkpt lat="49.24718" lon="-0.21228">
        <ele>41</ele>
        <time>2024-02-04T08:24:51Z</time>
      </trkpt>
      <trkpt lat="49.24712" lon="-0.21232">
        <ele>41.2</ele>
        <time>2024-02-04T08:24:52Z</time>
      </trkpt>
      <trkpt lat="49.24707" lon="-0.21236">
        <ele>41.4</ele>
        <time>2024-02-04T08:24:53Z</time>
      </trkpt>
      <trkpt lat="49.24701" lon="-0.21241">
        <ele>41.5</ele>
        <time>2024-02-04T08:24:54Z</time>
      </trkpt>
      <trkpt lat="49.24695" lon="-0.21245">
        <ele>41.7</ele>
        <time>2024-02-04T08:24:55Z</time>
      </trkpt>
      <trkpt lat="49.2469" lon="-0.21248">
        <ele>41.8</ele>
        <time>2024-02-04T08:24:56Z</time>
      </trkpt>
      <trkpt lat="49.24684" lon="-0.21252">
        <ele>42</ele>
        <time>2024-02-04T08:24:57Z</time>
      </trkpt>
      <trkpt lat="49.24678" lon="-0.21256">
        <ele>42.1</ele>
        <time>2024-02-04T08:24:58Z</time>
      </trkpt>
      <trkpt lat="49.24673" lon="-0.2126">
        <ele>42.3</ele>
        <time>2024-02-04T08:24:59Z</time>
      </trkpt>
      <trkpt lat="49.24668" lon="-0.21265">
        <ele>42.4</ele>
        <time>2024-02-04T08:25:00Z</time>
      </trkpt>
      <trkpt lat="49.24662" lon="-0.21269">
        <ele>42.5</ele>
        <time>2024-02-04T08:25:01Z</time>
      </trkpt>
      <trkpt lat="49.24657" lon="-0.21273">
        <ele>42.5</ele>
        <time>2024-02-04T08:25:02Z</time>
      </trkpt>
      <trkpt lat="49.24652" lon="-0.21279">
        <ele>42.6</ele>
        <time>2024-02-04T08:25:03Z</time>
      </trkpt>
      <trkpt lat="49.24646" lon="-0.21285">
        <ele>42.7</ele>
        <time>2024-02-04T08:25:04Z</time>
      </trkpt>
      <trkpt lat="49.24642" lon="-0.21292">
        <ele>42.8</ele>
        <time>2024-02-04T08:25:05Z</time>
      </trkpt>
      <trkpt lat="49.24637" lon="-0.21299">
        <ele>42.9</ele>
        <time>2024-02-04T08:25:06Z</time>
      </trkpt>
      <trkpt lat="49.24633" lon="-0.21306">
        <ele>43</ele>
        <time>2024-02-04T08:25:07Z</time>
      </trkpt>
      <trkpt lat="49.24629" lon="-0.21314">
        <ele>43.1</ele>
        <time>2024-02-04T08:25:08Z</time>
      </trkpt>
      <trkpt lat="49.24625" lon="-0.21321">
        <ele>43.2</ele>
        <time>2024-02-04T08:25:09Z</time>
      </trkpt>
      <trkpt lat="49.24621" lon="-0.21329">
        <ele>43.2</ele>
        <time>2024-02-04T08:25:10Z</time>
      </trkpt>
      <trkpt lat="49.24617" lon="-0.21337">
        <ele>43.3</ele>
        <time>2024-02-04T08:25:11Z</time>
      </trkpt>
      <trkpt lat="49.24613" lon="-0.21344">
        <ele>43.4</ele>
        <time>2024-02-04T08:25:12Z</time>
      </trkpt>
      <trkpt lat="49.24609" lon="-0.21352">
        <ele>43.5</ele>
        <time>2024-02-04T08:25:13Z</time>
      </trkpt>
      <trkpt lat="49.24605" lon="-0.21359">
        <ele>43.6</ele>
        <time>2024-02-04T08:25:14Z</time>
      </trkpt>
      <trkpt lat="49.24601" lon="-0.21367">
        <ele>43.6</ele>
        <time>2024-02-04T08:25:15Z</time>
      </trkpt>
      <trkpt lat="49.24598" lon="-0.21374">
        <ele>43.7</ele>
        <time>2024-02-04T08:25:16Z</time>
      </trkpt>
      <trkpt lat="49.24594" lon="-0.21381">
        <ele>43.8</ele>
        <time>2024-02-04T08:25:17Z</time>
      </trkpt>
      <trkpt lat="49.2459" lon="-0.21389">
        <ele>43.9</ele>
        <time>2024-02-04T08:25:18Z</time>
      </trkpt>
      <trkpt lat="49.24587" lon="-0.21397">
        <ele>44</ele>
        <time>2024-02-04T08:25:19Z</time>
      </trkpt>
      <trkpt lat="49.24583" lon="-0.21405">
        <ele>44.1</ele>
        <time>2024-02-04T08:25:20Z</time>
      </trkpt>
      <trkpt lat="49.24579" lon="-0.21412">
        <ele>44.2</ele>
        <time>2024-02-04T08:25:21Z</time>
      </trkpt>
      <trkpt lat="49.24576" lon="-0.21419">
        <ele>44.3</ele>
        <time>2024-02-04T08:25:22Z</time>
      </trkpt>
      <trkpt lat="49.24572" lon="-0.21427">
        <ele>44.3</ele>
        <time>2024-02-04T08:25:23Z</time>
      </trkpt>
      <trkpt lat="49.24568" lon="-0.21434">
        <ele>44.4</ele>
        <time>2024-02-04T08:25:24Z</time>
      </trkpt>
      <trkpt lat="49.24564" lon="-0.21442">
        <ele>44.5</ele>
        <time>2024-02-04T08:25:25Z</time>
      </trkpt>
      <trkpt lat="49.2456" lon="-0.21449">
        <ele>44.6</ele>
        <time>2024-02-04T08:25:26Z</time>
      </trkpt>
      <trkpt lat="49.24556" lon="-0.21456">
        <ele>44.7</ele>
        <time>2024-02-04T08:25:27Z</time>
      </trkpt>
      <trkpt lat="49.24553" lon="-0.21463">
        <ele>44.8</ele>
        <time>2024-02-04T08:25:28Z</time>
      </trkpt>
      <trkpt lat="49.24549" lon="-0.2147">
        <ele>44.9</ele>
        <time>2024-02-04T08:25:29Z</time>
      </trkpt>
      <trkpt lat="49.24545" lon="-0.21478">
        <ele>45</ele>
        <time>2024-02-04T08:25:30Z</time>
      </trkpt>
      <trkpt lat="49.24541" lon="-0.21485">
        <ele>45</ele>
        <time>2024-02-04T08:25:31Z</time>
      </trkpt>
      <trkpt lat="49.24537" lon="-0.21493">
        <ele>45.1</ele>
        <time>2024-02-04T08:25:32Z</time>
      </trkpt>
      <trkpt lat="49.24533" lon="-0.215">
        <ele>45.1</ele>
        <time>2024-02-04T08:25:33Z</time>
      </trkpt>
      <trkpt lat="49.24529" lon="-0.21508">
        <ele>45.2</ele>
        <time>2024-02-04T08:25:34Z</time>
      </trkpt>
      <trkpt lat="49.24526" lon="-0.21515">
        <ele>45.3</ele>
        <time>2024-02-04T08:25:35Z</time>
      </trkpt>
      <trkpt lat="49.24522" lon="-0.21522">
        <ele>45.4</ele>
        <time>2024-02-04T08:25:36Z</time>
      </trkpt>
      <trkpt lat="49.24518" lon="-0.2153">
        <ele>45.5</ele>
        <time>2024-02-04T08:25:37Z</time>
      </trkpt>
      <trkpt lat="49.24515" lon="-0.21537">
        <ele>45.6</ele>
        <time>2024-02-04T08:25:38Z</time>
      </trkpt>
      <trkpt lat="49.24511" lon="-0.21544">
        <ele>45.7</ele>
        <time>2024-02-04T08:25:39Z</time>
      </trkpt>
      <trkpt lat="49.24507" lon="-0.21552">
        <ele>45.8</ele>
        <time>2024-02-04T08:25:40Z</time>
      </trkpt>
      <trkpt lat="49.24503" lon="-0.21559">
        <ele>45.9</ele>
        <time>2024-02-04T08:25:41Z</time>
      </trkpt>
      <trkpt lat="49.24499" lon="-0.21567">
        <ele>46</ele>
        <time>2024-02-04T08:25:42Z</time>
      </trkpt>
      <trkpt lat="49.24495" lon="-0.21574">
        <ele>46.2</ele>
        <time>2024-02-04T08:25:43Z</time>
      </trkpt>
      <trkpt lat="49.24491" lon="-0.21582">
        <ele>46.3</ele>
        <time>2024-02-04T08:25:44Z</time>
      </trkpt>
      <trkpt lat="49.24487" lon="-0.21589">
        <ele>46.4</ele>
        <time>2024-02-04T08:25:45Z</time>
      </trkpt>
      <trkpt lat="49.24483" lon="-0.21596">
        <ele>46.5</ele>
        <time>2024-02-04T08:25:46Z</time>
      </trkpt>
      <trkpt lat="49.24479" lon="-0.21604">
        <ele>46.6</ele>
        <time>2024-02-04T08:25:47Z</time>
      </trkpt>
      <trkpt lat="49.24476" lon="-0.21611">
        <ele>46.8</ele>
        <time>2024-02-04T08:25:48Z</time>
      </trkpt>
      <trkpt lat="49.24472" lon="-0.21619">
        <ele>46.9</ele>
        <time>2024-02-04T08:25:49Z</time>
      </trkpt>
      <trkpt lat="49.24468" lon="-0.21626">
        <ele>47.1</ele>
        <time>2024-02-04T08:25:50Z</time>
      </trkpt>
      <trkpt lat="49.24464" lon="-0.21633">
        <ele>47.2</ele>
        <time>2024-02-04T08:25:51Z</time>
      </trkpt>
      <trkpt lat="49.2446" lon="-0.2164">
        <ele>47.4</ele>
        <time>2024-02-04T08:25:52Z</time>
      </trkpt>
      <trkpt lat="49.24456" lon="-0.21647">
        <ele>47.6</ele>
        <time>2024-02-04T08:25:53Z</time>
      </trkpt>
      <trkpt lat="49.24453" lon="-0.21654">
        <ele>47.8</ele>
        <time>2024-02-04T08:25:54Z</time>
      </trkpt>
      <trkpt lat="49.24449" lon="-0.21661">
        <ele>47.9</ele>
        <time>2024-02-04T08:25:55Z</time>
      </trkpt>
      <trkpt lat="49.24446" lon="-0.21668">
        <ele>48.1</ele>
        <time>2024-02-04T08:25:56Z</time>
      </trkpt>
      <trkpt lat="49.24442" lon="-0.21675">
        <ele>48.3</ele>
        <time>2024-02-04T08:25:57Z</time>
      </trkpt>
      <trkpt lat="49.24438" lon="-0.21682">
        <ele>48.6</ele>
        <time>2024-02-04T08:25:58Z</time>
      </trkpt>
      <trkpt lat="49.24435" lon="-0.21689">
        <ele>48.8</ele>
        <time>2024-02-04T08:25:59Z</time>
      </trkpt>
      <trkpt lat="49.24431" lon="-0.21695">
        <ele>49</ele>
        <time>2024-02-04T08:26:00Z</time>
      </trkpt>
      <trkpt lat="49.24428" lon="-0.21702">
        <ele>49.2</ele>
        <time>2024-02-04T08:26:01Z</time>
      </trkpt>
      <trkpt lat="49.24425" lon="-0.21709">
        <ele>49.4</ele>
        <time>2024-02-04T08:26:02Z</time>
      </trkpt>
      <trkpt lat="49.24421" lon="-0.21716">
        <ele>49.6</ele>
        <time>2024-02-04T08:26:03Z</time>
      </trkpt>
      <trkpt lat="49.24418" lon="-0.21722">
        <ele>49.8</ele>
        <time>2024-02-04T08:26:04Z</time>
      </trkpt>
      <trkpt lat="49.24414" lon="-0.21729">
        <ele>50</ele>
        <time>2024-02-04T08:26:05Z</time>
      </trkpt>
      <trkpt lat="49.24411" lon="-0.21736">
        <ele>50.2</ele>
        <time>2024-02-04T08:26:06Z</time>
      </trkpt>
      <trkpt lat="49.24407" lon="-0.21742">
        <ele>50.4</ele>
        <time>2024-02-04T08:26:07Z</time>
      </trkpt>
      <trkpt lat="49.24404" lon="-0.21749">
        <ele>50.6</ele>
        <time>2024-02-04T08:26:08Z</time>
      </trkpt>
      <trkpt lat="49.244" lon="-0.21756">
        <ele>50.8</ele>
        <time>2024-02-04T08:26:09Z</time>
      </trkpt>
      <trkpt lat="49.24397" lon="-0.21763">
        <ele>50.9</ele>
        <time>2024-02-04T08:26:10Z</time>
      </trkpt>
      <trkpt lat="49.24393" lon="-0.2177">
        <ele>51.1</ele>
        <time>2024-02-04T08:26:11Z</time>
      </trkpt>
      <trkpt lat="49.2439" lon="-0.21776">
        <ele>51.3</ele>
        <time>2024-02-04T08:26:12Z</time>
      </trkpt>
      <trkpt lat="49.24386" lon="-0.21783">
        <ele>51.5</ele>
        <time>2024-02-04T08:26:13Z</time>
      </trkpt>
      <trkpt lat="49.24383" lon="-0.2179">
        <ele>51.7</ele>
        <time>2024-02-04T08:26:14Z</time>
      </trkpt>
      <trkpt lat="49.24379" lon="-0.21797">
        <ele>51.8</ele>
        <time>2024-02-04T08:26:15Z</time>
      </trkpt>
      <trkpt lat="49.24376" lon="-0.21804">
        <ele>52</ele>
        <time>2024-02-04T08:26:16Z</time>
      </trkpt>
      <trkpt lat="49.24372" lon="-0.21811">
        <ele>52.2</ele>
        <time>2024-02-04T08:26:17Z</time>
      </trkpt>
      <trkpt lat="49.24368" lon="-0.21818">
        <ele>52.3</ele>
        <time>2024-02-04T08:26:18Z</time>
      </trkpt>
      <trkpt lat="49.24364" lon="-0.21824">
        <ele>52.5</ele>
        <time>2024-02-04T08:26:19Z</time>
      </trkpt>
      <trkpt lat="49.24361" lon="-0.21831">
        <ele>52.6</ele>
        <time>2024-02-04T08:26:20Z</time>
      </trkpt>
      <trkpt lat="49.24357" lon="-0.21838">
        <ele>52.7</ele>
        <time>2024-02-04T08:26:21Z</time>
      </trkpt>
      <trkpt lat="49.24354" lon="-0.21845">
        <ele>52.8</ele>
        <time>2024-02-04T08:26:22Z</time>
      </trkpt>
      <trkpt lat="49.2435" lon="-0.21852">
        <ele>52.9</ele>
        <time>2024-02-04T08:26:23Z</time>
      </trkpt>
      <trkpt lat="49.24346" lon="-0.21859">
        <ele>53.1</ele>
        <time>2024-02-04T08:26:24Z</time>
      </trkpt>
      <trkpt lat="49.24342" lon="-0.21866">
        <ele>53.2</ele>
        <time>2024-02-04T08:26:25Z</time>
      </trkpt>
      <trkpt lat="49.24338" lon="-0.21874">
        <ele>53.3</ele>
        <time>2024-02-04T08:26:26Z</time>
      </trkpt>
      <trkpt lat="49.24334" lon="-0.21881">
        <ele>53.4</ele>
        <time>2024-02-04T08:26:27Z</time>
      </trkpt>
      <trkpt lat="49.2433" lon="-0.21889">
        <ele>53.5</ele>
        <time>2024-02-04T08:26:28Z</time>
      </trkpt>
      <trkpt lat="49.24326" lon="-0.21897">
        <ele>53.6</ele>
        <time>2024-02-04T08:26:29Z</time>
      </trkpt>
      <trkpt lat="49.24322" lon="-0.21905">
        <ele>53.7</ele>
        <time>2024-02-04T08:26:30Z</time>
      </trkpt>
      <trkpt lat="49.24318" lon="-0.21912">
        <ele>53.7</ele>
        <time>2024-02-04T08:26:31Z</time>
      </trkpt>
      <trkpt lat="49.24314" lon="-0.2192">
        <ele>53.8</ele>
        <time>2024-02-04T08:26:32Z</time>
      </trkpt>
      <trkpt lat="49.2431" lon="-0.21928">
        <ele>53.9</ele>
        <time>2024-02-04T08:26:33Z</time>
      </trkpt>
      <trkpt lat="49.24306" lon="-0.21936">
        <ele>53.9</ele>
        <time>2024-02-04T08:26:34Z</time>
      </trkpt>
      <trkpt lat="49.24302" lon="-0.21944">
        <ele>54</ele>
        <time>2024-02-04T08:26:35Z</time>
      </trkpt>
      <trkpt lat="49.24298" lon="-0.21952">
        <ele>54</ele>
        <time>2024-02-04T08:26:36Z</time>
      </trkpt>
      <trkpt lat="49.24294" lon="-0.2196">
        <ele>54.1</ele>
        <time>2024-02-04T08:26:37Z</time>
      </trkpt>
      <trkpt lat="49.2429" lon="-0.21968">
        <ele>54.2</ele>
        <time>2024-02-04T08:26:38Z</time>
      </trkpt>
      <trkpt lat="49.24286" lon="-0.21976">
        <ele>54.2</ele>
        <time>2024-02-04T08:26:39Z</time>
      </trkpt>
      <trkpt lat="49.24282" lon="-0.21984">
        <ele>54.2</ele>
        <time>2024-02-04T08:26:40Z</time>
      </trkpt>
      <trkpt lat="49.24278" lon="-0.21992">
        <ele>54.2</ele>
        <time>2024-02-04T08:26:41Z</time>
      </trkpt>
      <trkpt lat="49.24274" lon="-0.22">
        <ele>54.2</ele>
        <time>2024-02-04T08:26:42Z</time>
      </trkpt>
      <trkpt lat="49.2427" lon="-0.22009">
        <ele>54.2</ele>
        <time>2024-02-04T08:26:43Z</time>
      </trkpt>
      <trkpt lat="49.24265" lon="-0.22017">
        <ele>54.2</ele>
        <time>2024-02-04T08:26:44Z</time>
      </trkpt>
      <trkpt lat="49.24261" lon="-0.22026">
        <ele>54.2</ele>
        <time>2024-02-04T08:26:45Z</time>
      </trkpt>
      <trkpt lat="49.24257" lon="-0.22034">
        <ele>54.2</ele>
        <time>2024-02-04T08:26:46Z</time>
      </trkpt>
      <trkpt lat="49.24252" lon="-0.22042">
        <ele>54.1</ele>
        <time>2024-02-04T08:26:47Z</time>
      </trkpt>
      <trkpt lat="49.24248" lon="-0.2205">
        <ele>54.1</ele>
        <time>2024-02-04T08:26:48Z</time>
      </trkpt>
      <trkpt lat="49.24243" lon="-0.22059">
        <ele>54.1</ele>
        <time>2024-02-04T08:26:49Z</time>
      </trkpt>
      <trkpt lat="49.24239" lon="-0.22067">
        <ele>54</ele>
        <time>2024-02-04T08:26:50Z</time>
      </trkpt>
      <trkpt lat="49.24236" lon="-0.22076">
        <ele>54</ele>
        <time>2024-02-04T08:26:51Z</time>
      </trkpt>
      <trkpt lat="49.24231" lon="-0.22084">
        <ele>54</ele>
        <time>2024-02-04T08:26:52Z</time>
      </trkpt>
      <trkpt lat="49.24228" lon="-0.22093">
        <ele>54.1</ele>
        <time>2024-02-04T08:26:53Z</time>
      </trkpt>
      <trkpt lat="49.24224" lon="-0.22102">
        <ele>54.1</ele>
        <time>2024-02-04T08:26:54Z</time>
      </trkpt>
      <trkpt lat="49.24221" lon="-0.22112">
        <ele>54.1</ele>
        <time>2024-02-04T08:26:55Z</time>
      </trkpt>
      <trkpt lat="49.24218" lon="-0.22121">
        <ele>54.1</ele>
        <time>2024-02-04T08:26:56Z</time>
      </trkpt>
      <trkpt lat="49.24215" lon="-0.2213">
        <ele>54</ele>
        <time>2024-02-04T08:26:57Z</time>
      </trkpt>
      <trkpt lat="49.24213" lon="-0.22139">
        <ele>54</ele>
        <time>2024-02-04T08:26:58Z</time>
      </trkpt>
      <trkpt lat="49.2421" lon="-0.22148">
        <ele>54</ele>
        <time>2024-02-04T08:26:59Z</time>
      </trkpt>
      <trkpt lat="49.24208" lon="-0.22158">
        <ele>53.9</ele>
        <time>2024-02-04T08:27:00Z</time>
      </trkpt>
      <trkpt lat="49.24206" lon="-0.22167">
        <ele>53.9</ele>
        <time>2024-02-04T08:27:01Z</time>
      </trkpt>
      <trkpt lat="49.24204" lon="-0.22178">
        <ele>53.9</ele>
        <time>2024-02-04T08:27:02Z</time>
      </trkpt>
      <trkpt lat="49.24202" lon="-0.22187">
        <ele>53.9</ele>
        <time>2024-02-04T08:27:03Z</time>
      </trkpt>
      <trkpt lat="49.242" lon="-0.22198">
        <ele>54</ele>
        <time>2024-02-04T08:27:04Z</time>
      </trkpt>
      <trkpt lat="49.24197" lon="-0.22208">
        <ele>54</ele>
        <time>2024-02-04T08:27:05Z</time>
      </trkpt>
      <trkpt lat="49.24194" lon="-0.22219">
        <ele>54.1</ele>
        <time>2024-02-04T08:27:06Z</time>
      </trkpt>
      <trkpt lat="49.24191" lon="-0.22229">
        <ele>54.1</ele>
        <time>2024-02-04T08:27:07Z</time>
      </trkpt>
      <trkpt lat="49.24188" lon="-0.22238">
        <ele>54.1</ele>
        <time>2024-02-04T08:27:08Z</time>
      </trkpt>
      <trkpt lat="49.24184" lon="-0.22248">
        <ele>54.2</ele>
        <time>2024-02-04T08:27:09Z</time>
      </trkpt>
      <trkpt lat="49.24181" lon="-0.22256">
        <ele>54.2</ele>
        <time>2024-02-04T08:27:10Z</time>
      </trkpt>
      <trkpt lat="49.24177" lon="-0.22265">
        <ele>54.3</ele>
        <time>2024-02-04T08:27:11Z</time>
      </trkpt>
      <trkpt lat="49.24174" lon="-0.22274">
        <ele>54.3</ele>
        <time>2024-02-04T08:27:12Z</time>
      </trkpt>
      <trkpt lat="49.2417" lon="-0.22283">
        <ele>54.4</ele>
        <time>2024-02-04T08:27:13Z</time>
      </trkpt>
      <trkpt lat="49.24167" lon="-0.22292">
        <ele>54.4</ele>
        <time>2024-02-04T08:27:14Z</time>
      </trkpt>
      <trkpt lat="49.24164" lon="-0.22301">
        <ele>54.5</ele>
        <time>2024-02-04T08:27:15Z</time>
      </trkpt>
      <trkpt lat="49.24161" lon="-0.2231">
        <ele>54.6</ele>
        <time>2024-02-04T08:27:16Z</time>
      </trkpt>
      <trkpt lat="49.24157" lon="-0.22319">
        <ele>54.6</ele>
        <time>2024-02-04T08:27:17Z</time>
      </trkpt>
      <trkpt lat="49.24154" lon="-0.22328">
        <ele>54.7</ele>
        <time>2024-02-04T08:27:18Z</time>
      </trkpt>
      <trkpt lat="49.24151" lon="-0.22336">
        <ele>54.7</ele>
        <time>2024-02-04T08:27:19Z</time>
      </trkpt>
      <trkpt lat="49.24147" lon="-0.22345">
        <ele>54.8</ele>
        <time>2024-02-04T08:27:20Z</time>
      </trkpt>
      <trkpt lat="49.24144" lon="-0.22354">
        <ele>54.8</ele>
        <time>2024-02-04T08:27:21Z</time>
      </trkpt>
      <trkpt lat="49.24141" lon="-0.22364">
        <ele>54.9</ele>
        <time>2024-02-04T08:27:22Z</time>
      </trkpt>
      <trkpt lat="49.24138" lon="-0.22373">
        <ele>55</ele>
        <time>2024-02-04T08:27:23Z</time>
      </trkpt>
      <trkpt lat="49.24136" lon="-0.22383">
        <ele>55</ele>
        <time>2024-02-04T08:27:24Z</time>
      </trkpt>
      <trkpt lat="49.24133" lon="-0.22392">
        <ele>55.1</ele>
        <time>2024-02-04T08:27:25Z</time>
      </trkpt>
      <trkpt lat="49.2413" lon="-0.22402">
        <ele>55.2</ele>
        <time>2024-02-04T08:27:26Z</time>
      </trkpt>
      <trkpt lat="49.24128" lon="-0.22412">
        <ele>55.3</ele>
        <time>2024-02-04T08:27:27Z</time>
      </trkpt>
      <trkpt lat="49.24125" lon="-0.22422">
        <ele>55.3</ele>
        <time>2024-02-04T08:27:28Z</time>
      </trkpt>
      <trkpt lat="49.24123" lon="-0.22432">
        <ele>55.4</ele>
        <time>2024-02-04T08:27:29Z</time>
      </trkpt>
      <trkpt lat="49.2412" lon="-0.22442">
        <ele>55.5</ele>
        <time>2024-02-04T08:27:30Z</time>
      </trkpt>
      <trkpt lat="49.24118" lon="-0.22451">
        <ele>55.6</ele>
        <time>2024-02-04T08:27:31Z</time>
      </trkpt>
      <trkpt lat="49.24115" lon="-0.2246">
        <ele>55.6</ele>
        <time>2024-02-04T08:27:32Z</time>
      </trkpt>
      <trkpt lat="49.24112" lon="-0.22469">
        <ele>55.7</ele>
        <time>2024-02-04T08:27:33Z</time>
      </trkpt>
      <trkpt lat="49.24109" lon="-0.22478">
        <ele>55.8</ele>
        <time>2024-02-04T08:27:34Z</time>
      </trkpt>
      <trkpt lat="49.24105" lon="-0.22486">
        <ele>55.8</ele>
        <time>2024-02-04T08:27:35Z</time>
      </trkpt>
      <trkpt lat="49.24101" lon="-0.22494">
        <ele>55.9</ele>
        <time>2024-02-04T08:27:36Z</time>
      </trkpt>
      <trkpt lat="49.24098" lon="-0.22502">
        <ele>55.9</ele>
        <time>2024-02-04T08:27:37Z</time>
      </trkpt>
      <trkpt lat="49.24093" lon="-0.2251">
        <ele>55.9</ele>
        <time>2024-02-04T08:27:38Z</time>
      </trkpt>
      <trkpt lat="49.24088" lon="-0.22517">
        <ele>56</ele>
        <time>2024-02-04T08:27:39Z</time>
      </trkpt>
      <trkpt lat="49.24083" lon="-0.22525">
        <ele>56</ele>
        <time>2024-02-04T08:27:40Z</time>
      </trkpt>
      <trkpt lat="49.24078" lon="-0.22533">
        <ele>56</ele>
        <time>2024-02-04T08:27:41Z</time>
      </trkpt>
      <trkpt lat="49.24074" lon="-0.2254">
        <ele>56</ele>
        <time>2024-02-04T08:27:42Z</time>
      </trkpt>
      <trkpt lat="49.24069" lon="-0.22548">
        <ele>56</ele>
        <time>2024-02-04T08:27:43Z</time>
      </trkpt>
      <trkpt lat="49.24064" lon="-0.22555">
        <ele>56</ele>
        <time>2024-02-04T08:27:44Z</time>
      </trkpt>
      <trkpt lat="49.2406" lon="-0.22562">
        <ele>56</ele>
        <time>2024-02-04T08:27:45Z</time>
      </trkpt>
      <trkpt lat="49.24055" lon="-0.22569">
        <ele>56</ele>
        <time>2024-02-04T08:27:46Z</time>
      </trkpt>
      <trkpt lat="49.24051" lon="-0.22577">
        <ele>56</ele>
        <time>2024-02-04T08:27:47Z</time>
      </trkpt>
      <trkpt lat="49.24046" lon="-0.22584">
        <ele>56</ele>
        <time>2024-02-04T08:27:48Z</time>
      </trkpt>
      <trkpt lat="49.24041" lon="-0.2259">
        <ele>56</ele>
        <time>2024-02-04T08:27:49Z</time>
      </trkpt>
      <trkpt lat="49.24036" lon="-0.22597">
        <ele>55.9</ele>
        <time>2024-02-04T08:27:50Z</time>
      </trkpt>
      <trkpt lat="49.24031" lon="-0.22604">
        <ele>55.9</ele>
        <time>2024-02-04T08:27:51Z</time>
      </trkpt>
      <trkpt lat="49.24026" lon="-0.2261">
        <ele>55.8</ele>
        <time>2024-02-04T08:27:52Z</time>
      </trkpt>
      <trkpt lat="49.24021" lon="-0.22617">
        <ele>55.8</ele>
        <time>2024-02-04T08:27:53Z</time>
      </trkpt>
      <trkpt lat="49.24016" lon="-0.22624">
        <ele>55.6</ele>
        <time>2024-02-04T08:27:54Z</time>
      </trkpt>
      <trkpt lat="49.24011" lon="-0.22631">
        <ele>55.4</ele>
        <time>2024-02-04T08:27:55Z</time>
      </trkpt>
      <trkpt lat="49.24005" lon="-0.22639">
        <ele>55.1</ele>
        <time>2024-02-04T08:27:56Z</time>
      </trkpt>
      <trkpt lat="49.23999" lon="-0.22646">
        <ele>54.9</ele>
        <time>2024-02-04T08:27:57Z</time>
      </trkpt>
      <trkpt lat="49.23994" lon="-0.22654">
        <ele>54.6</ele>
        <time>2024-02-04T08:27:58Z</time>
      </trkpt>
      <trkpt lat="49.23988" lon="-0.22663">
        <ele>54.3</ele>
        <time>2024-02-04T08:27:59Z</time>
      </trkpt>
      <trkpt lat="49.23982" lon="-0.22671">
        <ele>53.9</ele>
        <time>2024-02-04T08:28:00Z</time>
      </trkpt>
      <trkpt lat="49.23977" lon="-0.2268">
        <ele>53.3</ele>
        <time>2024-02-04T08:28:01Z</time>
      </trkpt>
      <trkpt lat="49.23971" lon="-0.22689">
        <ele>52.7</ele>
        <time>2024-02-04T08:28:02Z</time>
      </trkpt>
      <trkpt lat="49.23966" lon="-0.22698">
        <ele>52</ele>
        <time>2024-02-04T08:28:03Z</time>
      </trkpt>
      <trkpt lat="49.23961" lon="-0.22708">
        <ele>51.4</ele>
        <time>2024-02-04T08:28:04Z</time>
      </trkpt>
      <trkpt lat="49.23955" lon="-0.22717">
        <ele>50.6</ele>
        <time>2024-02-04T08:28:05Z</time>
      </trkpt>
      <trkpt lat="49.23948" lon="-0.22726">
        <ele>49.8</ele>
        <time>2024-02-04T08:28:06Z</time>
      </trkpt>
      <trkpt lat="49.23941" lon="-0.22735">
        <ele>48.9</ele>
        <time>2024-02-04T08:28:07Z</time>
      </trkpt>
      <trkpt lat="49.23933" lon="-0.22744">
        <ele>47.9</ele>
        <time>2024-02-04T08:28:08Z</time>
      </trkpt>
      <trkpt lat="49.23926" lon="-0.22753">
        <ele>47</ele>
        <time>2024-02-04T08:28:09Z</time>
      </trkpt>
      <trkpt lat="49.23919" lon="-0.22762">
        <ele>46</ele>
        <time>2024-02-04T08:28:10Z</time>
      </trkpt>
      <trkpt lat="49.23911" lon="-0.2277">
        <ele>45.1</ele>
        <time>2024-02-04T08:28:11Z</time>
      </trkpt>
      <trkpt lat="49.23904" lon="-0.22779">
        <ele>44.1</ele>
        <time>2024-02-04T08:28:12Z</time>
      </trkpt>
      <trkpt lat="49.23896" lon="-0.22788">
        <ele>43</ele>
        <time>2024-02-04T08:28:13Z</time>
      </trkpt>
      <trkpt lat="49.23888" lon="-0.22798">
        <ele>42</ele>
        <time>2024-02-04T08:28:14Z</time>
      </trkpt>
      <trkpt lat="49.2388" lon="-0.22808">
        <ele>40.9</ele>
        <time>2024-02-04T08:28:15Z</time>
      </trkpt>
      <trkpt lat="49.23872" lon="-0.2282">
        <ele>39.8</ele>
        <time>2024-02-04T08:28:16Z</time>
      </trkpt>
      <trkpt lat="49.23864" lon="-0.22833">
        <ele>38.8</ele>
        <time>2024-02-04T08:28:17Z</time>
      </trkpt>
      <trkpt lat="49.23858" lon="-0.22848">
        <ele>37.7</ele>
        <time>2024-02-04T08:28:18Z</time>
      </trkpt>
      <trkpt lat="49.23852" lon="-0.22863">
        <ele>36.8</ele>
        <time>2024-02-04T08:28:19Z</time>
      </trkpt>
      <trkpt lat="49.23848" lon="-0.22879">
        <ele>35.9</ele>
        <time>2024-02-04T08:28:20Z</time>
      </trkpt>
      <trkpt lat="49.23843" lon="-0.22896">
        <ele>35.1</ele>
        <time>2024-02-04T08:28:21Z</time>
      </trkpt>
      <trkpt lat="49.23839" lon="-0.22912">
        <ele>34.4</ele>
        <time>2024-02-04T08:28:22Z</time>
      </trkpt>
      <trkpt lat="49.23836" lon="-0.22928">
        <ele>33.7</ele>
        <time>2024-02-04T08:28:23Z</time>
      </trkpt>
      <trkpt lat="49.23833" lon="-0.22943">
        <ele>33.1</ele>
        <time>2024-02-04T08:28:24Z</time>
      </trkpt>
      <trkpt lat="49.23831" lon="-0.22958">
        <ele>32.6</ele>
        <time>2024-02-04T08:28:25Z</time>
      </trkpt>
      <trkpt lat="49.23829" lon="-0.22974">
        <ele>32.2</ele>
        <time>2024-02-04T08:28:26Z</time>
      </trkpt>
      <trkpt lat="49.23827" lon="-0.22989">
        <ele>31.8</ele>
        <time>2024-02-04T08:28:27Z</time>
      </trkpt>
      <trkpt lat="49.23825" lon="-0.23005">
        <ele>31.4</ele>
        <time>2024-02-04T08:28:28Z</time>
      </trkpt>
      <trkpt lat="49.23821" lon="-0.2302">
        <ele>31.1</ele>
        <time>2024-02-04T08:28:29Z</time>
      </trkpt>
      <trkpt lat="49.23816" lon="-0.23033">
        <ele>30.8</ele>
        <time>2024-02-04T08:28:30Z</time>
      </trkpt>
      <trkpt lat="49.23811" lon="-0.23046">
        <ele>30.5</ele>
        <time>2024-02-04T08:28:31Z</time>
      </trkpt>
      <trkpt lat="49.23805" lon="-0.23059">
        <ele>30.2</ele>
        <time>2024-02-04T08:28:32Z</time>
      </trkpt>
      <trkpt lat="49.23799" lon="-0.23072">
        <ele>29.8</ele>
        <time>2024-02-04T08:28:33Z</time>
      </trkpt>
      <trkpt lat="49.23794" lon="-0.23085">
        <ele>29.5</ele>
        <time>2024-02-04T08:28:34Z</time>
      </trkpt>
      <trkpt lat="49.2379" lon="-0.23098">
        <ele>29.3</ele>
        <time>2024-02-04T08:28:35Z</time>
      </trkpt>
      <trkpt lat="49.23786" lon="-0.23111">
        <ele>29.1</ele>
        <time>2024-02-04T08:28:36Z</time>
      </trkpt>
      <trkpt lat="49.23784" lon="-0.23124">
        <ele>28.9</ele>
        <time>2024-02-04T08:28:37Z</time>
      </trkpt>
      <trkpt lat="49.23781" lon="-0.23136">
        <ele>28.8</ele>
        <time>2024-02-04T08:28:38Z</time>
      </trkpt>
      <trkpt lat="49.23779" lon="-0.23148">
        <ele>28.7</ele>
        <time>2024-02-04T08:28:39Z</time>
      </trkpt>
      <trkpt lat="49.23777" lon="-0.2316">
        <ele>28.6</ele>
        <time>2024-02-04T08:28:40Z</time>
      </trkpt>
      <trkpt lat="49.23776" lon="-0.23172">
        <ele>28.5</ele>
        <time>2024-02-04T08:28:41Z</time>
      </trkpt>
      <trkpt lat="49.23775" lon="-0.23184">
        <ele>28.4</ele>
        <time>2024-02-04T08:28:42Z</time>
      </trkpt>
      <trkpt lat="49.23774" lon="-0.23195">
        <ele>28.3</ele>
        <time>2024-02-04T08:28:43Z</time>
      </trkpt>
      <trkpt lat="49.23773" lon="-0.23207">
        <ele>28.2</ele>
        <time>2024-02-04T08:28:44Z</time>
      </trkpt>
      <trkpt lat="49.23772" lon="-0.23219">
        <ele>28.1</ele>
        <time>2024-02-04T08:28:45Z</time>
      </trkpt>
      <trkpt lat="49.23771" lon="-0.23231">
        <ele>27.9</ele>
        <time>2024-02-04T08:28:46Z</time>
      </trkpt>
      <trkpt lat="49.23769" lon="-0.23243">
        <ele>27.8</ele>
        <time>2024-02-04T08:28:47Z</time>
      </trkpt>
      <trkpt lat="49.23768" lon="-0.23255">
        <ele>27.7</ele>
        <time>2024-02-04T08:28:48Z</time>
      </trkpt>
      <trkpt lat="49.23767" lon="-0.23267">
        <ele>27.5</ele>
        <time>2024-02-04T08:28:49Z</time>
      </trkpt>
      <trkpt lat="49.23764" lon="-0.2328">
        <ele>27.4</ele>
        <time>2024-02-04T08:28:50Z</time>
      </trkpt>
      <trkpt lat="49.23762" lon="-0.23292">
        <ele>27.3</ele>
        <time>2024-02-04T08:28:51Z</time>
      </trkpt>
      <trkpt lat="49.23759" lon="-0.23304">
        <ele>27.2</ele>
        <time>2024-02-04T08:28:52Z</time>
      </trkpt>
      <trkpt lat="49.23756" lon="-0.23316">
        <ele>27.1</ele>
        <time>2024-02-04T08:28:53Z</time>
      </trkpt>
      <trkpt lat="49.23753" lon="-0.23327">
        <ele>27</ele>
        <time>2024-02-04T08:28:54Z</time>
      </trkpt>
      <trkpt lat="49.23749" lon="-0.23337">
        <ele>26.9</ele>
        <time>2024-02-04T08:28:55Z</time>
      </trkpt>
      <trkpt lat="49.23745" lon="-0.23348">
        <ele>26.7</ele>
        <time>2024-02-04T08:28:56Z</time>
      </trkpt>
      <trkpt lat="49.23741" lon="-0.23359">
        <ele>26.5</ele>
        <time>2024-02-04T08:28:57Z</time>
      </trkpt>
      <trkpt lat="49.23737" lon="-0.2337">
        <ele>26.3</ele>
        <time>2024-02-04T08:28:58Z</time>
      </trkpt>
      <trkpt lat="49.23733" lon="-0.23381">
        <ele>26</ele>
        <time>2024-02-04T08:28:59Z</time>
      </trkpt>
      <trkpt lat="49.23729" lon="-0.23392">
        <ele>25.8</ele>
        <time>2024-02-04T08:29:00Z</time>
      </trkpt>
      <trkpt lat="49.23725" lon="-0.23402">
        <ele>25.6</ele>
        <time>2024-02-04T08:29:01Z</time>
      </trkpt>
      <trkpt lat="49.23721" lon="-0.23414">
        <ele>25.4</ele>
        <time>2024-02-04T08:29:02Z</time>
      </trkpt>
      <trkpt lat="49.23717" lon="-0.23425">
        <ele>25.2</ele>
        <time>2024-02-04T08:29:03Z</time>
      </trkpt>
      <trkpt lat="49.23714" lon="-0.23436">
        <ele>25</ele>
        <time>2024-02-04T08:29:04Z</time>
      </trkpt>
      <trkpt lat="49.2371" lon="-0.23448">
        <ele>24.8</ele>
        <time>2024-02-04T08:29:05Z</time>
      </trkpt>
      <trkpt lat="49.23707" lon="-0.2346">
        <ele>24.7</ele>
        <time>2024-02-04T08:29:06Z</time>
      </trkpt>
      <trkpt lat="49.23703" lon="-0.23472">
        <ele>24.5</ele>
        <time>2024-02-04T08:29:07Z</time>
      </trkpt>
      <trkpt lat="49.237" lon="-0.23484">
        <ele>24.2</ele>
        <time>2024-02-04T08:29:08Z</time>
      </trkpt>
      <trkpt lat="49.23697" lon="-0.23496">
        <ele>24</ele>
        <time>2024-02-04T08:29:09Z</time>
      </trkpt>
      <trkpt lat="49.23694" lon="-0.23508">
        <ele>23.8</ele>
        <time>2024-02-04T08:29:10Z</time>
      </trkpt>
      <trkpt lat="49.23691" lon="-0.2352">
        <ele>23.7</ele>
        <time>2024-02-04T08:29:11Z</time>
      </trkpt>
      <trkpt lat="49.23688" lon="-0.23533">
        <ele>23.5</ele>
        <time>2024-02-04T08:29:12Z</time>
      </trkpt>
      <trkpt lat="49.23685" lon="-0.23545">
        <ele>23.3</ele>
        <time>2024-02-04T08:29:13Z</time>
      </trkpt>
      <trkpt lat="49.23683" lon="-0.23557">
        <ele>23.2</ele>
        <time>2024-02-04T08:29:14Z</time>
      </trkpt>
      <trkpt lat="49.23681" lon="-0.23569">
        <ele>23</ele>
        <time>2024-02-04T08:29:15Z</time>
      </trkpt>
      <trkpt lat="49.23678" lon="-0.23581">
        <ele>22.9</ele>
        <time>2024-02-04T08:29:16Z</time>
      </trkpt>
      <trkpt lat="49.23676" lon="-0.23593">
        <ele>22.7</ele>
        <time>2024-02-04T08:29:17Z</time>
      </trkpt>
      <trkpt lat="49.23674" lon="-0.23606">
        <ele>22.6</ele>
        <time>2024-02-04T08:29:18Z</time>
      </trkpt>
      <trkpt lat="49.23673" lon="-0.23618">
        <ele>22.5</ele>
        <time>2024-02-04T08:29:19Z</time>
      </trkpt>
      <trkpt lat="49.23671" lon="-0.2363">
        <ele>22.4</ele>
        <time>2024-02-04T08:29:20Z</time>
      </trkpt>
      <trkpt lat="49.23668" lon="-0.23643">
        <ele>22.4</ele>
        <time>2024-02-04T08:29:21Z</time>
      </trkpt>
      <trkpt lat="49.23666" lon="-0.23655">
        <ele>22.3</ele>
        <time>2024-02-04T08:29:22Z</time>
      </trkpt>
      <trkpt lat="49.23664" lon="-0.23667">
        <ele>22.3</ele>
        <time>2024-02-04T08:29:23Z</time>
      </trkpt>
      <trkpt lat="49.23662" lon="-0.23678">
        <ele>22.2</ele>
        <time>2024-02-04T08:29:24Z</time>
      </trkpt>
      <trkpt lat="49.23659" lon="-0.2369">
        <ele>22.2</ele>
        <time>2024-02-04T08:29:25Z</time>
      </trkpt>
      <trkpt lat="49.23657" lon="-0.23702">
        <ele>22.2</ele>
        <time>2024-02-04T08:29:26Z</time>
      </trkpt>
      <trkpt lat="49.23655" lon="-0.23714">
        <ele>22.2</ele>
        <time>2024-02-04T08:29:27Z</time>
      </trkpt>
      <trkpt lat="49.23652" lon="-0.23725">
        <ele>22.2</ele>
        <time>2024-02-04T08:29:28Z</time>
      </trkpt>
      <trkpt lat="49.23649" lon="-0.23737">
        <ele>22.2</ele>
        <time>2024-02-04T08:29:29Z</time>
      </trkpt>
      <trkpt lat="49.23646" lon="-0.23749">
        <ele>22.2</ele>
        <time>2024-02-04T08:29:30Z</time>
      </trkpt>
      <trkpt lat="49.23644" lon="-0.23761">
        <ele>22.3</ele>
        <time>2024-02-04T08:29:31Z</time>
      </trkpt>
      <trkpt lat="49.23641" lon="-0.23772">
        <ele>22.3</ele>
        <time>2024-02-04T08:29:32Z</time>
      </trkpt>
      <trkpt lat="49.23639" lon="-0.23784">
        <ele>22.3</ele>
        <time>2024-02-04T08:29:33Z</time>
      </trkpt>
      <trkpt lat="49.23637" lon="-0.23795">
        <ele>22.3</ele>
        <time>2024-02-04T08:29:34Z</time>
      </trkpt>
      <trkpt lat="49.23635" lon="-0.23807">
        <ele>22.4</ele>
        <time>2024-02-04T08:29:35Z</time>
      </trkpt>
      <trkpt lat="49.23633" lon="-0.23818">
        <ele>22.4</ele>
        <time>2024-02-04T08:29:36Z</time>
      </trkpt>
      <trkpt lat="49.2363" lon="-0.23829">
        <ele>22.5</ele>
        <time>2024-02-04T08:29:37Z</time>
      </trkpt>
      <trkpt lat="49.23628" lon="-0.2384">
        <ele>22.5</ele>
        <time>2024-02-04T08:29:38Z</time>
      </trkpt>
      <trkpt lat="49.23625" lon="-0.2385">
        <ele>22.6</ele>
        <time>2024-02-04T08:29:39Z</time>
      </trkpt>
      <trkpt lat="49.23622" lon="-0.23861">
        <ele>22.6</ele>
        <time>2024-02-04T08:29:40Z</time>
      </trkpt>
      <trkpt lat="49.23618" lon="-0.23872">
        <ele>22.7</ele>
        <time>2024-02-04T08:29:41Z</time>
      </trkpt>
      <trkpt lat="49.23614" lon="-0.23882">
        <ele>22.8</ele>
        <time>2024-02-04T08:29:42Z</time>
      </trkpt>
      <trkpt lat="49.23611" lon="-0.23893">
        <ele>22.8</ele>
        <time>2024-02-04T08:29:43Z</time>
      </trkpt>
      <trkpt lat="49.23607" lon="-0.23903">
        <ele>22.9</ele>
        <time>2024-02-04T08:29:44Z</time>
      </trkpt>
      <trkpt lat="49.23604" lon="-0.23914">
        <ele>22.9</ele>
        <time>2024-02-04T08:29:45Z</time>
      </trkpt>
      <trkpt lat="49.23601" lon="-0.23924">
        <ele>23</ele>
        <time>2024-02-04T08:29:46Z</time>
      </trkpt>
      <trkpt lat="49.23597" lon="-0.23934">
        <ele>23</ele>
        <time>2024-02-04T08:29:47Z</time>
      </trkpt>
      <trkpt lat="49.23594" lon="-0.23944">
        <ele>23</ele>
        <time>2024-02-04T08:29:48Z</time>
      </trkpt>
      <trkpt lat="49.23591" lon="-0.23955">
        <ele>23</ele>
        <time>2024-02-04T08:29:49Z</time>
      </trkpt>
      <trkpt lat="49.23587" lon="-0.23965">
        <ele>23</ele>
        <time>2024-02-04T08:29:50Z</time>
      </trkpt>
      <trkpt lat="49.23584" lon="-0.23975">
        <ele>23</ele>
        <time>2024-02-04T08:29:51Z</time>
      </trkpt>
      <trkpt lat="49.23581" lon="-0.23984">
        <ele>22.9</ele>
        <time>2024-02-04T08:29:52Z</time>
      </trkpt>
      <trkpt lat="49.23578" lon="-0.23993">
        <ele>22.9</ele>
        <time>2024-02-04T08:29:53Z</time>
      </trkpt>
      <trkpt lat="49.23575" lon="-0.24003">
        <ele>22.8</ele>
        <time>2024-02-04T08:29:54Z</time>
      </trkpt>
      <trkpt lat="49.23573" lon="-0.24012">
        <ele>22.8</ele>
        <time>2024-02-04T08:29:55Z</time>
      </trkpt>
      <trkpt lat="49.2357" lon="-0.24021">
        <ele>22.7</ele>
        <time>2024-02-04T08:29:56Z</time>
      </trkpt>
      <trkpt lat="49.23567" lon="-0.24031">
        <ele>22.6</ele>
        <time>2024-02-04T08:29:57Z</time>
      </trkpt>
      <trkpt lat="49.23565" lon="-0.24042">
        <ele>22.4</ele>
        <time>2024-02-04T08:29:58Z</time>
      </trkpt>
      <trkpt lat="49.23562" lon="-0.24053">
        <ele>22.3</ele>
        <time>2024-02-04T08:29:59Z</time>
      </trkpt>
      <trkpt lat="49.23559" lon="-0.24064">
        <ele>22.1</ele>
        <time>2024-02-04T08:30:00Z</time>
      </trkpt>
      <trkpt lat="49.23556" lon="-0.24075">
        <ele>22</ele>
        <time>2024-02-04T08:30:01Z</time>
      </trkpt>
      <trkpt lat="49.23554" lon="-0.24087">
        <ele>21.8</ele>
        <time>2024-02-04T08:30:02Z</time>
      </trkpt>
      <trkpt lat="49.23551" lon="-0.24098">
        <ele>21.7</ele>
        <time>2024-02-04T08:30:03Z</time>
      </trkpt>
      <trkpt lat="49.23548" lon="-0.24109">
        <ele>21.5</ele>
        <time>2024-02-04T08:30:04Z</time>
      </trkpt>
      <trkpt lat="49.23545" lon="-0.2412">
        <ele>21.4</ele>
        <time>2024-02-04T08:30:05Z</time>
      </trkpt>
      <trkpt lat="49.23542" lon="-0.24132">
        <ele>21.2</ele>
        <time>2024-02-04T08:30:06Z</time>
      </trkpt>
      <trkpt lat="49.2354" lon="-0.24144">
        <ele>21.1</ele>
        <time>2024-02-04T08:30:07Z</time>
      </trkpt>
      <trkpt lat="49.23537" lon="-0.24155">
        <ele>20.9</ele>
        <time>2024-02-04T08:30:08Z</time>
      </trkpt>
      <trkpt lat="49.23535" lon="-0.24167">
        <ele>20.8</ele>
        <time>2024-02-04T08:30:09Z</time>
      </trkpt>
      <trkpt lat="49.23532" lon="-0.24179">
        <ele>20.7</ele>
        <time>2024-02-04T08:30:10Z</time>
      </trkpt>
      <trkpt lat="49.2353" lon="-0.24191">
        <ele>20.6</ele>
        <time>2024-02-04T08:30:11Z</time>
      </trkpt>
      <trkpt lat="49.23528" lon="-0.24203">
        <ele>20.5</ele>
        <time>2024-02-04T08:30:12Z</time>
      </trkpt>
      <trkpt lat="49.23525" lon="-0.24214">
        <ele>20.4</ele>
        <time>2024-02-04T08:30:13Z</time>
      </trkpt>
      <trkpt lat="49.23523" lon="-0.24225">
        <ele>20.3</ele>
        <time>2024-02-04T08:30:14Z</time>
      </trkpt>
      <trkpt lat="49.2352" lon="-0.24236">
        <ele>20.2</ele>
        <time>2024-02-04T08:30:15Z</time>
      </trkpt>
      <trkpt lat="49.23518" lon="-0.24248">
        <ele>20.1</ele>
        <time>2024-02-04T08:30:16Z</time>
      </trkpt>
      <trkpt lat="49.23516" lon="-0.24259">
        <ele>20.1</ele>
        <time>2024-02-04T08:30:17Z</time>
      </trkpt>
      <trkpt lat="49.23513" lon="-0.2427">
        <ele>20</ele>
        <time>2024-02-04T08:30:18Z</time>
      </trkpt>
      <trkpt lat="49.23511" lon="-0.24281">
        <ele>19.9</ele>
        <time>2024-02-04T08:30:19Z</time>
      </trkpt>
      <trkpt lat="49.23508" lon="-0.24292">
        <ele>19.8</ele>
        <time>2024-02-04T08:30:20Z</time>
      </trkpt>
      <trkpt lat="49.23506" lon="-0.24303">
        <ele>19.7</ele>
        <time>2024-02-04T08:30:21Z</time>
      </trkpt>
      <trkpt lat="49.23504" lon="-0.24315">
        <ele>19.6</ele>
        <time>2024-02-04T08:30:22Z</time>
      </trkpt>
      <trkpt lat="49.23501" lon="-0.24326">
        <ele>19.4</ele>
        <time>2024-02-04T08:30:23Z</time>
      </trkpt>
      <trkpt lat="49.23498" lon="-0.24338">
        <ele>19.3</ele>
        <time>2024-02-04T08:30:24Z</time>
      </trkpt>
      <trkpt lat="49.23496" lon="-0.24349">
        <ele>19.1</ele>
        <time>2024-02-04T08:30:25Z</time>
      </trkpt>
      <trkpt lat="49.23493" lon="-0.24361">
        <ele>18.9</ele>
        <time>2024-02-04T08:30:26Z</time>
      </trkpt>
      <trkpt lat="49.2349" lon="-0.24372">
        <ele>18.8</ele>
        <time>2024-02-04T08:30:27Z</time>
      </trkpt>
      <trkpt lat="49.23487" lon="-0.24384">
        <ele>18.6</ele>
        <time>2024-02-04T08:30:28Z</time>
      </trkpt>
      <trkpt lat="49.23484" lon="-0.24395">
        <ele>18.5</ele>
        <time>2024-02-04T08:30:29Z</time>
      </trkpt>
      <trkpt lat="49.23481" lon="-0.24407">
        <ele>18.3</ele>
        <time>2024-02-04T08:30:30Z</time>
      </trkpt>
      <trkpt lat="49.23477" lon="-0.24418">
        <ele>18.2</ele>
        <time>2024-02-04T08:30:31Z</time>
      </trkpt>
      <trkpt lat="49.23474" lon="-0.2443">
        <ele>18</ele>
        <time>2024-02-04T08:30:32Z</time>
      </trkpt>
      <trkpt lat="49.23471" lon="-0.24441">
        <ele>17.8</ele>
        <time>2024-02-04T08:30:33Z</time>
      </trkpt>
      <trkpt lat="49.23467" lon="-0.24452">
        <ele>17.7</ele>
        <time>2024-02-04T08:30:34Z</time>
      </trkpt>
      <trkpt lat="49.23463" lon="-0.24463">
        <ele>17.5</ele>
        <time>2024-02-04T08:30:35Z</time>
      </trkpt>
      <trkpt lat="49.23459" lon="-0.24475">
        <ele>17.4</ele>
        <time>2024-02-04T08:30:36Z</time>
      </trkpt>
      <trkpt lat="49.23455" lon="-0.24486">
        <ele>17.3</ele>
        <time>2024-02-04T08:30:37Z</time>
      </trkpt>
      <trkpt lat="49.23451" lon="-0.24497">
        <ele>17.2</ele>
        <time>2024-02-04T08:30:38Z</time>
      </trkpt>
      <trkpt lat="49.23447" lon="-0.24508">
        <ele>17</ele>
        <time>2024-02-04T08:30:39Z</time>
      </trkpt>
      <trkpt lat="49.23443" lon="-0.24518">
        <ele>17</ele>
        <time>2024-02-04T08:30:40Z</time>
      </trkpt>
      <trkpt lat="49.23438" lon="-0.24528">
        <ele>16.9</ele>
        <time>2024-02-04T08:30:41Z</time>
      </trkpt>
      <trkpt lat="49.23434" lon="-0.24538">
        <ele>16.8</ele>
        <time>2024-02-04T08:30:42Z</time>
      </trkpt>
      <trkpt lat="49.23429" lon="-0.24548">
        <ele>16.8</ele>
        <time>2024-02-04T08:30:43Z</time>
      </trkpt>
      <trkpt lat="49.23424" lon="-0.24558">
        <ele>16.8</ele>
        <time>2024-02-04T08:30:44Z</time>
      </trkpt>
      <trkpt lat="49.23419" lon="-0.24568">
        <ele>16.7</ele>
        <time>2024-02-04T08:30:45Z</time>
      </trkpt>
      <trkpt lat="49.23414" lon="-0.24577">
        <ele>16.7</ele>
        <time>2024-02-04T08:30:46Z</time>
      </trkpt>
      <trkpt lat="49.2341" lon="-0.24586">
        <ele>16.7</ele>
        <time>2024-02-04T08:30:47Z</time>
      </trkpt>
      <trkpt lat="49.23405" lon="-0.24595">
        <ele>16.7</ele>
        <time>2024-02-04T08:30:48Z</time>
      </trkpt>
      <trkpt lat="49.23399" lon="-0.24603">
        <ele>16.6</ele>
        <time>2024-02-04T08:30:49Z</time>
      </trkpt>
      <trkpt lat="49.23394" lon="-0.24612">
        <ele>16.6</ele>
        <time>2024-02-04T08:30:50Z</time>
      </trkpt>
      <trkpt lat="49.23389" lon="-0.24621">
        <ele>16.6</ele>
        <time>2024-02-04T08:30:51Z</time>
      </trkpt>
      <trkpt lat="49.23384" lon="-0.2463">
        <ele>16.6</ele>
        <time>2024-02-04T08:30:52Z</time>
      </trkpt>
      <trkpt lat="49.23379" lon="-0.2464">
        <ele>16.6</ele>
        <time>2024-02-04T08:30:53Z</time>
      </trkpt>
      <trkpt lat="49.23374" lon="-0.24649">
        <ele>16.7</ele>
        <time>2024-02-04T08:30:54Z</time>
      </trkpt>
      <trkpt lat="49.23369" lon="-0.24658">
        <ele>16.7</ele>
        <time>2024-02-04T08:30:55Z</time>
      </trkpt>
      <trkpt lat="49.23365" lon="-0.24667">
        <ele>16.7</ele>
        <time>2024-02-04T08:30:56Z</time>
      </trkpt>
      <trkpt lat="49.23361" lon="-0.24676">
        <ele>16.7</ele>
        <time>2024-02-04T08:30:57Z</time>
      </trkpt>
      <trkpt lat="49.23358" lon="-0.24686">
        <ele>16.7</ele>
        <time>2024-02-04T08:30:58Z</time>
      </trkpt>
      <trkpt lat="49.23355" lon="-0.24697">
        <ele>16.7</ele>
        <time>2024-02-04T08:30:59Z</time>
      </trkpt>
      <trkpt lat="49.23352" lon="-0.24707">
        <ele>16.7</ele>
        <time>2024-02-04T08:31:00Z</time>
      </trkpt>
      <trkpt lat="49.23349" lon="-0.24718">
        <ele>16.7</ele>
        <time>2024-02-04T08:31:01Z</time>
      </trkpt>
      <trkpt lat="49.23346" lon="-0.24729">
        <ele>16.7</ele>
        <time>2024-02-04T08:31:02Z</time>
      </trkpt>
      <trkpt lat="49.23344" lon="-0.2474">
        <ele>16.7</ele>
        <time>2024-02-04T08:31:03Z</time>
      </trkpt>
      <trkpt lat="49.23342" lon="-0.24752">
        <ele>16.7</ele>
        <time>2024-02-04T08:31:04Z</time>
      </trkpt>
      <trkpt lat="49.23339" lon="-0.24776">
        <ele>16.6</ele>
        <time>2024-02-04T08:31:06Z</time>
      </trkpt>
      <trkpt lat="49.23337" lon="-0.24788">
        <ele>16.6</ele>
        <time>2024-02-04T08:31:07Z</time>
      </trkpt>
      <trkpt lat="49.23335" lon="-0.248">
        <ele>16.5</ele>
        <time>2024-02-04T08:31:08Z</time>
      </trkpt>
      <trkpt lat="49.23333" lon="-0.24813">
        <ele>16.4</ele>
        <time>2024-02-04T08:31:09Z</time>
      </trkpt>
      <trkpt lat="49.23331" lon="-0.24825">
        <ele>16.3</ele>
        <time>2024-02-04T08:31:10Z</time>
      </trkpt>
      <trkpt lat="49.23328" lon="-0.24837">
        <ele>16.2</ele>
        <time>2024-02-04T08:31:11Z</time>
      </trkpt>
      <trkpt lat="49.23326" lon="-0.24848">
        <ele>16.1</ele>
        <time>2024-02-04T08:31:12Z</time>
      </trkpt>
      <trkpt lat="49.23324" lon="-0.2486">
        <ele>16</ele>
        <time>2024-02-04T08:31:13Z</time>
      </trkpt>
      <trkpt lat="49.23322" lon="-0.24871">
        <ele>15.9</ele>
        <time>2024-02-04T08:31:14Z</time>
      </trkpt>
      <trkpt lat="49.23319" lon="-0.24884">
        <ele>15.8</ele>
        <time>2024-02-04T08:31:15Z</time>
      </trkpt>
      <trkpt lat="49.23316" lon="-0.24896">
        <ele>15.7</ele>
        <time>2024-02-04T08:31:16Z</time>
      </trkpt>
      <trkpt lat="49.23313" lon="-0.24907">
        <ele>15.5</ele>
        <time>2024-02-04T08:31:17Z</time>
      </trkpt>
      <trkpt lat="49.2331" lon="-0.24919">
        <ele>15.4</ele>
        <time>2024-02-04T08:31:18Z</time>
      </trkpt>
      <trkpt lat="49.23306" lon="-0.2493">
        <ele>15.3</ele>
        <time>2024-02-04T08:31:19Z</time>
      </trkpt>
      <trkpt lat="49.23303" lon="-0.24941">
        <ele>15.1</ele>
        <time>2024-02-04T08:31:20Z</time>
      </trkpt>
      <trkpt lat="49.23299" lon="-0.24952">
        <ele>15</ele>
        <time>2024-02-04T08:31:21Z</time>
      </trkpt>
      <trkpt lat="49.23296" lon="-0.24963">
        <ele>14.9</ele>
        <time>2024-02-04T08:31:22Z</time>
      </trkpt>
      <trkpt lat="49.23294" lon="-0.24974">
        <ele>14.8</ele>
        <time>2024-02-04T08:31:23Z</time>
      </trkpt>
      <trkpt lat="49.23291" lon="-0.24986">
        <ele>14.7</ele>
        <time>2024-02-04T08:31:24Z</time>
      </trkpt>
      <trkpt lat="49.23288" lon="-0.24997">
        <ele>14.6</ele>
        <time>2024-02-04T08:31:25Z</time>
      </trkpt>
      <trkpt lat="49.23284" lon="-0.25007">
        <ele>14.6</ele>
        <time>2024-02-04T08:31:26Z</time>
      </trkpt>
      <trkpt lat="49.23281" lon="-0.25018">
        <ele>14.5</ele>
        <time>2024-02-04T08:31:27Z</time>
      </trkpt>
      <trkpt lat="49.23278" lon="-0.25028">
        <ele>14.4</ele>
        <time>2024-02-04T08:31:28Z</time>
      </trkpt>
      <trkpt lat="49.23274" lon="-0.25039">
        <ele>14.3</ele>
        <time>2024-02-04T08:31:29Z</time>
      </trkpt>
      <trkpt lat="49.23271" lon="-0.2505">
        <ele>14.2</ele>
        <time>2024-02-04T08:31:30Z</time>
      </trkpt>
      <trkpt lat="49.23267" lon="-0.2506">
        <ele>14.1</ele>
        <time>2024-02-04T08:31:31Z</time>
      </trkpt>
      <trkpt lat="49.23264" lon="-0.2507">
        <ele>14</ele>
        <time>2024-02-04T08:31:32Z</time>
      </trkpt>
      <trkpt lat="49.2326" lon="-0.25081">
        <ele>14</ele>
        <time>2024-02-04T08:31:33Z</time>
      </trkpt>
      <trkpt lat="49.23257" lon="-0.2509">
        <ele>13.9</ele>
        <time>2024-02-04T08:31:34Z</time>
      </trkpt>
      <trkpt lat="49.23253" lon="-0.251">
        <ele>13.8</ele>
        <time>2024-02-04T08:31:35Z</time>
      </trkpt>
      <trkpt lat="49.23249" lon="-0.2511">
        <ele>13.7</ele>
        <time>2024-02-04T08:31:36Z</time>
      </trkpt>
      <trkpt lat="49.23246" lon="-0.25119">
        <ele>13.6</ele>
        <time>2024-02-04T08:31:37Z</time>
      </trkpt>
      <trkpt lat="49.23242" lon="-0.25129">
        <ele>13.5</ele>
        <time>2024-02-04T08:31:38Z</time>
      </trkpt>
      <trkpt lat="49.23239" lon="-0.25138">
        <ele>13.4</ele>
        <time>2024-02-04T08:31:39Z</time>
      </trkpt>
      <trkpt lat="49.23235" lon="-0.25148">
        <ele>13.4</ele>
        <time>2024-02-04T08:31:40Z</time>
      </trkpt>
      <trkpt lat="49.23232" lon="-0.25159">
        <ele>13.3</ele>
        <time>2024-02-04T08:31:41Z</time>
      </trkpt>
      <trkpt lat="49.23228" lon="-0.25168">
        <ele>13.2</ele>
        <time>2024-02-04T08:31:42Z</time>
      </trkpt>
      <trkpt lat="49.23224" lon="-0.25178">
        <ele>13.1</ele>
        <time>2024-02-04T08:31:43Z</time>
      </trkpt>
      <trkpt lat="49.2322" lon="-0.25188">
        <ele>13</ele>
        <time>2024-02-04T08:31:44Z</time>
      </trkpt>
      <trkpt lat="49.23216" lon="-0.25198">
        <ele>13</ele>
        <time>2024-02-04T08:31:45Z</time>
      </trkpt>
      <trkpt lat="49.23212" lon="-0.25209">
        <ele>12.9</ele>
        <time>2024-02-04T08:31:46Z</time>
      </trkpt>
      <trkpt lat="49.23207" lon="-0.25219">
        <ele>12.8</ele>
        <time>2024-02-04T08:31:47Z</time>
      </trkpt>
      <trkpt lat="49.23202" lon="-0.2523">
        <ele>12.7</ele>
        <time>2024-02-04T08:31:48Z</time>
      </trkpt>
      <trkpt lat="49.23198" lon="-0.25241">
        <ele>12.6</ele>
        <time>2024-02-04T08:31:49Z</time>
      </trkpt>
      <trkpt lat="49.23193" lon="-0.25252">
        <ele>12.5</ele>
        <time>2024-02-04T08:31:50Z</time>
      </trkpt>
      <trkpt lat="49.23188" lon="-0.25263">
        <ele>12.4</ele>
        <time>2024-02-04T08:31:51Z</time>
      </trkpt>
      <trkpt lat="49.23184" lon="-0.25273">
        <ele>12.3</ele>
        <time>2024-02-04T08:31:52Z</time>
      </trkpt>
      <trkpt lat="49.2318" lon="-0.25282">
        <ele>12.3</ele>
        <time>2024-02-04T08:31:53Z</time>
      </trkpt>
      <trkpt lat="49.23175" lon="-0.25292">
        <ele>12.2</ele>
        <time>2024-02-04T08:31:54Z</time>
      </trkpt>
      <trkpt lat="49.23171" lon="-0.25302">
        <ele>12.1</ele>
        <time>2024-02-04T08:31:55Z</time>
      </trkpt>
      <trkpt lat="49.23167" lon="-0.25312">
        <ele>12.1</ele>
        <time>2024-02-04T08:31:56Z</time>
      </trkpt>
      <trkpt lat="49.23163" lon="-0.25321">
        <ele>12</ele>
        <time>2024-02-04T08:31:57Z</time>
      </trkpt>
      <trkpt lat="49.23158" lon="-0.25331">
        <ele>11.9</ele>
        <time>2024-02-04T08:31:58Z</time>
      </trkpt>
      <trkpt lat="49.23154" lon="-0.25341">
        <ele>11.9</ele>
        <time>2024-02-04T08:31:59Z</time>
      </trkpt>
      <trkpt lat="49.23149" lon="-0.2535">
        <ele>11.8</ele>
        <time>2024-02-04T08:32:00Z</time>
      </trkpt>
      <trkpt lat="49.23146" lon="-0.25359">
        <ele>11.8</ele>
        <time>2024-02-04T08:32:01Z</time>
      </trkpt>
      <trkpt lat="49.23142" lon="-0.25368">
        <ele>11.7</ele>
        <time>2024-02-04T08:32:02Z</time>
      </trkpt>
      <trkpt lat="49.23139" lon="-0.25377">
        <ele>11.8</ele>
        <time>2024-02-04T08:32:03Z</time>
      </trkpt>
      <trkpt lat="49.23139" lon="-0.25387">
        <ele>11.8</ele>
        <time>2024-02-04T08:32:04Z</time>
      </trkpt>
      <trkpt lat="49.23138" lon="-0.25397">
        <ele>11.7</ele>
        <time>2024-02-04T08:32:05Z</time>
      </trkpt>
      <trkpt lat="49.23138" lon="-0.25405">
        <ele>11.7</ele>
        <time>2024-02-04T08:32:06Z</time>
      </trkpt>
      <trkpt lat="49.2314" lon="-0.25413">
        <ele>11.7</ele>
        <time>2024-02-04T08:32:07Z</time>
      </trkpt>
      <trkpt lat="49.23142" lon="-0.2542">
        <ele>11.7</ele>
        <time>2024-02-04T08:32:08Z</time>
      </trkpt>
      <trkpt lat="49.23145" lon="-0.25426">
        <ele>11.8</ele>
        <time>2024-02-04T08:32:09Z</time>
      </trkpt>
      <trkpt lat="49.23147" lon="-0.25432">
        <ele>11.8</ele>
        <time>2024-02-04T08:32:10Z</time>
      </trkpt>
      <trkpt lat="49.23149" lon="-0.25437">
        <ele>11.8</ele>
        <time>2024-02-04T08:32:11Z</time>
      </trkpt>
      <trkpt lat="49.23149" lon="-0.25442">
        <ele>11.8</ele>
        <time>2024-02-04T08:32:12Z</time>
      </trkpt>
      <trkpt lat="49.23149" lon="-0.25446">
        <ele>11.8</ele>
        <time>2024-02-04T08:32:13Z</time>
      </trkpt>
      <trkpt lat="49.23149" lon="-0.25451">
        <ele>11.8</ele>
        <time>2024-02-04T08:32:14Z</time>
      </trkpt>
      <trkpt lat="49.2315" lon="-0.25456">
        <ele>11.9</ele>
        <time>2024-02-04T08:32:15Z</time>
      </trkpt>
      <trkpt lat="49.23151" lon="-0.25461">
        <ele>11.9</ele>
        <time>2024-02-04T08:32:16Z</time>
      </trkpt>
      <trkpt lat="49.23154" lon="-0.25467">
        <ele>12</ele>
        <time>2024-02-04T08:32:17Z</time>
      </trkpt>
      <trkpt lat="49.23157" lon="-0.25472">
        <ele>12</ele>
        <time>2024-02-04T08:32:18Z</time>
      </trkpt>
      <trkpt lat="49.23161" lon="-0.25477">
        <ele>12.1</ele>
        <time>2024-02-04T08:32:19Z</time>
      </trkpt>
      <trkpt lat="49.23165" lon="-0.25481">
        <ele>12.2</ele>
        <time>2024-02-04T08:32:20Z</time>
      </trkpt>
      <trkpt lat="49.2317" lon="-0.25485">
        <ele>12.2</ele>
        <time>2024-02-04T08:32:21Z</time>
      </trkpt>
      <trkpt lat="49.23175" lon="-0.25491">
        <ele>12.3</ele>
        <time>2024-02-04T08:32:22Z</time>
      </trkpt>
      <trkpt lat="49.2318" lon="-0.25496">
        <ele>12.4</ele>
        <time>2024-02-04T08:32:23Z</time>
      </trkpt>
      <trkpt lat="49.23186" lon="-0.25501">
        <ele>12.4</ele>
        <time>2024-02-04T08:32:24Z</time>
      </trkpt>
      <trkpt lat="49.23191" lon="-0.25507">
        <ele>12.5</ele>
        <time>2024-02-04T08:32:25Z</time>
      </trkpt>
      <trkpt lat="49.23197" lon="-0.25512">
        <ele>12.6</ele>
        <time>2024-02-04T08:32:26Z</time>
      </trkpt>
      <trkpt lat="49.23202" lon="-0.25517">
        <ele>12.8</ele>
        <time>2024-02-04T08:32:27Z</time>
      </trkpt>
      <trkpt lat="49.23208" lon="-0.25523">
        <ele>12.9</ele>
        <time>2024-02-04T08:32:28Z</time>
      </trkpt>
      <trkpt lat="49.23214" lon="-0.25529">
        <ele>13</ele>
        <time>2024-02-04T08:32:29Z</time>
      </trkpt>
      <trkpt lat="49.2322" lon="-0.25535">
        <ele>13.1</ele>
        <time>2024-02-04T08:32:30Z</time>
      </trkpt>
      <trkpt lat="49.23225" lon="-0.25541">
        <ele>13.2</ele>
        <time>2024-02-04T08:32:31Z</time>
      </trkpt>
      <trkpt lat="49.23231" lon="-0.25546">
        <ele>13.3</ele>
        <time>2024-02-04T08:32:32Z</time>
      </trkpt>
      <trkpt lat="49.23237" lon="-0.25552">
        <ele>13.4</ele>
        <time>2024-02-04T08:32:33Z</time>
      </trkpt>
      <trkpt lat="49.23242" lon="-0.25558">
        <ele>13.5</ele>
        <time>2024-02-04T08:32:34Z</time>
      </trkpt>
      <trkpt lat="49.23248" lon="-0.25565">
        <ele>13.6</ele>
        <time>2024-02-04T08:32:35Z</time>
      </trkpt>
      <trkpt lat="49.23254" lon="-0.25571">
        <ele>13.8</ele>
        <time>2024-02-04T08:32:36Z</time>
      </trkpt>
      <trkpt lat="49.23259" lon="-0.25577">
        <ele>13.9</ele>
        <time>2024-02-04T08:32:37Z</time>
      </trkpt>
      <trkpt lat="49.23265" lon="-0.25584">
        <ele>14</ele>
        <time>2024-02-04T08:32:38Z</time>
      </trkpt>
      <trkpt lat="49.23271" lon="-0.25589">
        <ele>14.1</ele>
        <time>2024-02-04T08:32:39Z</time>
      </trkpt>
      <trkpt lat="49.23277" lon="-0.25596">
        <ele>14.2</ele>
        <time>2024-02-04T08:32:40Z</time>
      </trkpt>
      <trkpt lat="49.23283" lon="-0.25603">
        <ele>14.3</ele>
        <time>2024-02-04T08:32:41Z</time>
      </trkpt>
      <trkpt lat="49.23289" lon="-0.25609">
        <ele>14.3</ele>
        <time>2024-02-04T08:32:42Z</time>
      </trkpt>
      <trkpt lat="49.23294" lon="-0.25616">
        <ele>14.4</ele>
        <time>2024-02-04T08:32:43Z</time>
      </trkpt>
      <trkpt lat="49.233" lon="-0.25622">
        <ele>14.5</ele>
        <time>2024-02-04T08:32:44Z</time>
      </trkpt>
      <trkpt lat="49.23306" lon="-0.25628">
        <ele>14.6</ele>
        <time>2024-02-04T08:32:45Z</time>
      </trkpt>
      <trkpt lat="49.23312" lon="-0.25634">
        <ele>14.6</ele>
        <time>2024-02-04T08:32:46Z</time>
      </trkpt>
      <trkpt lat="49.23318" lon="-0.2564">
        <ele>14.7</ele>
        <time>2024-02-04T08:32:47Z</time>
      </trkpt>
      <trkpt lat="49.23323" lon="-0.25646">
        <ele>14.8</ele>
        <time>2024-02-04T08:32:48Z</time>
      </trkpt>
      <trkpt lat="49.23329" lon="-0.25651">
        <ele>14.8</ele>
        <time>2024-02-04T08:32:49Z</time>
      </trkpt>
      <trkpt lat="49.23334" lon="-0.25657">
        <ele>14.8</ele>
        <time>2024-02-04T08:32:50Z</time>
      </trkpt>
      <trkpt lat="49.2334" lon="-0.25663">
        <ele>14.8</ele>
        <time>2024-02-04T08:32:51Z</time>
      </trkpt>
      <trkpt lat="49.23346" lon="-0.25669">
        <ele>14.9</ele>
        <time>2024-02-04T08:32:52Z</time>
      </trkpt>
      <trkpt lat="49.23351" lon="-0.25674">
        <ele>14.9</ele>
        <time>2024-02-04T08:32:53Z</time>
      </trkpt>
      <trkpt lat="49.23356" lon="-0.2568">
        <ele>14.9</ele>
        <time>2024-02-04T08:32:54Z</time>
      </trkpt>
      <trkpt lat="49.23362" lon="-0.25686">
        <ele>14.8</ele>
        <time>2024-02-04T08:32:55Z</time>
      </trkpt>
      <trkpt lat="49.23368" lon="-0.25693">
        <ele>14.7</ele>
        <time>2024-02-04T08:32:56Z</time>
      </trkpt>
      <trkpt lat="49.23374" lon="-0.25699">
        <ele>14.7</ele>
        <time>2024-02-04T08:32:57Z</time>
      </trkpt>
      <trkpt lat="49.2338" lon="-0.25705">
        <ele>14.6</ele>
        <time>2024-02-04T08:32:58Z</time>
      </trkpt>
      <trkpt lat="49.23386" lon="-0.25712">
        <ele>14.6</ele>
        <time>2024-02-04T08:32:59Z</time>
      </trkpt>
      <trkpt lat="49.23392" lon="-0.25718">
        <ele>14.6</ele>
        <time>2024-02-04T08:33:00Z</time>
      </trkpt>
      <trkpt lat="49.23398" lon="-0.25724">
        <ele>14.5</ele>
        <time>2024-02-04T08:33:01Z</time>
      </trkpt>
      <trkpt lat="49.23404" lon="-0.2573">
        <ele>14.5</ele>
        <time>2024-02-04T08:33:02Z</time>
      </trkpt>
      <trkpt lat="49.2341" lon="-0.25735">
        <ele>14.4</ele>
        <time>2024-02-04T08:33:03Z</time>
      </trkpt>
      <trkpt lat="49.23415" lon="-0.25741">
        <ele>14.3</ele>
        <time>2024-02-04T08:33:04Z</time>
      </trkpt>
      <trkpt lat="49.2342" lon="-0.25747">
        <ele>14.2</ele>
        <time>2024-02-04T08:33:05Z</time>
      </trkpt>
      <trkpt lat="49.23426" lon="-0.25753">
        <ele>14.1</ele>
        <time>2024-02-04T08:33:06Z</time>
      </trkpt>
      <trkpt lat="49.23432" lon="-0.25758">
        <ele>14</ele>
        <time>2024-02-04T08:33:07Z</time>
      </trkpt>
      <trkpt lat="49.23437" lon="-0.25764">
        <ele>13.8</ele>
        <time>2024-02-04T08:33:08Z</time>
      </trkpt>
      <trkpt lat="49.23443" lon="-0.2577">
        <ele>13.6</ele>
        <time>2024-02-04T08:33:09Z</time>
      </trkpt>
      <trkpt lat="49.23449" lon="-0.25776">
        <ele>13.4</ele>
        <time>2024-02-04T08:33:10Z</time>
      </trkpt>
      <trkpt lat="49.23455" lon="-0.25782">
        <ele>13.2</ele>
        <time>2024-02-04T08:33:11Z</time>
      </trkpt>
      <trkpt lat="49.23461" lon="-0.25788">
        <ele>13.1</ele>
        <time>2024-02-04T08:33:12Z</time>
      </trkpt>
      <trkpt lat="49.23467" lon="-0.25794">
        <ele>12.9</ele>
        <time>2024-02-04T08:33:13Z</time>
      </trkpt>
      <trkpt lat="49.23473" lon="-0.25801">
        <ele>12.7</ele>
        <time>2024-02-04T08:33:14Z</time>
      </trkpt>
      <trkpt lat="49.23478" lon="-0.25807">
        <ele>12.5</ele>
        <time>2024-02-04T08:33:15Z</time>
      </trkpt>
      <trkpt lat="49.23485" lon="-0.25813">
        <ele>12.4</ele>
        <time>2024-02-04T08:33:16Z</time>
      </trkpt>
      <trkpt lat="49.23491" lon="-0.2582">
        <ele>12.3</ele>
        <time>2024-02-04T08:33:17Z</time>
      </trkpt>
      <trkpt lat="49.23497" lon="-0.25826">
        <ele>12.3</ele>
        <time>2024-02-04T08:33:18Z</time>
      </trkpt>
      <trkpt lat="49.23502" lon="-0.25831">
        <ele>12.3</ele>
        <time>2024-02-04T08:33:19Z</time>
      </trkpt>
      <trkpt lat="49.23507" lon="-0.25835">
        <ele>12.3</ele>
        <time>2024-02-04T08:33:20Z</time>
      </trkpt>
      <trkpt lat="49.23512" lon="-0.25839">
        <ele>12.3</ele>
        <time>2024-02-04T08:33:21Z</time>
      </trkpt>
      <trkpt lat="49.23517" lon="-0.25842">
        <ele>12.3</ele>
        <time>2024-02-04T08:33:22Z</time>
      </trkpt>
      <trkpt lat="49.23521" lon="-0.25844">
        <ele>12.3</ele>
        <time>2024-02-04T08:33:23Z</time>
      </trkpt>
      <trkpt lat="49.23524" lon="-0.25846">
        <ele>12.3</ele>
        <time>2024-02-04T08:33:24Z</time>
      </trkpt>
      <trkpt lat="49.23526" lon="-0.2585">
        <ele>12.3</ele>
        <time>2024-02-04T08:33:25Z</time>
      </trkpt>
      <trkpt lat="49.23524" lon="-0.25856">
        <ele>12.3</ele>
        <time>2024-02-04T08:33:26Z</time>
      </trkpt>
      <trkpt lat="49.2352" lon="-0.25861">
        <ele>12.3</ele>
        <time>2024-02-04T08:33:27Z</time>
      </trkpt>
      <trkpt lat="49.23516" lon="-0.25866">
        <ele>12.3</ele>
        <time>2024-02-04T08:33:28Z</time>
      </trkpt>
      <trkpt lat="49.23512" lon="-0.25871">
        <ele>12.2</ele>
        <time>2024-02-04T08:33:29Z</time>
      </trkpt>
      <trkpt lat="49.23508" lon="-0.25876">
        <ele>12.2</ele>
        <time>2024-02-04T08:33:30Z</time>
      </trkpt>
      <trkpt lat="49.23504" lon="-0.2588">
        <ele>12.2</ele>
        <time>2024-02-04T08:33:31Z</time>
      </trkpt>
      <trkpt lat="49.23501" lon="-0.25885">
        <ele>12.2</ele>
        <time>2024-02-04T08:33:32Z</time>
      </trkpt>
      <trkpt lat="49.23499" lon="-0.25887">
        <ele>12.2</ele>
        <time>2024-02-04T08:33:33Z</time>
      </trkpt>
      <trkpt lat="49.23496" lon="-0.25891">
        <ele>12.2</ele>
        <time>2024-02-04T08:33:34Z</time>
      </trkpt>
      <trkpt lat="49.23496" lon="-0.25891">
        <ele>12.2</ele>
        <time>2024-02-04T08:33:35Z</time>
      </trkpt>
      <trkpt lat="49.23493" lon="-0.25894">
        <ele>12.2</ele>
        <time>2024-02-04T08:33:36Z</time>
      </trkpt>
      <trkpt lat="49.23493" lon="-0.25895">
        <ele>12.2</ele>
        <time>2024-02-04T08:33:37Z</time>
      </trkpt>
      <trkpt lat="49.23491" lon="-0.25897">
        <ele>12.2</ele>
        <time>2024-02-04T08:33:38Z</time>
      </trkpt>
      <trkpt lat="49.2349" lon="-0.25899">
        <ele>12.2</ele>
        <time>2024-02-04T08:33:39Z</time>
      </trkpt>
      <trkpt lat="49.23489" lon="-0.25901">
        <ele>12.2</ele>
        <time>2024-02-04T08:33:40Z</time>
      </trkpt>
      <trkpt lat="49.23489" lon="-0.25901">
        <ele>12.2</ele>
        <time>2024-02-04T08:33:41Z</time>
      </trkpt>
      <trkpt lat="49.23488" lon="-0.25901">
        <ele>12.2</ele>
        <time>2024-02-04T08:33:42Z</time>
      </trkpt>
      <trkpt lat="49.23488" lon="-0.25902">
        <ele>12.2</ele>
        <time>2024-02-04T08:33:43Z</time>
      </trkpt>
      <trkpt lat="49.23488" lon="-0.25902">
        <ele>12.2</ele>
        <time>2024-02-04T08:33:44Z</time>
      </trkpt>
      <trkpt lat="49.23487" lon="-0.25903">
        <ele>12.2</ele>
        <time>2024-02-04T08:33:45Z</time>
      </trkpt>
      <trkpt lat="49.23487" lon="-0.25903">
        <ele>12.2</ele>
        <time>2024-02-04T08:33:46Z</time>
      </trkpt>
      <trkpt lat="49.23487" lon="-0.25903">
        <ele>12.2</ele>
        <time>2024-02-04T08:33:47Z</time>
      </trkpt>
      <trkpt lat="49.23487" lon="-0.25904">
        <ele>12.2</ele>
        <time>2024-02-04T08:33:48Z</time>
      </trkpt>
      <trkpt lat="49.23486" lon="-0.25904">
        <ele>12.2</ele>
        <time>2024-02-04T08:33:49Z</time>
      </trkpt>
      <trkpt lat="49.23486" lon="-0.25904">
        <ele>12.2</ele>
        <time>2024-02-04T08:33:50Z</time>
      </trkpt>
      <trkpt lat="49.23486" lon="-0.25905">
        <ele>12.2</ele>
        <time>2024-02-04T08:33:51Z</time>
      </trkpt>
      <trkpt lat="49.23485" lon="-0.25905">
        <ele>12.2</ele>
        <time>2024-02-04T08:33:52Z</time>
      </trkpt>
      <trkpt lat="49.23485" lon="-0.25906">
        <ele>12.2</ele>
        <time>2024-02-04T08:33:54Z</time>
      </trkpt>
      <trkpt lat="49.23485" lon="-0.25906">
        <ele>12.2</ele>
        <time>2024-02-04T08:33:55Z</time>
      </trkpt>
      <trkpt lat="49.23485" lon="-0.25906">
        <ele>12.2</ele>
        <time>2024-02-04T08:33:56Z</time>
      </trkpt>
      <trkpt lat="49.23482" lon="-0.25909">
        <ele>12.2</ele>
        <time>2024-02-04T08:33:57Z</time>
      </trkpt>
      <trkpt lat="49.23481" lon="-0.25909">
        <ele>12.2</ele>
        <time>2024-02-04T08:33:58Z</time>
      </trkpt>
      <trkpt lat="49.23479" lon="-0.25912">
        <ele>12.2</ele>
        <time>2024-02-04T08:33:59Z</time>
      </trkpt>
      <trkpt lat="49.23473" lon="-0.2592">
        <ele>12.3</ele>
        <time>2024-02-04T08:34:01Z</time>
      </trkpt>
      <trkpt lat="49.2347" lon="-0.25923">
        <ele>12.3</ele>
        <time>2024-02-04T08:34:02Z</time>
      </trkpt>
      <trkpt lat="49.23465" lon="-0.25928">
        <ele>12.4</ele>
        <time>2024-02-04T08:34:03Z</time>
      </trkpt>
      <trkpt lat="49.2346" lon="-0.25932">
        <ele>12.4</ele>
        <time>2024-02-04T08:34:04Z</time>
      </trkpt>
      <trkpt lat="49.23456" lon="-0.25937">
        <ele>12.5</ele>
        <time>2024-02-04T08:34:05Z</time>
      </trkpt>
      <trkpt lat="49.23452" lon="-0.25941">
        <ele>12.5</ele>
        <time>2024-02-04T08:34:06Z</time>
      </trkpt>
      <trkpt lat="49.23447" lon="-0.25947">
        <ele>12.6</ele>
        <time>2024-02-04T08:34:07Z</time>
      </trkpt>
      <trkpt lat="49.23438" lon="-0.25956">
        <ele>12.7</ele>
        <time>2024-02-04T08:34:09Z</time>
      </trkpt>
      <trkpt lat="49.23434" lon="-0.25961">
        <ele>12.7</ele>
        <time>2024-02-04T08:34:10Z</time>
      </trkpt>
      <trkpt lat="49.23429" lon="-0.25966">
        <ele>12.8</ele>
        <time>2024-02-04T08:34:11Z</time>
      </trkpt>
      <trkpt lat="49.23425" lon="-0.2597">
        <ele>12.8</ele>
        <time>2024-02-04T08:34:12Z</time>
      </trkpt>
      <trkpt lat="49.2342" lon="-0.25975">
        <ele>12.9</ele>
        <time>2024-02-04T08:34:13Z</time>
      </trkpt>
      <trkpt lat="49.23415" lon="-0.25981">
        <ele>12.9</ele>
        <time>2024-02-04T08:34:14Z</time>
      </trkpt>
      <trkpt lat="49.23411" lon="-0.25986">
        <ele>13</ele>
        <time>2024-02-04T08:34:15Z</time>
      </trkpt>
      <trkpt lat="49.23407" lon="-0.25992">
        <ele>13</ele>
        <time>2024-02-04T08:34:16Z</time>
      </trkpt>
      <trkpt lat="49.23403" lon="-0.25998">
        <ele>13.1</ele>
        <time>2024-02-04T08:34:17Z</time>
      </trkpt>
      <trkpt lat="49.23395" lon="-0.26008">
        <ele>13.1</ele>
        <time>2024-02-04T08:34:19Z</time>
      </trkpt>
      <trkpt lat="49.23391" lon="-0.26014">
        <ele>13.1</ele>
        <time>2024-02-04T08:34:20Z</time>
      </trkpt>
      <trkpt lat="49.23387" lon="-0.2602">
        <ele>13.2</ele>
        <time>2024-02-04T08:34:21Z</time>
      </trkpt>
      <trkpt lat="49.23382" lon="-0.26026">
        <ele>13.2</ele>
        <time>2024-02-04T08:34:22Z</time>
      </trkpt>
      <trkpt lat="49.23377" lon="-0.26032">
        <ele>13.2</ele>
        <time>2024-02-04T08:34:23Z</time>
      </trkpt>
      <trkpt lat="49.23373" lon="-0.26037">
        <ele>13.2</ele>
        <time>2024-02-04T08:34:24Z</time>
      </trkpt>
      <trkpt lat="49.23368" lon="-0.26043">
        <ele>13.2</ele>
        <time>2024-02-04T08:34:25Z</time>
      </trkpt>
      <trkpt lat="49.23364" lon="-0.26048">
        <ele>13.2</ele>
        <time>2024-02-04T08:34:26Z</time>
      </trkpt>
      <trkpt lat="49.2336" lon="-0.26054">
        <ele>13.2</ele>
        <time>2024-02-04T08:34:27Z</time>
      </trkpt>
      <trkpt lat="49.23356" lon="-0.2606">
        <ele>13.1</ele>
        <time>2024-02-04T08:34:28Z</time>
      </trkpt>
      <trkpt lat="49.23351" lon="-0.26065">
        <ele>13.1</ele>
        <time>2024-02-04T08:34:29Z</time>
      </trkpt>
      <trkpt lat="49.23346" lon="-0.26071">
        <ele>13</ele>
        <time>2024-02-04T08:34:30Z</time>
      </trkpt>
      <trkpt lat="49.23341" lon="-0.26076">
        <ele>12.8</ele>
        <time>2024-02-04T08:34:31Z</time>
      </trkpt>
      <trkpt lat="49.23336" lon="-0.26082">
        <ele>12.7</ele>
        <time>2024-02-04T08:34:32Z</time>
      </trkpt>
      <trkpt lat="49.2333" lon="-0.26087">
        <ele>12.6</ele>
        <time>2024-02-04T08:34:33Z</time>
      </trkpt>
      <trkpt lat="49.23325" lon="-0.26093">
        <ele>12.5</ele>
        <time>2024-02-04T08:34:34Z</time>
      </trkpt>
      <trkpt lat="49.2332" lon="-0.26098">
        <ele>12.4</ele>
        <time>2024-02-04T08:34:35Z</time>
      </trkpt>
      <trkpt lat="49.23316" lon="-0.26105">
        <ele>12.3</ele>
        <time>2024-02-04T08:34:36Z</time>
      </trkpt>
      <trkpt lat="49.23311" lon="-0.2611">
        <ele>12.2</ele>
        <time>2024-02-04T08:34:37Z</time>
      </trkpt>
      <trkpt lat="49.23305" lon="-0.26116">
        <ele>12.1</ele>
        <time>2024-02-04T08:34:38Z</time>
      </trkpt>
      <trkpt lat="49.23301" lon="-0.26122">
        <ele>12.1</ele>
        <time>2024-02-04T08:34:39Z</time>
      </trkpt>
      <trkpt lat="49.23296" lon="-0.26128">
        <ele>12</ele>
        <time>2024-02-04T08:34:40Z</time>
      </trkpt>
      <trkpt lat="49.23291" lon="-0.26134">
        <ele>11.9</ele>
        <time>2024-02-04T08:34:41Z</time>
      </trkpt>
      <trkpt lat="49.23286" lon="-0.2614">
        <ele>11.8</ele>
        <time>2024-02-04T08:34:42Z</time>
      </trkpt>
      <trkpt lat="49.23281" lon="-0.26146">
        <ele>11.7</ele>
        <time>2024-02-04T08:34:43Z</time>
      </trkpt>
      <trkpt lat="49.23276" lon="-0.26152">
        <ele>11.6</ele>
        <time>2024-02-04T08:34:44Z</time>
      </trkpt>
      <trkpt lat="49.23271" lon="-0.26158">
        <ele>11.5</ele>
        <time>2024-02-04T08:34:45Z</time>
      </trkpt>
      <trkpt lat="49.23266" lon="-0.26164">
        <ele>11.4</ele>
        <time>2024-02-04T08:34:46Z</time>
      </trkpt>
      <trkpt lat="49.2326" lon="-0.26171">
        <ele>11.2</ele>
        <time>2024-02-04T08:34:47Z</time>
      </trkpt>
      <trkpt lat="49.23255" lon="-0.26177">
        <ele>11.1</ele>
        <time>2024-02-04T08:34:48Z</time>
      </trkpt>
      <trkpt lat="49.23249" lon="-0.26183">
        <ele>10.9</ele>
        <time>2024-02-04T08:34:49Z</time>
      </trkpt>
      <trkpt lat="49.23244" lon="-0.26189">
        <ele>10.7</ele>
        <time>2024-02-04T08:34:50Z</time>
      </trkpt>
      <trkpt lat="49.23238" lon="-0.26194">
        <ele>10.5</ele>
        <time>2024-02-04T08:34:51Z</time>
      </trkpt>
      <trkpt lat="49.23233" lon="-0.262">
        <ele>10.3</ele>
        <time>2024-02-04T08:34:52Z</time>
      </trkpt>
      <trkpt lat="49.23227" lon="-0.26206">
        <ele>10</ele>
        <time>2024-02-04T08:34:53Z</time>
      </trkpt>
      <trkpt lat="49.23221" lon="-0.26213">
        <ele>9.6</ele>
        <time>2024-02-04T08:34:54Z</time>
      </trkpt>
      <trkpt lat="49.23216" lon="-0.2622">
        <ele>9.2</ele>
        <time>2024-02-04T08:34:55Z</time>
      </trkpt>
      <trkpt lat="49.2321" lon="-0.26227">
        <ele>8.7</ele>
        <time>2024-02-04T08:34:56Z</time>
      </trkpt>
      <trkpt lat="49.23204" lon="-0.26235">
        <ele>8.2</ele>
        <time>2024-02-04T08:34:57Z</time>
      </trkpt>
      <trkpt lat="49.23198" lon="-0.26245">
        <ele>7.7</ele>
        <time>2024-02-04T08:34:58Z</time>
      </trkpt>
      <trkpt lat="49.23193" lon="-0.26254">
        <ele>7.3</ele>
        <time>2024-02-04T08:34:59Z</time>
      </trkpt>
      <trkpt lat="49.23188" lon="-0.26264">
        <ele>6.9</ele>
        <time>2024-02-04T08:35:00Z</time>
      </trkpt>
      <trkpt lat="49.23183" lon="-0.26273">
        <ele>6.6</ele>
        <time>2024-02-04T08:35:01Z</time>
      </trkpt>
      <trkpt lat="49.2318" lon="-0.26283">
        <ele>6.3</ele>
        <time>2024-02-04T08:35:02Z</time>
      </trkpt>
      <trkpt lat="49.23178" lon="-0.26295">
        <ele>6</ele>
        <time>2024-02-04T08:35:03Z</time>
      </trkpt>
      <trkpt lat="49.23177" lon="-0.26306">
        <ele>5.9</ele>
        <time>2024-02-04T08:35:04Z</time>
      </trkpt>
      <trkpt lat="49.23178" lon="-0.26317">
        <ele>5.8</ele>
        <time>2024-02-04T08:35:05Z</time>
      </trkpt>
      <trkpt lat="49.23178" lon="-0.26325">
        <ele>5.7</ele>
        <time>2024-02-04T08:35:06Z</time>
      </trkpt>
      <trkpt lat="49.23177" lon="-0.26332">
        <ele>5.7</ele>
        <time>2024-02-04T08:35:07Z</time>
      </trkpt>
      <trkpt lat="49.23176" lon="-0.26337">
        <ele>5.6</ele>
        <time>2024-02-04T08:35:08Z</time>
      </trkpt>
      <trkpt lat="49.23174" lon="-0.26342">
        <ele>5.6</ele>
        <time>2024-02-04T08:35:09Z</time>
      </trkpt>
      <trkpt lat="49.23172" lon="-0.26348">
        <ele>5.6</ele>
        <time>2024-02-04T08:35:10Z</time>
      </trkpt>
      <trkpt lat="49.23168" lon="-0.26353">
        <ele>5.6</ele>
        <time>2024-02-04T08:35:11Z</time>
      </trkpt>
      <trkpt lat="49.23164" lon="-0.26356">
        <ele>5.6</ele>
        <time>2024-02-04T08:35:12Z</time>
      </trkpt>
      <trkpt lat="49.23161" lon="-0.2636">
        <ele>5.6</ele>
        <time>2024-02-04T08:35:13Z</time>
      </trkpt>
      <trkpt lat="49.23158" lon="-0.26364">
        <ele>5.6</ele>
        <time>2024-02-04T08:35:14Z</time>
      </trkpt>
      <trkpt lat="49.23154" lon="-0.26368">
        <ele>5.6</ele>
        <time>2024-02-04T08:35:15Z</time>
      </trkpt>
      <trkpt lat="49.2315" lon="-0.26372">
        <ele>5.7</ele>
        <time>2024-02-04T08:35:16Z</time>
      </trkpt>
      <trkpt lat="49.23147" lon="-0.26378">
        <ele>5.7</ele>
        <time>2024-02-04T08:35:17Z</time>
      </trkpt>
      <trkpt lat="49.23144" lon="-0.26384">
        <ele>5.8</ele>
        <time>2024-02-04T08:35:18Z</time>
      </trkpt>
      <trkpt lat="49.23142" lon="-0.26391">
        <ele>5.9</ele>
        <time>2024-02-04T08:35:19Z</time>
      </trkpt>
      <trkpt lat="49.23139" lon="-0.26397">
        <ele>6</ele>
        <time>2024-02-04T08:35:20Z</time>
      </trkpt>
      <trkpt lat="49.23136" lon="-0.26404">
        <ele>6</ele>
        <time>2024-02-04T08:35:21Z</time>
      </trkpt>
      <trkpt lat="49.23133" lon="-0.26409">
        <ele>6.1</ele>
        <time>2024-02-04T08:35:22Z</time>
      </trkpt>
      <trkpt lat="49.23128" lon="-0.26414">
        <ele>6.2</ele>
        <time>2024-02-04T08:35:23Z</time>
      </trkpt>
      <trkpt lat="49.23123" lon="-0.26417">
        <ele>6.2</ele>
        <time>2024-02-04T08:35:24Z</time>
      </trkpt>
      <trkpt lat="49.23118" lon="-0.2642">
        <ele>6.3</ele>
        <time>2024-02-04T08:35:25Z</time>
      </trkpt>
      <trkpt lat="49.23111" lon="-0.26423">
        <ele>6.4</ele>
        <time>2024-02-04T08:35:26Z</time>
      </trkpt>
      <trkpt lat="49.23106" lon="-0.26426">
        <ele>6.5</ele>
        <time>2024-02-04T08:35:27Z</time>
      </trkpt>
      <trkpt lat="49.231" lon="-0.26429">
        <ele>6.6</ele>
        <time>2024-02-04T08:35:28Z</time>
      </trkpt>
      <trkpt lat="49.23095" lon="-0.26432">
        <ele>6.7</ele>
        <time>2024-02-04T08:35:29Z</time>
      </trkpt>
      <trkpt lat="49.2309" lon="-0.26435">
        <ele>6.8</ele>
        <time>2024-02-04T08:35:30Z</time>
      </trkpt>
      <trkpt lat="49.23084" lon="-0.26438">
        <ele>7</ele>
        <time>2024-02-04T08:35:31Z</time>
      </trkpt>
      <trkpt lat="49.23079" lon="-0.26441">
        <ele>7.1</ele>
        <time>2024-02-04T08:35:32Z</time>
      </trkpt>
      <trkpt lat="49.23074" lon="-0.26443">
        <ele>7.2</ele>
        <time>2024-02-04T08:35:33Z</time>
      </trkpt>
      <trkpt lat="49.23069" lon="-0.26446">
        <ele>7.4</ele>
        <time>2024-02-04T08:35:34Z</time>
      </trkpt>
      <trkpt lat="49.23063" lon="-0.26448">
        <ele>7.5</ele>
        <time>2024-02-04T08:35:35Z</time>
      </trkpt>
      <trkpt lat="49.23058" lon="-0.2645">
        <ele>7.7</ele>
        <time>2024-02-04T08:35:36Z</time>
      </trkpt>
      <trkpt lat="49.23052" lon="-0.26452">
        <ele>7.9</ele>
        <time>2024-02-04T08:35:37Z</time>
      </trkpt>
      <trkpt lat="49.23047" lon="-0.26454">
        <ele>8.1</ele>
        <time>2024-02-04T08:35:38Z</time>
      </trkpt>
      <trkpt lat="49.23042" lon="-0.26455">
        <ele>8.3</ele>
        <time>2024-02-04T08:35:39Z</time>
      </trkpt>
      <trkpt lat="49.23036" lon="-0.26457">
        <ele>8.5</ele>
        <time>2024-02-04T08:35:40Z</time>
      </trkpt>
      <trkpt lat="49.2303" lon="-0.26458">
        <ele>8.7</ele>
        <time>2024-02-04T08:35:41Z</time>
      </trkpt>
      <trkpt lat="49.23024" lon="-0.26459">
        <ele>8.9</ele>
        <time>2024-02-04T08:35:42Z</time>
      </trkpt>
      <trkpt lat="49.23019" lon="-0.26461">
        <ele>9.1</ele>
        <time>2024-02-04T08:35:43Z</time>
      </trkpt>
      <trkpt lat="49.23014" lon="-0.26462">
        <ele>9.3</ele>
        <time>2024-02-04T08:35:44Z</time>
      </trkpt>
      <trkpt lat="49.23008" lon="-0.26463">
        <ele>9.5</ele>
        <time>2024-02-04T08:35:45Z</time>
      </trkpt>
      <trkpt lat="49.23003" lon="-0.26464">
        <ele>9.7</ele>
        <time>2024-02-04T08:35:46Z</time>
      </trkpt>
      <trkpt lat="49.22997" lon="-0.26466">
        <ele>10</ele>
        <time>2024-02-04T08:35:47Z</time>
      </trkpt>
      <trkpt lat="49.22992" lon="-0.26467">
        <ele>10.2</ele>
        <time>2024-02-04T08:35:48Z</time>
      </trkpt>
      <trkpt lat="49.22987" lon="-0.26469">
        <ele>10.4</ele>
        <time>2024-02-04T08:35:49Z</time>
      </trkpt>
      <trkpt lat="49.22982" lon="-0.2647">
        <ele>10.6</ele>
        <time>2024-02-04T08:35:50Z</time>
      </trkpt>
      <trkpt lat="49.22976" lon="-0.26472">
        <ele>10.8</ele>
        <time>2024-02-04T08:35:51Z</time>
      </trkpt>
      <trkpt lat="49.22971" lon="-0.26474">
        <ele>11</ele>
        <time>2024-02-04T08:35:52Z</time>
      </trkpt>
      <trkpt lat="49.22966" lon="-0.26476">
        <ele>11.2</ele>
        <time>2024-02-04T08:35:53Z</time>
      </trkpt>
      <trkpt lat="49.22961" lon="-0.26477">
        <ele>11.4</ele>
        <time>2024-02-04T08:35:54Z</time>
      </trkpt>
      <trkpt lat="49.22956" lon="-0.26478">
        <ele>11.6</ele>
        <time>2024-02-04T08:35:55Z</time>
      </trkpt>
      <trkpt lat="49.22951" lon="-0.2648">
        <ele>11.8</ele>
        <time>2024-02-04T08:35:56Z</time>
      </trkpt>
      <trkpt lat="49.22946" lon="-0.26481">
        <ele>12</ele>
        <time>2024-02-04T08:35:57Z</time>
      </trkpt>
      <trkpt lat="49.2294" lon="-0.26483">
        <ele>12.2</ele>
        <time>2024-02-04T08:35:58Z</time>
      </trkpt>
      <trkpt lat="49.22935" lon="-0.26484">
        <ele>12.4</ele>
        <time>2024-02-04T08:35:59Z</time>
      </trkpt>
      <trkpt lat="49.2293" lon="-0.26485">
        <ele>12.6</ele>
        <time>2024-02-04T08:36:00Z</time>
      </trkpt>
      <trkpt lat="49.22924" lon="-0.26487">
        <ele>12.8</ele>
        <time>2024-02-04T08:36:01Z</time>
      </trkpt>
      <trkpt lat="49.22919" lon="-0.26488">
        <ele>13</ele>
        <time>2024-02-04T08:36:02Z</time>
      </trkpt>
      <trkpt lat="49.22914" lon="-0.26489">
        <ele>13.2</ele>
        <time>2024-02-04T08:36:03Z</time>
      </trkpt>
      <trkpt lat="49.22909" lon="-0.26491">
        <ele>13.4</ele>
        <time>2024-02-04T08:36:04Z</time>
      </trkpt>
      <trkpt lat="49.22904" lon="-0.26492">
        <ele>13.7</ele>
        <time>2024-02-04T08:36:05Z</time>
      </trkpt>
      <trkpt lat="49.22899" lon="-0.26493">
        <ele>13.9</ele>
        <time>2024-02-04T08:36:06Z</time>
      </trkpt>
      <trkpt lat="49.22893" lon="-0.26495">
        <ele>14.1</ele>
        <time>2024-02-04T08:36:07Z</time>
      </trkpt>
      <trkpt lat="49.22888" lon="-0.26497">
        <ele>14.3</ele>
        <time>2024-02-04T08:36:08Z</time>
      </trkpt>
      <trkpt lat="49.22883" lon="-0.26498">
        <ele>14.5</ele>
        <time>2024-02-04T08:36:09Z</time>
      </trkpt>
      <trkpt lat="49.22879" lon="-0.26499">
        <ele>14.7</ele>
        <time>2024-02-04T08:36:10Z</time>
      </trkpt>
      <trkpt lat="49.22874" lon="-0.265">
        <ele>14.8</ele>
        <time>2024-02-04T08:36:11Z</time>
      </trkpt>
      <trkpt lat="49.22869" lon="-0.26502">
        <ele>15</ele>
        <time>2024-02-04T08:36:12Z</time>
      </trkpt>
      <trkpt lat="49.22864" lon="-0.26503">
        <ele>15.1</ele>
        <time>2024-02-04T08:36:13Z</time>
      </trkpt>
      <trkpt lat="49.22859" lon="-0.26505">
        <ele>15.2</ele>
        <time>2024-02-04T08:36:14Z</time>
      </trkpt>
      <trkpt lat="49.22854" lon="-0.26506">
        <ele>15.3</ele>
        <time>2024-02-04T08:36:15Z</time>
      </trkpt>
      <trkpt lat="49.22848" lon="-0.26508">
        <ele>15.5</ele>
        <time>2024-02-04T08:36:16Z</time>
      </trkpt>
      <trkpt lat="49.22843" lon="-0.2651">
        <ele>15.6</ele>
        <time>2024-02-04T08:36:17Z</time>
      </trkpt>
      <trkpt lat="49.22837" lon="-0.26511">
        <ele>15.7</ele>
        <time>2024-02-04T08:36:18Z</time>
      </trkpt>
      <trkpt lat="49.22831" lon="-0.26512">
        <ele>15.9</ele>
        <time>2024-02-04T08:36:19Z</time>
      </trkpt>
      <trkpt lat="49.22825" lon="-0.26513">
        <ele>16</ele>
        <time>2024-02-04T08:36:20Z</time>
      </trkpt>
      <trkpt lat="49.22819" lon="-0.26516">
        <ele>16.2</ele>
        <time>2024-02-04T08:36:21Z</time>
      </trkpt>
      <trkpt lat="49.22814" lon="-0.26518">
        <ele>16.4</ele>
        <time>2024-02-04T08:36:22Z</time>
      </trkpt>
      <trkpt lat="49.22809" lon="-0.26519">
        <ele>16.5</ele>
        <time>2024-02-04T08:36:23Z</time>
      </trkpt>
      <trkpt lat="49.22803" lon="-0.26521">
        <ele>16.7</ele>
        <time>2024-02-04T08:36:24Z</time>
      </trkpt>
      <trkpt lat="49.22798" lon="-0.26522">
        <ele>16.9</ele>
        <time>2024-02-04T08:36:25Z</time>
      </trkpt>
      <trkpt lat="49.22793" lon="-0.26524">
        <ele>17.1</ele>
        <time>2024-02-04T08:36:26Z</time>
      </trkpt>
      <trkpt lat="49.22788" lon="-0.26526">
        <ele>17.2</ele>
        <time>2024-02-04T08:36:27Z</time>
      </trkpt>
      <trkpt lat="49.22784" lon="-0.26528">
        <ele>17.4</ele>
        <time>2024-02-04T08:36:28Z</time>
      </trkpt>
      <trkpt lat="49.22779" lon="-0.2653">
        <ele>17.6</ele>
        <time>2024-02-04T08:36:29Z</time>
      </trkpt>
      <trkpt lat="49.22774" lon="-0.26532">
        <ele>17.7</ele>
        <time>2024-02-04T08:36:30Z</time>
      </trkpt>
      <trkpt lat="49.22769" lon="-0.26534">
        <ele>17.9</ele>
        <time>2024-02-04T08:36:31Z</time>
      </trkpt>
      <trkpt lat="49.22765" lon="-0.26536">
        <ele>18</ele>
        <time>2024-02-04T08:36:32Z</time>
      </trkpt>
      <trkpt lat="49.2276" lon="-0.26538">
        <ele>18.2</ele>
        <time>2024-02-04T08:36:33Z</time>
      </trkpt>
      <trkpt lat="49.22755" lon="-0.2654">
        <ele>18.3</ele>
        <time>2024-02-04T08:36:34Z</time>
      </trkpt>
      <trkpt lat="49.22751" lon="-0.26543">
        <ele>18.5</ele>
        <time>2024-02-04T08:36:35Z</time>
      </trkpt>
      <trkpt lat="49.22747" lon="-0.26545">
        <ele>18.6</ele>
        <time>2024-02-04T08:36:36Z</time>
      </trkpt>
      <trkpt lat="49.22742" lon="-0.26548">
        <ele>18.8</ele>
        <time>2024-02-04T08:36:37Z</time>
      </trkpt>
      <trkpt lat="49.22738" lon="-0.26551">
        <ele>18.9</ele>
        <time>2024-02-04T08:36:38Z</time>
      </trkpt>
      <trkpt lat="49.22734" lon="-0.26555">
        <ele>19.1</ele>
        <time>2024-02-04T08:36:39Z</time>
      </trkpt>
      <trkpt lat="49.2273" lon="-0.26558">
        <ele>19.3</ele>
        <time>2024-02-04T08:36:40Z</time>
      </trkpt>
      <trkpt lat="49.22727" lon="-0.26562">
        <ele>19.5</ele>
        <time>2024-02-04T08:36:41Z</time>
      </trkpt>
      <trkpt lat="49.22723" lon="-0.26565">
        <ele>19.7</ele>
        <time>2024-02-04T08:36:42Z</time>
      </trkpt>
      <trkpt lat="49.22719" lon="-0.26567">
        <ele>19.9</ele>
        <time>2024-02-04T08:36:43Z</time>
      </trkpt>
      <trkpt lat="49.22715" lon="-0.2657">
        <ele>20.1</ele>
        <time>2024-02-04T08:36:44Z</time>
      </trkpt>
      <trkpt lat="49.22711" lon="-0.26572">
        <ele>20.2</ele>
        <time>2024-02-04T08:36:45Z</time>
      </trkpt>
      <trkpt lat="49.22707" lon="-0.26574">
        <ele>20.5</ele>
        <time>2024-02-04T08:36:46Z</time>
      </trkpt>
      <trkpt lat="49.22703" lon="-0.26577">
        <ele>20.7</ele>
        <time>2024-02-04T08:36:47Z</time>
      </trkpt>
      <trkpt lat="49.22698" lon="-0.2658">
        <ele>20.9</ele>
        <time>2024-02-04T08:36:48Z</time>
      </trkpt>
      <trkpt lat="49.22694" lon="-0.26582">
        <ele>21.1</ele>
        <time>2024-02-04T08:36:49Z</time>
      </trkpt>
      <trkpt lat="49.2269" lon="-0.26585">
        <ele>21.3</ele>
        <time>2024-02-04T08:36:50Z</time>
      </trkpt>
      <trkpt lat="49.22686" lon="-0.26587">
        <ele>21.5</ele>
        <time>2024-02-04T08:36:51Z</time>
      </trkpt>
      <trkpt lat="49.22682" lon="-0.2659">
        <ele>21.7</ele>
        <time>2024-02-04T08:36:52Z</time>
      </trkpt>
      <trkpt lat="49.22677" lon="-0.26593">
        <ele>21.9</ele>
        <time>2024-02-04T08:36:53Z</time>
      </trkpt>
      <trkpt lat="49.22673" lon="-0.26597">
        <ele>22.1</ele>
        <time>2024-02-04T08:36:54Z</time>
      </trkpt>
      <trkpt lat="49.22668" lon="-0.26599">
        <ele>22.3</ele>
        <time>2024-02-04T08:36:55Z</time>
      </trkpt>
      <trkpt lat="49.22663" lon="-0.26602">
        <ele>22.5</ele>
        <time>2024-02-04T08:36:56Z</time>
      </trkpt>
      <trkpt lat="49.22658" lon="-0.26605">
        <ele>22.7</ele>
        <time>2024-02-04T08:36:57Z</time>
      </trkpt>
      <trkpt lat="49.22653" lon="-0.26608">
        <ele>22.9</ele>
        <time>2024-02-04T08:36:58Z</time>
      </trkpt>
      <trkpt lat="49.22649" lon="-0.2661">
        <ele>23.2</ele>
        <time>2024-02-04T08:36:59Z</time>
      </trkpt>
      <trkpt lat="49.22644" lon="-0.26613">
        <ele>23.4</ele>
        <time>2024-02-04T08:37:00Z</time>
      </trkpt>
      <trkpt lat="49.22639" lon="-0.26616">
        <ele>23.7</ele>
        <time>2024-02-04T08:37:01Z</time>
      </trkpt>
      <trkpt lat="49.22635" lon="-0.26618">
        <ele>23.9</ele>
        <time>2024-02-04T08:37:02Z</time>
      </trkpt>
      <trkpt lat="49.2263" lon="-0.2662">
        <ele>24.2</ele>
        <time>2024-02-04T08:37:03Z</time>
      </trkpt>
      <trkpt lat="49.22625" lon="-0.26622">
        <ele>24.5</ele>
        <time>2024-02-04T08:37:04Z</time>
      </trkpt>
      <trkpt lat="49.2262" lon="-0.26625">
        <ele>24.8</ele>
        <time>2024-02-04T08:37:05Z</time>
      </trkpt>
      <trkpt lat="49.22616" lon="-0.26627">
        <ele>25.1</ele>
        <time>2024-02-04T08:37:06Z</time>
      </trkpt>
      <trkpt lat="49.22611" lon="-0.26629">
        <ele>25.4</ele>
        <time>2024-02-04T08:37:07Z</time>
      </trkpt>
      <trkpt lat="49.22606" lon="-0.26631">
        <ele>25.7</ele>
        <time>2024-02-04T08:37:08Z</time>
      </trkpt>
      <trkpt lat="49.22602" lon="-0.26633">
        <ele>25.9</ele>
        <time>2024-02-04T08:37:09Z</time>
      </trkpt>
      <trkpt lat="49.22598" lon="-0.26634">
        <ele>26.2</ele>
        <time>2024-02-04T08:37:10Z</time>
      </trkpt>
      <trkpt lat="49.22593" lon="-0.26636">
        <ele>26.4</ele>
        <time>2024-02-04T08:37:11Z</time>
      </trkpt>
      <trkpt lat="49.22588" lon="-0.26637">
        <ele>26.7</ele>
        <time>2024-02-04T08:37:12Z</time>
      </trkpt>
      <trkpt lat="49.22583" lon="-0.26639">
        <ele>26.9</ele>
        <time>2024-02-04T08:37:13Z</time>
      </trkpt>
      <trkpt lat="49.22578" lon="-0.26641">
        <ele>27.2</ele>
        <time>2024-02-04T08:37:14Z</time>
      </trkpt>
      <trkpt lat="49.22573" lon="-0.26642">
        <ele>27.4</ele>
        <time>2024-02-04T08:37:15Z</time>
      </trkpt>
      <trkpt lat="49.22568" lon="-0.26645">
        <ele>27.7</ele>
        <time>2024-02-04T08:37:16Z</time>
      </trkpt>
      <trkpt lat="49.22563" lon="-0.26647">
        <ele>28</ele>
        <time>2024-02-04T08:37:17Z</time>
      </trkpt>
      <trkpt lat="49.22558" lon="-0.26649">
        <ele>28.3</ele>
        <time>2024-02-04T08:37:18Z</time>
      </trkpt>
      <trkpt lat="49.22553" lon="-0.26651">
        <ele>28.6</ele>
        <time>2024-02-04T08:37:19Z</time>
      </trkpt>
      <trkpt lat="49.22549" lon="-0.26653">
        <ele>28.8</ele>
        <time>2024-02-04T08:37:20Z</time>
      </trkpt>
      <trkpt lat="49.22544" lon="-0.26655">
        <ele>29.1</ele>
        <time>2024-02-04T08:37:21Z</time>
      </trkpt>
      <trkpt lat="49.22539" lon="-0.26657">
        <ele>29.4</ele>
        <time>2024-02-04T08:37:22Z</time>
      </trkpt>
      <trkpt lat="49.22535" lon="-0.26659">
        <ele>29.6</ele>
        <time>2024-02-04T08:37:23Z</time>
      </trkpt>
      <trkpt lat="49.2253" lon="-0.26661">
        <ele>29.9</ele>
        <time>2024-02-04T08:37:24Z</time>
      </trkpt>
      <trkpt lat="49.22525" lon="-0.26663">
        <ele>30.1</ele>
        <time>2024-02-04T08:37:25Z</time>
      </trkpt>
      <trkpt lat="49.2252" lon="-0.26666">
        <ele>30.3</ele>
        <time>2024-02-04T08:37:26Z</time>
      </trkpt>
      <trkpt lat="49.22516" lon="-0.26668">
        <ele>30.5</ele>
        <time>2024-02-04T08:37:27Z</time>
      </trkpt>
      <trkpt lat="49.22511" lon="-0.2667">
        <ele>30.8</ele>
        <time>2024-02-04T08:37:28Z</time>
      </trkpt>
      <trkpt lat="49.22507" lon="-0.26672">
        <ele>31</ele>
        <time>2024-02-04T08:37:29Z</time>
      </trkpt>
      <trkpt lat="49.22502" lon="-0.26674">
        <ele>31.2</ele>
        <time>2024-02-04T08:37:30Z</time>
      </trkpt>
      <trkpt lat="49.22497" lon="-0.26676">
        <ele>31.4</ele>
        <time>2024-02-04T08:37:31Z</time>
      </trkpt>
      <trkpt lat="49.22492" lon="-0.26678">
        <ele>31.6</ele>
        <time>2024-02-04T08:37:32Z</time>
      </trkpt>
      <trkpt lat="49.22488" lon="-0.2668">
        <ele>31.8</ele>
        <time>2024-02-04T08:37:33Z</time>
      </trkpt>
      <trkpt lat="49.22483" lon="-0.26682">
        <ele>32</ele>
        <time>2024-02-04T08:37:34Z</time>
      </trkpt>
      <trkpt lat="49.22479" lon="-0.26685">
        <ele>32.2</ele>
        <time>2024-02-04T08:37:35Z</time>
      </trkpt>
      <trkpt lat="49.22475" lon="-0.26687">
        <ele>32.4</ele>
        <time>2024-02-04T08:37:36Z</time>
      </trkpt>
      <trkpt lat="49.2247" lon="-0.26688">
        <ele>32.6</ele>
        <time>2024-02-04T08:37:37Z</time>
      </trkpt>
      <trkpt lat="49.22466" lon="-0.2669">
        <ele>32.8</ele>
        <time>2024-02-04T08:37:38Z</time>
      </trkpt>
      <trkpt lat="49.22462" lon="-0.26692">
        <ele>33</ele>
        <time>2024-02-04T08:37:39Z</time>
      </trkpt>
      <trkpt lat="49.2246" lon="-0.26693">
        <ele>33.1</ele>
        <time>2024-02-04T08:37:40Z</time>
      </trkpt>
      <trkpt lat="49.22456" lon="-0.26695">
        <ele>33.2</ele>
        <time>2024-02-04T08:37:41Z</time>
      </trkpt>
      <trkpt lat="49.22455" lon="-0.26695">
        <ele>33.3</ele>
        <time>2024-02-04T08:37:42Z</time>
      </trkpt>
      <trkpt lat="49.22452" lon="-0.26697">
        <ele>33.4</ele>
        <time>2024-02-04T08:37:43Z</time>
      </trkpt>
      <trkpt lat="49.22452" lon="-0.26697">
        <ele>33.4</ele>
        <time>2024-02-04T08:37:44Z</time>
      </trkpt>
      <trkpt lat="49.2245" lon="-0.26698">
        <ele>33.5</ele>
        <time>2024-02-04T08:37:45Z</time>
      </trkpt>
      <trkpt lat="49.22448" lon="-0.26699">
        <ele>33.6</ele>
        <time>2024-02-04T08:37:46Z</time>
      </trkpt>
      <trkpt lat="49.22447" lon="-0.267">
        <ele>33.7</ele>
        <time>2024-02-04T08:37:47Z</time>
      </trkpt>
      <trkpt lat="49.22446" lon="-0.26702">
        <ele>33.7</ele>
        <time>2024-02-04T08:37:48Z</time>
      </trkpt>
      <trkpt lat="49.22444" lon="-0.26705">
        <ele>33.8</ele>
        <time>2024-02-04T08:37:50Z</time>
      </trkpt>
      <trkpt lat="49.22443" lon="-0.26707">
        <ele>33.8</ele>
        <time>2024-02-04T08:37:51Z</time>
      </trkpt>
      <trkpt lat="49.22442" lon="-0.26709">
        <ele>33.8</ele>
        <time>2024-02-04T08:37:52Z</time>
      </trkpt>
      <trkpt lat="49.2244" lon="-0.26713">
        <ele>33.8</ele>
        <time>2024-02-04T08:37:53Z</time>
      </trkpt>
      <trkpt lat="49.2244" lon="-0.26715">
        <ele>33.8</ele>
        <time>2024-02-04T08:37:54Z</time>
      </trkpt>
      <trkpt lat="49.22437" lon="-0.26719">
        <ele>33.8</ele>
        <time>2024-02-04T08:37:55Z</time>
      </trkpt>
      <trkpt lat="49.22437" lon="-0.26721">
        <ele>33.8</ele>
        <time>2024-02-04T08:37:56Z</time>
      </trkpt>
      <trkpt lat="49.22435" lon="-0.26726">
        <ele>33.8</ele>
        <time>2024-02-04T08:37:57Z</time>
      </trkpt>
      <trkpt lat="49.22434" lon="-0.26727">
        <ele>33.8</ele>
        <time>2024-02-04T08:37:58Z</time>
      </trkpt>
      <trkpt lat="49.22433" lon="-0.26732">
        <ele>33.9</ele>
        <time>2024-02-04T08:37:59Z</time>
      </trkpt>
      <trkpt lat="49.22432" lon="-0.26734">
        <ele>33.9</ele>
        <time>2024-02-04T08:38:00Z</time>
      </trkpt>
      <trkpt lat="49.22431" lon="-0.26739">
        <ele>33.9</ele>
        <time>2024-02-04T08:38:01Z</time>
      </trkpt>
      <trkpt lat="49.2243" lon="-0.26741">
        <ele>33.9</ele>
        <time>2024-02-04T08:38:02Z</time>
      </trkpt>
      <trkpt lat="49.22428" lon="-0.26745">
        <ele>34</ele>
        <time>2024-02-04T08:38:03Z</time>
      </trkpt>
      <trkpt lat="49.22427" lon="-0.2675">
        <ele>34</ele>
        <time>2024-02-04T08:38:04Z</time>
      </trkpt>
      <trkpt lat="49.22425" lon="-0.26755">
        <ele>34</ele>
        <time>2024-02-04T08:38:05Z</time>
      </trkpt>
      <trkpt lat="49.22424" lon="-0.2676">
        <ele>34.1</ele>
        <time>2024-02-04T08:38:06Z</time>
      </trkpt>
      <trkpt lat="49.22422" lon="-0.26765">
        <ele>34.1</ele>
        <time>2024-02-04T08:38:07Z</time>
      </trkpt>
      <trkpt lat="49.2242" lon="-0.26771">
        <ele>34.2</ele>
        <time>2024-02-04T08:38:08Z</time>
      </trkpt>
      <trkpt lat="49.22418" lon="-0.26777">
        <ele>34.2</ele>
        <time>2024-02-04T08:38:09Z</time>
      </trkpt>
      <trkpt lat="49.22416" lon="-0.26783">
        <ele>34.3</ele>
        <time>2024-02-04T08:38:10Z</time>
      </trkpt>
      <trkpt lat="49.22414" lon="-0.26789">
        <ele>34.3</ele>
        <time>2024-02-04T08:38:11Z</time>
      </trkpt>
      <trkpt lat="49.22411" lon="-0.26796">
        <ele>34.4</ele>
        <time>2024-02-04T08:38:12Z</time>
      </trkpt>
      <trkpt lat="49.22409" lon="-0.26802">
        <ele>34.4</ele>
        <time>2024-02-04T08:38:13Z</time>
      </trkpt>
      <trkpt lat="49.22407" lon="-0.26808">
        <ele>34.5</ele>
        <time>2024-02-04T08:38:14Z</time>
      </trkpt>
      <trkpt lat="49.22405" lon="-0.26814">
        <ele>34.6</ele>
        <time>2024-02-04T08:38:15Z</time>
      </trkpt>
      <trkpt lat="49.22402" lon="-0.26821">
        <ele>34.7</ele>
        <time>2024-02-04T08:38:16Z</time>
      </trkpt>
      <trkpt lat="49.224" lon="-0.26827">
        <ele>34.8</ele>
        <time>2024-02-04T08:38:17Z</time>
      </trkpt>
      <trkpt lat="49.22397" lon="-0.26834">
        <ele>34.8</ele>
        <time>2024-02-04T08:38:18Z</time>
      </trkpt>
      <trkpt lat="49.22395" lon="-0.2684">
        <ele>34.9</ele>
        <time>2024-02-04T08:38:19Z</time>
      </trkpt>
      <trkpt lat="49.22393" lon="-0.26846">
        <ele>35</ele>
        <time>2024-02-04T08:38:20Z</time>
      </trkpt>
      <trkpt lat="49.2239" lon="-0.26852">
        <ele>35.1</ele>
        <time>2024-02-04T08:38:21Z</time>
      </trkpt>
      <trkpt lat="49.22388" lon="-0.26858">
        <ele>35.2</ele>
        <time>2024-02-04T08:38:22Z</time>
      </trkpt>
      <trkpt lat="49.22386" lon="-0.26864">
        <ele>35.3</ele>
        <time>2024-02-04T08:38:23Z</time>
      </trkpt>
      <trkpt lat="49.22383" lon="-0.26871">
        <ele>35.3</ele>
        <time>2024-02-04T08:38:24Z</time>
      </trkpt>
      <trkpt lat="49.2238" lon="-0.26877">
        <ele>35.4</ele>
        <time>2024-02-04T08:38:25Z</time>
      </trkpt>
      <trkpt lat="49.22378" lon="-0.26883">
        <ele>35.5</ele>
        <time>2024-02-04T08:38:26Z</time>
      </trkpt>
      <trkpt lat="49.22375" lon="-0.26889">
        <ele>35.6</ele>
        <time>2024-02-04T08:38:27Z</time>
      </trkpt>
      <trkpt lat="49.22372" lon="-0.26895">
        <ele>35.7</ele>
        <time>2024-02-04T08:38:28Z</time>
      </trkpt>
      <trkpt lat="49.2237" lon="-0.26901">
        <ele>35.7</ele>
        <time>2024-02-04T08:38:29Z</time>
      </trkpt>
      <trkpt lat="49.22367" lon="-0.26908">
        <ele>35.8</ele>
        <time>2024-02-04T08:38:30Z</time>
      </trkpt>
      <trkpt lat="49.22364" lon="-0.26915">
        <ele>35.9</ele>
        <time>2024-02-04T08:38:31Z</time>
      </trkpt>
      <trkpt lat="49.2236" lon="-0.26922">
        <ele>35.9</ele>
        <time>2024-02-04T08:38:32Z</time>
      </trkpt>
      <trkpt lat="49.22357" lon="-0.2693">
        <ele>35.9</ele>
        <time>2024-02-04T08:38:33Z</time>
      </trkpt>
      <trkpt lat="49.22354" lon="-0.26937">
        <ele>35.9</ele>
        <time>2024-02-04T08:38:34Z</time>
      </trkpt>
      <trkpt lat="49.2235" lon="-0.26945">
        <ele>36</ele>
        <time>2024-02-04T08:38:35Z</time>
      </trkpt>
      <trkpt lat="49.22347" lon="-0.26952">
        <ele>36</ele>
        <time>2024-02-04T08:38:36Z</time>
      </trkpt>
      <trkpt lat="49.22344" lon="-0.2696">
        <ele>36</ele>
        <time>2024-02-04T08:38:37Z</time>
      </trkpt>
      <trkpt lat="49.22341" lon="-0.26968">
        <ele>36</ele>
        <time>2024-02-04T08:38:38Z</time>
      </trkpt>
      <trkpt lat="49.22338" lon="-0.26976">
        <ele>36</ele>
        <time>2024-02-04T08:38:39Z</time>
      </trkpt>
      <trkpt lat="49.22334" lon="-0.26983">
        <ele>36</ele>
        <time>2024-02-04T08:38:40Z</time>
      </trkpt>
      <trkpt lat="49.22331" lon="-0.26991">
        <ele>35.9</ele>
        <time>2024-02-04T08:38:41Z</time>
      </trkpt>
      <trkpt lat="49.22328" lon="-0.26999">
        <ele>35.9</ele>
        <time>2024-02-04T08:38:42Z</time>
      </trkpt>
      <trkpt lat="49.22325" lon="-0.27007">
        <ele>35.9</ele>
        <time>2024-02-04T08:38:43Z</time>
      </trkpt>
      <trkpt lat="49.22322" lon="-0.27015">
        <ele>35.9</ele>
        <time>2024-02-04T08:38:44Z</time>
      </trkpt>
      <trkpt lat="49.22319" lon="-0.27023">
        <ele>35.8</ele>
        <time>2024-02-04T08:38:45Z</time>
      </trkpt>
      <trkpt lat="49.22315" lon="-0.27032">
        <ele>35.8</ele>
        <time>2024-02-04T08:38:46Z</time>
      </trkpt>
      <trkpt lat="49.22312" lon="-0.27041">
        <ele>35.8</ele>
        <time>2024-02-04T08:38:47Z</time>
      </trkpt>
      <trkpt lat="49.22308" lon="-0.27049">
        <ele>35.7</ele>
        <time>2024-02-04T08:38:48Z</time>
      </trkpt>
      <trkpt lat="49.22305" lon="-0.27057">
        <ele>35.6</ele>
        <time>2024-02-04T08:38:49Z</time>
      </trkpt>
      <trkpt lat="49.22301" lon="-0.27066">
        <ele>35.6</ele>
        <time>2024-02-04T08:38:50Z</time>
      </trkpt>
      <trkpt lat="49.22298" lon="-0.27075">
        <ele>35.5</ele>
        <time>2024-02-04T08:38:51Z</time>
      </trkpt>
      <trkpt lat="49.22294" lon="-0.27084">
        <ele>35.4</ele>
        <time>2024-02-04T08:38:52Z</time>
      </trkpt>
      <trkpt lat="49.22291" lon="-0.27093">
        <ele>35.3</ele>
        <time>2024-02-04T08:38:53Z</time>
      </trkpt>
      <trkpt lat="49.22288" lon="-0.27103">
        <ele>35.2</ele>
        <time>2024-02-04T08:38:54Z</time>
      </trkpt>
      <trkpt lat="49.22284" lon="-0.27112">
        <ele>35.2</ele>
        <time>2024-02-04T08:38:55Z</time>
      </trkpt>
      <trkpt lat="49.2228" lon="-0.27121">
        <ele>35.1</ele>
        <time>2024-02-04T08:38:56Z</time>
      </trkpt>
      <trkpt lat="49.22276" lon="-0.2713">
        <ele>35.1</ele>
        <time>2024-02-04T08:38:57Z</time>
      </trkpt>
      <trkpt lat="49.22272" lon="-0.27139">
        <ele>35</ele>
        <time>2024-02-04T08:38:58Z</time>
      </trkpt>
      <trkpt lat="49.22268" lon="-0.27148">
        <ele>34.9</ele>
        <time>2024-02-04T08:38:59Z</time>
      </trkpt>
      <trkpt lat="49.22263" lon="-0.27156">
        <ele>34.8</ele>
        <time>2024-02-04T08:39:00Z</time>
      </trkpt>
      <trkpt lat="49.22258" lon="-0.27164">
        <ele>34.8</ele>
        <time>2024-02-04T08:39:01Z</time>
      </trkpt>
      <trkpt lat="49.22252" lon="-0.27172">
        <ele>34.7</ele>
        <time>2024-02-04T08:39:02Z</time>
      </trkpt>
      <trkpt lat="49.22247" lon="-0.27179">
        <ele>34.6</ele>
        <time>2024-02-04T08:39:03Z</time>
      </trkpt>
      <trkpt lat="49.22241" lon="-0.27186">
        <ele>34.6</ele>
        <time>2024-02-04T08:39:04Z</time>
      </trkpt>
      <trkpt lat="49.22236" lon="-0.27193">
        <ele>34.5</ele>
        <time>2024-02-04T08:39:05Z</time>
      </trkpt>
      <trkpt lat="49.2223" lon="-0.27199">
        <ele>34.5</ele>
        <time>2024-02-04T08:39:06Z</time>
      </trkpt>
      <trkpt lat="49.22224" lon="-0.27205">
        <ele>34.4</ele>
        <time>2024-02-04T08:39:07Z</time>
      </trkpt>
      <trkpt lat="49.22219" lon="-0.2721">
        <ele>34.4</ele>
        <time>2024-02-04T08:39:08Z</time>
      </trkpt>
      <trkpt lat="49.22213" lon="-0.27215">
        <ele>34.4</ele>
        <time>2024-02-04T08:39:09Z</time>
      </trkpt>
      <trkpt lat="49.22207" lon="-0.2722">
        <ele>34.5</ele>
        <time>2024-02-04T08:39:10Z</time>
      </trkpt>
      <trkpt lat="49.22201" lon="-0.27225">
        <ele>34.5</ele>
        <time>2024-02-04T08:39:11Z</time>
      </trkpt>
      <trkpt lat="49.22194" lon="-0.2723">
        <ele>34.5</ele>
        <time>2024-02-04T08:39:12Z</time>
      </trkpt>
      <trkpt lat="49.22188" lon="-0.27234">
        <ele>34.6</ele>
        <time>2024-02-04T08:39:13Z</time>
      </trkpt>
      <trkpt lat="49.22183" lon="-0.27239">
        <ele>34.6</ele>
        <time>2024-02-04T08:39:14Z</time>
      </trkpt>
      <trkpt lat="49.22177" lon="-0.27245">
        <ele>34.7</ele>
        <time>2024-02-04T08:39:15Z</time>
      </trkpt>
      <trkpt lat="49.22173" lon="-0.27252">
        <ele>34.8</ele>
        <time>2024-02-04T08:39:16Z</time>
      </trkpt>
      <trkpt lat="49.22169" lon="-0.27259">
        <ele>34.9</ele>
        <time>2024-02-04T08:39:17Z</time>
      </trkpt>
      <trkpt lat="49.22168" lon="-0.27267">
        <ele>35</ele>
        <time>2024-02-04T08:39:18Z</time>
      </trkpt>
      <trkpt lat="49.22168" lon="-0.27274">
        <ele>35.1</ele>
        <time>2024-02-04T08:39:19Z</time>
      </trkpt>
      <trkpt lat="49.22169" lon="-0.27281">
        <ele>35.2</ele>
        <time>2024-02-04T08:39:20Z</time>
      </trkpt>
      <trkpt lat="49.2217" lon="-0.27287">
        <ele>35.3</ele>
        <time>2024-02-04T08:39:21Z</time>
      </trkpt>
      <trkpt lat="49.22172" lon="-0.27292">
        <ele>35.4</ele>
        <time>2024-02-04T08:39:22Z</time>
      </trkpt>
      <trkpt lat="49.22173" lon="-0.27296">
        <ele>35.5</ele>
        <time>2024-02-04T08:39:23Z</time>
      </trkpt>
      <trkpt lat="49.22175" lon="-0.27301">
        <ele>35.6</ele>
        <time>2024-02-04T08:39:24Z</time>
      </trkpt>
      <trkpt lat="49.22176" lon="-0.27305">
        <ele>35.7</ele>
        <time>2024-02-04T08:39:25Z</time>
      </trkpt>
      <trkpt lat="49.22177" lon="-0.27311">
        <ele>35.7</ele>
        <time>2024-02-04T08:39:26Z</time>
      </trkpt>
      <trkpt lat="49.22177" lon="-0.27316">
        <ele>35.7</ele>
        <time>2024-02-04T08:39:27Z</time>
      </trkpt>
      <trkpt lat="49.22176" lon="-0.27322">
        <ele>35.7</ele>
        <time>2024-02-04T08:39:28Z</time>
      </trkpt>
      <trkpt lat="49.22175" lon="-0.27329">
        <ele>35.7</ele>
        <time>2024-02-04T08:39:29Z</time>
      </trkpt>
      <trkpt lat="49.22172" lon="-0.27334">
        <ele>35.7</ele>
        <time>2024-02-04T08:39:30Z</time>
      </trkpt>
      <trkpt lat="49.22169" lon="-0.27339">
        <ele>35.7</ele>
        <time>2024-02-04T08:39:31Z</time>
      </trkpt>
      <trkpt lat="49.22165" lon="-0.27343">
        <ele>35.7</ele>
        <time>2024-02-04T08:39:32Z</time>
      </trkpt>
      <trkpt lat="49.22161" lon="-0.27347">
        <ele>35.7</ele>
        <time>2024-02-04T08:39:33Z</time>
      </trkpt>
      <trkpt lat="49.22156" lon="-0.27351">
        <ele>35.7</ele>
        <time>2024-02-04T08:39:34Z</time>
      </trkpt>
      <trkpt lat="49.22152" lon="-0.27354">
        <ele>35.8</ele>
        <time>2024-02-04T08:39:35Z</time>
      </trkpt>
      <trkpt lat="49.22148" lon="-0.27357">
        <ele>35.8</ele>
        <time>2024-02-04T08:39:36Z</time>
      </trkpt>
      <trkpt lat="49.22143" lon="-0.27361">
        <ele>35.8</ele>
        <time>2024-02-04T08:39:37Z</time>
      </trkpt>
      <trkpt lat="49.22139" lon="-0.27365">
        <ele>35.9</ele>
        <time>2024-02-04T08:39:38Z</time>
      </trkpt>
      <trkpt lat="49.22134" lon="-0.27369">
        <ele>35.9</ele>
        <time>2024-02-04T08:39:39Z</time>
      </trkpt>
      <trkpt lat="49.2213" lon="-0.27371">
        <ele>36</ele>
        <time>2024-02-04T08:39:40Z</time>
      </trkpt>
      <trkpt lat="49.22125" lon="-0.27375">
        <ele>36</ele>
        <time>2024-02-04T08:39:41Z</time>
      </trkpt>
      <trkpt lat="49.22121" lon="-0.27377">
        <ele>36</ele>
        <time>2024-02-04T08:39:42Z</time>
      </trkpt>
      <trkpt lat="49.22117" lon="-0.27379">
        <ele>36.1</ele>
        <time>2024-02-04T08:39:43Z</time>
      </trkpt>
      <trkpt lat="49.22113" lon="-0.27381">
        <ele>36.1</ele>
        <time>2024-02-04T08:39:44Z</time>
      </trkpt>
      <trkpt lat="49.2211" lon="-0.27383">
        <ele>36.1</ele>
        <time>2024-02-04T08:39:45Z</time>
      </trkpt>
      <trkpt lat="49.22107" lon="-0.27386">
        <ele>36.2</ele>
        <time>2024-02-04T08:39:46Z</time>
      </trkpt>
      <trkpt lat="49.22103" lon="-0.27389">
        <ele>36.2</ele>
        <time>2024-02-04T08:39:47Z</time>
      </trkpt>
      <trkpt lat="49.221" lon="-0.27392">
        <ele>36.2</ele>
        <time>2024-02-04T08:39:48Z</time>
      </trkpt>
      <trkpt lat="49.22096" lon="-0.27394">
        <ele>36.3</ele>
        <time>2024-02-04T08:39:49Z</time>
      </trkpt>
      <trkpt lat="49.22092" lon="-0.27397">
        <ele>36.3</ele>
        <time>2024-02-04T08:39:50Z</time>
      </trkpt>
      <trkpt lat="49.22089" lon="-0.27399">
        <ele>36.4</ele>
        <time>2024-02-04T08:39:51Z</time>
      </trkpt>
      <trkpt lat="49.22086" lon="-0.27401">
        <ele>36.4</ele>
        <time>2024-02-04T08:39:52Z</time>
      </trkpt>
      <trkpt lat="49.22084" lon="-0.27403">
        <ele>36.5</ele>
        <time>2024-02-04T08:39:53Z</time>
      </trkpt>
      <trkpt lat="49.22081" lon="-0.27408">
        <ele>36.5</ele>
        <time>2024-02-04T08:39:54Z</time>
      </trkpt>
      <trkpt lat="49.2208" lon="-0.27409">
        <ele>36.5</ele>
        <time>2024-02-04T08:39:55Z</time>
      </trkpt>
      <trkpt lat="49.22078" lon="-0.27414">
        <ele>36.6</ele>
        <time>2024-02-04T08:39:56Z</time>
      </trkpt>
      <trkpt lat="49.22077" lon="-0.27416">
        <ele>36.6</ele>
        <time>2024-02-04T08:39:57Z</time>
      </trkpt>
      <trkpt lat="49.22076" lon="-0.2742">
        <ele>36.7</ele>
        <time>2024-02-04T08:39:58Z</time>
      </trkpt>
      <trkpt lat="49.22076" lon="-0.27425">
        <ele>36.6</ele>
        <time>2024-02-04T08:39:59Z</time>
      </trkpt>
      <trkpt lat="49.22075" lon="-0.2743">
        <ele>36.5</ele>
        <time>2024-02-04T08:40:00Z</time>
      </trkpt>
      <trkpt lat="49.22075" lon="-0.27435">
        <ele>36.4</ele>
        <time>2024-02-04T08:40:01Z</time>
      </trkpt>
      <trkpt lat="49.22076" lon="-0.27442">
        <ele>36.3</ele>
        <time>2024-02-04T08:40:02Z</time>
      </trkpt>
      <trkpt lat="49.22077" lon="-0.27448">
        <ele>36.2</ele>
        <time>2024-02-04T08:40:03Z</time>
      </trkpt>
      <trkpt lat="49.22077" lon="-0.27455">
        <ele>36.1</ele>
        <time>2024-02-04T08:40:04Z</time>
      </trkpt>
      <trkpt lat="49.22078" lon="-0.27461">
        <ele>36</ele>
        <time>2024-02-04T08:40:05Z</time>
      </trkpt>
      <trkpt lat="49.22078" lon="-0.27468">
        <ele>35.9</ele>
        <time>2024-02-04T08:40:06Z</time>
      </trkpt>
      <trkpt lat="49.22078" lon="-0.27476">
        <ele>35.8</ele>
        <time>2024-02-04T08:40:07Z</time>
      </trkpt>
      <trkpt lat="49.22078" lon="-0.27484">
        <ele>35.7</ele>
        <time>2024-02-04T08:40:08Z</time>
      </trkpt>
      <trkpt lat="49.22076" lon="-0.27491">
        <ele>35.6</ele>
        <time>2024-02-04T08:40:09Z</time>
      </trkpt>
      <trkpt lat="49.22075" lon="-0.27499">
        <ele>35.5</ele>
        <time>2024-02-04T08:40:10Z</time>
      </trkpt>
      <trkpt lat="49.22074" lon="-0.27508">
        <ele>35.4</ele>
        <time>2024-02-04T08:40:11Z</time>
      </trkpt>
      <trkpt lat="49.22073" lon="-0.27516">
        <ele>35.4</ele>
        <time>2024-02-04T08:40:12Z</time>
      </trkpt>
      <trkpt lat="49.22072" lon="-0.27523">
        <ele>35.3</ele>
        <time>2024-02-04T08:40:13Z</time>
      </trkpt>
      <trkpt lat="49.22071" lon="-0.27531">
        <ele>35.2</ele>
        <time>2024-02-04T08:40:14Z</time>
      </trkpt>
      <trkpt lat="49.22069" lon="-0.27538">
        <ele>35.2</ele>
        <time>2024-02-04T08:40:15Z</time>
      </trkpt>
      <trkpt lat="49.22068" lon="-0.27545">
        <ele>35.1</ele>
        <time>2024-02-04T08:40:16Z</time>
      </trkpt>
      <trkpt lat="49.22066" lon="-0.27553">
        <ele>35.1</ele>
        <time>2024-02-04T08:40:17Z</time>
      </trkpt>
      <trkpt lat="49.22065" lon="-0.2756">
        <ele>35.1</ele>
        <time>2024-02-04T08:40:18Z</time>
      </trkpt>
      <trkpt lat="49.22063" lon="-0.27567">
        <ele>35</ele>
        <time>2024-02-04T08:40:19Z</time>
      </trkpt>
      <trkpt lat="49.22061" lon="-0.27575">
        <ele>35</ele>
        <time>2024-02-04T08:40:20Z</time>
      </trkpt>
      <trkpt lat="49.22059" lon="-0.27583">
        <ele>35</ele>
        <time>2024-02-04T08:40:21Z</time>
      </trkpt>
      <trkpt lat="49.22057" lon="-0.27591">
        <ele>35</ele>
        <time>2024-02-04T08:40:22Z</time>
      </trkpt>
      <trkpt lat="49.22055" lon="-0.27599">
        <ele>34.9</ele>
        <time>2024-02-04T08:40:23Z</time>
      </trkpt>
      <trkpt lat="49.22053" lon="-0.27607">
        <ele>34.9</ele>
        <time>2024-02-04T08:40:24Z</time>
      </trkpt>
      <trkpt lat="49.22051" lon="-0.27614">
        <ele>34.9</ele>
        <time>2024-02-04T08:40:25Z</time>
      </trkpt>
      <trkpt lat="49.22048" lon="-0.27623">
        <ele>34.9</ele>
        <time>2024-02-04T08:40:26Z</time>
      </trkpt>
      <trkpt lat="49.22046" lon="-0.27631">
        <ele>34.8</ele>
        <time>2024-02-04T08:40:27Z</time>
      </trkpt>
      <trkpt lat="49.22044" lon="-0.27639">
        <ele>34.8</ele>
        <time>2024-02-04T08:40:28Z</time>
      </trkpt>
      <trkpt lat="49.22042" lon="-0.27647">
        <ele>34.8</ele>
        <time>2024-02-04T08:40:29Z</time>
      </trkpt>
      <trkpt lat="49.2204" lon="-0.27655">
        <ele>34.8</ele>
        <time>2024-02-04T08:40:30Z</time>
      </trkpt>
      <trkpt lat="49.22037" lon="-0.27663">
        <ele>34.8</ele>
        <time>2024-02-04T08:40:31Z</time>
      </trkpt>
      <trkpt lat="49.22035" lon="-0.27671">
        <ele>34.8</ele>
        <time>2024-02-04T08:40:32Z</time>
      </trkpt>
      <trkpt lat="49.22032" lon="-0.27679">
        <ele>34.8</ele>
        <time>2024-02-04T08:40:33Z</time>
      </trkpt>
      <trkpt lat="49.2203" lon="-0.27687">
        <ele>34.8</ele>
        <time>2024-02-04T08:40:34Z</time>
      </trkpt>
      <trkpt lat="49.22027" lon="-0.27695">
        <ele>34.8</ele>
        <time>2024-02-04T08:40:35Z</time>
      </trkpt>
      <trkpt lat="49.22025" lon="-0.27704">
        <ele>34.9</ele>
        <time>2024-02-04T08:40:36Z</time>
      </trkpt>
      <trkpt lat="49.22022" lon="-0.27712">
        <ele>34.9</ele>
        <time>2024-02-04T08:40:37Z</time>
      </trkpt>
      <trkpt lat="49.2202" lon="-0.2772">
        <ele>34.9</ele>
        <time>2024-02-04T08:40:38Z</time>
      </trkpt>
      <trkpt lat="49.22017" lon="-0.27727">
        <ele>34.9</ele>
        <time>2024-02-04T08:40:39Z</time>
      </trkpt>
      <trkpt lat="49.22014" lon="-0.27736">
        <ele>35</ele>
        <time>2024-02-04T08:40:40Z</time>
      </trkpt>
      <trkpt lat="49.22012" lon="-0.27744">
        <ele>35</ele>
        <time>2024-02-04T08:40:41Z</time>
      </trkpt>
      <trkpt lat="49.22009" lon="-0.27753">
        <ele>35</ele>
        <time>2024-02-04T08:40:42Z</time>
      </trkpt>
      <trkpt lat="49.22006" lon="-0.27761">
        <ele>35</ele>
        <time>2024-02-04T08:40:43Z</time>
      </trkpt>
      <trkpt lat="49.22003" lon="-0.2777">
        <ele>35.1</ele>
        <time>2024-02-04T08:40:44Z</time>
      </trkpt>
      <trkpt lat="49.22001" lon="-0.27778">
        <ele>35.1</ele>
        <time>2024-02-04T08:40:45Z</time>
      </trkpt>
      <trkpt lat="49.21997" lon="-0.27786">
        <ele>35.1</ele>
        <time>2024-02-04T08:40:46Z</time>
      </trkpt>
      <trkpt lat="49.21994" lon="-0.27794">
        <ele>35.2</ele>
        <time>2024-02-04T08:40:47Z</time>
      </trkpt>
      <trkpt lat="49.21991" lon="-0.27802">
        <ele>35.2</ele>
        <time>2024-02-04T08:40:48Z</time>
      </trkpt>
      <trkpt lat="49.21988" lon="-0.27811">
        <ele>35.3</ele>
        <time>2024-02-04T08:40:49Z</time>
      </trkpt>
      <trkpt lat="49.21984" lon="-0.27819">
        <ele>35.3</ele>
        <time>2024-02-04T08:40:50Z</time>
      </trkpt>
      <trkpt lat="49.21981" lon="-0.27827">
        <ele>35.3</ele>
        <time>2024-02-04T08:40:51Z</time>
      </trkpt>
      <trkpt lat="49.21978" lon="-0.27836">
        <ele>35.4</ele>
        <time>2024-02-04T08:40:52Z</time>
      </trkpt>
      <trkpt lat="49.21974" lon="-0.27844">
        <ele>35.4</ele>
        <time>2024-02-04T08:40:53Z</time>
      </trkpt>
      <trkpt lat="49.2197" lon="-0.27851">
        <ele>35.5</ele>
        <time>2024-02-04T08:40:54Z</time>
      </trkpt>
      <trkpt lat="49.21966" lon="-0.27859">
        <ele>35.5</ele>
        <time>2024-02-04T08:40:55Z</time>
      </trkpt>
      <trkpt lat="49.21963" lon="-0.27867">
        <ele>35.6</ele>
        <time>2024-02-04T08:40:56Z</time>
      </trkpt>
      <trkpt lat="49.21959" lon="-0.27875">
        <ele>35.6</ele>
        <time>2024-02-04T08:40:57Z</time>
      </trkpt>
      <trkpt lat="49.21955" lon="-0.27883">
        <ele>35.7</ele>
        <time>2024-02-04T08:40:58Z</time>
      </trkpt>
      <trkpt lat="49.21951" lon="-0.27891">
        <ele>35.7</ele>
        <time>2024-02-04T08:40:59Z</time>
      </trkpt>
      <trkpt lat="49.21947" lon="-0.27899">
        <ele>35.7</ele>
        <time>2024-02-04T08:41:00Z</time>
      </trkpt>
      <trkpt lat="49.21943" lon="-0.27907">
        <ele>35.8</ele>
        <time>2024-02-04T08:41:01Z</time>
      </trkpt>
      <trkpt lat="49.21939" lon="-0.27915">
        <ele>35.9</ele>
        <time>2024-02-04T08:41:02Z</time>
      </trkpt>
      <trkpt lat="49.21934" lon="-0.27922">
        <ele>35.9</ele>
        <time>2024-02-04T08:41:03Z</time>
      </trkpt>
      <trkpt lat="49.2193" lon="-0.2793">
        <ele>36</ele>
        <time>2024-02-04T08:41:04Z</time>
      </trkpt>
      <trkpt lat="49.21925" lon="-0.27937">
        <ele>36.1</ele>
        <time>2024-02-04T08:41:05Z</time>
      </trkpt>
      <trkpt lat="49.21921" lon="-0.27944">
        <ele>36.1</ele>
        <time>2024-02-04T08:41:06Z</time>
      </trkpt>
      <trkpt lat="49.21916" lon="-0.27951">
        <ele>36.2</ele>
        <time>2024-02-04T08:41:07Z</time>
      </trkpt>
      <trkpt lat="49.21912" lon="-0.27958">
        <ele>36.3</ele>
        <time>2024-02-04T08:41:08Z</time>
      </trkpt>
      <trkpt lat="49.21908" lon="-0.27965">
        <ele>36.3</ele>
        <time>2024-02-04T08:41:09Z</time>
      </trkpt>
      <trkpt lat="49.21903" lon="-0.27972">
        <ele>36.4</ele>
        <time>2024-02-04T08:41:10Z</time>
      </trkpt>
      <trkpt lat="49.21899" lon="-0.27978">
        <ele>36.5</ele>
        <time>2024-02-04T08:41:11Z</time>
      </trkpt>
      <trkpt lat="49.21894" lon="-0.27985">
        <ele>36.5</ele>
        <time>2024-02-04T08:41:12Z</time>
      </trkpt>
      <trkpt lat="49.2189" lon="-0.27992">
        <ele>36.6</ele>
        <time>2024-02-04T08:41:13Z</time>
      </trkpt>
      <trkpt lat="49.21886" lon="-0.27998">
        <ele>36.6</ele>
        <time>2024-02-04T08:41:14Z</time>
      </trkpt>
      <trkpt lat="49.21881" lon="-0.28005">
        <ele>36.7</ele>
        <time>2024-02-04T08:41:15Z</time>
      </trkpt>
      <trkpt lat="49.21877" lon="-0.28012">
        <ele>36.7</ele>
        <time>2024-02-04T08:41:16Z</time>
      </trkpt>
      <trkpt lat="49.21872" lon="-0.28019">
        <ele>36.8</ele>
        <time>2024-02-04T08:41:17Z</time>
      </trkpt>
      <trkpt lat="49.21868" lon="-0.28026">
        <ele>36.8</ele>
        <time>2024-02-04T08:41:18Z</time>
      </trkpt>
      <trkpt lat="49.21863" lon="-0.28033">
        <ele>36.9</ele>
        <time>2024-02-04T08:41:19Z</time>
      </trkpt>
      <trkpt lat="49.21858" lon="-0.28039">
        <ele>36.9</ele>
        <time>2024-02-04T08:41:20Z</time>
      </trkpt>
      <trkpt lat="49.21853" lon="-0.28046">
        <ele>37</ele>
        <time>2024-02-04T08:41:21Z</time>
      </trkpt>
      <trkpt lat="49.21849" lon="-0.28054">
        <ele>37</ele>
        <time>2024-02-04T08:41:22Z</time>
      </trkpt>
      <trkpt lat="49.21844" lon="-0.28062">
        <ele>37.1</ele>
        <time>2024-02-04T08:41:23Z</time>
      </trkpt>
      <trkpt lat="49.21839" lon="-0.2807">
        <ele>37.2</ele>
        <time>2024-02-04T08:41:24Z</time>
      </trkpt>
      <trkpt lat="49.21834" lon="-0.28078">
        <ele>37.2</ele>
        <time>2024-02-04T08:41:25Z</time>
      </trkpt>
      <trkpt lat="49.2183" lon="-0.28085">
        <ele>37.3</ele>
        <time>2024-02-04T08:41:26Z</time>
      </trkpt>
      <trkpt lat="49.21825" lon="-0.28094">
        <ele>37.4</ele>
        <time>2024-02-04T08:41:27Z</time>
      </trkpt>
      <trkpt lat="49.21821" lon="-0.28102">
        <ele>37.4</ele>
        <time>2024-02-04T08:41:28Z</time>
      </trkpt>
      <trkpt lat="49.21817" lon="-0.28111">
        <ele>37.5</ele>
        <time>2024-02-04T08:41:29Z</time>
      </trkpt>
      <trkpt lat="49.21813" lon="-0.2812">
        <ele>37.6</ele>
        <time>2024-02-04T08:41:30Z</time>
      </trkpt>
      <trkpt lat="49.21809" lon="-0.28129">
        <ele>37.7</ele>
        <time>2024-02-04T08:41:31Z</time>
      </trkpt>
      <trkpt lat="49.21805" lon="-0.28138">
        <ele>37.8</ele>
        <time>2024-02-04T08:41:32Z</time>
      </trkpt>
      <trkpt lat="49.21801" lon="-0.28147">
        <ele>37.9</ele>
        <time>2024-02-04T08:41:33Z</time>
      </trkpt>
      <trkpt lat="49.21798" lon="-0.28156">
        <ele>38</ele>
        <time>2024-02-04T08:41:34Z</time>
      </trkpt>
      <trkpt lat="49.21795" lon="-0.28165">
        <ele>38.1</ele>
        <time>2024-02-04T08:41:35Z</time>
      </trkpt>
      <trkpt lat="49.21791" lon="-0.28175">
        <ele>38.2</ele>
        <time>2024-02-04T08:41:36Z</time>
      </trkpt>
      <trkpt lat="49.21788" lon="-0.28184">
        <ele>38.2</ele>
        <time>2024-02-04T08:41:37Z</time>
      </trkpt>
      <trkpt lat="49.21786" lon="-0.28194">
        <ele>38.3</ele>
        <time>2024-02-04T08:41:38Z</time>
      </trkpt>
      <trkpt lat="49.21783" lon="-0.28203">
        <ele>38.3</ele>
        <time>2024-02-04T08:41:39Z</time>
      </trkpt>
      <trkpt lat="49.21781" lon="-0.28213">
        <ele>38.4</ele>
        <time>2024-02-04T08:41:40Z</time>
      </trkpt>
      <trkpt lat="49.21779" lon="-0.28223">
        <ele>38.4</ele>
        <time>2024-02-04T08:41:41Z</time>
      </trkpt>
      <trkpt lat="49.21776" lon="-0.28233">
        <ele>38.5</ele>
        <time>2024-02-04T08:41:42Z</time>
      </trkpt>
      <trkpt lat="49.21775" lon="-0.28243">
        <ele>38.5</ele>
        <time>2024-02-04T08:41:43Z</time>
      </trkpt>
      <trkpt lat="49.21773" lon="-0.28253">
        <ele>38.5</ele>
        <time>2024-02-04T08:41:44Z</time>
      </trkpt>
      <trkpt lat="49.21772" lon="-0.28263">
        <ele>38.6</ele>
        <time>2024-02-04T08:41:45Z</time>
      </trkpt>
      <trkpt lat="49.21771" lon="-0.28273">
        <ele>38.6</ele>
        <time>2024-02-04T08:41:46Z</time>
      </trkpt>
      <trkpt lat="49.21769" lon="-0.28283">
        <ele>38.6</ele>
        <time>2024-02-04T08:41:47Z</time>
      </trkpt>
      <trkpt lat="49.21767" lon="-0.28293">
        <ele>38.7</ele>
        <time>2024-02-04T08:41:48Z</time>
      </trkpt>
      <trkpt lat="49.21766" lon="-0.28303">
        <ele>38.7</ele>
        <time>2024-02-04T08:41:49Z</time>
      </trkpt>
      <trkpt lat="49.21764" lon="-0.28313">
        <ele>38.8</ele>
        <time>2024-02-04T08:41:50Z</time>
      </trkpt>
      <trkpt lat="49.21762" lon="-0.28323">
        <ele>38.8</ele>
        <time>2024-02-04T08:41:51Z</time>
      </trkpt>
      <trkpt lat="49.21761" lon="-0.28334">
        <ele>38.9</ele>
        <time>2024-02-04T08:41:52Z</time>
      </trkpt>
      <trkpt lat="49.21759" lon="-0.28344">
        <ele>38.9</ele>
        <time>2024-02-04T08:41:53Z</time>
      </trkpt>
      <trkpt lat="49.21757" lon="-0.28354">
        <ele>39</ele>
        <time>2024-02-04T08:41:54Z</time>
      </trkpt>
      <trkpt lat="49.21755" lon="-0.28364">
        <ele>39.1</ele>
        <time>2024-02-04T08:41:55Z</time>
      </trkpt>
      <trkpt lat="49.21753" lon="-0.28374">
        <ele>39.2</ele>
        <time>2024-02-04T08:41:56Z</time>
      </trkpt>
      <trkpt lat="49.21751" lon="-0.28384">
        <ele>39.2</ele>
        <time>2024-02-04T08:41:57Z</time>
      </trkpt>
      <trkpt lat="49.21749" lon="-0.28393">
        <ele>39.3</ele>
        <time>2024-02-04T08:41:58Z</time>
      </trkpt>
      <trkpt lat="49.21746" lon="-0.28402">
        <ele>39.4</ele>
        <time>2024-02-04T08:41:59Z</time>
      </trkpt>
      <trkpt lat="49.21743" lon="-0.28411">
        <ele>39.5</ele>
        <time>2024-02-04T08:42:00Z</time>
      </trkpt>
      <trkpt lat="49.21741" lon="-0.28421">
        <ele>39.6</ele>
        <time>2024-02-04T08:42:01Z</time>
      </trkpt>
      <trkpt lat="49.21738" lon="-0.2843">
        <ele>39.7</ele>
        <time>2024-02-04T08:42:02Z</time>
      </trkpt>
      <trkpt lat="49.21735" lon="-0.28439">
        <ele>39.7</ele>
        <time>2024-02-04T08:42:03Z</time>
      </trkpt>
      <trkpt lat="49.21732" lon="-0.28449">
        <ele>39.8</ele>
        <time>2024-02-04T08:42:04Z</time>
      </trkpt>
      <trkpt lat="49.2173" lon="-0.28458">
        <ele>39.9</ele>
        <time>2024-02-04T08:42:05Z</time>
      </trkpt>
      <trkpt lat="49.21727" lon="-0.28468">
        <ele>39.9</ele>
        <time>2024-02-04T08:42:06Z</time>
      </trkpt>
      <trkpt lat="49.21725" lon="-0.28478">
        <ele>40</ele>
        <time>2024-02-04T08:42:07Z</time>
      </trkpt>
      <trkpt lat="49.21722" lon="-0.28488">
        <ele>40.1</ele>
        <time>2024-02-04T08:42:08Z</time>
      </trkpt>
      <trkpt lat="49.21719" lon="-0.28497">
        <ele>40.1</ele>
        <time>2024-02-04T08:42:09Z</time>
      </trkpt>
      <trkpt lat="49.21716" lon="-0.28507">
        <ele>40.2</ele>
        <time>2024-02-04T08:42:10Z</time>
      </trkpt>
      <trkpt lat="49.21712" lon="-0.28516">
        <ele>40.3</ele>
        <time>2024-02-04T08:42:11Z</time>
      </trkpt>
      <trkpt lat="49.21709" lon="-0.28526">
        <ele>40.3</ele>
        <time>2024-02-04T08:42:12Z</time>
      </trkpt>
      <trkpt lat="49.21706" lon="-0.28535">
        <ele>40.4</ele>
        <time>2024-02-04T08:42:13Z</time>
      </trkpt>
      <trkpt lat="49.21702" lon="-0.28545">
        <ele>40.5</ele>
        <time>2024-02-04T08:42:14Z</time>
      </trkpt>
      <trkpt lat="49.21699" lon="-0.28554">
        <ele>40.5</ele>
        <time>2024-02-04T08:42:15Z</time>
      </trkpt>
      <trkpt lat="49.21696" lon="-0.28563">
        <ele>40.5</ele>
        <time>2024-02-04T08:42:16Z</time>
      </trkpt>
      <trkpt lat="49.21693" lon="-0.28572">
        <ele>40.5</ele>
        <time>2024-02-04T08:42:17Z</time>
      </trkpt>
      <trkpt lat="49.2169" lon="-0.28581">
        <ele>40.5</ele>
        <time>2024-02-04T08:42:18Z</time>
      </trkpt>
      <trkpt lat="49.21687" lon="-0.28591">
        <ele>40.6</ele>
        <time>2024-02-04T08:42:19Z</time>
      </trkpt>
      <trkpt lat="49.21684" lon="-0.286">
        <ele>40.6</ele>
        <time>2024-02-04T08:42:20Z</time>
      </trkpt>
      <trkpt lat="49.21681" lon="-0.28609">
        <ele>40.6</ele>
        <time>2024-02-04T08:42:21Z</time>
      </trkpt>
      <trkpt lat="49.21678" lon="-0.28618">
        <ele>40.6</ele>
        <time>2024-02-04T08:42:22Z</time>
      </trkpt>
      <trkpt lat="49.21674" lon="-0.28627">
        <ele>40.6</ele>
        <time>2024-02-04T08:42:23Z</time>
      </trkpt>
      <trkpt lat="49.21671" lon="-0.28636">
        <ele>40.6</ele>
        <time>2024-02-04T08:42:24Z</time>
      </trkpt>
      <trkpt lat="49.21668" lon="-0.28646">
        <ele>40.6</ele>
        <time>2024-02-04T08:42:25Z</time>
      </trkpt>
      <trkpt lat="49.21665" lon="-0.28655">
        <ele>40.6</ele>
        <time>2024-02-04T08:42:26Z</time>
      </trkpt>
      <trkpt lat="49.21662" lon="-0.28665">
        <ele>40.5</ele>
        <time>2024-02-04T08:42:27Z</time>
      </trkpt>
      <trkpt lat="49.21658" lon="-0.28676">
        <ele>40.5</ele>
        <time>2024-02-04T08:42:28Z</time>
      </trkpt>
      <trkpt lat="49.21655" lon="-0.28686">
        <ele>40.4</ele>
        <time>2024-02-04T08:42:29Z</time>
      </trkpt>
      <trkpt lat="49.21651" lon="-0.28695">
        <ele>40.4</ele>
        <time>2024-02-04T08:42:30Z</time>
      </trkpt>
      <trkpt lat="49.21646" lon="-0.28705">
        <ele>40.4</ele>
        <time>2024-02-04T08:42:31Z</time>
      </trkpt>
      <trkpt lat="49.21642" lon="-0.28714">
        <ele>40.3</ele>
        <time>2024-02-04T08:42:32Z</time>
      </trkpt>
      <trkpt lat="49.21638" lon="-0.28724">
        <ele>40.3</ele>
        <time>2024-02-04T08:42:33Z</time>
      </trkpt>
      <trkpt lat="49.21634" lon="-0.28733">
        <ele>40.2</ele>
        <time>2024-02-04T08:42:34Z</time>
      </trkpt>
      <trkpt lat="49.2163" lon="-0.28743">
        <ele>40.2</ele>
        <time>2024-02-04T08:42:35Z</time>
      </trkpt>
      <trkpt lat="49.21625" lon="-0.28752">
        <ele>40.1</ele>
        <time>2024-02-04T08:42:36Z</time>
      </trkpt>
      <trkpt lat="49.21621" lon="-0.28761">
        <ele>40.1</ele>
        <time>2024-02-04T08:42:37Z</time>
      </trkpt>
      <trkpt lat="49.21617" lon="-0.28771">
        <ele>40</ele>
        <time>2024-02-04T08:42:38Z</time>
      </trkpt>
      <trkpt lat="49.21613" lon="-0.2878">
        <ele>39.9</ele>
        <time>2024-02-04T08:42:39Z</time>
      </trkpt>
      <trkpt lat="49.21608" lon="-0.28789">
        <ele>39.9</ele>
        <time>2024-02-04T08:42:40Z</time>
      </trkpt>
      <trkpt lat="49.21604" lon="-0.28799">
        <ele>39.8</ele>
        <time>2024-02-04T08:42:41Z</time>
      </trkpt>
      <trkpt lat="49.216" lon="-0.28808">
        <ele>39.7</ele>
        <time>2024-02-04T08:42:42Z</time>
      </trkpt>
      <trkpt lat="49.21596" lon="-0.28817">
        <ele>39.6</ele>
        <time>2024-02-04T08:42:43Z</time>
      </trkpt>
      <trkpt lat="49.21592" lon="-0.28826">
        <ele>39.6</ele>
        <time>2024-02-04T08:42:44Z</time>
      </trkpt>
      <trkpt lat="49.21588" lon="-0.28834">
        <ele>39.5</ele>
        <time>2024-02-04T08:42:45Z</time>
      </trkpt>
      <trkpt lat="49.21584" lon="-0.28843">
        <ele>39.4</ele>
        <time>2024-02-04T08:42:46Z</time>
      </trkpt>
      <trkpt lat="49.2158" lon="-0.28852">
        <ele>39.2</ele>
        <time>2024-02-04T08:42:47Z</time>
      </trkpt>
      <trkpt lat="49.21576" lon="-0.28861">
        <ele>39.1</ele>
        <time>2024-02-04T08:42:48Z</time>
      </trkpt>
      <trkpt lat="49.21572" lon="-0.28869">
        <ele>39</ele>
        <time>2024-02-04T08:42:49Z</time>
      </trkpt>
      <trkpt lat="49.21568" lon="-0.28878">
        <ele>38.9</ele>
        <time>2024-02-04T08:42:50Z</time>
      </trkpt>
      <trkpt lat="49.21564" lon="-0.28887">
        <ele>38.8</ele>
        <time>2024-02-04T08:42:51Z</time>
      </trkpt>
      <trkpt lat="49.2156" lon="-0.28896">
        <ele>38.7</ele>
        <time>2024-02-04T08:42:52Z</time>
      </trkpt>
      <trkpt lat="49.21557" lon="-0.28905">
        <ele>38.6</ele>
        <time>2024-02-04T08:42:53Z</time>
      </trkpt>
      <trkpt lat="49.21552" lon="-0.28914">
        <ele>38.5</ele>
        <time>2024-02-04T08:42:54Z</time>
      </trkpt>
      <trkpt lat="49.21547" lon="-0.28923">
        <ele>38.4</ele>
        <time>2024-02-04T08:42:55Z</time>
      </trkpt>
      <trkpt lat="49.21541" lon="-0.28932">
        <ele>38.3</ele>
        <time>2024-02-04T08:42:56Z</time>
      </trkpt>
      <trkpt lat="49.21535" lon="-0.28939">
        <ele>38.2</ele>
        <time>2024-02-04T08:42:57Z</time>
      </trkpt>
      <trkpt lat="49.21529" lon="-0.28946">
        <ele>38.1</ele>
        <time>2024-02-04T08:42:58Z</time>
      </trkpt>
      <trkpt lat="49.21522" lon="-0.28952">
        <ele>38</ele>
        <time>2024-02-04T08:42:59Z</time>
      </trkpt>
      <trkpt lat="49.21515" lon="-0.28958">
        <ele>38</ele>
        <time>2024-02-04T08:43:00Z</time>
      </trkpt>
      <trkpt lat="49.21508" lon="-0.28964">
        <ele>37.9</ele>
        <time>2024-02-04T08:43:01Z</time>
      </trkpt>
      <trkpt lat="49.21501" lon="-0.2897">
        <ele>37.8</ele>
        <time>2024-02-04T08:43:02Z</time>
      </trkpt>
      <trkpt lat="49.21494" lon="-0.28975">
        <ele>37.7</ele>
        <time>2024-02-04T08:43:03Z</time>
      </trkpt>
      <trkpt lat="49.21487" lon="-0.28981">
        <ele>37.7</ele>
        <time>2024-02-04T08:43:04Z</time>
      </trkpt>
      <trkpt lat="49.2148" lon="-0.28986">
        <ele>37.7</ele>
        <time>2024-02-04T08:43:05Z</time>
      </trkpt>
      <trkpt lat="49.21473" lon="-0.28991">
        <ele>37.6</ele>
        <time>2024-02-04T08:43:06Z</time>
      </trkpt>
      <trkpt lat="49.21467" lon="-0.28997">
        <ele>37.6</ele>
        <time>2024-02-04T08:43:07Z</time>
      </trkpt>
      <trkpt lat="49.2146" lon="-0.29002">
        <ele>37.5</ele>
        <time>2024-02-04T08:43:08Z</time>
      </trkpt>
      <trkpt lat="49.21454" lon="-0.29008">
        <ele>37.5</ele>
        <time>2024-02-04T08:43:09Z</time>
      </trkpt>
      <trkpt lat="49.21447" lon="-0.29014">
        <ele>37.5</ele>
        <time>2024-02-04T08:43:10Z</time>
      </trkpt>
      <trkpt lat="49.21441" lon="-0.29019">
        <ele>37.5</ele>
        <time>2024-02-04T08:43:11Z</time>
      </trkpt>
      <trkpt lat="49.21435" lon="-0.29026">
        <ele>37.5</ele>
        <time>2024-02-04T08:43:12Z</time>
      </trkpt>
      <trkpt lat="49.21429" lon="-0.29032">
        <ele>37.5</ele>
        <time>2024-02-04T08:43:13Z</time>
      </trkpt>
      <trkpt lat="49.21423" lon="-0.29038">
        <ele>37.5</ele>
        <time>2024-02-04T08:43:14Z</time>
      </trkpt>
      <trkpt lat="49.21416" lon="-0.29045">
        <ele>37.5</ele>
        <time>2024-02-04T08:43:15Z</time>
      </trkpt>
      <trkpt lat="49.2141" lon="-0.29051">
        <ele>37.6</ele>
        <time>2024-02-04T08:43:16Z</time>
      </trkpt>
      <trkpt lat="49.21404" lon="-0.29057">
        <ele>37.6</ele>
        <time>2024-02-04T08:43:17Z</time>
      </trkpt>
      <trkpt lat="49.21397" lon="-0.29063">
        <ele>37.6</ele>
        <time>2024-02-04T08:43:18Z</time>
      </trkpt>
      <trkpt lat="49.21391" lon="-0.29069">
        <ele>37.7</ele>
        <time>2024-02-04T08:43:19Z</time>
      </trkpt>
      <trkpt lat="49.21385" lon="-0.29075">
        <ele>37.7</ele>
        <time>2024-02-04T08:43:20Z</time>
      </trkpt>
      <trkpt lat="49.21379" lon="-0.29081">
        <ele>37.7</ele>
        <time>2024-02-04T08:43:21Z</time>
      </trkpt>
      <trkpt lat="49.21374" lon="-0.29087">
        <ele>37.7</ele>
        <time>2024-02-04T08:43:22Z</time>
      </trkpt>
      <trkpt lat="49.21367" lon="-0.29092">
        <ele>37.7</ele>
        <time>2024-02-04T08:43:23Z</time>
      </trkpt>
      <trkpt lat="49.21361" lon="-0.29098">
        <ele>37.8</ele>
        <time>2024-02-04T08:43:24Z</time>
      </trkpt>
      <trkpt lat="49.21355" lon="-0.29104">
        <ele>37.8</ele>
        <time>2024-02-04T08:43:25Z</time>
      </trkpt>
      <trkpt lat="49.2135" lon="-0.29109">
        <ele>37.8</ele>
        <time>2024-02-04T08:43:26Z</time>
      </trkpt>
      <trkpt lat="49.21344" lon="-0.29115">
        <ele>37.8</ele>
        <time>2024-02-04T08:43:27Z</time>
      </trkpt>
      <trkpt lat="49.21338" lon="-0.2912">
        <ele>37.7</ele>
        <time>2024-02-04T08:43:28Z</time>
      </trkpt>
      <trkpt lat="49.21331" lon="-0.29126">
        <ele>37.7</ele>
        <time>2024-02-04T08:43:29Z</time>
      </trkpt>
      <trkpt lat="49.21325" lon="-0.29132">
        <ele>37.7</ele>
        <time>2024-02-04T08:43:30Z</time>
      </trkpt>
      <trkpt lat="49.21319" lon="-0.29138">
        <ele>37.6</ele>
        <time>2024-02-04T08:43:31Z</time>
      </trkpt>
      <trkpt lat="49.21313" lon="-0.29144">
        <ele>37.6</ele>
        <time>2024-02-04T08:43:32Z</time>
      </trkpt>
      <trkpt lat="49.21307" lon="-0.2915">
        <ele>37.6</ele>
        <time>2024-02-04T08:43:33Z</time>
      </trkpt>
      <trkpt lat="49.213" lon="-0.29156">
        <ele>37.5</ele>
        <time>2024-02-04T08:43:34Z</time>
      </trkpt>
      <trkpt lat="49.21294" lon="-0.29161">
        <ele>37.5</ele>
        <time>2024-02-04T08:43:35Z</time>
      </trkpt>
      <trkpt lat="49.21288" lon="-0.29168">
        <ele>37.5</ele>
        <time>2024-02-04T08:43:36Z</time>
      </trkpt>
      <trkpt lat="49.21282" lon="-0.29174">
        <ele>37.4</ele>
        <time>2024-02-04T08:43:37Z</time>
      </trkpt>
      <trkpt lat="49.21276" lon="-0.2918">
        <ele>37.4</ele>
        <time>2024-02-04T08:43:38Z</time>
      </trkpt>
      <trkpt lat="49.2127" lon="-0.29187">
        <ele>37.4</ele>
        <time>2024-02-04T08:43:39Z</time>
      </trkpt>
      <trkpt lat="49.21264" lon="-0.29193">
        <ele>37.3</ele>
        <time>2024-02-04T08:43:40Z</time>
      </trkpt>
      <trkpt lat="49.21259" lon="-0.292">
        <ele>37.3</ele>
        <time>2024-02-04T08:43:41Z</time>
      </trkpt>
      <trkpt lat="49.21253" lon="-0.29206">
        <ele>37.3</ele>
        <time>2024-02-04T08:43:42Z</time>
      </trkpt>
      <trkpt lat="49.21247" lon="-0.29212">
        <ele>37.3</ele>
        <time>2024-02-04T08:43:43Z</time>
      </trkpt>
      <trkpt lat="49.21242" lon="-0.29219">
        <ele>37.2</ele>
        <time>2024-02-04T08:43:44Z</time>
      </trkpt>
      <trkpt lat="49.21236" lon="-0.29226">
        <ele>37.2</ele>
        <time>2024-02-04T08:43:45Z</time>
      </trkpt>
      <trkpt lat="49.21231" lon="-0.29233">
        <ele>37.2</ele>
        <time>2024-02-04T08:43:46Z</time>
      </trkpt>
      <trkpt lat="49.21225" lon="-0.2924">
        <ele>37.1</ele>
        <time>2024-02-04T08:43:47Z</time>
      </trkpt>
      <trkpt lat="49.2122" lon="-0.29247">
        <ele>37.1</ele>
        <time>2024-02-04T08:43:48Z</time>
      </trkpt>
      <trkpt lat="49.21213" lon="-0.29253">
        <ele>37.1</ele>
        <time>2024-02-04T08:43:49Z</time>
      </trkpt>
      <trkpt lat="49.21208" lon="-0.2926">
        <ele>37.1</ele>
        <time>2024-02-04T08:43:50Z</time>
      </trkpt>
      <trkpt lat="49.21202" lon="-0.29267">
        <ele>37.1</ele>
        <time>2024-02-04T08:43:51Z</time>
      </trkpt>
      <trkpt lat="49.21197" lon="-0.29273">
        <ele>37.1</ele>
        <time>2024-02-04T08:43:52Z</time>
      </trkpt>
      <trkpt lat="49.21191" lon="-0.29279">
        <ele>37</ele>
        <time>2024-02-04T08:43:53Z</time>
      </trkpt>
      <trkpt lat="49.21186" lon="-0.29285">
        <ele>37</ele>
        <time>2024-02-04T08:43:54Z</time>
      </trkpt>
      <trkpt lat="49.2118" lon="-0.29291">
        <ele>37.1</ele>
        <time>2024-02-04T08:43:55Z</time>
      </trkpt>
      <trkpt lat="49.21174" lon="-0.29296">
        <ele>37.1</ele>
        <time>2024-02-04T08:43:56Z</time>
      </trkpt>
      <trkpt lat="49.21168" lon="-0.29301">
        <ele>37.1</ele>
        <time>2024-02-04T08:43:57Z</time>
      </trkpt>
      <trkpt lat="49.21162" lon="-0.29306">
        <ele>37.2</ele>
        <time>2024-02-04T08:43:58Z</time>
      </trkpt>
      <trkpt lat="49.21157" lon="-0.29312">
        <ele>37.2</ele>
        <time>2024-02-04T08:43:59Z</time>
      </trkpt>
      <trkpt lat="49.21151" lon="-0.29317">
        <ele>37.2</ele>
        <time>2024-02-04T08:44:00Z</time>
      </trkpt>
      <trkpt lat="49.21145" lon="-0.29322">
        <ele>37.3</ele>
        <time>2024-02-04T08:44:01Z</time>
      </trkpt>
      <trkpt lat="49.2114" lon="-0.29328">
        <ele>37.3</ele>
        <time>2024-02-04T08:44:02Z</time>
      </trkpt>
      <trkpt lat="49.21134" lon="-0.29333">
        <ele>37.4</ele>
        <time>2024-02-04T08:44:03Z</time>
      </trkpt>
      <trkpt lat="49.21128" lon="-0.29338">
        <ele>37.4</ele>
        <time>2024-02-04T08:44:04Z</time>
      </trkpt>
      <trkpt lat="49.21123" lon="-0.29342">
        <ele>37.5</ele>
        <time>2024-02-04T08:44:05Z</time>
      </trkpt>
      <trkpt lat="49.21118" lon="-0.29347">
        <ele>37.5</ele>
        <time>2024-02-04T08:44:06Z</time>
      </trkpt>
      <trkpt lat="49.21112" lon="-0.29351">
        <ele>37.5</ele>
        <time>2024-02-04T08:44:07Z</time>
      </trkpt>
      <trkpt lat="49.21106" lon="-0.29356">
        <ele>37.6</ele>
        <time>2024-02-04T08:44:08Z</time>
      </trkpt>
      <trkpt lat="49.211" lon="-0.29361">
        <ele>37.6</ele>
        <time>2024-02-04T08:44:09Z</time>
      </trkpt>
      <trkpt lat="49.21094" lon="-0.29366">
        <ele>37.7</ele>
        <time>2024-02-04T08:44:10Z</time>
      </trkpt>
      <trkpt lat="49.21088" lon="-0.29372">
        <ele>37.7</ele>
        <time>2024-02-04T08:44:11Z</time>
      </trkpt>
      <trkpt lat="49.21083" lon="-0.29378">
        <ele>37.7</ele>
        <time>2024-02-04T08:44:12Z</time>
      </trkpt>
      <trkpt lat="49.21077" lon="-0.29383">
        <ele>37.8</ele>
        <time>2024-02-04T08:44:13Z</time>
      </trkpt>
      <trkpt lat="49.21071" lon="-0.29389">
        <ele>37.8</ele>
        <time>2024-02-04T08:44:14Z</time>
      </trkpt>
      <trkpt lat="49.21066" lon="-0.29395">
        <ele>37.8</ele>
        <time>2024-02-04T08:44:15Z</time>
      </trkpt>
      <trkpt lat="49.2106" lon="-0.29401">
        <ele>37.8</ele>
        <time>2024-02-04T08:44:16Z</time>
      </trkpt>
      <trkpt lat="49.21055" lon="-0.29408">
        <ele>37.9</ele>
        <time>2024-02-04T08:44:17Z</time>
      </trkpt>
      <trkpt lat="49.2105" lon="-0.29414">
        <ele>37.9</ele>
        <time>2024-02-04T08:44:18Z</time>
      </trkpt>
      <trkpt lat="49.21044" lon="-0.2942">
        <ele>38</ele>
        <time>2024-02-04T08:44:19Z</time>
      </trkpt>
      <trkpt lat="49.21039" lon="-0.29426">
        <ele>38.1</ele>
        <time>2024-02-04T08:44:20Z</time>
      </trkpt>
      <trkpt lat="49.21034" lon="-0.29433">
        <ele>38.1</ele>
        <time>2024-02-04T08:44:21Z</time>
      </trkpt>
      <trkpt lat="49.21029" lon="-0.29439">
        <ele>38.2</ele>
        <time>2024-02-04T08:44:22Z</time>
      </trkpt>
      <trkpt lat="49.21024" lon="-0.29446">
        <ele>38.3</ele>
        <time>2024-02-04T08:44:23Z</time>
      </trkpt>
      <trkpt lat="49.21019" lon="-0.29452">
        <ele>38.3</ele>
        <time>2024-02-04T08:44:24Z</time>
      </trkpt>
      <trkpt lat="49.21014" lon="-0.29458">
        <ele>38.4</ele>
        <time>2024-02-04T08:44:25Z</time>
      </trkpt>
      <trkpt lat="49.21008" lon="-0.29465">
        <ele>38.4</ele>
        <time>2024-02-04T08:44:26Z</time>
      </trkpt>
      <trkpt lat="49.21002" lon="-0.29472">
        <ele>38.5</ele>
        <time>2024-02-04T08:44:27Z</time>
      </trkpt>
      <trkpt lat="49.20997" lon="-0.29478">
        <ele>38.5</ele>
        <time>2024-02-04T08:44:28Z</time>
      </trkpt>
      <trkpt lat="49.20992" lon="-0.29484">
        <ele>38.6</ele>
        <time>2024-02-04T08:44:29Z</time>
      </trkpt>
      <trkpt lat="49.20986" lon="-0.29491">
        <ele>38.7</ele>
        <time>2024-02-04T08:44:30Z</time>
      </trkpt>
      <trkpt lat="49.20981" lon="-0.29497">
        <ele>38.8</ele>
        <time>2024-02-04T08:44:31Z</time>
      </trkpt>
      <trkpt lat="49.20975" lon="-0.29503">
        <ele>38.8</ele>
        <time>2024-02-04T08:44:32Z</time>
      </trkpt>
      <trkpt lat="49.20969" lon="-0.2951">
        <ele>38.9</ele>
        <time>2024-02-04T08:44:33Z</time>
      </trkpt>
      <trkpt lat="49.20963" lon="-0.29516">
        <ele>39</ele>
        <time>2024-02-04T08:44:34Z</time>
      </trkpt>
      <trkpt lat="49.20957" lon="-0.29523">
        <ele>39.1</ele>
        <time>2024-02-04T08:44:35Z</time>
      </trkpt>
      <trkpt lat="49.20951" lon="-0.2953">
        <ele>39.2</ele>
        <time>2024-02-04T08:44:36Z</time>
      </trkpt>
      <trkpt lat="49.20946" lon="-0.29536">
        <ele>39.3</ele>
        <time>2024-02-04T08:44:37Z</time>
      </trkpt>
      <trkpt lat="49.2094" lon="-0.29543">
        <ele>39.4</ele>
        <time>2024-02-04T08:44:38Z</time>
      </trkpt>
      <trkpt lat="49.20934" lon="-0.29548">
        <ele>39.5</ele>
        <time>2024-02-04T08:44:39Z</time>
      </trkpt>
      <trkpt lat="49.20929" lon="-0.29555">
        <ele>39.6</ele>
        <time>2024-02-04T08:44:40Z</time>
      </trkpt>
      <trkpt lat="49.20924" lon="-0.29561">
        <ele>39.7</ele>
        <time>2024-02-04T08:44:41Z</time>
      </trkpt>
      <trkpt lat="49.20919" lon="-0.29567">
        <ele>39.8</ele>
        <time>2024-02-04T08:44:42Z</time>
      </trkpt>
      <trkpt lat="49.20913" lon="-0.29574">
        <ele>39.9</ele>
        <time>2024-02-04T08:44:43Z</time>
      </trkpt>
      <trkpt lat="49.20908" lon="-0.2958">
        <ele>40.1</ele>
        <time>2024-02-04T08:44:44Z</time>
      </trkpt>
      <trkpt lat="49.20902" lon="-0.29587">
        <ele>40.2</ele>
        <time>2024-02-04T08:44:45Z</time>
      </trkpt>
      <trkpt lat="49.20897" lon="-0.29593">
        <ele>40.3</ele>
        <time>2024-02-04T08:44:46Z</time>
      </trkpt>
      <trkpt lat="49.20892" lon="-0.29599">
        <ele>40.4</ele>
        <time>2024-02-04T08:44:47Z</time>
      </trkpt>
      <trkpt lat="49.20886" lon="-0.29606">
        <ele>40.4</ele>
        <time>2024-02-04T08:44:48Z</time>
      </trkpt>
      <trkpt lat="49.20881" lon="-0.29612">
        <ele>40.5</ele>
        <time>2024-02-04T08:44:49Z</time>
      </trkpt>
      <trkpt lat="49.20877" lon="-0.29618">
        <ele>40.6</ele>
        <time>2024-02-04T08:44:50Z</time>
      </trkpt>
      <trkpt lat="49.20871" lon="-0.29625">
        <ele>40.6</ele>
        <time>2024-02-04T08:44:51Z</time>
      </trkpt>
      <trkpt lat="49.20866" lon="-0.29631">
        <ele>40.7</ele>
        <time>2024-02-04T08:44:52Z</time>
      </trkpt>
      <trkpt lat="49.2086" lon="-0.29638">
        <ele>40.8</ele>
        <time>2024-02-04T08:44:53Z</time>
      </trkpt>
      <trkpt lat="49.20855" lon="-0.29644">
        <ele>40.9</ele>
        <time>2024-02-04T08:44:54Z</time>
      </trkpt>
      <trkpt lat="49.2085" lon="-0.29649">
        <ele>41</ele>
        <time>2024-02-04T08:44:55Z</time>
      </trkpt>
      <trkpt lat="49.20846" lon="-0.29653">
        <ele>41</ele>
        <time>2024-02-04T08:44:56Z</time>
      </trkpt>
      <trkpt lat="49.20842" lon="-0.29658">
        <ele>41.1</ele>
        <time>2024-02-04T08:44:57Z</time>
      </trkpt>
      <trkpt lat="49.20839" lon="-0.29662">
        <ele>41.1</ele>
        <time>2024-02-04T08:44:58Z</time>
      </trkpt>
      <trkpt lat="49.20836" lon="-0.29666">
        <ele>41.2</ele>
        <time>2024-02-04T08:44:59Z</time>
      </trkpt>
      <trkpt lat="49.20833" lon="-0.29669">
        <ele>41.2</ele>
        <time>2024-02-04T08:45:00Z</time>
      </trkpt>
      <trkpt lat="49.2083" lon="-0.29672">
        <ele>41.3</ele>
        <time>2024-02-04T08:45:01Z</time>
      </trkpt>
      <trkpt lat="49.20827" lon="-0.29676">
        <ele>41.3</ele>
        <time>2024-02-04T08:45:02Z</time>
      </trkpt>
      <trkpt lat="49.20824" lon="-0.29679">
        <ele>41.4</ele>
        <time>2024-02-04T08:45:03Z</time>
      </trkpt>
      <trkpt lat="49.20821" lon="-0.29683">
        <ele>41.4</ele>
        <time>2024-02-04T08:45:04Z</time>
      </trkpt>
      <trkpt lat="49.20818" lon="-0.29687">
        <ele>41.4</ele>
        <time>2024-02-04T08:45:05Z</time>
      </trkpt>
      <trkpt lat="49.20814" lon="-0.29692">
        <ele>41.4</ele>
        <time>2024-02-04T08:45:06Z</time>
      </trkpt>
      <trkpt lat="49.20809" lon="-0.29698">
        <ele>41.4</ele>
        <time>2024-02-04T08:45:07Z</time>
      </trkpt>
      <trkpt lat="49.20804" lon="-0.29703">
        <ele>41.4</ele>
        <time>2024-02-04T08:45:08Z</time>
      </trkpt>
      <trkpt lat="49.20799" lon="-0.29709">
        <ele>41.4</ele>
        <time>2024-02-04T08:45:09Z</time>
      </trkpt>
      <trkpt lat="49.20795" lon="-0.29715">
        <ele>41.4</ele>
        <time>2024-02-04T08:45:10Z</time>
      </trkpt>
      <trkpt lat="49.2079" lon="-0.29721">
        <ele>41.4</ele>
        <time>2024-02-04T08:45:11Z</time>
      </trkpt>
      <trkpt lat="49.20786" lon="-0.29727">
        <ele>41.4</ele>
        <time>2024-02-04T08:45:12Z</time>
      </trkpt>
      <trkpt lat="49.20781" lon="-0.29733">
        <ele>41.3</ele>
        <time>2024-02-04T08:45:13Z</time>
      </trkpt>
      <trkpt lat="49.20776" lon="-0.29739">
        <ele>41.3</ele>
        <time>2024-02-04T08:45:14Z</time>
      </trkpt>
      <trkpt lat="49.20771" lon="-0.29745">
        <ele>41.2</ele>
        <time>2024-02-04T08:45:15Z</time>
      </trkpt>
      <trkpt lat="49.20766" lon="-0.29751">
        <ele>41.2</ele>
        <time>2024-02-04T08:45:16Z</time>
      </trkpt>
      <trkpt lat="49.20761" lon="-0.29757">
        <ele>41</ele>
        <time>2024-02-04T08:45:17Z</time>
      </trkpt>
      <trkpt lat="49.20756" lon="-0.29764">
        <ele>40.9</ele>
        <time>2024-02-04T08:45:18Z</time>
      </trkpt>
      <trkpt lat="49.20751" lon="-0.2977">
        <ele>40.8</ele>
        <time>2024-02-04T08:45:19Z</time>
      </trkpt>
      <trkpt lat="49.20745" lon="-0.29777">
        <ele>40.7</ele>
        <time>2024-02-04T08:45:20Z</time>
      </trkpt>
      <trkpt lat="49.2074" lon="-0.29783">
        <ele>40.5</ele>
        <time>2024-02-04T08:45:21Z</time>
      </trkpt>
      <trkpt lat="49.20735" lon="-0.29791">
        <ele>40.3</ele>
        <time>2024-02-04T08:45:22Z</time>
      </trkpt>
      <trkpt lat="49.20729" lon="-0.29798">
        <ele>40.1</ele>
        <time>2024-02-04T08:45:23Z</time>
      </trkpt>
      <trkpt lat="49.20723" lon="-0.29805">
        <ele>39.9</ele>
        <time>2024-02-04T08:45:24Z</time>
      </trkpt>
      <trkpt lat="49.20717" lon="-0.29812">
        <ele>39.6</ele>
        <time>2024-02-04T08:45:25Z</time>
      </trkpt>
      <trkpt lat="49.20712" lon="-0.2982">
        <ele>39.4</ele>
        <time>2024-02-04T08:45:26Z</time>
      </trkpt>
      <trkpt lat="49.20706" lon="-0.29827">
        <ele>39.1</ele>
        <time>2024-02-04T08:45:27Z</time>
      </trkpt>
      <trkpt lat="49.207" lon="-0.29835">
        <ele>38.9</ele>
        <time>2024-02-04T08:45:28Z</time>
      </trkpt>
      <trkpt lat="49.20695" lon="-0.29842">
        <ele>38.6</ele>
        <time>2024-02-04T08:45:29Z</time>
      </trkpt>
      <trkpt lat="49.2069" lon="-0.29849">
        <ele>38.3</ele>
        <time>2024-02-04T08:45:30Z</time>
      </trkpt>
      <trkpt lat="49.20686" lon="-0.29854">
        <ele>38.1</ele>
        <time>2024-02-04T08:45:31Z</time>
      </trkpt>
      <trkpt lat="49.20681" lon="-0.29859">
        <ele>37.9</ele>
        <time>2024-02-04T08:45:32Z</time>
      </trkpt>
      <trkpt lat="49.20678" lon="-0.29864">
        <ele>37.7</ele>
        <time>2024-02-04T08:45:33Z</time>
      </trkpt>
      <trkpt lat="49.20674" lon="-0.29869">
        <ele>37.5</ele>
        <time>2024-02-04T08:45:34Z</time>
      </trkpt>
      <trkpt lat="49.2067" lon="-0.29874">
        <ele>37.3</ele>
        <time>2024-02-04T08:45:35Z</time>
      </trkpt>
      <trkpt lat="49.20666" lon="-0.29879">
        <ele>37.1</ele>
        <time>2024-02-04T08:45:36Z</time>
      </trkpt>
      <trkpt lat="49.20662" lon="-0.29885">
        <ele>36.9</ele>
        <time>2024-02-04T08:45:37Z</time>
      </trkpt>
      <trkpt lat="49.20658" lon="-0.29891">
        <ele>36.8</ele>
        <time>2024-02-04T08:45:38Z</time>
      </trkpt>
      <trkpt lat="49.20653" lon="-0.29898">
        <ele>36.7</ele>
        <time>2024-02-04T08:45:39Z</time>
      </trkpt>
      <trkpt lat="49.20647" lon="-0.29905">
        <ele>36.5</ele>
        <time>2024-02-04T08:45:40Z</time>
      </trkpt>
      <trkpt lat="49.20641" lon="-0.29912">
        <ele>36.2</ele>
        <time>2024-02-04T08:45:41Z</time>
      </trkpt>
      <trkpt lat="49.20635" lon="-0.2992">
        <ele>36</ele>
        <time>2024-02-04T08:45:42Z</time>
      </trkpt>
      <trkpt lat="49.20629" lon="-0.29927">
        <ele>35.8</ele>
        <time>2024-02-04T08:45:43Z</time>
      </trkpt>
      <trkpt lat="49.20623" lon="-0.29935">
        <ele>35.7</ele>
        <time>2024-02-04T08:45:44Z</time>
      </trkpt>
      <trkpt lat="49.20618" lon="-0.29942">
        <ele>35.5</ele>
        <time>2024-02-04T08:45:45Z</time>
      </trkpt>
      <trkpt lat="49.20612" lon="-0.2995">
        <ele>35.4</ele>
        <time>2024-02-04T08:45:46Z</time>
      </trkpt>
      <trkpt lat="49.20607" lon="-0.29958">
        <ele>35.3</ele>
        <time>2024-02-04T08:45:47Z</time>
      </trkpt>
      <trkpt lat="49.20601" lon="-0.29965">
        <ele>35.2</ele>
        <time>2024-02-04T08:45:48Z</time>
      </trkpt>
      <trkpt lat="49.20595" lon="-0.29972">
        <ele>35.1</ele>
        <time>2024-02-04T08:45:49Z</time>
      </trkpt>
      <trkpt lat="49.2059" lon="-0.2998">
        <ele>35</ele>
        <time>2024-02-04T08:45:50Z</time>
      </trkpt>
      <trkpt lat="49.20584" lon="-0.29986">
        <ele>34.9</ele>
        <time>2024-02-04T08:45:51Z</time>
      </trkpt>
      <trkpt lat="49.20579" lon="-0.29993">
        <ele>34.9</ele>
        <time>2024-02-04T08:45:52Z</time>
      </trkpt>
      <trkpt lat="49.20574" lon="-0.3">
        <ele>34.8</ele>
        <time>2024-02-04T08:45:53Z</time>
      </trkpt>
      <trkpt lat="49.20569" lon="-0.30007">
        <ele>34.8</ele>
        <time>2024-02-04T08:45:54Z</time>
      </trkpt>
      <trkpt lat="49.20564" lon="-0.30014">
        <ele>34.7</ele>
        <time>2024-02-04T08:45:55Z</time>
      </trkpt>
      <trkpt lat="49.20559" lon="-0.30021">
        <ele>34.7</ele>
        <time>2024-02-04T08:45:56Z</time>
      </trkpt>
      <trkpt lat="49.20554" lon="-0.30027">
        <ele>34.7</ele>
        <time>2024-02-04T08:45:57Z</time>
      </trkpt>
      <trkpt lat="49.20548" lon="-0.30034">
        <ele>34.6</ele>
        <time>2024-02-04T08:45:58Z</time>
      </trkpt>
      <trkpt lat="49.20543" lon="-0.30041">
        <ele>34.6</ele>
        <time>2024-02-04T08:45:59Z</time>
      </trkpt>
      <trkpt lat="49.20538" lon="-0.30047">
        <ele>34.5</ele>
        <time>2024-02-04T08:46:00Z</time>
      </trkpt>
      <trkpt lat="49.20533" lon="-0.30054">
        <ele>34.5</ele>
        <time>2024-02-04T08:46:01Z</time>
      </trkpt>
      <trkpt lat="49.20528" lon="-0.3006">
        <ele>34.5</ele>
        <time>2024-02-04T08:46:02Z</time>
      </trkpt>
      <trkpt lat="49.20522" lon="-0.30067">
        <ele>34.4</ele>
        <time>2024-02-04T08:46:03Z</time>
      </trkpt>
      <trkpt lat="49.20517" lon="-0.30074">
        <ele>34.4</ele>
        <time>2024-02-04T08:46:04Z</time>
      </trkpt>
      <trkpt lat="49.20512" lon="-0.30081">
        <ele>34.4</ele>
        <time>2024-02-04T08:46:05Z</time>
      </trkpt>
      <trkpt lat="49.20506" lon="-0.30088">
        <ele>34.4</ele>
        <time>2024-02-04T08:46:06Z</time>
      </trkpt>
      <trkpt lat="49.20501" lon="-0.30094">
        <ele>34.3</ele>
        <time>2024-02-04T08:46:07Z</time>
      </trkpt>
      <trkpt lat="49.20495" lon="-0.30099">
        <ele>34.3</ele>
        <time>2024-02-04T08:46:08Z</time>
      </trkpt>
      <trkpt lat="49.20489" lon="-0.30104">
        <ele>34.2</ele>
        <time>2024-02-04T08:46:09Z</time>
      </trkpt>
      <trkpt lat="49.20483" lon="-0.3011">
        <ele>34.1</ele>
        <time>2024-02-04T08:46:10Z</time>
      </trkpt>
      <trkpt lat="49.20477" lon="-0.30115">
        <ele>34</ele>
        <time>2024-02-04T08:46:11Z</time>
      </trkpt>
      <trkpt lat="49.20472" lon="-0.30119">
        <ele>33.9</ele>
        <time>2024-02-04T08:46:12Z</time>
      </trkpt>
      <trkpt lat="49.20465" lon="-0.30124">
        <ele>33.8</ele>
        <time>2024-02-04T08:46:13Z</time>
      </trkpt>
      <trkpt lat="49.20459" lon="-0.3013">
        <ele>33.7</ele>
        <time>2024-02-04T08:46:14Z</time>
      </trkpt>
      <trkpt lat="49.20454" lon="-0.30135">
        <ele>33.7</ele>
        <time>2024-02-04T08:46:15Z</time>
      </trkpt>
      <trkpt lat="49.20448" lon="-0.30139">
        <ele>33.6</ele>
        <time>2024-02-04T08:46:16Z</time>
      </trkpt>
      <trkpt lat="49.20443" lon="-0.30144">
        <ele>33.5</ele>
        <time>2024-02-04T08:46:17Z</time>
      </trkpt>
      <trkpt lat="49.20438" lon="-0.30148">
        <ele>33.4</ele>
        <time>2024-02-04T08:46:18Z</time>
      </trkpt>
      <trkpt lat="49.20433" lon="-0.30152">
        <ele>33.3</ele>
        <time>2024-02-04T08:46:19Z</time>
      </trkpt>
      <trkpt lat="49.20428" lon="-0.30158">
        <ele>33.3</ele>
        <time>2024-02-04T08:46:20Z</time>
      </trkpt>
      <trkpt lat="49.20423" lon="-0.30163">
        <ele>33.2</ele>
        <time>2024-02-04T08:46:21Z</time>
      </trkpt>
      <trkpt lat="49.20418" lon="-0.30169">
        <ele>33.1</ele>
        <time>2024-02-04T08:46:22Z</time>
      </trkpt>
      <trkpt lat="49.20413" lon="-0.30174">
        <ele>33</ele>
        <time>2024-02-04T08:46:23Z</time>
      </trkpt>
      <trkpt lat="49.20407" lon="-0.3018">
        <ele>32.9</ele>
        <time>2024-02-04T08:46:24Z</time>
      </trkpt>
      <trkpt lat="49.20402" lon="-0.30184">
        <ele>32.8</ele>
        <time>2024-02-04T08:46:25Z</time>
      </trkpt>
      <trkpt lat="49.20396" lon="-0.3019">
        <ele>32.7</ele>
        <time>2024-02-04T08:46:26Z</time>
      </trkpt>
      <trkpt lat="49.20391" lon="-0.30196">
        <ele>32.6</ele>
        <time>2024-02-04T08:46:27Z</time>
      </trkpt>
      <trkpt lat="49.20386" lon="-0.30202">
        <ele>32.5</ele>
        <time>2024-02-04T08:46:28Z</time>
      </trkpt>
      <trkpt lat="49.20381" lon="-0.30207">
        <ele>32.4</ele>
        <time>2024-02-04T08:46:29Z</time>
      </trkpt>
      <trkpt lat="49.20376" lon="-0.30214">
        <ele>32.3</ele>
        <time>2024-02-04T08:46:30Z</time>
      </trkpt>
      <trkpt lat="49.20371" lon="-0.30221">
        <ele>32.2</ele>
        <time>2024-02-04T08:46:31Z</time>
      </trkpt>
      <trkpt lat="49.20367" lon="-0.30228">
        <ele>32.1</ele>
        <time>2024-02-04T08:46:32Z</time>
      </trkpt>
      <trkpt lat="49.20363" lon="-0.30236">
        <ele>32</ele>
        <time>2024-02-04T08:46:33Z</time>
      </trkpt>
      <trkpt lat="49.20359" lon="-0.30244">
        <ele>31.9</ele>
        <time>2024-02-04T08:46:34Z</time>
      </trkpt>
      <trkpt lat="49.20356" lon="-0.30253">
        <ele>31.7</ele>
        <time>2024-02-04T08:46:35Z</time>
      </trkpt>
      <trkpt lat="49.20352" lon="-0.30262">
        <ele>31.6</ele>
        <time>2024-02-04T08:46:36Z</time>
      </trkpt>
      <trkpt lat="49.20349" lon="-0.30271">
        <ele>31.4</ele>
        <time>2024-02-04T08:46:37Z</time>
      </trkpt>
      <trkpt lat="49.20345" lon="-0.30281">
        <ele>31.3</ele>
        <time>2024-02-04T08:46:38Z</time>
      </trkpt>
      <trkpt lat="49.20341" lon="-0.3029">
        <ele>31.1</ele>
        <time>2024-02-04T08:46:39Z</time>
      </trkpt>
      <trkpt lat="49.20337" lon="-0.303">
        <ele>31</ele>
        <time>2024-02-04T08:46:40Z</time>
      </trkpt>
      <trkpt lat="49.20333" lon="-0.3031">
        <ele>30.9</ele>
        <time>2024-02-04T08:46:41Z</time>
      </trkpt>
      <trkpt lat="49.2033" lon="-0.30321">
        <ele>30.8</ele>
        <time>2024-02-04T08:46:42Z</time>
      </trkpt>
      <trkpt lat="49.20326" lon="-0.30332">
        <ele>30.6</ele>
        <time>2024-02-04T08:46:43Z</time>
      </trkpt>
      <trkpt lat="49.20323" lon="-0.30342">
        <ele>30.5</ele>
        <time>2024-02-04T08:46:44Z</time>
      </trkpt>
      <trkpt lat="49.20321" lon="-0.30353">
        <ele>30.4</ele>
        <time>2024-02-04T08:46:45Z</time>
      </trkpt>
      <trkpt lat="49.20319" lon="-0.30363">
        <ele>30.3</ele>
        <time>2024-02-04T08:46:46Z</time>
      </trkpt>
      <trkpt lat="49.20317" lon="-0.30374">
        <ele>30.2</ele>
        <time>2024-02-04T08:46:47Z</time>
      </trkpt>
      <trkpt lat="49.20315" lon="-0.30385">
        <ele>30.1</ele>
        <time>2024-02-04T08:46:48Z</time>
      </trkpt>
      <trkpt lat="49.20313" lon="-0.30395">
        <ele>29.9</ele>
        <time>2024-02-04T08:46:49Z</time>
      </trkpt>
      <trkpt lat="49.20311" lon="-0.30405">
        <ele>29.8</ele>
        <time>2024-02-04T08:46:50Z</time>
      </trkpt>
      <trkpt lat="49.2031" lon="-0.30415">
        <ele>29.6</ele>
        <time>2024-02-04T08:46:51Z</time>
      </trkpt>
      <trkpt lat="49.20307" lon="-0.30424">
        <ele>29.5</ele>
        <time>2024-02-04T08:46:52Z</time>
      </trkpt>
      <trkpt lat="49.20304" lon="-0.30433">
        <ele>29.3</ele>
        <time>2024-02-04T08:46:53Z</time>
      </trkpt>
      <trkpt lat="49.20301" lon="-0.30441">
        <ele>29.1</ele>
        <time>2024-02-04T08:46:54Z</time>
      </trkpt>
      <trkpt lat="49.20298" lon="-0.30448">
        <ele>28.9</ele>
        <time>2024-02-04T08:46:55Z</time>
      </trkpt>
      <trkpt lat="49.20295" lon="-0.30456">
        <ele>28.7</ele>
        <time>2024-02-04T08:46:56Z</time>
      </trkpt>
      <trkpt lat="49.20291" lon="-0.30463">
        <ele>28.5</ele>
        <time>2024-02-04T08:46:57Z</time>
      </trkpt>
      <trkpt lat="49.20287" lon="-0.30471">
        <ele>28.2</ele>
        <time>2024-02-04T08:46:58Z</time>
      </trkpt>
      <trkpt lat="49.20283" lon="-0.30478">
        <ele>28</ele>
        <time>2024-02-04T08:46:59Z</time>
      </trkpt>
      <trkpt lat="49.2028" lon="-0.30484">
        <ele>27.8</ele>
        <time>2024-02-04T08:47:00Z</time>
      </trkpt>
      <trkpt lat="49.20277" lon="-0.30489">
        <ele>27.7</ele>
        <time>2024-02-04T08:47:01Z</time>
      </trkpt>
      <trkpt lat="49.20275" lon="-0.30494">
        <ele>27.5</ele>
        <time>2024-02-04T08:47:02Z</time>
      </trkpt>
      <trkpt lat="49.20273" lon="-0.30498">
        <ele>27.4</ele>
        <time>2024-02-04T08:47:03Z</time>
      </trkpt>
      <trkpt lat="49.20271" lon="-0.30503">
        <ele>27.2</ele>
        <time>2024-02-04T08:47:04Z</time>
      </trkpt>
      <trkpt lat="49.2027" lon="-0.30507">
        <ele>27.1</ele>
        <time>2024-02-04T08:47:05Z</time>
      </trkpt>
      <trkpt lat="49.20268" lon="-0.30511">
        <ele>27</ele>
        <time>2024-02-04T08:47:06Z</time>
      </trkpt>
      <trkpt lat="49.20267" lon="-0.30515">
        <ele>26.7</ele>
        <time>2024-02-04T08:47:07Z</time>
      </trkpt>
      <trkpt lat="49.20267" lon="-0.30517">
        <ele>26.6</ele>
        <time>2024-02-04T08:47:08Z</time>
      </trkpt>
      <trkpt lat="49.20265" lon="-0.30521">
        <ele>26.2</ele>
        <time>2024-02-04T08:47:09Z</time>
      </trkpt>
      <trkpt lat="49.20264" lon="-0.30523">
        <ele>26.2</ele>
        <time>2024-02-04T08:47:10Z</time>
      </trkpt>
      <trkpt lat="49.20261" lon="-0.30526">
        <ele>26.3</ele>
        <time>2024-02-04T08:47:11Z</time>
      </trkpt>
      <trkpt lat="49.20259" lon="-0.30528">
        <ele>26.4</ele>
        <time>2024-02-04T08:47:12Z</time>
      </trkpt>
      <trkpt lat="49.20257" lon="-0.30532">
        <ele>26.5</ele>
        <time>2024-02-04T08:47:13Z</time>
      </trkpt>
      <trkpt lat="49.20255" lon="-0.30536">
        <ele>26.5</ele>
        <time>2024-02-04T08:47:14Z</time>
      </trkpt>
      <trkpt lat="49.20253" lon="-0.30541">
        <ele>26.6</ele>
        <time>2024-02-04T08:47:15Z</time>
      </trkpt>
      <trkpt lat="49.2025" lon="-0.30547">
        <ele>26.7</ele>
        <time>2024-02-04T08:47:16Z</time>
      </trkpt>
      <trkpt lat="49.20247" lon="-0.30553">
        <ele>26.9</ele>
        <time>2024-02-04T08:47:17Z</time>
      </trkpt>
      <trkpt lat="49.20244" lon="-0.30559">
        <ele>26.9</ele>
        <time>2024-02-04T08:47:18Z</time>
      </trkpt>
      <trkpt lat="49.20242" lon="-0.30563">
        <ele>27</ele>
        <time>2024-02-04T08:47:19Z</time>
      </trkpt>
      <trkpt lat="49.20239" lon="-0.30568">
        <ele>27.1</ele>
        <time>2024-02-04T08:47:20Z</time>
      </trkpt>
      <trkpt lat="49.20237" lon="-0.30571">
        <ele>27.1</ele>
        <time>2024-02-04T08:47:21Z</time>
      </trkpt>
      <trkpt lat="49.20235" lon="-0.30574">
        <ele>27.1</ele>
        <time>2024-02-04T08:47:22Z</time>
      </trkpt>
      <trkpt lat="49.20235" lon="-0.30575">
        <ele>27.1</ele>
        <time>2024-02-04T08:47:23Z</time>
      </trkpt>
      <trkpt lat="49.20234" lon="-0.30577">
        <ele>27.1</ele>
        <time>2024-02-04T08:47:24Z</time>
      </trkpt>
      <trkpt lat="49.20233" lon="-0.30579">
        <ele>27.1</ele>
        <time>2024-02-04T08:47:25Z</time>
      </trkpt>
      <trkpt lat="49.20232" lon="-0.3058">
        <ele>27.1</ele>
        <time>2024-02-04T08:47:26Z</time>
      </trkpt>
      <trkpt lat="49.20232" lon="-0.30582">
        <ele>27.2</ele>
        <time>2024-02-04T08:47:27Z</time>
      </trkpt>
      <trkpt lat="49.20231" lon="-0.30584">
        <ele>27.2</ele>
        <time>2024-02-04T08:47:28Z</time>
      </trkpt>
      <trkpt lat="49.2023" lon="-0.30586">
        <ele>27.2</ele>
        <time>2024-02-04T08:47:29Z</time>
      </trkpt>
      <trkpt lat="49.20228" lon="-0.30589">
        <ele>26.8</ele>
        <time>2024-02-04T08:47:30Z</time>
      </trkpt>
      <trkpt lat="49.20228" lon="-0.3059">
        <ele>26.7</ele>
        <time>2024-02-04T08:47:31Z</time>
      </trkpt>
      <trkpt lat="49.20228" lon="-0.30591">
        <ele>26.6</ele>
        <time>2024-02-04T08:47:32Z</time>
      </trkpt>
      <trkpt lat="49.20227" lon="-0.30595">
        <ele>26.1</ele>
        <time>2024-02-04T08:47:33Z</time>
      </trkpt>
      <trkpt lat="49.20226" lon="-0.30597">
        <ele>25.9</ele>
        <time>2024-02-04T08:47:34Z</time>
      </trkpt>
      <trkpt lat="49.20226" lon="-0.30601">
        <ele>25.4</ele>
        <time>2024-02-04T08:47:35Z</time>
      </trkpt>
      <trkpt lat="49.20225" lon="-0.30606">
        <ele>24.8</ele>
        <time>2024-02-04T08:47:36Z</time>
      </trkpt>
      <trkpt lat="49.20226" lon="-0.3061">
        <ele>24.3</ele>
        <time>2024-02-04T08:47:37Z</time>
      </trkpt>
      <trkpt lat="49.20225" lon="-0.30616">
        <ele>24.5</ele>
        <time>2024-02-04T08:47:38Z</time>
      </trkpt>
      <trkpt lat="49.20225" lon="-0.30618">
        <ele>24.6</ele>
        <time>2024-02-04T08:47:39Z</time>
      </trkpt>
      <trkpt lat="49.20222" lon="-0.3062">
        <ele>24.9</ele>
        <time>2024-02-04T08:47:40Z</time>
      </trkpt>
      <trkpt lat="49.2022" lon="-0.3062">
        <ele>25</ele>
        <time>2024-02-04T08:47:41Z</time>
      </trkpt>
      <trkpt lat="49.20216" lon="-0.30619">
        <ele>25.5</ele>
        <time>2024-02-04T08:47:42Z</time>
      </trkpt>
      <trkpt lat="49.20215" lon="-0.30618">
        <ele>25.5</ele>
        <time>2024-02-04T08:47:43Z</time>
      </trkpt>
      <trkpt lat="49.20211" lon="-0.30619">
        <ele>25.4</ele>
        <time>2024-02-04T08:47:44Z</time>
      </trkpt>
      <trkpt lat="49.20207" lon="-0.30621">
        <ele>25.3</ele>
        <time>2024-02-04T08:47:45Z</time>
      </trkpt>
      <trkpt lat="49.20204" lon="-0.30625">
        <ele>25.1</ele>
        <time>2024-02-04T08:47:46Z</time>
      </trkpt>
      <trkpt lat="49.20199" lon="-0.30629">
        <ele>25</ele>
        <time>2024-02-04T08:47:47Z</time>
      </trkpt>
      <trkpt lat="49.20195" lon="-0.30634">
        <ele>24.8</ele>
        <time>2024-02-04T08:47:48Z</time>
      </trkpt>
      <trkpt lat="49.20192" lon="-0.3064">
        <ele>24.6</ele>
        <time>2024-02-04T08:47:49Z</time>
      </trkpt>
      <trkpt lat="49.20187" lon="-0.30646">
        <ele>24.3</ele>
        <time>2024-02-04T08:47:50Z</time>
      </trkpt>
      <trkpt lat="49.20183" lon="-0.30652">
        <ele>24</ele>
        <time>2024-02-04T08:47:51Z</time>
      </trkpt>
      <trkpt lat="49.20179" lon="-0.30658">
        <ele>23.7</ele>
        <time>2024-02-04T08:47:52Z</time>
      </trkpt>
      <trkpt lat="49.20174" lon="-0.30666">
        <ele>23.4</ele>
        <time>2024-02-04T08:47:53Z</time>
      </trkpt>
      <trkpt lat="49.20169" lon="-0.30673">
        <ele>23</ele>
        <time>2024-02-04T08:47:54Z</time>
      </trkpt>
      <trkpt lat="49.20163" lon="-0.3068">
        <ele>22.6</ele>
        <time>2024-02-04T08:47:55Z</time>
      </trkpt>
      <trkpt lat="49.20157" lon="-0.30688">
        <ele>22.2</ele>
        <time>2024-02-04T08:47:56Z</time>
      </trkpt>
      <trkpt lat="49.2015" lon="-0.30695">
        <ele>21.8</ele>
        <time>2024-02-04T08:47:57Z</time>
      </trkpt>
      <trkpt lat="49.20144" lon="-0.30703">
        <ele>21.4</ele>
        <time>2024-02-04T08:47:58Z</time>
      </trkpt>
      <trkpt lat="49.20137" lon="-0.30711">
        <ele>21.1</ele>
        <time>2024-02-04T08:47:59Z</time>
      </trkpt>
      <trkpt lat="49.2013" lon="-0.30719">
        <ele>20.8</ele>
        <time>2024-02-04T08:48:00Z</time>
      </trkpt>
      <trkpt lat="49.20123" lon="-0.30727">
        <ele>20.5</ele>
        <time>2024-02-04T08:48:01Z</time>
      </trkpt>
      <trkpt lat="49.20116" lon="-0.30734">
        <ele>20.3</ele>
        <time>2024-02-04T08:48:02Z</time>
      </trkpt>
      <trkpt lat="49.20108" lon="-0.30742">
        <ele>20.2</ele>
        <time>2024-02-04T08:48:03Z</time>
      </trkpt>
      <trkpt lat="49.20101" lon="-0.30751">
        <ele>20.1</ele>
        <time>2024-02-04T08:48:04Z</time>
      </trkpt>
      <trkpt lat="49.20094" lon="-0.30759">
        <ele>20</ele>
        <time>2024-02-04T08:48:05Z</time>
      </trkpt>
      <trkpt lat="49.20087" lon="-0.30767">
        <ele>19.9</ele>
        <time>2024-02-04T08:48:06Z</time>
      </trkpt>
      <trkpt lat="49.20081" lon="-0.30776">
        <ele>19.8</ele>
        <time>2024-02-04T08:48:07Z</time>
      </trkpt>
      <trkpt lat="49.20075" lon="-0.30784">
        <ele>19.7</ele>
        <time>2024-02-04T08:48:08Z</time>
      </trkpt>
      <trkpt lat="49.20069" lon="-0.30791">
        <ele>19.5</ele>
        <time>2024-02-04T08:48:09Z</time>
      </trkpt>
      <trkpt lat="49.20064" lon="-0.30798">
        <ele>19.3</ele>
        <time>2024-02-04T08:48:10Z</time>
      </trkpt>
      <trkpt lat="49.20059" lon="-0.30805">
        <ele>19.1</ele>
        <time>2024-02-04T08:48:11Z</time>
      </trkpt>
      <trkpt lat="49.20055" lon="-0.30812">
        <ele>18.8</ele>
        <time>2024-02-04T08:48:12Z</time>
      </trkpt>
      <trkpt lat="49.20051" lon="-0.30819">
        <ele>18.6</ele>
        <time>2024-02-04T08:48:13Z</time>
      </trkpt>
      <trkpt lat="49.20047" lon="-0.30826">
        <ele>18.2</ele>
        <time>2024-02-04T08:48:14Z</time>
      </trkpt>
      <trkpt lat="49.20044" lon="-0.30834">
        <ele>17.8</ele>
        <time>2024-02-04T08:48:15Z</time>
      </trkpt>
      <trkpt lat="49.2004" lon="-0.30843">
        <ele>17.2</ele>
        <time>2024-02-04T08:48:16Z</time>
      </trkpt>
      <trkpt lat="49.20032" lon="-0.30862">
        <ele>16.1</ele>
        <time>2024-02-04T08:48:18Z</time>
      </trkpt>
      <trkpt lat="49.20028" lon="-0.30871">
        <ele>15.5</ele>
        <time>2024-02-04T08:48:19Z</time>
      </trkpt>
      <trkpt lat="49.20025" lon="-0.30881">
        <ele>14.9</ele>
        <time>2024-02-04T08:48:20Z</time>
      </trkpt>
      <trkpt lat="49.20021" lon="-0.30891">
        <ele>14.3</ele>
        <time>2024-02-04T08:48:21Z</time>
      </trkpt>
      <trkpt lat="49.20018" lon="-0.30901">
        <ele>13.7</ele>
        <time>2024-02-04T08:48:22Z</time>
      </trkpt>
      <trkpt lat="49.20017" lon="-0.30913">
        <ele>13.2</ele>
        <time>2024-02-04T08:48:23Z</time>
      </trkpt>
      <trkpt lat="49.20017" lon="-0.30926">
        <ele>12.9</ele>
        <time>2024-02-04T08:48:24Z</time>
      </trkpt>
      <trkpt lat="49.20017" lon="-0.30939">
        <ele>12.6</ele>
        <time>2024-02-04T08:48:25Z</time>
      </trkpt>
      <trkpt lat="49.20019" lon="-0.30951">
        <ele>12.2</ele>
        <time>2024-02-04T08:48:26Z</time>
      </trkpt>
      <trkpt lat="49.20022" lon="-0.30964">
        <ele>11.4</ele>
        <time>2024-02-04T08:48:27Z</time>
      </trkpt>
      <trkpt lat="49.20025" lon="-0.30977">
        <ele>10.7</ele>
        <time>2024-02-04T08:48:28Z</time>
      </trkpt>
      <trkpt lat="49.20029" lon="-0.3099">
        <ele>9.9</ele>
        <time>2024-02-04T08:48:29Z</time>
      </trkpt>
      <trkpt lat="49.20033" lon="-0.31004">
        <ele>9.1</ele>
        <time>2024-02-04T08:48:30Z</time>
      </trkpt>
      <trkpt lat="49.20036" lon="-0.31017">
        <ele>8.5</ele>
        <time>2024-02-04T08:48:31Z</time>
      </trkpt>
      <trkpt lat="49.2004" lon="-0.31029">
        <ele>7.9</ele>
        <time>2024-02-04T08:48:32Z</time>
      </trkpt>
      <trkpt lat="49.20043" lon="-0.31041">
        <ele>7.4</ele>
        <time>2024-02-04T08:48:33Z</time>
      </trkpt>
      <trkpt lat="49.20046" lon="-0.31051">
        <ele>7</ele>
        <time>2024-02-04T08:48:34Z</time>
      </trkpt>
      <trkpt lat="49.20049" lon="-0.3106">
        <ele>6.7</ele>
        <time>2024-02-04T08:48:35Z</time>
      </trkpt>
      <trkpt lat="49.20052" lon="-0.31068">
        <ele>6.3</ele>
        <time>2024-02-04T08:48:36Z</time>
      </trkpt>
      <trkpt lat="49.20054" lon="-0.31076">
        <ele>6.1</ele>
        <time>2024-02-04T08:48:37Z</time>
      </trkpt>
      <trkpt lat="49.20055" lon="-0.31084">
        <ele>5.9</ele>
        <time>2024-02-04T08:48:38Z</time>
      </trkpt>
      <trkpt lat="49.20055" lon="-0.31091">
        <ele>5.7</ele>
        <time>2024-02-04T08:48:39Z</time>
      </trkpt>
      <trkpt lat="49.20053" lon="-0.31099">
        <ele>5.5</ele>
        <time>2024-02-04T08:48:40Z</time>
      </trkpt>
      <trkpt lat="49.2005" lon="-0.31105">
        <ele>5.5</ele>
        <time>2024-02-04T08:48:41Z</time>
      </trkpt>
      <trkpt lat="49.20046" lon="-0.31109">
        <ele>5.5</ele>
        <time>2024-02-04T08:48:42Z</time>
      </trkpt>
      <trkpt lat="49.20042" lon="-0.31111">
        <ele>5.4</ele>
        <time>2024-02-04T08:48:43Z</time>
      </trkpt>
      <trkpt lat="49.20037" lon="-0.31112">
        <ele>5.4</ele>
        <time>2024-02-04T08:48:44Z</time>
      </trkpt>
      <trkpt lat="49.20031" lon="-0.31113">
        <ele>5.4</ele>
        <time>2024-02-04T08:48:45Z</time>
      </trkpt>
      <trkpt lat="49.20025" lon="-0.31115">
        <ele>5.4</ele>
        <time>2024-02-04T08:48:46Z</time>
      </trkpt>
      <trkpt lat="49.20019" lon="-0.31117">
        <ele>5.4</ele>
        <time>2024-02-04T08:48:47Z</time>
      </trkpt>
      <trkpt lat="49.20012" lon="-0.31119">
        <ele>5.3</ele>
        <time>2024-02-04T08:48:48Z</time>
      </trkpt>
      <trkpt lat="49.20005" lon="-0.31121">
        <ele>5.3</ele>
        <time>2024-02-04T08:48:49Z</time>
      </trkpt>
      <trkpt lat="49.19997" lon="-0.31122">
        <ele>5.3</ele>
        <time>2024-02-04T08:48:50Z</time>
      </trkpt>
      <trkpt lat="49.1999" lon="-0.31123">
        <ele>5.3</ele>
        <time>2024-02-04T08:48:51Z</time>
      </trkpt>
      <trkpt lat="49.19983" lon="-0.31125">
        <ele>5.2</ele>
        <time>2024-02-04T08:48:52Z</time>
      </trkpt>
      <trkpt lat="49.19975" lon="-0.31126">
        <ele>5.2</ele>
        <time>2024-02-04T08:48:53Z</time>
      </trkpt>
      <trkpt lat="49.19968" lon="-0.31127">
        <ele>5.2</ele>
        <time>2024-02-04T08:48:54Z</time>
      </trkpt>
      <trkpt lat="49.19961" lon="-0.31128">
        <ele>5.1</ele>
        <time>2024-02-04T08:48:55Z</time>
      </trkpt>
      <trkpt lat="49.19955" lon="-0.31128">
        <ele>5.1</ele>
        <time>2024-02-04T08:48:56Z</time>
      </trkpt>
      <trkpt lat="49.19949" lon="-0.31128">
        <ele>5.1</ele>
        <time>2024-02-04T08:48:57Z</time>
      </trkpt>
      <trkpt lat="49.19943" lon="-0.31128">
        <ele>5.1</ele>
        <time>2024-02-04T08:48:58Z</time>
      </trkpt>
      <trkpt lat="49.19938" lon="-0.31128">
        <ele>5.1</ele>
        <time>2024-02-04T08:48:59Z</time>
      </trkpt>
      <trkpt lat="49.19932" lon="-0.31128">
        <ele>5.1</ele>
        <time>2024-02-04T08:49:00Z</time>
      </trkpt>
      <trkpt lat="49.19927" lon="-0.31128">
        <ele>5.1</ele>
        <time>2024-02-04T08:49:01Z</time>
      </trkpt>
      <trkpt lat="49.19921" lon="-0.31128">
        <ele>5.1</ele>
        <time>2024-02-04T08:49:02Z</time>
      </trkpt>
      <trkpt lat="49.19916" lon="-0.31128">
        <ele>5.1</ele>
        <time>2024-02-04T08:49:03Z</time>
      </trkpt>
      <trkpt lat="49.19909" lon="-0.31129">
        <ele>5.1</ele>
        <time>2024-02-04T08:49:04Z</time>
      </trkpt>
      <trkpt lat="49.19902" lon="-0.3113">
        <ele>5.1</ele>
        <time>2024-02-04T08:49:05Z</time>
      </trkpt>
      <trkpt lat="49.19896" lon="-0.31131">
        <ele>5.1</ele>
        <time>2024-02-04T08:49:06Z</time>
      </trkpt>
      <trkpt lat="49.19889" lon="-0.31132">
        <ele>5.1</ele>
        <time>2024-02-04T08:49:07Z</time>
      </trkpt>
      <trkpt lat="49.19881" lon="-0.31133">
        <ele>5.1</ele>
        <time>2024-02-04T08:49:08Z</time>
      </trkpt>
      <trkpt lat="49.19874" lon="-0.31133">
        <ele>5.1</ele>
        <time>2024-02-04T08:49:09Z</time>
      </trkpt>
      <trkpt lat="49.19867" lon="-0.31133">
        <ele>5.1</ele>
        <time>2024-02-04T08:49:10Z</time>
      </trkpt>
      <trkpt lat="49.19859" lon="-0.31133">
        <ele>5.1</ele>
        <time>2024-02-04T08:49:11Z</time>
      </trkpt>
      <trkpt lat="49.19851" lon="-0.31133">
        <ele>5.1</ele>
        <time>2024-02-04T08:49:12Z</time>
      </trkpt>
      <trkpt lat="49.19844" lon="-0.31132">
        <ele>5.1</ele>
        <time>2024-02-04T08:49:13Z</time>
      </trkpt>
      <trkpt lat="49.19836" lon="-0.31132">
        <ele>5.2</ele>
        <time>2024-02-04T08:49:14Z</time>
      </trkpt>
      <trkpt lat="49.19829" lon="-0.31132">
        <ele>5.2</ele>
        <time>2024-02-04T08:49:15Z</time>
      </trkpt>
      <trkpt lat="49.19821" lon="-0.31132">
        <ele>5.2</ele>
        <time>2024-02-04T08:49:16Z</time>
      </trkpt>
      <trkpt lat="49.19814" lon="-0.31132">
        <ele>5.2</ele>
        <time>2024-02-04T08:49:17Z</time>
      </trkpt>
      <trkpt lat="49.19807" lon="-0.31131">
        <ele>5.2</ele>
        <time>2024-02-04T08:49:18Z</time>
      </trkpt>
      <trkpt lat="49.19799" lon="-0.31131">
        <ele>5.2</ele>
        <time>2024-02-04T08:49:19Z</time>
      </trkpt>
      <trkpt lat="49.19792" lon="-0.31132">
        <ele>5.2</ele>
        <time>2024-02-04T08:49:20Z</time>
      </trkpt>
      <trkpt lat="49.19784" lon="-0.31132">
        <ele>5.2</ele>
        <time>2024-02-04T08:49:21Z</time>
      </trkpt>
      <trkpt lat="49.19776" lon="-0.31132">
        <ele>5.2</ele>
        <time>2024-02-04T08:49:22Z</time>
      </trkpt>
      <trkpt lat="49.19768" lon="-0.31131">
        <ele>5.2</ele>
        <time>2024-02-04T08:49:23Z</time>
      </trkpt>
      <trkpt lat="49.19759" lon="-0.3113">
        <ele>5.2</ele>
        <time>2024-02-04T08:49:24Z</time>
      </trkpt>
      <trkpt lat="49.19751" lon="-0.3113">
        <ele>5.2</ele>
        <time>2024-02-04T08:49:25Z</time>
      </trkpt>
      <trkpt lat="49.19743" lon="-0.3113">
        <ele>5.2</ele>
        <time>2024-02-04T08:49:26Z</time>
      </trkpt>
      <trkpt lat="49.19735" lon="-0.3113">
        <ele>5.2</ele>
        <time>2024-02-04T08:49:27Z</time>
      </trkpt>
      <trkpt lat="49.19726" lon="-0.31131">
        <ele>5.3</ele>
        <time>2024-02-04T08:49:28Z</time>
      </trkpt>
      <trkpt lat="49.19718" lon="-0.31131">
        <ele>5.3</ele>
        <time>2024-02-04T08:49:29Z</time>
      </trkpt>
      <trkpt lat="49.1971" lon="-0.31132">
        <ele>5.3</ele>
        <time>2024-02-04T08:49:30Z</time>
      </trkpt>
      <trkpt lat="49.19702" lon="-0.31133">
        <ele>5.3</ele>
        <time>2024-02-04T08:49:31Z</time>
      </trkpt>
      <trkpt lat="49.19693" lon="-0.31134">
        <ele>5.3</ele>
        <time>2024-02-04T08:49:32Z</time>
      </trkpt>
      <trkpt lat="49.19685" lon="-0.31135">
        <ele>5.4</ele>
        <time>2024-02-04T08:49:33Z</time>
      </trkpt>
      <trkpt lat="49.19677" lon="-0.31136">
        <ele>5.4</ele>
        <time>2024-02-04T08:49:34Z</time>
      </trkpt>
      <trkpt lat="49.19668" lon="-0.31137">
        <ele>5.4</ele>
        <time>2024-02-04T08:49:35Z</time>
      </trkpt>
      <trkpt lat="49.1966" lon="-0.31138">
        <ele>5.5</ele>
        <time>2024-02-04T08:49:36Z</time>
      </trkpt>
      <trkpt lat="49.19652" lon="-0.31139">
        <ele>5.5</ele>
        <time>2024-02-04T08:49:37Z</time>
      </trkpt>
      <trkpt lat="49.19644" lon="-0.31141">
        <ele>5.5</ele>
        <time>2024-02-04T08:49:38Z</time>
      </trkpt>
      <trkpt lat="49.19636" lon="-0.31142">
        <ele>5.5</ele>
        <time>2024-02-04T08:49:39Z</time>
      </trkpt>
      <trkpt lat="49.19627" lon="-0.31144">
        <ele>5.5</ele>
        <time>2024-02-04T08:49:40Z</time>
      </trkpt>
      <trkpt lat="49.19619" lon="-0.31145">
        <ele>5.6</ele>
        <time>2024-02-04T08:49:41Z</time>
      </trkpt>
      <trkpt lat="49.19611" lon="-0.31147">
        <ele>5.6</ele>
        <time>2024-02-04T08:49:42Z</time>
      </trkpt>
      <trkpt lat="49.19602" lon="-0.31148">
        <ele>5.5</ele>
        <time>2024-02-04T08:49:43Z</time>
      </trkpt>
      <trkpt lat="49.19594" lon="-0.3115">
        <ele>5.5</ele>
        <time>2024-02-04T08:49:44Z</time>
      </trkpt>
      <trkpt lat="49.19586" lon="-0.31152">
        <ele>5.5</ele>
        <time>2024-02-04T08:49:45Z</time>
      </trkpt>
      <trkpt lat="49.19578" lon="-0.31153">
        <ele>5.5</ele>
        <time>2024-02-04T08:49:46Z</time>
      </trkpt>
      <trkpt lat="49.1957" lon="-0.31155">
        <ele>5.5</ele>
        <time>2024-02-04T08:49:47Z</time>
      </trkpt>
      <trkpt lat="49.19563" lon="-0.31157">
        <ele>5.5</ele>
        <time>2024-02-04T08:49:48Z</time>
      </trkpt>
      <trkpt lat="49.19555" lon="-0.31159">
        <ele>5.5</ele>
        <time>2024-02-04T08:49:49Z</time>
      </trkpt>
      <trkpt lat="49.19548" lon="-0.31162">
        <ele>5.5</ele>
        <time>2024-02-04T08:49:50Z</time>
      </trkpt>
      <trkpt lat="49.19541" lon="-0.31166">
        <ele>5.5</ele>
        <time>2024-02-04T08:49:51Z</time>
      </trkpt>
      <trkpt lat="49.19534" lon="-0.31171">
        <ele>5.5</ele>
        <time>2024-02-04T08:49:52Z</time>
      </trkpt>
      <trkpt lat="49.19527" lon="-0.31176">
        <ele>5.5</ele>
        <time>2024-02-04T08:49:53Z</time>
      </trkpt>
      <trkpt lat="49.19521" lon="-0.3118">
        <ele>5.5</ele>
        <time>2024-02-04T08:49:54Z</time>
      </trkpt>
      <trkpt lat="49.19514" lon="-0.31186">
        <ele>5.5</ele>
        <time>2024-02-04T08:49:55Z</time>
      </trkpt>
      <trkpt lat="49.19509" lon="-0.31191">
        <ele>5.5</ele>
        <time>2024-02-04T08:49:56Z</time>
      </trkpt>
      <trkpt lat="49.19502" lon="-0.31197">
        <ele>5.5</ele>
        <time>2024-02-04T08:49:57Z</time>
      </trkpt>
      <trkpt lat="49.19497" lon="-0.31203">
        <ele>5.5</ele>
        <time>2024-02-04T08:49:58Z</time>
      </trkpt>
      <trkpt lat="49.19491" lon="-0.31208">
        <ele>5.5</ele>
        <time>2024-02-04T08:49:59Z</time>
      </trkpt>
      <trkpt lat="49.19486" lon="-0.31214">
        <ele>5.5</ele>
        <time>2024-02-04T08:50:00Z</time>
      </trkpt>
      <trkpt lat="49.1948" lon="-0.3122">
        <ele>5.4</ele>
        <time>2024-02-04T08:50:01Z</time>
      </trkpt>
      <trkpt lat="49.19474" lon="-0.31226">
        <ele>5.4</ele>
        <time>2024-02-04T08:50:02Z</time>
      </trkpt>
      <trkpt lat="49.19469" lon="-0.31232">
        <ele>5.4</ele>
        <time>2024-02-04T08:50:03Z</time>
      </trkpt>
      <trkpt lat="49.19463" lon="-0.31239">
        <ele>5.4</ele>
        <time>2024-02-04T08:50:04Z</time>
      </trkpt>
      <trkpt lat="49.19457" lon="-0.31245">
        <ele>5.4</ele>
        <time>2024-02-04T08:50:05Z</time>
      </trkpt>
      <trkpt lat="49.19451" lon="-0.31251">
        <ele>5.3</ele>
        <time>2024-02-04T08:50:06Z</time>
      </trkpt>
      <trkpt lat="49.19444" lon="-0.31257">
        <ele>5.3</ele>
        <time>2024-02-04T08:50:07Z</time>
      </trkpt>
      <trkpt lat="49.19437" lon="-0.31262">
        <ele>5.3</ele>
        <time>2024-02-04T08:50:08Z</time>
      </trkpt>
      <trkpt lat="49.19431" lon="-0.31267">
        <ele>5.3</ele>
        <time>2024-02-04T08:50:09Z</time>
      </trkpt>
      <trkpt lat="49.19424" lon="-0.31271">
        <ele>5.2</ele>
        <time>2024-02-04T08:50:10Z</time>
      </trkpt>
      <trkpt lat="49.19417" lon="-0.31275">
        <ele>5.2</ele>
        <time>2024-02-04T08:50:11Z</time>
      </trkpt>
      <trkpt lat="49.1941" lon="-0.31278">
        <ele>5.2</ele>
        <time>2024-02-04T08:50:12Z</time>
      </trkpt>
      <trkpt lat="49.19403" lon="-0.31281">
        <ele>5.1</ele>
        <time>2024-02-04T08:50:13Z</time>
      </trkpt>
      <trkpt lat="49.19396" lon="-0.31284">
        <ele>5.1</ele>
        <time>2024-02-04T08:50:14Z</time>
      </trkpt>
      <trkpt lat="49.19389" lon="-0.31286">
        <ele>5.1</ele>
        <time>2024-02-04T08:50:15Z</time>
      </trkpt>
      <trkpt lat="49.19382" lon="-0.31288">
        <ele>5.1</ele>
        <time>2024-02-04T08:50:16Z</time>
      </trkpt>
      <trkpt lat="49.19375" lon="-0.31288">
        <ele>5.1</ele>
        <time>2024-02-04T08:50:17Z</time>
      </trkpt>
      <trkpt lat="49.19367" lon="-0.31288">
        <ele>5.1</ele>
        <time>2024-02-04T08:50:18Z</time>
      </trkpt>
      <trkpt lat="49.1936" lon="-0.31287">
        <ele>5.1</ele>
        <time>2024-02-04T08:50:19Z</time>
      </trkpt>
      <trkpt lat="49.19353" lon="-0.31286">
        <ele>5.1</ele>
        <time>2024-02-04T08:50:20Z</time>
      </trkpt>
      <trkpt lat="49.19345" lon="-0.31284">
        <ele>5.1</ele>
        <time>2024-02-04T08:50:21Z</time>
      </trkpt>
      <trkpt lat="49.19338" lon="-0.31282">
        <ele>5.1</ele>
        <time>2024-02-04T08:50:22Z</time>
      </trkpt>
      <trkpt lat="49.19331" lon="-0.3128">
        <ele>5.2</ele>
        <time>2024-02-04T08:50:23Z</time>
      </trkpt>
      <trkpt lat="49.19325" lon="-0.31277">
        <ele>5.2</ele>
        <time>2024-02-04T08:50:24Z</time>
      </trkpt>
      <trkpt lat="49.19319" lon="-0.31274">
        <ele>5.2</ele>
        <time>2024-02-04T08:50:25Z</time>
      </trkpt>
      <trkpt lat="49.19312" lon="-0.3127">
        <ele>5.2</ele>
        <time>2024-02-04T08:50:26Z</time>
      </trkpt>
      <trkpt lat="49.19306" lon="-0.31267">
        <ele>5.2</ele>
        <time>2024-02-04T08:50:27Z</time>
      </trkpt>
      <trkpt lat="49.193" lon="-0.31264">
        <ele>5.2</ele>
        <time>2024-02-04T08:50:28Z</time>
      </trkpt>
      <trkpt lat="49.19294" lon="-0.31261">
        <ele>5.3</ele>
        <time>2024-02-04T08:50:29Z</time>
      </trkpt>
      <trkpt lat="49.19288" lon="-0.31258">
        <ele>5.3</ele>
        <time>2024-02-04T08:50:30Z</time>
      </trkpt>
      <trkpt lat="49.19281" lon="-0.31255">
        <ele>5.3</ele>
        <time>2024-02-04T08:50:31Z</time>
      </trkpt>
      <trkpt lat="49.19274" lon="-0.31251">
        <ele>5.3</ele>
        <time>2024-02-04T08:50:32Z</time>
      </trkpt>
      <trkpt lat="49.19268" lon="-0.31248">
        <ele>5.4</ele>
        <time>2024-02-04T08:50:33Z</time>
      </trkpt>
      <trkpt lat="49.19261" lon="-0.31245">
        <ele>5.4</ele>
        <time>2024-02-04T08:50:34Z</time>
      </trkpt>
      <trkpt lat="49.19254" lon="-0.31242">
        <ele>5.4</ele>
        <time>2024-02-04T08:50:35Z</time>
      </trkpt>
      <trkpt lat="49.19247" lon="-0.31239">
        <ele>5.4</ele>
        <time>2024-02-04T08:50:36Z</time>
      </trkpt>
      <trkpt lat="49.19241" lon="-0.31237">
        <ele>5.4</ele>
        <time>2024-02-04T08:50:37Z</time>
      </trkpt>
      <trkpt lat="49.19234" lon="-0.31234">
        <ele>5.4</ele>
        <time>2024-02-04T08:50:38Z</time>
      </trkpt>
      <trkpt lat="49.19228" lon="-0.31232">
        <ele>5.4</ele>
        <time>2024-02-04T08:50:39Z</time>
      </trkpt>
      <trkpt lat="49.19221" lon="-0.3123">
        <ele>5.5</ele>
        <time>2024-02-04T08:50:40Z</time>
      </trkpt>
      <trkpt lat="49.19214" lon="-0.31229">
        <ele>5.5</ele>
        <time>2024-02-04T08:50:41Z</time>
      </trkpt>
      <trkpt lat="49.19208" lon="-0.31228">
        <ele>5.6</ele>
        <time>2024-02-04T08:50:42Z</time>
      </trkpt>
      <trkpt lat="49.19201" lon="-0.31228">
        <ele>5.6</ele>
        <time>2024-02-04T08:50:43Z</time>
      </trkpt>
      <trkpt lat="49.19195" lon="-0.31227">
        <ele>5.6</ele>
        <time>2024-02-04T08:50:44Z</time>
      </trkpt>
      <trkpt lat="49.19188" lon="-0.31227">
        <ele>5.7</ele>
        <time>2024-02-04T08:50:45Z</time>
      </trkpt>
      <trkpt lat="49.19181" lon="-0.31228">
        <ele>5.7</ele>
        <time>2024-02-04T08:50:46Z</time>
      </trkpt>
      <trkpt lat="49.19175" lon="-0.31228">
        <ele>5.7</ele>
        <time>2024-02-04T08:50:47Z</time>
      </trkpt>
      <trkpt lat="49.19169" lon="-0.31229">
        <ele>5.7</ele>
        <time>2024-02-04T08:50:48Z</time>
      </trkpt>
      <trkpt lat="49.19162" lon="-0.3123">
        <ele>5.7</ele>
        <time>2024-02-04T08:50:49Z</time>
      </trkpt>
      <trkpt lat="49.19155" lon="-0.3123">
        <ele>5.7</ele>
        <time>2024-02-04T08:50:50Z</time>
      </trkpt>
      <trkpt lat="49.19149" lon="-0.31231">
        <ele>5.7</ele>
        <time>2024-02-04T08:50:51Z</time>
      </trkpt>
      <trkpt lat="49.19142" lon="-0.31231">
        <ele>5.7</ele>
        <time>2024-02-04T08:50:52Z</time>
      </trkpt>
      <trkpt lat="49.19136" lon="-0.3123">
        <ele>5.7</ele>
        <time>2024-02-04T08:50:53Z</time>
      </trkpt>
      <trkpt lat="49.1913" lon="-0.31231">
        <ele>5.7</ele>
        <time>2024-02-04T08:50:54Z</time>
      </trkpt>
      <trkpt lat="49.19123" lon="-0.31231">
        <ele>5.7</ele>
        <time>2024-02-04T08:50:55Z</time>
      </trkpt>
      <trkpt lat="49.19117" lon="-0.31232">
        <ele>5.7</ele>
        <time>2024-02-04T08:50:56Z</time>
      </trkpt>
      <trkpt lat="49.1911" lon="-0.31233">
        <ele>5.7</ele>
        <time>2024-02-04T08:50:57Z</time>
      </trkpt>
      <trkpt lat="49.19104" lon="-0.31233">
        <ele>5.7</ele>
        <time>2024-02-04T08:50:58Z</time>
      </trkpt>
      <trkpt lat="49.19097" lon="-0.31234">
        <ele>5.7</ele>
        <time>2024-02-04T08:50:59Z</time>
      </trkpt>
      <trkpt lat="49.1909" lon="-0.31234">
        <ele>5.7</ele>
        <time>2024-02-04T08:51:00Z</time>
      </trkpt>
      <trkpt lat="49.19083" lon="-0.31235">
        <ele>5.7</ele>
        <time>2024-02-04T08:51:01Z</time>
      </trkpt>
      <trkpt lat="49.19076" lon="-0.31236">
        <ele>5.7</ele>
        <time>2024-02-04T08:51:02Z</time>
      </trkpt>
      <trkpt lat="49.19069" lon="-0.31237">
        <ele>5.6</ele>
        <time>2024-02-04T08:51:03Z</time>
      </trkpt>
      <trkpt lat="49.19063" lon="-0.31239">
        <ele>5.6</ele>
        <time>2024-02-04T08:51:04Z</time>
      </trkpt>
      <trkpt lat="49.19056" lon="-0.3124">
        <ele>5.6</ele>
        <time>2024-02-04T08:51:05Z</time>
      </trkpt>
      <trkpt lat="49.1905" lon="-0.31241">
        <ele>5.6</ele>
        <time>2024-02-04T08:51:06Z</time>
      </trkpt>
      <trkpt lat="49.19043" lon="-0.31243">
        <ele>5.6</ele>
        <time>2024-02-04T08:51:07Z</time>
      </trkpt>
      <trkpt lat="49.19037" lon="-0.31245">
        <ele>5.6</ele>
        <time>2024-02-04T08:51:08Z</time>
      </trkpt>
      <trkpt lat="49.19031" lon="-0.31246">
        <ele>5.6</ele>
        <time>2024-02-04T08:51:09Z</time>
      </trkpt>
      <trkpt lat="49.19024" lon="-0.31246">
        <ele>5.6</ele>
        <time>2024-02-04T08:51:10Z</time>
      </trkpt>
      <trkpt lat="49.19018" lon="-0.31248">
        <ele>5.6</ele>
        <time>2024-02-04T08:51:11Z</time>
      </trkpt>
      <trkpt lat="49.19011" lon="-0.3125">
        <ele>5.6</ele>
        <time>2024-02-04T08:51:12Z</time>
      </trkpt>
      <trkpt lat="49.19004" lon="-0.31252">
        <ele>5.6</ele>
        <time>2024-02-04T08:51:13Z</time>
      </trkpt>
      <trkpt lat="49.18998" lon="-0.31254">
        <ele>5.6</ele>
        <time>2024-02-04T08:51:14Z</time>
      </trkpt>
      <trkpt lat="49.18991" lon="-0.31255">
        <ele>5.6</ele>
        <time>2024-02-04T08:51:15Z</time>
      </trkpt>
      <trkpt lat="49.18984" lon="-0.31257">
        <ele>5.6</ele>
        <time>2024-02-04T08:51:16Z</time>
      </trkpt>
      <trkpt lat="49.18978" lon="-0.31259">
        <ele>5.6</ele>
        <time>2024-02-04T08:51:17Z</time>
      </trkpt>
      <trkpt lat="49.18971" lon="-0.31261">
        <ele>5.6</ele>
        <time>2024-02-04T08:51:18Z</time>
      </trkpt>
      <trkpt lat="49.18964" lon="-0.31263">
        <ele>5.6</ele>
        <time>2024-02-04T08:51:19Z</time>
      </trkpt>
      <trkpt lat="49.18958" lon="-0.31265">
        <ele>5.6</ele>
        <time>2024-02-04T08:51:20Z</time>
      </trkpt>
      <trkpt lat="49.18951" lon="-0.31268">
        <ele>5.6</ele>
        <time>2024-02-04T08:51:21Z</time>
      </trkpt>
      <trkpt lat="49.18944" lon="-0.3127">
        <ele>5.6</ele>
        <time>2024-02-04T08:51:22Z</time>
      </trkpt>
      <trkpt lat="49.18938" lon="-0.31272">
        <ele>5.5</ele>
        <time>2024-02-04T08:51:23Z</time>
      </trkpt>
      <trkpt lat="49.18931" lon="-0.31274">
        <ele>5.5</ele>
        <time>2024-02-04T08:51:24Z</time>
      </trkpt>
      <trkpt lat="49.18924" lon="-0.31276">
        <ele>5.5</ele>
        <time>2024-02-04T08:51:25Z</time>
      </trkpt>
      <trkpt lat="49.18917" lon="-0.31278">
        <ele>5.5</ele>
        <time>2024-02-04T08:51:26Z</time>
      </trkpt>
      <trkpt lat="49.1891" lon="-0.3128">
        <ele>5.5</ele>
        <time>2024-02-04T08:51:27Z</time>
      </trkpt>
      <trkpt lat="49.18903" lon="-0.31282">
        <ele>5.5</ele>
        <time>2024-02-04T08:51:28Z</time>
      </trkpt>
      <trkpt lat="49.18897" lon="-0.31284">
        <ele>5.5</ele>
        <time>2024-02-04T08:51:29Z</time>
      </trkpt>
      <trkpt lat="49.1889" lon="-0.31286">
        <ele>5.5</ele>
        <time>2024-02-04T08:51:30Z</time>
      </trkpt>
      <trkpt lat="49.18882" lon="-0.31289">
        <ele>5.5</ele>
        <time>2024-02-04T08:51:31Z</time>
      </trkpt>
      <trkpt lat="49.18876" lon="-0.31291">
        <ele>5.5</ele>
        <time>2024-02-04T08:51:32Z</time>
      </trkpt>
      <trkpt lat="49.18869" lon="-0.31293">
        <ele>5.5</ele>
        <time>2024-02-04T08:51:33Z</time>
      </trkpt>
      <trkpt lat="49.18863" lon="-0.31296">
        <ele>5.5</ele>
        <time>2024-02-04T08:51:34Z</time>
      </trkpt>
      <trkpt lat="49.18856" lon="-0.31298">
        <ele>5.5</ele>
        <time>2024-02-04T08:51:35Z</time>
      </trkpt>
      <trkpt lat="49.18849" lon="-0.313">
        <ele>5.5</ele>
        <time>2024-02-04T08:51:36Z</time>
      </trkpt>
      <trkpt lat="49.18843" lon="-0.31303">
        <ele>5.5</ele>
        <time>2024-02-04T08:51:37Z</time>
      </trkpt>
      <trkpt lat="49.18836" lon="-0.31306">
        <ele>5.5</ele>
        <time>2024-02-04T08:51:38Z</time>
      </trkpt>
      <trkpt lat="49.1883" lon="-0.31308">
        <ele>5.5</ele>
        <time>2024-02-04T08:51:39Z</time>
      </trkpt>
      <trkpt lat="49.18823" lon="-0.31311">
        <ele>5.5</ele>
        <time>2024-02-04T08:51:40Z</time>
      </trkpt>
      <trkpt lat="49.18817" lon="-0.31314">
        <ele>5.5</ele>
        <time>2024-02-04T08:51:41Z</time>
      </trkpt>
      <trkpt lat="49.18811" lon="-0.31317">
        <ele>5.5</ele>
        <time>2024-02-04T08:51:42Z</time>
      </trkpt>
      <trkpt lat="49.18805" lon="-0.3132">
        <ele>5.4</ele>
        <time>2024-02-04T08:51:43Z</time>
      </trkpt>
      <trkpt lat="49.18799" lon="-0.31323">
        <ele>5.4</ele>
        <time>2024-02-04T08:51:44Z</time>
      </trkpt>
      <trkpt lat="49.18793" lon="-0.31326">
        <ele>5.4</ele>
        <time>2024-02-04T08:51:45Z</time>
      </trkpt>
      <trkpt lat="49.18788" lon="-0.3133">
        <ele>5.4</ele>
        <time>2024-02-04T08:51:46Z</time>
      </trkpt>
      <trkpt lat="49.18782" lon="-0.31334">
        <ele>5.4</ele>
        <time>2024-02-04T08:51:47Z</time>
      </trkpt>
      <trkpt lat="49.18776" lon="-0.31339">
        <ele>5.4</ele>
        <time>2024-02-04T08:51:48Z</time>
      </trkpt>
      <trkpt lat="49.1877" lon="-0.31343">
        <ele>5.4</ele>
        <time>2024-02-04T08:51:49Z</time>
      </trkpt>
      <trkpt lat="49.18764" lon="-0.31347">
        <ele>5.4</ele>
        <time>2024-02-04T08:51:50Z</time>
      </trkpt>
      <trkpt lat="49.18758" lon="-0.31352">
        <ele>5.3</ele>
        <time>2024-02-04T08:51:51Z</time>
      </trkpt>
      <trkpt lat="49.18752" lon="-0.31357">
        <ele>5.3</ele>
        <time>2024-02-04T08:51:52Z</time>
      </trkpt>
      <trkpt lat="49.18747" lon="-0.31362">
        <ele>5.2</ele>
        <time>2024-02-04T08:51:53Z</time>
      </trkpt>
      <trkpt lat="49.18741" lon="-0.31367">
        <ele>5.2</ele>
        <time>2024-02-04T08:51:54Z</time>
      </trkpt>
      <trkpt lat="49.18736" lon="-0.31373">
        <ele>5.1</ele>
        <time>2024-02-04T08:51:55Z</time>
      </trkpt>
      <trkpt lat="49.18729" lon="-0.31378">
        <ele>5.1</ele>
        <time>2024-02-04T08:51:56Z</time>
      </trkpt>
      <trkpt lat="49.18724" lon="-0.31383">
        <ele>5.1</ele>
        <time>2024-02-04T08:51:57Z</time>
      </trkpt>
      <trkpt lat="49.18718" lon="-0.31388">
        <ele>5.1</ele>
        <time>2024-02-04T08:51:58Z</time>
      </trkpt>
      <trkpt lat="49.18712" lon="-0.31393">
        <ele>5.1</ele>
        <time>2024-02-04T08:51:59Z</time>
      </trkpt>
      <trkpt lat="49.18706" lon="-0.31399">
        <ele>5.1</ele>
        <time>2024-02-04T08:52:00Z</time>
      </trkpt>
      <trkpt lat="49.187" lon="-0.31404">
        <ele>5.1</ele>
        <time>2024-02-04T08:52:01Z</time>
      </trkpt>
      <trkpt lat="49.18693" lon="-0.3141">
        <ele>5.1</ele>
        <time>2024-02-04T08:52:02Z</time>
      </trkpt>
      <trkpt lat="49.18687" lon="-0.31415">
        <ele>5.1</ele>
        <time>2024-02-04T08:52:03Z</time>
      </trkpt>
      <trkpt lat="49.18681" lon="-0.31421">
        <ele>5.1</ele>
        <time>2024-02-04T08:52:04Z</time>
      </trkpt>
      <trkpt lat="49.18675" lon="-0.31427">
        <ele>5.1</ele>
        <time>2024-02-04T08:52:05Z</time>
      </trkpt>
      <trkpt lat="49.1867" lon="-0.31432">
        <ele>5.1</ele>
        <time>2024-02-04T08:52:06Z</time>
      </trkpt>
      <trkpt lat="49.18664" lon="-0.31437">
        <ele>5.1</ele>
        <time>2024-02-04T08:52:07Z</time>
      </trkpt>
      <trkpt lat="49.18659" lon="-0.31442">
        <ele>5.1</ele>
        <time>2024-02-04T08:52:08Z</time>
      </trkpt>
      <trkpt lat="49.18653" lon="-0.31446">
        <ele>5.1</ele>
        <time>2024-02-04T08:52:09Z</time>
      </trkpt>
      <trkpt lat="49.18648" lon="-0.31451">
        <ele>5.1</ele>
        <time>2024-02-04T08:52:10Z</time>
      </trkpt>
      <trkpt lat="49.18643" lon="-0.31456">
        <ele>5.1</ele>
        <time>2024-02-04T08:52:11Z</time>
      </trkpt>
      <trkpt lat="49.18638" lon="-0.31461">
        <ele>5.1</ele>
        <time>2024-02-04T08:52:12Z</time>
      </trkpt>
      <trkpt lat="49.18633" lon="-0.31466">
        <ele>5.2</ele>
        <time>2024-02-04T08:52:13Z</time>
      </trkpt>
      <trkpt lat="49.18629" lon="-0.3147">
        <ele>5.2</ele>
        <time>2024-02-04T08:52:14Z</time>
      </trkpt>
      <trkpt lat="49.18625" lon="-0.31474">
        <ele>5.2</ele>
        <time>2024-02-04T08:52:15Z</time>
      </trkpt>
      <trkpt lat="49.18621" lon="-0.31477">
        <ele>5.2</ele>
        <time>2024-02-04T08:52:16Z</time>
      </trkpt>
      <trkpt lat="49.18617" lon="-0.31481">
        <ele>5.2</ele>
        <time>2024-02-04T08:52:17Z</time>
      </trkpt>
      <trkpt lat="49.18613" lon="-0.31485">
        <ele>5.3</ele>
        <time>2024-02-04T08:52:18Z</time>
      </trkpt>
      <trkpt lat="49.18609" lon="-0.31488">
        <ele>5.3</ele>
        <time>2024-02-04T08:52:19Z</time>
      </trkpt>
      <trkpt lat="49.18606" lon="-0.31492">
        <ele>5.3</ele>
        <time>2024-02-04T08:52:20Z</time>
      </trkpt>
      <trkpt lat="49.18601" lon="-0.31496">
        <ele>5.3</ele>
        <time>2024-02-04T08:52:21Z</time>
      </trkpt>
      <trkpt lat="49.18597" lon="-0.31502">
        <ele>5.3</ele>
        <time>2024-02-04T08:52:22Z</time>
      </trkpt>
      <trkpt lat="49.18593" lon="-0.31508">
        <ele>5.3</ele>
        <time>2024-02-04T08:52:23Z</time>
      </trkpt>
      <trkpt lat="49.18587" lon="-0.31516">
        <ele>5.3</ele>
        <time>2024-02-04T08:52:24Z</time>
      </trkpt>
      <trkpt lat="49.18582" lon="-0.31522">
        <ele>5.3</ele>
        <time>2024-02-04T08:52:25Z</time>
      </trkpt>
      <trkpt lat="49.18576" lon="-0.31529">
        <ele>5.3</ele>
        <time>2024-02-04T08:52:26Z</time>
      </trkpt>
      <trkpt lat="49.18569" lon="-0.31536">
        <ele>5.3</ele>
        <time>2024-02-04T08:52:27Z</time>
      </trkpt>
      <trkpt lat="49.18563" lon="-0.31543">
        <ele>5.3</ele>
        <time>2024-02-04T08:52:28Z</time>
      </trkpt>
      <trkpt lat="49.18556" lon="-0.31549">
        <ele>5.3</ele>
        <time>2024-02-04T08:52:29Z</time>
      </trkpt>
      <trkpt lat="49.1855" lon="-0.31557">
        <ele>5.3</ele>
        <time>2024-02-04T08:52:30Z</time>
      </trkpt>
      <trkpt lat="49.18544" lon="-0.31565">
        <ele>5.3</ele>
        <time>2024-02-04T08:52:31Z</time>
      </trkpt>
      <trkpt lat="49.18538" lon="-0.31572">
        <ele>5.3</ele>
        <time>2024-02-04T08:52:32Z</time>
      </trkpt>
      <trkpt lat="49.18532" lon="-0.3158">
        <ele>5.3</ele>
        <time>2024-02-04T08:52:33Z</time>
      </trkpt>
      <trkpt lat="49.18527" lon="-0.31587">
        <ele>5.3</ele>
        <time>2024-02-04T08:52:34Z</time>
      </trkpt>
      <trkpt lat="49.18521" lon="-0.31595">
        <ele>5.3</ele>
        <time>2024-02-04T08:52:35Z</time>
      </trkpt>
      <trkpt lat="49.18516" lon="-0.31603">
        <ele>5.3</ele>
        <time>2024-02-04T08:52:36Z</time>
      </trkpt>
      <trkpt lat="49.1851" lon="-0.3161">
        <ele>5.4</ele>
        <time>2024-02-04T08:52:37Z</time>
      </trkpt>
      <trkpt lat="49.18504" lon="-0.31619">
        <ele>5.4</ele>
        <time>2024-02-04T08:52:38Z</time>
      </trkpt>
      <trkpt lat="49.18499" lon="-0.31627">
        <ele>5.5</ele>
        <time>2024-02-04T08:52:39Z</time>
      </trkpt>
      <trkpt lat="49.18494" lon="-0.31635">
        <ele>5.5</ele>
        <time>2024-02-04T08:52:40Z</time>
      </trkpt>
      <trkpt lat="49.18489" lon="-0.31643">
        <ele>5.5</ele>
        <time>2024-02-04T08:52:41Z</time>
      </trkpt>
      <trkpt lat="49.18484" lon="-0.31651">
        <ele>5.5</ele>
        <time>2024-02-04T08:52:42Z</time>
      </trkpt>
      <trkpt lat="49.18479" lon="-0.31659">
        <ele>5.5</ele>
        <time>2024-02-04T08:52:43Z</time>
      </trkpt>
      <trkpt lat="49.18474" lon="-0.31666">
        <ele>5.5</ele>
        <time>2024-02-04T08:52:44Z</time>
      </trkpt>
      <trkpt lat="49.18468" lon="-0.31675">
        <ele>5.4</ele>
        <time>2024-02-04T08:52:45Z</time>
      </trkpt>
      <trkpt lat="49.18463" lon="-0.31683">
        <ele>5.4</ele>
        <time>2024-02-04T08:52:46Z</time>
      </trkpt>
      <trkpt lat="49.18458" lon="-0.31692">
        <ele>5.3</ele>
        <time>2024-02-04T08:52:47Z</time>
      </trkpt>
      <trkpt lat="49.18453" lon="-0.317">
        <ele>5.3</ele>
        <time>2024-02-04T08:52:48Z</time>
      </trkpt>
      <trkpt lat="49.18448" lon="-0.31709">
        <ele>5.3</ele>
        <time>2024-02-04T08:52:49Z</time>
      </trkpt>
      <trkpt lat="49.18443" lon="-0.31718">
        <ele>5.3</ele>
        <time>2024-02-04T08:52:50Z</time>
      </trkpt>
      <trkpt lat="49.18438" lon="-0.31726">
        <ele>5.3</ele>
        <time>2024-02-04T08:52:51Z</time>
      </trkpt>
      <trkpt lat="49.18434" lon="-0.31735">
        <ele>5.3</ele>
        <time>2024-02-04T08:52:52Z</time>
      </trkpt>
      <trkpt lat="49.18429" lon="-0.31743">
        <ele>5.3</ele>
        <time>2024-02-04T08:52:53Z</time>
      </trkpt>
      <trkpt lat="49.18425" lon="-0.31751">
        <ele>5.3</ele>
        <time>2024-02-04T08:52:54Z</time>
      </trkpt>
      <trkpt lat="49.1842" lon="-0.31761">
        <ele>5.3</ele>
        <time>2024-02-04T08:52:55Z</time>
      </trkpt>
      <trkpt lat="49.18416" lon="-0.3177">
        <ele>5.3</ele>
        <time>2024-02-04T08:52:56Z</time>
      </trkpt>
      <trkpt lat="49.18412" lon="-0.3178">
        <ele>5.2</ele>
        <time>2024-02-04T08:52:57Z</time>
      </trkpt>
      <trkpt lat="49.18409" lon="-0.31788">
        <ele>5.2</ele>
        <time>2024-02-04T08:52:58Z</time>
      </trkpt>
      <trkpt lat="49.18404" lon="-0.31797">
        <ele>5.1</ele>
        <time>2024-02-04T08:52:59Z</time>
      </trkpt>
      <trkpt lat="49.18399" lon="-0.31805">
        <ele>5.1</ele>
        <time>2024-02-04T08:53:00Z</time>
      </trkpt>
      <trkpt lat="49.18395" lon="-0.31814">
        <ele>5.1</ele>
        <time>2024-02-04T08:53:01Z</time>
      </trkpt>
      <trkpt lat="49.1839" lon="-0.31823">
        <ele>5.1</ele>
        <time>2024-02-04T08:53:02Z</time>
      </trkpt>
      <trkpt lat="49.18386" lon="-0.31831">
        <ele>5.1</ele>
        <time>2024-02-04T08:53:03Z</time>
      </trkpt>
      <trkpt lat="49.18383" lon="-0.31838">
        <ele>5.1</ele>
        <time>2024-02-04T08:53:04Z</time>
      </trkpt>
      <trkpt lat="49.18379" lon="-0.31846">
        <ele>5.1</ele>
        <time>2024-02-04T08:53:05Z</time>
      </trkpt>
      <trkpt lat="49.18376" lon="-0.31853">
        <ele>5.1</ele>
        <time>2024-02-04T08:53:06Z</time>
      </trkpt>
      <trkpt lat="49.18372" lon="-0.31859">
        <ele>5.1</ele>
        <time>2024-02-04T08:53:07Z</time>
      </trkpt>
      <trkpt lat="49.18369" lon="-0.31867">
        <ele>5.1</ele>
        <time>2024-02-04T08:53:08Z</time>
      </trkpt>
      <trkpt lat="49.18365" lon="-0.31874">
        <ele>5.1</ele>
        <time>2024-02-04T08:53:09Z</time>
      </trkpt>
      <trkpt lat="49.18362" lon="-0.31881">
        <ele>5.2</ele>
        <time>2024-02-04T08:53:10Z</time>
      </trkpt>
      <trkpt lat="49.18358" lon="-0.31886">
        <ele>5.2</ele>
        <time>2024-02-04T08:53:11Z</time>
      </trkpt>
      <trkpt lat="49.18355" lon="-0.31891">
        <ele>5.3</ele>
        <time>2024-02-04T08:53:12Z</time>
      </trkpt>
      <trkpt lat="49.18352" lon="-0.31896">
        <ele>5.3</ele>
        <time>2024-02-04T08:53:13Z</time>
      </trkpt>
      <trkpt lat="49.1835" lon="-0.31901">
        <ele>5.3</ele>
        <time>2024-02-04T08:53:14Z</time>
      </trkpt>
      <trkpt lat="49.18347" lon="-0.31904">
        <ele>5.4</ele>
        <time>2024-02-04T08:53:15Z</time>
      </trkpt>
      <trkpt lat="49.18344" lon="-0.31908">
        <ele>5.4</ele>
        <time>2024-02-04T08:53:16Z</time>
      </trkpt>
      <trkpt lat="49.1834" lon="-0.31912">
        <ele>5.4</ele>
        <time>2024-02-04T08:53:17Z</time>
      </trkpt>
      <trkpt lat="49.18336" lon="-0.31915">
        <ele>5.4</ele>
        <time>2024-02-04T08:53:18Z</time>
      </trkpt>
      <trkpt lat="49.18333" lon="-0.31918">
        <ele>5.4</ele>
        <time>2024-02-04T08:53:19Z</time>
      </trkpt>
      <trkpt lat="49.18329" lon="-0.3192">
        <ele>5.4</ele>
        <time>2024-02-04T08:53:20Z</time>
      </trkpt>
      <trkpt lat="49.18325" lon="-0.31923">
        <ele>5.4</ele>
        <time>2024-02-04T08:53:21Z</time>
      </trkpt>
      <trkpt lat="49.18322" lon="-0.31925">
        <ele>5.4</ele>
        <time>2024-02-04T08:53:22Z</time>
      </trkpt>
      <trkpt lat="49.18318" lon="-0.31927">
        <ele>5.5</ele>
        <time>2024-02-04T08:53:23Z</time>
      </trkpt>
      <trkpt lat="49.18315" lon="-0.31928">
        <ele>5.5</ele>
        <time>2024-02-04T08:53:24Z</time>
      </trkpt>
      <trkpt lat="49.18312" lon="-0.3193">
        <ele>5.5</ele>
        <time>2024-02-04T08:53:25Z</time>
      </trkpt>
      <trkpt lat="49.18309" lon="-0.31931">
        <ele>5.5</ele>
        <time>2024-02-04T08:53:26Z</time>
      </trkpt>
      <trkpt lat="49.18307" lon="-0.31931">
        <ele>5.6</ele>
        <time>2024-02-04T08:53:27Z</time>
      </trkpt>
      <trkpt lat="49.18304" lon="-0.31932">
        <ele>5.6</ele>
        <time>2024-02-04T08:53:28Z</time>
      </trkpt>
      <trkpt lat="49.18303" lon="-0.31933">
        <ele>5.6</ele>
        <time>2024-02-04T08:53:29Z</time>
      </trkpt>
      <trkpt lat="49.18301" lon="-0.31936">
        <ele>5.6</ele>
        <time>2024-02-04T08:53:30Z</time>
      </trkpt>
      <trkpt lat="49.18301" lon="-0.31938">
        <ele>5.5</ele>
        <time>2024-02-04T08:53:31Z</time>
      </trkpt>
      <trkpt lat="49.183" lon="-0.31943">
        <ele>5.5</ele>
        <time>2024-02-04T08:53:32Z</time>
      </trkpt>
      <trkpt lat="49.183" lon="-0.31948">
        <ele>5.5</ele>
        <time>2024-02-04T08:53:33Z</time>
      </trkpt>
      <trkpt lat="49.18299" lon="-0.31955">
        <ele>5.5</ele>
        <time>2024-02-04T08:53:34Z</time>
      </trkpt>
      <trkpt lat="49.18299" lon="-0.31962">
        <ele>5.5</ele>
        <time>2024-02-04T08:53:35Z</time>
      </trkpt>
      <trkpt lat="49.18298" lon="-0.31969">
        <ele>5.5</ele>
        <time>2024-02-04T08:53:36Z</time>
      </trkpt>
      <trkpt lat="49.18298" lon="-0.31977">
        <ele>5.5</ele>
        <time>2024-02-04T08:53:37Z</time>
      </trkpt>
      <trkpt lat="49.18297" lon="-0.31986">
        <ele>5.5</ele>
        <time>2024-02-04T08:53:38Z</time>
      </trkpt>
      <trkpt lat="49.18295" lon="-0.31995">
        <ele>5.5</ele>
        <time>2024-02-04T08:53:39Z</time>
      </trkpt>
      <trkpt lat="49.18293" lon="-0.32005">
        <ele>5.4</ele>
        <time>2024-02-04T08:53:40Z</time>
      </trkpt>
      <trkpt lat="49.1829" lon="-0.32016">
        <ele>5.4</ele>
        <time>2024-02-04T08:53:41Z</time>
      </trkpt>
      <trkpt lat="49.18287" lon="-0.32026">
        <ele>5.4</ele>
        <time>2024-02-04T08:53:42Z</time>
      </trkpt>
      <trkpt lat="49.18283" lon="-0.32034">
        <ele>5.4</ele>
        <time>2024-02-04T08:53:43Z</time>
      </trkpt>
      <trkpt lat="49.18281" lon="-0.32043">
        <ele>5.3</ele>
        <time>2024-02-04T08:53:44Z</time>
      </trkpt>
      <trkpt lat="49.18278" lon="-0.32052">
        <ele>5.3</ele>
        <time>2024-02-04T08:53:45Z</time>
      </trkpt>
      <trkpt lat="49.18275" lon="-0.3206">
        <ele>5.3</ele>
        <time>2024-02-04T08:53:46Z</time>
      </trkpt>
      <trkpt lat="49.18273" lon="-0.32068">
        <ele>5.2</ele>
        <time>2024-02-04T08:53:47Z</time>
      </trkpt>
      <trkpt lat="49.18266" lon="-0.32085">
        <ele>5.2</ele>
        <time>2024-02-04T08:53:49Z</time>
      </trkpt>
      <trkpt lat="49.18264" lon="-0.32093">
        <ele>5.2</ele>
        <time>2024-02-04T08:53:50Z</time>
      </trkpt>
      <trkpt lat="49.18261" lon="-0.32101">
        <ele>5.1</ele>
        <time>2024-02-04T08:53:51Z</time>
      </trkpt>
      <trkpt lat="49.18258" lon="-0.32109">
        <ele>5.1</ele>
        <time>2024-02-04T08:53:52Z</time>
      </trkpt>
      <trkpt lat="49.18256" lon="-0.32117">
        <ele>5.1</ele>
        <time>2024-02-04T08:53:53Z</time>
      </trkpt>
      <trkpt lat="49.18253" lon="-0.32125">
        <ele>5.1</ele>
        <time>2024-02-04T08:53:54Z</time>
      </trkpt>
      <trkpt lat="49.1825" lon="-0.32133">
        <ele>5.1</ele>
        <time>2024-02-04T08:53:55Z</time>
      </trkpt>
      <trkpt lat="49.18248" lon="-0.32141">
        <ele>5.1</ele>
        <time>2024-02-04T08:53:56Z</time>
      </trkpt>
      <trkpt lat="49.18245" lon="-0.32148">
        <ele>5.1</ele>
        <time>2024-02-04T08:53:57Z</time>
      </trkpt>
      <trkpt lat="49.18242" lon="-0.32155">
        <ele>5.1</ele>
        <time>2024-02-04T08:53:58Z</time>
      </trkpt>
      <trkpt lat="49.1824" lon="-0.32162">
        <ele>5.2</ele>
        <time>2024-02-04T08:53:59Z</time>
      </trkpt>
      <trkpt lat="49.18237" lon="-0.32169">
        <ele>5.2</ele>
        <time>2024-02-04T08:54:00Z</time>
      </trkpt>
      <trkpt lat="49.18234" lon="-0.32177">
        <ele>5.2</ele>
        <time>2024-02-04T08:54:01Z</time>
      </trkpt>
      <trkpt lat="49.18232" lon="-0.32185">
        <ele>5.2</ele>
        <time>2024-02-04T08:54:02Z</time>
      </trkpt>
      <trkpt lat="49.18229" lon="-0.32193">
        <ele>5.1</ele>
        <time>2024-02-04T08:54:03Z</time>
      </trkpt>
      <trkpt lat="49.18227" lon="-0.32201">
        <ele>5.1</ele>
        <time>2024-02-04T08:54:04Z</time>
      </trkpt>
      <trkpt lat="49.18224" lon="-0.32209">
        <ele>5.1</ele>
        <time>2024-02-04T08:54:05Z</time>
      </trkpt>
      <trkpt lat="49.18221" lon="-0.32217">
        <ele>5.1</ele>
        <time>2024-02-04T08:54:06Z</time>
      </trkpt>
      <trkpt lat="49.18218" lon="-0.32225">
        <ele>5</ele>
        <time>2024-02-04T08:54:07Z</time>
      </trkpt>
      <trkpt lat="49.18215" lon="-0.32233">
        <ele>5</ele>
        <time>2024-02-04T08:54:08Z</time>
      </trkpt>
      <trkpt lat="49.18212" lon="-0.32241">
        <ele>5</ele>
        <time>2024-02-04T08:54:09Z</time>
      </trkpt>
      <trkpt lat="49.1821" lon="-0.3225">
        <ele>4.9</ele>
        <time>2024-02-04T08:54:10Z</time>
      </trkpt>
      <trkpt lat="49.18207" lon="-0.32259">
        <ele>4.9</ele>
        <time>2024-02-04T08:54:11Z</time>
      </trkpt>
      <trkpt lat="49.18204" lon="-0.32267">
        <ele>4.9</ele>
        <time>2024-02-04T08:54:12Z</time>
      </trkpt>
      <trkpt lat="49.182" lon="-0.32276">
        <ele>4.9</ele>
        <time>2024-02-04T08:54:13Z</time>
      </trkpt>
      <trkpt lat="49.18197" lon="-0.32285">
        <ele>4.9</ele>
        <time>2024-02-04T08:54:14Z</time>
      </trkpt>
      <trkpt lat="49.18194" lon="-0.32294">
        <ele>4.9</ele>
        <time>2024-02-04T08:54:15Z</time>
      </trkpt>
      <trkpt lat="49.18191" lon="-0.32303">
        <ele>4.8</ele>
        <time>2024-02-04T08:54:16Z</time>
      </trkpt>
      <trkpt lat="49.18187" lon="-0.32312">
        <ele>4.9</ele>
        <time>2024-02-04T08:54:17Z</time>
      </trkpt>
      <trkpt lat="49.18185" lon="-0.3232">
        <ele>4.9</ele>
        <time>2024-02-04T08:54:18Z</time>
      </trkpt>
      <trkpt lat="49.18182" lon="-0.32328">
        <ele>4.9</ele>
        <time>2024-02-04T08:54:19Z</time>
      </trkpt>
      <trkpt lat="49.18179" lon="-0.32336">
        <ele>5</ele>
        <time>2024-02-04T08:54:20Z</time>
      </trkpt>
      <trkpt lat="49.18177" lon="-0.32344">
        <ele>5</ele>
        <time>2024-02-04T08:54:21Z</time>
      </trkpt>
      <trkpt lat="49.18174" lon="-0.32352">
        <ele>5</ele>
        <time>2024-02-04T08:54:22Z</time>
      </trkpt>
      <trkpt lat="49.18171" lon="-0.3236">
        <ele>5</ele>
        <time>2024-02-04T08:54:23Z</time>
      </trkpt>
      <trkpt lat="49.18168" lon="-0.32368">
        <ele>5.1</ele>
        <time>2024-02-04T08:54:24Z</time>
      </trkpt>
      <trkpt lat="49.18165" lon="-0.32376">
        <ele>5.1</ele>
        <time>2024-02-04T08:54:25Z</time>
      </trkpt>
      <trkpt lat="49.18163" lon="-0.32384">
        <ele>5.1</ele>
        <time>2024-02-04T08:54:26Z</time>
      </trkpt>
      <trkpt lat="49.1816" lon="-0.32393">
        <ele>5.1</ele>
        <time>2024-02-04T08:54:27Z</time>
      </trkpt>
      <trkpt lat="49.18156" lon="-0.32403">
        <ele>5.1</ele>
        <time>2024-02-04T08:54:28Z</time>
      </trkpt>
      <trkpt lat="49.18152" lon="-0.32412">
        <ele>5.1</ele>
        <time>2024-02-04T08:54:29Z</time>
      </trkpt>
      <trkpt lat="49.18149" lon="-0.32422">
        <ele>5.1</ele>
        <time>2024-02-04T08:54:30Z</time>
      </trkpt>
      <trkpt lat="49.18146" lon="-0.32432">
        <ele>5.1</ele>
        <time>2024-02-04T08:54:31Z</time>
      </trkpt>
      <trkpt lat="49.18143" lon="-0.32442">
        <ele>5.1</ele>
        <time>2024-02-04T08:54:32Z</time>
      </trkpt>
      <trkpt lat="49.18139" lon="-0.32451">
        <ele>5.1</ele>
        <time>2024-02-04T08:54:33Z</time>
      </trkpt>
      <trkpt lat="49.18137" lon="-0.32461">
        <ele>5.1</ele>
        <time>2024-02-04T08:54:34Z</time>
      </trkpt>
      <trkpt lat="49.18134" lon="-0.32469">
        <ele>5.1</ele>
        <time>2024-02-04T08:54:35Z</time>
      </trkpt>
      <trkpt lat="49.18132" lon="-0.32478">
        <ele>5.1</ele>
        <time>2024-02-04T08:54:36Z</time>
      </trkpt>
      <trkpt lat="49.1813" lon="-0.32488">
        <ele>5.1</ele>
        <time>2024-02-04T08:54:37Z</time>
      </trkpt>
      <trkpt lat="49.18127" lon="-0.32496">
        <ele>5.1</ele>
        <time>2024-02-04T08:54:38Z</time>
      </trkpt>
      <trkpt lat="49.18124" lon="-0.32506">
        <ele>5.1</ele>
        <time>2024-02-04T08:54:39Z</time>
      </trkpt>
      <trkpt lat="49.18122" lon="-0.32515">
        <ele>5.1</ele>
        <time>2024-02-04T08:54:40Z</time>
      </trkpt>
      <trkpt lat="49.18119" lon="-0.32523">
        <ele>5</ele>
        <time>2024-02-04T08:54:41Z</time>
      </trkpt>
      <trkpt lat="49.18117" lon="-0.32531">
        <ele>5</ele>
        <time>2024-02-04T08:54:42Z</time>
      </trkpt>
      <trkpt lat="49.18115" lon="-0.32539">
        <ele>5</ele>
        <time>2024-02-04T08:54:43Z</time>
      </trkpt>
      <trkpt lat="49.18112" lon="-0.32547">
        <ele>5</ele>
        <time>2024-02-04T08:54:44Z</time>
      </trkpt>
      <trkpt lat="49.1811" lon="-0.32556">
        <ele>5</ele>
        <time>2024-02-04T08:54:45Z</time>
      </trkpt>
      <trkpt lat="49.18107" lon="-0.32566">
        <ele>5</ele>
        <time>2024-02-04T08:54:46Z</time>
      </trkpt>
      <trkpt lat="49.18104" lon="-0.32575">
        <ele>5</ele>
        <time>2024-02-04T08:54:47Z</time>
      </trkpt>
      <trkpt lat="49.18102" lon="-0.32585">
        <ele>5</ele>
        <time>2024-02-04T08:54:48Z</time>
      </trkpt>
      <trkpt lat="49.18099" lon="-0.32595">
        <ele>5</ele>
        <time>2024-02-04T08:54:49Z</time>
      </trkpt>
      <trkpt lat="49.18097" lon="-0.32604">
        <ele>5</ele>
        <time>2024-02-04T08:54:50Z</time>
      </trkpt>
      <trkpt lat="49.18094" lon="-0.32614">
        <ele>5</ele>
        <time>2024-02-04T08:54:51Z</time>
      </trkpt>
      <trkpt lat="49.18091" lon="-0.32624">
        <ele>5</ele>
        <time>2024-02-04T08:54:52Z</time>
      </trkpt>
      <trkpt lat="49.18089" lon="-0.32634">
        <ele>5.1</ele>
        <time>2024-02-04T08:54:53Z</time>
      </trkpt>
      <trkpt lat="49.18086" lon="-0.32643">
        <ele>5</ele>
        <time>2024-02-04T08:54:54Z</time>
      </trkpt>
      <trkpt lat="49.18084" lon="-0.32653">
        <ele>5</ele>
        <time>2024-02-04T08:54:55Z</time>
      </trkpt>
      <trkpt lat="49.18082" lon="-0.32663">
        <ele>5.1</ele>
        <time>2024-02-04T08:54:56Z</time>
      </trkpt>
      <trkpt lat="49.1808" lon="-0.32673">
        <ele>5.1</ele>
        <time>2024-02-04T08:54:57Z</time>
      </trkpt>
      <trkpt lat="49.18077" lon="-0.32683">
        <ele>5.1</ele>
        <time>2024-02-04T08:54:58Z</time>
      </trkpt>
      <trkpt lat="49.18075" lon="-0.32693">
        <ele>5.2</ele>
        <time>2024-02-04T08:54:59Z</time>
      </trkpt>
      <trkpt lat="49.18073" lon="-0.32703">
        <ele>5.2</ele>
        <time>2024-02-04T08:55:00Z</time>
      </trkpt>
      <trkpt lat="49.18071" lon="-0.32713">
        <ele>5.2</ele>
        <time>2024-02-04T08:55:01Z</time>
      </trkpt>
      <trkpt lat="49.18068" lon="-0.32722">
        <ele>5.2</ele>
        <time>2024-02-04T08:55:02Z</time>
      </trkpt>
      <trkpt lat="49.18066" lon="-0.32732">
        <ele>5.2</ele>
        <time>2024-02-04T08:55:03Z</time>
      </trkpt>
      <trkpt lat="49.18064" lon="-0.32742">
        <ele>5.2</ele>
        <time>2024-02-04T08:55:04Z</time>
      </trkpt>
      <trkpt lat="49.18061" lon="-0.32752">
        <ele>5.2</ele>
        <time>2024-02-04T08:55:05Z</time>
      </trkpt>
      <trkpt lat="49.18058" lon="-0.32762">
        <ele>5.2</ele>
        <time>2024-02-04T08:55:06Z</time>
      </trkpt>
      <trkpt lat="49.18056" lon="-0.32772">
        <ele>5.2</ele>
        <time>2024-02-04T08:55:07Z</time>
      </trkpt>
      <trkpt lat="49.18053" lon="-0.32782">
        <ele>5.2</ele>
        <time>2024-02-04T08:55:08Z</time>
      </trkpt>
      <trkpt lat="49.18051" lon="-0.32793">
        <ele>5.2</ele>
        <time>2024-02-04T08:55:09Z</time>
      </trkpt>
      <trkpt lat="49.18048" lon="-0.32803">
        <ele>5.2</ele>
        <time>2024-02-04T08:55:10Z</time>
      </trkpt>
      <trkpt lat="49.18047" lon="-0.32814">
        <ele>5.2</ele>
        <time>2024-02-04T08:55:11Z</time>
      </trkpt>
      <trkpt lat="49.18044" lon="-0.32824">
        <ele>5.2</ele>
        <time>2024-02-04T08:55:12Z</time>
      </trkpt>
      <trkpt lat="49.18042" lon="-0.32834">
        <ele>5.2</ele>
        <time>2024-02-04T08:55:13Z</time>
      </trkpt>
      <trkpt lat="49.1804" lon="-0.32844">
        <ele>5.2</ele>
        <time>2024-02-04T08:55:14Z</time>
      </trkpt>
      <trkpt lat="49.18038" lon="-0.32855">
        <ele>5.2</ele>
        <time>2024-02-04T08:55:15Z</time>
      </trkpt>
      <trkpt lat="49.18035" lon="-0.32865">
        <ele>5.2</ele>
        <time>2024-02-04T08:55:16Z</time>
      </trkpt>
      <trkpt lat="49.18033" lon="-0.32875">
        <ele>5.2</ele>
        <time>2024-02-04T08:55:17Z</time>
      </trkpt>
      <trkpt lat="49.18031" lon="-0.32886">
        <ele>5.2</ele>
        <time>2024-02-04T08:55:18Z</time>
      </trkpt>
      <trkpt lat="49.18029" lon="-0.32896">
        <ele>5.2</ele>
        <time>2024-02-04T08:55:19Z</time>
      </trkpt>
      <trkpt lat="49.18027" lon="-0.32907">
        <ele>5.2</ele>
        <time>2024-02-04T08:55:20Z</time>
      </trkpt>
      <trkpt lat="49.18025" lon="-0.32917">
        <ele>5.2</ele>
        <time>2024-02-04T08:55:21Z</time>
      </trkpt>
      <trkpt lat="49.18023" lon="-0.32928">
        <ele>5.2</ele>
        <time>2024-02-04T08:55:22Z</time>
      </trkpt>
      <trkpt lat="49.1802" lon="-0.32938">
        <ele>5.2</ele>
        <time>2024-02-04T08:55:23Z</time>
      </trkpt>
      <trkpt lat="49.18018" lon="-0.32948">
        <ele>5.2</ele>
        <time>2024-02-04T08:55:24Z</time>
      </trkpt>
      <trkpt lat="49.18016" lon="-0.32958">
        <ele>5.2</ele>
        <time>2024-02-04T08:55:25Z</time>
      </trkpt>
      <trkpt lat="49.18014" lon="-0.32968">
        <ele>5.2</ele>
        <time>2024-02-04T08:55:26Z</time>
      </trkpt>
      <trkpt lat="49.18012" lon="-0.32979">
        <ele>5.3</ele>
        <time>2024-02-04T08:55:27Z</time>
      </trkpt>
      <trkpt lat="49.1801" lon="-0.32989">
        <ele>5.3</ele>
        <time>2024-02-04T08:55:28Z</time>
      </trkpt>
      <trkpt lat="49.18008" lon="-0.33">
        <ele>5.3</ele>
        <time>2024-02-04T08:55:29Z</time>
      </trkpt>
      <trkpt lat="49.18006" lon="-0.3301">
        <ele>5.3</ele>
        <time>2024-02-04T08:55:30Z</time>
      </trkpt>
      <trkpt lat="49.18005" lon="-0.3302">
        <ele>5.3</ele>
        <time>2024-02-04T08:55:31Z</time>
      </trkpt>
      <trkpt lat="49.18003" lon="-0.33031">
        <ele>5.3</ele>
        <time>2024-02-04T08:55:32Z</time>
      </trkpt>
      <trkpt lat="49.18002" lon="-0.33042">
        <ele>5.3</ele>
        <time>2024-02-04T08:55:33Z</time>
      </trkpt>
      <trkpt lat="49.18" lon="-0.33052">
        <ele>5.3</ele>
        <time>2024-02-04T08:55:34Z</time>
      </trkpt>
      <trkpt lat="49.17998" lon="-0.33063">
        <ele>5.3</ele>
        <time>2024-02-04T08:55:35Z</time>
      </trkpt>
      <trkpt lat="49.17996" lon="-0.33074">
        <ele>5.3</ele>
        <time>2024-02-04T08:55:36Z</time>
      </trkpt>
      <trkpt lat="49.17995" lon="-0.33084">
        <ele>5.3</ele>
        <time>2024-02-04T08:55:37Z</time>
      </trkpt>
      <trkpt lat="49.17993" lon="-0.33094">
        <ele>5.3</ele>
        <time>2024-02-04T08:55:38Z</time>
      </trkpt>
      <trkpt lat="49.17992" lon="-0.33105">
        <ele>5.3</ele>
        <time>2024-02-04T08:55:39Z</time>
      </trkpt>
      <trkpt lat="49.1799" lon="-0.33115">
        <ele>5.3</ele>
        <time>2024-02-04T08:55:40Z</time>
      </trkpt>
      <trkpt lat="49.17988" lon="-0.33126">
        <ele>5.3</ele>
        <time>2024-02-04T08:55:41Z</time>
      </trkpt>
      <trkpt lat="49.17987" lon="-0.33136">
        <ele>5.3</ele>
        <time>2024-02-04T08:55:42Z</time>
      </trkpt>
      <trkpt lat="49.17985" lon="-0.33147">
        <ele>5.2</ele>
        <time>2024-02-04T08:55:43Z</time>
      </trkpt>
      <trkpt lat="49.17984" lon="-0.33157">
        <ele>5.2</ele>
        <time>2024-02-04T08:55:44Z</time>
      </trkpt>
      <trkpt lat="49.17983" lon="-0.33167">
        <ele>5.2</ele>
        <time>2024-02-04T08:55:45Z</time>
      </trkpt>
      <trkpt lat="49.17981" lon="-0.33178">
        <ele>5.2</ele>
        <time>2024-02-04T08:55:46Z</time>
      </trkpt>
      <trkpt lat="49.1798" lon="-0.33188">
        <ele>5.2</ele>
        <time>2024-02-04T08:55:47Z</time>
      </trkpt>
      <trkpt lat="49.17978" lon="-0.33199">
        <ele>5.2</ele>
        <time>2024-02-04T08:55:48Z</time>
      </trkpt>
      <trkpt lat="49.17977" lon="-0.33209">
        <ele>5.2</ele>
        <time>2024-02-04T08:55:49Z</time>
      </trkpt>
      <trkpt lat="49.17975" lon="-0.3322">
        <ele>5.2</ele>
        <time>2024-02-04T08:55:50Z</time>
      </trkpt>
      <trkpt lat="49.17974" lon="-0.33231">
        <ele>5.2</ele>
        <time>2024-02-04T08:55:51Z</time>
      </trkpt>
      <trkpt lat="49.17973" lon="-0.33241">
        <ele>5.2</ele>
        <time>2024-02-04T08:55:52Z</time>
      </trkpt>
      <trkpt lat="49.17971" lon="-0.33252">
        <ele>5.2</ele>
        <time>2024-02-04T08:55:53Z</time>
      </trkpt>
      <trkpt lat="49.1797" lon="-0.33263">
        <ele>5.2</ele>
        <time>2024-02-04T08:55:54Z</time>
      </trkpt>
      <trkpt lat="49.17969" lon="-0.33274">
        <ele>5.2</ele>
        <time>2024-02-04T08:55:55Z</time>
      </trkpt>
      <trkpt lat="49.17968" lon="-0.33284">
        <ele>5.2</ele>
        <time>2024-02-04T08:55:56Z</time>
      </trkpt>
      <trkpt lat="49.17967" lon="-0.33295">
        <ele>5.2</ele>
        <time>2024-02-04T08:55:57Z</time>
      </trkpt>
      <trkpt lat="49.17966" lon="-0.33306">
        <ele>5.2</ele>
        <time>2024-02-04T08:55:58Z</time>
      </trkpt>
      <trkpt lat="49.17965" lon="-0.33317">
        <ele>5.3</ele>
        <time>2024-02-04T08:55:59Z</time>
      </trkpt>
      <trkpt lat="49.17965" lon="-0.33328">
        <ele>5.2</ele>
        <time>2024-02-04T08:56:00Z</time>
      </trkpt>
      <trkpt lat="49.17964" lon="-0.33338">
        <ele>5.2</ele>
        <time>2024-02-04T08:56:01Z</time>
      </trkpt>
      <trkpt lat="49.17963" lon="-0.33349">
        <ele>5.2</ele>
        <time>2024-02-04T08:56:02Z</time>
      </trkpt>
      <trkpt lat="49.17962" lon="-0.33359">
        <ele>5.2</ele>
        <time>2024-02-04T08:56:03Z</time>
      </trkpt>
      <trkpt lat="49.17961" lon="-0.3337">
        <ele>5.2</ele>
        <time>2024-02-04T08:56:04Z</time>
      </trkpt>
      <trkpt lat="49.17961" lon="-0.33381">
        <ele>5.2</ele>
        <time>2024-02-04T08:56:05Z</time>
      </trkpt>
      <trkpt lat="49.17959" lon="-0.33393">
        <ele>5.1</ele>
        <time>2024-02-04T08:56:06Z</time>
      </trkpt>
      <trkpt lat="49.17958" lon="-0.33403">
        <ele>5.1</ele>
        <time>2024-02-04T08:56:07Z</time>
      </trkpt>
      <trkpt lat="49.17958" lon="-0.33413">
        <ele>5.1</ele>
        <time>2024-02-04T08:56:08Z</time>
      </trkpt>
      <trkpt lat="49.17957" lon="-0.33423">
        <ele>5.1</ele>
        <time>2024-02-04T08:56:09Z</time>
      </trkpt>
      <trkpt lat="49.17957" lon="-0.33435">
        <ele>5.2</ele>
        <time>2024-02-04T08:56:10Z</time>
      </trkpt>
      <trkpt lat="49.17956" lon="-0.33446">
        <ele>5.2</ele>
        <time>2024-02-04T08:56:11Z</time>
      </trkpt>
      <trkpt lat="49.17955" lon="-0.33458">
        <ele>5.2</ele>
        <time>2024-02-04T08:56:12Z</time>
      </trkpt>
      <trkpt lat="49.17954" lon="-0.3347">
        <ele>5.2</ele>
        <time>2024-02-04T08:56:13Z</time>
      </trkpt>
      <trkpt lat="49.17954" lon="-0.33481">
        <ele>5.2</ele>
        <time>2024-02-04T08:56:14Z</time>
      </trkpt>
      <trkpt lat="49.17953" lon="-0.33492">
        <ele>5.3</ele>
        <time>2024-02-04T08:56:15Z</time>
      </trkpt>
      <trkpt lat="49.17953" lon="-0.33503">
        <ele>5.3</ele>
        <time>2024-02-04T08:56:16Z</time>
      </trkpt>
      <trkpt lat="49.17952" lon="-0.33514">
        <ele>5.3</ele>
        <time>2024-02-04T08:56:17Z</time>
      </trkpt>
      <trkpt lat="49.17952" lon="-0.33525">
        <ele>5.3</ele>
        <time>2024-02-04T08:56:18Z</time>
      </trkpt>
      <trkpt lat="49.17952" lon="-0.33536">
        <ele>5.3</ele>
        <time>2024-02-04T08:56:19Z</time>
      </trkpt>
      <trkpt lat="49.17951" lon="-0.33548">
        <ele>5.3</ele>
        <time>2024-02-04T08:56:20Z</time>
      </trkpt>
      <trkpt lat="49.17951" lon="-0.33559">
        <ele>5.4</ele>
        <time>2024-02-04T08:56:21Z</time>
      </trkpt>
      <trkpt lat="49.17951" lon="-0.33571">
        <ele>5.4</ele>
        <time>2024-02-04T08:56:22Z</time>
      </trkpt>
      <trkpt lat="49.17951" lon="-0.33582">
        <ele>5.4</ele>
        <time>2024-02-04T08:56:23Z</time>
      </trkpt>
      <trkpt lat="49.1795" lon="-0.33594">
        <ele>5.5</ele>
        <time>2024-02-04T08:56:24Z</time>
      </trkpt>
      <trkpt lat="49.1795" lon="-0.33605">
        <ele>5.5</ele>
        <time>2024-02-04T08:56:25Z</time>
      </trkpt>
      <trkpt lat="49.17949" lon="-0.33616">
        <ele>5.5</ele>
        <time>2024-02-04T08:56:26Z</time>
      </trkpt>
      <trkpt lat="49.17949" lon="-0.33627">
        <ele>5.6</ele>
        <time>2024-02-04T08:56:27Z</time>
      </trkpt>
      <trkpt lat="49.1795" lon="-0.33637">
        <ele>5.6</ele>
        <time>2024-02-04T08:56:28Z</time>
      </trkpt>
      <trkpt lat="49.1795" lon="-0.33648">
        <ele>5.6</ele>
        <time>2024-02-04T08:56:29Z</time>
      </trkpt>
      <trkpt lat="49.1795" lon="-0.33659">
        <ele>5.6</ele>
        <time>2024-02-04T08:56:30Z</time>
      </trkpt>
      <trkpt lat="49.17951" lon="-0.3367">
        <ele>5.7</ele>
        <time>2024-02-04T08:56:31Z</time>
      </trkpt>
      <trkpt lat="49.17951" lon="-0.3368">
        <ele>5.7</ele>
        <time>2024-02-04T08:56:32Z</time>
      </trkpt>
      <trkpt lat="49.17952" lon="-0.33691">
        <ele>5.7</ele>
        <time>2024-02-04T08:56:33Z</time>
      </trkpt>
      <trkpt lat="49.17953" lon="-0.33701">
        <ele>5.7</ele>
        <time>2024-02-04T08:56:34Z</time>
      </trkpt>
      <trkpt lat="49.17953" lon="-0.33712">
        <ele>5.7</ele>
        <time>2024-02-04T08:56:35Z</time>
      </trkpt>
      <trkpt lat="49.17953" lon="-0.33722">
        <ele>5.7</ele>
        <time>2024-02-04T08:56:36Z</time>
      </trkpt>
      <trkpt lat="49.17954" lon="-0.33733">
        <ele>5.8</ele>
        <time>2024-02-04T08:56:37Z</time>
      </trkpt>
      <trkpt lat="49.17954" lon="-0.33743">
        <ele>5.8</ele>
        <time>2024-02-04T08:56:38Z</time>
      </trkpt>
      <trkpt lat="49.17954" lon="-0.33753">
        <ele>5.8</ele>
        <time>2024-02-04T08:56:39Z</time>
      </trkpt>
      <trkpt lat="49.17955" lon="-0.33764">
        <ele>5.8</ele>
        <time>2024-02-04T08:56:40Z</time>
      </trkpt>
      <trkpt lat="49.17955" lon="-0.33774">
        <ele>5.8</ele>
        <time>2024-02-04T08:56:41Z</time>
      </trkpt>
      <trkpt lat="49.17956" lon="-0.33785">
        <ele>5.8</ele>
        <time>2024-02-04T08:56:42Z</time>
      </trkpt>
      <trkpt lat="49.17956" lon="-0.33796">
        <ele>5.8</ele>
        <time>2024-02-04T08:56:43Z</time>
      </trkpt>
      <trkpt lat="49.17956" lon="-0.33806">
        <ele>5.8</ele>
        <time>2024-02-04T08:56:44Z</time>
      </trkpt>
      <trkpt lat="49.17957" lon="-0.33818">
        <ele>5.8</ele>
        <time>2024-02-04T08:56:45Z</time>
      </trkpt>
      <trkpt lat="49.17957" lon="-0.33829">
        <ele>5.8</ele>
        <time>2024-02-04T08:56:46Z</time>
      </trkpt>
      <trkpt lat="49.17958" lon="-0.3384">
        <ele>5.8</ele>
        <time>2024-02-04T08:56:47Z</time>
      </trkpt>
      <trkpt lat="49.17958" lon="-0.33851">
        <ele>5.8</ele>
        <time>2024-02-04T08:56:48Z</time>
      </trkpt>
      <trkpt lat="49.17958" lon="-0.33861">
        <ele>5.8</ele>
        <time>2024-02-04T08:56:49Z</time>
      </trkpt>
      <trkpt lat="49.17959" lon="-0.33871">
        <ele>5.8</ele>
        <time>2024-02-04T08:56:50Z</time>
      </trkpt>
      <trkpt lat="49.17959" lon="-0.33883">
        <ele>5.7</ele>
        <time>2024-02-04T08:56:51Z</time>
      </trkpt>
      <trkpt lat="49.17959" lon="-0.33894">
        <ele>5.7</ele>
        <time>2024-02-04T08:56:52Z</time>
      </trkpt>
      <trkpt lat="49.17959" lon="-0.33906">
        <ele>5.7</ele>
        <time>2024-02-04T08:56:53Z</time>
      </trkpt>
      <trkpt lat="49.17959" lon="-0.33917">
        <ele>5.7</ele>
        <time>2024-02-04T08:56:54Z</time>
      </trkpt>
      <trkpt lat="49.17958" lon="-0.33929">
        <ele>5.7</ele>
        <time>2024-02-04T08:56:55Z</time>
      </trkpt>
      <trkpt lat="49.17958" lon="-0.3394">
        <ele>5.7</ele>
        <time>2024-02-04T08:56:56Z</time>
      </trkpt>
      <trkpt lat="49.17959" lon="-0.33951">
        <ele>5.7</ele>
        <time>2024-02-04T08:56:57Z</time>
      </trkpt>
      <trkpt lat="49.17959" lon="-0.33961">
        <ele>5.7</ele>
        <time>2024-02-04T08:56:58Z</time>
      </trkpt>
      <trkpt lat="49.17959" lon="-0.33972">
        <ele>5.7</ele>
        <time>2024-02-04T08:56:59Z</time>
      </trkpt>
      <trkpt lat="49.17959" lon="-0.33983">
        <ele>5.8</ele>
        <time>2024-02-04T08:57:00Z</time>
      </trkpt>
      <trkpt lat="49.17959" lon="-0.33994">
        <ele>5.8</ele>
        <time>2024-02-04T08:57:01Z</time>
      </trkpt>
      <trkpt lat="49.17959" lon="-0.34004">
        <ele>5.8</ele>
        <time>2024-02-04T08:57:02Z</time>
      </trkpt>
      <trkpt lat="49.1796" lon="-0.34014">
        <ele>5.8</ele>
        <time>2024-02-04T08:57:03Z</time>
      </trkpt>
      <trkpt lat="49.1796" lon="-0.34024">
        <ele>5.8</ele>
        <time>2024-02-04T08:57:04Z</time>
      </trkpt>
      <trkpt lat="49.1796" lon="-0.34033">
        <ele>5.7</ele>
        <time>2024-02-04T08:57:05Z</time>
      </trkpt>
      <trkpt lat="49.17961" lon="-0.34044">
        <ele>5.7</ele>
        <time>2024-02-04T08:57:06Z</time>
      </trkpt>
      <trkpt lat="49.17961" lon="-0.34055">
        <ele>5.7</ele>
        <time>2024-02-04T08:57:07Z</time>
      </trkpt>
      <trkpt lat="49.17961" lon="-0.34066">
        <ele>5.7</ele>
        <time>2024-02-04T08:57:08Z</time>
      </trkpt>
      <trkpt lat="49.17961" lon="-0.34078">
        <ele>5.7</ele>
        <time>2024-02-04T08:57:09Z</time>
      </trkpt>
      <trkpt lat="49.17961" lon="-0.3409">
        <ele>5.7</ele>
        <time>2024-02-04T08:57:10Z</time>
      </trkpt>
      <trkpt lat="49.17961" lon="-0.34101">
        <ele>5.8</ele>
        <time>2024-02-04T08:57:11Z</time>
      </trkpt>
      <trkpt lat="49.17961" lon="-0.34113">
        <ele>5.8</ele>
        <time>2024-02-04T08:57:12Z</time>
      </trkpt>
      <trkpt lat="49.17961" lon="-0.34124">
        <ele>5.9</ele>
        <time>2024-02-04T08:57:13Z</time>
      </trkpt>
      <trkpt lat="49.17961" lon="-0.34135">
        <ele>5.9</ele>
        <time>2024-02-04T08:57:14Z</time>
      </trkpt>
      <trkpt lat="49.17961" lon="-0.34145">
        <ele>5.9</ele>
        <time>2024-02-04T08:57:15Z</time>
      </trkpt>
      <trkpt lat="49.17961" lon="-0.34156">
        <ele>5.9</ele>
        <time>2024-02-04T08:57:16Z</time>
      </trkpt>
      <trkpt lat="49.17961" lon="-0.34167">
        <ele>5.9</ele>
        <time>2024-02-04T08:57:17Z</time>
      </trkpt>
      <trkpt lat="49.1796" lon="-0.34178">
        <ele>5.9</ele>
        <time>2024-02-04T08:57:18Z</time>
      </trkpt>
      <trkpt lat="49.1796" lon="-0.34189">
        <ele>5.9</ele>
        <time>2024-02-04T08:57:19Z</time>
      </trkpt>
      <trkpt lat="49.1796" lon="-0.342">
        <ele>6</ele>
        <time>2024-02-04T08:57:20Z</time>
      </trkpt>
      <trkpt lat="49.1796" lon="-0.34212">
        <ele>6</ele>
        <time>2024-02-04T08:57:21Z</time>
      </trkpt>
      <trkpt lat="49.17961" lon="-0.34223">
        <ele>6</ele>
        <time>2024-02-04T08:57:22Z</time>
      </trkpt>
      <trkpt lat="49.17962" lon="-0.34235">
        <ele>6.1</ele>
        <time>2024-02-04T08:57:23Z</time>
      </trkpt>
      <trkpt lat="49.17962" lon="-0.34246">
        <ele>6.1</ele>
        <time>2024-02-04T08:57:24Z</time>
      </trkpt>
      <trkpt lat="49.17963" lon="-0.34257">
        <ele>6.1</ele>
        <time>2024-02-04T08:57:25Z</time>
      </trkpt>
      <trkpt lat="49.17963" lon="-0.34268">
        <ele>6.2</ele>
        <time>2024-02-04T08:57:26Z</time>
      </trkpt>
      <trkpt lat="49.17962" lon="-0.34279">
        <ele>6.2</ele>
        <time>2024-02-04T08:57:27Z</time>
      </trkpt>
      <trkpt lat="49.17962" lon="-0.34291">
        <ele>6.2</ele>
        <time>2024-02-04T08:57:28Z</time>
      </trkpt>
      <trkpt lat="49.17962" lon="-0.34302">
        <ele>6.2</ele>
        <time>2024-02-04T08:57:29Z</time>
      </trkpt>
      <trkpt lat="49.17962" lon="-0.34314">
        <ele>6.2</ele>
        <time>2024-02-04T08:57:30Z</time>
      </trkpt>
      <trkpt lat="49.17963" lon="-0.34325">
        <ele>6.2</ele>
        <time>2024-02-04T08:57:31Z</time>
      </trkpt>
      <trkpt lat="49.17963" lon="-0.34337">
        <ele>6.2</ele>
        <time>2024-02-04T08:57:32Z</time>
      </trkpt>
      <trkpt lat="49.17964" lon="-0.34349">
        <ele>6.2</ele>
        <time>2024-02-04T08:57:33Z</time>
      </trkpt>
      <trkpt lat="49.17964" lon="-0.3436">
        <ele>6.3</ele>
        <time>2024-02-04T08:57:34Z</time>
      </trkpt>
      <trkpt lat="49.17965" lon="-0.3437">
        <ele>6.3</ele>
        <time>2024-02-04T08:57:35Z</time>
      </trkpt>
      <trkpt lat="49.17965" lon="-0.34382">
        <ele>6.4</ele>
        <time>2024-02-04T08:57:36Z</time>
      </trkpt>
      <trkpt lat="49.17965" lon="-0.34392">
        <ele>6.4</ele>
        <time>2024-02-04T08:57:37Z</time>
      </trkpt>
      <trkpt lat="49.17966" lon="-0.34402">
        <ele>6.3</ele>
        <time>2024-02-04T08:57:38Z</time>
      </trkpt>
      <trkpt lat="49.17967" lon="-0.34413">
        <ele>6.3</ele>
        <time>2024-02-04T08:57:39Z</time>
      </trkpt>
      <trkpt lat="49.17967" lon="-0.34425">
        <ele>6.3</ele>
        <time>2024-02-04T08:57:40Z</time>
      </trkpt>
      <trkpt lat="49.17969" lon="-0.34436">
        <ele>6.3</ele>
        <time>2024-02-04T08:57:41Z</time>
      </trkpt>
      <trkpt lat="49.17969" lon="-0.34447">
        <ele>6.3</ele>
        <time>2024-02-04T08:57:42Z</time>
      </trkpt>
      <trkpt lat="49.1797" lon="-0.34459">
        <ele>6.2</ele>
        <time>2024-02-04T08:57:43Z</time>
      </trkpt>
      <trkpt lat="49.1797" lon="-0.3447">
        <ele>6.2</ele>
        <time>2024-02-04T08:57:44Z</time>
      </trkpt>
      <trkpt lat="49.1797" lon="-0.3448">
        <ele>6.2</ele>
        <time>2024-02-04T08:57:45Z</time>
      </trkpt>
      <trkpt lat="49.1797" lon="-0.3449">
        <ele>6.2</ele>
        <time>2024-02-04T08:57:46Z</time>
      </trkpt>
      <trkpt lat="49.1797" lon="-0.345">
        <ele>6.2</ele>
        <time>2024-02-04T08:57:47Z</time>
      </trkpt>
      <trkpt lat="49.1797" lon="-0.3451">
        <ele>6.2</ele>
        <time>2024-02-04T08:57:48Z</time>
      </trkpt>
      <trkpt lat="49.17969" lon="-0.3452">
        <ele>6.2</ele>
        <time>2024-02-04T08:57:49Z</time>
      </trkpt>
      <trkpt lat="49.17969" lon="-0.34531">
        <ele>6.2</ele>
        <time>2024-02-04T08:57:50Z</time>
      </trkpt>
      <trkpt lat="49.17968" lon="-0.34542">
        <ele>6.2</ele>
        <time>2024-02-04T08:57:51Z</time>
      </trkpt>
      <trkpt lat="49.17968" lon="-0.34554">
        <ele>6.2</ele>
        <time>2024-02-04T08:57:52Z</time>
      </trkpt>
      <trkpt lat="49.17968" lon="-0.34565">
        <ele>6.2</ele>
        <time>2024-02-04T08:57:53Z</time>
      </trkpt>
      <trkpt lat="49.17969" lon="-0.34576">
        <ele>6.3</ele>
        <time>2024-02-04T08:57:54Z</time>
      </trkpt>
      <trkpt lat="49.17969" lon="-0.34587">
        <ele>6.3</ele>
        <time>2024-02-04T08:57:55Z</time>
      </trkpt>
      <trkpt lat="49.17969" lon="-0.34598">
        <ele>6.3</ele>
        <time>2024-02-04T08:57:56Z</time>
      </trkpt>
      <trkpt lat="49.1797" lon="-0.3461">
        <ele>6.4</ele>
        <time>2024-02-04T08:57:57Z</time>
      </trkpt>
      <trkpt lat="49.1797" lon="-0.34621">
        <ele>6.4</ele>
        <time>2024-02-04T08:57:58Z</time>
      </trkpt>
      <trkpt lat="49.1797" lon="-0.34633">
        <ele>6.4</ele>
        <time>2024-02-04T08:57:59Z</time>
      </trkpt>
      <trkpt lat="49.1797" lon="-0.34644">
        <ele>6.5</ele>
        <time>2024-02-04T08:58:00Z</time>
      </trkpt>
      <trkpt lat="49.1797" lon="-0.34655">
        <ele>6.5</ele>
        <time>2024-02-04T08:58:01Z</time>
      </trkpt>
      <trkpt lat="49.17969" lon="-0.34666">
        <ele>6.5</ele>
        <time>2024-02-04T08:58:02Z</time>
      </trkpt>
      <trkpt lat="49.17969" lon="-0.34677">
        <ele>6.5</ele>
        <time>2024-02-04T08:58:03Z</time>
      </trkpt>
      <trkpt lat="49.1797" lon="-0.34688">
        <ele>6.5</ele>
        <time>2024-02-04T08:58:04Z</time>
      </trkpt>
      <trkpt lat="49.17971" lon="-0.34698">
        <ele>6.6</ele>
        <time>2024-02-04T08:58:05Z</time>
      </trkpt>
      <trkpt lat="49.17971" lon="-0.34708">
        <ele>6.6</ele>
        <time>2024-02-04T08:58:06Z</time>
      </trkpt>
      <trkpt lat="49.17972" lon="-0.34718">
        <ele>6.7</ele>
        <time>2024-02-04T08:58:07Z</time>
      </trkpt>
      <trkpt lat="49.17972" lon="-0.34727">
        <ele>6.7</ele>
        <time>2024-02-04T08:58:08Z</time>
      </trkpt>
      <trkpt lat="49.17972" lon="-0.34737">
        <ele>6.7</ele>
        <time>2024-02-04T08:58:09Z</time>
      </trkpt>
      <trkpt lat="49.17972" lon="-0.34746">
        <ele>6.6</ele>
        <time>2024-02-04T08:58:10Z</time>
      </trkpt>
      <trkpt lat="49.17972" lon="-0.34755">
        <ele>6.6</ele>
        <time>2024-02-04T08:58:11Z</time>
      </trkpt>
      <trkpt lat="49.17972" lon="-0.34764">
        <ele>6.6</ele>
        <time>2024-02-04T08:58:12Z</time>
      </trkpt>
      <trkpt lat="49.17971" lon="-0.34772">
        <ele>6.6</ele>
        <time>2024-02-04T08:58:13Z</time>
      </trkpt>
      <trkpt lat="49.17971" lon="-0.3478">
        <ele>6.5</ele>
        <time>2024-02-04T08:58:14Z</time>
      </trkpt>
      <trkpt lat="49.1797" lon="-0.34789">
        <ele>6.5</ele>
        <time>2024-02-04T08:58:15Z</time>
      </trkpt>
      <trkpt lat="49.17969" lon="-0.34796">
        <ele>6.5</ele>
        <time>2024-02-04T08:58:16Z</time>
      </trkpt>
      <trkpt lat="49.17968" lon="-0.34805">
        <ele>6.5</ele>
        <time>2024-02-04T08:58:17Z</time>
      </trkpt>
      <trkpt lat="49.17967" lon="-0.34813">
        <ele>6.5</ele>
        <time>2024-02-04T08:58:18Z</time>
      </trkpt>
      <trkpt lat="49.17966" lon="-0.3482">
        <ele>6.5</ele>
        <time>2024-02-04T08:58:19Z</time>
      </trkpt>
      <trkpt lat="49.17965" lon="-0.34828">
        <ele>6.6</ele>
        <time>2024-02-04T08:58:20Z</time>
      </trkpt>
      <trkpt lat="49.17963" lon="-0.34835">
        <ele>6.6</ele>
        <time>2024-02-04T08:58:21Z</time>
      </trkpt>
      <trkpt lat="49.17961" lon="-0.34842">
        <ele>6.7</ele>
        <time>2024-02-04T08:58:22Z</time>
      </trkpt>
      <trkpt lat="49.17959" lon="-0.34848">
        <ele>6.8</ele>
        <time>2024-02-04T08:58:23Z</time>
      </trkpt>
      <trkpt lat="49.17957" lon="-0.34853">
        <ele>6.9</ele>
        <time>2024-02-04T08:58:24Z</time>
      </trkpt>
      <trkpt lat="49.17955" lon="-0.34858">
        <ele>6.9</ele>
        <time>2024-02-04T08:58:25Z</time>
      </trkpt>
      <trkpt lat="49.17953" lon="-0.34862">
        <ele>7</ele>
        <time>2024-02-04T08:58:26Z</time>
      </trkpt>
      <trkpt lat="49.17952" lon="-0.34864">
        <ele>7.1</ele>
        <time>2024-02-04T08:58:27Z</time>
      </trkpt>
      <trkpt lat="49.17951" lon="-0.34869">
        <ele>7.2</ele>
        <time>2024-02-04T08:58:28Z</time>
      </trkpt>
      <trkpt lat="49.1795" lon="-0.34871">
        <ele>7.2</ele>
        <time>2024-02-04T08:58:29Z</time>
      </trkpt>
      <trkpt lat="49.17948" lon="-0.34876">
        <ele>7.2</ele>
        <time>2024-02-04T08:58:30Z</time>
      </trkpt>
      <trkpt lat="49.17948" lon="-0.34877">
        <ele>7.2</ele>
        <time>2024-02-04T08:58:31Z</time>
      </trkpt>
      <trkpt lat="49.17946" lon="-0.34883">
        <ele>7.3</ele>
        <time>2024-02-04T08:58:32Z</time>
      </trkpt>
      <trkpt lat="49.17946" lon="-0.34884">
        <ele>7.3</ele>
        <time>2024-02-04T08:58:33Z</time>
      </trkpt>
      <trkpt lat="49.17944" lon="-0.34889">
        <ele>7.3</ele>
        <time>2024-02-04T08:58:34Z</time>
      </trkpt>
      <trkpt lat="49.17944" lon="-0.34893">
        <ele>7.3</ele>
        <time>2024-02-04T08:58:35Z</time>
      </trkpt>
      <trkpt lat="49.17943" lon="-0.34897">
        <ele>7.3</ele>
        <time>2024-02-04T08:58:36Z</time>
      </trkpt>
      <trkpt lat="49.17942" lon="-0.34902">
        <ele>7.3</ele>
        <time>2024-02-04T08:58:37Z</time>
      </trkpt>
      <trkpt lat="49.1794" lon="-0.34906">
        <ele>7.3</ele>
        <time>2024-02-04T08:58:38Z</time>
      </trkpt>
      <trkpt lat="49.17937" lon="-0.3491">
        <ele>7.4</ele>
        <time>2024-02-04T08:58:39Z</time>
      </trkpt>
      <trkpt lat="49.17935" lon="-0.34914">
        <ele>7.4</ele>
        <time>2024-02-04T08:58:40Z</time>
      </trkpt>
      <trkpt lat="49.17933" lon="-0.34919">
        <ele>7.4</ele>
        <time>2024-02-04T08:58:41Z</time>
      </trkpt>
      <trkpt lat="49.17931" lon="-0.34923">
        <ele>7.4</ele>
        <time>2024-02-04T08:58:42Z</time>
      </trkpt>
      <trkpt lat="49.17928" lon="-0.34929">
        <ele>7.3</ele>
        <time>2024-02-04T08:58:43Z</time>
      </trkpt>
      <trkpt lat="49.17926" lon="-0.34935">
        <ele>7.3</ele>
        <time>2024-02-04T08:58:44Z</time>
      </trkpt>
      <trkpt lat="49.17922" lon="-0.34942">
        <ele>7.2</ele>
        <time>2024-02-04T08:58:45Z</time>
      </trkpt>
      <trkpt lat="49.17919" lon="-0.3495">
        <ele>7.2</ele>
        <time>2024-02-04T08:58:46Z</time>
      </trkpt>
      <trkpt lat="49.17916" lon="-0.34958">
        <ele>7.1</ele>
        <time>2024-02-04T08:58:47Z</time>
      </trkpt>
      <trkpt lat="49.17912" lon="-0.34967">
        <ele>7.1</ele>
        <time>2024-02-04T08:58:48Z</time>
      </trkpt>
      <trkpt lat="49.17908" lon="-0.34975">
        <ele>7</ele>
        <time>2024-02-04T08:58:49Z</time>
      </trkpt>
      <trkpt lat="49.17904" lon="-0.34984">
        <ele>7</ele>
        <time>2024-02-04T08:58:50Z</time>
      </trkpt>
      <trkpt lat="49.179" lon="-0.34993">
        <ele>7</ele>
        <time>2024-02-04T08:58:51Z</time>
      </trkpt>
      <trkpt lat="49.17896" lon="-0.35001">
        <ele>6.9</ele>
        <time>2024-02-04T08:58:52Z</time>
      </trkpt>
      <trkpt lat="49.17892" lon="-0.3501">
        <ele>6.9</ele>
        <time>2024-02-04T08:58:53Z</time>
      </trkpt>
      <trkpt lat="49.17888" lon="-0.35018">
        <ele>6.9</ele>
        <time>2024-02-04T08:58:54Z</time>
      </trkpt>
      <trkpt lat="49.17884" lon="-0.35026">
        <ele>6.9</ele>
        <time>2024-02-04T08:58:55Z</time>
      </trkpt>
      <trkpt lat="49.17881" lon="-0.35034">
        <ele>6.9</ele>
        <time>2024-02-04T08:58:56Z</time>
      </trkpt>
      <trkpt lat="49.17878" lon="-0.35042">
        <ele>6.9</ele>
        <time>2024-02-04T08:58:57Z</time>
      </trkpt>
      <trkpt lat="49.17874" lon="-0.35049">
        <ele>6.9</ele>
        <time>2024-02-04T08:58:58Z</time>
      </trkpt>
      <trkpt lat="49.17871" lon="-0.35057">
        <ele>6.9</ele>
        <time>2024-02-04T08:58:59Z</time>
      </trkpt>
      <trkpt lat="49.17868" lon="-0.35064">
        <ele>6.9</ele>
        <time>2024-02-04T08:59:00Z</time>
      </trkpt>
      <trkpt lat="49.17865" lon="-0.35072">
        <ele>6.9</ele>
        <time>2024-02-04T08:59:01Z</time>
      </trkpt>
      <trkpt lat="49.17861" lon="-0.3508">
        <ele>6.9</ele>
        <time>2024-02-04T08:59:02Z</time>
      </trkpt>
      <trkpt lat="49.17857" lon="-0.35088">
        <ele>6.9</ele>
        <time>2024-02-04T08:59:03Z</time>
      </trkpt>
      <trkpt lat="49.17854" lon="-0.35095">
        <ele>6.9</ele>
        <time>2024-02-04T08:59:04Z</time>
      </trkpt>
      <trkpt lat="49.1785" lon="-0.35103">
        <ele>6.9</ele>
        <time>2024-02-04T08:59:05Z</time>
      </trkpt>
      <trkpt lat="49.17847" lon="-0.3511">
        <ele>6.9</ele>
        <time>2024-02-04T08:59:06Z</time>
      </trkpt>
      <trkpt lat="49.17844" lon="-0.35118">
        <ele>6.9</ele>
        <time>2024-02-04T08:59:07Z</time>
      </trkpt>
      <trkpt lat="49.1784" lon="-0.35126">
        <ele>7</ele>
        <time>2024-02-04T08:59:08Z</time>
      </trkpt>
      <trkpt lat="49.17836" lon="-0.35134">
        <ele>7</ele>
        <time>2024-02-04T08:59:09Z</time>
      </trkpt>
      <trkpt lat="49.17833" lon="-0.35142">
        <ele>7</ele>
        <time>2024-02-04T08:59:10Z</time>
      </trkpt>
      <trkpt lat="49.17829" lon="-0.3515">
        <ele>7</ele>
        <time>2024-02-04T08:59:11Z</time>
      </trkpt>
      <trkpt lat="49.17826" lon="-0.35158">
        <ele>7.1</ele>
        <time>2024-02-04T08:59:12Z</time>
      </trkpt>
      <trkpt lat="49.17823" lon="-0.35166">
        <ele>7.1</ele>
        <time>2024-02-04T08:59:13Z</time>
      </trkpt>
      <trkpt lat="49.17819" lon="-0.35174">
        <ele>7.2</ele>
        <time>2024-02-04T08:59:14Z</time>
      </trkpt>
      <trkpt lat="49.17816" lon="-0.35182">
        <ele>7.2</ele>
        <time>2024-02-04T08:59:15Z</time>
      </trkpt>
      <trkpt lat="49.17812" lon="-0.3519">
        <ele>7.3</ele>
        <time>2024-02-04T08:59:16Z</time>
      </trkpt>
      <trkpt lat="49.17809" lon="-0.35197">
        <ele>7.3</ele>
        <time>2024-02-04T08:59:17Z</time>
      </trkpt>
      <trkpt lat="49.17805" lon="-0.35203">
        <ele>7.4</ele>
        <time>2024-02-04T08:59:18Z</time>
      </trkpt>
      <trkpt lat="49.17802" lon="-0.3521">
        <ele>7.4</ele>
        <time>2024-02-04T08:59:19Z</time>
      </trkpt>
      <trkpt lat="49.178" lon="-0.35216">
        <ele>7.5</ele>
        <time>2024-02-04T08:59:20Z</time>
      </trkpt>
      <trkpt lat="49.17798" lon="-0.3522">
        <ele>7.5</ele>
        <time>2024-02-04T08:59:21Z</time>
      </trkpt>
      <trkpt lat="49.17797" lon="-0.35223">
        <ele>7.6</ele>
        <time>2024-02-04T08:59:22Z</time>
      </trkpt>
      <trkpt lat="49.17796" lon="-0.35227">
        <ele>7.6</ele>
        <time>2024-02-04T08:59:23Z</time>
      </trkpt>
      <trkpt lat="49.17794" lon="-0.35231">
        <ele>7.6</ele>
        <time>2024-02-04T08:59:24Z</time>
      </trkpt>
      <trkpt lat="49.17793" lon="-0.35232">
        <ele>7.6</ele>
        <time>2024-02-04T08:59:25Z</time>
      </trkpt>
      <trkpt lat="49.17791" lon="-0.35236">
        <ele>7.7</ele>
        <time>2024-02-04T08:59:26Z</time>
      </trkpt>
      <trkpt lat="49.17791" lon="-0.35238">
        <ele>7.7</ele>
        <time>2024-02-04T08:59:27Z</time>
      </trkpt>
      <trkpt lat="49.17789" lon="-0.35242">
        <ele>7.7</ele>
        <time>2024-02-04T08:59:28Z</time>
      </trkpt>
      <trkpt lat="49.17789" lon="-0.35243">
        <ele>7.8</ele>
        <time>2024-02-04T08:59:29Z</time>
      </trkpt>
      <trkpt lat="49.17787" lon="-0.35247">
        <ele>7.8</ele>
        <time>2024-02-04T08:59:30Z</time>
      </trkpt>
      <trkpt lat="49.17787" lon="-0.35248">
        <ele>7.8</ele>
        <time>2024-02-04T08:59:31Z</time>
      </trkpt>
      <trkpt lat="49.17786" lon="-0.3525">
        <ele>7.9</ele>
        <time>2024-02-04T08:59:32Z</time>
      </trkpt>
      <trkpt lat="49.17785" lon="-0.35252">
        <ele>7.9</ele>
        <time>2024-02-04T08:59:33Z</time>
      </trkpt>
      <trkpt lat="49.17784" lon="-0.35254">
        <ele>7.9</ele>
        <time>2024-02-04T08:59:34Z</time>
      </trkpt>
      <trkpt lat="49.17783" lon="-0.35255">
        <ele>7.9</ele>
        <time>2024-02-04T08:59:35Z</time>
      </trkpt>
      <trkpt lat="49.17783" lon="-0.35256">
        <ele>8</ele>
        <time>2024-02-04T08:59:36Z</time>
      </trkpt>
      <trkpt lat="49.17782" lon="-0.35256">
        <ele>8</ele>
        <time>2024-02-04T08:59:37Z</time>
      </trkpt>
      <trkpt lat="49.17782" lon="-0.35256">
        <ele>8</ele>
        <time>2024-02-04T08:59:38Z</time>
      </trkpt>
      <trkpt lat="49.17782" lon="-0.35256">
        <ele>8</ele>
        <time>2024-02-04T08:59:39Z</time>
      </trkpt>
      <trkpt lat="49.17781" lon="-0.35256">
        <ele>8</ele>
        <time>2024-02-04T08:59:40Z</time>
      </trkpt>
      <trkpt lat="49.17781" lon="-0.35256">
        <ele>8</ele>
        <time>2024-02-04T08:59:41Z</time>
      </trkpt>
      <trkpt lat="49.17781" lon="-0.35256">
        <ele>8</ele>
        <time>2024-02-04T08:59:42Z</time>
      </trkpt>
      <trkpt lat="49.17781" lon="-0.35256">
        <ele>8</ele>
        <time>2024-02-04T08:59:43Z</time>
      </trkpt>
      <trkpt lat="49.17781" lon="-0.35257">
        <ele>8</ele>
        <time>2024-02-04T08:59:44Z</time>
      </trkpt>
      <trkpt lat="49.1778" lon="-0.35259">
        <ele>8</ele>
        <time>2024-02-04T08:59:45Z</time>
      </trkpt>
      <trkpt lat="49.17779" lon="-0.35263">
        <ele>8.1</ele>
        <time>2024-02-04T08:59:46Z</time>
      </trkpt>
      <trkpt lat="49.17778" lon="-0.35264">
        <ele>8.1</ele>
        <time>2024-02-04T08:59:47Z</time>
      </trkpt>
      <trkpt lat="49.17776" lon="-0.35269">
        <ele>8.2</ele>
        <time>2024-02-04T08:59:48Z</time>
      </trkpt>
      <trkpt lat="49.17775" lon="-0.35271">
        <ele>8.2</ele>
        <time>2024-02-04T08:59:49Z</time>
      </trkpt>
      <trkpt lat="49.17773" lon="-0.35275">
        <ele>8.2</ele>
        <time>2024-02-04T08:59:50Z</time>
      </trkpt>
      <trkpt lat="49.1777" lon="-0.35279">
        <ele>8.2</ele>
        <time>2024-02-04T08:59:51Z</time>
      </trkpt>
      <trkpt lat="49.17768" lon="-0.35285">
        <ele>8.2</ele>
        <time>2024-02-04T08:59:52Z</time>
      </trkpt>
      <trkpt lat="49.17766" lon="-0.3529">
        <ele>8.2</ele>
        <time>2024-02-04T08:59:53Z</time>
      </trkpt>
      <trkpt lat="49.17764" lon="-0.35294">
        <ele>8.1</ele>
        <time>2024-02-04T08:59:54Z</time>
      </trkpt>
      <trkpt lat="49.17762" lon="-0.353">
        <ele>8.1</ele>
        <time>2024-02-04T08:59:55Z</time>
      </trkpt>
      <trkpt lat="49.1776" lon="-0.35306">
        <ele>8</ele>
        <time>2024-02-04T08:59:56Z</time>
      </trkpt>
      <trkpt lat="49.17758" lon="-0.35311">
        <ele>7.9</ele>
        <time>2024-02-04T08:59:57Z</time>
      </trkpt>
      <trkpt lat="49.17755" lon="-0.35317">
        <ele>7.9</ele>
        <time>2024-02-04T08:59:58Z</time>
      </trkpt>
      <trkpt lat="49.17753" lon="-0.35322">
        <ele>7.8</ele>
        <time>2024-02-04T08:59:59Z</time>
      </trkpt>
      <trkpt lat="49.17751" lon="-0.35328">
        <ele>7.8</ele>
        <time>2024-02-04T09:00:00Z</time>
      </trkpt>
      <trkpt lat="49.17749" lon="-0.35335">
        <ele>7.8</ele>
        <time>2024-02-04T09:00:01Z</time>
      </trkpt>
      <trkpt lat="49.17746" lon="-0.35342">
        <ele>7.7</ele>
        <time>2024-02-04T09:00:02Z</time>
      </trkpt>
      <trkpt lat="49.17743" lon="-0.35349">
        <ele>7.7</ele>
        <time>2024-02-04T09:00:03Z</time>
      </trkpt>
      <trkpt lat="49.17739" lon="-0.35355">
        <ele>7.7</ele>
        <time>2024-02-04T09:00:04Z</time>
      </trkpt>
      <trkpt lat="49.17736" lon="-0.35361">
        <ele>7.7</ele>
        <time>2024-02-04T09:00:05Z</time>
      </trkpt>
      <trkpt lat="49.17732" lon="-0.35368">
        <ele>7.7</ele>
        <time>2024-02-04T09:00:06Z</time>
      </trkpt>
      <trkpt lat="49.1773" lon="-0.35374">
        <ele>7.7</ele>
        <time>2024-02-04T09:00:07Z</time>
      </trkpt>
      <trkpt lat="49.17727" lon="-0.35381">
        <ele>7.8</ele>
        <time>2024-02-04T09:00:08Z</time>
      </trkpt>
      <trkpt lat="49.17724" lon="-0.35387">
        <ele>7.8</ele>
        <time>2024-02-04T09:00:09Z</time>
      </trkpt>
      <trkpt lat="49.17721" lon="-0.35394">
        <ele>7.9</ele>
        <time>2024-02-04T09:00:10Z</time>
      </trkpt>
      <trkpt lat="49.17718" lon="-0.35398">
        <ele>7.9</ele>
        <time>2024-02-04T09:00:11Z</time>
      </trkpt>
      <trkpt lat="49.17716" lon="-0.35404">
        <ele>7.9</ele>
        <time>2024-02-04T09:00:12Z</time>
      </trkpt>
      <trkpt lat="49.17713" lon="-0.35409">
        <ele>7.9</ele>
        <time>2024-02-04T09:00:13Z</time>
      </trkpt>
      <trkpt lat="49.17711" lon="-0.35415">
        <ele>8</ele>
        <time>2024-02-04T09:00:14Z</time>
      </trkpt>
      <trkpt lat="49.17709" lon="-0.3542">
        <ele>8</ele>
        <time>2024-02-04T09:00:15Z</time>
      </trkpt>
      <trkpt lat="49.17707" lon="-0.35425">
        <ele>8</ele>
        <time>2024-02-04T09:00:16Z</time>
      </trkpt>
      <trkpt lat="49.17705" lon="-0.35431">
        <ele>8.1</ele>
        <time>2024-02-04T09:00:17Z</time>
      </trkpt>
      <trkpt lat="49.17703" lon="-0.35436">
        <ele>8.1</ele>
        <time>2024-02-04T09:00:18Z</time>
      </trkpt>
      <trkpt lat="49.177" lon="-0.35439">
        <ele>8.1</ele>
        <time>2024-02-04T09:00:19Z</time>
      </trkpt>
      <trkpt lat="49.17699" lon="-0.35443">
        <ele>8.2</ele>
        <time>2024-02-04T09:00:20Z</time>
      </trkpt>
      <trkpt lat="49.17698" lon="-0.35445">
        <ele>8.2</ele>
        <time>2024-02-04T09:00:21Z</time>
      </trkpt>
      <trkpt lat="49.17696" lon="-0.35448">
        <ele>8.2</ele>
        <time>2024-02-04T09:00:22Z</time>
      </trkpt>
      <trkpt lat="49.17695" lon="-0.35449">
        <ele>8.2</ele>
        <time>2024-02-04T09:00:23Z</time>
      </trkpt>
      <trkpt lat="49.17694" lon="-0.35451">
        <ele>8.2</ele>
        <time>2024-02-04T09:00:24Z</time>
      </trkpt>
      <trkpt lat="49.17693" lon="-0.35453">
        <ele>8.3</ele>
        <time>2024-02-04T09:00:25Z</time>
      </trkpt>
      <trkpt lat="49.17692" lon="-0.35454">
        <ele>8.3</ele>
        <time>2024-02-04T09:00:26Z</time>
      </trkpt>
      <trkpt lat="49.1769" lon="-0.35456">
        <ele>8.3</ele>
        <time>2024-02-04T09:00:27Z</time>
      </trkpt>
      <trkpt lat="49.17689" lon="-0.35458">
        <ele>8.3</ele>
        <time>2024-02-04T09:00:28Z</time>
      </trkpt>
      <trkpt lat="49.17689" lon="-0.35459">
        <ele>8.3</ele>
        <time>2024-02-04T09:00:29Z</time>
      </trkpt>
      <trkpt lat="49.17688" lon="-0.3546">
        <ele>8.3</ele>
        <time>2024-02-04T09:00:30Z</time>
      </trkpt>
      <trkpt lat="49.17688" lon="-0.35461">
        <ele>8.3</ele>
        <time>2024-02-04T09:00:31Z</time>
      </trkpt>
      <trkpt lat="49.17687" lon="-0.35461">
        <ele>8.4</ele>
        <time>2024-02-04T09:00:32Z</time>
      </trkpt>
      <trkpt lat="49.17687" lon="-0.35462">
        <ele>8.4</ele>
        <time>2024-02-04T09:00:33Z</time>
      </trkpt>
      <trkpt lat="49.17687" lon="-0.35463">
        <ele>8.4</ele>
        <time>2024-02-04T09:00:34Z</time>
      </trkpt>
      <trkpt lat="49.17686" lon="-0.35464">
        <ele>8.4</ele>
        <time>2024-02-04T09:00:35Z</time>
      </trkpt>
      <trkpt lat="49.17686" lon="-0.35465">
        <ele>8.4</ele>
        <time>2024-02-04T09:00:36Z</time>
      </trkpt>
      <trkpt lat="49.17685" lon="-0.35465">
        <ele>8.4</ele>
        <time>2024-02-04T09:00:37Z</time>
      </trkpt>
      <trkpt lat="49.17685" lon="-0.35466">
        <ele>8.4</ele>
        <time>2024-02-04T09:00:38Z</time>
      </trkpt>
      <trkpt lat="49.17685" lon="-0.35467">
        <ele>8.4</ele>
        <time>2024-02-04T09:00:39Z</time>
      </trkpt>
      <trkpt lat="49.17684" lon="-0.35468">
        <ele>8.4</ele>
        <time>2024-02-04T09:00:40Z</time>
      </trkpt>
      <trkpt lat="49.17684" lon="-0.35468">
        <ele>8.5</ele>
        <time>2024-02-04T09:00:44Z</time>
      </trkpt>
      <trkpt lat="49.17683" lon="-0.35469">
        <ele>8.5</ele>
        <time>2024-02-04T09:00:45Z</time>
      </trkpt>
      <trkpt lat="49.17683" lon="-0.3547">
        <ele>8.5</ele>
        <time>2024-02-04T09:00:46Z</time>
      </trkpt>
      <trkpt lat="49.17681" lon="-0.35474">
        <ele>8.5</ele>
        <time>2024-02-04T09:00:47Z</time>
      </trkpt>
      <trkpt lat="49.17678" lon="-0.35478">
        <ele>8.4</ele>
        <time>2024-02-04T09:00:48Z</time>
      </trkpt>
      <trkpt lat="49.17675" lon="-0.35482">
        <ele>8.3</ele>
        <time>2024-02-04T09:00:49Z</time>
      </trkpt>
      <trkpt lat="49.17673" lon="-0.35487">
        <ele>8.2</ele>
        <time>2024-02-04T09:00:50Z</time>
      </trkpt>
      <trkpt lat="49.1767" lon="-0.35493">
        <ele>8.1</ele>
        <time>2024-02-04T09:00:51Z</time>
      </trkpt>
      <trkpt lat="49.17667" lon="-0.35499">
        <ele>8.1</ele>
        <time>2024-02-04T09:00:52Z</time>
      </trkpt>
      <trkpt lat="49.17664" lon="-0.35505">
        <ele>8</ele>
        <time>2024-02-04T09:00:53Z</time>
      </trkpt>
      <trkpt lat="49.17661" lon="-0.35512">
        <ele>7.9</ele>
        <time>2024-02-04T09:00:54Z</time>
      </trkpt>
      <trkpt lat="49.17657" lon="-0.35519">
        <ele>7.9</ele>
        <time>2024-02-04T09:00:55Z</time>
      </trkpt>
      <trkpt lat="49.17654" lon="-0.35527">
        <ele>7.8</ele>
        <time>2024-02-04T09:00:56Z</time>
      </trkpt>
      <trkpt lat="49.1765" lon="-0.35536">
        <ele>7.7</ele>
        <time>2024-02-04T09:00:57Z</time>
      </trkpt>
      <trkpt lat="49.17646" lon="-0.35545">
        <ele>7.7</ele>
        <time>2024-02-04T09:00:58Z</time>
      </trkpt>
      <trkpt lat="49.17641" lon="-0.35554">
        <ele>7.6</ele>
        <time>2024-02-04T09:00:59Z</time>
      </trkpt>
      <trkpt lat="49.17637" lon="-0.35564">
        <ele>7.6</ele>
        <time>2024-02-04T09:01:00Z</time>
      </trkpt>
      <trkpt lat="49.17633" lon="-0.35573">
        <ele>7.6</ele>
        <time>2024-02-04T09:01:01Z</time>
      </trkpt>
      <trkpt lat="49.17628" lon="-0.35583">
        <ele>7.6</ele>
        <time>2024-02-04T09:01:02Z</time>
      </trkpt>
      <trkpt lat="49.17624" lon="-0.35593">
        <ele>7.6</ele>
        <time>2024-02-04T09:01:03Z</time>
      </trkpt>
      <trkpt lat="49.17619" lon="-0.35603">
        <ele>7.6</ele>
        <time>2024-02-04T09:01:04Z</time>
      </trkpt>
      <trkpt lat="49.17615" lon="-0.35613">
        <ele>7.6</ele>
        <time>2024-02-04T09:01:05Z</time>
      </trkpt>
      <trkpt lat="49.17612" lon="-0.35622">
        <ele>7.6</ele>
        <time>2024-02-04T09:01:06Z</time>
      </trkpt>
      <trkpt lat="49.17607" lon="-0.3563">
        <ele>7.6</ele>
        <time>2024-02-04T09:01:07Z</time>
      </trkpt>
      <trkpt lat="49.17603" lon="-0.35639">
        <ele>7.7</ele>
        <time>2024-02-04T09:01:08Z</time>
      </trkpt>
      <trkpt lat="49.17599" lon="-0.35647">
        <ele>7.7</ele>
        <time>2024-02-04T09:01:09Z</time>
      </trkpt>
      <trkpt lat="49.17594" lon="-0.35656">
        <ele>7.8</ele>
        <time>2024-02-04T09:01:10Z</time>
      </trkpt>
      <trkpt lat="49.1759" lon="-0.35664">
        <ele>7.9</ele>
        <time>2024-02-04T09:01:11Z</time>
      </trkpt>
      <trkpt lat="49.17587" lon="-0.35671">
        <ele>7.9</ele>
        <time>2024-02-04T09:01:12Z</time>
      </trkpt>
      <trkpt lat="49.17584" lon="-0.35677">
        <ele>8</ele>
        <time>2024-02-04T09:01:13Z</time>
      </trkpt>
      <trkpt lat="49.17582" lon="-0.35683">
        <ele>8.1</ele>
        <time>2024-02-04T09:01:14Z</time>
      </trkpt>
      <trkpt lat="49.17582" lon="-0.35689">
        <ele>8.3</ele>
        <time>2024-02-04T09:01:15Z</time>
      </trkpt>
      <trkpt lat="49.17582" lon="-0.35695">
        <ele>8.4</ele>
        <time>2024-02-04T09:01:16Z</time>
      </trkpt>
      <trkpt lat="49.17584" lon="-0.35701">
        <ele>8.5</ele>
        <time>2024-02-04T09:01:17Z</time>
      </trkpt>
      <trkpt lat="49.17586" lon="-0.35706">
        <ele>8.6</ele>
        <time>2024-02-04T09:01:18Z</time>
      </trkpt>
      <trkpt lat="49.17588" lon="-0.35712">
        <ele>8.7</ele>
        <time>2024-02-04T09:01:19Z</time>
      </trkpt>
      <trkpt lat="49.1759" lon="-0.35717">
        <ele>8.7</ele>
        <time>2024-02-04T09:01:20Z</time>
      </trkpt>
      <trkpt lat="49.17593" lon="-0.35722">
        <ele>8.7</ele>
        <time>2024-02-04T09:01:21Z</time>
      </trkpt>
      <trkpt lat="49.17596" lon="-0.35727">
        <ele>8.6</ele>
        <time>2024-02-04T09:01:22Z</time>
      </trkpt>
      <trkpt lat="49.17599" lon="-0.35733">
        <ele>8.6</ele>
        <time>2024-02-04T09:01:23Z</time>
      </trkpt>
      <trkpt lat="49.17602" lon="-0.35739">
        <ele>8.6</ele>
        <time>2024-02-04T09:01:24Z</time>
      </trkpt>
      <trkpt lat="49.17606" lon="-0.35744">
        <ele>8.6</ele>
        <time>2024-02-04T09:01:25Z</time>
      </trkpt>
      <trkpt lat="49.17609" lon="-0.35748">
        <ele>8.5</ele>
        <time>2024-02-04T09:01:26Z</time>
      </trkpt>
      <trkpt lat="49.17612" lon="-0.35752">
        <ele>8.5</ele>
        <time>2024-02-04T09:01:27Z</time>
      </trkpt>
      <trkpt lat="49.17614" lon="-0.35756">
        <ele>8.5</ele>
        <time>2024-02-04T09:01:28Z</time>
      </trkpt>
      <trkpt lat="49.17615" lon="-0.35757">
        <ele>8.5</ele>
        <time>2024-02-04T09:01:29Z</time>
      </trkpt>
      <trkpt lat="49.17616" lon="-0.35759">
        <ele>8.5</ele>
        <time>2024-02-04T09:01:30Z</time>
      </trkpt>
      <trkpt lat="49.17617" lon="-0.3576">
        <ele>8.4</ele>
        <time>2024-02-04T09:01:31Z</time>
      </trkpt>
      <trkpt lat="49.17617" lon="-0.35761">
        <ele>8.4</ele>
        <time>2024-02-04T09:01:32Z</time>
      </trkpt>
      <trkpt lat="49.17617" lon="-0.35761">
        <ele>8.4</ele>
        <time>2024-02-04T09:01:33Z</time>
      </trkpt>
      <trkpt lat="49.17617" lon="-0.35762">
        <ele>8.4</ele>
        <time>2024-02-04T09:01:34Z</time>
      </trkpt>
      <trkpt lat="49.17617" lon="-0.35762">
        <ele>8.4</ele>
        <time>2024-02-04T09:01:35Z</time>
      </trkpt>
      <trkpt lat="49.17617" lon="-0.35762">
        <ele>8.4</ele>
        <time>2024-02-04T09:01:36Z</time>
      </trkpt>
      <trkpt lat="49.17618" lon="-0.35763">
        <ele>8.4</ele>
        <time>2024-02-04T09:01:37Z</time>
      </trkpt>
      <trkpt lat="49.17618" lon="-0.35765">
        <ele>8.4</ele>
        <time>2024-02-04T09:01:38Z</time>
      </trkpt>
      <trkpt lat="49.17619" lon="-0.35769">
        <ele>8.3</ele>
        <time>2024-02-04T09:01:39Z</time>
      </trkpt>
      <trkpt lat="49.17618" lon="-0.35771">
        <ele>8.3</ele>
        <time>2024-02-04T09:01:40Z</time>
      </trkpt>
      <trkpt lat="49.17617" lon="-0.35776">
        <ele>8.3</ele>
        <time>2024-02-04T09:01:41Z</time>
      </trkpt>
      <trkpt lat="49.17616" lon="-0.35777">
        <ele>8.3</ele>
        <time>2024-02-04T09:01:42Z</time>
      </trkpt>
      <trkpt lat="49.17615" lon="-0.35783">
        <ele>8.2</ele>
        <time>2024-02-04T09:01:43Z</time>
      </trkpt>
      <trkpt lat="49.17615" lon="-0.35785">
        <ele>8.2</ele>
        <time>2024-02-04T09:01:44Z</time>
      </trkpt>
      <trkpt lat="49.17614" lon="-0.35789">
        <ele>8.2</ele>
        <time>2024-02-04T09:01:45Z</time>
      </trkpt>
      <trkpt lat="49.17612" lon="-0.35793">
        <ele>8.1</ele>
        <time>2024-02-04T09:01:46Z</time>
      </trkpt>
      <trkpt lat="49.1761" lon="-0.35798">
        <ele>8.1</ele>
        <time>2024-02-04T09:01:47Z</time>
      </trkpt>
      <trkpt lat="49.17607" lon="-0.35802">
        <ele>8</ele>
        <time>2024-02-04T09:01:48Z</time>
      </trkpt>
      <trkpt lat="49.17605" lon="-0.35808">
        <ele>8</ele>
        <time>2024-02-04T09:01:49Z</time>
      </trkpt>
      <trkpt lat="49.17604" lon="-0.35815">
        <ele>7.9</ele>
        <time>2024-02-04T09:01:50Z</time>
      </trkpt>
      <trkpt lat="49.17603" lon="-0.35822">
        <ele>7.9</ele>
        <time>2024-02-04T09:01:51Z</time>
      </trkpt>
      <trkpt lat="49.17602" lon="-0.35829">
        <ele>7.9</ele>
        <time>2024-02-04T09:01:52Z</time>
      </trkpt>
      <trkpt lat="49.176" lon="-0.35835">
        <ele>7.9</ele>
        <time>2024-02-04T09:01:53Z</time>
      </trkpt>
      <trkpt lat="49.17597" lon="-0.35842">
        <ele>7.8</ele>
        <time>2024-02-04T09:01:54Z</time>
      </trkpt>
      <trkpt lat="49.17593" lon="-0.35849">
        <ele>7.8</ele>
        <time>2024-02-04T09:01:55Z</time>
      </trkpt>
      <trkpt lat="49.1759" lon="-0.35857">
        <ele>7.7</ele>
        <time>2024-02-04T09:01:56Z</time>
      </trkpt>
      <trkpt lat="49.17586" lon="-0.35863">
        <ele>7.7</ele>
        <time>2024-02-04T09:01:57Z</time>
      </trkpt>
      <trkpt lat="49.17582" lon="-0.3587">
        <ele>7.7</ele>
        <time>2024-02-04T09:01:58Z</time>
      </trkpt>
      <trkpt lat="49.17577" lon="-0.35877">
        <ele>7.6</ele>
        <time>2024-02-04T09:01:59Z</time>
      </trkpt>
      <trkpt lat="49.17573" lon="-0.35884">
        <ele>7.6</ele>
        <time>2024-02-04T09:02:00Z</time>
      </trkpt>
      <trkpt lat="49.17569" lon="-0.3589">
        <ele>7.6</ele>
        <time>2024-02-04T09:02:01Z</time>
      </trkpt>
      <trkpt lat="49.17564" lon="-0.35897">
        <ele>7.6</ele>
        <time>2024-02-04T09:02:02Z</time>
      </trkpt>
      <trkpt lat="49.1756" lon="-0.35904">
        <ele>7.6</ele>
        <time>2024-02-04T09:02:03Z</time>
      </trkpt>
      <trkpt lat="49.17555" lon="-0.3591">
        <ele>7.6</ele>
        <time>2024-02-04T09:02:04Z</time>
      </trkpt>
      <trkpt lat="49.17549" lon="-0.35918">
        <ele>7.6</ele>
        <time>2024-02-04T09:02:05Z</time>
      </trkpt>
      <trkpt lat="49.17544" lon="-0.35927">
        <ele>7.6</ele>
        <time>2024-02-04T09:02:06Z</time>
      </trkpt>
      <trkpt lat="49.17538" lon="-0.35935">
        <ele>7.6</ele>
        <time>2024-02-04T09:02:07Z</time>
      </trkpt>
      <trkpt lat="49.17533" lon="-0.35942">
        <ele>7.6</ele>
        <time>2024-02-04T09:02:08Z</time>
      </trkpt>
      <trkpt lat="49.17528" lon="-0.3595">
        <ele>7.6</ele>
        <time>2024-02-04T09:02:09Z</time>
      </trkpt>
      <trkpt lat="49.17523" lon="-0.35958">
        <ele>7.6</ele>
        <time>2024-02-04T09:02:10Z</time>
      </trkpt>
      <trkpt lat="49.17517" lon="-0.35966">
        <ele>7.5</ele>
        <time>2024-02-04T09:02:11Z</time>
      </trkpt>
      <trkpt lat="49.17512" lon="-0.35974">
        <ele>7.5</ele>
        <time>2024-02-04T09:02:12Z</time>
      </trkpt>
      <trkpt lat="49.17507" lon="-0.35983">
        <ele>7.5</ele>
        <time>2024-02-04T09:02:13Z</time>
      </trkpt>
      <trkpt lat="49.17501" lon="-0.35991">
        <ele>7.4</ele>
        <time>2024-02-04T09:02:14Z</time>
      </trkpt>
      <trkpt lat="49.17496" lon="-0.36">
        <ele>7.4</ele>
        <time>2024-02-04T09:02:15Z</time>
      </trkpt>
      <trkpt lat="49.17491" lon="-0.36008">
        <ele>7.4</ele>
        <time>2024-02-04T09:02:16Z</time>
      </trkpt>
      <trkpt lat="49.17486" lon="-0.36017">
        <ele>7.4</ele>
        <time>2024-02-04T09:02:17Z</time>
      </trkpt>
      <trkpt lat="49.17481" lon="-0.36026">
        <ele>7.4</ele>
        <time>2024-02-04T09:02:18Z</time>
      </trkpt>
      <trkpt lat="49.17475" lon="-0.36035">
        <ele>7.4</ele>
        <time>2024-02-04T09:02:19Z</time>
      </trkpt>
      <trkpt lat="49.1747" lon="-0.36043">
        <ele>7.4</ele>
        <time>2024-02-04T09:02:20Z</time>
      </trkpt>
      <trkpt lat="49.17464" lon="-0.36052">
        <ele>7.3</ele>
        <time>2024-02-04T09:02:21Z</time>
      </trkpt>
      <trkpt lat="49.17458" lon="-0.3606">
        <ele>7.3</ele>
        <time>2024-02-04T09:02:22Z</time>
      </trkpt>
      <trkpt lat="49.17453" lon="-0.36069">
        <ele>7.3</ele>
        <time>2024-02-04T09:02:23Z</time>
      </trkpt>
      <trkpt lat="49.17448" lon="-0.36077">
        <ele>7.3</ele>
        <time>2024-02-04T09:02:24Z</time>
      </trkpt>
      <trkpt lat="49.17442" lon="-0.36086">
        <ele>7.3</ele>
        <time>2024-02-04T09:02:25Z</time>
      </trkpt>
      <trkpt lat="49.17436" lon="-0.36094">
        <ele>7.3</ele>
        <time>2024-02-04T09:02:26Z</time>
      </trkpt>
      <trkpt lat="49.17431" lon="-0.36103">
        <ele>7.3</ele>
        <time>2024-02-04T09:02:27Z</time>
      </trkpt>
      <trkpt lat="49.17426" lon="-0.36112">
        <ele>7.3</ele>
        <time>2024-02-04T09:02:28Z</time>
      </trkpt>
      <trkpt lat="49.17421" lon="-0.3612">
        <ele>7.3</ele>
        <time>2024-02-04T09:02:29Z</time>
      </trkpt>
      <trkpt lat="49.17415" lon="-0.36128">
        <ele>7.3</ele>
        <time>2024-02-04T09:02:30Z</time>
      </trkpt>
      <trkpt lat="49.1741" lon="-0.36136">
        <ele>7.3</ele>
        <time>2024-02-04T09:02:31Z</time>
      </trkpt>
      <trkpt lat="49.17405" lon="-0.36145">
        <ele>7.3</ele>
        <time>2024-02-04T09:02:32Z</time>
      </trkpt>
      <trkpt lat="49.17399" lon="-0.36153">
        <ele>7.3</ele>
        <time>2024-02-04T09:02:33Z</time>
      </trkpt>
      <trkpt lat="49.17395" lon="-0.36161">
        <ele>7.2</ele>
        <time>2024-02-04T09:02:34Z</time>
      </trkpt>
      <trkpt lat="49.1739" lon="-0.36169">
        <ele>7.2</ele>
        <time>2024-02-04T09:02:35Z</time>
      </trkpt>
      <trkpt lat="49.17385" lon="-0.36177">
        <ele>7.2</ele>
        <time>2024-02-04T09:02:36Z</time>
      </trkpt>
      <trkpt lat="49.1738" lon="-0.36184">
        <ele>7.2</ele>
        <time>2024-02-04T09:02:37Z</time>
      </trkpt>
      <trkpt lat="49.17375" lon="-0.36192">
        <ele>7.2</ele>
        <time>2024-02-04T09:02:38Z</time>
      </trkpt>
      <trkpt lat="49.1737" lon="-0.362">
        <ele>7.2</ele>
        <time>2024-02-04T09:02:39Z</time>
      </trkpt>
      <trkpt lat="49.17365" lon="-0.36208">
        <ele>7.2</ele>
        <time>2024-02-04T09:02:40Z</time>
      </trkpt>
      <trkpt lat="49.1736" lon="-0.36217">
        <ele>7.2</ele>
        <time>2024-02-04T09:02:41Z</time>
      </trkpt>
      <trkpt lat="49.17355" lon="-0.36225">
        <ele>7.2</ele>
        <time>2024-02-04T09:02:42Z</time>
      </trkpt>
      <trkpt lat="49.1735" lon="-0.36234">
        <ele>7.2</ele>
        <time>2024-02-04T09:02:43Z</time>
      </trkpt>
      <trkpt lat="49.17345" lon="-0.36242">
        <ele>7.2</ele>
        <time>2024-02-04T09:02:44Z</time>
      </trkpt>
      <trkpt lat="49.1734" lon="-0.3625">
        <ele>7.2</ele>
        <time>2024-02-04T09:02:45Z</time>
      </trkpt>
      <trkpt lat="49.17335" lon="-0.36258">
        <ele>7.2</ele>
        <time>2024-02-04T09:02:46Z</time>
      </trkpt>
      <trkpt lat="49.1733" lon="-0.36265">
        <ele>7.2</ele>
        <time>2024-02-04T09:02:47Z</time>
      </trkpt>
      <trkpt lat="49.17326" lon="-0.36272">
        <ele>7.2</ele>
        <time>2024-02-04T09:02:48Z</time>
      </trkpt>
      <trkpt lat="49.17321" lon="-0.36279">
        <ele>7.2</ele>
        <time>2024-02-04T09:02:49Z</time>
      </trkpt>
      <trkpt lat="49.17317" lon="-0.36286">
        <ele>7.2</ele>
        <time>2024-02-04T09:02:50Z</time>
      </trkpt>
      <trkpt lat="49.17312" lon="-0.36293">
        <ele>7.2</ele>
        <time>2024-02-04T09:02:51Z</time>
      </trkpt>
      <trkpt lat="49.17308" lon="-0.363">
        <ele>7.2</ele>
        <time>2024-02-04T09:02:52Z</time>
      </trkpt>
      <trkpt lat="49.17303" lon="-0.36307">
        <ele>7.2</ele>
        <time>2024-02-04T09:02:53Z</time>
      </trkpt>
      <trkpt lat="49.17299" lon="-0.36314">
        <ele>7.2</ele>
        <time>2024-02-04T09:02:54Z</time>
      </trkpt>
      <trkpt lat="49.17295" lon="-0.3632">
        <ele>7.2</ele>
        <time>2024-02-04T09:02:55Z</time>
      </trkpt>
      <trkpt lat="49.1729" lon="-0.36328">
        <ele>7.2</ele>
        <time>2024-02-04T09:02:56Z</time>
      </trkpt>
      <trkpt lat="49.17285" lon="-0.36336">
        <ele>7.1</ele>
        <time>2024-02-04T09:02:57Z</time>
      </trkpt>
      <trkpt lat="49.1728" lon="-0.36343">
        <ele>7.1</ele>
        <time>2024-02-04T09:02:58Z</time>
      </trkpt>
      <trkpt lat="49.17274" lon="-0.36352">
        <ele>7.1</ele>
        <time>2024-02-04T09:02:59Z</time>
      </trkpt>
      <trkpt lat="49.17269" lon="-0.3636">
        <ele>7.1</ele>
        <time>2024-02-04T09:03:00Z</time>
      </trkpt>
      <trkpt lat="49.17263" lon="-0.36367">
        <ele>7.1</ele>
        <time>2024-02-04T09:03:01Z</time>
      </trkpt>
      <trkpt lat="49.17258" lon="-0.36375">
        <ele>7.1</ele>
        <time>2024-02-04T09:03:02Z</time>
      </trkpt>
      <trkpt lat="49.17253" lon="-0.36383">
        <ele>7.1</ele>
        <time>2024-02-04T09:03:03Z</time>
      </trkpt>
      <trkpt lat="49.17248" lon="-0.36392">
        <ele>7</ele>
        <time>2024-02-04T09:03:04Z</time>
      </trkpt>
      <trkpt lat="49.17242" lon="-0.364">
        <ele>7</ele>
        <time>2024-02-04T09:03:05Z</time>
      </trkpt>
      <trkpt lat="49.17237" lon="-0.36409">
        <ele>7</ele>
        <time>2024-02-04T09:03:06Z</time>
      </trkpt>
      <trkpt lat="49.17232" lon="-0.36417">
        <ele>7</ele>
        <time>2024-02-04T09:03:07Z</time>
      </trkpt>
      <trkpt lat="49.17227" lon="-0.36425">
        <ele>7.1</ele>
        <time>2024-02-04T09:03:08Z</time>
      </trkpt>
      <trkpt lat="49.17222" lon="-0.36433">
        <ele>7.1</ele>
        <time>2024-02-04T09:03:09Z</time>
      </trkpt>
      <trkpt lat="49.17217" lon="-0.3644">
        <ele>7.1</ele>
        <time>2024-02-04T09:03:10Z</time>
      </trkpt>
      <trkpt lat="49.17213" lon="-0.36447">
        <ele>7.1</ele>
        <time>2024-02-04T09:03:11Z</time>
      </trkpt>
      <trkpt lat="49.17209" lon="-0.36455">
        <ele>7.2</ele>
        <time>2024-02-04T09:03:12Z</time>
      </trkpt>
      <trkpt lat="49.17206" lon="-0.36464">
        <ele>7.2</ele>
        <time>2024-02-04T09:03:13Z</time>
      </trkpt>
      <trkpt lat="49.17203" lon="-0.36471">
        <ele>7.2</ele>
        <time>2024-02-04T09:03:14Z</time>
      </trkpt>
      <trkpt lat="49.172" lon="-0.36479">
        <ele>7.1</ele>
        <time>2024-02-04T09:03:15Z</time>
      </trkpt>
      <trkpt lat="49.17196" lon="-0.36487">
        <ele>7.1</ele>
        <time>2024-02-04T09:03:16Z</time>
      </trkpt>
      <trkpt lat="49.17193" lon="-0.36495">
        <ele>7.1</ele>
        <time>2024-02-04T09:03:17Z</time>
      </trkpt>
      <trkpt lat="49.17191" lon="-0.36504">
        <ele>7.1</ele>
        <time>2024-02-04T09:03:18Z</time>
      </trkpt>
      <trkpt lat="49.17189" lon="-0.36515">
        <ele>7</ele>
        <time>2024-02-04T09:03:19Z</time>
      </trkpt>
      <trkpt lat="49.17188" lon="-0.36527">
        <ele>7</ele>
        <time>2024-02-04T09:03:20Z</time>
      </trkpt>
      <trkpt lat="49.17185" lon="-0.36542">
        <ele>6.9</ele>
        <time>2024-02-04T09:03:21Z</time>
      </trkpt>
      <trkpt lat="49.17182" lon="-0.36556">
        <ele>6.9</ele>
        <time>2024-02-04T09:03:22Z</time>
      </trkpt>
      <trkpt lat="49.17179" lon="-0.36568">
        <ele>7</ele>
        <time>2024-02-04T09:03:23Z</time>
      </trkpt>
      <trkpt lat="49.17177" lon="-0.3658">
        <ele>7</ele>
        <time>2024-02-04T09:03:24Z</time>
      </trkpt>
      <trkpt lat="49.17175" lon="-0.3659">
        <ele>7</ele>
        <time>2024-02-04T09:03:25Z</time>
      </trkpt>
      <trkpt lat="49.17174" lon="-0.366">
        <ele>7.1</ele>
        <time>2024-02-04T09:03:26Z</time>
      </trkpt>
      <trkpt lat="49.17173" lon="-0.36607">
        <ele>7.1</ele>
        <time>2024-02-04T09:03:27Z</time>
      </trkpt>
      <trkpt lat="49.17172" lon="-0.36613">
        <ele>7.1</ele>
        <time>2024-02-04T09:03:28Z</time>
      </trkpt>
      <trkpt lat="49.1717" lon="-0.36617">
        <ele>7.1</ele>
        <time>2024-02-04T09:03:29Z</time>
      </trkpt>
      <trkpt lat="49.17167" lon="-0.36619">
        <ele>7</ele>
        <time>2024-02-04T09:03:30Z</time>
      </trkpt>
      <trkpt lat="49.17163" lon="-0.36619">
        <ele>7</ele>
        <time>2024-02-04T09:03:31Z</time>
      </trkpt>
      <trkpt lat="49.17162" lon="-0.36619">
        <ele>7</ele>
        <time>2024-02-04T09:03:32Z</time>
      </trkpt>
      <trkpt lat="49.17159" lon="-0.36621">
        <ele>6.9</ele>
        <time>2024-02-04T09:03:33Z</time>
      </trkpt>
      <trkpt lat="49.17156" lon="-0.36625">
        <ele>6.9</ele>
        <time>2024-02-04T09:03:34Z</time>
      </trkpt>
      <trkpt lat="49.17153" lon="-0.3663">
        <ele>6.7</ele>
        <time>2024-02-04T09:03:35Z</time>
      </trkpt>
      <trkpt lat="49.17148" lon="-0.36635">
        <ele>6.6</ele>
        <time>2024-02-04T09:03:36Z</time>
      </trkpt>
      <trkpt lat="49.17144" lon="-0.3664">
        <ele>6.5</ele>
        <time>2024-02-04T09:03:37Z</time>
      </trkpt>
      <trkpt lat="49.17139" lon="-0.36646">
        <ele>6.4</ele>
        <time>2024-02-04T09:03:38Z</time>
      </trkpt>
      <trkpt lat="49.17134" lon="-0.36653">
        <ele>6.3</ele>
        <time>2024-02-04T09:03:39Z</time>
      </trkpt>
      <trkpt lat="49.17129" lon="-0.3666">
        <ele>6.2</ele>
        <time>2024-02-04T09:03:40Z</time>
      </trkpt>
      <trkpt lat="49.17124" lon="-0.36667">
        <ele>6.2</ele>
        <time>2024-02-04T09:03:41Z</time>
      </trkpt>
      <trkpt lat="49.17118" lon="-0.36673">
        <ele>6.1</ele>
        <time>2024-02-04T09:03:42Z</time>
      </trkpt>
      <trkpt lat="49.17112" lon="-0.3668">
        <ele>6.1</ele>
        <time>2024-02-04T09:03:43Z</time>
      </trkpt>
      <trkpt lat="49.17105" lon="-0.36686">
        <ele>6</ele>
        <time>2024-02-04T09:03:44Z</time>
      </trkpt>
      <trkpt lat="49.17099" lon="-0.36692">
        <ele>6</ele>
        <time>2024-02-04T09:03:45Z</time>
      </trkpt>
      <trkpt lat="49.17093" lon="-0.36697">
        <ele>6</ele>
        <time>2024-02-04T09:03:46Z</time>
      </trkpt>
      <trkpt lat="49.17085" lon="-0.36702">
        <ele>6</ele>
        <time>2024-02-04T09:03:47Z</time>
      </trkpt>
      <trkpt lat="49.17078" lon="-0.36706">
        <ele>6</ele>
        <time>2024-02-04T09:03:48Z</time>
      </trkpt>
      <trkpt lat="49.1707" lon="-0.36709">
        <ele>6</ele>
        <time>2024-02-04T09:03:49Z</time>
      </trkpt>
      <trkpt lat="49.17063" lon="-0.36711">
        <ele>6</ele>
        <time>2024-02-04T09:03:50Z</time>
      </trkpt>
      <trkpt lat="49.17055" lon="-0.36712">
        <ele>6</ele>
        <time>2024-02-04T09:03:51Z</time>
      </trkpt>
      <trkpt lat="49.17047" lon="-0.36713">
        <ele>6</ele>
        <time>2024-02-04T09:03:52Z</time>
      </trkpt>
      <trkpt lat="49.1704" lon="-0.36713">
        <ele>6</ele>
        <time>2024-02-04T09:03:53Z</time>
      </trkpt>
      <trkpt lat="49.17033" lon="-0.36713">
        <ele>6.1</ele>
        <time>2024-02-04T09:03:54Z</time>
      </trkpt>
      <trkpt lat="49.17027" lon="-0.36713">
        <ele>6.1</ele>
        <time>2024-02-04T09:03:55Z</time>
      </trkpt>
      <trkpt lat="49.17021" lon="-0.36713">
        <ele>6.1</ele>
        <time>2024-02-04T09:03:56Z</time>
      </trkpt>
      <trkpt lat="49.17015" lon="-0.36712">
        <ele>6</ele>
        <time>2024-02-04T09:03:57Z</time>
      </trkpt>
      <trkpt lat="49.17008" lon="-0.3671">
        <ele>6</ele>
        <time>2024-02-04T09:03:58Z</time>
      </trkpt>
      <trkpt lat="49.17002" lon="-0.36707">
        <ele>5.9</ele>
        <time>2024-02-04T09:03:59Z</time>
      </trkpt>
      <trkpt lat="49.16996" lon="-0.36705">
        <ele>5.9</ele>
        <time>2024-02-04T09:04:00Z</time>
      </trkpt>
      <trkpt lat="49.1699" lon="-0.36702">
        <ele>5.8</ele>
        <time>2024-02-04T09:04:01Z</time>
      </trkpt>
      <trkpt lat="49.16984" lon="-0.36699">
        <ele>5.8</ele>
        <time>2024-02-04T09:04:02Z</time>
      </trkpt>
      <trkpt lat="49.16979" lon="-0.36695">
        <ele>5.8</ele>
        <time>2024-02-04T09:04:03Z</time>
      </trkpt>
      <trkpt lat="49.16972" lon="-0.36694">
        <ele>5.8</ele>
        <time>2024-02-04T09:04:04Z</time>
      </trkpt>
      <trkpt lat="49.16965" lon="-0.36696">
        <ele>5.9</ele>
        <time>2024-02-04T09:04:05Z</time>
      </trkpt>
      <trkpt lat="49.16959" lon="-0.36701">
        <ele>5.9</ele>
        <time>2024-02-04T09:04:06Z</time>
      </trkpt>
      <trkpt lat="49.16953" lon="-0.36708">
        <ele>5.8</ele>
        <time>2024-02-04T09:04:07Z</time>
      </trkpt>
      <trkpt lat="49.16949" lon="-0.36715">
        <ele>5.8</ele>
        <time>2024-02-04T09:04:08Z</time>
      </trkpt>
      <trkpt lat="49.16944" lon="-0.36722">
        <ele>5.8</ele>
        <time>2024-02-04T09:04:09Z</time>
      </trkpt>
      <trkpt lat="49.16939" lon="-0.36728">
        <ele>5.7</ele>
        <time>2024-02-04T09:04:10Z</time>
      </trkpt>
      <trkpt lat="49.16934" lon="-0.36735">
        <ele>5.7</ele>
        <time>2024-02-04T09:04:11Z</time>
      </trkpt>
      <trkpt lat="49.16929" lon="-0.36741">
        <ele>5.7</ele>
        <time>2024-02-04T09:04:12Z</time>
      </trkpt>
      <trkpt lat="49.16925" lon="-0.36747">
        <ele>5.7</ele>
        <time>2024-02-04T09:04:13Z</time>
      </trkpt>
      <trkpt lat="49.1692" lon="-0.36753">
        <ele>5.6</ele>
        <time>2024-02-04T09:04:14Z</time>
      </trkpt>
      <trkpt lat="49.16904" lon="-0.36776">
        <ele>5.5</ele>
        <time>2024-02-04T09:04:17Z</time>
      </trkpt>
      <trkpt lat="49.16898" lon="-0.36784">
        <ele>5.5</ele>
        <time>2024-02-04T09:04:18Z</time>
      </trkpt>
      <trkpt lat="49.16892" lon="-0.36791">
        <ele>5.5</ele>
        <time>2024-02-04T09:04:19Z</time>
      </trkpt>
      <trkpt lat="49.16886" lon="-0.36798">
        <ele>5.4</ele>
        <time>2024-02-04T09:04:20Z</time>
      </trkpt>
      <trkpt lat="49.16881" lon="-0.36805">
        <ele>5.4</ele>
        <time>2024-02-04T09:04:21Z</time>
      </trkpt>
      <trkpt lat="49.16876" lon="-0.36812">
        <ele>5.4</ele>
        <time>2024-02-04T09:04:22Z</time>
      </trkpt>
      <trkpt lat="49.16871" lon="-0.36819">
        <ele>5.4</ele>
        <time>2024-02-04T09:04:23Z</time>
      </trkpt>
      <trkpt lat="49.16866" lon="-0.36826">
        <ele>5.4</ele>
        <time>2024-02-04T09:04:24Z</time>
      </trkpt>
      <trkpt lat="49.16861" lon="-0.36833">
        <ele>5.4</ele>
        <time>2024-02-04T09:04:25Z</time>
      </trkpt>
      <trkpt lat="49.16857" lon="-0.3684">
        <ele>5.4</ele>
        <time>2024-02-04T09:04:26Z</time>
      </trkpt>
      <trkpt lat="49.16852" lon="-0.36847">
        <ele>5.4</ele>
        <time>2024-02-04T09:04:27Z</time>
      </trkpt>
      <trkpt lat="49.16847" lon="-0.36853">
        <ele>5.4</ele>
        <time>2024-02-04T09:04:28Z</time>
      </trkpt>
      <trkpt lat="49.16842" lon="-0.3686">
        <ele>5.5</ele>
        <time>2024-02-04T09:04:29Z</time>
      </trkpt>
      <trkpt lat="49.16837" lon="-0.36867">
        <ele>5.5</ele>
        <time>2024-02-04T09:04:30Z</time>
      </trkpt>
      <trkpt lat="49.16832" lon="-0.36874">
        <ele>5.6</ele>
        <time>2024-02-04T09:04:31Z</time>
      </trkpt>
      <trkpt lat="49.16827" lon="-0.36881">
        <ele>5.6</ele>
        <time>2024-02-04T09:04:32Z</time>
      </trkpt>
      <trkpt lat="49.16822" lon="-0.36887">
        <ele>5.6</ele>
        <time>2024-02-04T09:04:33Z</time>
      </trkpt>
      <trkpt lat="49.16817" lon="-0.36894">
        <ele>5.6</ele>
        <time>2024-02-04T09:04:34Z</time>
      </trkpt>
      <trkpt lat="49.16812" lon="-0.36902">
        <ele>5.5</ele>
        <time>2024-02-04T09:04:35Z</time>
      </trkpt>
      <trkpt lat="49.16807" lon="-0.36908">
        <ele>5.5</ele>
        <time>2024-02-04T09:04:36Z</time>
      </trkpt>
      <trkpt lat="49.16802" lon="-0.36915">
        <ele>5.5</ele>
        <time>2024-02-04T09:04:37Z</time>
      </trkpt>
      <trkpt lat="49.16797" lon="-0.36922">
        <ele>5.5</ele>
        <time>2024-02-04T09:04:38Z</time>
      </trkpt>
      <trkpt lat="49.16792" lon="-0.36929">
        <ele>5.5</ele>
        <time>2024-02-04T09:04:39Z</time>
      </trkpt>
      <trkpt lat="49.16787" lon="-0.36936">
        <ele>5.4</ele>
        <time>2024-02-04T09:04:40Z</time>
      </trkpt>
      <trkpt lat="49.16781" lon="-0.36942">
        <ele>5.4</ele>
        <time>2024-02-04T09:04:41Z</time>
      </trkpt>
      <trkpt lat="49.16777" lon="-0.36949">
        <ele>5.3</ele>
        <time>2024-02-04T09:04:42Z</time>
      </trkpt>
      <trkpt lat="49.16772" lon="-0.36956">
        <ele>5.3</ele>
        <time>2024-02-04T09:04:43Z</time>
      </trkpt>
      <trkpt lat="49.16766" lon="-0.36964">
        <ele>5.3</ele>
        <time>2024-02-04T09:04:44Z</time>
      </trkpt>
      <trkpt lat="49.16761" lon="-0.36971">
        <ele>5.3</ele>
        <time>2024-02-04T09:04:45Z</time>
      </trkpt>
      <trkpt lat="49.16756" lon="-0.36978">
        <ele>5.2</ele>
        <time>2024-02-04T09:04:46Z</time>
      </trkpt>
      <trkpt lat="49.16751" lon="-0.36985">
        <ele>5.2</ele>
        <time>2024-02-04T09:04:47Z</time>
      </trkpt>
      <trkpt lat="49.16745" lon="-0.36993">
        <ele>5.2</ele>
        <time>2024-02-04T09:04:48Z</time>
      </trkpt>
      <trkpt lat="49.1674" lon="-0.36999">
        <ele>5.2</ele>
        <time>2024-02-04T09:04:49Z</time>
      </trkpt>
      <trkpt lat="49.16735" lon="-0.37006">
        <ele>5.2</ele>
        <time>2024-02-04T09:04:50Z</time>
      </trkpt>
      <trkpt lat="49.1673" lon="-0.37013">
        <ele>5.2</ele>
        <time>2024-02-04T09:04:51Z</time>
      </trkpt>
      <trkpt lat="49.16725" lon="-0.3702">
        <ele>5.2</ele>
        <time>2024-02-04T09:04:52Z</time>
      </trkpt>
      <trkpt lat="49.1672" lon="-0.37027">
        <ele>5.2</ele>
        <time>2024-02-04T09:04:53Z</time>
      </trkpt>
      <trkpt lat="49.16715" lon="-0.37034">
        <ele>5.1</ele>
        <time>2024-02-04T09:04:54Z</time>
      </trkpt>
      <trkpt lat="49.1671" lon="-0.37041">
        <ele>5.1</ele>
        <time>2024-02-04T09:04:55Z</time>
      </trkpt>
      <trkpt lat="49.16704" lon="-0.37048">
        <ele>5.1</ele>
        <time>2024-02-04T09:04:56Z</time>
      </trkpt>
      <trkpt lat="49.16699" lon="-0.37055">
        <ele>5</ele>
        <time>2024-02-04T09:04:57Z</time>
      </trkpt>
      <trkpt lat="49.16694" lon="-0.37062">
        <ele>5</ele>
        <time>2024-02-04T09:04:58Z</time>
      </trkpt>
      <trkpt lat="49.16689" lon="-0.37069">
        <ele>5</ele>
        <time>2024-02-04T09:04:59Z</time>
      </trkpt>
      <trkpt lat="49.16684" lon="-0.37076">
        <ele>5</ele>
        <time>2024-02-04T09:05:00Z</time>
      </trkpt>
      <trkpt lat="49.16678" lon="-0.37083">
        <ele>5</ele>
        <time>2024-02-04T09:05:01Z</time>
      </trkpt>
      <trkpt lat="49.16673" lon="-0.3709">
        <ele>5</ele>
        <time>2024-02-04T09:05:02Z</time>
      </trkpt>
      <trkpt lat="49.16668" lon="-0.37097">
        <ele>5</ele>
        <time>2024-02-04T09:05:03Z</time>
      </trkpt>
      <trkpt lat="49.16663" lon="-0.37104">
        <ele>5</ele>
        <time>2024-02-04T09:05:04Z</time>
      </trkpt>
      <trkpt lat="49.16658" lon="-0.37111">
        <ele>5</ele>
        <time>2024-02-04T09:05:05Z</time>
      </trkpt>
      <trkpt lat="49.16653" lon="-0.37118">
        <ele>5</ele>
        <time>2024-02-04T09:05:06Z</time>
      </trkpt>
      <trkpt lat="49.16648" lon="-0.37125">
        <ele>5</ele>
        <time>2024-02-04T09:05:07Z</time>
      </trkpt>
      <trkpt lat="49.16643" lon="-0.37132">
        <ele>5</ele>
        <time>2024-02-04T09:05:08Z</time>
      </trkpt>
      <trkpt lat="49.16638" lon="-0.37139">
        <ele>5</ele>
        <time>2024-02-04T09:05:09Z</time>
      </trkpt>
      <trkpt lat="49.16633" lon="-0.37146">
        <ele>5</ele>
        <time>2024-02-04T09:05:10Z</time>
      </trkpt>
      <trkpt lat="49.16629" lon="-0.37153">
        <ele>4.9</ele>
        <time>2024-02-04T09:05:11Z</time>
      </trkpt>
      <trkpt lat="49.16623" lon="-0.3716">
        <ele>4.9</ele>
        <time>2024-02-04T09:05:12Z</time>
      </trkpt>
      <trkpt lat="49.16618" lon="-0.37167">
        <ele>5</ele>
        <time>2024-02-04T09:05:13Z</time>
      </trkpt>
      <trkpt lat="49.16613" lon="-0.37174">
        <ele>5</ele>
        <time>2024-02-04T09:05:14Z</time>
      </trkpt>
      <trkpt lat="49.16608" lon="-0.37181">
        <ele>5</ele>
        <time>2024-02-04T09:05:15Z</time>
      </trkpt>
      <trkpt lat="49.16603" lon="-0.37187">
        <ele>5</ele>
        <time>2024-02-04T09:05:16Z</time>
      </trkpt>
      <trkpt lat="49.16598" lon="-0.37194">
        <ele>5</ele>
        <time>2024-02-04T09:05:17Z</time>
      </trkpt>
      <trkpt lat="49.16593" lon="-0.372">
        <ele>5</ele>
        <time>2024-02-04T09:05:18Z</time>
      </trkpt>
      <trkpt lat="49.16588" lon="-0.37207">
        <ele>5</ele>
        <time>2024-02-04T09:05:19Z</time>
      </trkpt>
      <trkpt lat="49.16583" lon="-0.37214">
        <ele>4.9</ele>
        <time>2024-02-04T09:05:20Z</time>
      </trkpt>
      <trkpt lat="49.16578" lon="-0.37221">
        <ele>4.9</ele>
        <time>2024-02-04T09:05:21Z</time>
      </trkpt>
      <trkpt lat="49.16573" lon="-0.37228">
        <ele>4.9</ele>
        <time>2024-02-04T09:05:22Z</time>
      </trkpt>
      <trkpt lat="49.16568" lon="-0.37234">
        <ele>4.9</ele>
        <time>2024-02-04T09:05:23Z</time>
      </trkpt>
      <trkpt lat="49.16563" lon="-0.37241">
        <ele>4.9</ele>
        <time>2024-02-04T09:05:24Z</time>
      </trkpt>
      <trkpt lat="49.16558" lon="-0.37248">
        <ele>4.9</ele>
        <time>2024-02-04T09:05:25Z</time>
      </trkpt>
      <trkpt lat="49.16554" lon="-0.37255">
        <ele>4.9</ele>
        <time>2024-02-04T09:05:26Z</time>
      </trkpt>
      <trkpt lat="49.16549" lon="-0.37262">
        <ele>4.9</ele>
        <time>2024-02-04T09:05:27Z</time>
      </trkpt>
      <trkpt lat="49.16544" lon="-0.37269">
        <ele>4.9</ele>
        <time>2024-02-04T09:05:28Z</time>
      </trkpt>
      <trkpt lat="49.16538" lon="-0.37275">
        <ele>4.9</ele>
        <time>2024-02-04T09:05:29Z</time>
      </trkpt>
      <trkpt lat="49.16533" lon="-0.37281">
        <ele>4.9</ele>
        <time>2024-02-04T09:05:30Z</time>
      </trkpt>
      <trkpt lat="49.16529" lon="-0.37289">
        <ele>4.9</ele>
        <time>2024-02-04T09:05:31Z</time>
      </trkpt>
      <trkpt lat="49.16524" lon="-0.37296">
        <ele>4.9</ele>
        <time>2024-02-04T09:05:32Z</time>
      </trkpt>
      <trkpt lat="49.16518" lon="-0.37303">
        <ele>4.9</ele>
        <time>2024-02-04T09:05:33Z</time>
      </trkpt>
      <trkpt lat="49.16513" lon="-0.3731">
        <ele>4.9</ele>
        <time>2024-02-04T09:05:34Z</time>
      </trkpt>
      <trkpt lat="49.16508" lon="-0.37317">
        <ele>4.9</ele>
        <time>2024-02-04T09:05:35Z</time>
      </trkpt>
      <trkpt lat="49.16503" lon="-0.37324">
        <ele>4.9</ele>
        <time>2024-02-04T09:05:36Z</time>
      </trkpt>
      <trkpt lat="49.16498" lon="-0.37331">
        <ele>5</ele>
        <time>2024-02-04T09:05:37Z</time>
      </trkpt>
      <trkpt lat="49.16493" lon="-0.37338">
        <ele>5</ele>
        <time>2024-02-04T09:05:38Z</time>
      </trkpt>
      <trkpt lat="49.16488" lon="-0.37345">
        <ele>5</ele>
        <time>2024-02-04T09:05:39Z</time>
      </trkpt>
      <trkpt lat="49.16483" lon="-0.37352">
        <ele>4.9</ele>
        <time>2024-02-04T09:05:40Z</time>
      </trkpt>
      <trkpt lat="49.16478" lon="-0.3736">
        <ele>4.9</ele>
        <time>2024-02-04T09:05:41Z</time>
      </trkpt>
      <trkpt lat="49.16472" lon="-0.37367">
        <ele>4.9</ele>
        <time>2024-02-04T09:05:42Z</time>
      </trkpt>
      <trkpt lat="49.16467" lon="-0.37374">
        <ele>4.9</ele>
        <time>2024-02-04T09:05:43Z</time>
      </trkpt>
      <trkpt lat="49.16462" lon="-0.37382">
        <ele>5</ele>
        <time>2024-02-04T09:05:44Z</time>
      </trkpt>
      <trkpt lat="49.16456" lon="-0.37389">
        <ele>5</ele>
        <time>2024-02-04T09:05:45Z</time>
      </trkpt>
      <trkpt lat="49.16451" lon="-0.37397">
        <ele>5</ele>
        <time>2024-02-04T09:05:46Z</time>
      </trkpt>
      <trkpt lat="49.16445" lon="-0.37405">
        <ele>5</ele>
        <time>2024-02-04T09:05:47Z</time>
      </trkpt>
      <trkpt lat="49.1644" lon="-0.37412">
        <ele>5.1</ele>
        <time>2024-02-04T09:05:48Z</time>
      </trkpt>
      <trkpt lat="49.16434" lon="-0.3742">
        <ele>5.1</ele>
        <time>2024-02-04T09:05:49Z</time>
      </trkpt>
      <trkpt lat="49.16429" lon="-0.37427">
        <ele>5.1</ele>
        <time>2024-02-04T09:05:50Z</time>
      </trkpt>
      <trkpt lat="49.16424" lon="-0.37434">
        <ele>5.2</ele>
        <time>2024-02-04T09:05:51Z</time>
      </trkpt>
      <trkpt lat="49.16419" lon="-0.37441">
        <ele>5.2</ele>
        <time>2024-02-04T09:05:52Z</time>
      </trkpt>
      <trkpt lat="49.16413" lon="-0.37449">
        <ele>5.3</ele>
        <time>2024-02-04T09:05:53Z</time>
      </trkpt>
      <trkpt lat="49.16407" lon="-0.37456">
        <ele>5.3</ele>
        <time>2024-02-04T09:05:54Z</time>
      </trkpt>
      <trkpt lat="49.16402" lon="-0.37463">
        <ele>5.4</ele>
        <time>2024-02-04T09:05:55Z</time>
      </trkpt>
      <trkpt lat="49.16397" lon="-0.37471">
        <ele>5.5</ele>
        <time>2024-02-04T09:05:56Z</time>
      </trkpt>
      <trkpt lat="49.16391" lon="-0.37478">
        <ele>5.6</ele>
        <time>2024-02-04T09:05:57Z</time>
      </trkpt>
      <trkpt lat="49.16386" lon="-0.37486">
        <ele>5.8</ele>
        <time>2024-02-04T09:05:58Z</time>
      </trkpt>
      <trkpt lat="49.16381" lon="-0.37494">
        <ele>6</ele>
        <time>2024-02-04T09:05:59Z</time>
      </trkpt>
      <trkpt lat="49.16376" lon="-0.37502">
        <ele>6.2</ele>
        <time>2024-02-04T09:06:00Z</time>
      </trkpt>
      <trkpt lat="49.16371" lon="-0.3751">
        <ele>6.4</ele>
        <time>2024-02-04T09:06:01Z</time>
      </trkpt>
      <trkpt lat="49.16366" lon="-0.37518">
        <ele>6.6</ele>
        <time>2024-02-04T09:06:02Z</time>
      </trkpt>
      <trkpt lat="49.16362" lon="-0.37527">
        <ele>6.8</ele>
        <time>2024-02-04T09:06:03Z</time>
      </trkpt>
      <trkpt lat="49.16358" lon="-0.37535">
        <ele>6.9</ele>
        <time>2024-02-04T09:06:04Z</time>
      </trkpt>
      <trkpt lat="49.16355" lon="-0.37544">
        <ele>7.1</ele>
        <time>2024-02-04T09:06:05Z</time>
      </trkpt>
      <trkpt lat="49.16352" lon="-0.37554">
        <ele>7.3</ele>
        <time>2024-02-04T09:06:06Z</time>
      </trkpt>
      <trkpt lat="49.1635" lon="-0.37564">
        <ele>7.5</ele>
        <time>2024-02-04T09:06:07Z</time>
      </trkpt>
      <trkpt lat="49.16348" lon="-0.37574">
        <ele>7.8</ele>
        <time>2024-02-04T09:06:08Z</time>
      </trkpt>
      <trkpt lat="49.16346" lon="-0.37585">
        <ele>7.9</ele>
        <time>2024-02-04T09:06:09Z</time>
      </trkpt>
      <trkpt lat="49.16345" lon="-0.37595">
        <ele>8.1</ele>
        <time>2024-02-04T09:06:10Z</time>
      </trkpt>
      <trkpt lat="49.16345" lon="-0.37606">
        <ele>8</ele>
        <time>2024-02-04T09:06:11Z</time>
      </trkpt>
      <trkpt lat="49.16344" lon="-0.37617">
        <ele>8</ele>
        <time>2024-02-04T09:06:12Z</time>
      </trkpt>
      <trkpt lat="49.16343" lon="-0.37628">
        <ele>7.9</ele>
        <time>2024-02-04T09:06:13Z</time>
      </trkpt>
      <trkpt lat="49.16341" lon="-0.3764">
        <ele>7.9</ele>
        <time>2024-02-04T09:06:14Z</time>
      </trkpt>
      <trkpt lat="49.16339" lon="-0.37652">
        <ele>7.8</ele>
        <time>2024-02-04T09:06:15Z</time>
      </trkpt>
      <trkpt lat="49.16336" lon="-0.37663">
        <ele>7.7</ele>
        <time>2024-02-04T09:06:16Z</time>
      </trkpt>
      <trkpt lat="49.16332" lon="-0.37674">
        <ele>7.7</ele>
        <time>2024-02-04T09:06:17Z</time>
      </trkpt>
      <trkpt lat="49.16328" lon="-0.37684">
        <ele>7.6</ele>
        <time>2024-02-04T09:06:18Z</time>
      </trkpt>
      <trkpt lat="49.16324" lon="-0.37695">
        <ele>7.5</ele>
        <time>2024-02-04T09:06:19Z</time>
      </trkpt>
      <trkpt lat="49.1632" lon="-0.37705">
        <ele>7.4</ele>
        <time>2024-02-04T09:06:20Z</time>
      </trkpt>
      <trkpt lat="49.16316" lon="-0.37714">
        <ele>7.4</ele>
        <time>2024-02-04T09:06:21Z</time>
      </trkpt>
      <trkpt lat="49.16311" lon="-0.37722">
        <ele>7.3</ele>
        <time>2024-02-04T09:06:22Z</time>
      </trkpt>
      <trkpt lat="49.16306" lon="-0.37731">
        <ele>7.2</ele>
        <time>2024-02-04T09:06:23Z</time>
      </trkpt>
      <trkpt lat="49.163" lon="-0.37739">
        <ele>7.2</ele>
        <time>2024-02-04T09:06:24Z</time>
      </trkpt>
      <trkpt lat="49.16294" lon="-0.37745">
        <ele>7.1</ele>
        <time>2024-02-04T09:06:25Z</time>
      </trkpt>
      <trkpt lat="49.16288" lon="-0.37752">
        <ele>7</ele>
        <time>2024-02-04T09:06:26Z</time>
      </trkpt>
      <trkpt lat="49.16281" lon="-0.37757">
        <ele>7</ele>
        <time>2024-02-04T09:06:27Z</time>
      </trkpt>
      <trkpt lat="49.16275" lon="-0.37762">
        <ele>7</ele>
        <time>2024-02-04T09:06:28Z</time>
      </trkpt>
      <trkpt lat="49.16268" lon="-0.37768">
        <ele>6.9</ele>
        <time>2024-02-04T09:06:29Z</time>
      </trkpt>
      <trkpt lat="49.16261" lon="-0.37773">
        <ele>6.8</ele>
        <time>2024-02-04T09:06:30Z</time>
      </trkpt>
      <trkpt lat="49.16254" lon="-0.37777">
        <ele>6.6</ele>
        <time>2024-02-04T09:06:31Z</time>
      </trkpt>
      <trkpt lat="49.16247" lon="-0.3778">
        <ele>6.5</ele>
        <time>2024-02-04T09:06:32Z</time>
      </trkpt>
      <trkpt lat="49.1624" lon="-0.37784">
        <ele>6.3</ele>
        <time>2024-02-04T09:06:33Z</time>
      </trkpt>
      <trkpt lat="49.16233" lon="-0.37787">
        <ele>6.1</ele>
        <time>2024-02-04T09:06:34Z</time>
      </trkpt>
      <trkpt lat="49.16225" lon="-0.3779">
        <ele>6</ele>
        <time>2024-02-04T09:06:35Z</time>
      </trkpt>
      <trkpt lat="49.16218" lon="-0.37794">
        <ele>5.8</ele>
        <time>2024-02-04T09:06:36Z</time>
      </trkpt>
      <trkpt lat="49.1621" lon="-0.37797">
        <ele>5.7</ele>
        <time>2024-02-04T09:06:37Z</time>
      </trkpt>
      <trkpt lat="49.16202" lon="-0.378">
        <ele>5.6</ele>
        <time>2024-02-04T09:06:38Z</time>
      </trkpt>
      <trkpt lat="49.16194" lon="-0.37804">
        <ele>5.6</ele>
        <time>2024-02-04T09:06:39Z</time>
      </trkpt>
      <trkpt lat="49.16187" lon="-0.37807">
        <ele>5.6</ele>
        <time>2024-02-04T09:06:40Z</time>
      </trkpt>
      <trkpt lat="49.16179" lon="-0.3781">
        <ele>5.5</ele>
        <time>2024-02-04T09:06:41Z</time>
      </trkpt>
      <trkpt lat="49.16172" lon="-0.37813">
        <ele>5.5</ele>
        <time>2024-02-04T09:06:42Z</time>
      </trkpt>
      <trkpt lat="49.16165" lon="-0.37817">
        <ele>5.5</ele>
        <time>2024-02-04T09:06:43Z</time>
      </trkpt>
      <trkpt lat="49.16158" lon="-0.3782">
        <ele>5.5</ele>
        <time>2024-02-04T09:06:44Z</time>
      </trkpt>
      <trkpt lat="49.1615" lon="-0.37824">
        <ele>5.6</ele>
        <time>2024-02-04T09:06:45Z</time>
      </trkpt>
      <trkpt lat="49.16142" lon="-0.37827">
        <ele>5.6</ele>
        <time>2024-02-04T09:06:46Z</time>
      </trkpt>
      <trkpt lat="49.16135" lon="-0.3783">
        <ele>5.6</ele>
        <time>2024-02-04T09:06:47Z</time>
      </trkpt>
      <trkpt lat="49.16128" lon="-0.37833">
        <ele>5.6</ele>
        <time>2024-02-04T09:06:48Z</time>
      </trkpt>
      <trkpt lat="49.16121" lon="-0.37836">
        <ele>5.5</ele>
        <time>2024-02-04T09:06:49Z</time>
      </trkpt>
      <trkpt lat="49.16114" lon="-0.37839">
        <ele>5.5</ele>
        <time>2024-02-04T09:06:50Z</time>
      </trkpt>
      <trkpt lat="49.16107" lon="-0.37842">
        <ele>5.5</ele>
        <time>2024-02-04T09:06:51Z</time>
      </trkpt>
      <trkpt lat="49.16099" lon="-0.37845">
        <ele>5.5</ele>
        <time>2024-02-04T09:06:52Z</time>
      </trkpt>
      <trkpt lat="49.16092" lon="-0.37848">
        <ele>5.6</ele>
        <time>2024-02-04T09:06:53Z</time>
      </trkpt>
      <trkpt lat="49.16085" lon="-0.37851">
        <ele>5.6</ele>
        <time>2024-02-04T09:06:54Z</time>
      </trkpt>
      <trkpt lat="49.16078" lon="-0.37855">
        <ele>5.6</ele>
        <time>2024-02-04T09:06:55Z</time>
      </trkpt>
      <trkpt lat="49.16071" lon="-0.37858">
        <ele>5.6</ele>
        <time>2024-02-04T09:06:56Z</time>
      </trkpt>
      <trkpt lat="49.16064" lon="-0.37862">
        <ele>5.5</ele>
        <time>2024-02-04T09:06:57Z</time>
      </trkpt>
      <trkpt lat="49.16056" lon="-0.37865">
        <ele>5.5</ele>
        <time>2024-02-04T09:06:58Z</time>
      </trkpt>
      <trkpt lat="49.16049" lon="-0.37868">
        <ele>5.5</ele>
        <time>2024-02-04T09:06:59Z</time>
      </trkpt>
      <trkpt lat="49.16042" lon="-0.37872">
        <ele>5.5</ele>
        <time>2024-02-04T09:07:00Z</time>
      </trkpt>
      <trkpt lat="49.16035" lon="-0.37876">
        <ele>5.6</ele>
        <time>2024-02-04T09:07:01Z</time>
      </trkpt>
      <trkpt lat="49.16028" lon="-0.37879">
        <ele>5.6</ele>
        <time>2024-02-04T09:07:02Z</time>
      </trkpt>
      <trkpt lat="49.1602" lon="-0.37883">
        <ele>5.6</ele>
        <time>2024-02-04T09:07:03Z</time>
      </trkpt>
      <trkpt lat="49.16013" lon="-0.37886">
        <ele>5.7</ele>
        <time>2024-02-04T09:07:04Z</time>
      </trkpt>
      <trkpt lat="49.16006" lon="-0.37889">
        <ele>5.7</ele>
        <time>2024-02-04T09:07:05Z</time>
      </trkpt>
      <trkpt lat="49.15999" lon="-0.37892">
        <ele>5.8</ele>
        <time>2024-02-04T09:07:06Z</time>
      </trkpt>
      <trkpt lat="49.15992" lon="-0.37895">
        <ele>5.9</ele>
        <time>2024-02-04T09:07:07Z</time>
      </trkpt>
      <trkpt lat="49.15985" lon="-0.37898">
        <ele>5.9</ele>
        <time>2024-02-04T09:07:08Z</time>
      </trkpt>
      <trkpt lat="49.15977" lon="-0.37902">
        <ele>6</ele>
        <time>2024-02-04T09:07:09Z</time>
      </trkpt>
      <trkpt lat="49.1597" lon="-0.37904">
        <ele>6</ele>
        <time>2024-02-04T09:07:10Z</time>
      </trkpt>
      <trkpt lat="49.15962" lon="-0.37908">
        <ele>6</ele>
        <time>2024-02-04T09:07:11Z</time>
      </trkpt>
      <trkpt lat="49.15955" lon="-0.37911">
        <ele>6</ele>
        <time>2024-02-04T09:07:12Z</time>
      </trkpt>
      <trkpt lat="49.15948" lon="-0.37914">
        <ele>6</ele>
        <time>2024-02-04T09:07:13Z</time>
      </trkpt>
      <trkpt lat="49.1594" lon="-0.37917">
        <ele>6</ele>
        <time>2024-02-04T09:07:14Z</time>
      </trkpt>
      <trkpt lat="49.15933" lon="-0.37921">
        <ele>6</ele>
        <time>2024-02-04T09:07:15Z</time>
      </trkpt>
      <trkpt lat="49.15926" lon="-0.37924">
        <ele>6</ele>
        <time>2024-02-04T09:07:16Z</time>
      </trkpt>
      <trkpt lat="49.15919" lon="-0.37927">
        <ele>6</ele>
        <time>2024-02-04T09:07:17Z</time>
      </trkpt>
      <trkpt lat="49.15911" lon="-0.37931">
        <ele>6</ele>
        <time>2024-02-04T09:07:18Z</time>
      </trkpt>
      <trkpt lat="49.15903" lon="-0.37934">
        <ele>6</ele>
        <time>2024-02-04T09:07:19Z</time>
      </trkpt>
      <trkpt lat="49.15896" lon="-0.37938">
        <ele>6</ele>
        <time>2024-02-04T09:07:20Z</time>
      </trkpt>
      <trkpt lat="49.15888" lon="-0.37941">
        <ele>6</ele>
        <time>2024-02-04T09:07:21Z</time>
      </trkpt>
      <trkpt lat="49.15881" lon="-0.37944">
        <ele>6</ele>
        <time>2024-02-04T09:07:22Z</time>
      </trkpt>
      <trkpt lat="49.15873" lon="-0.37947">
        <ele>6.1</ele>
        <time>2024-02-04T09:07:23Z</time>
      </trkpt>
      <trkpt lat="49.15866" lon="-0.3795">
        <ele>6.1</ele>
        <time>2024-02-04T09:07:24Z</time>
      </trkpt>
      <trkpt lat="49.15859" lon="-0.37953">
        <ele>6.2</ele>
        <time>2024-02-04T09:07:25Z</time>
      </trkpt>
      <trkpt lat="49.15852" lon="-0.37957">
        <ele>6.2</ele>
        <time>2024-02-04T09:07:26Z</time>
      </trkpt>
      <trkpt lat="49.15845" lon="-0.3796">
        <ele>6.3</ele>
        <time>2024-02-04T09:07:27Z</time>
      </trkpt>
      <trkpt lat="49.15838" lon="-0.37964">
        <ele>6.4</ele>
        <time>2024-02-04T09:07:28Z</time>
      </trkpt>
      <trkpt lat="49.15831" lon="-0.37968">
        <ele>6.4</ele>
        <time>2024-02-04T09:07:29Z</time>
      </trkpt>
      <trkpt lat="49.15825" lon="-0.37973">
        <ele>6.5</ele>
        <time>2024-02-04T09:07:30Z</time>
      </trkpt>
      <trkpt lat="49.15818" lon="-0.37979">
        <ele>6.5</ele>
        <time>2024-02-04T09:07:31Z</time>
      </trkpt>
      <trkpt lat="49.15812" lon="-0.37985">
        <ele>6.5</ele>
        <time>2024-02-04T09:07:32Z</time>
      </trkpt>
      <trkpt lat="49.15807" lon="-0.37992">
        <ele>6.4</ele>
        <time>2024-02-04T09:07:33Z</time>
      </trkpt>
      <trkpt lat="49.15803" lon="-0.38">
        <ele>6.4</ele>
        <time>2024-02-04T09:07:34Z</time>
      </trkpt>
      <trkpt lat="49.15799" lon="-0.38009">
        <ele>6.4</ele>
        <time>2024-02-04T09:07:35Z</time>
      </trkpt>
      <trkpt lat="49.15796" lon="-0.38019">
        <ele>6.4</ele>
        <time>2024-02-04T09:07:36Z</time>
      </trkpt>
      <trkpt lat="49.15794" lon="-0.38029">
        <ele>6.4</ele>
        <time>2024-02-04T09:07:37Z</time>
      </trkpt>
      <trkpt lat="49.15792" lon="-0.3804">
        <ele>6.5</ele>
        <time>2024-02-04T09:07:38Z</time>
      </trkpt>
      <trkpt lat="49.15791" lon="-0.38052">
        <ele>6.5</ele>
        <time>2024-02-04T09:07:39Z</time>
      </trkpt>
      <trkpt lat="49.1579" lon="-0.38064">
        <ele>6.5</ele>
        <time>2024-02-04T09:07:40Z</time>
      </trkpt>
      <trkpt lat="49.1579" lon="-0.38076">
        <ele>6.5</ele>
        <time>2024-02-04T09:07:41Z</time>
      </trkpt>
      <trkpt lat="49.15791" lon="-0.38087">
        <ele>6.5</ele>
        <time>2024-02-04T09:07:42Z</time>
      </trkpt>
      <trkpt lat="49.15792" lon="-0.38099">
        <ele>6.5</ele>
        <time>2024-02-04T09:07:43Z</time>
      </trkpt>
      <trkpt lat="49.15794" lon="-0.38109">
        <ele>6.5</ele>
        <time>2024-02-04T09:07:44Z</time>
      </trkpt>
      <trkpt lat="49.15796" lon="-0.38121">
        <ele>6.5</ele>
        <time>2024-02-04T09:07:45Z</time>
      </trkpt>
      <trkpt lat="49.15797" lon="-0.38132">
        <ele>6.5</ele>
        <time>2024-02-04T09:07:46Z</time>
      </trkpt>
      <trkpt lat="49.158" lon="-0.38143">
        <ele>6.5</ele>
        <time>2024-02-04T09:07:47Z</time>
      </trkpt>
      <trkpt lat="49.15802" lon="-0.38154">
        <ele>6.5</ele>
        <time>2024-02-04T09:07:48Z</time>
      </trkpt>
      <trkpt lat="49.15805" lon="-0.38165">
        <ele>6.5</ele>
        <time>2024-02-04T09:07:49Z</time>
      </trkpt>
      <trkpt lat="49.15807" lon="-0.38176">
        <ele>6.5</ele>
        <time>2024-02-04T09:07:50Z</time>
      </trkpt>
      <trkpt lat="49.1581" lon="-0.38187">
        <ele>6.6</ele>
        <time>2024-02-04T09:07:51Z</time>
      </trkpt>
      <trkpt lat="49.15812" lon="-0.38197">
        <ele>6.6</ele>
        <time>2024-02-04T09:07:52Z</time>
      </trkpt>
      <trkpt lat="49.15814" lon="-0.38208">
        <ele>6.6</ele>
        <time>2024-02-04T09:07:53Z</time>
      </trkpt>
      <trkpt lat="49.15816" lon="-0.38218">
        <ele>6.7</ele>
        <time>2024-02-04T09:07:54Z</time>
      </trkpt>
      <trkpt lat="49.15818" lon="-0.38229">
        <ele>6.7</ele>
        <time>2024-02-04T09:07:55Z</time>
      </trkpt>
      <trkpt lat="49.1582" lon="-0.38239">
        <ele>6.7</ele>
        <time>2024-02-04T09:07:56Z</time>
      </trkpt>
      <trkpt lat="49.15822" lon="-0.38251">
        <ele>6.7</ele>
        <time>2024-02-04T09:07:57Z</time>
      </trkpt>
      <trkpt lat="49.15824" lon="-0.38262">
        <ele>6.7</ele>
        <time>2024-02-04T09:07:58Z</time>
      </trkpt>
      <trkpt lat="49.15826" lon="-0.38273">
        <ele>6.7</ele>
        <time>2024-02-04T09:07:59Z</time>
      </trkpt>
      <trkpt lat="49.15829" lon="-0.38284">
        <ele>6.7</ele>
        <time>2024-02-04T09:08:00Z</time>
      </trkpt>
      <trkpt lat="49.15831" lon="-0.38295">
        <ele>6.8</ele>
        <time>2024-02-04T09:08:01Z</time>
      </trkpt>
      <trkpt lat="49.15833" lon="-0.38307">
        <ele>6.8</ele>
        <time>2024-02-04T09:08:02Z</time>
      </trkpt>
      <trkpt lat="49.15835" lon="-0.38318">
        <ele>6.8</ele>
        <time>2024-02-04T09:08:03Z</time>
      </trkpt>
      <trkpt lat="49.15837" lon="-0.3833">
        <ele>6.9</ele>
        <time>2024-02-04T09:08:04Z</time>
      </trkpt>
      <trkpt lat="49.15839" lon="-0.38341">
        <ele>6.9</ele>
        <time>2024-02-04T09:08:05Z</time>
      </trkpt>
      <trkpt lat="49.15841" lon="-0.38352">
        <ele>6.9</ele>
        <time>2024-02-04T09:08:06Z</time>
      </trkpt>
      <trkpt lat="49.15843" lon="-0.38364">
        <ele>6.9</ele>
        <time>2024-02-04T09:08:07Z</time>
      </trkpt>
      <trkpt lat="49.15846" lon="-0.38375">
        <ele>6.9</ele>
        <time>2024-02-04T09:08:08Z</time>
      </trkpt>
      <trkpt lat="49.15848" lon="-0.38387">
        <ele>6.9</ele>
        <time>2024-02-04T09:08:09Z</time>
      </trkpt>
      <trkpt lat="49.15851" lon="-0.38398">
        <ele>6.9</ele>
        <time>2024-02-04T09:08:10Z</time>
      </trkpt>
      <trkpt lat="49.15853" lon="-0.38409">
        <ele>6.9</ele>
        <time>2024-02-04T09:08:11Z</time>
      </trkpt>
      <trkpt lat="49.15854" lon="-0.3842">
        <ele>7</ele>
        <time>2024-02-04T09:08:12Z</time>
      </trkpt>
      <trkpt lat="49.15856" lon="-0.38431">
        <ele>7</ele>
        <time>2024-02-04T09:08:13Z</time>
      </trkpt>
      <trkpt lat="49.15858" lon="-0.38442">
        <ele>7</ele>
        <time>2024-02-04T09:08:14Z</time>
      </trkpt>
      <trkpt lat="49.1586" lon="-0.38454">
        <ele>7.1</ele>
        <time>2024-02-04T09:08:15Z</time>
      </trkpt>
      <trkpt lat="49.15862" lon="-0.38465">
        <ele>7.1</ele>
        <time>2024-02-04T09:08:16Z</time>
      </trkpt>
      <trkpt lat="49.15864" lon="-0.38475">
        <ele>7.2</ele>
        <time>2024-02-04T09:08:17Z</time>
      </trkpt>
      <trkpt lat="49.15865" lon="-0.38486">
        <ele>7.2</ele>
        <time>2024-02-04T09:08:18Z</time>
      </trkpt>
      <trkpt lat="49.15867" lon="-0.38497">
        <ele>7.3</ele>
        <time>2024-02-04T09:08:19Z</time>
      </trkpt>
      <trkpt lat="49.15869" lon="-0.38508">
        <ele>7.3</ele>
        <time>2024-02-04T09:08:20Z</time>
      </trkpt>
      <trkpt lat="49.15871" lon="-0.38518">
        <ele>7.4</ele>
        <time>2024-02-04T09:08:21Z</time>
      </trkpt>
      <trkpt lat="49.15873" lon="-0.38529">
        <ele>7.4</ele>
        <time>2024-02-04T09:08:22Z</time>
      </trkpt>
      <trkpt lat="49.15875" lon="-0.3854">
        <ele>7.4</ele>
        <time>2024-02-04T09:08:23Z</time>
      </trkpt>
      <trkpt lat="49.15877" lon="-0.38551">
        <ele>7.4</ele>
        <time>2024-02-04T09:08:24Z</time>
      </trkpt>
      <trkpt lat="49.15879" lon="-0.38562">
        <ele>7.4</ele>
        <time>2024-02-04T09:08:25Z</time>
      </trkpt>
      <trkpt lat="49.15881" lon="-0.38574">
        <ele>7.4</ele>
        <time>2024-02-04T09:08:26Z</time>
      </trkpt>
      <trkpt lat="49.15883" lon="-0.38586">
        <ele>7.4</ele>
        <time>2024-02-04T09:08:27Z</time>
      </trkpt>
      <trkpt lat="49.15885" lon="-0.38596">
        <ele>7.4</ele>
        <time>2024-02-04T09:08:28Z</time>
      </trkpt>
      <trkpt lat="49.15887" lon="-0.38607">
        <ele>7.4</ele>
        <time>2024-02-04T09:08:29Z</time>
      </trkpt>
      <trkpt lat="49.15889" lon="-0.38618">
        <ele>7.4</ele>
        <time>2024-02-04T09:08:30Z</time>
      </trkpt>
      <trkpt lat="49.15891" lon="-0.38629">
        <ele>7.4</ele>
        <time>2024-02-04T09:08:31Z</time>
      </trkpt>
      <trkpt lat="49.15894" lon="-0.3864">
        <ele>7.4</ele>
        <time>2024-02-04T09:08:32Z</time>
      </trkpt>
      <trkpt lat="49.15896" lon="-0.3865">
        <ele>7.4</ele>
        <time>2024-02-04T09:08:33Z</time>
      </trkpt>
      <trkpt lat="49.15897" lon="-0.3866">
        <ele>7.4</ele>
        <time>2024-02-04T09:08:34Z</time>
      </trkpt>
      <trkpt lat="49.15899" lon="-0.3867">
        <ele>7.5</ele>
        <time>2024-02-04T09:08:35Z</time>
      </trkpt>
      <trkpt lat="49.159" lon="-0.3868">
        <ele>7.6</ele>
        <time>2024-02-04T09:08:36Z</time>
      </trkpt>
      <trkpt lat="49.15901" lon="-0.3869">
        <ele>7.7</ele>
        <time>2024-02-04T09:08:37Z</time>
      </trkpt>
      <trkpt lat="49.15901" lon="-0.38698">
        <ele>7.9</ele>
        <time>2024-02-04T09:08:38Z</time>
      </trkpt>
      <trkpt lat="49.15901" lon="-0.38706">
        <ele>8</ele>
        <time>2024-02-04T09:08:39Z</time>
      </trkpt>
      <trkpt lat="49.15901" lon="-0.38714">
        <ele>8.1</ele>
        <time>2024-02-04T09:08:40Z</time>
      </trkpt>
      <trkpt lat="49.159" lon="-0.3872">
        <ele>8.1</ele>
        <time>2024-02-04T09:08:41Z</time>
      </trkpt>
      <trkpt lat="49.15897" lon="-0.38725">
        <ele>8.1</ele>
        <time>2024-02-04T09:08:42Z</time>
      </trkpt>
      <trkpt lat="49.15892" lon="-0.38728">
        <ele>8.1</ele>
        <time>2024-02-04T09:08:43Z</time>
      </trkpt>
      <trkpt lat="49.15888" lon="-0.38732">
        <ele>8.1</ele>
        <time>2024-02-04T09:08:44Z</time>
      </trkpt>
      <trkpt lat="49.15883" lon="-0.38736">
        <ele>8</ele>
        <time>2024-02-04T09:08:45Z</time>
      </trkpt>
      <trkpt lat="49.15877" lon="-0.38741">
        <ele>7.9</ele>
        <time>2024-02-04T09:08:46Z</time>
      </trkpt>
      <trkpt lat="49.15872" lon="-0.38745">
        <ele>7.9</ele>
        <time>2024-02-04T09:08:47Z</time>
      </trkpt>
      <trkpt lat="49.15865" lon="-0.38748">
        <ele>7.8</ele>
        <time>2024-02-04T09:08:48Z</time>
      </trkpt>
      <trkpt lat="49.15859" lon="-0.38751">
        <ele>7.8</ele>
        <time>2024-02-04T09:08:49Z</time>
      </trkpt>
      <trkpt lat="49.15852" lon="-0.38755">
        <ele>7.7</ele>
        <time>2024-02-04T09:08:50Z</time>
      </trkpt>
      <trkpt lat="49.15845" lon="-0.38759">
        <ele>7.7</ele>
        <time>2024-02-04T09:08:51Z</time>
      </trkpt>
      <trkpt lat="49.15839" lon="-0.38764">
        <ele>7.7</ele>
        <time>2024-02-04T09:08:52Z</time>
      </trkpt>
      <trkpt lat="49.15832" lon="-0.38769">
        <ele>7.6</ele>
        <time>2024-02-04T09:08:53Z</time>
      </trkpt>
      <trkpt lat="49.15826" lon="-0.38775">
        <ele>7.6</ele>
        <time>2024-02-04T09:08:54Z</time>
      </trkpt>
      <trkpt lat="49.15819" lon="-0.3878">
        <ele>7.6</ele>
        <time>2024-02-04T09:08:55Z</time>
      </trkpt>
      <trkpt lat="49.15813" lon="-0.38786">
        <ele>7.6</ele>
        <time>2024-02-04T09:08:56Z</time>
      </trkpt>
      <trkpt lat="49.15808" lon="-0.38792">
        <ele>7.6</ele>
        <time>2024-02-04T09:08:57Z</time>
      </trkpt>
      <trkpt lat="49.15802" lon="-0.38797">
        <ele>7.6</ele>
        <time>2024-02-04T09:08:58Z</time>
      </trkpt>
      <trkpt lat="49.15796" lon="-0.38803">
        <ele>7.6</ele>
        <time>2024-02-04T09:08:59Z</time>
      </trkpt>
      <trkpt lat="49.1579" lon="-0.38809">
        <ele>7.6</ele>
        <time>2024-02-04T09:09:00Z</time>
      </trkpt>
      <trkpt lat="49.15784" lon="-0.38814">
        <ele>7.5</ele>
        <time>2024-02-04T09:09:01Z</time>
      </trkpt>
      <trkpt lat="49.15779" lon="-0.3882">
        <ele>7.5</ele>
        <time>2024-02-04T09:09:02Z</time>
      </trkpt>
      <trkpt lat="49.15773" lon="-0.38826">
        <ele>7.5</ele>
        <time>2024-02-04T09:09:03Z</time>
      </trkpt>
      <trkpt lat="49.15767" lon="-0.38832">
        <ele>7.5</ele>
        <time>2024-02-04T09:09:04Z</time>
      </trkpt>
      <trkpt lat="49.15762" lon="-0.38838">
        <ele>7.5</ele>
        <time>2024-02-04T09:09:05Z</time>
      </trkpt>
      <trkpt lat="49.15756" lon="-0.38844">
        <ele>7.5</ele>
        <time>2024-02-04T09:09:06Z</time>
      </trkpt>
      <trkpt lat="49.15749" lon="-0.38849">
        <ele>7.5</ele>
        <time>2024-02-04T09:09:07Z</time>
      </trkpt>
      <trkpt lat="49.15743" lon="-0.38854">
        <ele>7.4</ele>
        <time>2024-02-04T09:09:08Z</time>
      </trkpt>
      <trkpt lat="49.15737" lon="-0.3886">
        <ele>7.4</ele>
        <time>2024-02-04T09:09:09Z</time>
      </trkpt>
      <trkpt lat="49.15732" lon="-0.38864">
        <ele>7.4</ele>
        <time>2024-02-04T09:09:10Z</time>
      </trkpt>
      <trkpt lat="49.15726" lon="-0.3887">
        <ele>7.4</ele>
        <time>2024-02-04T09:09:11Z</time>
      </trkpt>
      <trkpt lat="49.1572" lon="-0.38875">
        <ele>7.4</ele>
        <time>2024-02-04T09:09:12Z</time>
      </trkpt>
      <trkpt lat="49.15715" lon="-0.3888">
        <ele>7.3</ele>
        <time>2024-02-04T09:09:13Z</time>
      </trkpt>
      <trkpt lat="49.15709" lon="-0.38885">
        <ele>7.3</ele>
        <time>2024-02-04T09:09:14Z</time>
      </trkpt>
      <trkpt lat="49.15704" lon="-0.38891">
        <ele>7.3</ele>
        <time>2024-02-04T09:09:15Z</time>
      </trkpt>
      <trkpt lat="49.15699" lon="-0.38896">
        <ele>7.3</ele>
        <time>2024-02-04T09:09:16Z</time>
      </trkpt>
      <trkpt lat="49.15694" lon="-0.38899">
        <ele>7.2</ele>
        <time>2024-02-04T09:09:17Z</time>
      </trkpt>
      <trkpt lat="49.15689" lon="-0.38902">
        <ele>7.2</ele>
        <time>2024-02-04T09:09:18Z</time>
      </trkpt>
      <trkpt lat="49.15684" lon="-0.38905">
        <ele>7.1</ele>
        <time>2024-02-04T09:09:19Z</time>
      </trkpt>
      <trkpt lat="49.15679" lon="-0.38909">
        <ele>7.1</ele>
        <time>2024-02-04T09:09:20Z</time>
      </trkpt>
      <trkpt lat="49.15674" lon="-0.38913">
        <ele>7.1</ele>
        <time>2024-02-04T09:09:21Z</time>
      </trkpt>
      <trkpt lat="49.15669" lon="-0.38918">
        <ele>7</ele>
        <time>2024-02-04T09:09:22Z</time>
      </trkpt>
      <trkpt lat="49.15663" lon="-0.38923">
        <ele>7</ele>
        <time>2024-02-04T09:09:23Z</time>
      </trkpt>
      <trkpt lat="49.15658" lon="-0.38928">
        <ele>6.9</ele>
        <time>2024-02-04T09:09:24Z</time>
      </trkpt>
      <trkpt lat="49.15652" lon="-0.38932">
        <ele>6.9</ele>
        <time>2024-02-04T09:09:25Z</time>
      </trkpt>
      <trkpt lat="49.15646" lon="-0.38936">
        <ele>6.9</ele>
        <time>2024-02-04T09:09:26Z</time>
      </trkpt>
      <trkpt lat="49.1564" lon="-0.38941">
        <ele>6.9</ele>
        <time>2024-02-04T09:09:27Z</time>
      </trkpt>
      <trkpt lat="49.15633" lon="-0.38945">
        <ele>6.9</ele>
        <time>2024-02-04T09:09:28Z</time>
      </trkpt>
      <trkpt lat="49.15627" lon="-0.38949">
        <ele>6.8</ele>
        <time>2024-02-04T09:09:29Z</time>
      </trkpt>
      <trkpt lat="49.15621" lon="-0.38953">
        <ele>6.8</ele>
        <time>2024-02-04T09:09:30Z</time>
      </trkpt>
      <trkpt lat="49.15615" lon="-0.38957">
        <ele>6.8</ele>
        <time>2024-02-04T09:09:31Z</time>
      </trkpt>
      <trkpt lat="49.15608" lon="-0.38961">
        <ele>6.8</ele>
        <time>2024-02-04T09:09:32Z</time>
      </trkpt>
      <trkpt lat="49.15602" lon="-0.38965">
        <ele>6.8</ele>
        <time>2024-02-04T09:09:33Z</time>
      </trkpt>
      <trkpt lat="49.15595" lon="-0.38969">
        <ele>6.8</ele>
        <time>2024-02-04T09:09:34Z</time>
      </trkpt>
      <trkpt lat="49.15588" lon="-0.38972">
        <ele>6.8</ele>
        <time>2024-02-04T09:09:35Z</time>
      </trkpt>
      <trkpt lat="49.15582" lon="-0.38976">
        <ele>6.8</ele>
        <time>2024-02-04T09:09:36Z</time>
      </trkpt>
      <trkpt lat="49.15575" lon="-0.38979">
        <ele>6.8</ele>
        <time>2024-02-04T09:09:37Z</time>
      </trkpt>
      <trkpt lat="49.15569" lon="-0.38983">
        <ele>6.8</ele>
        <time>2024-02-04T09:09:38Z</time>
      </trkpt>
      <trkpt lat="49.15562" lon="-0.38987">
        <ele>6.8</ele>
        <time>2024-02-04T09:09:39Z</time>
      </trkpt>
      <trkpt lat="49.15556" lon="-0.3899">
        <ele>6.8</ele>
        <time>2024-02-04T09:09:40Z</time>
      </trkpt>
      <trkpt lat="49.1555" lon="-0.38994">
        <ele>6.7</ele>
        <time>2024-02-04T09:09:41Z</time>
      </trkpt>
      <trkpt lat="49.15543" lon="-0.38997">
        <ele>6.7</ele>
        <time>2024-02-04T09:09:42Z</time>
      </trkpt>
      <trkpt lat="49.15537" lon="-0.39001">
        <ele>6.7</ele>
        <time>2024-02-04T09:09:43Z</time>
      </trkpt>
      <trkpt lat="49.15525" lon="-0.39008">
        <ele>6.6</ele>
        <time>2024-02-04T09:09:45Z</time>
      </trkpt>
      <trkpt lat="49.15519" lon="-0.39012">
        <ele>6.6</ele>
        <time>2024-02-04T09:09:46Z</time>
      </trkpt>
      <trkpt lat="49.15513" lon="-0.39015">
        <ele>6.6</ele>
        <time>2024-02-04T09:09:47Z</time>
      </trkpt>
      <trkpt lat="49.15507" lon="-0.39019">
        <ele>6.7</ele>
        <time>2024-02-04T09:09:48Z</time>
      </trkpt>
      <trkpt lat="49.15502" lon="-0.39022">
        <ele>6.7</ele>
        <time>2024-02-04T09:09:49Z</time>
      </trkpt>
      <trkpt lat="49.15497" lon="-0.39025">
        <ele>6.7</ele>
        <time>2024-02-04T09:09:50Z</time>
      </trkpt>
      <trkpt lat="49.15492" lon="-0.39029">
        <ele>6.7</ele>
        <time>2024-02-04T09:09:51Z</time>
      </trkpt>
      <trkpt lat="49.15489" lon="-0.39033">
        <ele>6.7</ele>
        <time>2024-02-04T09:09:52Z</time>
      </trkpt>
      <trkpt lat="49.15486" lon="-0.3904">
        <ele>6.8</ele>
        <time>2024-02-04T09:09:53Z</time>
      </trkpt>
      <trkpt lat="49.15485" lon="-0.39047">
        <ele>6.8</ele>
        <time>2024-02-04T09:09:54Z</time>
      </trkpt>
      <trkpt lat="49.15483" lon="-0.39055">
        <ele>6.8</ele>
        <time>2024-02-04T09:09:55Z</time>
      </trkpt>
      <trkpt lat="49.15482" lon="-0.39062">
        <ele>6.8</ele>
        <time>2024-02-04T09:09:56Z</time>
      </trkpt>
      <trkpt lat="49.1548" lon="-0.3907">
        <ele>6.8</ele>
        <time>2024-02-04T09:09:57Z</time>
      </trkpt>
      <trkpt lat="49.15479" lon="-0.39079">
        <ele>6.8</ele>
        <time>2024-02-04T09:09:58Z</time>
      </trkpt>
      <trkpt lat="49.15478" lon="-0.39088">
        <ele>6.7</ele>
        <time>2024-02-04T09:09:59Z</time>
      </trkpt>
      <trkpt lat="49.15476" lon="-0.39097">
        <ele>6.7</ele>
        <time>2024-02-04T09:10:00Z</time>
      </trkpt>
      <trkpt lat="49.15475" lon="-0.39106">
        <ele>6.7</ele>
        <time>2024-02-04T09:10:01Z</time>
      </trkpt>
      <trkpt lat="49.15473" lon="-0.39115">
        <ele>6.7</ele>
        <time>2024-02-04T09:10:02Z</time>
      </trkpt>
      <trkpt lat="49.15472" lon="-0.39124">
        <ele>6.7</ele>
        <time>2024-02-04T09:10:03Z</time>
      </trkpt>
      <trkpt lat="49.1547" lon="-0.39133">
        <ele>6.7</ele>
        <time>2024-02-04T09:10:04Z</time>
      </trkpt>
      <trkpt lat="49.15469" lon="-0.39142">
        <ele>6.7</ele>
        <time>2024-02-04T09:10:05Z</time>
      </trkpt>
      <trkpt lat="49.15467" lon="-0.39152">
        <ele>6.7</ele>
        <time>2024-02-04T09:10:06Z</time>
      </trkpt>
      <trkpt lat="49.15465" lon="-0.39161">
        <ele>6.7</ele>
        <time>2024-02-04T09:10:07Z</time>
      </trkpt>
      <trkpt lat="49.15464" lon="-0.39171">
        <ele>6.7</ele>
        <time>2024-02-04T09:10:08Z</time>
      </trkpt>
      <trkpt lat="49.15462" lon="-0.3918">
        <ele>6.7</ele>
        <time>2024-02-04T09:10:09Z</time>
      </trkpt>
      <trkpt lat="49.15461" lon="-0.39189">
        <ele>6.7</ele>
        <time>2024-02-04T09:10:10Z</time>
      </trkpt>
      <trkpt lat="49.15459" lon="-0.39198">
        <ele>6.8</ele>
        <time>2024-02-04T09:10:11Z</time>
      </trkpt>
      <trkpt lat="49.15458" lon="-0.39207">
        <ele>6.8</ele>
        <time>2024-02-04T09:10:12Z</time>
      </trkpt>
      <trkpt lat="49.15457" lon="-0.39216">
        <ele>6.8</ele>
        <time>2024-02-04T09:10:13Z</time>
      </trkpt>
      <trkpt lat="49.15455" lon="-0.39224">
        <ele>6.8</ele>
        <time>2024-02-04T09:10:14Z</time>
      </trkpt>
      <trkpt lat="49.15454" lon="-0.39232">
        <ele>6.9</ele>
        <time>2024-02-04T09:10:15Z</time>
      </trkpt>
      <trkpt lat="49.15453" lon="-0.39241">
        <ele>6.9</ele>
        <time>2024-02-04T09:10:16Z</time>
      </trkpt>
      <trkpt lat="49.15454" lon="-0.3925">
        <ele>6.9</ele>
        <time>2024-02-04T09:10:17Z</time>
      </trkpt>
      <trkpt lat="49.15456" lon="-0.39257">
        <ele>6.9</ele>
        <time>2024-02-04T09:10:18Z</time>
      </trkpt>
      <trkpt lat="49.1546" lon="-0.39266">
        <ele>7</ele>
        <time>2024-02-04T09:10:19Z</time>
      </trkpt>
      <trkpt lat="49.15463" lon="-0.39274">
        <ele>7</ele>
        <time>2024-02-04T09:10:20Z</time>
      </trkpt>
      <trkpt lat="49.15466" lon="-0.39282">
        <ele>7</ele>
        <time>2024-02-04T09:10:21Z</time>
      </trkpt>
      <trkpt lat="49.15469" lon="-0.3929">
        <ele>7.1</ele>
        <time>2024-02-04T09:10:22Z</time>
      </trkpt>
      <trkpt lat="49.15471" lon="-0.39298">
        <ele>7.2</ele>
        <time>2024-02-04T09:10:23Z</time>
      </trkpt>
      <trkpt lat="49.15473" lon="-0.39307">
        <ele>7.2</ele>
        <time>2024-02-04T09:10:24Z</time>
      </trkpt>
      <trkpt lat="49.15475" lon="-0.39316">
        <ele>7.3</ele>
        <time>2024-02-04T09:10:25Z</time>
      </trkpt>
      <trkpt lat="49.15475" lon="-0.39326">
        <ele>7.3</ele>
        <time>2024-02-04T09:10:26Z</time>
      </trkpt>
      <trkpt lat="49.15474" lon="-0.39334">
        <ele>7.4</ele>
        <time>2024-02-04T09:10:27Z</time>
      </trkpt>
      <trkpt lat="49.15469" lon="-0.39352">
        <ele>7.5</ele>
        <time>2024-02-04T09:10:29Z</time>
      </trkpt>
      <trkpt lat="49.15467" lon="-0.3936">
        <ele>7.6</ele>
        <time>2024-02-04T09:10:30Z</time>
      </trkpt>
      <trkpt lat="49.15464" lon="-0.39367">
        <ele>7.6</ele>
        <time>2024-02-04T09:10:31Z</time>
      </trkpt>
      <trkpt lat="49.15462" lon="-0.39373">
        <ele>7.7</ele>
        <time>2024-02-04T09:10:32Z</time>
      </trkpt>
      <trkpt lat="49.15461" lon="-0.39378">
        <ele>7.7</ele>
        <time>2024-02-04T09:10:33Z</time>
      </trkpt>
      <trkpt lat="49.1546" lon="-0.39383">
        <ele>7.7</ele>
        <time>2024-02-04T09:10:34Z</time>
      </trkpt>
      <trkpt lat="49.15459" lon="-0.39388">
        <ele>7.7</ele>
        <time>2024-02-04T09:10:35Z</time>
      </trkpt>
      <trkpt lat="49.1546" lon="-0.39393">
        <ele>7.8</ele>
        <time>2024-02-04T09:10:36Z</time>
      </trkpt>
      <trkpt lat="49.15461" lon="-0.394">
        <ele>7.8</ele>
        <time>2024-02-04T09:10:37Z</time>
      </trkpt>
      <trkpt lat="49.15463" lon="-0.39408">
        <ele>7.9</ele>
        <time>2024-02-04T09:10:38Z</time>
      </trkpt>
      <trkpt lat="49.15466" lon="-0.39415">
        <ele>8</ele>
        <time>2024-02-04T09:10:39Z</time>
      </trkpt>
      <trkpt lat="49.15469" lon="-0.39422">
        <ele>8.1</ele>
        <time>2024-02-04T09:10:40Z</time>
      </trkpt>
      <trkpt lat="49.15473" lon="-0.39429">
        <ele>8.3</ele>
        <time>2024-02-04T09:10:41Z</time>
      </trkpt>
      <trkpt lat="49.15477" lon="-0.39434">
        <ele>8.4</ele>
        <time>2024-02-04T09:10:42Z</time>
      </trkpt>
      <trkpt lat="49.15482" lon="-0.39439">
        <ele>8.6</ele>
        <time>2024-02-04T09:10:43Z</time>
      </trkpt>
      <trkpt lat="49.15486" lon="-0.39444">
        <ele>8.8</ele>
        <time>2024-02-04T09:10:44Z</time>
      </trkpt>
      <trkpt lat="49.15491" lon="-0.39448">
        <ele>9</ele>
        <time>2024-02-04T09:10:45Z</time>
      </trkpt>
      <trkpt lat="49.15494" lon="-0.39451">
        <ele>9.2</ele>
        <time>2024-02-04T09:10:46Z</time>
      </trkpt>
      <trkpt lat="49.15498" lon="-0.39454">
        <ele>9.4</ele>
        <time>2024-02-04T09:10:47Z</time>
      </trkpt>
      <trkpt lat="49.15501" lon="-0.39457">
        <ele>9.6</ele>
        <time>2024-02-04T09:10:48Z</time>
      </trkpt>
      <trkpt lat="49.15502" lon="-0.39458">
        <ele>9.6</ele>
        <time>2024-02-04T09:10:49Z</time>
      </trkpt>
      <trkpt lat="49.15503" lon="-0.39463">
        <ele>9.8</ele>
        <time>2024-02-04T09:10:50Z</time>
      </trkpt>
      <trkpt lat="49.15504" lon="-0.39465">
        <ele>9.8</ele>
        <time>2024-02-04T09:10:51Z</time>
      </trkpt>
      <trkpt lat="49.15503" lon="-0.3947">
        <ele>9.9</ele>
        <time>2024-02-04T09:10:52Z</time>
      </trkpt>
      <trkpt lat="49.15501" lon="-0.39474">
        <ele>9.9</ele>
        <time>2024-02-04T09:10:53Z</time>
      </trkpt>
      <trkpt lat="49.15498" lon="-0.39478">
        <ele>10</ele>
        <time>2024-02-04T09:10:54Z</time>
      </trkpt>
      <trkpt lat="49.15496" lon="-0.39483">
        <ele>10.1</ele>
        <time>2024-02-04T09:10:55Z</time>
      </trkpt>
      <trkpt lat="49.15493" lon="-0.39488">
        <ele>10.2</ele>
        <time>2024-02-04T09:10:56Z</time>
      </trkpt>
      <trkpt lat="49.1549" lon="-0.39492">
        <ele>10.2</ele>
        <time>2024-02-04T09:10:57Z</time>
      </trkpt>
      <trkpt lat="49.15488" lon="-0.39497">
        <ele>10.3</ele>
        <time>2024-02-04T09:10:58Z</time>
      </trkpt>
      <trkpt lat="49.15485" lon="-0.39502">
        <ele>10.4</ele>
        <time>2024-02-04T09:10:59Z</time>
      </trkpt>
      <trkpt lat="49.15482" lon="-0.39507">
        <ele>10.5</ele>
        <time>2024-02-04T09:11:00Z</time>
      </trkpt>
      <trkpt lat="49.1548" lon="-0.39513">
        <ele>10.5</ele>
        <time>2024-02-04T09:11:01Z</time>
      </trkpt>
      <trkpt lat="49.15477" lon="-0.39519">
        <ele>10.7</ele>
        <time>2024-02-04T09:11:02Z</time>
      </trkpt>
      <trkpt lat="49.15473" lon="-0.39525">
        <ele>10.8</ele>
        <time>2024-02-04T09:11:03Z</time>
      </trkpt>
      <trkpt lat="49.1547" lon="-0.39531">
        <ele>10.9</ele>
        <time>2024-02-04T09:11:04Z</time>
      </trkpt>
      <trkpt lat="49.15467" lon="-0.39537">
        <ele>11</ele>
        <time>2024-02-04T09:11:05Z</time>
      </trkpt>
      <trkpt lat="49.15464" lon="-0.39543">
        <ele>11.1</ele>
        <time>2024-02-04T09:11:06Z</time>
      </trkpt>
      <trkpt lat="49.1546" lon="-0.39549">
        <ele>11.2</ele>
        <time>2024-02-04T09:11:07Z</time>
      </trkpt>
      <trkpt lat="49.15457" lon="-0.39555">
        <ele>11.4</ele>
        <time>2024-02-04T09:11:08Z</time>
      </trkpt>
      <trkpt lat="49.15454" lon="-0.39561">
        <ele>11.5</ele>
        <time>2024-02-04T09:11:09Z</time>
      </trkpt>
      <trkpt lat="49.15452" lon="-0.39565">
        <ele>11.6</ele>
        <time>2024-02-04T09:11:10Z</time>
      </trkpt>
      <trkpt lat="49.15449" lon="-0.3957">
        <ele>11.7</ele>
        <time>2024-02-04T09:11:11Z</time>
      </trkpt>
      <trkpt lat="49.15446" lon="-0.39575">
        <ele>11.8</ele>
        <time>2024-02-04T09:11:12Z</time>
      </trkpt>
      <trkpt lat="49.15443" lon="-0.3958">
        <ele>11.9</ele>
        <time>2024-02-04T09:11:13Z</time>
      </trkpt>
      <trkpt lat="49.15441" lon="-0.39585">
        <ele>12.1</ele>
        <time>2024-02-04T09:11:14Z</time>
      </trkpt>
      <trkpt lat="49.15438" lon="-0.39591">
        <ele>12.2</ele>
        <time>2024-02-04T09:11:15Z</time>
      </trkpt>
      <trkpt lat="49.15435" lon="-0.39596">
        <ele>12.3</ele>
        <time>2024-02-04T09:11:16Z</time>
      </trkpt>
      <trkpt lat="49.15432" lon="-0.39601">
        <ele>12.4</ele>
        <time>2024-02-04T09:11:17Z</time>
      </trkpt>
      <trkpt lat="49.15429" lon="-0.39606">
        <ele>12.6</ele>
        <time>2024-02-04T09:11:18Z</time>
      </trkpt>
      <trkpt lat="49.15426" lon="-0.39611">
        <ele>12.7</ele>
        <time>2024-02-04T09:11:19Z</time>
      </trkpt>
      <trkpt lat="49.15424" lon="-0.39617">
        <ele>12.9</ele>
        <time>2024-02-04T09:11:20Z</time>
      </trkpt>
      <trkpt lat="49.15421" lon="-0.39622">
        <ele>13</ele>
        <time>2024-02-04T09:11:21Z</time>
      </trkpt>
      <trkpt lat="49.15418" lon="-0.39627">
        <ele>13.2</ele>
        <time>2024-02-04T09:11:22Z</time>
      </trkpt>
      <trkpt lat="49.15415" lon="-0.39632">
        <ele>13.3</ele>
        <time>2024-02-04T09:11:23Z</time>
      </trkpt>
      <trkpt lat="49.15413" lon="-0.39638">
        <ele>13.4</ele>
        <time>2024-02-04T09:11:24Z</time>
      </trkpt>
      <trkpt lat="49.1541" lon="-0.39643">
        <ele>13.6</ele>
        <time>2024-02-04T09:11:25Z</time>
      </trkpt>
      <trkpt lat="49.15407" lon="-0.39648">
        <ele>13.7</ele>
        <time>2024-02-04T09:11:26Z</time>
      </trkpt>
      <trkpt lat="49.15404" lon="-0.39652">
        <ele>13.8</ele>
        <time>2024-02-04T09:11:27Z</time>
      </trkpt>
      <trkpt lat="49.15401" lon="-0.39658">
        <ele>13.9</ele>
        <time>2024-02-04T09:11:28Z</time>
      </trkpt>
      <trkpt lat="49.15398" lon="-0.39663">
        <ele>14.1</ele>
        <time>2024-02-04T09:11:29Z</time>
      </trkpt>
      <trkpt lat="49.15395" lon="-0.39668">
        <ele>14.2</ele>
        <time>2024-02-04T09:11:30Z</time>
      </trkpt>
      <trkpt lat="49.15392" lon="-0.39673">
        <ele>14.3</ele>
        <time>2024-02-04T09:11:31Z</time>
      </trkpt>
      <trkpt lat="49.1539" lon="-0.39678">
        <ele>14.5</ele>
        <time>2024-02-04T09:11:32Z</time>
      </trkpt>
      <trkpt lat="49.15387" lon="-0.39684">
        <ele>14.6</ele>
        <time>2024-02-04T09:11:33Z</time>
      </trkpt>
      <trkpt lat="49.15384" lon="-0.39689">
        <ele>14.7</ele>
        <time>2024-02-04T09:11:34Z</time>
      </trkpt>
      <trkpt lat="49.15381" lon="-0.39694">
        <ele>14.9</ele>
        <time>2024-02-04T09:11:35Z</time>
      </trkpt>
      <trkpt lat="49.15378" lon="-0.39699">
        <ele>15</ele>
        <time>2024-02-04T09:11:36Z</time>
      </trkpt>
      <trkpt lat="49.15375" lon="-0.39704">
        <ele>15.2</ele>
        <time>2024-02-04T09:11:37Z</time>
      </trkpt>
      <trkpt lat="49.15372" lon="-0.39709">
        <ele>15.3</ele>
        <time>2024-02-04T09:11:38Z</time>
      </trkpt>
      <trkpt lat="49.15368" lon="-0.39714">
        <ele>15.5</ele>
        <time>2024-02-04T09:11:39Z</time>
      </trkpt>
      <trkpt lat="49.15366" lon="-0.39719">
        <ele>15.6</ele>
        <time>2024-02-04T09:11:40Z</time>
      </trkpt>
      <trkpt lat="49.15363" lon="-0.39724">
        <ele>15.8</ele>
        <time>2024-02-04T09:11:41Z</time>
      </trkpt>
      <trkpt lat="49.1536" lon="-0.39729">
        <ele>16</ele>
        <time>2024-02-04T09:11:42Z</time>
      </trkpt>
      <trkpt lat="49.15357" lon="-0.39734">
        <ele>16.1</ele>
        <time>2024-02-04T09:11:43Z</time>
      </trkpt>
      <trkpt lat="49.15354" lon="-0.39739">
        <ele>16.3</ele>
        <time>2024-02-04T09:11:44Z</time>
      </trkpt>
      <trkpt lat="49.1535" lon="-0.39744">
        <ele>16.5</ele>
        <time>2024-02-04T09:11:45Z</time>
      </trkpt>
      <trkpt lat="49.15347" lon="-0.3975">
        <ele>16.7</ele>
        <time>2024-02-04T09:11:46Z</time>
      </trkpt>
      <trkpt lat="49.15345" lon="-0.39755">
        <ele>16.9</ele>
        <time>2024-02-04T09:11:47Z</time>
      </trkpt>
      <trkpt lat="49.15342" lon="-0.3976">
        <ele>17.1</ele>
        <time>2024-02-04T09:11:48Z</time>
      </trkpt>
      <trkpt lat="49.15339" lon="-0.39766">
        <ele>17.3</ele>
        <time>2024-02-04T09:11:49Z</time>
      </trkpt>
      <trkpt lat="49.15336" lon="-0.39771">
        <ele>17.4</ele>
        <time>2024-02-04T09:11:50Z</time>
      </trkpt>
      <trkpt lat="49.15334" lon="-0.39777">
        <ele>17.6</ele>
        <time>2024-02-04T09:11:51Z</time>
      </trkpt>
      <trkpt lat="49.15331" lon="-0.39782">
        <ele>17.8</ele>
        <time>2024-02-04T09:11:52Z</time>
      </trkpt>
      <trkpt lat="49.15329" lon="-0.39787">
        <ele>18</ele>
        <time>2024-02-04T09:11:53Z</time>
      </trkpt>
      <trkpt lat="49.15326" lon="-0.39793">
        <ele>18.2</ele>
        <time>2024-02-04T09:11:54Z</time>
      </trkpt>
      <trkpt lat="49.15324" lon="-0.39798">
        <ele>18.4</ele>
        <time>2024-02-04T09:11:55Z</time>
      </trkpt>
      <trkpt lat="49.15321" lon="-0.39804">
        <ele>18.7</ele>
        <time>2024-02-04T09:11:56Z</time>
      </trkpt>
      <trkpt lat="49.15318" lon="-0.39809">
        <ele>18.9</ele>
        <time>2024-02-04T09:11:57Z</time>
      </trkpt>
      <trkpt lat="49.15316" lon="-0.39815">
        <ele>19.1</ele>
        <time>2024-02-04T09:11:58Z</time>
      </trkpt>
      <trkpt lat="49.15314" lon="-0.3982">
        <ele>19.3</ele>
        <time>2024-02-04T09:11:59Z</time>
      </trkpt>
      <trkpt lat="49.15311" lon="-0.39826">
        <ele>19.5</ele>
        <time>2024-02-04T09:12:00Z</time>
      </trkpt>
      <trkpt lat="49.15309" lon="-0.39832">
        <ele>19.7</ele>
        <time>2024-02-04T09:12:01Z</time>
      </trkpt>
      <trkpt lat="49.15306" lon="-0.39838">
        <ele>20</ele>
        <time>2024-02-04T09:12:02Z</time>
      </trkpt>
      <trkpt lat="49.15304" lon="-0.39843">
        <ele>20.2</ele>
        <time>2024-02-04T09:12:03Z</time>
      </trkpt>
      <trkpt lat="49.15301" lon="-0.39849">
        <ele>20.4</ele>
        <time>2024-02-04T09:12:04Z</time>
      </trkpt>
      <trkpt lat="49.15299" lon="-0.39854">
        <ele>20.6</ele>
        <time>2024-02-04T09:12:05Z</time>
      </trkpt>
      <trkpt lat="49.15297" lon="-0.39859">
        <ele>20.8</ele>
        <time>2024-02-04T09:12:06Z</time>
      </trkpt>
      <trkpt lat="49.15294" lon="-0.39865">
        <ele>21</ele>
        <time>2024-02-04T09:12:07Z</time>
      </trkpt>
      <trkpt lat="49.15291" lon="-0.3987">
        <ele>21.2</ele>
        <time>2024-02-04T09:12:08Z</time>
      </trkpt>
      <trkpt lat="49.15289" lon="-0.39875">
        <ele>21.4</ele>
        <time>2024-02-04T09:12:09Z</time>
      </trkpt>
      <trkpt lat="49.15287" lon="-0.3988">
        <ele>21.6</ele>
        <time>2024-02-04T09:12:10Z</time>
      </trkpt>
      <trkpt lat="49.15284" lon="-0.39886">
        <ele>21.8</ele>
        <time>2024-02-04T09:12:11Z</time>
      </trkpt>
      <trkpt lat="49.15282" lon="-0.39891">
        <ele>22</ele>
        <time>2024-02-04T09:12:12Z</time>
      </trkpt>
      <trkpt lat="49.1528" lon="-0.39897">
        <ele>22.2</ele>
        <time>2024-02-04T09:12:13Z</time>
      </trkpt>
      <trkpt lat="49.15278" lon="-0.39902">
        <ele>22.4</ele>
        <time>2024-02-04T09:12:14Z</time>
      </trkpt>
      <trkpt lat="49.15275" lon="-0.39906">
        <ele>22.5</ele>
        <time>2024-02-04T09:12:15Z</time>
      </trkpt>
      <trkpt lat="49.15273" lon="-0.39912">
        <ele>22.7</ele>
        <time>2024-02-04T09:12:16Z</time>
      </trkpt>
      <trkpt lat="49.1527" lon="-0.39917">
        <ele>23</ele>
        <time>2024-02-04T09:12:17Z</time>
      </trkpt>
      <trkpt lat="49.15268" lon="-0.39922">
        <ele>23.2</ele>
        <time>2024-02-04T09:12:18Z</time>
      </trkpt>
      <trkpt lat="49.15265" lon="-0.39928">
        <ele>23.4</ele>
        <time>2024-02-04T09:12:19Z</time>
      </trkpt>
      <trkpt lat="49.15263" lon="-0.39933">
        <ele>23.6</ele>
        <time>2024-02-04T09:12:20Z</time>
      </trkpt>
      <trkpt lat="49.15261" lon="-0.39939">
        <ele>23.8</ele>
        <time>2024-02-04T09:12:21Z</time>
      </trkpt>
      <trkpt lat="49.15258" lon="-0.39944">
        <ele>24</ele>
        <time>2024-02-04T09:12:22Z</time>
      </trkpt>
      <trkpt lat="49.15256" lon="-0.3995">
        <ele>24.2</ele>
        <time>2024-02-04T09:12:23Z</time>
      </trkpt>
      <trkpt lat="49.15254" lon="-0.39955">
        <ele>24.4</ele>
        <time>2024-02-04T09:12:24Z</time>
      </trkpt>
      <trkpt lat="49.15251" lon="-0.3996">
        <ele>24.6</ele>
        <time>2024-02-04T09:12:25Z</time>
      </trkpt>
      <trkpt lat="49.15249" lon="-0.39964">
        <ele>24.8</ele>
        <time>2024-02-04T09:12:26Z</time>
      </trkpt>
      <trkpt lat="49.15247" lon="-0.39969">
        <ele>25</ele>
        <time>2024-02-04T09:12:27Z</time>
      </trkpt>
      <trkpt lat="49.15244" lon="-0.39975">
        <ele>25.2</ele>
        <time>2024-02-04T09:12:28Z</time>
      </trkpt>
      <trkpt lat="49.15242" lon="-0.3998">
        <ele>25.4</ele>
        <time>2024-02-04T09:12:29Z</time>
      </trkpt>
      <trkpt lat="49.1524" lon="-0.39985">
        <ele>25.6</ele>
        <time>2024-02-04T09:12:30Z</time>
      </trkpt>
      <trkpt lat="49.15237" lon="-0.3999">
        <ele>25.8</ele>
        <time>2024-02-04T09:12:31Z</time>
      </trkpt>
      <trkpt lat="49.15235" lon="-0.39995">
        <ele>26</ele>
        <time>2024-02-04T09:12:32Z</time>
      </trkpt>
      <trkpt lat="49.15232" lon="-0.4">
        <ele>26.2</ele>
        <time>2024-02-04T09:12:33Z</time>
      </trkpt>
      <trkpt lat="49.1523" lon="-0.40005">
        <ele>26.4</ele>
        <time>2024-02-04T09:12:34Z</time>
      </trkpt>
      <trkpt lat="49.15228" lon="-0.4001">
        <ele>26.6</ele>
        <time>2024-02-04T09:12:35Z</time>
      </trkpt>
      <trkpt lat="49.15226" lon="-0.40015">
        <ele>26.9</ele>
        <time>2024-02-04T09:12:36Z</time>
      </trkpt>
      <trkpt lat="49.15224" lon="-0.4002">
        <ele>27.1</ele>
        <time>2024-02-04T09:12:37Z</time>
      </trkpt>
      <trkpt lat="49.15222" lon="-0.40024">
        <ele>27.3</ele>
        <time>2024-02-04T09:12:38Z</time>
      </trkpt>
      <trkpt lat="49.1522" lon="-0.40028">
        <ele>27.5</ele>
        <time>2024-02-04T09:12:39Z</time>
      </trkpt>
      <trkpt lat="49.15218" lon="-0.40032">
        <ele>27.8</ele>
        <time>2024-02-04T09:12:40Z</time>
      </trkpt>
      <trkpt lat="49.15217" lon="-0.40034">
        <ele>27.8</ele>
        <time>2024-02-04T09:12:41Z</time>
      </trkpt>
      <trkpt lat="49.15216" lon="-0.40038">
        <ele>28.1</ele>
        <time>2024-02-04T09:12:42Z</time>
      </trkpt>
      <trkpt lat="49.15215" lon="-0.4004">
        <ele>28.1</ele>
        <time>2024-02-04T09:12:43Z</time>
      </trkpt>
      <trkpt lat="49.15215" lon="-0.40042">
        <ele>28.2</ele>
        <time>2024-02-04T09:12:44Z</time>
      </trkpt>
      <trkpt lat="49.15215" lon="-0.40044">
        <ele>28.3</ele>
        <time>2024-02-04T09:12:45Z</time>
      </trkpt>
      <trkpt lat="49.15214" lon="-0.40045">
        <ele>28.3</ele>
        <time>2024-02-04T09:12:46Z</time>
      </trkpt>
      <trkpt lat="49.15215" lon="-0.40045">
        <ele>28.3</ele>
        <time>2024-02-04T09:12:47Z</time>
      </trkpt>
      <trkpt lat="49.15214" lon="-0.40044">
        <ele>28.4</ele>
        <time>2024-02-04T09:12:48Z</time>
      </trkpt>
      <trkpt lat="49.15214" lon="-0.40045">
        <ele>28.4</ele>
        <time>2024-02-04T09:12:49Z</time>
      </trkpt>
      <trkpt lat="49.15214" lon="-0.40046">
        <ele>28.4</ele>
        <time>2024-02-04T09:12:50Z</time>
      </trkpt>
      <trkpt lat="49.15214" lon="-0.40048">
        <ele>28.5</ele>
        <time>2024-02-04T09:12:51Z</time>
      </trkpt>
      <trkpt lat="49.15214" lon="-0.40049">
        <ele>28.6</ele>
        <time>2024-02-04T09:12:52Z</time>
      </trkpt>
      <trkpt lat="49.15213" lon="-0.40051">
        <ele>28.7</ele>
        <time>2024-02-04T09:12:53Z</time>
      </trkpt>
      <trkpt lat="49.15213" lon="-0.40053">
        <ele>28.8</ele>
        <time>2024-02-04T09:12:54Z</time>
      </trkpt>
      <trkpt lat="49.15211" lon="-0.40055">
        <ele>28.8</ele>
        <time>2024-02-04T09:12:55Z</time>
      </trkpt>
      <trkpt lat="49.15211" lon="-0.40056">
        <ele>28.8</ele>
        <time>2024-02-04T09:12:56Z</time>
      </trkpt>
      <trkpt lat="49.15211" lon="-0.40056">
        <ele>28.8</ele>
        <time>2024-02-04T09:12:57Z</time>
      </trkpt>
      <trkpt lat="49.15211" lon="-0.40056">
        <ele>28.8</ele>
        <time>2024-02-04T09:12:58Z</time>
      </trkpt>
      <trkpt lat="49.15211" lon="-0.40056">
        <ele>28.8</ele>
        <time>2024-02-04T09:12:59Z</time>
      </trkpt>
      <trkpt lat="49.15211" lon="-0.40056">
        <ele>28.8</ele>
        <time>2024-02-04T09:13:00Z</time>
      </trkpt>
      <trkpt lat="49.15211" lon="-0.40056">
        <ele>28.8</ele>
        <time>2024-02-04T09:13:01Z</time>
      </trkpt>
      <trkpt lat="49.15211" lon="-0.40056">
        <ele>28.8</ele>
        <time>2024-02-04T09:13:02Z</time>
      </trkpt>
      <trkpt lat="49.15211" lon="-0.40056">
        <ele>28.8</ele>
        <time>2024-02-04T09:13:03Z</time>
      </trkpt>
      <trkpt lat="49.15211" lon="-0.40056">
        <ele>28.8</ele>
        <time>2024-02-04T09:13:04Z</time>
      </trkpt>
      <trkpt lat="49.15211" lon="-0.40056">
        <ele>28.8</ele>
        <time>2024-02-04T09:13:05Z</time>
      </trkpt>
      <trkpt lat="49.15211" lon="-0.40056">
        <ele>28.8</ele>
        <time>2024-02-04T09:13:06Z</time>
      </trkpt>
      <trkpt lat="49.15211" lon="-0.40056">
        <ele>28.8</ele>
        <time>2024-02-04T09:13:07Z</time>
      </trkpt>
      <trkpt lat="49.15211" lon="-0.40056">
        <ele>28.8</ele>
        <time>2024-02-04T09:13:08Z</time>
      </trkpt>
      <trkpt lat="49.1521" lon="-0.40055">
        <ele>28.8</ele>
        <time>2024-02-04T09:14:42Z</time>
      </trkpt>
      <trkpt lat="49.15209" lon="-0.40055">
        <ele>28.8</ele>
        <time>2024-02-04T09:14:43Z</time>
      </trkpt>
      <trkpt lat="49.15207" lon="-0.40055">
        <ele>28.8</ele>
        <time>2024-02-04T09:14:44Z</time>
      </trkpt>
      <trkpt lat="49.15204" lon="-0.40056">
        <ele>28.8</ele>
        <time>2024-02-04T09:14:45Z</time>
      </trkpt>
      <trkpt lat="49.15203" lon="-0.40056">
        <ele>28.7</ele>
        <time>2024-02-04T09:14:46Z</time>
      </trkpt>
      <trkpt lat="49.152" lon="-0.40056">
        <ele>28.7</ele>
        <time>2024-02-04T09:14:47Z</time>
      </trkpt>
      <trkpt lat="49.15196" lon="-0.40057">
        <ele>28.7</ele>
        <time>2024-02-04T09:14:48Z</time>
      </trkpt>
      <trkpt lat="49.15192" lon="-0.40058">
        <ele>28.7</ele>
        <time>2024-02-04T09:14:49Z</time>
      </trkpt>
      <trkpt lat="49.15188" lon="-0.40059">
        <ele>28.7</ele>
        <time>2024-02-04T09:14:50Z</time>
      </trkpt>
      <trkpt lat="49.15183" lon="-0.40061">
        <ele>28.7</ele>
        <time>2024-02-04T09:14:51Z</time>
      </trkpt>
      <trkpt lat="49.15178" lon="-0.40063">
        <ele>28.7</ele>
        <time>2024-02-04T09:14:52Z</time>
      </trkpt>
      <trkpt lat="49.15172" lon="-0.40065">
        <ele>28.7</ele>
        <time>2024-02-04T09:14:53Z</time>
      </trkpt>
      <trkpt lat="49.15166" lon="-0.40067">
        <ele>28.8</ele>
        <time>2024-02-04T09:14:54Z</time>
      </trkpt>
      <trkpt lat="49.1516" lon="-0.40069">
        <ele>28.8</ele>
        <time>2024-02-04T09:14:55Z</time>
      </trkpt>
      <trkpt lat="49.15155" lon="-0.40072">
        <ele>28.9</ele>
        <time>2024-02-04T09:14:56Z</time>
      </trkpt>
      <trkpt lat="49.15149" lon="-0.40074">
        <ele>28.9</ele>
        <time>2024-02-04T09:14:57Z</time>
      </trkpt>
      <trkpt lat="49.15143" lon="-0.40076">
        <ele>29</ele>
        <time>2024-02-04T09:14:58Z</time>
      </trkpt>
      <trkpt lat="49.15138" lon="-0.40079">
        <ele>29.1</ele>
        <time>2024-02-04T09:14:59Z</time>
      </trkpt>
      <trkpt lat="49.15133" lon="-0.40082">
        <ele>29.1</ele>
        <time>2024-02-04T09:15:00Z</time>
      </trkpt>
      <trkpt lat="49.15127" lon="-0.40084">
        <ele>29.2</ele>
        <time>2024-02-04T09:15:01Z</time>
      </trkpt>
      <trkpt lat="49.15121" lon="-0.40087">
        <ele>29.3</ele>
        <time>2024-02-04T09:15:02Z</time>
      </trkpt>
      <trkpt lat="49.15117" lon="-0.4009">
        <ele>29.4</ele>
        <time>2024-02-04T09:15:03Z</time>
      </trkpt>
      <trkpt lat="49.15111" lon="-0.40093">
        <ele>29.5</ele>
        <time>2024-02-04T09:15:04Z</time>
      </trkpt>
      <trkpt lat="49.15105" lon="-0.40096">
        <ele>29.6</ele>
        <time>2024-02-04T09:15:05Z</time>
      </trkpt>
      <trkpt lat="49.151" lon="-0.40099">
        <ele>29.8</ele>
        <time>2024-02-04T09:15:06Z</time>
      </trkpt>
      <trkpt lat="49.15095" lon="-0.40101">
        <ele>29.9</ele>
        <time>2024-02-04T09:15:07Z</time>
      </trkpt>
      <trkpt lat="49.15089" lon="-0.40104">
        <ele>30.1</ele>
        <time>2024-02-04T09:15:08Z</time>
      </trkpt>
      <trkpt lat="49.15083" lon="-0.40106">
        <ele>30.2</ele>
        <time>2024-02-04T09:15:09Z</time>
      </trkpt>
      <trkpt lat="49.15078" lon="-0.4011">
        <ele>30.4</ele>
        <time>2024-02-04T09:15:10Z</time>
      </trkpt>
      <trkpt lat="49.15072" lon="-0.40113">
        <ele>30.5</ele>
        <time>2024-02-04T09:15:11Z</time>
      </trkpt>
      <trkpt lat="49.15066" lon="-0.40117">
        <ele>30.6</ele>
        <time>2024-02-04T09:15:12Z</time>
      </trkpt>
      <trkpt lat="49.1506" lon="-0.4012">
        <ele>30.8</ele>
        <time>2024-02-04T09:15:13Z</time>
      </trkpt>
      <trkpt lat="49.15055" lon="-0.40124">
        <ele>30.9</ele>
        <time>2024-02-04T09:15:14Z</time>
      </trkpt>
      <trkpt lat="49.15049" lon="-0.40128">
        <ele>31</ele>
        <time>2024-02-04T09:15:15Z</time>
      </trkpt>
      <trkpt lat="49.15044" lon="-0.40131">
        <ele>31.1</ele>
        <time>2024-02-04T09:15:16Z</time>
      </trkpt>
      <trkpt lat="49.15038" lon="-0.40135">
        <ele>31.2</ele>
        <time>2024-02-04T09:15:17Z</time>
      </trkpt>
      <trkpt lat="49.15032" lon="-0.40139">
        <ele>31.3</ele>
        <time>2024-02-04T09:15:18Z</time>
      </trkpt>
      <trkpt lat="49.15026" lon="-0.40143">
        <ele>31.4</ele>
        <time>2024-02-04T09:15:19Z</time>
      </trkpt>
      <trkpt lat="49.15021" lon="-0.40147">
        <ele>31.4</ele>
        <time>2024-02-04T09:15:20Z</time>
      </trkpt>
      <trkpt lat="49.15015" lon="-0.40151">
        <ele>31.5</ele>
        <time>2024-02-04T09:15:21Z</time>
      </trkpt>
      <trkpt lat="49.15009" lon="-0.40155">
        <ele>31.6</ele>
        <time>2024-02-04T09:15:22Z</time>
      </trkpt>
      <trkpt lat="49.15003" lon="-0.40159">
        <ele>31.6</ele>
        <time>2024-02-04T09:15:23Z</time>
      </trkpt>
      <trkpt lat="49.14997" lon="-0.40163">
        <ele>31.7</ele>
        <time>2024-02-04T09:15:24Z</time>
      </trkpt>
      <trkpt lat="49.14991" lon="-0.40168">
        <ele>31.7</ele>
        <time>2024-02-04T09:15:25Z</time>
      </trkpt>
      <trkpt lat="49.14985" lon="-0.40172">
        <ele>31.7</ele>
        <time>2024-02-04T09:15:26Z</time>
      </trkpt>
      <trkpt lat="49.14979" lon="-0.40176">
        <ele>31.7</ele>
        <time>2024-02-04T09:15:27Z</time>
      </trkpt>
      <trkpt lat="49.14973" lon="-0.4018">
        <ele>31.7</ele>
        <time>2024-02-04T09:15:28Z</time>
      </trkpt>
      <trkpt lat="49.14967" lon="-0.40184">
        <ele>31.7</ele>
        <time>2024-02-04T09:15:29Z</time>
      </trkpt>
      <trkpt lat="49.1496" lon="-0.40188">
        <ele>31.6</ele>
        <time>2024-02-04T09:15:30Z</time>
      </trkpt>
      <trkpt lat="49.14954" lon="-0.40192">
        <ele>31.6</ele>
        <time>2024-02-04T09:15:31Z</time>
      </trkpt>
      <trkpt lat="49.14948" lon="-0.40196">
        <ele>31.6</ele>
        <time>2024-02-04T09:15:32Z</time>
      </trkpt>
      <trkpt lat="49.14942" lon="-0.402">
        <ele>31.6</ele>
        <time>2024-02-04T09:15:33Z</time>
      </trkpt>
      <trkpt lat="49.14937" lon="-0.40204">
        <ele>31.6</ele>
        <time>2024-02-04T09:15:34Z</time>
      </trkpt>
      <trkpt lat="49.14931" lon="-0.40207">
        <ele>31.6</ele>
        <time>2024-02-04T09:15:35Z</time>
      </trkpt>
      <trkpt lat="49.14926" lon="-0.40211">
        <ele>31.5</ele>
        <time>2024-02-04T09:15:36Z</time>
      </trkpt>
      <trkpt lat="49.1492" lon="-0.40215">
        <ele>31.5</ele>
        <time>2024-02-04T09:15:37Z</time>
      </trkpt>
      <trkpt lat="49.14915" lon="-0.40219">
        <ele>31.5</ele>
        <time>2024-02-04T09:15:38Z</time>
      </trkpt>
      <trkpt lat="49.14908" lon="-0.40223">
        <ele>31.4</ele>
        <time>2024-02-04T09:15:39Z</time>
      </trkpt>
      <trkpt lat="49.14902" lon="-0.40227">
        <ele>31.4</ele>
        <time>2024-02-04T09:15:40Z</time>
      </trkpt>
      <trkpt lat="49.14896" lon="-0.40231">
        <ele>31.3</ele>
        <time>2024-02-04T09:15:41Z</time>
      </trkpt>
      <trkpt lat="49.1489" lon="-0.40235">
        <ele>31.2</ele>
        <time>2024-02-04T09:15:42Z</time>
      </trkpt>
      <trkpt lat="49.14884" lon="-0.40239">
        <ele>31.2</ele>
        <time>2024-02-04T09:15:43Z</time>
      </trkpt>
      <trkpt lat="49.14878" lon="-0.40242">
        <ele>31.1</ele>
        <time>2024-02-04T09:15:44Z</time>
      </trkpt>
      <trkpt lat="49.14873" lon="-0.40245">
        <ele>31.1</ele>
        <time>2024-02-04T09:15:45Z</time>
      </trkpt>
      <trkpt lat="49.14867" lon="-0.40249">
        <ele>31.1</ele>
        <time>2024-02-04T09:15:46Z</time>
      </trkpt>
      <trkpt lat="49.14862" lon="-0.40253">
        <ele>31</ele>
        <time>2024-02-04T09:15:47Z</time>
      </trkpt>
      <trkpt lat="49.14856" lon="-0.40257">
        <ele>31</ele>
        <time>2024-02-04T09:15:48Z</time>
      </trkpt>
      <trkpt lat="49.14851" lon="-0.40261">
        <ele>31</ele>
        <time>2024-02-04T09:15:49Z</time>
      </trkpt>
      <trkpt lat="49.14845" lon="-0.40265">
        <ele>31</ele>
        <time>2024-02-04T09:15:50Z</time>
      </trkpt>
      <trkpt lat="49.1484" lon="-0.40268">
        <ele>31</ele>
        <time>2024-02-04T09:15:51Z</time>
      </trkpt>
      <trkpt lat="49.14834" lon="-0.40272">
        <ele>31</ele>
        <time>2024-02-04T09:15:52Z</time>
      </trkpt>
      <trkpt lat="49.14827" lon="-0.40276">
        <ele>31</ele>
        <time>2024-02-04T09:15:53Z</time>
      </trkpt>
      <trkpt lat="49.14821" lon="-0.4028">
        <ele>31</ele>
        <time>2024-02-04T09:15:54Z</time>
      </trkpt>
      <trkpt lat="49.14815" lon="-0.40283">
        <ele>31</ele>
        <time>2024-02-04T09:15:55Z</time>
      </trkpt>
      <trkpt lat="49.14809" lon="-0.40287">
        <ele>31</ele>
        <time>2024-02-04T09:15:56Z</time>
      </trkpt>
      <trkpt lat="49.14803" lon="-0.40291">
        <ele>31</ele>
        <time>2024-02-04T09:15:57Z</time>
      </trkpt>
      <trkpt lat="49.14796" lon="-0.40295">
        <ele>31</ele>
        <time>2024-02-04T09:15:58Z</time>
      </trkpt>
      <trkpt lat="49.14789" lon="-0.40299">
        <ele>31</ele>
        <time>2024-02-04T09:15:59Z</time>
      </trkpt>
      <trkpt lat="49.14782" lon="-0.40304">
        <ele>31.1</ele>
        <time>2024-02-04T09:16:00Z</time>
      </trkpt>
      <trkpt lat="49.14775" lon="-0.40308">
        <ele>31.1</ele>
        <time>2024-02-04T09:16:01Z</time>
      </trkpt>
      <trkpt lat="49.14768" lon="-0.40312">
        <ele>31.1</ele>
        <time>2024-02-04T09:16:02Z</time>
      </trkpt>
      <trkpt lat="49.14761" lon="-0.40317">
        <ele>31.2</ele>
        <time>2024-02-04T09:16:03Z</time>
      </trkpt>
      <trkpt lat="49.14754" lon="-0.40322">
        <ele>31.2</ele>
        <time>2024-02-04T09:16:04Z</time>
      </trkpt>
      <trkpt lat="49.14747" lon="-0.40327">
        <ele>31.3</ele>
        <time>2024-02-04T09:16:05Z</time>
      </trkpt>
      <trkpt lat="49.1474" lon="-0.40331">
        <ele>31.4</ele>
        <time>2024-02-04T09:16:06Z</time>
      </trkpt>
      <trkpt lat="49.14733" lon="-0.40335">
        <ele>31.4</ele>
        <time>2024-02-04T09:16:07Z</time>
      </trkpt>
      <trkpt lat="49.14726" lon="-0.4034">
        <ele>31.4</ele>
        <time>2024-02-04T09:16:08Z</time>
      </trkpt>
      <trkpt lat="49.14719" lon="-0.40344">
        <ele>31.5</ele>
        <time>2024-02-04T09:16:09Z</time>
      </trkpt>
      <trkpt lat="49.14712" lon="-0.40348">
        <ele>31.5</ele>
        <time>2024-02-04T09:16:10Z</time>
      </trkpt>
      <trkpt lat="49.14705" lon="-0.40352">
        <ele>31.6</ele>
        <time>2024-02-04T09:16:11Z</time>
      </trkpt>
      <trkpt lat="49.14698" lon="-0.40357">
        <ele>31.6</ele>
        <time>2024-02-04T09:16:12Z</time>
      </trkpt>
      <trkpt lat="49.14691" lon="-0.40361">
        <ele>31.6</ele>
        <time>2024-02-04T09:16:13Z</time>
      </trkpt>
      <trkpt lat="49.14684" lon="-0.40365">
        <ele>31.7</ele>
        <time>2024-02-04T09:16:14Z</time>
      </trkpt>
      <trkpt lat="49.14678" lon="-0.40368">
        <ele>31.7</ele>
        <time>2024-02-04T09:16:15Z</time>
      </trkpt>
      <trkpt lat="49.14671" lon="-0.40372">
        <ele>31.7</ele>
        <time>2024-02-04T09:16:16Z</time>
      </trkpt>
      <trkpt lat="49.14665" lon="-0.40376">
        <ele>31.7</ele>
        <time>2024-02-04T09:16:17Z</time>
      </trkpt>
      <trkpt lat="49.14659" lon="-0.4038">
        <ele>31.7</ele>
        <time>2024-02-04T09:16:18Z</time>
      </trkpt>
      <trkpt lat="49.14652" lon="-0.40383">
        <ele>31.6</ele>
        <time>2024-02-04T09:16:19Z</time>
      </trkpt>
      <trkpt lat="49.14646" lon="-0.40387">
        <ele>31.6</ele>
        <time>2024-02-04T09:16:20Z</time>
      </trkpt>
      <trkpt lat="49.14639" lon="-0.40391">
        <ele>31.6</ele>
        <time>2024-02-04T09:16:21Z</time>
      </trkpt>
      <trkpt lat="49.14633" lon="-0.40395">
        <ele>31.5</ele>
        <time>2024-02-04T09:16:22Z</time>
      </trkpt>
      <trkpt lat="49.14627" lon="-0.40399">
        <ele>31.5</ele>
        <time>2024-02-04T09:16:23Z</time>
      </trkpt>
      <trkpt lat="49.1462" lon="-0.40403">
        <ele>31.5</ele>
        <time>2024-02-04T09:16:24Z</time>
      </trkpt>
      <trkpt lat="49.14614" lon="-0.40407">
        <ele>31.5</ele>
        <time>2024-02-04T09:16:25Z</time>
      </trkpt>
      <trkpt lat="49.14608" lon="-0.40411">
        <ele>31.4</ele>
        <time>2024-02-04T09:16:26Z</time>
      </trkpt>
      <trkpt lat="49.14603" lon="-0.40414">
        <ele>31.4</ele>
        <time>2024-02-04T09:16:27Z</time>
      </trkpt>
      <trkpt lat="49.14597" lon="-0.40417">
        <ele>31.4</ele>
        <time>2024-02-04T09:16:28Z</time>
      </trkpt>
      <trkpt lat="49.14591" lon="-0.40421">
        <ele>31.4</ele>
        <time>2024-02-04T09:16:29Z</time>
      </trkpt>
      <trkpt lat="49.14584" lon="-0.40425">
        <ele>31.4</ele>
        <time>2024-02-04T09:16:30Z</time>
      </trkpt>
      <trkpt lat="49.14578" lon="-0.40429">
        <ele>31.5</ele>
        <time>2024-02-04T09:16:31Z</time>
      </trkpt>
      <trkpt lat="49.14572" lon="-0.40433">
        <ele>31.5</ele>
        <time>2024-02-04T09:16:32Z</time>
      </trkpt>
      <trkpt lat="49.14565" lon="-0.40437">
        <ele>31.5</ele>
        <time>2024-02-04T09:16:33Z</time>
      </trkpt>
      <trkpt lat="49.14559" lon="-0.40441">
        <ele>31.5</ele>
        <time>2024-02-04T09:16:34Z</time>
      </trkpt>
      <trkpt lat="49.14553" lon="-0.40445">
        <ele>31.5</ele>
        <time>2024-02-04T09:16:35Z</time>
      </trkpt>
      <trkpt lat="49.14547" lon="-0.40449">
        <ele>31.5</ele>
        <time>2024-02-04T09:16:36Z</time>
      </trkpt>
      <trkpt lat="49.1454" lon="-0.40453">
        <ele>31.5</ele>
        <time>2024-02-04T09:16:37Z</time>
      </trkpt>
      <trkpt lat="49.14534" lon="-0.40457">
        <ele>31.5</ele>
        <time>2024-02-04T09:16:38Z</time>
      </trkpt>
      <trkpt lat="49.14528" lon="-0.4046">
        <ele>31.5</ele>
        <time>2024-02-04T09:16:39Z</time>
      </trkpt>
      <trkpt lat="49.14521" lon="-0.40464">
        <ele>31.5</ele>
        <time>2024-02-04T09:16:40Z</time>
      </trkpt>
      <trkpt lat="49.14515" lon="-0.40468">
        <ele>31.6</ele>
        <time>2024-02-04T09:16:41Z</time>
      </trkpt>
      <trkpt lat="49.14508" lon="-0.40472">
        <ele>31.7</ele>
        <time>2024-02-04T09:16:42Z</time>
      </trkpt>
      <trkpt lat="49.14502" lon="-0.40476">
        <ele>31.7</ele>
        <time>2024-02-04T09:16:43Z</time>
      </trkpt>
      <trkpt lat="49.14496" lon="-0.40481">
        <ele>31.8</ele>
        <time>2024-02-04T09:16:44Z</time>
      </trkpt>
      <trkpt lat="49.1449" lon="-0.40485">
        <ele>31.9</ele>
        <time>2024-02-04T09:16:45Z</time>
      </trkpt>
      <trkpt lat="49.14483" lon="-0.40489">
        <ele>31.9</ele>
        <time>2024-02-04T09:16:46Z</time>
      </trkpt>
      <trkpt lat="49.14477" lon="-0.40493">
        <ele>32</ele>
        <time>2024-02-04T09:16:47Z</time>
      </trkpt>
      <trkpt lat="49.14471" lon="-0.40496">
        <ele>32</ele>
        <time>2024-02-04T09:16:48Z</time>
      </trkpt>
      <trkpt lat="49.14464" lon="-0.405">
        <ele>32</ele>
        <time>2024-02-04T09:16:49Z</time>
      </trkpt>
      <trkpt lat="49.14458" lon="-0.40504">
        <ele>32</ele>
        <time>2024-02-04T09:16:50Z</time>
      </trkpt>
      <trkpt lat="49.14452" lon="-0.40508">
        <ele>32</ele>
        <time>2024-02-04T09:16:51Z</time>
      </trkpt>
      <trkpt lat="49.14446" lon="-0.40512">
        <ele>32.1</ele>
        <time>2024-02-04T09:16:52Z</time>
      </trkpt>
      <trkpt lat="49.14439" lon="-0.40516">
        <ele>32.1</ele>
        <time>2024-02-04T09:16:53Z</time>
      </trkpt>
      <trkpt lat="49.14433" lon="-0.4052">
        <ele>32.1</ele>
        <time>2024-02-04T09:16:54Z</time>
      </trkpt>
      <trkpt lat="49.14427" lon="-0.40524">
        <ele>32.1</ele>
        <time>2024-02-04T09:16:55Z</time>
      </trkpt>
      <trkpt lat="49.14421" lon="-0.40528">
        <ele>32.2</ele>
        <time>2024-02-04T09:16:56Z</time>
      </trkpt>
      <trkpt lat="49.14414" lon="-0.40532">
        <ele>32.2</ele>
        <time>2024-02-04T09:16:57Z</time>
      </trkpt>
      <trkpt lat="49.14408" lon="-0.40536">
        <ele>32.2</ele>
        <time>2024-02-04T09:16:58Z</time>
      </trkpt>
      <trkpt lat="49.14402" lon="-0.40541">
        <ele>32.2</ele>
        <time>2024-02-04T09:16:59Z</time>
      </trkpt>
      <trkpt lat="49.14395" lon="-0.40545">
        <ele>32.1</ele>
        <time>2024-02-04T09:17:00Z</time>
      </trkpt>
      <trkpt lat="49.14388" lon="-0.40549">
        <ele>32.1</ele>
        <time>2024-02-04T09:17:01Z</time>
      </trkpt>
      <trkpt lat="49.14382" lon="-0.40553">
        <ele>32</ele>
        <time>2024-02-04T09:17:02Z</time>
      </trkpt>
      <trkpt lat="49.14375" lon="-0.40556">
        <ele>31.9</ele>
        <time>2024-02-04T09:17:03Z</time>
      </trkpt>
      <trkpt lat="49.14369" lon="-0.4056">
        <ele>31.8</ele>
        <time>2024-02-04T09:17:04Z</time>
      </trkpt>
      <trkpt lat="49.14362" lon="-0.40563">
        <ele>31.7</ele>
        <time>2024-02-04T09:17:05Z</time>
      </trkpt>
      <trkpt lat="49.14355" lon="-0.40567">
        <ele>31.5</ele>
        <time>2024-02-04T09:17:06Z</time>
      </trkpt>
      <trkpt lat="49.14348" lon="-0.4057">
        <ele>31.3</ele>
        <time>2024-02-04T09:17:07Z</time>
      </trkpt>
      <trkpt lat="49.14341" lon="-0.40572">
        <ele>31.1</ele>
        <time>2024-02-04T09:17:08Z</time>
      </trkpt>
      <trkpt lat="49.14333" lon="-0.40575">
        <ele>30.9</ele>
        <time>2024-02-04T09:17:09Z</time>
      </trkpt>
      <trkpt lat="49.14326" lon="-0.40577">
        <ele>30.7</ele>
        <time>2024-02-04T09:17:10Z</time>
      </trkpt>
      <trkpt lat="49.14319" lon="-0.40579">
        <ele>30.5</ele>
        <time>2024-02-04T09:17:11Z</time>
      </trkpt>
      <trkpt lat="49.14311" lon="-0.40581">
        <ele>30.3</ele>
        <time>2024-02-04T09:17:12Z</time>
      </trkpt>
      <trkpt lat="49.14304" lon="-0.40582">
        <ele>30.1</ele>
        <time>2024-02-04T09:17:13Z</time>
      </trkpt>
      <trkpt lat="49.14296" lon="-0.40583">
        <ele>29.9</ele>
        <time>2024-02-04T09:17:14Z</time>
      </trkpt>
      <trkpt lat="49.14289" lon="-0.40584">
        <ele>29.8</ele>
        <time>2024-02-04T09:17:15Z</time>
      </trkpt>
      <trkpt lat="49.14281" lon="-0.40585">
        <ele>29.7</ele>
        <time>2024-02-04T09:17:16Z</time>
      </trkpt>
      <trkpt lat="49.14274" lon="-0.40585">
        <ele>29.7</ele>
        <time>2024-02-04T09:17:17Z</time>
      </trkpt>
      <trkpt lat="49.14266" lon="-0.40585">
        <ele>29.6</ele>
        <time>2024-02-04T09:17:18Z</time>
      </trkpt>
      <trkpt lat="49.14258" lon="-0.40585">
        <ele>29.5</ele>
        <time>2024-02-04T09:17:19Z</time>
      </trkpt>
      <trkpt lat="49.14251" lon="-0.40585">
        <ele>29.4</ele>
        <time>2024-02-04T09:17:20Z</time>
      </trkpt>
      <trkpt lat="49.14243" lon="-0.40585">
        <ele>29.4</ele>
        <time>2024-02-04T09:17:21Z</time>
      </trkpt>
      <trkpt lat="49.14236" lon="-0.40585">
        <ele>29.3</ele>
        <time>2024-02-04T09:17:22Z</time>
      </trkpt>
      <trkpt lat="49.14228" lon="-0.40586">
        <ele>29.3</ele>
        <time>2024-02-04T09:17:23Z</time>
      </trkpt>
      <trkpt lat="49.1422" lon="-0.40586">
        <ele>29.3</ele>
        <time>2024-02-04T09:17:24Z</time>
      </trkpt>
      <trkpt lat="49.14213" lon="-0.40587">
        <ele>29.3</ele>
        <time>2024-02-04T09:17:25Z</time>
      </trkpt>
      <trkpt lat="49.14205" lon="-0.40589">
        <ele>29.3</ele>
        <time>2024-02-04T09:17:26Z</time>
      </trkpt>
      <trkpt lat="49.14198" lon="-0.4059">
        <ele>29.4</ele>
        <time>2024-02-04T09:17:27Z</time>
      </trkpt>
      <trkpt lat="49.14191" lon="-0.40592">
        <ele>29.4</ele>
        <time>2024-02-04T09:17:28Z</time>
      </trkpt>
      <trkpt lat="49.14184" lon="-0.40593">
        <ele>29.5</ele>
        <time>2024-02-04T09:17:29Z</time>
      </trkpt>
      <trkpt lat="49.14177" lon="-0.40594">
        <ele>29.7</ele>
        <time>2024-02-04T09:17:30Z</time>
      </trkpt>
      <trkpt lat="49.1417" lon="-0.40596">
        <ele>29.8</ele>
        <time>2024-02-04T09:17:31Z</time>
      </trkpt>
      <trkpt lat="49.14163" lon="-0.40597">
        <ele>29.9</ele>
        <time>2024-02-04T09:17:32Z</time>
      </trkpt>
      <trkpt lat="49.14157" lon="-0.406">
        <ele>30.1</ele>
        <time>2024-02-04T09:17:33Z</time>
      </trkpt>
      <trkpt lat="49.1415" lon="-0.40602">
        <ele>30.2</ele>
        <time>2024-02-04T09:17:34Z</time>
      </trkpt>
      <trkpt lat="49.14143" lon="-0.40605">
        <ele>30.4</ele>
        <time>2024-02-04T09:17:35Z</time>
      </trkpt>
      <trkpt lat="49.14136" lon="-0.40607">
        <ele>30.5</ele>
        <time>2024-02-04T09:17:36Z</time>
      </trkpt>
      <trkpt lat="49.1413" lon="-0.40609">
        <ele>30.7</ele>
        <time>2024-02-04T09:17:37Z</time>
      </trkpt>
      <trkpt lat="49.14123" lon="-0.40611">
        <ele>30.8</ele>
        <time>2024-02-04T09:17:38Z</time>
      </trkpt>
      <trkpt lat="49.14117" lon="-0.40613">
        <ele>31</ele>
        <time>2024-02-04T09:17:39Z</time>
      </trkpt>
      <trkpt lat="49.14111" lon="-0.40615">
        <ele>31.1</ele>
        <time>2024-02-04T09:17:40Z</time>
      </trkpt>
      <trkpt lat="49.14104" lon="-0.40617">
        <ele>31.2</ele>
        <time>2024-02-04T09:17:41Z</time>
      </trkpt>
      <trkpt lat="49.14098" lon="-0.4062">
        <ele>31.3</ele>
        <time>2024-02-04T09:17:42Z</time>
      </trkpt>
      <trkpt lat="49.14091" lon="-0.40622">
        <ele>31.4</ele>
        <time>2024-02-04T09:17:43Z</time>
      </trkpt>
      <trkpt lat="49.14085" lon="-0.40624">
        <ele>31.5</ele>
        <time>2024-02-04T09:17:44Z</time>
      </trkpt>
      <trkpt lat="49.14079" lon="-0.40626">
        <ele>31.6</ele>
        <time>2024-02-04T09:17:45Z</time>
      </trkpt>
      <trkpt lat="49.14072" lon="-0.40629">
        <ele>31.7</ele>
        <time>2024-02-04T09:17:46Z</time>
      </trkpt>
      <trkpt lat="49.14066" lon="-0.40631">
        <ele>31.8</ele>
        <time>2024-02-04T09:17:47Z</time>
      </trkpt>
      <trkpt lat="49.14059" lon="-0.40633">
        <ele>31.8</ele>
        <time>2024-02-04T09:17:48Z</time>
      </trkpt>
      <trkpt lat="49.14053" lon="-0.40635">
        <ele>31.9</ele>
        <time>2024-02-04T09:17:49Z</time>
      </trkpt>
      <trkpt lat="49.14047" lon="-0.40638">
        <ele>31.9</ele>
        <time>2024-02-04T09:17:50Z</time>
      </trkpt>
      <trkpt lat="49.1404" lon="-0.4064">
        <ele>32</ele>
        <time>2024-02-04T09:17:51Z</time>
      </trkpt>
      <trkpt lat="49.14034" lon="-0.40643">
        <ele>32.1</ele>
        <time>2024-02-04T09:17:52Z</time>
      </trkpt>
      <trkpt lat="49.14028" lon="-0.40646">
        <ele>32.2</ele>
        <time>2024-02-04T09:17:53Z</time>
      </trkpt>
      <trkpt lat="49.14022" lon="-0.40648">
        <ele>32.3</ele>
        <time>2024-02-04T09:17:54Z</time>
      </trkpt>
      <trkpt lat="49.14015" lon="-0.4065">
        <ele>32.4</ele>
        <time>2024-02-04T09:17:55Z</time>
      </trkpt>
      <trkpt lat="49.14009" lon="-0.40652">
        <ele>32.6</ele>
        <time>2024-02-04T09:17:56Z</time>
      </trkpt>
      <trkpt lat="49.14002" lon="-0.40655">
        <ele>32.7</ele>
        <time>2024-02-04T09:17:57Z</time>
      </trkpt>
      <trkpt lat="49.13996" lon="-0.40658">
        <ele>32.7</ele>
        <time>2024-02-04T09:17:58Z</time>
      </trkpt>
      <trkpt lat="49.13989" lon="-0.40662">
        <ele>32.8</ele>
        <time>2024-02-04T09:17:59Z</time>
      </trkpt>
      <trkpt lat="49.13983" lon="-0.40666">
        <ele>32.8</ele>
        <time>2024-02-04T09:18:00Z</time>
      </trkpt>
      <trkpt lat="49.13977" lon="-0.4067">
        <ele>32.9</ele>
        <time>2024-02-04T09:18:01Z</time>
      </trkpt>
      <trkpt lat="49.13972" lon="-0.40675">
        <ele>32.9</ele>
        <time>2024-02-04T09:18:02Z</time>
      </trkpt>
      <trkpt lat="49.13966" lon="-0.40679">
        <ele>32.9</ele>
        <time>2024-02-04T09:18:03Z</time>
      </trkpt>
      <trkpt lat="49.1396" lon="-0.40685">
        <ele>33</ele>
        <time>2024-02-04T09:18:04Z</time>
      </trkpt>
      <trkpt lat="49.13954" lon="-0.4069">
        <ele>33</ele>
        <time>2024-02-04T09:18:05Z</time>
      </trkpt>
      <trkpt lat="49.13948" lon="-0.40696">
        <ele>33</ele>
        <time>2024-02-04T09:18:06Z</time>
      </trkpt>
      <trkpt lat="49.13943" lon="-0.40702">
        <ele>33</ele>
        <time>2024-02-04T09:18:07Z</time>
      </trkpt>
      <trkpt lat="49.13937" lon="-0.40709">
        <ele>33</ele>
        <time>2024-02-04T09:18:08Z</time>
      </trkpt>
      <trkpt lat="49.13932" lon="-0.40715">
        <ele>33</ele>
        <time>2024-02-04T09:18:09Z</time>
      </trkpt>
      <trkpt lat="49.13927" lon="-0.40721">
        <ele>33</ele>
        <time>2024-02-04T09:18:10Z</time>
      </trkpt>
      <trkpt lat="49.13921" lon="-0.40726">
        <ele>33</ele>
        <time>2024-02-04T09:18:11Z</time>
      </trkpt>
      <trkpt lat="49.13916" lon="-0.40732">
        <ele>33.1</ele>
        <time>2024-02-04T09:18:12Z</time>
      </trkpt>
      <trkpt lat="49.1391" lon="-0.40738">
        <ele>33.1</ele>
        <time>2024-02-04T09:18:13Z</time>
      </trkpt>
      <trkpt lat="49.13905" lon="-0.40744">
        <ele>33.1</ele>
        <time>2024-02-04T09:18:14Z</time>
      </trkpt>
      <trkpt lat="49.13899" lon="-0.4075">
        <ele>33.2</ele>
        <time>2024-02-04T09:18:15Z</time>
      </trkpt>
      <trkpt lat="49.13894" lon="-0.40756">
        <ele>33.3</ele>
        <time>2024-02-04T09:18:16Z</time>
      </trkpt>
      <trkpt lat="49.13888" lon="-0.40762">
        <ele>33.4</ele>
        <time>2024-02-04T09:18:17Z</time>
      </trkpt>
      <trkpt lat="49.13883" lon="-0.40767">
        <ele>33.5</ele>
        <time>2024-02-04T09:18:18Z</time>
      </trkpt>
      <trkpt lat="49.13878" lon="-0.40773">
        <ele>33.6</ele>
        <time>2024-02-04T09:18:19Z</time>
      </trkpt>
      <trkpt lat="49.13873" lon="-0.40779">
        <ele>33.6</ele>
        <time>2024-02-04T09:18:20Z</time>
      </trkpt>
      <trkpt lat="49.13868" lon="-0.40784">
        <ele>33.7</ele>
        <time>2024-02-04T09:18:21Z</time>
      </trkpt>
      <trkpt lat="49.13863" lon="-0.4079">
        <ele>33.8</ele>
        <time>2024-02-04T09:18:22Z</time>
      </trkpt>
      <trkpt lat="49.13857" lon="-0.40795">
        <ele>33.9</ele>
        <time>2024-02-04T09:18:23Z</time>
      </trkpt>
      <trkpt lat="49.13852" lon="-0.40801">
        <ele>34</ele>
        <time>2024-02-04T09:18:24Z</time>
      </trkpt>
      <trkpt lat="49.13847" lon="-0.40806">
        <ele>34.1</ele>
        <time>2024-02-04T09:18:25Z</time>
      </trkpt>
      <trkpt lat="49.13842" lon="-0.40812">
        <ele>34.2</ele>
        <time>2024-02-04T09:18:26Z</time>
      </trkpt>
      <trkpt lat="49.13837" lon="-0.40817">
        <ele>34.3</ele>
        <time>2024-02-04T09:18:27Z</time>
      </trkpt>
      <trkpt lat="49.13833" lon="-0.40823">
        <ele>34.4</ele>
        <time>2024-02-04T09:18:28Z</time>
      </trkpt>
      <trkpt lat="49.13828" lon="-0.40829">
        <ele>34.5</ele>
        <time>2024-02-04T09:18:29Z</time>
      </trkpt>
      <trkpt lat="49.13822" lon="-0.40834">
        <ele>34.6</ele>
        <time>2024-02-04T09:18:30Z</time>
      </trkpt>
      <trkpt lat="49.13818" lon="-0.40839">
        <ele>34.8</ele>
        <time>2024-02-04T09:18:31Z</time>
      </trkpt>
      <trkpt lat="49.13813" lon="-0.40845">
        <ele>34.9</ele>
        <time>2024-02-04T09:18:32Z</time>
      </trkpt>
      <trkpt lat="49.13808" lon="-0.4085">
        <ele>35</ele>
        <time>2024-02-04T09:18:33Z</time>
      </trkpt>
      <trkpt lat="49.13803" lon="-0.40856">
        <ele>35.1</ele>
        <time>2024-02-04T09:18:34Z</time>
      </trkpt>
      <trkpt lat="49.13798" lon="-0.40861">
        <ele>35.3</ele>
        <time>2024-02-04T09:18:35Z</time>
      </trkpt>
      <trkpt lat="49.13793" lon="-0.40867">
        <ele>35.4</ele>
        <time>2024-02-04T09:18:36Z</time>
      </trkpt>
      <trkpt lat="49.13789" lon="-0.40872">
        <ele>35.5</ele>
        <time>2024-02-04T09:18:37Z</time>
      </trkpt>
      <trkpt lat="49.13784" lon="-0.40876">
        <ele>35.7</ele>
        <time>2024-02-04T09:18:38Z</time>
      </trkpt>
      <trkpt lat="49.13779" lon="-0.40882">
        <ele>35.9</ele>
        <time>2024-02-04T09:18:39Z</time>
      </trkpt>
      <trkpt lat="49.13774" lon="-0.40887">
        <ele>36</ele>
        <time>2024-02-04T09:18:40Z</time>
      </trkpt>
      <trkpt lat="49.13769" lon="-0.40892">
        <ele>36.2</ele>
        <time>2024-02-04T09:18:41Z</time>
      </trkpt>
      <trkpt lat="49.13765" lon="-0.40898">
        <ele>36.3</ele>
        <time>2024-02-04T09:18:42Z</time>
      </trkpt>
      <trkpt lat="49.1376" lon="-0.40903">
        <ele>36.4</ele>
        <time>2024-02-04T09:18:43Z</time>
      </trkpt>
      <trkpt lat="49.13755" lon="-0.40909">
        <ele>36.5</ele>
        <time>2024-02-04T09:18:44Z</time>
      </trkpt>
      <trkpt lat="49.1375" lon="-0.40914">
        <ele>36.6</ele>
        <time>2024-02-04T09:18:45Z</time>
      </trkpt>
      <trkpt lat="49.13746" lon="-0.40919">
        <ele>36.6</ele>
        <time>2024-02-04T09:18:46Z</time>
      </trkpt>
      <trkpt lat="49.13741" lon="-0.40924">
        <ele>36.7</ele>
        <time>2024-02-04T09:18:47Z</time>
      </trkpt>
      <trkpt lat="49.13737" lon="-0.40929">
        <ele>36.8</ele>
        <time>2024-02-04T09:18:48Z</time>
      </trkpt>
      <trkpt lat="49.13732" lon="-0.40934">
        <ele>36.8</ele>
        <time>2024-02-04T09:18:49Z</time>
      </trkpt>
      <trkpt lat="49.13727" lon="-0.40939">
        <ele>36.9</ele>
        <time>2024-02-04T09:18:50Z</time>
      </trkpt>
      <trkpt lat="49.13722" lon="-0.40944">
        <ele>36.9</ele>
        <time>2024-02-04T09:18:51Z</time>
      </trkpt>
      <trkpt lat="49.13717" lon="-0.4095">
        <ele>36.9</ele>
        <time>2024-02-04T09:18:52Z</time>
      </trkpt>
      <trkpt lat="49.13712" lon="-0.40955">
        <ele>37</ele>
        <time>2024-02-04T09:18:53Z</time>
      </trkpt>
      <trkpt lat="49.13707" lon="-0.4096">
        <ele>37</ele>
        <time>2024-02-04T09:18:54Z</time>
      </trkpt>
      <trkpt lat="49.13703" lon="-0.40966">
        <ele>37</ele>
        <time>2024-02-04T09:18:55Z</time>
      </trkpt>
      <trkpt lat="49.13698" lon="-0.40971">
        <ele>37</ele>
        <time>2024-02-04T09:18:56Z</time>
      </trkpt>
      <trkpt lat="49.13692" lon="-0.40977">
        <ele>37</ele>
        <time>2024-02-04T09:18:57Z</time>
      </trkpt>
      <trkpt lat="49.13687" lon="-0.40982">
        <ele>37</ele>
        <time>2024-02-04T09:18:58Z</time>
      </trkpt>
      <trkpt lat="49.13682" lon="-0.40988">
        <ele>37</ele>
        <time>2024-02-04T09:18:59Z</time>
      </trkpt>
      <trkpt lat="49.13677" lon="-0.40994">
        <ele>37.1</ele>
        <time>2024-02-04T09:19:00Z</time>
      </trkpt>
      <trkpt lat="49.13672" lon="-0.41">
        <ele>37.1</ele>
        <time>2024-02-04T09:19:01Z</time>
      </trkpt>
      <trkpt lat="49.13667" lon="-0.41005">
        <ele>37.1</ele>
        <time>2024-02-04T09:19:02Z</time>
      </trkpt>
      <trkpt lat="49.13662" lon="-0.4101">
        <ele>37.1</ele>
        <time>2024-02-04T09:19:03Z</time>
      </trkpt>
      <trkpt lat="49.13657" lon="-0.41016">
        <ele>37.2</ele>
        <time>2024-02-04T09:19:04Z</time>
      </trkpt>
      <trkpt lat="49.13652" lon="-0.41022">
        <ele>37.2</ele>
        <time>2024-02-04T09:19:05Z</time>
      </trkpt>
      <trkpt lat="49.13647" lon="-0.41027">
        <ele>37.2</ele>
        <time>2024-02-04T09:19:06Z</time>
      </trkpt>
      <trkpt lat="49.13642" lon="-0.41033">
        <ele>37.2</ele>
        <time>2024-02-04T09:19:07Z</time>
      </trkpt>
      <trkpt lat="49.13636" lon="-0.41038">
        <ele>37.2</ele>
        <time>2024-02-04T09:19:08Z</time>
      </trkpt>
      <trkpt lat="49.13632" lon="-0.41044">
        <ele>37.2</ele>
        <time>2024-02-04T09:19:09Z</time>
      </trkpt>
      <trkpt lat="49.13627" lon="-0.4105">
        <ele>37.2</ele>
        <time>2024-02-04T09:19:10Z</time>
      </trkpt>
      <trkpt lat="49.13622" lon="-0.41055">
        <ele>37.3</ele>
        <time>2024-02-04T09:19:11Z</time>
      </trkpt>
      <trkpt lat="49.13617" lon="-0.4106">
        <ele>37.3</ele>
        <time>2024-02-04T09:19:12Z</time>
      </trkpt>
      <trkpt lat="49.13611" lon="-0.41066">
        <ele>37.3</ele>
        <time>2024-02-04T09:19:13Z</time>
      </trkpt>
      <trkpt lat="49.13606" lon="-0.41071">
        <ele>37.4</ele>
        <time>2024-02-04T09:19:14Z</time>
      </trkpt>
      <trkpt lat="49.13601" lon="-0.41077">
        <ele>37.4</ele>
        <time>2024-02-04T09:19:15Z</time>
      </trkpt>
      <trkpt lat="49.13596" lon="-0.41082">
        <ele>37.5</ele>
        <time>2024-02-04T09:19:16Z</time>
      </trkpt>
      <trkpt lat="49.13592" lon="-0.41087">
        <ele>37.6</ele>
        <time>2024-02-04T09:19:17Z</time>
      </trkpt>
      <trkpt lat="49.13587" lon="-0.41092">
        <ele>37.6</ele>
        <time>2024-02-04T09:19:18Z</time>
      </trkpt>
      <trkpt lat="49.13582" lon="-0.41098">
        <ele>37.7</ele>
        <time>2024-02-04T09:19:19Z</time>
      </trkpt>
      <trkpt lat="49.13577" lon="-0.41103">
        <ele>37.8</ele>
        <time>2024-02-04T09:19:20Z</time>
      </trkpt>
      <trkpt lat="49.13572" lon="-0.41108">
        <ele>37.8</ele>
        <time>2024-02-04T09:19:21Z</time>
      </trkpt>
      <trkpt lat="49.13567" lon="-0.41114">
        <ele>37.9</ele>
        <time>2024-02-04T09:19:22Z</time>
      </trkpt>
      <trkpt lat="49.13562" lon="-0.4112">
        <ele>38</ele>
        <time>2024-02-04T09:19:23Z</time>
      </trkpt>
      <trkpt lat="49.13557" lon="-0.41125">
        <ele>38.1</ele>
        <time>2024-02-04T09:19:24Z</time>
      </trkpt>
      <trkpt lat="49.13553" lon="-0.41131">
        <ele>38.2</ele>
        <time>2024-02-04T09:19:25Z</time>
      </trkpt>
      <trkpt lat="49.13548" lon="-0.41135">
        <ele>38.3</ele>
        <time>2024-02-04T09:19:26Z</time>
      </trkpt>
      <trkpt lat="49.13543" lon="-0.41141">
        <ele>38.4</ele>
        <time>2024-02-04T09:19:27Z</time>
      </trkpt>
      <trkpt lat="49.13538" lon="-0.41147">
        <ele>38.5</ele>
        <time>2024-02-04T09:19:28Z</time>
      </trkpt>
      <trkpt lat="49.13533" lon="-0.41152">
        <ele>38.6</ele>
        <time>2024-02-04T09:19:29Z</time>
      </trkpt>
      <trkpt lat="49.13528" lon="-0.41159">
        <ele>38.7</ele>
        <time>2024-02-04T09:19:30Z</time>
      </trkpt>
      <trkpt lat="49.13523" lon="-0.41164">
        <ele>38.8</ele>
        <time>2024-02-04T09:19:31Z</time>
      </trkpt>
      <trkpt lat="49.13518" lon="-0.41171">
        <ele>38.9</ele>
        <time>2024-02-04T09:19:32Z</time>
      </trkpt>
      <trkpt lat="49.13514" lon="-0.41177">
        <ele>39</ele>
        <time>2024-02-04T09:19:33Z</time>
      </trkpt>
      <trkpt lat="49.13509" lon="-0.41183">
        <ele>39.1</ele>
        <time>2024-02-04T09:19:34Z</time>
      </trkpt>
      <trkpt lat="49.13505" lon="-0.41189">
        <ele>39.1</ele>
        <time>2024-02-04T09:19:35Z</time>
      </trkpt>
      <trkpt lat="49.135" lon="-0.41195">
        <ele>39.2</ele>
        <time>2024-02-04T09:19:36Z</time>
      </trkpt>
      <trkpt lat="49.13496" lon="-0.41201">
        <ele>39.3</ele>
        <time>2024-02-04T09:19:37Z</time>
      </trkpt>
      <trkpt lat="49.13492" lon="-0.41207">
        <ele>39.4</ele>
        <time>2024-02-04T09:19:38Z</time>
      </trkpt>
      <trkpt lat="49.13488" lon="-0.41213">
        <ele>39.4</ele>
        <time>2024-02-04T09:19:39Z</time>
      </trkpt>
      <trkpt lat="49.13484" lon="-0.41219">
        <ele>39.5</ele>
        <time>2024-02-04T09:19:40Z</time>
      </trkpt>
      <trkpt lat="49.1348" lon="-0.41224">
        <ele>39.6</ele>
        <time>2024-02-04T09:19:41Z</time>
      </trkpt>
      <trkpt lat="49.13476" lon="-0.4123">
        <ele>39.6</ele>
        <time>2024-02-04T09:19:42Z</time>
      </trkpt>
      <trkpt lat="49.13472" lon="-0.41236">
        <ele>39.7</ele>
        <time>2024-02-04T09:19:43Z</time>
      </trkpt>
      <trkpt lat="49.13468" lon="-0.41242">
        <ele>39.8</ele>
        <time>2024-02-04T09:19:44Z</time>
      </trkpt>
      <trkpt lat="49.13464" lon="-0.41247">
        <ele>39.9</ele>
        <time>2024-02-04T09:19:45Z</time>
      </trkpt>
      <trkpt lat="49.13461" lon="-0.41253">
        <ele>40</ele>
        <time>2024-02-04T09:19:46Z</time>
      </trkpt>
      <trkpt lat="49.13457" lon="-0.41258">
        <ele>40.1</ele>
        <time>2024-02-04T09:19:47Z</time>
      </trkpt>
      <trkpt lat="49.13454" lon="-0.41264">
        <ele>40.2</ele>
        <time>2024-02-04T09:19:48Z</time>
      </trkpt>
      <trkpt lat="49.13451" lon="-0.4127">
        <ele>40.3</ele>
        <time>2024-02-04T09:19:49Z</time>
      </trkpt>
      <trkpt lat="49.13448" lon="-0.41276">
        <ele>40.4</ele>
        <time>2024-02-04T09:19:50Z</time>
      </trkpt>
      <trkpt lat="49.13446" lon="-0.41283">
        <ele>40.5</ele>
        <time>2024-02-04T09:19:51Z</time>
      </trkpt>
      <trkpt lat="49.13443" lon="-0.4129">
        <ele>40.5</ele>
        <time>2024-02-04T09:19:52Z</time>
      </trkpt>
      <trkpt lat="49.13441" lon="-0.41297">
        <ele>40.5</ele>
        <time>2024-02-04T09:19:53Z</time>
      </trkpt>
      <trkpt lat="49.13439" lon="-0.41303">
        <ele>40.5</ele>
        <time>2024-02-04T09:19:54Z</time>
      </trkpt>
      <trkpt lat="49.13435" lon="-0.41308">
        <ele>40.5</ele>
        <time>2024-02-04T09:19:55Z</time>
      </trkpt>
      <trkpt lat="49.13431" lon="-0.41311">
        <ele>40.5</ele>
        <time>2024-02-04T09:19:56Z</time>
      </trkpt>
      <trkpt lat="49.13427" lon="-0.41311">
        <ele>40.5</ele>
        <time>2024-02-04T09:19:57Z</time>
      </trkpt>
      <trkpt lat="49.13423" lon="-0.41308">
        <ele>40.5</ele>
        <time>2024-02-04T09:19:58Z</time>
      </trkpt>
      <trkpt lat="49.13419" lon="-0.41303">
        <ele>40.5</ele>
        <time>2024-02-04T09:19:59Z</time>
      </trkpt>
      <trkpt lat="49.13417" lon="-0.41295">
        <ele>40.2</ele>
        <time>2024-02-04T09:20:00Z</time>
      </trkpt>
      <trkpt lat="49.13415" lon="-0.41286">
        <ele>40</ele>
        <time>2024-02-04T09:20:01Z</time>
      </trkpt>
      <trkpt lat="49.13414" lon="-0.41277">
        <ele>39.7</ele>
        <time>2024-02-04T09:20:02Z</time>
      </trkpt>
      <trkpt lat="49.13411" lon="-0.41267">
        <ele>39.4</ele>
        <time>2024-02-04T09:20:03Z</time>
      </trkpt>
      <trkpt lat="49.13408" lon="-0.41258">
        <ele>39</ele>
        <time>2024-02-04T09:20:04Z</time>
      </trkpt>
      <trkpt lat="49.13404" lon="-0.41248">
        <ele>38.7</ele>
        <time>2024-02-04T09:20:05Z</time>
      </trkpt>
      <trkpt lat="49.13399" lon="-0.41238">
        <ele>38.3</ele>
        <time>2024-02-04T09:20:06Z</time>
      </trkpt>
      <trkpt lat="49.13394" lon="-0.41229">
        <ele>37.9</ele>
        <time>2024-02-04T09:20:07Z</time>
      </trkpt>
      <trkpt lat="49.13389" lon="-0.41219">
        <ele>37.5</ele>
        <time>2024-02-04T09:20:08Z</time>
      </trkpt>
      <trkpt lat="49.13382" lon="-0.4121">
        <ele>37.2</ele>
        <time>2024-02-04T09:20:09Z</time>
      </trkpt>
      <trkpt lat="49.13376" lon="-0.41201">
        <ele>36.8</ele>
        <time>2024-02-04T09:20:10Z</time>
      </trkpt>
      <trkpt lat="49.13369" lon="-0.41192">
        <ele>36.4</ele>
        <time>2024-02-04T09:20:11Z</time>
      </trkpt>
      <trkpt lat="49.13363" lon="-0.41183">
        <ele>36</ele>
        <time>2024-02-04T09:20:12Z</time>
      </trkpt>
      <trkpt lat="49.13356" lon="-0.41174">
        <ele>35.7</ele>
        <time>2024-02-04T09:20:13Z</time>
      </trkpt>
      <trkpt lat="49.13349" lon="-0.41164">
        <ele>35.3</ele>
        <time>2024-02-04T09:20:14Z</time>
      </trkpt>
      <trkpt lat="49.13342" lon="-0.41155">
        <ele>35</ele>
        <time>2024-02-04T09:20:15Z</time>
      </trkpt>
      <trkpt lat="49.13336" lon="-0.41145">
        <ele>34.7</ele>
        <time>2024-02-04T09:20:16Z</time>
      </trkpt>
      <trkpt lat="49.13329" lon="-0.41135">
        <ele>34.4</ele>
        <time>2024-02-04T09:20:17Z</time>
      </trkpt>
      <trkpt lat="49.13321" lon="-0.41126">
        <ele>34.1</ele>
        <time>2024-02-04T09:20:18Z</time>
      </trkpt>
      <trkpt lat="49.13314" lon="-0.41117">
        <ele>33.9</ele>
        <time>2024-02-04T09:20:19Z</time>
      </trkpt>
      <trkpt lat="49.13307" lon="-0.41108">
        <ele>33.7</ele>
        <time>2024-02-04T09:20:20Z</time>
      </trkpt>
      <trkpt lat="49.133" lon="-0.41099">
        <ele>33.5</ele>
        <time>2024-02-04T09:20:21Z</time>
      </trkpt>
      <trkpt lat="49.13293" lon="-0.41089">
        <ele>33.3</ele>
        <time>2024-02-04T09:20:22Z</time>
      </trkpt>
      <trkpt lat="49.13287" lon="-0.4108">
        <ele>33.2</ele>
        <time>2024-02-04T09:20:23Z</time>
      </trkpt>
      <trkpt lat="49.13281" lon="-0.41071">
        <ele>33.1</ele>
        <time>2024-02-04T09:20:24Z</time>
      </trkpt>
      <trkpt lat="49.13275" lon="-0.41063">
        <ele>33.1</ele>
        <time>2024-02-04T09:20:25Z</time>
      </trkpt>
      <trkpt lat="49.13269" lon="-0.41055">
        <ele>33.1</ele>
        <time>2024-02-04T09:20:26Z</time>
      </trkpt>
      <trkpt lat="49.13263" lon="-0.41048">
        <ele>33.2</ele>
        <time>2024-02-04T09:20:27Z</time>
      </trkpt>
      <trkpt lat="49.13257" lon="-0.41041">
        <ele>33.2</ele>
        <time>2024-02-04T09:20:28Z</time>
      </trkpt>
      <trkpt lat="49.13252" lon="-0.41034">
        <ele>33.2</ele>
        <time>2024-02-04T09:20:29Z</time>
      </trkpt>
      <trkpt lat="49.13247" lon="-0.41027">
        <ele>33.3</ele>
        <time>2024-02-04T09:20:30Z</time>
      </trkpt>
      <trkpt lat="49.13242" lon="-0.41021">
        <ele>33.4</ele>
        <time>2024-02-04T09:20:31Z</time>
      </trkpt>
      <trkpt lat="49.13237" lon="-0.41015">
        <ele>33.7</ele>
        <time>2024-02-04T09:20:32Z</time>
      </trkpt>
      <trkpt lat="49.13232" lon="-0.41009">
        <ele>34</ele>
        <time>2024-02-04T09:20:33Z</time>
      </trkpt>
      <trkpt lat="49.13228" lon="-0.41002">
        <ele>34.3</ele>
        <time>2024-02-04T09:20:34Z</time>
      </trkpt>
      <trkpt lat="49.13224" lon="-0.40995">
        <ele>34.6</ele>
        <time>2024-02-04T09:20:35Z</time>
      </trkpt>
      <trkpt lat="49.1322" lon="-0.40989">
        <ele>34.9</ele>
        <time>2024-02-04T09:20:36Z</time>
      </trkpt>
      <trkpt lat="49.13216" lon="-0.40984">
        <ele>35.3</ele>
        <time>2024-02-04T09:20:37Z</time>
      </trkpt>
      <trkpt lat="49.13211" lon="-0.40979">
        <ele>35.6</ele>
        <time>2024-02-04T09:20:38Z</time>
      </trkpt>
      <trkpt lat="49.13207" lon="-0.40975">
        <ele>36</ele>
        <time>2024-02-04T09:20:39Z</time>
      </trkpt>
      <trkpt lat="49.13202" lon="-0.4097">
        <ele>36.4</ele>
        <time>2024-02-04T09:20:40Z</time>
      </trkpt>
      <trkpt lat="49.13198" lon="-0.40965">
        <ele>36.7</ele>
        <time>2024-02-04T09:20:41Z</time>
      </trkpt>
      <trkpt lat="49.13194" lon="-0.4096">
        <ele>37.1</ele>
        <time>2024-02-04T09:20:42Z</time>
      </trkpt>
      <trkpt lat="49.1319" lon="-0.40956">
        <ele>37.5</ele>
        <time>2024-02-04T09:20:43Z</time>
      </trkpt>
      <trkpt lat="49.13185" lon="-0.40952">
        <ele>37.8</ele>
        <time>2024-02-04T09:20:44Z</time>
      </trkpt>
      <trkpt lat="49.13181" lon="-0.40948">
        <ele>38.2</ele>
        <time>2024-02-04T09:20:45Z</time>
      </trkpt>
      <trkpt lat="49.13176" lon="-0.40945">
        <ele>38.5</ele>
        <time>2024-02-04T09:20:46Z</time>
      </trkpt>
      <trkpt lat="49.13172" lon="-0.40942">
        <ele>38.8</ele>
        <time>2024-02-04T09:20:47Z</time>
      </trkpt>
      <trkpt lat="49.13167" lon="-0.40939">
        <ele>39.1</ele>
        <time>2024-02-04T09:20:48Z</time>
      </trkpt>
      <trkpt lat="49.13162" lon="-0.40936">
        <ele>39.3</ele>
        <time>2024-02-04T09:20:49Z</time>
      </trkpt>
      <trkpt lat="49.13156" lon="-0.40934">
        <ele>39.6</ele>
        <time>2024-02-04T09:20:50Z</time>
      </trkpt>
      <trkpt lat="49.13151" lon="-0.40932">
        <ele>39.8</ele>
        <time>2024-02-04T09:20:51Z</time>
      </trkpt>
      <trkpt lat="49.13145" lon="-0.40932">
        <ele>40</ele>
        <time>2024-02-04T09:20:52Z</time>
      </trkpt>
      <trkpt lat="49.13139" lon="-0.4093">
        <ele>40.1</ele>
        <time>2024-02-04T09:20:53Z</time>
      </trkpt>
      <trkpt lat="49.13133" lon="-0.4093">
        <ele>40.3</ele>
        <time>2024-02-04T09:20:54Z</time>
      </trkpt>
      <trkpt lat="49.13127" lon="-0.4093">
        <ele>40.4</ele>
        <time>2024-02-04T09:20:55Z</time>
      </trkpt>
      <trkpt lat="49.13121" lon="-0.4093">
        <ele>40.5</ele>
        <time>2024-02-04T09:20:56Z</time>
      </trkpt>
      <trkpt lat="49.13115" lon="-0.4093">
        <ele>40.5</ele>
        <time>2024-02-04T09:20:57Z</time>
      </trkpt>
      <trkpt lat="49.13109" lon="-0.40929">
        <ele>40.6</ele>
        <time>2024-02-04T09:20:58Z</time>
      </trkpt>
      <trkpt lat="49.13103" lon="-0.40929">
        <ele>40.7</ele>
        <time>2024-02-04T09:20:59Z</time>
      </trkpt>
      <trkpt lat="49.13096" lon="-0.40929">
        <ele>40.7</ele>
        <time>2024-02-04T09:21:00Z</time>
      </trkpt>
      <trkpt lat="49.1309" lon="-0.4093">
        <ele>40.8</ele>
        <time>2024-02-04T09:21:01Z</time>
      </trkpt>
      <trkpt lat="49.13083" lon="-0.40931">
        <ele>40.9</ele>
        <time>2024-02-04T09:21:02Z</time>
      </trkpt>
      <trkpt lat="49.13076" lon="-0.40932">
        <ele>40.9</ele>
        <time>2024-02-04T09:21:03Z</time>
      </trkpt>
      <trkpt lat="49.1307" lon="-0.40933">
        <ele>41</ele>
        <time>2024-02-04T09:21:04Z</time>
      </trkpt>
      <trkpt lat="49.13064" lon="-0.40933">
        <ele>41</ele>
        <time>2024-02-04T09:21:05Z</time>
      </trkpt>
      <trkpt lat="49.13057" lon="-0.40933">
        <ele>41</ele>
        <time>2024-02-04T09:21:06Z</time>
      </trkpt>
      <trkpt lat="49.13051" lon="-0.40933">
        <ele>41.1</ele>
        <time>2024-02-04T09:21:07Z</time>
      </trkpt>
      <trkpt lat="49.13044" lon="-0.40933">
        <ele>41.1</ele>
        <time>2024-02-04T09:21:08Z</time>
      </trkpt>
      <trkpt lat="49.13038" lon="-0.40933">
        <ele>41.1</ele>
        <time>2024-02-04T09:21:09Z</time>
      </trkpt>
      <trkpt lat="49.13032" lon="-0.40933">
        <ele>41.2</ele>
        <time>2024-02-04T09:21:10Z</time>
      </trkpt>
      <trkpt lat="49.13025" lon="-0.40933">
        <ele>41.2</ele>
        <time>2024-02-04T09:21:11Z</time>
      </trkpt>
      <trkpt lat="49.13019" lon="-0.40934">
        <ele>41.3</ele>
        <time>2024-02-04T09:21:12Z</time>
      </trkpt>
      <trkpt lat="49.13012" lon="-0.40934">
        <ele>41.3</ele>
        <time>2024-02-04T09:21:13Z</time>
      </trkpt>
      <trkpt lat="49.13006" lon="-0.40933">
        <ele>41.4</ele>
        <time>2024-02-04T09:21:14Z</time>
      </trkpt>
      <trkpt lat="49.13" lon="-0.40933">
        <ele>41.4</ele>
        <time>2024-02-04T09:21:15Z</time>
      </trkpt>
      <trkpt lat="49.12993" lon="-0.40933">
        <ele>41.5</ele>
        <time>2024-02-04T09:21:16Z</time>
      </trkpt>
      <trkpt lat="49.12987" lon="-0.40933">
        <ele>41.6</ele>
        <time>2024-02-04T09:21:17Z</time>
      </trkpt>
      <trkpt lat="49.1298" lon="-0.40933">
        <ele>41.6</ele>
        <time>2024-02-04T09:21:18Z</time>
      </trkpt>
      <trkpt lat="49.12974" lon="-0.40933">
        <ele>41.7</ele>
        <time>2024-02-04T09:21:19Z</time>
      </trkpt>
      <trkpt lat="49.12967" lon="-0.40934">
        <ele>41.7</ele>
        <time>2024-02-04T09:21:20Z</time>
      </trkpt>
      <trkpt lat="49.12961" lon="-0.40934">
        <ele>41.8</ele>
        <time>2024-02-04T09:21:21Z</time>
      </trkpt>
      <trkpt lat="49.12954" lon="-0.40935">
        <ele>41.8</ele>
        <time>2024-02-04T09:21:22Z</time>
      </trkpt>
      <trkpt lat="49.12948" lon="-0.40935">
        <ele>41.9</ele>
        <time>2024-02-04T09:21:23Z</time>
      </trkpt>
      <trkpt lat="49.12941" lon="-0.40936">
        <ele>42</ele>
        <time>2024-02-04T09:21:24Z</time>
      </trkpt>
      <trkpt lat="49.12935" lon="-0.40936">
        <ele>42.1</ele>
        <time>2024-02-04T09:21:25Z</time>
      </trkpt>
      <trkpt lat="49.12929" lon="-0.40936">
        <ele>42.2</ele>
        <time>2024-02-04T09:21:26Z</time>
      </trkpt>
      <trkpt lat="49.12923" lon="-0.40937">
        <ele>42.3</ele>
        <time>2024-02-04T09:21:27Z</time>
      </trkpt>
      <trkpt lat="49.12916" lon="-0.40938">
        <ele>42.3</ele>
        <time>2024-02-04T09:21:28Z</time>
      </trkpt>
      <trkpt lat="49.1291" lon="-0.40938">
        <ele>42.4</ele>
        <time>2024-02-04T09:21:29Z</time>
      </trkpt>
      <trkpt lat="49.12903" lon="-0.40938">
        <ele>42.5</ele>
        <time>2024-02-04T09:21:30Z</time>
      </trkpt>
      <trkpt lat="49.12897" lon="-0.40938">
        <ele>42.6</ele>
        <time>2024-02-04T09:21:31Z</time>
      </trkpt>
      <trkpt lat="49.1289" lon="-0.40939">
        <ele>42.7</ele>
        <time>2024-02-04T09:21:32Z</time>
      </trkpt>
      <trkpt lat="49.12884" lon="-0.40939">
        <ele>42.8</ele>
        <time>2024-02-04T09:21:33Z</time>
      </trkpt>
      <trkpt lat="49.12878" lon="-0.4094">
        <ele>42.9</ele>
        <time>2024-02-04T09:21:34Z</time>
      </trkpt>
      <trkpt lat="49.12871" lon="-0.4094">
        <ele>43</ele>
        <time>2024-02-04T09:21:35Z</time>
      </trkpt>
      <trkpt lat="49.12865" lon="-0.40941">
        <ele>43.2</ele>
        <time>2024-02-04T09:21:36Z</time>
      </trkpt>
      <trkpt lat="49.12859" lon="-0.40941">
        <ele>43.3</ele>
        <time>2024-02-04T09:21:37Z</time>
      </trkpt>
      <trkpt lat="49.12852" lon="-0.40941">
        <ele>43.4</ele>
        <time>2024-02-04T09:21:38Z</time>
      </trkpt>
      <trkpt lat="49.12846" lon="-0.40942">
        <ele>43.5</ele>
        <time>2024-02-04T09:21:39Z</time>
      </trkpt>
      <trkpt lat="49.1284" lon="-0.40942">
        <ele>43.7</ele>
        <time>2024-02-04T09:21:40Z</time>
      </trkpt>
      <trkpt lat="49.12833" lon="-0.40942">
        <ele>43.8</ele>
        <time>2024-02-04T09:21:41Z</time>
      </trkpt>
      <trkpt lat="49.12827" lon="-0.40943">
        <ele>43.9</ele>
        <time>2024-02-04T09:21:42Z</time>
      </trkpt>
      <trkpt lat="49.1282" lon="-0.40943">
        <ele>44.1</ele>
        <time>2024-02-04T09:21:43Z</time>
      </trkpt>
      <trkpt lat="49.12814" lon="-0.40944">
        <ele>44.2</ele>
        <time>2024-02-04T09:21:44Z</time>
      </trkpt>
      <trkpt lat="49.12808" lon="-0.40944">
        <ele>44.4</ele>
        <time>2024-02-04T09:21:45Z</time>
      </trkpt>
      <trkpt lat="49.12801" lon="-0.40944">
        <ele>44.5</ele>
        <time>2024-02-04T09:21:46Z</time>
      </trkpt>
      <trkpt lat="49.12795" lon="-0.40944">
        <ele>44.6</ele>
        <time>2024-02-04T09:21:47Z</time>
      </trkpt>
      <trkpt lat="49.12789" lon="-0.40944">
        <ele>44.8</ele>
        <time>2024-02-04T09:21:48Z</time>
      </trkpt>
      <trkpt lat="49.12783" lon="-0.40945">
        <ele>45</ele>
        <time>2024-02-04T09:21:49Z</time>
      </trkpt>
      <trkpt lat="49.12777" lon="-0.40946">
        <ele>45.2</ele>
        <time>2024-02-04T09:21:50Z</time>
      </trkpt>
      <trkpt lat="49.12771" lon="-0.40946">
        <ele>45.4</ele>
        <time>2024-02-04T09:21:51Z</time>
      </trkpt>
      <trkpt lat="49.12764" lon="-0.40946">
        <ele>45.6</ele>
        <time>2024-02-04T09:21:52Z</time>
      </trkpt>
      <trkpt lat="49.12758" lon="-0.40946">
        <ele>45.8</ele>
        <time>2024-02-04T09:21:53Z</time>
      </trkpt>
      <trkpt lat="49.12752" lon="-0.40946">
        <ele>46</ele>
        <time>2024-02-04T09:21:54Z</time>
      </trkpt>
      <trkpt lat="49.12746" lon="-0.40947">
        <ele>46.3</ele>
        <time>2024-02-04T09:21:55Z</time>
      </trkpt>
      <trkpt lat="49.1274" lon="-0.40947">
        <ele>46.5</ele>
        <time>2024-02-04T09:21:56Z</time>
      </trkpt>
      <trkpt lat="49.12734" lon="-0.40948">
        <ele>46.7</ele>
        <time>2024-02-04T09:21:57Z</time>
      </trkpt>
      <trkpt lat="49.12728" lon="-0.40948">
        <ele>47</ele>
        <time>2024-02-04T09:21:58Z</time>
      </trkpt>
      <trkpt lat="49.12721" lon="-0.40948">
        <ele>47.2</ele>
        <time>2024-02-04T09:21:59Z</time>
      </trkpt>
      <trkpt lat="49.12715" lon="-0.40949">
        <ele>47.4</ele>
        <time>2024-02-04T09:22:00Z</time>
      </trkpt>
      <trkpt lat="49.12709" lon="-0.40949">
        <ele>47.7</ele>
        <time>2024-02-04T09:22:01Z</time>
      </trkpt>
      <trkpt lat="49.12702" lon="-0.4095">
        <ele>47.9</ele>
        <time>2024-02-04T09:22:02Z</time>
      </trkpt>
      <trkpt lat="49.12696" lon="-0.4095">
        <ele>48.1</ele>
        <time>2024-02-04T09:22:03Z</time>
      </trkpt>
      <trkpt lat="49.1269" lon="-0.4095">
        <ele>48.4</ele>
        <time>2024-02-04T09:22:04Z</time>
      </trkpt>
      <trkpt lat="49.12683" lon="-0.40951">
        <ele>48.6</ele>
        <time>2024-02-04T09:22:05Z</time>
      </trkpt>
      <trkpt lat="49.12677" lon="-0.40951">
        <ele>48.8</ele>
        <time>2024-02-04T09:22:06Z</time>
      </trkpt>
      <trkpt lat="49.12671" lon="-0.40952">
        <ele>49</ele>
        <time>2024-02-04T09:22:07Z</time>
      </trkpt>
      <trkpt lat="49.12665" lon="-0.40952">
        <ele>49.2</ele>
        <time>2024-02-04T09:22:08Z</time>
      </trkpt>
      <trkpt lat="49.12659" lon="-0.40953">
        <ele>49.4</ele>
        <time>2024-02-04T09:22:09Z</time>
      </trkpt>
      <trkpt lat="49.12653" lon="-0.40953">
        <ele>49.7</ele>
        <time>2024-02-04T09:22:10Z</time>
      </trkpt>
      <trkpt lat="49.12647" lon="-0.40952">
        <ele>49.9</ele>
        <time>2024-02-04T09:22:11Z</time>
      </trkpt>
      <trkpt lat="49.12641" lon="-0.40952">
        <ele>50.1</ele>
        <time>2024-02-04T09:22:12Z</time>
      </trkpt>
      <trkpt lat="49.12635" lon="-0.40951">
        <ele>50.4</ele>
        <time>2024-02-04T09:22:13Z</time>
      </trkpt>
      <trkpt lat="49.12629" lon="-0.40949">
        <ele>50.6</ele>
        <time>2024-02-04T09:22:14Z</time>
      </trkpt>
      <trkpt lat="49.12623" lon="-0.40947">
        <ele>50.8</ele>
        <time>2024-02-04T09:22:15Z</time>
      </trkpt>
      <trkpt lat="49.12617" lon="-0.40945">
        <ele>51.1</ele>
        <time>2024-02-04T09:22:16Z</time>
      </trkpt>
      <trkpt lat="49.12611" lon="-0.40943">
        <ele>51.3</ele>
        <time>2024-02-04T09:22:17Z</time>
      </trkpt>
      <trkpt lat="49.12605" lon="-0.40941">
        <ele>51.4</ele>
        <time>2024-02-04T09:22:18Z</time>
      </trkpt>
      <trkpt lat="49.12599" lon="-0.40939">
        <ele>51.6</ele>
        <time>2024-02-04T09:22:19Z</time>
      </trkpt>
      <trkpt lat="49.12593" lon="-0.40936">
        <ele>51.7</ele>
        <time>2024-02-04T09:22:20Z</time>
      </trkpt>
      <trkpt lat="49.12587" lon="-0.40932">
        <ele>51.8</ele>
        <time>2024-02-04T09:22:21Z</time>
      </trkpt>
      <trkpt lat="49.12581" lon="-0.40929">
        <ele>52</ele>
        <time>2024-02-04T09:22:22Z</time>
      </trkpt>
      <trkpt lat="49.12575" lon="-0.40926">
        <ele>52.1</ele>
        <time>2024-02-04T09:22:23Z</time>
      </trkpt>
      <trkpt lat="49.12569" lon="-0.40923">
        <ele>52.2</ele>
        <time>2024-02-04T09:22:24Z</time>
      </trkpt>
      <trkpt lat="49.12563" lon="-0.4092">
        <ele>52.3</ele>
        <time>2024-02-04T09:22:25Z</time>
      </trkpt>
      <trkpt lat="49.12557" lon="-0.40918">
        <ele>52.4</ele>
        <time>2024-02-04T09:22:26Z</time>
      </trkpt>
      <trkpt lat="49.12552" lon="-0.40915">
        <ele>52.5</ele>
        <time>2024-02-04T09:22:27Z</time>
      </trkpt>
      <trkpt lat="49.12546" lon="-0.40912">
        <ele>52.6</ele>
        <time>2024-02-04T09:22:28Z</time>
      </trkpt>
      <trkpt lat="49.1254" lon="-0.40909">
        <ele>52.7</ele>
        <time>2024-02-04T09:22:29Z</time>
      </trkpt>
      <trkpt lat="49.12534" lon="-0.40905">
        <ele>52.8</ele>
        <time>2024-02-04T09:22:30Z</time>
      </trkpt>
      <trkpt lat="49.12528" lon="-0.40902">
        <ele>52.9</ele>
        <time>2024-02-04T09:22:31Z</time>
      </trkpt>
      <trkpt lat="49.12522" lon="-0.40899">
        <ele>53</ele>
        <time>2024-02-04T09:22:32Z</time>
      </trkpt>
      <trkpt lat="49.12515" lon="-0.40896">
        <ele>53.1</ele>
        <time>2024-02-04T09:22:33Z</time>
      </trkpt>
      <trkpt lat="49.12509" lon="-0.40894">
        <ele>53.2</ele>
        <time>2024-02-04T09:22:34Z</time>
      </trkpt>
      <trkpt lat="49.12503" lon="-0.40891">
        <ele>53.3</ele>
        <time>2024-02-04T09:22:35Z</time>
      </trkpt>
      <trkpt lat="49.12497" lon="-0.40888">
        <ele>53.4</ele>
        <time>2024-02-04T09:22:36Z</time>
      </trkpt>
      <trkpt lat="49.1249" lon="-0.40885">
        <ele>53.5</ele>
        <time>2024-02-04T09:22:37Z</time>
      </trkpt>
      <trkpt lat="49.12484" lon="-0.40882">
        <ele>53.6</ele>
        <time>2024-02-04T09:22:38Z</time>
      </trkpt>
      <trkpt lat="49.12478" lon="-0.40879">
        <ele>53.7</ele>
        <time>2024-02-04T09:22:39Z</time>
      </trkpt>
      <trkpt lat="49.12472" lon="-0.40876">
        <ele>53.9</ele>
        <time>2024-02-04T09:22:40Z</time>
      </trkpt>
      <trkpt lat="49.12466" lon="-0.40873">
        <ele>54</ele>
        <time>2024-02-04T09:22:41Z</time>
      </trkpt>
      <trkpt lat="49.1246" lon="-0.40869">
        <ele>54.1</ele>
        <time>2024-02-04T09:22:42Z</time>
      </trkpt>
      <trkpt lat="49.12454" lon="-0.40865">
        <ele>54.2</ele>
        <time>2024-02-04T09:22:43Z</time>
      </trkpt>
      <trkpt lat="49.12448" lon="-0.40862">
        <ele>54.3</ele>
        <time>2024-02-04T09:22:44Z</time>
      </trkpt>
      <trkpt lat="49.12442" lon="-0.40859">
        <ele>54.4</ele>
        <time>2024-02-04T09:22:45Z</time>
      </trkpt>
      <trkpt lat="49.12436" lon="-0.40856">
        <ele>54.5</ele>
        <time>2024-02-04T09:22:46Z</time>
      </trkpt>
      <trkpt lat="49.1243" lon="-0.40854">
        <ele>54.6</ele>
        <time>2024-02-04T09:22:47Z</time>
      </trkpt>
      <trkpt lat="49.12424" lon="-0.40851">
        <ele>54.7</ele>
        <time>2024-02-04T09:22:48Z</time>
      </trkpt>
      <trkpt lat="49.12418" lon="-0.40848">
        <ele>54.8</ele>
        <time>2024-02-04T09:22:49Z</time>
      </trkpt>
      <trkpt lat="49.12412" lon="-0.40845">
        <ele>55</ele>
        <time>2024-02-04T09:22:50Z</time>
      </trkpt>
      <trkpt lat="49.12406" lon="-0.40843">
        <ele>55.1</ele>
        <time>2024-02-04T09:22:51Z</time>
      </trkpt>
      <trkpt lat="49.124" lon="-0.4084">
        <ele>55.2</ele>
        <time>2024-02-04T09:22:52Z</time>
      </trkpt>
      <trkpt lat="49.12394" lon="-0.40836">
        <ele>55.3</ele>
        <time>2024-02-04T09:22:53Z</time>
      </trkpt>
      <trkpt lat="49.12388" lon="-0.40833">
        <ele>55.4</ele>
        <time>2024-02-04T09:22:54Z</time>
      </trkpt>
      <trkpt lat="49.12382" lon="-0.4083">
        <ele>55.5</ele>
        <time>2024-02-04T09:22:55Z</time>
      </trkpt>
      <trkpt lat="49.12375" lon="-0.40827">
        <ele>55.6</ele>
        <time>2024-02-04T09:22:56Z</time>
      </trkpt>
      <trkpt lat="49.12369" lon="-0.40824">
        <ele>55.7</ele>
        <time>2024-02-04T09:22:57Z</time>
      </trkpt>
      <trkpt lat="49.12363" lon="-0.40821">
        <ele>55.7</ele>
        <time>2024-02-04T09:22:58Z</time>
      </trkpt>
      <trkpt lat="49.12357" lon="-0.40818">
        <ele>55.8</ele>
        <time>2024-02-04T09:22:59Z</time>
      </trkpt>
      <trkpt lat="49.12351" lon="-0.40815">
        <ele>55.9</ele>
        <time>2024-02-04T09:23:00Z</time>
      </trkpt>
      <trkpt lat="49.12346" lon="-0.40811">
        <ele>55.9</ele>
        <time>2024-02-04T09:23:01Z</time>
      </trkpt>
      <trkpt lat="49.12339" lon="-0.40808">
        <ele>56</ele>
        <time>2024-02-04T09:23:02Z</time>
      </trkpt>
      <trkpt lat="49.12333" lon="-0.40806">
        <ele>56.1</ele>
        <time>2024-02-04T09:23:03Z</time>
      </trkpt>
      <trkpt lat="49.12327" lon="-0.40804">
        <ele>56.2</ele>
        <time>2024-02-04T09:23:04Z</time>
      </trkpt>
      <trkpt lat="49.12321" lon="-0.40801">
        <ele>56.2</ele>
        <time>2024-02-04T09:23:05Z</time>
      </trkpt>
      <trkpt lat="49.12315" lon="-0.40799">
        <ele>56.3</ele>
        <time>2024-02-04T09:23:06Z</time>
      </trkpt>
      <trkpt lat="49.12308" lon="-0.40797">
        <ele>56.4</ele>
        <time>2024-02-04T09:23:07Z</time>
      </trkpt>
      <trkpt lat="49.12302" lon="-0.40795">
        <ele>56.4</ele>
        <time>2024-02-04T09:23:08Z</time>
      </trkpt>
      <trkpt lat="49.12296" lon="-0.40793">
        <ele>56.5</ele>
        <time>2024-02-04T09:23:09Z</time>
      </trkpt>
      <trkpt lat="49.1229" lon="-0.40792">
        <ele>56.5</ele>
        <time>2024-02-04T09:23:10Z</time>
      </trkpt>
      <trkpt lat="49.12284" lon="-0.40791">
        <ele>56.5</ele>
        <time>2024-02-04T09:23:11Z</time>
      </trkpt>
      <trkpt lat="49.12278" lon="-0.40791">
        <ele>56.6</ele>
        <time>2024-02-04T09:23:12Z</time>
      </trkpt>
      <trkpt lat="49.12272" lon="-0.4079">
        <ele>56.7</ele>
        <time>2024-02-04T09:23:13Z</time>
      </trkpt>
      <trkpt lat="49.12266" lon="-0.4079">
        <ele>56.8</ele>
        <time>2024-02-04T09:23:14Z</time>
      </trkpt>
      <trkpt lat="49.1226" lon="-0.40791">
        <ele>56.8</ele>
        <time>2024-02-04T09:23:15Z</time>
      </trkpt>
      <trkpt lat="49.12254" lon="-0.40791">
        <ele>56.9</ele>
        <time>2024-02-04T09:23:16Z</time>
      </trkpt>
      <trkpt lat="49.12248" lon="-0.40792">
        <ele>57</ele>
        <time>2024-02-04T09:23:17Z</time>
      </trkpt>
      <trkpt lat="49.12242" lon="-0.40793">
        <ele>57.1</ele>
        <time>2024-02-04T09:23:18Z</time>
      </trkpt>
      <trkpt lat="49.12236" lon="-0.40795">
        <ele>57.2</ele>
        <time>2024-02-04T09:23:19Z</time>
      </trkpt>
      <trkpt lat="49.1223" lon="-0.40796">
        <ele>57.3</ele>
        <time>2024-02-04T09:23:20Z</time>
      </trkpt>
      <trkpt lat="49.12224" lon="-0.40798">
        <ele>57.3</ele>
        <time>2024-02-04T09:23:21Z</time>
      </trkpt>
      <trkpt lat="49.12218" lon="-0.408">
        <ele>57.5</ele>
        <time>2024-02-04T09:23:22Z</time>
      </trkpt>
      <trkpt lat="49.12213" lon="-0.40802">
        <ele>57.6</ele>
        <time>2024-02-04T09:23:23Z</time>
      </trkpt>
      <trkpt lat="49.12207" lon="-0.40805">
        <ele>57.7</ele>
        <time>2024-02-04T09:23:24Z</time>
      </trkpt>
      <trkpt lat="49.12201" lon="-0.40808">
        <ele>57.8</ele>
        <time>2024-02-04T09:23:25Z</time>
      </trkpt>
      <trkpt lat="49.12196" lon="-0.40811">
        <ele>58</ele>
        <time>2024-02-04T09:23:26Z</time>
      </trkpt>
      <trkpt lat="49.12191" lon="-0.40814">
        <ele>58.1</ele>
        <time>2024-02-04T09:23:27Z</time>
      </trkpt>
      <trkpt lat="49.12186" lon="-0.40817">
        <ele>58.2</ele>
        <time>2024-02-04T09:23:28Z</time>
      </trkpt>
      <trkpt lat="49.12181" lon="-0.40821">
        <ele>58.4</ele>
        <time>2024-02-04T09:23:29Z</time>
      </trkpt>
      <trkpt lat="49.12177" lon="-0.40825">
        <ele>58.5</ele>
        <time>2024-02-04T09:23:30Z</time>
      </trkpt>
      <trkpt lat="49.12172" lon="-0.40828">
        <ele>58.7</ele>
        <time>2024-02-04T09:23:31Z</time>
      </trkpt>
      <trkpt lat="49.12168" lon="-0.40832">
        <ele>58.8</ele>
        <time>2024-02-04T09:23:32Z</time>
      </trkpt>
      <trkpt lat="49.12163" lon="-0.40836">
        <ele>59</ele>
        <time>2024-02-04T09:23:33Z</time>
      </trkpt>
      <trkpt lat="49.12159" lon="-0.4084">
        <ele>59.2</ele>
        <time>2024-02-04T09:23:34Z</time>
      </trkpt>
      <trkpt lat="49.12155" lon="-0.40845">
        <ele>59.4</ele>
        <time>2024-02-04T09:23:35Z</time>
      </trkpt>
      <trkpt lat="49.12151" lon="-0.40849">
        <ele>59.6</ele>
        <time>2024-02-04T09:23:36Z</time>
      </trkpt>
      <trkpt lat="49.12147" lon="-0.40853">
        <ele>59.8</ele>
        <time>2024-02-04T09:23:37Z</time>
      </trkpt>
      <trkpt lat="49.12144" lon="-0.40858">
        <ele>59.9</ele>
        <time>2024-02-04T09:23:38Z</time>
      </trkpt>
      <trkpt lat="49.12141" lon="-0.40864">
        <ele>60.1</ele>
        <time>2024-02-04T09:23:39Z</time>
      </trkpt>
      <trkpt lat="49.12139" lon="-0.4087">
        <ele>60.2</ele>
        <time>2024-02-04T09:23:40Z</time>
      </trkpt>
      <trkpt lat="49.12136" lon="-0.40876">
        <ele>60.3</ele>
        <time>2024-02-04T09:23:41Z</time>
      </trkpt>
      <trkpt lat="49.12134" lon="-0.40881">
        <ele>60.4</ele>
        <time>2024-02-04T09:23:42Z</time>
      </trkpt>
      <trkpt lat="49.1213" lon="-0.40885">
        <ele>60.5</ele>
        <time>2024-02-04T09:23:43Z</time>
      </trkpt>
      <trkpt lat="49.12126" lon="-0.40887">
        <ele>60.6</ele>
        <time>2024-02-04T09:23:44Z</time>
      </trkpt>
      <trkpt lat="49.12123" lon="-0.40886">
        <ele>60.6</ele>
        <time>2024-02-04T09:23:45Z</time>
      </trkpt>
      <trkpt lat="49.1212" lon="-0.40885">
        <ele>60.6</ele>
        <time>2024-02-04T09:23:46Z</time>
      </trkpt>
      <trkpt lat="49.12117" lon="-0.40881">
        <ele>60.7</ele>
        <time>2024-02-04T09:23:47Z</time>
      </trkpt>
      <trkpt lat="49.12115" lon="-0.40877">
        <ele>60.7</ele>
        <time>2024-02-04T09:23:48Z</time>
      </trkpt>
      <trkpt lat="49.12114" lon="-0.40872">
        <ele>60.7</ele>
        <time>2024-02-04T09:23:49Z</time>
      </trkpt>
      <trkpt lat="49.12112" lon="-0.40867">
        <ele>60.7</ele>
        <time>2024-02-04T09:23:50Z</time>
      </trkpt>
      <trkpt lat="49.12112" lon="-0.40862">
        <ele>60.7</ele>
        <time>2024-02-04T09:23:51Z</time>
      </trkpt>
      <trkpt lat="49.12111" lon="-0.40856">
        <ele>60.7</ele>
        <time>2024-02-04T09:23:52Z</time>
      </trkpt>
      <trkpt lat="49.12109" lon="-0.4085">
        <ele>60.7</ele>
        <time>2024-02-04T09:23:53Z</time>
      </trkpt>
      <trkpt lat="49.12107" lon="-0.40845">
        <ele>60.7</ele>
        <time>2024-02-04T09:23:54Z</time>
      </trkpt>
      <trkpt lat="49.12105" lon="-0.40839">
        <ele>60.6</ele>
        <time>2024-02-04T09:23:55Z</time>
      </trkpt>
      <trkpt lat="49.12102" lon="-0.40833">
        <ele>60.6</ele>
        <time>2024-02-04T09:23:56Z</time>
      </trkpt>
      <trkpt lat="49.12099" lon="-0.40827">
        <ele>60.6</ele>
        <time>2024-02-04T09:23:57Z</time>
      </trkpt>
      <trkpt lat="49.12096" lon="-0.4082">
        <ele>60.6</ele>
        <time>2024-02-04T09:23:58Z</time>
      </trkpt>
      <trkpt lat="49.12092" lon="-0.40813">
        <ele>60.5</ele>
        <time>2024-02-04T09:23:59Z</time>
      </trkpt>
      <trkpt lat="49.12089" lon="-0.40806">
        <ele>60.5</ele>
        <time>2024-02-04T09:24:00Z</time>
      </trkpt>
      <trkpt lat="49.12085" lon="-0.40799">
        <ele>60.4</ele>
        <time>2024-02-04T09:24:01Z</time>
      </trkpt>
      <trkpt lat="49.12081" lon="-0.40791">
        <ele>60.4</ele>
        <time>2024-02-04T09:24:02Z</time>
      </trkpt>
      <trkpt lat="49.12076" lon="-0.40784">
        <ele>60.4</ele>
        <time>2024-02-04T09:24:03Z</time>
      </trkpt>
      <trkpt lat="49.12072" lon="-0.40777">
        <ele>60.3</ele>
        <time>2024-02-04T09:24:04Z</time>
      </trkpt>
      <trkpt lat="49.12067" lon="-0.4077">
        <ele>60.2</ele>
        <time>2024-02-04T09:24:05Z</time>
      </trkpt>
      <trkpt lat="49.12062" lon="-0.40763">
        <ele>60.1</ele>
        <time>2024-02-04T09:24:06Z</time>
      </trkpt>
      <trkpt lat="49.12057" lon="-0.40755">
        <ele>60</ele>
        <time>2024-02-04T09:24:07Z</time>
      </trkpt>
      <trkpt lat="49.12053" lon="-0.40747">
        <ele>59.9</ele>
        <time>2024-02-04T09:24:08Z</time>
      </trkpt>
      <trkpt lat="49.12049" lon="-0.40739">
        <ele>59.8</ele>
        <time>2024-02-04T09:24:09Z</time>
      </trkpt>
      <trkpt lat="49.12044" lon="-0.40732">
        <ele>59.6</ele>
        <time>2024-02-04T09:24:10Z</time>
      </trkpt>
      <trkpt lat="49.12039" lon="-0.40724">
        <ele>59.5</ele>
        <time>2024-02-04T09:24:11Z</time>
      </trkpt>
      <trkpt lat="49.12034" lon="-0.40716">
        <ele>59.4</ele>
        <time>2024-02-04T09:24:12Z</time>
      </trkpt>
      <trkpt lat="49.12029" lon="-0.40709">
        <ele>59.3</ele>
        <time>2024-02-04T09:24:13Z</time>
      </trkpt>
      <trkpt lat="49.12023" lon="-0.40701">
        <ele>59.2</ele>
        <time>2024-02-04T09:24:14Z</time>
      </trkpt>
      <trkpt lat="49.12018" lon="-0.40694">
        <ele>59.2</ele>
        <time>2024-02-04T09:24:15Z</time>
      </trkpt>
      <trkpt lat="49.12013" lon="-0.40687">
        <ele>59.1</ele>
        <time>2024-02-04T09:24:16Z</time>
      </trkpt>
      <trkpt lat="49.12008" lon="-0.4068">
        <ele>59.1</ele>
        <time>2024-02-04T09:24:17Z</time>
      </trkpt>
      <trkpt lat="49.12002" lon="-0.40674">
        <ele>59.1</ele>
        <time>2024-02-04T09:24:18Z</time>
      </trkpt>
      <trkpt lat="49.11997" lon="-0.40668">
        <ele>59</ele>
        <time>2024-02-04T09:24:19Z</time>
      </trkpt>
      <trkpt lat="49.11992" lon="-0.40662">
        <ele>59</ele>
        <time>2024-02-04T09:24:20Z</time>
      </trkpt>
      <trkpt lat="49.11987" lon="-0.40657">
        <ele>58.9</ele>
        <time>2024-02-04T09:24:21Z</time>
      </trkpt>
      <trkpt lat="49.11981" lon="-0.40653">
        <ele>58.8</ele>
        <time>2024-02-04T09:24:22Z</time>
      </trkpt>
      <trkpt lat="49.11976" lon="-0.40648">
        <ele>58.8</ele>
        <time>2024-02-04T09:24:23Z</time>
      </trkpt>
      <trkpt lat="49.1197" lon="-0.40643">
        <ele>58.7</ele>
        <time>2024-02-04T09:24:24Z</time>
      </trkpt>
      <trkpt lat="49.11964" lon="-0.40638">
        <ele>58.6</ele>
        <time>2024-02-04T09:24:25Z</time>
      </trkpt>
      <trkpt lat="49.11958" lon="-0.40634">
        <ele>58.6</ele>
        <time>2024-02-04T09:24:26Z</time>
      </trkpt>
      <trkpt lat="49.11951" lon="-0.4063">
        <ele>58.5</ele>
        <time>2024-02-04T09:24:27Z</time>
      </trkpt>
      <trkpt lat="49.11944" lon="-0.40625">
        <ele>58.4</ele>
        <time>2024-02-04T09:24:28Z</time>
      </trkpt>
      <trkpt lat="49.11937" lon="-0.4062">
        <ele>58.3</ele>
        <time>2024-02-04T09:24:29Z</time>
      </trkpt>
      <trkpt lat="49.1193" lon="-0.40616">
        <ele>58.1</ele>
        <time>2024-02-04T09:24:30Z</time>
      </trkpt>
      <trkpt lat="49.11923" lon="-0.40612">
        <ele>58</ele>
        <time>2024-02-04T09:24:31Z</time>
      </trkpt>
      <trkpt lat="49.11916" lon="-0.40608">
        <ele>57.9</ele>
        <time>2024-02-04T09:24:32Z</time>
      </trkpt>
      <trkpt lat="49.11909" lon="-0.40604">
        <ele>57.8</ele>
        <time>2024-02-04T09:24:33Z</time>
      </trkpt>
      <trkpt lat="49.11902" lon="-0.406">
        <ele>57.6</ele>
        <time>2024-02-04T09:24:34Z</time>
      </trkpt>
      <trkpt lat="49.11895" lon="-0.40597">
        <ele>57.5</ele>
        <time>2024-02-04T09:24:35Z</time>
      </trkpt>
      <trkpt lat="49.11888" lon="-0.40595">
        <ele>57.4</ele>
        <time>2024-02-04T09:24:36Z</time>
      </trkpt>
      <trkpt lat="49.11882" lon="-0.40592">
        <ele>57.2</ele>
        <time>2024-02-04T09:24:37Z</time>
      </trkpt>
      <trkpt lat="49.11875" lon="-0.40589">
        <ele>57.1</ele>
        <time>2024-02-04T09:24:38Z</time>
      </trkpt>
      <trkpt lat="49.11868" lon="-0.40585">
        <ele>57</ele>
        <time>2024-02-04T09:24:39Z</time>
      </trkpt>
      <trkpt lat="49.11861" lon="-0.40583">
        <ele>56.9</ele>
        <time>2024-02-04T09:24:40Z</time>
      </trkpt>
      <trkpt lat="49.11855" lon="-0.4058">
        <ele>56.8</ele>
        <time>2024-02-04T09:24:41Z</time>
      </trkpt>
      <trkpt lat="49.11849" lon="-0.40578">
        <ele>56.7</ele>
        <time>2024-02-04T09:24:42Z</time>
      </trkpt>
      <trkpt lat="49.11842" lon="-0.40576">
        <ele>56.6</ele>
        <time>2024-02-04T09:24:43Z</time>
      </trkpt>
      <trkpt lat="49.11836" lon="-0.40573">
        <ele>56.5</ele>
        <time>2024-02-04T09:24:44Z</time>
      </trkpt>
      <trkpt lat="49.1183" lon="-0.40571">
        <ele>56.4</ele>
        <time>2024-02-04T09:24:45Z</time>
      </trkpt>
      <trkpt lat="49.11824" lon="-0.40569">
        <ele>56.3</ele>
        <time>2024-02-04T09:24:46Z</time>
      </trkpt>
      <trkpt lat="49.11817" lon="-0.40567">
        <ele>56.2</ele>
        <time>2024-02-04T09:24:47Z</time>
      </trkpt>
      <trkpt lat="49.11811" lon="-0.40565">
        <ele>56.1</ele>
        <time>2024-02-04T09:24:48Z</time>
      </trkpt>
      <trkpt lat="49.11804" lon="-0.40563">
        <ele>56</ele>
        <time>2024-02-04T09:24:49Z</time>
      </trkpt>
      <trkpt lat="49.11798" lon="-0.4056">
        <ele>55.9</ele>
        <time>2024-02-04T09:24:50Z</time>
      </trkpt>
      <trkpt lat="49.11791" lon="-0.40557">
        <ele>55.8</ele>
        <time>2024-02-04T09:24:51Z</time>
      </trkpt>
      <trkpt lat="49.11785" lon="-0.40553">
        <ele>55.6</ele>
        <time>2024-02-04T09:24:52Z</time>
      </trkpt>
      <trkpt lat="49.11778" lon="-0.4055">
        <ele>55.5</ele>
        <time>2024-02-04T09:24:53Z</time>
      </trkpt>
      <trkpt lat="49.11771" lon="-0.40547">
        <ele>55.4</ele>
        <time>2024-02-04T09:24:54Z</time>
      </trkpt>
      <trkpt lat="49.11765" lon="-0.40545">
        <ele>55.3</ele>
        <time>2024-02-04T09:24:55Z</time>
      </trkpt>
      <trkpt lat="49.11758" lon="-0.40543">
        <ele>55.1</ele>
        <time>2024-02-04T09:24:56Z</time>
      </trkpt>
      <trkpt lat="49.11751" lon="-0.40541">
        <ele>55</ele>
        <time>2024-02-04T09:24:57Z</time>
      </trkpt>
      <trkpt lat="49.11744" lon="-0.40539">
        <ele>54.9</ele>
        <time>2024-02-04T09:24:58Z</time>
      </trkpt>
      <trkpt lat="49.11738" lon="-0.40538">
        <ele>54.8</ele>
        <time>2024-02-04T09:24:59Z</time>
      </trkpt>
      <trkpt lat="49.11731" lon="-0.40535">
        <ele>54.7</ele>
        <time>2024-02-04T09:25:00Z</time>
      </trkpt>
      <trkpt lat="49.11725" lon="-0.40532">
        <ele>54.5</ele>
        <time>2024-02-04T09:25:01Z</time>
      </trkpt>
      <trkpt lat="49.11718" lon="-0.40529">
        <ele>54.4</ele>
        <time>2024-02-04T09:25:02Z</time>
      </trkpt>
      <trkpt lat="49.11711" lon="-0.40526">
        <ele>54.2</ele>
        <time>2024-02-04T09:25:03Z</time>
      </trkpt>
      <trkpt lat="49.11704" lon="-0.40523">
        <ele>54</ele>
        <time>2024-02-04T09:25:04Z</time>
      </trkpt>
      <trkpt lat="49.11697" lon="-0.4052">
        <ele>53.9</ele>
        <time>2024-02-04T09:25:05Z</time>
      </trkpt>
      <trkpt lat="49.1169" lon="-0.40517">
        <ele>53.7</ele>
        <time>2024-02-04T09:25:06Z</time>
      </trkpt>
      <trkpt lat="49.11683" lon="-0.40514">
        <ele>53.6</ele>
        <time>2024-02-04T09:25:07Z</time>
      </trkpt>
      <trkpt lat="49.11676" lon="-0.4051">
        <ele>53.5</ele>
        <time>2024-02-04T09:25:08Z</time>
      </trkpt>
      <trkpt lat="49.11668" lon="-0.40508">
        <ele>53.3</ele>
        <time>2024-02-04T09:25:09Z</time>
      </trkpt>
      <trkpt lat="49.11661" lon="-0.40507">
        <ele>53.2</ele>
        <time>2024-02-04T09:25:10Z</time>
      </trkpt>
      <trkpt lat="49.11653" lon="-0.40506">
        <ele>53.2</ele>
        <time>2024-02-04T09:25:11Z</time>
      </trkpt>
      <trkpt lat="49.11645" lon="-0.40506">
        <ele>53.1</ele>
        <time>2024-02-04T09:25:12Z</time>
      </trkpt>
      <trkpt lat="49.11637" lon="-0.40507">
        <ele>53</ele>
        <time>2024-02-04T09:25:13Z</time>
      </trkpt>
      <trkpt lat="49.11629" lon="-0.40508">
        <ele>52.9</ele>
        <time>2024-02-04T09:25:14Z</time>
      </trkpt>
      <trkpt lat="49.11622" lon="-0.4051">
        <ele>52.8</ele>
        <time>2024-02-04T09:25:15Z</time>
      </trkpt>
      <trkpt lat="49.11614" lon="-0.40512">
        <ele>52.8</ele>
        <time>2024-02-04T09:25:16Z</time>
      </trkpt>
      <trkpt lat="49.11606" lon="-0.40514">
        <ele>52.7</ele>
        <time>2024-02-04T09:25:17Z</time>
      </trkpt>
      <trkpt lat="49.11598" lon="-0.40516">
        <ele>52.7</ele>
        <time>2024-02-04T09:25:18Z</time>
      </trkpt>
      <trkpt lat="49.1159" lon="-0.40518">
        <ele>52.6</ele>
        <time>2024-02-04T09:25:19Z</time>
      </trkpt>
      <trkpt lat="49.11583" lon="-0.40518">
        <ele>52.6</ele>
        <time>2024-02-04T09:25:20Z</time>
      </trkpt>
      <trkpt lat="49.11575" lon="-0.40518">
        <ele>52.5</ele>
        <time>2024-02-04T09:25:21Z</time>
      </trkpt>
      <trkpt lat="49.11567" lon="-0.40516">
        <ele>52.4</ele>
        <time>2024-02-04T09:25:22Z</time>
      </trkpt>
      <trkpt lat="49.1156" lon="-0.40513">
        <ele>52.4</ele>
        <time>2024-02-04T09:25:23Z</time>
      </trkpt>
      <trkpt lat="49.11553" lon="-0.4051">
        <ele>52.3</ele>
        <time>2024-02-04T09:25:24Z</time>
      </trkpt>
      <trkpt lat="49.11545" lon="-0.40506">
        <ele>52.2</ele>
        <time>2024-02-04T09:25:25Z</time>
      </trkpt>
      <trkpt lat="49.11538" lon="-0.40501">
        <ele>52.2</ele>
        <time>2024-02-04T09:25:26Z</time>
      </trkpt>
      <trkpt lat="49.11531" lon="-0.40496">
        <ele>52.1</ele>
        <time>2024-02-04T09:25:27Z</time>
      </trkpt>
      <trkpt lat="49.11524" lon="-0.4049">
        <ele>52.1</ele>
        <time>2024-02-04T09:25:28Z</time>
      </trkpt>
      <trkpt lat="49.11517" lon="-0.40484">
        <ele>52</ele>
        <time>2024-02-04T09:25:29Z</time>
      </trkpt>
      <trkpt lat="49.1151" lon="-0.40478">
        <ele>52</ele>
        <time>2024-02-04T09:25:30Z</time>
      </trkpt>
      <trkpt lat="49.11503" lon="-0.40471">
        <ele>52</ele>
        <time>2024-02-04T09:25:31Z</time>
      </trkpt>
      <trkpt lat="49.11497" lon="-0.40465">
        <ele>52</ele>
        <time>2024-02-04T09:25:32Z</time>
      </trkpt>
      <trkpt lat="49.1149" lon="-0.40458">
        <ele>52</ele>
        <time>2024-02-04T09:25:33Z</time>
      </trkpt>
      <trkpt lat="49.11484" lon="-0.40451">
        <ele>52</ele>
        <time>2024-02-04T09:25:34Z</time>
      </trkpt>
      <trkpt lat="49.11478" lon="-0.40444">
        <ele>52.1</ele>
        <time>2024-02-04T09:25:35Z</time>
      </trkpt>
      <trkpt lat="49.11472" lon="-0.40438">
        <ele>52.2</ele>
        <time>2024-02-04T09:25:36Z</time>
      </trkpt>
      <trkpt lat="49.11466" lon="-0.40431">
        <ele>52.3</ele>
        <time>2024-02-04T09:25:37Z</time>
      </trkpt>
      <trkpt lat="49.11461" lon="-0.40424">
        <ele>52.5</ele>
        <time>2024-02-04T09:25:38Z</time>
      </trkpt>
      <trkpt lat="49.11456" lon="-0.40418">
        <ele>52.6</ele>
        <time>2024-02-04T09:25:39Z</time>
      </trkpt>
      <trkpt lat="49.11451" lon="-0.40411">
        <ele>52.8</ele>
        <time>2024-02-04T09:25:40Z</time>
      </trkpt>
      <trkpt lat="49.11446" lon="-0.40405">
        <ele>52.9</ele>
        <time>2024-02-04T09:25:41Z</time>
      </trkpt>
      <trkpt lat="49.11442" lon="-0.40398">
        <ele>53.1</ele>
        <time>2024-02-04T09:25:42Z</time>
      </trkpt>
      <trkpt lat="49.11437" lon="-0.40391">
        <ele>53.2</ele>
        <time>2024-02-04T09:25:43Z</time>
      </trkpt>
      <trkpt lat="49.11433" lon="-0.40384">
        <ele>53.4</ele>
        <time>2024-02-04T09:25:44Z</time>
      </trkpt>
      <trkpt lat="49.11429" lon="-0.40376">
        <ele>53.6</ele>
        <time>2024-02-04T09:25:45Z</time>
      </trkpt>
      <trkpt lat="49.11425" lon="-0.40368">
        <ele>53.8</ele>
        <time>2024-02-04T09:25:46Z</time>
      </trkpt>
      <trkpt lat="49.11421" lon="-0.4036">
        <ele>54.1</ele>
        <time>2024-02-04T09:25:47Z</time>
      </trkpt>
      <trkpt lat="49.11417" lon="-0.40352">
        <ele>54.3</ele>
        <time>2024-02-04T09:25:48Z</time>
      </trkpt>
      <trkpt lat="49.11413" lon="-0.40344">
        <ele>54.7</ele>
        <time>2024-02-04T09:25:49Z</time>
      </trkpt>
      <trkpt lat="49.11409" lon="-0.40336">
        <ele>55</ele>
        <time>2024-02-04T09:25:50Z</time>
      </trkpt>
      <trkpt lat="49.11406" lon="-0.40328">
        <ele>55.3</ele>
        <time>2024-02-04T09:25:51Z</time>
      </trkpt>
      <trkpt lat="49.11402" lon="-0.40321">
        <ele>55.5</ele>
        <time>2024-02-04T09:25:52Z</time>
      </trkpt>
      <trkpt lat="49.114" lon="-0.40314">
        <ele>55.8</ele>
        <time>2024-02-04T09:25:53Z</time>
      </trkpt>
      <trkpt lat="49.11397" lon="-0.40308">
        <ele>56</ele>
        <time>2024-02-04T09:25:54Z</time>
      </trkpt>
      <trkpt lat="49.11396" lon="-0.40303">
        <ele>56.2</ele>
        <time>2024-02-04T09:25:55Z</time>
      </trkpt>
      <trkpt lat="49.11394" lon="-0.40299">
        <ele>56.4</ele>
        <time>2024-02-04T09:25:56Z</time>
      </trkpt>
      <trkpt lat="49.11392" lon="-0.40296">
        <ele>56.5</ele>
        <time>2024-02-04T09:25:57Z</time>
      </trkpt>
      <trkpt lat="49.11388" lon="-0.40293">
        <ele>56.7</ele>
        <time>2024-02-04T09:25:58Z</time>
      </trkpt>
      <trkpt lat="49.11387" lon="-0.40292">
        <ele>56.7</ele>
        <time>2024-02-04T09:25:59Z</time>
      </trkpt>
      <trkpt lat="49.11384" lon="-0.40291">
        <ele>56.7</ele>
        <time>2024-02-04T09:26:00Z</time>
      </trkpt>
      <trkpt lat="49.11383" lon="-0.40291">
        <ele>56.7</ele>
        <time>2024-02-04T09:26:01Z</time>
      </trkpt>
      <trkpt lat="49.1138" lon="-0.40289">
        <ele>56.8</ele>
        <time>2024-02-04T09:26:02Z</time>
      </trkpt>
      <trkpt lat="49.11379" lon="-0.40288">
        <ele>56.8</ele>
        <time>2024-02-04T09:26:03Z</time>
      </trkpt>
      <trkpt lat="49.11376" lon="-0.40285">
        <ele>56.9</ele>
        <time>2024-02-04T09:26:04Z</time>
      </trkpt>
      <trkpt lat="49.11375" lon="-0.40284">
        <ele>56.9</ele>
        <time>2024-02-04T09:26:05Z</time>
      </trkpt>
      <trkpt lat="49.11374" lon="-0.40283">
        <ele>56.9</ele>
        <time>2024-02-04T09:26:06Z</time>
      </trkpt>
      <trkpt lat="49.11373" lon="-0.40281">
        <ele>57</ele>
        <time>2024-02-04T09:26:07Z</time>
      </trkpt>
      <trkpt lat="49.11371" lon="-0.40279">
        <ele>57</ele>
        <time>2024-02-04T09:26:08Z</time>
      </trkpt>
      <trkpt lat="49.1137" lon="-0.40278">
        <ele>57.1</ele>
        <time>2024-02-04T09:26:09Z</time>
      </trkpt>
      <trkpt lat="49.11368" lon="-0.40276">
        <ele>57.1</ele>
        <time>2024-02-04T09:26:10Z</time>
      </trkpt>
      <trkpt lat="49.11367" lon="-0.40276">
        <ele>57.1</ele>
        <time>2024-02-04T09:26:11Z</time>
      </trkpt>
      <trkpt lat="49.11366" lon="-0.40276">
        <ele>57.1</ele>
        <time>2024-02-04T09:26:12Z</time>
      </trkpt>
      <trkpt lat="49.11363" lon="-0.40277">
        <ele>57</ele>
        <time>2024-02-04T09:26:13Z</time>
      </trkpt>
      <trkpt lat="49.11362" lon="-0.40277">
        <ele>57</ele>
        <time>2024-02-04T09:26:14Z</time>
      </trkpt>
      <trkpt lat="49.11359" lon="-0.40278">
        <ele>57</ele>
        <time>2024-02-04T09:26:15Z</time>
      </trkpt>
      <trkpt lat="49.11356" lon="-0.40279">
        <ele>56.9</ele>
        <time>2024-02-04T09:26:16Z</time>
      </trkpt>
      <trkpt lat="49.11352" lon="-0.4028">
        <ele>56.9</ele>
        <time>2024-02-04T09:26:17Z</time>
      </trkpt>
      <trkpt lat="49.11348" lon="-0.40282">
        <ele>56.8</ele>
        <time>2024-02-04T09:26:18Z</time>
      </trkpt>
      <trkpt lat="49.11344" lon="-0.40284">
        <ele>56.8</ele>
        <time>2024-02-04T09:26:19Z</time>
      </trkpt>
      <trkpt lat="49.11339" lon="-0.40286">
        <ele>56.7</ele>
        <time>2024-02-04T09:26:20Z</time>
      </trkpt>
      <trkpt lat="49.11335" lon="-0.40288">
        <ele>56.6</ele>
        <time>2024-02-04T09:26:21Z</time>
      </trkpt>
      <trkpt lat="49.11331" lon="-0.4029">
        <ele>56.6</ele>
        <time>2024-02-04T09:26:22Z</time>
      </trkpt>
      <trkpt lat="49.11326" lon="-0.40292">
        <ele>56.5</ele>
        <time>2024-02-04T09:26:23Z</time>
      </trkpt>
      <trkpt lat="49.11322" lon="-0.40294">
        <ele>56.5</ele>
        <time>2024-02-04T09:26:24Z</time>
      </trkpt>
      <trkpt lat="49.11317" lon="-0.40295">
        <ele>56.5</ele>
        <time>2024-02-04T09:26:25Z</time>
      </trkpt>
      <trkpt lat="49.11313" lon="-0.40297">
        <ele>56.5</ele>
        <time>2024-02-04T09:26:26Z</time>
      </trkpt>
      <trkpt lat="49.11308" lon="-0.40299">
        <ele>56.4</ele>
        <time>2024-02-04T09:26:27Z</time>
      </trkpt>
      <trkpt lat="49.11304" lon="-0.403">
        <ele>56.4</ele>
        <time>2024-02-04T09:26:28Z</time>
      </trkpt>
      <trkpt lat="49.113" lon="-0.40302">
        <ele>56.4</ele>
        <time>2024-02-04T09:26:29Z</time>
      </trkpt>
      <trkpt lat="49.11295" lon="-0.40304">
        <ele>56.3</ele>
        <time>2024-02-04T09:26:30Z</time>
      </trkpt>
      <trkpt lat="49.11291" lon="-0.40306">
        <ele>56.3</ele>
        <time>2024-02-04T09:26:31Z</time>
      </trkpt>
      <trkpt lat="49.11286" lon="-0.40307">
        <ele>56.3</ele>
        <time>2024-02-04T09:26:32Z</time>
      </trkpt>
      <trkpt lat="49.11282" lon="-0.40309">
        <ele>56.2</ele>
        <time>2024-02-04T09:26:33Z</time>
      </trkpt>
      <trkpt lat="49.11277" lon="-0.40311">
        <ele>56.2</ele>
        <time>2024-02-04T09:26:34Z</time>
      </trkpt>
      <trkpt lat="49.11272" lon="-0.40314">
        <ele>56.1</ele>
        <time>2024-02-04T09:26:35Z</time>
      </trkpt>
      <trkpt lat="49.11267" lon="-0.40317">
        <ele>56</ele>
        <time>2024-02-04T09:26:36Z</time>
      </trkpt>
      <trkpt lat="49.11261" lon="-0.40319">
        <ele>55.9</ele>
        <time>2024-02-04T09:26:37Z</time>
      </trkpt>
      <trkpt lat="49.11255" lon="-0.40321">
        <ele>55.8</ele>
        <time>2024-02-04T09:26:38Z</time>
      </trkpt>
      <trkpt lat="49.11249" lon="-0.40323">
        <ele>55.7</ele>
        <time>2024-02-04T09:26:39Z</time>
      </trkpt>
      <trkpt lat="49.11243" lon="-0.40326">
        <ele>55.7</ele>
        <time>2024-02-04T09:26:40Z</time>
      </trkpt>
      <trkpt lat="49.11237" lon="-0.40329">
        <ele>55.6</ele>
        <time>2024-02-04T09:26:41Z</time>
      </trkpt>
      <trkpt lat="49.11231" lon="-0.40331">
        <ele>55.6</ele>
        <time>2024-02-04T09:26:42Z</time>
      </trkpt>
      <trkpt lat="49.11224" lon="-0.40334">
        <ele>55.6</ele>
        <time>2024-02-04T09:26:43Z</time>
      </trkpt>
      <trkpt lat="49.11217" lon="-0.40336">
        <ele>55.6</ele>
        <time>2024-02-04T09:26:44Z</time>
      </trkpt>
      <trkpt lat="49.11211" lon="-0.40339">
        <ele>55.6</ele>
        <time>2024-02-04T09:26:45Z</time>
      </trkpt>
      <trkpt lat="49.11204" lon="-0.40342">
        <ele>55.5</ele>
        <time>2024-02-04T09:26:46Z</time>
      </trkpt>
      <trkpt lat="49.11197" lon="-0.40346">
        <ele>55.5</ele>
        <time>2024-02-04T09:26:47Z</time>
      </trkpt>
      <trkpt lat="49.11191" lon="-0.40348">
        <ele>55.4</ele>
        <time>2024-02-04T09:26:48Z</time>
      </trkpt>
      <trkpt lat="49.11184" lon="-0.40351">
        <ele>55.4</ele>
        <time>2024-02-04T09:26:49Z</time>
      </trkpt>
      <trkpt lat="49.11178" lon="-0.40354">
        <ele>55.4</ele>
        <time>2024-02-04T09:26:50Z</time>
      </trkpt>
      <trkpt lat="49.11171" lon="-0.40358">
        <ele>55.3</ele>
        <time>2024-02-04T09:26:51Z</time>
      </trkpt>
      <trkpt lat="49.11164" lon="-0.40361">
        <ele>55.3</ele>
        <time>2024-02-04T09:26:52Z</time>
      </trkpt>
      <trkpt lat="49.11157" lon="-0.40364">
        <ele>55.3</ele>
        <time>2024-02-04T09:26:53Z</time>
      </trkpt>
      <trkpt lat="49.11151" lon="-0.40367">
        <ele>55.3</ele>
        <time>2024-02-04T09:26:54Z</time>
      </trkpt>
      <trkpt lat="49.11144" lon="-0.4037">
        <ele>55.3</ele>
        <time>2024-02-04T09:26:55Z</time>
      </trkpt>
      <trkpt lat="49.11138" lon="-0.40372">
        <ele>55.3</ele>
        <time>2024-02-04T09:26:56Z</time>
      </trkpt>
      <trkpt lat="49.11131" lon="-0.40375">
        <ele>55.4</ele>
        <time>2024-02-04T09:26:57Z</time>
      </trkpt>
      <trkpt lat="49.11125" lon="-0.40378">
        <ele>55.4</ele>
        <time>2024-02-04T09:26:58Z</time>
      </trkpt>
      <trkpt lat="49.11119" lon="-0.4038">
        <ele>55.4</ele>
        <time>2024-02-04T09:26:59Z</time>
      </trkpt>
      <trkpt lat="49.11112" lon="-0.40383">
        <ele>55.4</ele>
        <time>2024-02-04T09:27:00Z</time>
      </trkpt>
      <trkpt lat="49.11106" lon="-0.40385">
        <ele>55.5</ele>
        <time>2024-02-04T09:27:01Z</time>
      </trkpt>
      <trkpt lat="49.11099" lon="-0.40388">
        <ele>55.5</ele>
        <time>2024-02-04T09:27:02Z</time>
      </trkpt>
      <trkpt lat="49.11093" lon="-0.40391">
        <ele>55.5</ele>
        <time>2024-02-04T09:27:03Z</time>
      </trkpt>
      <trkpt lat="49.11086" lon="-0.40393">
        <ele>55.6</ele>
        <time>2024-02-04T09:27:04Z</time>
      </trkpt>
      <trkpt lat="49.11079" lon="-0.40396">
        <ele>55.6</ele>
        <time>2024-02-04T09:27:05Z</time>
      </trkpt>
      <trkpt lat="49.11071" lon="-0.40398">
        <ele>55.6</ele>
        <time>2024-02-04T09:27:06Z</time>
      </trkpt>
      <trkpt lat="49.11064" lon="-0.40401">
        <ele>55.6</ele>
        <time>2024-02-04T09:27:07Z</time>
      </trkpt>
      <trkpt lat="49.11057" lon="-0.40404">
        <ele>55.7</ele>
        <time>2024-02-04T09:27:08Z</time>
      </trkpt>
      <trkpt lat="49.11049" lon="-0.40407">
        <ele>55.7</ele>
        <time>2024-02-04T09:27:09Z</time>
      </trkpt>
      <trkpt lat="49.11042" lon="-0.4041">
        <ele>55.7</ele>
        <time>2024-02-04T09:27:10Z</time>
      </trkpt>
      <trkpt lat="49.11034" lon="-0.40413">
        <ele>55.7</ele>
        <time>2024-02-04T09:27:11Z</time>
      </trkpt>
      <trkpt lat="49.11027" lon="-0.40416">
        <ele>55.7</ele>
        <time>2024-02-04T09:27:12Z</time>
      </trkpt>
      <trkpt lat="49.1102" lon="-0.40418">
        <ele>55.8</ele>
        <time>2024-02-04T09:27:13Z</time>
      </trkpt>
      <trkpt lat="49.11012" lon="-0.40422">
        <ele>55.8</ele>
        <time>2024-02-04T09:27:14Z</time>
      </trkpt>
      <trkpt lat="49.11005" lon="-0.40425">
        <ele>55.8</ele>
        <time>2024-02-04T09:27:15Z</time>
      </trkpt>
      <trkpt lat="49.10998" lon="-0.40428">
        <ele>55.8</ele>
        <time>2024-02-04T09:27:16Z</time>
      </trkpt>
      <trkpt lat="49.10991" lon="-0.4043">
        <ele>55.9</ele>
        <time>2024-02-04T09:27:17Z</time>
      </trkpt>
      <trkpt lat="49.10984" lon="-0.40433">
        <ele>55.9</ele>
        <time>2024-02-04T09:27:18Z</time>
      </trkpt>
      <trkpt lat="49.10977" lon="-0.40436">
        <ele>55.9</ele>
        <time>2024-02-04T09:27:19Z</time>
      </trkpt>
      <trkpt lat="49.1097" lon="-0.40439">
        <ele>56</ele>
        <time>2024-02-04T09:27:20Z</time>
      </trkpt>
      <trkpt lat="49.10963" lon="-0.40442">
        <ele>56</ele>
        <time>2024-02-04T09:27:21Z</time>
      </trkpt>
      <trkpt lat="49.10956" lon="-0.40444">
        <ele>56</ele>
        <time>2024-02-04T09:27:22Z</time>
      </trkpt>
      <trkpt lat="49.10949" lon="-0.40447">
        <ele>56</ele>
        <time>2024-02-04T09:27:23Z</time>
      </trkpt>
      <trkpt lat="49.10943" lon="-0.4045">
        <ele>56.1</ele>
        <time>2024-02-04T09:27:24Z</time>
      </trkpt>
      <trkpt lat="49.10936" lon="-0.40453">
        <ele>56.1</ele>
        <time>2024-02-04T09:27:25Z</time>
      </trkpt>
      <trkpt lat="49.10929" lon="-0.40456">
        <ele>56.2</ele>
        <time>2024-02-04T09:27:26Z</time>
      </trkpt>
      <trkpt lat="49.10922" lon="-0.40459">
        <ele>56.2</ele>
        <time>2024-02-04T09:27:27Z</time>
      </trkpt>
      <trkpt lat="49.10915" lon="-0.40462">
        <ele>56.3</ele>
        <time>2024-02-04T09:27:28Z</time>
      </trkpt>
      <trkpt lat="49.10908" lon="-0.40464">
        <ele>56.3</ele>
        <time>2024-02-04T09:27:29Z</time>
      </trkpt>
      <trkpt lat="49.10901" lon="-0.40468">
        <ele>56.4</ele>
        <time>2024-02-04T09:27:30Z</time>
      </trkpt>
      <trkpt lat="49.10894" lon="-0.40471">
        <ele>56.4</ele>
        <time>2024-02-04T09:27:31Z</time>
      </trkpt>
      <trkpt lat="49.10887" lon="-0.40473">
        <ele>56.4</ele>
        <time>2024-02-04T09:27:32Z</time>
      </trkpt>
      <trkpt lat="49.10881" lon="-0.40475">
        <ele>56.5</ele>
        <time>2024-02-04T09:27:33Z</time>
      </trkpt>
      <trkpt lat="49.10874" lon="-0.40477">
        <ele>56.5</ele>
        <time>2024-02-04T09:27:34Z</time>
      </trkpt>
      <trkpt lat="49.10867" lon="-0.4048">
        <ele>56.6</ele>
        <time>2024-02-04T09:27:35Z</time>
      </trkpt>
      <trkpt lat="49.1086" lon="-0.40484">
        <ele>56.6</ele>
        <time>2024-02-04T09:27:36Z</time>
      </trkpt>
      <trkpt lat="49.10853" lon="-0.40487">
        <ele>56.7</ele>
        <time>2024-02-04T09:27:37Z</time>
      </trkpt>
      <trkpt lat="49.10846" lon="-0.4049">
        <ele>56.7</ele>
        <time>2024-02-04T09:27:38Z</time>
      </trkpt>
      <trkpt lat="49.1084" lon="-0.40493">
        <ele>56.8</ele>
        <time>2024-02-04T09:27:39Z</time>
      </trkpt>
      <trkpt lat="49.10833" lon="-0.40496">
        <ele>56.8</ele>
        <time>2024-02-04T09:27:40Z</time>
      </trkpt>
      <trkpt lat="49.10826" lon="-0.40499">
        <ele>56.9</ele>
        <time>2024-02-04T09:27:41Z</time>
      </trkpt>
      <trkpt lat="49.10819" lon="-0.40502">
        <ele>56.9</ele>
        <time>2024-02-04T09:27:42Z</time>
      </trkpt>
      <trkpt lat="49.10812" lon="-0.40505">
        <ele>57</ele>
        <time>2024-02-04T09:27:43Z</time>
      </trkpt>
      <trkpt lat="49.10804" lon="-0.40508">
        <ele>57</ele>
        <time>2024-02-04T09:27:44Z</time>
      </trkpt>
      <trkpt lat="49.10797" lon="-0.40511">
        <ele>57.1</ele>
        <time>2024-02-04T09:27:45Z</time>
      </trkpt>
      <trkpt lat="49.1079" lon="-0.40515">
        <ele>57.1</ele>
        <time>2024-02-04T09:27:46Z</time>
      </trkpt>
      <trkpt lat="49.10782" lon="-0.40518">
        <ele>57.1</ele>
        <time>2024-02-04T09:27:47Z</time>
      </trkpt>
      <trkpt lat="49.10775" lon="-0.40521">
        <ele>57.1</ele>
        <time>2024-02-04T09:27:48Z</time>
      </trkpt>
      <trkpt lat="49.10768" lon="-0.40524">
        <ele>57.1</ele>
        <time>2024-02-04T09:27:49Z</time>
      </trkpt>
      <trkpt lat="49.10761" lon="-0.40528">
        <ele>57.1</ele>
        <time>2024-02-04T09:27:50Z</time>
      </trkpt>
      <trkpt lat="49.10754" lon="-0.40531">
        <ele>57.1</ele>
        <time>2024-02-04T09:27:51Z</time>
      </trkpt>
      <trkpt lat="49.10747" lon="-0.40533">
        <ele>57.1</ele>
        <time>2024-02-04T09:27:52Z</time>
      </trkpt>
      <trkpt lat="49.10739" lon="-0.40536">
        <ele>57.1</ele>
        <time>2024-02-04T09:27:53Z</time>
      </trkpt>
      <trkpt lat="49.10732" lon="-0.40539">
        <ele>57.1</ele>
        <time>2024-02-04T09:27:54Z</time>
      </trkpt>
      <trkpt lat="49.10725" lon="-0.40541">
        <ele>57.1</ele>
        <time>2024-02-04T09:27:55Z</time>
      </trkpt>
      <trkpt lat="49.10718" lon="-0.40543">
        <ele>57.1</ele>
        <time>2024-02-04T09:27:56Z</time>
      </trkpt>
      <trkpt lat="49.1071" lon="-0.40545">
        <ele>57</ele>
        <time>2024-02-04T09:27:57Z</time>
      </trkpt>
      <trkpt lat="49.10703" lon="-0.40547">
        <ele>57</ele>
        <time>2024-02-04T09:27:58Z</time>
      </trkpt>
      <trkpt lat="49.10695" lon="-0.40548">
        <ele>57</ele>
        <time>2024-02-04T09:27:59Z</time>
      </trkpt>
      <trkpt lat="49.10688" lon="-0.40549">
        <ele>57</ele>
        <time>2024-02-04T09:28:00Z</time>
      </trkpt>
      <trkpt lat="49.1068" lon="-0.40549">
        <ele>57</ele>
        <time>2024-02-04T09:28:01Z</time>
      </trkpt>
      <trkpt lat="49.10672" lon="-0.40549">
        <ele>56.9</ele>
        <time>2024-02-04T09:28:02Z</time>
      </trkpt>
      <trkpt lat="49.10664" lon="-0.40549">
        <ele>56.9</ele>
        <time>2024-02-04T09:28:03Z</time>
      </trkpt>
      <trkpt lat="49.10656" lon="-0.40548">
        <ele>56.8</ele>
        <time>2024-02-04T09:28:04Z</time>
      </trkpt>
      <trkpt lat="49.10649" lon="-0.40548">
        <ele>56.8</ele>
        <time>2024-02-04T09:28:05Z</time>
      </trkpt>
      <trkpt lat="49.10641" lon="-0.40547">
        <ele>56.7</ele>
        <time>2024-02-04T09:28:06Z</time>
      </trkpt>
      <trkpt lat="49.10633" lon="-0.40547">
        <ele>56.7</ele>
        <time>2024-02-04T09:28:07Z</time>
      </trkpt>
      <trkpt lat="49.10624" lon="-0.40547">
        <ele>56.6</ele>
        <time>2024-02-04T09:28:08Z</time>
      </trkpt>
      <trkpt lat="49.10616" lon="-0.40546">
        <ele>56.5</ele>
        <time>2024-02-04T09:28:09Z</time>
      </trkpt>
      <trkpt lat="49.10609" lon="-0.40546">
        <ele>56.5</ele>
        <time>2024-02-04T09:28:10Z</time>
      </trkpt>
      <trkpt lat="49.106" lon="-0.40545">
        <ele>56.4</ele>
        <time>2024-02-04T09:28:11Z</time>
      </trkpt>
      <trkpt lat="49.10592" lon="-0.40545">
        <ele>56.3</ele>
        <time>2024-02-04T09:28:12Z</time>
      </trkpt>
      <trkpt lat="49.10584" lon="-0.40545">
        <ele>56.1</ele>
        <time>2024-02-04T09:28:13Z</time>
      </trkpt>
      <trkpt lat="49.10576" lon="-0.40544">
        <ele>56</ele>
        <time>2024-02-04T09:28:14Z</time>
      </trkpt>
      <trkpt lat="49.10568" lon="-0.40544">
        <ele>55.9</ele>
        <time>2024-02-04T09:28:15Z</time>
      </trkpt>
      <trkpt lat="49.1056" lon="-0.40543">
        <ele>55.8</ele>
        <time>2024-02-04T09:28:16Z</time>
      </trkpt>
      <trkpt lat="49.10552" lon="-0.40542">
        <ele>55.7</ele>
        <time>2024-02-04T09:28:17Z</time>
      </trkpt>
      <trkpt lat="49.10544" lon="-0.40542">
        <ele>55.6</ele>
        <time>2024-02-04T09:28:18Z</time>
      </trkpt>
      <trkpt lat="49.10536" lon="-0.40541">
        <ele>55.5</ele>
        <time>2024-02-04T09:28:19Z</time>
      </trkpt>
      <trkpt lat="49.10529" lon="-0.40541">
        <ele>55.4</ele>
        <time>2024-02-04T09:28:20Z</time>
      </trkpt>
      <trkpt lat="49.10521" lon="-0.4054">
        <ele>55.3</ele>
        <time>2024-02-04T09:28:21Z</time>
      </trkpt>
      <trkpt lat="49.10513" lon="-0.4054">
        <ele>55.2</ele>
        <time>2024-02-04T09:28:22Z</time>
      </trkpt>
      <trkpt lat="49.10506" lon="-0.40539">
        <ele>55.1</ele>
        <time>2024-02-04T09:28:23Z</time>
      </trkpt>
      <trkpt lat="49.10498" lon="-0.40538">
        <ele>55</ele>
        <time>2024-02-04T09:28:24Z</time>
      </trkpt>
      <trkpt lat="49.1049" lon="-0.40537">
        <ele>54.9</ele>
        <time>2024-02-04T09:28:25Z</time>
      </trkpt>
      <trkpt lat="49.10483" lon="-0.40537">
        <ele>54.9</ele>
        <time>2024-02-04T09:28:26Z</time>
      </trkpt>
      <trkpt lat="49.10475" lon="-0.40537">
        <ele>54.9</ele>
        <time>2024-02-04T09:28:27Z</time>
      </trkpt>
      <trkpt lat="49.1046" lon="-0.40537">
        <ele>54.8</ele>
        <time>2024-02-04T09:28:29Z</time>
      </trkpt>
      <trkpt lat="49.10453" lon="-0.40537">
        <ele>54.8</ele>
        <time>2024-02-04T09:28:30Z</time>
      </trkpt>
      <trkpt lat="49.10446" lon="-0.40537">
        <ele>54.8</ele>
        <time>2024-02-04T09:28:31Z</time>
      </trkpt>
      <trkpt lat="49.10439" lon="-0.40538">
        <ele>54.8</ele>
        <time>2024-02-04T09:28:32Z</time>
      </trkpt>
      <trkpt lat="49.10424" lon="-0.40542">
        <ele>54.7</ele>
        <time>2024-02-04T09:28:34Z</time>
      </trkpt>
      <trkpt lat="49.10416" lon="-0.40544">
        <ele>54.6</ele>
        <time>2024-02-04T09:28:35Z</time>
      </trkpt>
      <trkpt lat="49.10409" lon="-0.40547">
        <ele>54.5</ele>
        <time>2024-02-04T09:28:36Z</time>
      </trkpt>
      <trkpt lat="49.10401" lon="-0.4055">
        <ele>54.5</ele>
        <time>2024-02-04T09:28:37Z</time>
      </trkpt>
      <trkpt lat="49.10394" lon="-0.40553">
        <ele>54.4</ele>
        <time>2024-02-04T09:28:38Z</time>
      </trkpt>
      <trkpt lat="49.10387" lon="-0.40558">
        <ele>54.4</ele>
        <time>2024-02-04T09:28:39Z</time>
      </trkpt>
      <trkpt lat="49.10381" lon="-0.40562">
        <ele>54.3</ele>
        <time>2024-02-04T09:28:40Z</time>
      </trkpt>
      <trkpt lat="49.10374" lon="-0.40567">
        <ele>54.2</ele>
        <time>2024-02-04T09:28:41Z</time>
      </trkpt>
      <trkpt lat="49.10368" lon="-0.40574">
        <ele>54.1</ele>
        <time>2024-02-04T09:28:42Z</time>
      </trkpt>
      <trkpt lat="49.10362" lon="-0.40581">
        <ele>54.1</ele>
        <time>2024-02-04T09:28:43Z</time>
      </trkpt>
      <trkpt lat="49.10356" lon="-0.40589">
        <ele>54</ele>
        <time>2024-02-04T09:28:44Z</time>
      </trkpt>
      <trkpt lat="49.10349" lon="-0.40598">
        <ele>53.9</ele>
        <time>2024-02-04T09:28:45Z</time>
      </trkpt>
      <trkpt lat="49.10342" lon="-0.40605">
        <ele>53.8</ele>
        <time>2024-02-04T09:28:46Z</time>
      </trkpt>
      <trkpt lat="49.10336" lon="-0.40613">
        <ele>53.7</ele>
        <time>2024-02-04T09:28:47Z</time>
      </trkpt>
      <trkpt lat="49.10329" lon="-0.40619">
        <ele>53.6</ele>
        <time>2024-02-04T09:28:48Z</time>
      </trkpt>
      <trkpt lat="49.10315" lon="-0.40631">
        <ele>53.4</ele>
        <time>2024-02-04T09:28:50Z</time>
      </trkpt>
      <trkpt lat="49.10307" lon="-0.40636">
        <ele>53.3</ele>
        <time>2024-02-04T09:28:51Z</time>
      </trkpt>
      <trkpt lat="49.103" lon="-0.4064">
        <ele>53.2</ele>
        <time>2024-02-04T09:28:52Z</time>
      </trkpt>
      <trkpt lat="49.10293" lon="-0.40645">
        <ele>53.1</ele>
        <time>2024-02-04T09:28:53Z</time>
      </trkpt>
      <trkpt lat="49.10285" lon="-0.4065">
        <ele>53</ele>
        <time>2024-02-04T09:28:54Z</time>
      </trkpt>
      <trkpt lat="49.10278" lon="-0.40656">
        <ele>52.8</ele>
        <time>2024-02-04T09:28:55Z</time>
      </trkpt>
      <trkpt lat="49.10271" lon="-0.40662">
        <ele>52.7</ele>
        <time>2024-02-04T09:28:56Z</time>
      </trkpt>
      <trkpt lat="49.10264" lon="-0.40669">
        <ele>52.5</ele>
        <time>2024-02-04T09:28:57Z</time>
      </trkpt>
      <trkpt lat="49.10257" lon="-0.40676">
        <ele>52.3</ele>
        <time>2024-02-04T09:28:58Z</time>
      </trkpt>
      <trkpt lat="49.10252" lon="-0.40682">
        <ele>52.2</ele>
        <time>2024-02-04T09:28:59Z</time>
      </trkpt>
      <trkpt lat="49.10246" lon="-0.4069">
        <ele>52</ele>
        <time>2024-02-04T09:29:00Z</time>
      </trkpt>
      <trkpt lat="49.1024" lon="-0.40697">
        <ele>51.7</ele>
        <time>2024-02-04T09:29:01Z</time>
      </trkpt>
      <trkpt lat="49.10233" lon="-0.40703">
        <ele>51.4</ele>
        <time>2024-02-04T09:29:02Z</time>
      </trkpt>
      <trkpt lat="49.10225" lon="-0.40707">
        <ele>51</ele>
        <time>2024-02-04T09:29:03Z</time>
      </trkpt>
      <trkpt lat="49.10217" lon="-0.4071">
        <ele>50.6</ele>
        <time>2024-02-04T09:29:04Z</time>
      </trkpt>
      <trkpt lat="49.10208" lon="-0.4071">
        <ele>50.2</ele>
        <time>2024-02-04T09:29:05Z</time>
      </trkpt>
      <trkpt lat="49.102" lon="-0.4071">
        <ele>49.8</ele>
        <time>2024-02-04T09:29:06Z</time>
      </trkpt>
      <trkpt lat="49.10191" lon="-0.40711">
        <ele>49.3</ele>
        <time>2024-02-04T09:29:07Z</time>
      </trkpt>
      <trkpt lat="49.10183" lon="-0.40714">
        <ele>49.2</ele>
        <time>2024-02-04T09:29:08Z</time>
      </trkpt>
      <trkpt lat="49.10174" lon="-0.40717">
        <ele>48.5</ele>
        <time>2024-02-04T09:29:09Z</time>
      </trkpt>
      <trkpt lat="49.10165" lon="-0.4072">
        <ele>47.8</ele>
        <time>2024-02-04T09:29:10Z</time>
      </trkpt>
      <trkpt lat="49.10156" lon="-0.40724">
        <ele>47.1</ele>
        <time>2024-02-04T09:29:11Z</time>
      </trkpt>
      <trkpt lat="49.10148" lon="-0.40729">
        <ele>46.4</ele>
        <time>2024-02-04T09:29:12Z</time>
      </trkpt>
      <trkpt lat="49.10139" lon="-0.40736">
        <ele>45.6</ele>
        <time>2024-02-04T09:29:13Z</time>
      </trkpt>
      <trkpt lat="49.1013" lon="-0.40744">
        <ele>44.8</ele>
        <time>2024-02-04T09:29:14Z</time>
      </trkpt>
      <trkpt lat="49.10122" lon="-0.40752">
        <ele>44</ele>
        <time>2024-02-04T09:29:15Z</time>
      </trkpt>
      <trkpt lat="49.10113" lon="-0.4076">
        <ele>43.2</ele>
        <time>2024-02-04T09:29:16Z</time>
      </trkpt>
      <trkpt lat="49.10104" lon="-0.40768">
        <ele>42.5</ele>
        <time>2024-02-04T09:29:17Z</time>
      </trkpt>
      <trkpt lat="49.10094" lon="-0.40777">
        <ele>41.7</ele>
        <time>2024-02-04T09:29:18Z</time>
      </trkpt>
      <trkpt lat="49.10085" lon="-0.40786">
        <ele>40.8</ele>
        <time>2024-02-04T09:29:19Z</time>
      </trkpt>
      <trkpt lat="49.10076" lon="-0.40793">
        <ele>39.9</ele>
        <time>2024-02-04T09:29:20Z</time>
      </trkpt>
      <trkpt lat="49.10066" lon="-0.40797">
        <ele>39</ele>
        <time>2024-02-04T09:29:21Z</time>
      </trkpt>
      <trkpt lat="49.10055" lon="-0.40799">
        <ele>38.1</ele>
        <time>2024-02-04T09:29:22Z</time>
      </trkpt>
      <trkpt lat="49.10044" lon="-0.40801">
        <ele>37.2</ele>
        <time>2024-02-04T09:29:23Z</time>
      </trkpt>
      <trkpt lat="49.10033" lon="-0.40803">
        <ele>36.4</ele>
        <time>2024-02-04T09:29:24Z</time>
      </trkpt>
      <trkpt lat="49.10022" lon="-0.40806">
        <ele>35.6</ele>
        <time>2024-02-04T09:29:25Z</time>
      </trkpt>
      <trkpt lat="49.10011" lon="-0.40809">
        <ele>34.7</ele>
        <time>2024-02-04T09:29:26Z</time>
      </trkpt>
      <trkpt lat="49.09999" lon="-0.40811">
        <ele>33.8</ele>
        <time>2024-02-04T09:29:27Z</time>
      </trkpt>
      <trkpt lat="49.09987" lon="-0.40812">
        <ele>32.8</ele>
        <time>2024-02-04T09:29:28Z</time>
      </trkpt>
      <trkpt lat="49.09974" lon="-0.40811">
        <ele>31.9</ele>
        <time>2024-02-04T09:29:29Z</time>
      </trkpt>
      <trkpt lat="49.09961" lon="-0.40808">
        <ele>31.1</ele>
        <time>2024-02-04T09:29:30Z</time>
      </trkpt>
      <trkpt lat="49.0995" lon="-0.40804">
        <ele>30.5</ele>
        <time>2024-02-04T09:29:31Z</time>
      </trkpt>
      <trkpt lat="49.09937" lon="-0.40799">
        <ele>29.8</ele>
        <time>2024-02-04T09:29:32Z</time>
      </trkpt>
      <trkpt lat="49.09925" lon="-0.40794">
        <ele>29.2</ele>
        <time>2024-02-04T09:29:33Z</time>
      </trkpt>
      <trkpt lat="49.09914" lon="-0.40788">
        <ele>28.7</ele>
        <time>2024-02-04T09:29:34Z</time>
      </trkpt>
      <trkpt lat="49.09904" lon="-0.40783">
        <ele>28.2</ele>
        <time>2024-02-04T09:29:35Z</time>
      </trkpt>
      <trkpt lat="49.09894" lon="-0.4078">
        <ele>27.8</ele>
        <time>2024-02-04T09:29:36Z</time>
      </trkpt>
      <trkpt lat="49.09885" lon="-0.40777">
        <ele>27.4</ele>
        <time>2024-02-04T09:29:37Z</time>
      </trkpt>
      <trkpt lat="49.09877" lon="-0.40775">
        <ele>27.1</ele>
        <time>2024-02-04T09:29:38Z</time>
      </trkpt>
      <trkpt lat="49.09868" lon="-0.40777">
        <ele>26.7</ele>
        <time>2024-02-04T09:29:39Z</time>
      </trkpt>
      <trkpt lat="49.0986" lon="-0.40781">
        <ele>26.1</ele>
        <time>2024-02-04T09:29:40Z</time>
      </trkpt>
      <trkpt lat="49.09852" lon="-0.40787">
        <ele>25.5</ele>
        <time>2024-02-04T09:29:41Z</time>
      </trkpt>
      <trkpt lat="49.09846" lon="-0.40797">
        <ele>24.8</ele>
        <time>2024-02-04T09:29:42Z</time>
      </trkpt>
      <trkpt lat="49.09841" lon="-0.4081">
        <ele>24</ele>
        <time>2024-02-04T09:29:43Z</time>
      </trkpt>
      <trkpt lat="49.09837" lon="-0.40824">
        <ele>23.2</ele>
        <time>2024-02-04T09:29:44Z</time>
      </trkpt>
      <trkpt lat="49.09835" lon="-0.4084">
        <ele>22.4</ele>
        <time>2024-02-04T09:29:45Z</time>
      </trkpt>
      <trkpt lat="49.09834" lon="-0.40855">
        <ele>21.6</ele>
        <time>2024-02-04T09:29:46Z</time>
      </trkpt>
      <trkpt lat="49.09835" lon="-0.40871">
        <ele>20.8</ele>
        <time>2024-02-04T09:29:47Z</time>
      </trkpt>
      <trkpt lat="49.09837" lon="-0.40887">
        <ele>20</ele>
        <time>2024-02-04T09:29:48Z</time>
      </trkpt>
      <trkpt lat="49.0984" lon="-0.40903">
        <ele>19.1</ele>
        <time>2024-02-04T09:29:49Z</time>
      </trkpt>
      <trkpt lat="49.09842" lon="-0.4092">
        <ele>18.3</ele>
        <time>2024-02-04T09:29:50Z</time>
      </trkpt>
      <trkpt lat="49.09841" lon="-0.40937">
        <ele>17.4</ele>
        <time>2024-02-04T09:29:51Z</time>
      </trkpt>
      <trkpt lat="49.09841" lon="-0.40955">
        <ele>16.5</ele>
        <time>2024-02-04T09:29:52Z</time>
      </trkpt>
      <trkpt lat="49.09839" lon="-0.40973">
        <ele>15.6</ele>
        <time>2024-02-04T09:29:53Z</time>
      </trkpt>
      <trkpt lat="49.09837" lon="-0.4099">
        <ele>14.7</ele>
        <time>2024-02-04T09:29:54Z</time>
      </trkpt>
      <trkpt lat="49.09834" lon="-0.41007">
        <ele>14</ele>
        <time>2024-02-04T09:29:55Z</time>
      </trkpt>
      <trkpt lat="49.09832" lon="-0.41023">
        <ele>13.4</ele>
        <time>2024-02-04T09:29:56Z</time>
      </trkpt>
      <trkpt lat="49.09828" lon="-0.41036">
        <ele>12.8</ele>
        <time>2024-02-04T09:29:57Z</time>
      </trkpt>
      <trkpt lat="49.09824" lon="-0.41048">
        <ele>12.4</ele>
        <time>2024-02-04T09:29:58Z</time>
      </trkpt>
      <trkpt lat="49.0982" lon="-0.4106">
        <ele>11.9</ele>
        <time>2024-02-04T09:29:59Z</time>
      </trkpt>
      <trkpt lat="49.09818" lon="-0.41073">
        <ele>11.5</ele>
        <time>2024-02-04T09:30:00Z</time>
      </trkpt>
      <trkpt lat="49.09817" lon="-0.41086">
        <ele>11.1</ele>
        <time>2024-02-04T09:30:01Z</time>
      </trkpt>
      <trkpt lat="49.09819" lon="-0.411">
        <ele>10.7</ele>
        <time>2024-02-04T09:30:02Z</time>
      </trkpt>
      <trkpt lat="49.09822" lon="-0.41113">
        <ele>10.3</ele>
        <time>2024-02-04T09:30:03Z</time>
      </trkpt>
      <trkpt lat="49.09827" lon="-0.41125">
        <ele>9.9</ele>
        <time>2024-02-04T09:30:04Z</time>
      </trkpt>
      <trkpt lat="49.09831" lon="-0.41136">
        <ele>9.7</ele>
        <time>2024-02-04T09:30:05Z</time>
      </trkpt>
      <trkpt lat="49.09835" lon="-0.41149">
        <ele>9.7</ele>
        <time>2024-02-04T09:30:06Z</time>
      </trkpt>
      <trkpt lat="49.09835" lon="-0.41163">
        <ele>9.8</ele>
        <time>2024-02-04T09:30:07Z</time>
      </trkpt>
      <trkpt lat="49.09834" lon="-0.41176">
        <ele>9.9</ele>
        <time>2024-02-04T09:30:08Z</time>
      </trkpt>
      <trkpt lat="49.09832" lon="-0.4119">
        <ele>10.1</ele>
        <time>2024-02-04T09:30:09Z</time>
      </trkpt>
      <trkpt lat="49.0983" lon="-0.41204">
        <ele>10.3</ele>
        <time>2024-02-04T09:30:10Z</time>
      </trkpt>
      <trkpt lat="49.09827" lon="-0.41217">
        <ele>10.6</ele>
        <time>2024-02-04T09:30:11Z</time>
      </trkpt>
      <trkpt lat="49.09825" lon="-0.41229">
        <ele>10.8</ele>
        <time>2024-02-04T09:30:12Z</time>
      </trkpt>
      <trkpt lat="49.09823" lon="-0.41241">
        <ele>11</ele>
        <time>2024-02-04T09:30:13Z</time>
      </trkpt>
      <trkpt lat="49.0982" lon="-0.41252">
        <ele>11.2</ele>
        <time>2024-02-04T09:30:14Z</time>
      </trkpt>
      <trkpt lat="49.09816" lon="-0.41261">
        <ele>11.3</ele>
        <time>2024-02-04T09:30:15Z</time>
      </trkpt>
      <trkpt lat="49.0981" lon="-0.41269">
        <ele>11.5</ele>
        <time>2024-02-04T09:30:16Z</time>
      </trkpt>
      <trkpt lat="49.09804" lon="-0.41274">
        <ele>11.7</ele>
        <time>2024-02-04T09:30:17Z</time>
      </trkpt>
      <trkpt lat="49.09797" lon="-0.41275">
        <ele>11.9</ele>
        <time>2024-02-04T09:30:18Z</time>
      </trkpt>
      <trkpt lat="49.0979" lon="-0.41275">
        <ele>12.2</ele>
        <time>2024-02-04T09:30:19Z</time>
      </trkpt>
      <trkpt lat="49.09783" lon="-0.41274">
        <ele>12.5</ele>
        <time>2024-02-04T09:30:20Z</time>
      </trkpt>
      <trkpt lat="49.09777" lon="-0.41272">
        <ele>13</ele>
        <time>2024-02-04T09:30:21Z</time>
      </trkpt>
      <trkpt lat="49.0977" lon="-0.41271">
        <ele>13.5</ele>
        <time>2024-02-04T09:30:22Z</time>
      </trkpt>
      <trkpt lat="49.09764" lon="-0.41271">
        <ele>14</ele>
        <time>2024-02-04T09:30:23Z</time>
      </trkpt>
      <trkpt lat="49.09758" lon="-0.41271">
        <ele>14.5</ele>
        <time>2024-02-04T09:30:24Z</time>
      </trkpt>
      <trkpt lat="49.09752" lon="-0.41273">
        <ele>15</ele>
        <time>2024-02-04T09:30:25Z</time>
      </trkpt>
      <trkpt lat="49.09748" lon="-0.41277">
        <ele>15.4</ele>
        <time>2024-02-04T09:30:26Z</time>
      </trkpt>
      <trkpt lat="49.09743" lon="-0.41282">
        <ele>15.8</ele>
        <time>2024-02-04T09:30:27Z</time>
      </trkpt>
      <trkpt lat="49.0974" lon="-0.41287">
        <ele>16.2</ele>
        <time>2024-02-04T09:30:28Z</time>
      </trkpt>
      <trkpt lat="49.09737" lon="-0.41294">
        <ele>16.6</ele>
        <time>2024-02-04T09:30:29Z</time>
      </trkpt>
      <trkpt lat="49.09734" lon="-0.413">
        <ele>17</ele>
        <time>2024-02-04T09:30:30Z</time>
      </trkpt>
      <trkpt lat="49.09731" lon="-0.41307">
        <ele>17.4</ele>
        <time>2024-02-04T09:30:31Z</time>
      </trkpt>
      <trkpt lat="49.09729" lon="-0.41313">
        <ele>17.8</ele>
        <time>2024-02-04T09:30:32Z</time>
      </trkpt>
      <trkpt lat="49.09727" lon="-0.41319">
        <ele>18.1</ele>
        <time>2024-02-04T09:30:33Z</time>
      </trkpt>
      <trkpt lat="49.09725" lon="-0.41326">
        <ele>18.5</ele>
        <time>2024-02-04T09:30:34Z</time>
      </trkpt>
      <trkpt lat="49.09723" lon="-0.41332">
        <ele>18.8</ele>
        <time>2024-02-04T09:30:35Z</time>
      </trkpt>
      <trkpt lat="49.09721" lon="-0.41339">
        <ele>19.2</ele>
        <time>2024-02-04T09:30:36Z</time>
      </trkpt>
      <trkpt lat="49.09719" lon="-0.41345">
        <ele>19.5</ele>
        <time>2024-02-04T09:30:37Z</time>
      </trkpt>
      <trkpt lat="49.09716" lon="-0.41352">
        <ele>19.8</ele>
        <time>2024-02-04T09:30:38Z</time>
      </trkpt>
      <trkpt lat="49.09714" lon="-0.41358">
        <ele>20.1</ele>
        <time>2024-02-04T09:30:39Z</time>
      </trkpt>
      <trkpt lat="49.09713" lon="-0.41365">
        <ele>20.4</ele>
        <time>2024-02-04T09:30:40Z</time>
      </trkpt>
      <trkpt lat="49.0971" lon="-0.41371">
        <ele>20.7</ele>
        <time>2024-02-04T09:30:41Z</time>
      </trkpt>
      <trkpt lat="49.09708" lon="-0.41378">
        <ele>21</ele>
        <time>2024-02-04T09:30:42Z</time>
      </trkpt>
      <trkpt lat="49.09706" lon="-0.41384">
        <ele>21.3</ele>
        <time>2024-02-04T09:30:43Z</time>
      </trkpt>
      <trkpt lat="49.09703" lon="-0.4139">
        <ele>21.6</ele>
        <time>2024-02-04T09:30:44Z</time>
      </trkpt>
      <trkpt lat="49.09701" lon="-0.41397">
        <ele>22</ele>
        <time>2024-02-04T09:30:45Z</time>
      </trkpt>
      <trkpt lat="49.09699" lon="-0.41404">
        <ele>22.3</ele>
        <time>2024-02-04T09:30:46Z</time>
      </trkpt>
      <trkpt lat="49.09696" lon="-0.4141">
        <ele>22.6</ele>
        <time>2024-02-04T09:30:47Z</time>
      </trkpt>
      <trkpt lat="49.09694" lon="-0.41416">
        <ele>22.9</ele>
        <time>2024-02-04T09:30:48Z</time>
      </trkpt>
      <trkpt lat="49.09692" lon="-0.41423">
        <ele>23.2</ele>
        <time>2024-02-04T09:30:49Z</time>
      </trkpt>
      <trkpt lat="49.0969" lon="-0.41429">
        <ele>23.5</ele>
        <time>2024-02-04T09:30:50Z</time>
      </trkpt>
      <trkpt lat="49.09688" lon="-0.41435">
        <ele>23.8</ele>
        <time>2024-02-04T09:30:51Z</time>
      </trkpt>
      <trkpt lat="49.09686" lon="-0.41442">
        <ele>24.1</ele>
        <time>2024-02-04T09:30:52Z</time>
      </trkpt>
      <trkpt lat="49.09684" lon="-0.41448">
        <ele>24.4</ele>
        <time>2024-02-04T09:30:53Z</time>
      </trkpt>
      <trkpt lat="49.09681" lon="-0.41454">
        <ele>24.6</ele>
        <time>2024-02-04T09:30:54Z</time>
      </trkpt>
      <trkpt lat="49.0968" lon="-0.4146">
        <ele>24.9</ele>
        <time>2024-02-04T09:30:55Z</time>
      </trkpt>
      <trkpt lat="49.09677" lon="-0.41466">
        <ele>25.2</ele>
        <time>2024-02-04T09:30:56Z</time>
      </trkpt>
      <trkpt lat="49.09675" lon="-0.41472">
        <ele>25.5</ele>
        <time>2024-02-04T09:30:57Z</time>
      </trkpt>
      <trkpt lat="49.09672" lon="-0.41478">
        <ele>25.8</ele>
        <time>2024-02-04T09:30:58Z</time>
      </trkpt>
      <trkpt lat="49.0967" lon="-0.41485">
        <ele>26.1</ele>
        <time>2024-02-04T09:30:59Z</time>
      </trkpt>
      <trkpt lat="49.09667" lon="-0.41491">
        <ele>26.4</ele>
        <time>2024-02-04T09:31:00Z</time>
      </trkpt>
      <trkpt lat="49.09664" lon="-0.41499">
        <ele>26.6</ele>
        <time>2024-02-04T09:31:01Z</time>
      </trkpt>
      <trkpt lat="49.09661" lon="-0.41506">
        <ele>26.9</ele>
        <time>2024-02-04T09:31:02Z</time>
      </trkpt>
      <trkpt lat="49.09657" lon="-0.41512">
        <ele>27.1</ele>
        <time>2024-02-04T09:31:03Z</time>
      </trkpt>
      <trkpt lat="49.09654" lon="-0.41518">
        <ele>27.2</ele>
        <time>2024-02-04T09:31:04Z</time>
      </trkpt>
      <trkpt lat="49.09651" lon="-0.41525">
        <ele>27.4</ele>
        <time>2024-02-04T09:31:05Z</time>
      </trkpt>
      <trkpt lat="49.09648" lon="-0.41531">
        <ele>27.6</ele>
        <time>2024-02-04T09:31:06Z</time>
      </trkpt>
      <trkpt lat="49.09644" lon="-0.41537">
        <ele>27.7</ele>
        <time>2024-02-04T09:31:07Z</time>
      </trkpt>
      <trkpt lat="49.09641" lon="-0.41543">
        <ele>27.9</ele>
        <time>2024-02-04T09:31:08Z</time>
      </trkpt>
      <trkpt lat="49.09637" lon="-0.41548">
        <ele>28</ele>
        <time>2024-02-04T09:31:09Z</time>
      </trkpt>
      <trkpt lat="49.09633" lon="-0.41554">
        <ele>28.2</ele>
        <time>2024-02-04T09:31:10Z</time>
      </trkpt>
      <trkpt lat="49.09629" lon="-0.41559">
        <ele>28.4</ele>
        <time>2024-02-04T09:31:11Z</time>
      </trkpt>
      <trkpt lat="49.09626" lon="-0.41565">
        <ele>28.6</ele>
        <time>2024-02-04T09:31:12Z</time>
      </trkpt>
      <trkpt lat="49.09622" lon="-0.4157">
        <ele>28.8</ele>
        <time>2024-02-04T09:31:13Z</time>
      </trkpt>
      <trkpt lat="49.09619" lon="-0.41576">
        <ele>29</ele>
        <time>2024-02-04T09:31:14Z</time>
      </trkpt>
      <trkpt lat="49.09615" lon="-0.41581">
        <ele>29.3</ele>
        <time>2024-02-04T09:31:15Z</time>
      </trkpt>
      <trkpt lat="49.09612" lon="-0.41586">
        <ele>29.5</ele>
        <time>2024-02-04T09:31:16Z</time>
      </trkpt>
      <trkpt lat="49.09608" lon="-0.4159">
        <ele>29.8</ele>
        <time>2024-02-04T09:31:17Z</time>
      </trkpt>
      <trkpt lat="49.09605" lon="-0.41595">
        <ele>30</ele>
        <time>2024-02-04T09:31:18Z</time>
      </trkpt>
      <trkpt lat="49.09602" lon="-0.41599">
        <ele>30.3</ele>
        <time>2024-02-04T09:31:19Z</time>
      </trkpt>
      <trkpt lat="49.09599" lon="-0.41603">
        <ele>30.5</ele>
        <time>2024-02-04T09:31:20Z</time>
      </trkpt>
      <trkpt lat="49.09595" lon="-0.41607">
        <ele>30.7</ele>
        <time>2024-02-04T09:31:21Z</time>
      </trkpt>
      <trkpt lat="49.09592" lon="-0.4161">
        <ele>30.9</ele>
        <time>2024-02-04T09:31:22Z</time>
      </trkpt>
      <trkpt lat="49.09589" lon="-0.41614">
        <ele>31.2</ele>
        <time>2024-02-04T09:31:23Z</time>
      </trkpt>
      <trkpt lat="49.09586" lon="-0.41617">
        <ele>31.4</ele>
        <time>2024-02-04T09:31:24Z</time>
      </trkpt>
      <trkpt lat="49.09583" lon="-0.41621">
        <ele>31.6</ele>
        <time>2024-02-04T09:31:25Z</time>
      </trkpt>
      <trkpt lat="49.09579" lon="-0.41624">
        <ele>31.8</ele>
        <time>2024-02-04T09:31:26Z</time>
      </trkpt>
      <trkpt lat="49.09576" lon="-0.41628">
        <ele>32.1</ele>
        <time>2024-02-04T09:31:27Z</time>
      </trkpt>
      <trkpt lat="49.09573" lon="-0.41632">
        <ele>32.3</ele>
        <time>2024-02-04T09:31:28Z</time>
      </trkpt>
      <trkpt lat="49.0957" lon="-0.41637">
        <ele>32.5</ele>
        <time>2024-02-04T09:31:29Z</time>
      </trkpt>
      <trkpt lat="49.09567" lon="-0.41642">
        <ele>32.7</ele>
        <time>2024-02-04T09:31:30Z</time>
      </trkpt>
      <trkpt lat="49.09563" lon="-0.41646">
        <ele>32.9</ele>
        <time>2024-02-04T09:31:31Z</time>
      </trkpt>
      <trkpt lat="49.09559" lon="-0.4165">
        <ele>33</ele>
        <time>2024-02-04T09:31:32Z</time>
      </trkpt>
      <trkpt lat="49.09555" lon="-0.41654">
        <ele>33.2</ele>
        <time>2024-02-04T09:31:33Z</time>
      </trkpt>
      <trkpt lat="49.09552" lon="-0.41659">
        <ele>33.4</ele>
        <time>2024-02-04T09:31:34Z</time>
      </trkpt>
      <trkpt lat="49.09548" lon="-0.41664">
        <ele>33.5</ele>
        <time>2024-02-04T09:31:35Z</time>
      </trkpt>
      <trkpt lat="49.09544" lon="-0.41669">
        <ele>33.7</ele>
        <time>2024-02-04T09:31:36Z</time>
      </trkpt>
      <trkpt lat="49.09541" lon="-0.41674">
        <ele>33.8</ele>
        <time>2024-02-04T09:31:37Z</time>
      </trkpt>
      <trkpt lat="49.09537" lon="-0.4168">
        <ele>33.9</ele>
        <time>2024-02-04T09:31:38Z</time>
      </trkpt>
      <trkpt lat="49.09533" lon="-0.41685">
        <ele>34</ele>
        <time>2024-02-04T09:31:39Z</time>
      </trkpt>
      <trkpt lat="49.09529" lon="-0.4169">
        <ele>34.1</ele>
        <time>2024-02-04T09:31:40Z</time>
      </trkpt>
      <trkpt lat="49.09525" lon="-0.41695">
        <ele>34.2</ele>
        <time>2024-02-04T09:31:41Z</time>
      </trkpt>
      <trkpt lat="49.09521" lon="-0.41701">
        <ele>34.4</ele>
        <time>2024-02-04T09:31:42Z</time>
      </trkpt>
      <trkpt lat="49.09517" lon="-0.41706">
        <ele>34.5</ele>
        <time>2024-02-04T09:31:43Z</time>
      </trkpt>
      <trkpt lat="49.09513" lon="-0.41712">
        <ele>34.6</ele>
        <time>2024-02-04T09:31:44Z</time>
      </trkpt>
      <trkpt lat="49.09509" lon="-0.41718">
        <ele>34.6</ele>
        <time>2024-02-04T09:31:45Z</time>
      </trkpt>
      <trkpt lat="49.09505" lon="-0.41724">
        <ele>34.7</ele>
        <time>2024-02-04T09:31:46Z</time>
      </trkpt>
      <trkpt lat="49.09502" lon="-0.41731">
        <ele>34.8</ele>
        <time>2024-02-04T09:31:47Z</time>
      </trkpt>
      <trkpt lat="49.09498" lon="-0.41738">
        <ele>34.9</ele>
        <time>2024-02-04T09:31:48Z</time>
      </trkpt>
      <trkpt lat="49.09495" lon="-0.41746">
        <ele>34.9</ele>
        <time>2024-02-04T09:31:49Z</time>
      </trkpt>
      <trkpt lat="49.09492" lon="-0.41753">
        <ele>35</ele>
        <time>2024-02-04T09:31:50Z</time>
      </trkpt>
      <trkpt lat="49.0949" lon="-0.41761">
        <ele>35</ele>
        <time>2024-02-04T09:31:51Z</time>
      </trkpt>
      <trkpt lat="49.09488" lon="-0.41769">
        <ele>35.1</ele>
        <time>2024-02-04T09:31:52Z</time>
      </trkpt>
      <trkpt lat="49.09485" lon="-0.41777">
        <ele>35.2</ele>
        <time>2024-02-04T09:31:53Z</time>
      </trkpt>
      <trkpt lat="49.09482" lon="-0.41785">
        <ele>35.2</ele>
        <time>2024-02-04T09:31:54Z</time>
      </trkpt>
      <trkpt lat="49.09479" lon="-0.41793">
        <ele>35.3</ele>
        <time>2024-02-04T09:31:55Z</time>
      </trkpt>
      <trkpt lat="49.09476" lon="-0.41801">
        <ele>35.3</ele>
        <time>2024-02-04T09:31:56Z</time>
      </trkpt>
      <trkpt lat="49.09472" lon="-0.41807">
        <ele>35.4</ele>
        <time>2024-02-04T09:31:57Z</time>
      </trkpt>
      <trkpt lat="49.09467" lon="-0.41814">
        <ele>35.4</ele>
        <time>2024-02-04T09:31:58Z</time>
      </trkpt>
      <trkpt lat="49.09462" lon="-0.4182">
        <ele>35.5</ele>
        <time>2024-02-04T09:31:59Z</time>
      </trkpt>
      <trkpt lat="49.09452" lon="-0.41829">
        <ele>35.7</ele>
        <time>2024-02-04T09:32:01Z</time>
      </trkpt>
      <trkpt lat="49.09446" lon="-0.41833">
        <ele>35.8</ele>
        <time>2024-02-04T09:32:02Z</time>
      </trkpt>
      <trkpt lat="49.09441" lon="-0.41838">
        <ele>35.9</ele>
        <time>2024-02-04T09:32:03Z</time>
      </trkpt>
      <trkpt lat="49.09436" lon="-0.41842">
        <ele>36</ele>
        <time>2024-02-04T09:32:04Z</time>
      </trkpt>
      <trkpt lat="49.0943" lon="-0.41846">
        <ele>36.1</ele>
        <time>2024-02-04T09:32:05Z</time>
      </trkpt>
      <trkpt lat="49.09424" lon="-0.4185">
        <ele>36.3</ele>
        <time>2024-02-04T09:32:06Z</time>
      </trkpt>
      <trkpt lat="49.09419" lon="-0.41854">
        <ele>36.4</ele>
        <time>2024-02-04T09:32:07Z</time>
      </trkpt>
      <trkpt lat="49.09414" lon="-0.41858">
        <ele>36.5</ele>
        <time>2024-02-04T09:32:08Z</time>
      </trkpt>
      <trkpt lat="49.09408" lon="-0.41862">
        <ele>36.6</ele>
        <time>2024-02-04T09:32:09Z</time>
      </trkpt>
      <trkpt lat="49.09403" lon="-0.41866">
        <ele>36.7</ele>
        <time>2024-02-04T09:32:10Z</time>
      </trkpt>
      <trkpt lat="49.09397" lon="-0.4187">
        <ele>36.9</ele>
        <time>2024-02-04T09:32:11Z</time>
      </trkpt>
      <trkpt lat="49.09392" lon="-0.41874">
        <ele>37</ele>
        <time>2024-02-04T09:32:12Z</time>
      </trkpt>
      <trkpt lat="49.09387" lon="-0.41879">
        <ele>37.1</ele>
        <time>2024-02-04T09:32:13Z</time>
      </trkpt>
      <trkpt lat="49.09382" lon="-0.41884">
        <ele>37.2</ele>
        <time>2024-02-04T09:32:14Z</time>
      </trkpt>
      <trkpt lat="49.09377" lon="-0.41889">
        <ele>37.3</ele>
        <time>2024-02-04T09:32:15Z</time>
      </trkpt>
      <trkpt lat="49.09373" lon="-0.41894">
        <ele>37.5</ele>
        <time>2024-02-04T09:32:16Z</time>
      </trkpt>
      <trkpt lat="49.09368" lon="-0.419">
        <ele>37.6</ele>
        <time>2024-02-04T09:32:17Z</time>
      </trkpt>
      <trkpt lat="49.09364" lon="-0.41905">
        <ele>37.7</ele>
        <time>2024-02-04T09:32:18Z</time>
      </trkpt>
      <trkpt lat="49.0936" lon="-0.41911">
        <ele>37.9</ele>
        <time>2024-02-04T09:32:19Z</time>
      </trkpt>
      <trkpt lat="49.09356" lon="-0.41918">
        <ele>38</ele>
        <time>2024-02-04T09:32:20Z</time>
      </trkpt>
      <trkpt lat="49.09352" lon="-0.41924">
        <ele>38.1</ele>
        <time>2024-02-04T09:32:21Z</time>
      </trkpt>
      <trkpt lat="49.09348" lon="-0.41931">
        <ele>38.2</ele>
        <time>2024-02-04T09:32:22Z</time>
      </trkpt>
      <trkpt lat="49.09345" lon="-0.41938">
        <ele>38.4</ele>
        <time>2024-02-04T09:32:23Z</time>
      </trkpt>
      <trkpt lat="49.09341" lon="-0.41946">
        <ele>38.4</ele>
        <time>2024-02-04T09:32:24Z</time>
      </trkpt>
      <trkpt lat="49.09337" lon="-0.41953">
        <ele>38.5</ele>
        <time>2024-02-04T09:32:25Z</time>
      </trkpt>
      <trkpt lat="49.09334" lon="-0.4196">
        <ele>38.6</ele>
        <time>2024-02-04T09:32:26Z</time>
      </trkpt>
      <trkpt lat="49.0933" lon="-0.41968">
        <ele>38.7</ele>
        <time>2024-02-04T09:32:27Z</time>
      </trkpt>
      <trkpt lat="49.09327" lon="-0.41976">
        <ele>38.8</ele>
        <time>2024-02-04T09:32:28Z</time>
      </trkpt>
      <trkpt lat="49.09323" lon="-0.41984">
        <ele>38.9</ele>
        <time>2024-02-04T09:32:29Z</time>
      </trkpt>
      <trkpt lat="49.09319" lon="-0.41991">
        <ele>39.1</ele>
        <time>2024-02-04T09:32:30Z</time>
      </trkpt>
      <trkpt lat="49.09316" lon="-0.41999">
        <ele>39.2</ele>
        <time>2024-02-04T09:32:31Z</time>
      </trkpt>
      <trkpt lat="49.09313" lon="-0.42007">
        <ele>39.4</ele>
        <time>2024-02-04T09:32:32Z</time>
      </trkpt>
      <trkpt lat="49.0931" lon="-0.42015">
        <ele>39.6</ele>
        <time>2024-02-04T09:32:33Z</time>
      </trkpt>
      <trkpt lat="49.09307" lon="-0.42022">
        <ele>39.7</ele>
        <time>2024-02-04T09:32:34Z</time>
      </trkpt>
      <trkpt lat="49.09304" lon="-0.4203">
        <ele>39.9</ele>
        <time>2024-02-04T09:32:35Z</time>
      </trkpt>
      <trkpt lat="49.09301" lon="-0.42037">
        <ele>40.1</ele>
        <time>2024-02-04T09:32:36Z</time>
      </trkpt>
      <trkpt lat="49.09298" lon="-0.42045">
        <ele>40.3</ele>
        <time>2024-02-04T09:32:37Z</time>
      </trkpt>
      <trkpt lat="49.09296" lon="-0.42052">
        <ele>40.6</ele>
        <time>2024-02-04T09:32:38Z</time>
      </trkpt>
      <trkpt lat="49.09293" lon="-0.42059">
        <ele>40.8</ele>
        <time>2024-02-04T09:32:39Z</time>
      </trkpt>
      <trkpt lat="49.09291" lon="-0.42067">
        <ele>41</ele>
        <time>2024-02-04T09:32:40Z</time>
      </trkpt>
      <trkpt lat="49.09289" lon="-0.42074">
        <ele>41.3</ele>
        <time>2024-02-04T09:32:41Z</time>
      </trkpt>
      <trkpt lat="49.09286" lon="-0.42082">
        <ele>41.5</ele>
        <time>2024-02-04T09:32:42Z</time>
      </trkpt>
      <trkpt lat="49.09283" lon="-0.4209">
        <ele>41.8</ele>
        <time>2024-02-04T09:32:43Z</time>
      </trkpt>
      <trkpt lat="49.09281" lon="-0.42097">
        <ele>42</ele>
        <time>2024-02-04T09:32:44Z</time>
      </trkpt>
      <trkpt lat="49.09279" lon="-0.42105">
        <ele>42.2</ele>
        <time>2024-02-04T09:32:45Z</time>
      </trkpt>
      <trkpt lat="49.09276" lon="-0.42113">
        <ele>42.4</ele>
        <time>2024-02-04T09:32:46Z</time>
      </trkpt>
      <trkpt lat="49.09274" lon="-0.42121">
        <ele>42.6</ele>
        <time>2024-02-04T09:32:47Z</time>
      </trkpt>
      <trkpt lat="49.09271" lon="-0.42128">
        <ele>42.8</ele>
        <time>2024-02-04T09:32:48Z</time>
      </trkpt>
      <trkpt lat="49.09268" lon="-0.42136">
        <ele>42.9</ele>
        <time>2024-02-04T09:32:49Z</time>
      </trkpt>
      <trkpt lat="49.09266" lon="-0.42143">
        <ele>43</ele>
        <time>2024-02-04T09:32:50Z</time>
      </trkpt>
      <trkpt lat="49.09263" lon="-0.4215">
        <ele>43.1</ele>
        <time>2024-02-04T09:32:51Z</time>
      </trkpt>
      <trkpt lat="49.0926" lon="-0.42158">
        <ele>43.2</ele>
        <time>2024-02-04T09:32:52Z</time>
      </trkpt>
      <trkpt lat="49.09257" lon="-0.42165">
        <ele>43.2</ele>
        <time>2024-02-04T09:32:53Z</time>
      </trkpt>
      <trkpt lat="49.09253" lon="-0.42172">
        <ele>43.2</ele>
        <time>2024-02-04T09:32:54Z</time>
      </trkpt>
      <trkpt lat="49.09249" lon="-0.42179">
        <ele>43.2</ele>
        <time>2024-02-04T09:32:55Z</time>
      </trkpt>
      <trkpt lat="49.09245" lon="-0.42187">
        <ele>43.1</ele>
        <time>2024-02-04T09:32:56Z</time>
      </trkpt>
      <trkpt lat="49.0924" lon="-0.42194">
        <ele>43</ele>
        <time>2024-02-04T09:32:57Z</time>
      </trkpt>
      <trkpt lat="49.09235" lon="-0.42201">
        <ele>43</ele>
        <time>2024-02-04T09:32:58Z</time>
      </trkpt>
      <trkpt lat="49.0923" lon="-0.42208">
        <ele>42.9</ele>
        <time>2024-02-04T09:32:59Z</time>
      </trkpt>
      <trkpt lat="49.09224" lon="-0.42215">
        <ele>42.8</ele>
        <time>2024-02-04T09:33:00Z</time>
      </trkpt>
      <trkpt lat="49.09219" lon="-0.42222">
        <ele>42.7</ele>
        <time>2024-02-04T09:33:01Z</time>
      </trkpt>
      <trkpt lat="49.09214" lon="-0.42229">
        <ele>42.6</ele>
        <time>2024-02-04T09:33:02Z</time>
      </trkpt>
      <trkpt lat="49.09208" lon="-0.42235">
        <ele>42.5</ele>
        <time>2024-02-04T09:33:03Z</time>
      </trkpt>
      <trkpt lat="49.09202" lon="-0.42241">
        <ele>42.5</ele>
        <time>2024-02-04T09:33:04Z</time>
      </trkpt>
      <trkpt lat="49.09196" lon="-0.42248">
        <ele>42.4</ele>
        <time>2024-02-04T09:33:05Z</time>
      </trkpt>
      <trkpt lat="49.09191" lon="-0.42255">
        <ele>42.3</ele>
        <time>2024-02-04T09:33:06Z</time>
      </trkpt>
      <trkpt lat="49.09185" lon="-0.42262">
        <ele>42.1</ele>
        <time>2024-02-04T09:33:07Z</time>
      </trkpt>
      <trkpt lat="49.09179" lon="-0.4227">
        <ele>42</ele>
        <time>2024-02-04T09:33:08Z</time>
      </trkpt>
      <trkpt lat="49.09173" lon="-0.42278">
        <ele>41.8</ele>
        <time>2024-02-04T09:33:09Z</time>
      </trkpt>
      <trkpt lat="49.09167" lon="-0.42286">
        <ele>41.6</ele>
        <time>2024-02-04T09:33:10Z</time>
      </trkpt>
      <trkpt lat="49.09161" lon="-0.42294">
        <ele>41.4</ele>
        <time>2024-02-04T09:33:11Z</time>
      </trkpt>
      <trkpt lat="49.09155" lon="-0.42302">
        <ele>41.3</ele>
        <time>2024-02-04T09:33:12Z</time>
      </trkpt>
      <trkpt lat="49.09149" lon="-0.4231">
        <ele>41.1</ele>
        <time>2024-02-04T09:33:13Z</time>
      </trkpt>
      <trkpt lat="49.09142" lon="-0.42318">
        <ele>41</ele>
        <time>2024-02-04T09:33:14Z</time>
      </trkpt>
      <trkpt lat="49.09136" lon="-0.42326">
        <ele>40.9</ele>
        <time>2024-02-04T09:33:15Z</time>
      </trkpt>
      <trkpt lat="49.0913" lon="-0.42333">
        <ele>40.8</ele>
        <time>2024-02-04T09:33:16Z</time>
      </trkpt>
      <trkpt lat="49.09123" lon="-0.42341">
        <ele>40.7</ele>
        <time>2024-02-04T09:33:17Z</time>
      </trkpt>
      <trkpt lat="49.09117" lon="-0.42348">
        <ele>40.6</ele>
        <time>2024-02-04T09:33:18Z</time>
      </trkpt>
      <trkpt lat="49.09111" lon="-0.42356">
        <ele>40.6</ele>
        <time>2024-02-04T09:33:19Z</time>
      </trkpt>
      <trkpt lat="49.09105" lon="-0.42364">
        <ele>40.6</ele>
        <time>2024-02-04T09:33:20Z</time>
      </trkpt>
      <trkpt lat="49.09098" lon="-0.42372">
        <ele>40.5</ele>
        <time>2024-02-04T09:33:21Z</time>
      </trkpt>
      <trkpt lat="49.09092" lon="-0.42379">
        <ele>40.4</ele>
        <time>2024-02-04T09:33:22Z</time>
      </trkpt>
      <trkpt lat="49.09086" lon="-0.42386">
        <ele>40.4</ele>
        <time>2024-02-04T09:33:23Z</time>
      </trkpt>
      <trkpt lat="49.0908" lon="-0.42394">
        <ele>40.3</ele>
        <time>2024-02-04T09:33:24Z</time>
      </trkpt>
      <trkpt lat="49.09073" lon="-0.42401">
        <ele>40.2</ele>
        <time>2024-02-04T09:33:25Z</time>
      </trkpt>
      <trkpt lat="49.09067" lon="-0.42408">
        <ele>40.1</ele>
        <time>2024-02-04T09:33:26Z</time>
      </trkpt>
      <trkpt lat="49.0906" lon="-0.42414">
        <ele>39.9</ele>
        <time>2024-02-04T09:33:27Z</time>
      </trkpt>
      <trkpt lat="49.09053" lon="-0.42421">
        <ele>39.8</ele>
        <time>2024-02-04T09:33:28Z</time>
      </trkpt>
      <trkpt lat="49.09047" lon="-0.42429">
        <ele>39.6</ele>
        <time>2024-02-04T09:33:29Z</time>
      </trkpt>
      <trkpt lat="49.09039" lon="-0.42436">
        <ele>39.4</ele>
        <time>2024-02-04T09:33:30Z</time>
      </trkpt>
      <trkpt lat="49.09032" lon="-0.42443">
        <ele>39.1</ele>
        <time>2024-02-04T09:33:31Z</time>
      </trkpt>
      <trkpt lat="49.09024" lon="-0.42449">
        <ele>38.7</ele>
        <time>2024-02-04T09:33:32Z</time>
      </trkpt>
      <trkpt lat="49.09016" lon="-0.42456">
        <ele>38.3</ele>
        <time>2024-02-04T09:33:33Z</time>
      </trkpt>
      <trkpt lat="49.09009" lon="-0.42463">
        <ele>37.9</ele>
        <time>2024-02-04T09:33:34Z</time>
      </trkpt>
      <trkpt lat="49.09" lon="-0.42469">
        <ele>37.5</ele>
        <time>2024-02-04T09:33:35Z</time>
      </trkpt>
      <trkpt lat="49.08992" lon="-0.42475">
        <ele>36.9</ele>
        <time>2024-02-04T09:33:36Z</time>
      </trkpt>
      <trkpt lat="49.08983" lon="-0.4248">
        <ele>36.4</ele>
        <time>2024-02-04T09:33:37Z</time>
      </trkpt>
      <trkpt lat="49.08974" lon="-0.42485">
        <ele>35.8</ele>
        <time>2024-02-04T09:33:38Z</time>
      </trkpt>
      <trkpt lat="49.08964" lon="-0.4249">
        <ele>35.1</ele>
        <time>2024-02-04T09:33:39Z</time>
      </trkpt>
      <trkpt lat="49.08954" lon="-0.42495">
        <ele>34.3</ele>
        <time>2024-02-04T09:33:40Z</time>
      </trkpt>
      <trkpt lat="49.08944" lon="-0.42501">
        <ele>33.4</ele>
        <time>2024-02-04T09:33:41Z</time>
      </trkpt>
      <trkpt lat="49.08934" lon="-0.42508">
        <ele>32.4</ele>
        <time>2024-02-04T09:33:42Z</time>
      </trkpt>
      <trkpt lat="49.08924" lon="-0.42515">
        <ele>31.4</ele>
        <time>2024-02-04T09:33:43Z</time>
      </trkpt>
      <trkpt lat="49.08914" lon="-0.42523">
        <ele>30.4</ele>
        <time>2024-02-04T09:33:44Z</time>
      </trkpt>
      <trkpt lat="49.08904" lon="-0.42531">
        <ele>29.3</ele>
        <time>2024-02-04T09:33:45Z</time>
      </trkpt>
      <trkpt lat="49.08894" lon="-0.42539">
        <ele>28.2</ele>
        <time>2024-02-04T09:33:46Z</time>
      </trkpt>
      <trkpt lat="49.08885" lon="-0.42546">
        <ele>27.2</ele>
        <time>2024-02-04T09:33:47Z</time>
      </trkpt>
      <trkpt lat="49.08875" lon="-0.42553">
        <ele>26.1</ele>
        <time>2024-02-04T09:33:48Z</time>
      </trkpt>
      <trkpt lat="49.08866" lon="-0.4256">
        <ele>25</ele>
        <time>2024-02-04T09:33:49Z</time>
      </trkpt>
      <trkpt lat="49.08857" lon="-0.42566">
        <ele>24</ele>
        <time>2024-02-04T09:33:50Z</time>
      </trkpt>
      <trkpt lat="49.08848" lon="-0.42571">
        <ele>23</ele>
        <time>2024-02-04T09:33:51Z</time>
      </trkpt>
      <trkpt lat="49.08839" lon="-0.42574">
        <ele>22.1</ele>
        <time>2024-02-04T09:33:52Z</time>
      </trkpt>
      <trkpt lat="49.0883" lon="-0.42576">
        <ele>21.2</ele>
        <time>2024-02-04T09:33:53Z</time>
      </trkpt>
      <trkpt lat="49.08821" lon="-0.42577">
        <ele>20.2</ele>
        <time>2024-02-04T09:33:54Z</time>
      </trkpt>
      <trkpt lat="49.08812" lon="-0.42578">
        <ele>19.3</ele>
        <time>2024-02-04T09:33:55Z</time>
      </trkpt>
      <trkpt lat="49.08803" lon="-0.42578">
        <ele>18.4</ele>
        <time>2024-02-04T09:33:56Z</time>
      </trkpt>
      <trkpt lat="49.08794" lon="-0.42576">
        <ele>17.7</ele>
        <time>2024-02-04T09:33:57Z</time>
      </trkpt>
      <trkpt lat="49.08785" lon="-0.42574">
        <ele>17</ele>
        <time>2024-02-04T09:33:58Z</time>
      </trkpt>
      <trkpt lat="49.08776" lon="-0.42571">
        <ele>16.4</ele>
        <time>2024-02-04T09:33:59Z</time>
      </trkpt>
      <trkpt lat="49.08766" lon="-0.42567">
        <ele>15.6</ele>
        <time>2024-02-04T09:34:00Z</time>
      </trkpt>
      <trkpt lat="49.08757" lon="-0.42565">
        <ele>14.9</ele>
        <time>2024-02-04T09:34:01Z</time>
      </trkpt>
      <trkpt lat="49.08747" lon="-0.42564">
        <ele>14.2</ele>
        <time>2024-02-04T09:34:02Z</time>
      </trkpt>
      <trkpt lat="49.08737" lon="-0.42564">
        <ele>13.7</ele>
        <time>2024-02-04T09:34:03Z</time>
      </trkpt>
      <trkpt lat="49.08727" lon="-0.42566">
        <ele>13.1</ele>
        <time>2024-02-04T09:34:04Z</time>
      </trkpt>
      <trkpt lat="49.08717" lon="-0.42567">
        <ele>12.7</ele>
        <time>2024-02-04T09:34:05Z</time>
      </trkpt>
      <trkpt lat="49.08707" lon="-0.42569">
        <ele>12.4</ele>
        <time>2024-02-04T09:34:06Z</time>
      </trkpt>
      <trkpt lat="49.08698" lon="-0.42571">
        <ele>12.1</ele>
        <time>2024-02-04T09:34:07Z</time>
      </trkpt>
      <trkpt lat="49.08689" lon="-0.42574">
        <ele>12</ele>
        <time>2024-02-04T09:34:08Z</time>
      </trkpt>
      <trkpt lat="49.0868" lon="-0.42577">
        <ele>11.9</ele>
        <time>2024-02-04T09:34:09Z</time>
      </trkpt>
      <trkpt lat="49.08671" lon="-0.42581">
        <ele>11.9</ele>
        <time>2024-02-04T09:34:10Z</time>
      </trkpt>
      <trkpt lat="49.08662" lon="-0.42584">
        <ele>12</ele>
        <time>2024-02-04T09:34:11Z</time>
      </trkpt>
      <trkpt lat="49.08654" lon="-0.42587">
        <ele>12.1</ele>
        <time>2024-02-04T09:34:12Z</time>
      </trkpt>
      <trkpt lat="49.08645" lon="-0.42591">
        <ele>12.3</ele>
        <time>2024-02-04T09:34:13Z</time>
      </trkpt>
      <trkpt lat="49.08637" lon="-0.42594">
        <ele>12.5</ele>
        <time>2024-02-04T09:34:14Z</time>
      </trkpt>
      <trkpt lat="49.0863" lon="-0.42596">
        <ele>12.7</ele>
        <time>2024-02-04T09:34:15Z</time>
      </trkpt>
      <trkpt lat="49.08622" lon="-0.42599">
        <ele>12.8</ele>
        <time>2024-02-04T09:34:16Z</time>
      </trkpt>
      <trkpt lat="49.08615" lon="-0.42602">
        <ele>12.8</ele>
        <time>2024-02-04T09:34:17Z</time>
      </trkpt>
      <trkpt lat="49.08609" lon="-0.42605">
        <ele>13</ele>
        <time>2024-02-04T09:34:18Z</time>
      </trkpt>
      <trkpt lat="49.08603" lon="-0.42607">
        <ele>13.1</ele>
        <time>2024-02-04T09:34:19Z</time>
      </trkpt>
      <trkpt lat="49.08598" lon="-0.42609">
        <ele>13.3</ele>
        <time>2024-02-04T09:34:20Z</time>
      </trkpt>
      <trkpt lat="49.08593" lon="-0.42611">
        <ele>13.5</ele>
        <time>2024-02-04T09:34:21Z</time>
      </trkpt>
      <trkpt lat="49.08589" lon="-0.42612">
        <ele>13.8</ele>
        <time>2024-02-04T09:34:22Z</time>
      </trkpt>
      <trkpt lat="49.08585" lon="-0.42609">
        <ele>13.9</ele>
        <time>2024-02-04T09:34:23Z</time>
      </trkpt>
      <trkpt lat="49.08582" lon="-0.42603">
        <ele>14.1</ele>
        <time>2024-02-04T09:34:24Z</time>
      </trkpt>
      <trkpt lat="49.08579" lon="-0.42596">
        <ele>14.1</ele>
        <time>2024-02-04T09:34:25Z</time>
      </trkpt>
      <trkpt lat="49.08576" lon="-0.42587">
        <ele>14</ele>
        <time>2024-02-04T09:34:26Z</time>
      </trkpt>
      <trkpt lat="49.08574" lon="-0.42577">
        <ele>14</ele>
        <time>2024-02-04T09:34:27Z</time>
      </trkpt>
      <trkpt lat="49.08572" lon="-0.42567">
        <ele>14</ele>
        <time>2024-02-04T09:34:28Z</time>
      </trkpt>
      <trkpt lat="49.0857" lon="-0.42557">
        <ele>14</ele>
        <time>2024-02-04T09:34:29Z</time>
      </trkpt>
      <trkpt lat="49.08568" lon="-0.42548">
        <ele>14</ele>
        <time>2024-02-04T09:34:30Z</time>
      </trkpt>
      <trkpt lat="49.08567" lon="-0.42539">
        <ele>14</ele>
        <time>2024-02-04T09:34:31Z</time>
      </trkpt>
      <trkpt lat="49.08566" lon="-0.4253">
        <ele>14</ele>
        <time>2024-02-04T09:34:32Z</time>
      </trkpt>
      <trkpt lat="49.08565" lon="-0.42523">
        <ele>14.1</ele>
        <time>2024-02-04T09:34:33Z</time>
      </trkpt>
      <trkpt lat="49.08564" lon="-0.42517">
        <ele>14.1</ele>
        <time>2024-02-04T09:34:34Z</time>
      </trkpt>
      <trkpt lat="49.08564" lon="-0.42512">
        <ele>14.1</ele>
        <time>2024-02-04T09:34:35Z</time>
      </trkpt>
      <trkpt lat="49.08563" lon="-0.42508">
        <ele>14.1</ele>
        <time>2024-02-04T09:34:36Z</time>
      </trkpt>
      <trkpt lat="49.08562" lon="-0.42504">
        <ele>14.1</ele>
        <time>2024-02-04T09:34:37Z</time>
      </trkpt>
      <trkpt lat="49.08562" lon="-0.425">
        <ele>14.1</ele>
        <time>2024-02-04T09:34:38Z</time>
      </trkpt>
      <trkpt lat="49.08561" lon="-0.42493">
        <ele>14.1</ele>
        <time>2024-02-04T09:34:39Z</time>
      </trkpt>
      <trkpt lat="49.08561" lon="-0.42491">
        <ele>14.1</ele>
        <time>2024-02-04T09:34:40Z</time>
      </trkpt>
      <trkpt lat="49.0856" lon="-0.42486">
        <ele>14.1</ele>
        <time>2024-02-04T09:34:41Z</time>
      </trkpt>
      <trkpt lat="49.0856" lon="-0.42484">
        <ele>14.1</ele>
        <time>2024-02-04T09:34:42Z</time>
      </trkpt>
      <trkpt lat="49.08559" lon="-0.42478">
        <ele>14.1</ele>
        <time>2024-02-04T09:34:43Z</time>
      </trkpt>
      <trkpt lat="49.08558" lon="-0.42477">
        <ele>14.1</ele>
        <time>2024-02-04T09:34:44Z</time>
      </trkpt>
      <trkpt lat="49.08558" lon="-0.42475">
        <ele>14.1</ele>
        <time>2024-02-04T09:34:45Z</time>
      </trkpt>
      <trkpt lat="49.08558" lon="-0.42473">
        <ele>14.1</ele>
        <time>2024-02-04T09:34:46Z</time>
      </trkpt>
      <trkpt lat="49.08558" lon="-0.42473">
        <ele>14.1</ele>
        <time>2024-02-04T09:34:47Z</time>
      </trkpt>
      <trkpt lat="49.08557" lon="-0.42473">
        <ele>14.1</ele>
        <time>2024-02-04T09:34:48Z</time>
      </trkpt>
      <trkpt lat="49.08557" lon="-0.42473">
        <ele>14.1</ele>
        <time>2024-02-04T09:34:49Z</time>
      </trkpt>
      <trkpt lat="49.08557" lon="-0.42473">
        <ele>14.1</ele>
        <time>2024-02-04T09:34:50Z</time>
      </trkpt>
      <trkpt lat="49.08556" lon="-0.42473">
        <ele>14.1</ele>
        <time>2024-02-04T09:34:51Z</time>
      </trkpt>
      <trkpt lat="49.08556" lon="-0.42472">
        <ele>14.1</ele>
        <time>2024-02-04T09:34:52Z</time>
      </trkpt>
      <trkpt lat="49.08556" lon="-0.42472">
        <ele>14.1</ele>
        <time>2024-02-04T09:34:53Z</time>
      </trkpt>
      <trkpt lat="49.08556" lon="-0.42473">
        <ele>14.1</ele>
        <time>2024-02-04T09:34:54Z</time>
      </trkpt>
      <trkpt lat="49.08556" lon="-0.42473">
        <ele>14</ele>
        <time>2024-02-04T09:34:55Z</time>
      </trkpt>
      <trkpt lat="49.08556" lon="-0.42473">
        <ele>14</ele>
        <time>2024-02-04T09:34:56Z</time>
      </trkpt>
      <trkpt lat="49.08556" lon="-0.42473">
        <ele>14</ele>
        <time>2024-02-04T09:34:57Z</time>
      </trkpt>
      <trkpt lat="49.08556" lon="-0.42473">
        <ele>14</ele>
        <time>2024-02-04T09:34:58Z</time>
      </trkpt>
      <trkpt lat="49.08556" lon="-0.42473">
        <ele>14</ele>
        <time>2024-02-04T09:34:59Z</time>
      </trkpt>
      <trkpt lat="49.08556" lon="-0.42473">
        <ele>14</ele>
        <time>2024-02-04T09:35:00Z</time>
      </trkpt>
      <trkpt lat="49.08556" lon="-0.42473">
        <ele>14</ele>
        <time>2024-02-04T09:35:01Z</time>
      </trkpt>
      <trkpt lat="49.08556" lon="-0.42473">
        <ele>14</ele>
        <time>2024-02-04T09:35:02Z</time>
      </trkpt>
      <trkpt lat="49.08555" lon="-0.42468">
        <ele>14</ele>
        <time>2024-02-04T09:37:02Z</time>
      </trkpt>
      <trkpt lat="49.08555" lon="-0.42464">
        <ele>14</ele>
        <time>2024-02-04T09:37:03Z</time>
      </trkpt>
      <trkpt lat="49.08554" lon="-0.4246">
        <ele>14</ele>
        <time>2024-02-04T09:37:04Z</time>
      </trkpt>
      <trkpt lat="49.08553" lon="-0.42458">
        <ele>14</ele>
        <time>2024-02-04T09:37:05Z</time>
      </trkpt>
      <trkpt lat="49.08552" lon="-0.42453">
        <ele>14</ele>
        <time>2024-02-04T09:37:06Z</time>
      </trkpt>
      <trkpt lat="49.08552" lon="-0.42451">
        <ele>14</ele>
        <time>2024-02-04T09:37:07Z</time>
      </trkpt>
      <trkpt lat="49.08551" lon="-0.42445">
        <ele>14</ele>
        <time>2024-02-04T09:37:08Z</time>
      </trkpt>
      <trkpt lat="49.08551" lon="-0.42443">
        <ele>14</ele>
        <time>2024-02-04T09:37:09Z</time>
      </trkpt>
      <trkpt lat="49.08551" lon="-0.42439">
        <ele>13.9</ele>
        <time>2024-02-04T09:37:10Z</time>
      </trkpt>
      <trkpt lat="49.0855" lon="-0.42434">
        <ele>13.9</ele>
        <time>2024-02-04T09:37:11Z</time>
      </trkpt>
      <trkpt lat="49.08549" lon="-0.4243">
        <ele>13.9</ele>
        <time>2024-02-04T09:37:12Z</time>
      </trkpt>
      <trkpt lat="49.08548" lon="-0.42424">
        <ele>13.9</ele>
        <time>2024-02-04T09:37:13Z</time>
      </trkpt>
      <trkpt lat="49.08548" lon="-0.4242">
        <ele>13.9</ele>
        <time>2024-02-04T09:37:14Z</time>
      </trkpt>
      <trkpt lat="49.08548" lon="-0.42415">
        <ele>13.9</ele>
        <time>2024-02-04T09:37:15Z</time>
      </trkpt>
      <trkpt lat="49.08548" lon="-0.42409">
        <ele>13.9</ele>
        <time>2024-02-04T09:37:16Z</time>
      </trkpt>
      <trkpt lat="49.08547" lon="-0.42403">
        <ele>13.9</ele>
        <time>2024-02-04T09:37:17Z</time>
      </trkpt>
      <trkpt lat="49.08546" lon="-0.42395">
        <ele>13.9</ele>
        <time>2024-02-04T09:37:18Z</time>
      </trkpt>
      <trkpt lat="49.08545" lon="-0.42389">
        <ele>13.9</ele>
        <time>2024-02-04T09:37:19Z</time>
      </trkpt>
      <trkpt lat="49.08544" lon="-0.42382">
        <ele>13.9</ele>
        <time>2024-02-04T09:37:20Z</time>
      </trkpt>
      <trkpt lat="49.08543" lon="-0.42376">
        <ele>13.9</ele>
        <time>2024-02-04T09:37:21Z</time>
      </trkpt>
      <trkpt lat="49.08542" lon="-0.4237">
        <ele>14</ele>
        <time>2024-02-04T09:37:22Z</time>
      </trkpt>
      <trkpt lat="49.08541" lon="-0.42364">
        <ele>14.1</ele>
        <time>2024-02-04T09:37:23Z</time>
      </trkpt>
      <trkpt lat="49.0854" lon="-0.42358">
        <ele>14.2</ele>
        <time>2024-02-04T09:37:24Z</time>
      </trkpt>
      <trkpt lat="49.0854" lon="-0.42353">
        <ele>14.3</ele>
        <time>2024-02-04T09:37:25Z</time>
      </trkpt>
      <trkpt lat="49.0854" lon="-0.42347">
        <ele>14.5</ele>
        <time>2024-02-04T09:37:26Z</time>
      </trkpt>
      <trkpt lat="49.08542" lon="-0.42341">
        <ele>14.6</ele>
        <time>2024-02-04T09:37:27Z</time>
      </trkpt>
      <trkpt lat="49.08544" lon="-0.42335">
        <ele>14.6</ele>
        <time>2024-02-04T09:37:28Z</time>
      </trkpt>
      <trkpt lat="49.08546" lon="-0.4233">
        <ele>14.7</ele>
        <time>2024-02-04T09:37:29Z</time>
      </trkpt>
      <trkpt lat="49.0855" lon="-0.42326">
        <ele>14.8</ele>
        <time>2024-02-04T09:37:30Z</time>
      </trkpt>
      <trkpt lat="49.08553" lon="-0.42323">
        <ele>14.9</ele>
        <time>2024-02-04T09:37:31Z</time>
      </trkpt>
      <trkpt lat="49.08557" lon="-0.4232">
        <ele>15</ele>
        <time>2024-02-04T09:37:32Z</time>
      </trkpt>
      <trkpt lat="49.08561" lon="-0.42317">
        <ele>15.1</ele>
        <time>2024-02-04T09:37:33Z</time>
      </trkpt>
      <trkpt lat="49.08565" lon="-0.42315">
        <ele>15.3</ele>
        <time>2024-02-04T09:37:34Z</time>
      </trkpt>
      <trkpt lat="49.0857" lon="-0.42313">
        <ele>15.5</ele>
        <time>2024-02-04T09:37:35Z</time>
      </trkpt>
      <trkpt lat="49.08574" lon="-0.42311">
        <ele>15.7</ele>
        <time>2024-02-04T09:37:36Z</time>
      </trkpt>
      <trkpt lat="49.08578" lon="-0.42309">
        <ele>15.9</ele>
        <time>2024-02-04T09:37:37Z</time>
      </trkpt>
      <trkpt lat="49.08582" lon="-0.42308">
        <ele>16.1</ele>
        <time>2024-02-04T09:37:38Z</time>
      </trkpt>
      <trkpt lat="49.08586" lon="-0.42306">
        <ele>16.4</ele>
        <time>2024-02-04T09:37:39Z</time>
      </trkpt>
      <trkpt lat="49.0859" lon="-0.42304">
        <ele>16.7</ele>
        <time>2024-02-04T09:37:40Z</time>
      </trkpt>
      <trkpt lat="49.08594" lon="-0.42303">
        <ele>17</ele>
        <time>2024-02-04T09:37:41Z</time>
      </trkpt>
      <trkpt lat="49.08598" lon="-0.423">
        <ele>17.3</ele>
        <time>2024-02-04T09:37:42Z</time>
      </trkpt>
      <trkpt lat="49.08602" lon="-0.42298">
        <ele>17.6</ele>
        <time>2024-02-04T09:37:43Z</time>
      </trkpt>
      <trkpt lat="49.08605" lon="-0.42296">
        <ele>18</ele>
        <time>2024-02-04T09:37:44Z</time>
      </trkpt>
      <trkpt lat="49.08609" lon="-0.42294">
        <ele>18.3</ele>
        <time>2024-02-04T09:37:45Z</time>
      </trkpt>
      <trkpt lat="49.08612" lon="-0.42293">
        <ele>18.6</ele>
        <time>2024-02-04T09:37:46Z</time>
      </trkpt>
      <trkpt lat="49.08616" lon="-0.42291">
        <ele>18.9</ele>
        <time>2024-02-04T09:37:47Z</time>
      </trkpt>
      <trkpt lat="49.0862" lon="-0.42289">
        <ele>19.3</ele>
        <time>2024-02-04T09:37:48Z</time>
      </trkpt>
      <trkpt lat="49.08623" lon="-0.42288">
        <ele>19.5</ele>
        <time>2024-02-04T09:37:49Z</time>
      </trkpt>
      <trkpt lat="49.08627" lon="-0.42286">
        <ele>19.8</ele>
        <time>2024-02-04T09:37:50Z</time>
      </trkpt>
      <trkpt lat="49.0863" lon="-0.42284">
        <ele>20.2</ele>
        <time>2024-02-04T09:37:51Z</time>
      </trkpt>
      <trkpt lat="49.08634" lon="-0.42282">
        <ele>20.3</ele>
        <time>2024-02-04T09:37:52Z</time>
      </trkpt>
      <trkpt lat="49.08637" lon="-0.4228">
        <ele>20.3</ele>
        <time>2024-02-04T09:37:53Z</time>
      </trkpt>
      <trkpt lat="49.08641" lon="-0.42279">
        <ele>20.4</ele>
        <time>2024-02-04T09:37:54Z</time>
      </trkpt>
      <trkpt lat="49.08644" lon="-0.42277">
        <ele>20.5</ele>
        <time>2024-02-04T09:37:55Z</time>
      </trkpt>
      <trkpt lat="49.08648" lon="-0.42275">
        <ele>20.9</ele>
        <time>2024-02-04T09:37:56Z</time>
      </trkpt>
      <trkpt lat="49.08651" lon="-0.42273">
        <ele>21.1</ele>
        <time>2024-02-04T09:37:57Z</time>
      </trkpt>
      <trkpt lat="49.08655" lon="-0.42271">
        <ele>21.4</ele>
        <time>2024-02-04T09:37:58Z</time>
      </trkpt>
      <trkpt lat="49.08658" lon="-0.42269">
        <ele>21.7</ele>
        <time>2024-02-04T09:37:59Z</time>
      </trkpt>
      <trkpt lat="49.08662" lon="-0.42268">
        <ele>22</ele>
        <time>2024-02-04T09:38:00Z</time>
      </trkpt>
      <trkpt lat="49.08665" lon="-0.42267">
        <ele>22.3</ele>
        <time>2024-02-04T09:38:01Z</time>
      </trkpt>
      <trkpt lat="49.08668" lon="-0.42265">
        <ele>22.6</ele>
        <time>2024-02-04T09:38:02Z</time>
      </trkpt>
      <trkpt lat="49.08672" lon="-0.42264">
        <ele>22.9</ele>
        <time>2024-02-04T09:38:03Z</time>
      </trkpt>
      <trkpt lat="49.08675" lon="-0.42262">
        <ele>23.1</ele>
        <time>2024-02-04T09:38:04Z</time>
      </trkpt>
      <trkpt lat="49.08679" lon="-0.42261">
        <ele>23.4</ele>
        <time>2024-02-04T09:38:05Z</time>
      </trkpt>
      <trkpt lat="49.08682" lon="-0.42259">
        <ele>23.7</ele>
        <time>2024-02-04T09:38:06Z</time>
      </trkpt>
      <trkpt lat="49.08685" lon="-0.42257">
        <ele>24</ele>
        <time>2024-02-04T09:38:07Z</time>
      </trkpt>
      <trkpt lat="49.08688" lon="-0.42255">
        <ele>24.3</ele>
        <time>2024-02-04T09:38:08Z</time>
      </trkpt>
      <trkpt lat="49.08692" lon="-0.42253">
        <ele>24.5</ele>
        <time>2024-02-04T09:38:09Z</time>
      </trkpt>
      <trkpt lat="49.08695" lon="-0.42251">
        <ele>24.8</ele>
        <time>2024-02-04T09:38:10Z</time>
      </trkpt>
      <trkpt lat="49.08698" lon="-0.42248">
        <ele>25.1</ele>
        <time>2024-02-04T09:38:11Z</time>
      </trkpt>
      <trkpt lat="49.08701" lon="-0.42246">
        <ele>25.3</ele>
        <time>2024-02-04T09:38:12Z</time>
      </trkpt>
      <trkpt lat="49.08704" lon="-0.42244">
        <ele>25.6</ele>
        <time>2024-02-04T09:38:13Z</time>
      </trkpt>
      <trkpt lat="49.08706" lon="-0.42241">
        <ele>25.8</ele>
        <time>2024-02-04T09:38:14Z</time>
      </trkpt>
      <trkpt lat="49.08709" lon="-0.42238">
        <ele>26</ele>
        <time>2024-02-04T09:38:15Z</time>
      </trkpt>
      <trkpt lat="49.08712" lon="-0.42234">
        <ele>26.3</ele>
        <time>2024-02-04T09:38:16Z</time>
      </trkpt>
      <trkpt lat="49.08714" lon="-0.4223">
        <ele>26.5</ele>
        <time>2024-02-04T09:38:17Z</time>
      </trkpt>
      <trkpt lat="49.08716" lon="-0.42226">
        <ele>26.7</ele>
        <time>2024-02-04T09:38:18Z</time>
      </trkpt>
      <trkpt lat="49.08718" lon="-0.42222">
        <ele>27</ele>
        <time>2024-02-04T09:38:19Z</time>
      </trkpt>
      <trkpt lat="49.0872" lon="-0.42218">
        <ele>27.2</ele>
        <time>2024-02-04T09:38:20Z</time>
      </trkpt>
      <trkpt lat="49.08722" lon="-0.42213">
        <ele>27.4</ele>
        <time>2024-02-04T09:38:21Z</time>
      </trkpt>
      <trkpt lat="49.08723" lon="-0.42208">
        <ele>27.7</ele>
        <time>2024-02-04T09:38:22Z</time>
      </trkpt>
      <trkpt lat="49.08725" lon="-0.42202">
        <ele>27.9</ele>
        <time>2024-02-04T09:38:23Z</time>
      </trkpt>
      <trkpt lat="49.08725" lon="-0.42197">
        <ele>28.2</ele>
        <time>2024-02-04T09:38:24Z</time>
      </trkpt>
      <trkpt lat="49.08726" lon="-0.4219">
        <ele>28.5</ele>
        <time>2024-02-04T09:38:25Z</time>
      </trkpt>
      <trkpt lat="49.08726" lon="-0.42184">
        <ele>28.7</ele>
        <time>2024-02-04T09:38:26Z</time>
      </trkpt>
      <trkpt lat="49.08727" lon="-0.42178">
        <ele>29</ele>
        <time>2024-02-04T09:38:27Z</time>
      </trkpt>
      <trkpt lat="49.08727" lon="-0.42173">
        <ele>29.2</ele>
        <time>2024-02-04T09:38:28Z</time>
      </trkpt>
      <trkpt lat="49.08728" lon="-0.42167">
        <ele>29.5</ele>
        <time>2024-02-04T09:38:29Z</time>
      </trkpt>
      <trkpt lat="49.08727" lon="-0.42161">
        <ele>29.8</ele>
        <time>2024-02-04T09:38:30Z</time>
      </trkpt>
      <trkpt lat="49.08727" lon="-0.42156">
        <ele>30</ele>
        <time>2024-02-04T09:38:31Z</time>
      </trkpt>
      <trkpt lat="49.08727" lon="-0.4215">
        <ele>30.2</ele>
        <time>2024-02-04T09:38:32Z</time>
      </trkpt>
      <trkpt lat="49.08726" lon="-0.42145">
        <ele>30.5</ele>
        <time>2024-02-04T09:38:33Z</time>
      </trkpt>
      <trkpt lat="49.08724" lon="-0.4214">
        <ele>30.7</ele>
        <time>2024-02-04T09:38:34Z</time>
      </trkpt>
      <trkpt lat="49.08723" lon="-0.42135">
        <ele>30.9</ele>
        <time>2024-02-04T09:38:35Z</time>
      </trkpt>
      <trkpt lat="49.08722" lon="-0.42129">
        <ele>31.2</ele>
        <time>2024-02-04T09:38:36Z</time>
      </trkpt>
      <trkpt lat="49.0872" lon="-0.42124">
        <ele>31.4</ele>
        <time>2024-02-04T09:38:37Z</time>
      </trkpt>
      <trkpt lat="49.08718" lon="-0.42119">
        <ele>31.7</ele>
        <time>2024-02-04T09:38:38Z</time>
      </trkpt>
      <trkpt lat="49.08716" lon="-0.42114">
        <ele>31.9</ele>
        <time>2024-02-04T09:38:39Z</time>
      </trkpt>
      <trkpt lat="49.08713" lon="-0.42109">
        <ele>32.2</ele>
        <time>2024-02-04T09:38:40Z</time>
      </trkpt>
      <trkpt lat="49.08711" lon="-0.42105">
        <ele>32.4</ele>
        <time>2024-02-04T09:38:41Z</time>
      </trkpt>
      <trkpt lat="49.08708" lon="-0.42101">
        <ele>32.6</ele>
        <time>2024-02-04T09:38:42Z</time>
      </trkpt>
      <trkpt lat="49.08705" lon="-0.42098">
        <ele>32.8</ele>
        <time>2024-02-04T09:38:43Z</time>
      </trkpt>
      <trkpt lat="49.08702" lon="-0.42093">
        <ele>33</ele>
        <time>2024-02-04T09:38:44Z</time>
      </trkpt>
      <trkpt lat="49.087" lon="-0.42089">
        <ele>33.2</ele>
        <time>2024-02-04T09:38:45Z</time>
      </trkpt>
      <trkpt lat="49.08697" lon="-0.42085">
        <ele>33.4</ele>
        <time>2024-02-04T09:38:46Z</time>
      </trkpt>
      <trkpt lat="49.08694" lon="-0.42081">
        <ele>33.6</ele>
        <time>2024-02-04T09:38:47Z</time>
      </trkpt>
      <trkpt lat="49.08691" lon="-0.42077">
        <ele>33.8</ele>
        <time>2024-02-04T09:38:48Z</time>
      </trkpt>
      <trkpt lat="49.08688" lon="-0.42073">
        <ele>34</ele>
        <time>2024-02-04T09:38:49Z</time>
      </trkpt>
      <trkpt lat="49.08684" lon="-0.42069">
        <ele>34.2</ele>
        <time>2024-02-04T09:38:50Z</time>
      </trkpt>
      <trkpt lat="49.08681" lon="-0.42065">
        <ele>34.4</ele>
        <time>2024-02-04T09:38:51Z</time>
      </trkpt>
      <trkpt lat="49.08678" lon="-0.42061">
        <ele>34.5</ele>
        <time>2024-02-04T09:38:52Z</time>
      </trkpt>
      <trkpt lat="49.08675" lon="-0.42057">
        <ele>34.7</ele>
        <time>2024-02-04T09:38:53Z</time>
      </trkpt>
      <trkpt lat="49.08671" lon="-0.42053">
        <ele>34.9</ele>
        <time>2024-02-04T09:38:54Z</time>
      </trkpt>
      <trkpt lat="49.08668" lon="-0.42049">
        <ele>35.1</ele>
        <time>2024-02-04T09:38:55Z</time>
      </trkpt>
      <trkpt lat="49.08665" lon="-0.42045">
        <ele>35.3</ele>
        <time>2024-02-04T09:38:56Z</time>
      </trkpt>
      <trkpt lat="49.08662" lon="-0.42041">
        <ele>35.5</ele>
        <time>2024-02-04T09:38:57Z</time>
      </trkpt>
      <trkpt lat="49.08658" lon="-0.42037">
        <ele>35.7</ele>
        <time>2024-02-04T09:38:58Z</time>
      </trkpt>
      <trkpt lat="49.08655" lon="-0.42033">
        <ele>35.8</ele>
        <time>2024-02-04T09:38:59Z</time>
      </trkpt>
      <trkpt lat="49.08652" lon="-0.42029">
        <ele>36</ele>
        <time>2024-02-04T09:39:00Z</time>
      </trkpt>
      <trkpt lat="49.08648" lon="-0.42026">
        <ele>36.2</ele>
        <time>2024-02-04T09:39:01Z</time>
      </trkpt>
      <trkpt lat="49.08644" lon="-0.42022">
        <ele>36.4</ele>
        <time>2024-02-04T09:39:02Z</time>
      </trkpt>
      <trkpt lat="49.08641" lon="-0.42018">
        <ele>36.6</ele>
        <time>2024-02-04T09:39:03Z</time>
      </trkpt>
      <trkpt lat="49.08638" lon="-0.42013">
        <ele>36.8</ele>
        <time>2024-02-04T09:39:04Z</time>
      </trkpt>
      <trkpt lat="49.08634" lon="-0.42009">
        <ele>36.9</ele>
        <time>2024-02-04T09:39:05Z</time>
      </trkpt>
      <trkpt lat="49.08631" lon="-0.42005">
        <ele>37.1</ele>
        <time>2024-02-04T09:39:06Z</time>
      </trkpt>
      <trkpt lat="49.08627" lon="-0.42">
        <ele>37.3</ele>
        <time>2024-02-04T09:39:07Z</time>
      </trkpt>
      <trkpt lat="49.08624" lon="-0.41996">
        <ele>37.5</ele>
        <time>2024-02-04T09:39:08Z</time>
      </trkpt>
      <trkpt lat="49.0862" lon="-0.41992">
        <ele>37.7</ele>
        <time>2024-02-04T09:39:09Z</time>
      </trkpt>
      <trkpt lat="49.08617" lon="-0.41987">
        <ele>37.9</ele>
        <time>2024-02-04T09:39:10Z</time>
      </trkpt>
      <trkpt lat="49.08614" lon="-0.41982">
        <ele>38.1</ele>
        <time>2024-02-04T09:39:11Z</time>
      </trkpt>
      <trkpt lat="49.08611" lon="-0.41978">
        <ele>38.3</ele>
        <time>2024-02-04T09:39:12Z</time>
      </trkpt>
      <trkpt lat="49.08607" lon="-0.41973">
        <ele>38.5</ele>
        <time>2024-02-04T09:39:13Z</time>
      </trkpt>
      <trkpt lat="49.08604" lon="-0.41969">
        <ele>38.7</ele>
        <time>2024-02-04T09:39:14Z</time>
      </trkpt>
      <trkpt lat="49.086" lon="-0.41964">
        <ele>38.9</ele>
        <time>2024-02-04T09:39:15Z</time>
      </trkpt>
      <trkpt lat="49.08597" lon="-0.4196">
        <ele>39.1</ele>
        <time>2024-02-04T09:39:16Z</time>
      </trkpt>
      <trkpt lat="49.08593" lon="-0.41955">
        <ele>39.4</ele>
        <time>2024-02-04T09:39:17Z</time>
      </trkpt>
      <trkpt lat="49.0859" lon="-0.41951">
        <ele>39.6</ele>
        <time>2024-02-04T09:39:18Z</time>
      </trkpt>
      <trkpt lat="49.08587" lon="-0.41946">
        <ele>39.8</ele>
        <time>2024-02-04T09:39:19Z</time>
      </trkpt>
      <trkpt lat="49.08584" lon="-0.4194">
        <ele>40</ele>
        <time>2024-02-04T09:39:20Z</time>
      </trkpt>
      <trkpt lat="49.08582" lon="-0.41934">
        <ele>40.2</ele>
        <time>2024-02-04T09:39:21Z</time>
      </trkpt>
      <trkpt lat="49.0858" lon="-0.41927">
        <ele>40.4</ele>
        <time>2024-02-04T09:39:22Z</time>
      </trkpt>
      <trkpt lat="49.08578" lon="-0.41921">
        <ele>40.6</ele>
        <time>2024-02-04T09:39:23Z</time>
      </trkpt>
      <trkpt lat="49.08575" lon="-0.41915">
        <ele>40.8</ele>
        <time>2024-02-04T09:39:24Z</time>
      </trkpt>
      <trkpt lat="49.08573" lon="-0.41909">
        <ele>41</ele>
        <time>2024-02-04T09:39:25Z</time>
      </trkpt>
      <trkpt lat="49.08571" lon="-0.41902">
        <ele>41.2</ele>
        <time>2024-02-04T09:39:26Z</time>
      </trkpt>
      <trkpt lat="49.0857" lon="-0.41896">
        <ele>41.4</ele>
        <time>2024-02-04T09:39:27Z</time>
      </trkpt>
      <trkpt lat="49.08568" lon="-0.41889">
        <ele>41.6</ele>
        <time>2024-02-04T09:39:28Z</time>
      </trkpt>
      <trkpt lat="49.08567" lon="-0.41882">
        <ele>41.8</ele>
        <time>2024-02-04T09:39:29Z</time>
      </trkpt>
      <trkpt lat="49.08565" lon="-0.41875">
        <ele>42</ele>
        <time>2024-02-04T09:39:30Z</time>
      </trkpt>
      <trkpt lat="49.08564" lon="-0.41868">
        <ele>42.2</ele>
        <time>2024-02-04T09:39:31Z</time>
      </trkpt>
      <trkpt lat="49.08562" lon="-0.41861">
        <ele>42.4</ele>
        <time>2024-02-04T09:39:32Z</time>
      </trkpt>
      <trkpt lat="49.0856" lon="-0.41854">
        <ele>42.6</ele>
        <time>2024-02-04T09:39:33Z</time>
      </trkpt>
      <trkpt lat="49.08559" lon="-0.41847">
        <ele>42.9</ele>
        <time>2024-02-04T09:39:34Z</time>
      </trkpt>
      <trkpt lat="49.08558" lon="-0.4184">
        <ele>43.1</ele>
        <time>2024-02-04T09:39:35Z</time>
      </trkpt>
      <trkpt lat="49.08556" lon="-0.41833">
        <ele>43.3</ele>
        <time>2024-02-04T09:39:36Z</time>
      </trkpt>
      <trkpt lat="49.08555" lon="-0.41826">
        <ele>43.5</ele>
        <time>2024-02-04T09:39:37Z</time>
      </trkpt>
      <trkpt lat="49.08554" lon="-0.41819">
        <ele>43.6</ele>
        <time>2024-02-04T09:39:38Z</time>
      </trkpt>
      <trkpt lat="49.08552" lon="-0.41812">
        <ele>43.8</ele>
        <time>2024-02-04T09:39:39Z</time>
      </trkpt>
      <trkpt lat="49.08551" lon="-0.41805">
        <ele>43.9</ele>
        <time>2024-02-04T09:39:40Z</time>
      </trkpt>
      <trkpt lat="49.08549" lon="-0.41799">
        <ele>44.1</ele>
        <time>2024-02-04T09:39:41Z</time>
      </trkpt>
      <trkpt lat="49.08547" lon="-0.41792">
        <ele>44.3</ele>
        <time>2024-02-04T09:39:42Z</time>
      </trkpt>
      <trkpt lat="49.08546" lon="-0.41785">
        <ele>44.5</ele>
        <time>2024-02-04T09:39:43Z</time>
      </trkpt>
      <trkpt lat="49.08545" lon="-0.41778">
        <ele>44.6</ele>
        <time>2024-02-04T09:39:44Z</time>
      </trkpt>
      <trkpt lat="49.08543" lon="-0.41771">
        <ele>44.8</ele>
        <time>2024-02-04T09:39:45Z</time>
      </trkpt>
      <trkpt lat="49.08542" lon="-0.41764">
        <ele>45</ele>
        <time>2024-02-04T09:39:46Z</time>
      </trkpt>
      <trkpt lat="49.08541" lon="-0.41757">
        <ele>45.2</ele>
        <time>2024-02-04T09:39:47Z</time>
      </trkpt>
      <trkpt lat="49.08539" lon="-0.4175">
        <ele>45.4</ele>
        <time>2024-02-04T09:39:48Z</time>
      </trkpt>
      <trkpt lat="49.08537" lon="-0.41743">
        <ele>45.6</ele>
        <time>2024-02-04T09:39:49Z</time>
      </trkpt>
      <trkpt lat="49.08536" lon="-0.41736">
        <ele>45.8</ele>
        <time>2024-02-04T09:39:50Z</time>
      </trkpt>
      <trkpt lat="49.08535" lon="-0.4173">
        <ele>46</ele>
        <time>2024-02-04T09:39:51Z</time>
      </trkpt>
      <trkpt lat="49.08533" lon="-0.41723">
        <ele>46.2</ele>
        <time>2024-02-04T09:39:52Z</time>
      </trkpt>
      <trkpt lat="49.08532" lon="-0.41717">
        <ele>46.4</ele>
        <time>2024-02-04T09:39:53Z</time>
      </trkpt>
      <trkpt lat="49.0853" lon="-0.4171">
        <ele>46.6</ele>
        <time>2024-02-04T09:39:54Z</time>
      </trkpt>
      <trkpt lat="49.08528" lon="-0.41703">
        <ele>46.8</ele>
        <time>2024-02-04T09:39:55Z</time>
      </trkpt>
      <trkpt lat="49.08527" lon="-0.41696">
        <ele>47</ele>
        <time>2024-02-04T09:39:56Z</time>
      </trkpt>
      <trkpt lat="49.08525" lon="-0.41689">
        <ele>47.3</ele>
        <time>2024-02-04T09:39:57Z</time>
      </trkpt>
      <trkpt lat="49.08524" lon="-0.41682">
        <ele>47.5</ele>
        <time>2024-02-04T09:39:58Z</time>
      </trkpt>
      <trkpt lat="49.08522" lon="-0.41675">
        <ele>47.7</ele>
        <time>2024-02-04T09:39:59Z</time>
      </trkpt>
      <trkpt lat="49.08521" lon="-0.41668">
        <ele>47.9</ele>
        <time>2024-02-04T09:40:00Z</time>
      </trkpt>
      <trkpt lat="49.0852" lon="-0.41661">
        <ele>48.1</ele>
        <time>2024-02-04T09:40:01Z</time>
      </trkpt>
      <trkpt lat="49.08518" lon="-0.41654">
        <ele>48.3</ele>
        <time>2024-02-04T09:40:02Z</time>
      </trkpt>
      <trkpt lat="49.08517" lon="-0.41648">
        <ele>48.5</ele>
        <time>2024-02-04T09:40:03Z</time>
      </trkpt>
      <trkpt lat="49.08515" lon="-0.4164">
        <ele>48.7</ele>
        <time>2024-02-04T09:40:04Z</time>
      </trkpt>
      <trkpt lat="49.08514" lon="-0.41633">
        <ele>49</ele>
        <time>2024-02-04T09:40:05Z</time>
      </trkpt>
      <trkpt lat="49.08512" lon="-0.41626">
        <ele>49.2</ele>
        <time>2024-02-04T09:40:06Z</time>
      </trkpt>
      <trkpt lat="49.08511" lon="-0.4162">
        <ele>49.4</ele>
        <time>2024-02-04T09:40:07Z</time>
      </trkpt>
      <trkpt lat="49.08509" lon="-0.41613">
        <ele>49.6</ele>
        <time>2024-02-04T09:40:08Z</time>
      </trkpt>
      <trkpt lat="49.08508" lon="-0.41606">
        <ele>49.8</ele>
        <time>2024-02-04T09:40:09Z</time>
      </trkpt>
      <trkpt lat="49.08506" lon="-0.416">
        <ele>50.1</ele>
        <time>2024-02-04T09:40:10Z</time>
      </trkpt>
      <trkpt lat="49.08504" lon="-0.41593">
        <ele>50.3</ele>
        <time>2024-02-04T09:40:11Z</time>
      </trkpt>
      <trkpt lat="49.08503" lon="-0.41587">
        <ele>50.5</ele>
        <time>2024-02-04T09:40:12Z</time>
      </trkpt>
      <trkpt lat="49.08501" lon="-0.4158">
        <ele>50.7</ele>
        <time>2024-02-04T09:40:13Z</time>
      </trkpt>
      <trkpt lat="49.085" lon="-0.41573">
        <ele>51</ele>
        <time>2024-02-04T09:40:14Z</time>
      </trkpt>
      <trkpt lat="49.08498" lon="-0.41567">
        <ele>51.2</ele>
        <time>2024-02-04T09:40:15Z</time>
      </trkpt>
      <trkpt lat="49.08497" lon="-0.4156">
        <ele>51.4</ele>
        <time>2024-02-04T09:40:16Z</time>
      </trkpt>
      <trkpt lat="49.08495" lon="-0.41554">
        <ele>51.6</ele>
        <time>2024-02-04T09:40:17Z</time>
      </trkpt>
      <trkpt lat="49.08494" lon="-0.41548">
        <ele>51.8</ele>
        <time>2024-02-04T09:40:18Z</time>
      </trkpt>
      <trkpt lat="49.08493" lon="-0.41541">
        <ele>52</ele>
        <time>2024-02-04T09:40:19Z</time>
      </trkpt>
      <trkpt lat="49.08492" lon="-0.41534">
        <ele>52.3</ele>
        <time>2024-02-04T09:40:20Z</time>
      </trkpt>
      <trkpt lat="49.0849" lon="-0.41527">
        <ele>52.5</ele>
        <time>2024-02-04T09:40:21Z</time>
      </trkpt>
      <trkpt lat="49.08489" lon="-0.41521">
        <ele>52.8</ele>
        <time>2024-02-04T09:40:22Z</time>
      </trkpt>
      <trkpt lat="49.08487" lon="-0.41514">
        <ele>53</ele>
        <time>2024-02-04T09:40:23Z</time>
      </trkpt>
      <trkpt lat="49.08485" lon="-0.41508">
        <ele>53.2</ele>
        <time>2024-02-04T09:40:24Z</time>
      </trkpt>
      <trkpt lat="49.08484" lon="-0.41501">
        <ele>53.5</ele>
        <time>2024-02-04T09:40:25Z</time>
      </trkpt>
      <trkpt lat="49.08482" lon="-0.41494">
        <ele>53.7</ele>
        <time>2024-02-04T09:40:26Z</time>
      </trkpt>
      <trkpt lat="49.08481" lon="-0.41488">
        <ele>53.9</ele>
        <time>2024-02-04T09:40:27Z</time>
      </trkpt>
      <trkpt lat="49.08479" lon="-0.41481">
        <ele>54.1</ele>
        <time>2024-02-04T09:40:28Z</time>
      </trkpt>
      <trkpt lat="49.08478" lon="-0.41474">
        <ele>54.4</ele>
        <time>2024-02-04T09:40:29Z</time>
      </trkpt>
      <trkpt lat="49.08477" lon="-0.41468">
        <ele>54.6</ele>
        <time>2024-02-04T09:40:30Z</time>
      </trkpt>
      <trkpt lat="49.08475" lon="-0.41461">
        <ele>54.8</ele>
        <time>2024-02-04T09:40:31Z</time>
      </trkpt>
      <trkpt lat="49.08474" lon="-0.41454">
        <ele>55</ele>
        <time>2024-02-04T09:40:32Z</time>
      </trkpt>
      <trkpt lat="49.08472" lon="-0.41448">
        <ele>55.3</ele>
        <time>2024-02-04T09:40:33Z</time>
      </trkpt>
      <trkpt lat="49.0847" lon="-0.41441">
        <ele>55.5</ele>
        <time>2024-02-04T09:40:34Z</time>
      </trkpt>
      <trkpt lat="49.08469" lon="-0.41434">
        <ele>55.7</ele>
        <time>2024-02-04T09:40:35Z</time>
      </trkpt>
      <trkpt lat="49.08467" lon="-0.41427">
        <ele>55.9</ele>
        <time>2024-02-04T09:40:36Z</time>
      </trkpt>
      <trkpt lat="49.08466" lon="-0.4142">
        <ele>56.1</ele>
        <time>2024-02-04T09:40:37Z</time>
      </trkpt>
      <trkpt lat="49.08464" lon="-0.41413">
        <ele>56.3</ele>
        <time>2024-02-04T09:40:38Z</time>
      </trkpt>
      <trkpt lat="49.08462" lon="-0.41407">
        <ele>56.5</ele>
        <time>2024-02-04T09:40:39Z</time>
      </trkpt>
      <trkpt lat="49.08461" lon="-0.414">
        <ele>56.7</ele>
        <time>2024-02-04T09:40:40Z</time>
      </trkpt>
      <trkpt lat="49.08459" lon="-0.41394">
        <ele>56.9</ele>
        <time>2024-02-04T09:40:41Z</time>
      </trkpt>
      <trkpt lat="49.08457" lon="-0.41387">
        <ele>57.1</ele>
        <time>2024-02-04T09:40:42Z</time>
      </trkpt>
      <trkpt lat="49.08456" lon="-0.4138">
        <ele>57.3</ele>
        <time>2024-02-04T09:40:43Z</time>
      </trkpt>
      <trkpt lat="49.08454" lon="-0.41374">
        <ele>57.4</ele>
        <time>2024-02-04T09:40:44Z</time>
      </trkpt>
      <trkpt lat="49.08453" lon="-0.41367">
        <ele>57.6</ele>
        <time>2024-02-04T09:40:45Z</time>
      </trkpt>
      <trkpt lat="49.08451" lon="-0.4136">
        <ele>57.7</ele>
        <time>2024-02-04T09:40:46Z</time>
      </trkpt>
      <trkpt lat="49.0845" lon="-0.41353">
        <ele>57.8</ele>
        <time>2024-02-04T09:40:47Z</time>
      </trkpt>
      <trkpt lat="49.08448" lon="-0.41345">
        <ele>57.9</ele>
        <time>2024-02-04T09:40:48Z</time>
      </trkpt>
      <trkpt lat="49.08446" lon="-0.41338">
        <ele>58.1</ele>
        <time>2024-02-04T09:40:49Z</time>
      </trkpt>
      <trkpt lat="49.08445" lon="-0.4133">
        <ele>58.2</ele>
        <time>2024-02-04T09:40:50Z</time>
      </trkpt>
      <trkpt lat="49.08443" lon="-0.41322">
        <ele>58.2</ele>
        <time>2024-02-04T09:40:51Z</time>
      </trkpt>
      <trkpt lat="49.08441" lon="-0.41315">
        <ele>58.3</ele>
        <time>2024-02-04T09:40:52Z</time>
      </trkpt>
      <trkpt lat="49.08439" lon="-0.41307">
        <ele>58.3</ele>
        <time>2024-02-04T09:40:53Z</time>
      </trkpt>
      <trkpt lat="49.08437" lon="-0.413">
        <ele>58.4</ele>
        <time>2024-02-04T09:40:54Z</time>
      </trkpt>
      <trkpt lat="49.08435" lon="-0.41292">
        <ele>58.4</ele>
        <time>2024-02-04T09:40:55Z</time>
      </trkpt>
      <trkpt lat="49.08434" lon="-0.41284">
        <ele>58.4</ele>
        <time>2024-02-04T09:40:56Z</time>
      </trkpt>
      <trkpt lat="49.08432" lon="-0.41275">
        <ele>58.4</ele>
        <time>2024-02-04T09:40:57Z</time>
      </trkpt>
      <trkpt lat="49.0843" lon="-0.41267">
        <ele>58.5</ele>
        <time>2024-02-04T09:40:58Z</time>
      </trkpt>
      <trkpt lat="49.08428" lon="-0.41259">
        <ele>58.5</ele>
        <time>2024-02-04T09:40:59Z</time>
      </trkpt>
      <trkpt lat="49.08426" lon="-0.4125">
        <ele>58.5</ele>
        <time>2024-02-04T09:41:00Z</time>
      </trkpt>
      <trkpt lat="49.08424" lon="-0.41241">
        <ele>58.5</ele>
        <time>2024-02-04T09:41:01Z</time>
      </trkpt>
      <trkpt lat="49.08422" lon="-0.41233">
        <ele>58.6</ele>
        <time>2024-02-04T09:41:02Z</time>
      </trkpt>
      <trkpt lat="49.0842" lon="-0.41225">
        <ele>58.7</ele>
        <time>2024-02-04T09:41:03Z</time>
      </trkpt>
      <trkpt lat="49.08418" lon="-0.41216">
        <ele>58.8</ele>
        <time>2024-02-04T09:41:04Z</time>
      </trkpt>
      <trkpt lat="49.08416" lon="-0.41208">
        <ele>58.9</ele>
        <time>2024-02-04T09:41:05Z</time>
      </trkpt>
      <trkpt lat="49.08414" lon="-0.412">
        <ele>59</ele>
        <time>2024-02-04T09:41:06Z</time>
      </trkpt>
      <trkpt lat="49.08412" lon="-0.41192">
        <ele>59.2</ele>
        <time>2024-02-04T09:41:07Z</time>
      </trkpt>
      <trkpt lat="49.08409" lon="-0.41183">
        <ele>59.4</ele>
        <time>2024-02-04T09:41:08Z</time>
      </trkpt>
      <trkpt lat="49.08407" lon="-0.41175">
        <ele>59.6</ele>
        <time>2024-02-04T09:41:09Z</time>
      </trkpt>
      <trkpt lat="49.08405" lon="-0.41167">
        <ele>59.8</ele>
        <time>2024-02-04T09:41:10Z</time>
      </trkpt>
      <trkpt lat="49.08403" lon="-0.41159">
        <ele>60</ele>
        <time>2024-02-04T09:41:11Z</time>
      </trkpt>
      <trkpt lat="49.08401" lon="-0.41151">
        <ele>60.2</ele>
        <time>2024-02-04T09:41:12Z</time>
      </trkpt>
      <trkpt lat="49.08399" lon="-0.41144">
        <ele>60.3</ele>
        <time>2024-02-04T09:41:13Z</time>
      </trkpt>
      <trkpt lat="49.08397" lon="-0.41137">
        <ele>60.5</ele>
        <time>2024-02-04T09:41:14Z</time>
      </trkpt>
      <trkpt lat="49.08396" lon="-0.41129">
        <ele>60.7</ele>
        <time>2024-02-04T09:41:15Z</time>
      </trkpt>
      <trkpt lat="49.08395" lon="-0.41122">
        <ele>60.9</ele>
        <time>2024-02-04T09:41:16Z</time>
      </trkpt>
      <trkpt lat="49.08393" lon="-0.41115">
        <ele>61.1</ele>
        <time>2024-02-04T09:41:17Z</time>
      </trkpt>
      <trkpt lat="49.08391" lon="-0.41108">
        <ele>61.3</ele>
        <time>2024-02-04T09:41:18Z</time>
      </trkpt>
      <trkpt lat="49.08389" lon="-0.411">
        <ele>61.5</ele>
        <time>2024-02-04T09:41:19Z</time>
      </trkpt>
      <trkpt lat="49.08388" lon="-0.41093">
        <ele>61.7</ele>
        <time>2024-02-04T09:41:20Z</time>
      </trkpt>
      <trkpt lat="49.08386" lon="-0.41085">
        <ele>61.9</ele>
        <time>2024-02-04T09:41:21Z</time>
      </trkpt>
      <trkpt lat="49.08385" lon="-0.41078">
        <ele>62.2</ele>
        <time>2024-02-04T09:41:22Z</time>
      </trkpt>
      <trkpt lat="49.08383" lon="-0.4107">
        <ele>62.3</ele>
        <time>2024-02-04T09:41:23Z</time>
      </trkpt>
      <trkpt lat="49.08381" lon="-0.41063">
        <ele>62.5</ele>
        <time>2024-02-04T09:41:24Z</time>
      </trkpt>
      <trkpt lat="49.08379" lon="-0.41055">
        <ele>62.7</ele>
        <time>2024-02-04T09:41:25Z</time>
      </trkpt>
      <trkpt lat="49.08377" lon="-0.41048">
        <ele>62.9</ele>
        <time>2024-02-04T09:41:26Z</time>
      </trkpt>
      <trkpt lat="49.08375" lon="-0.4104">
        <ele>63.1</ele>
        <time>2024-02-04T09:41:27Z</time>
      </trkpt>
      <trkpt lat="49.08374" lon="-0.41033">
        <ele>63.3</ele>
        <time>2024-02-04T09:41:28Z</time>
      </trkpt>
      <trkpt lat="49.08372" lon="-0.41025">
        <ele>63.4</ele>
        <time>2024-02-04T09:41:29Z</time>
      </trkpt>
      <trkpt lat="49.0837" lon="-0.41018">
        <ele>63.6</ele>
        <time>2024-02-04T09:41:30Z</time>
      </trkpt>
      <trkpt lat="49.08369" lon="-0.4101">
        <ele>63.8</ele>
        <time>2024-02-04T09:41:31Z</time>
      </trkpt>
      <trkpt lat="49.08367" lon="-0.41003">
        <ele>64</ele>
        <time>2024-02-04T09:41:32Z</time>
      </trkpt>
      <trkpt lat="49.08365" lon="-0.40995">
        <ele>64.2</ele>
        <time>2024-02-04T09:41:33Z</time>
      </trkpt>
      <trkpt lat="49.08364" lon="-0.40987">
        <ele>64.4</ele>
        <time>2024-02-04T09:41:34Z</time>
      </trkpt>
      <trkpt lat="49.08362" lon="-0.4098">
        <ele>64.5</ele>
        <time>2024-02-04T09:41:35Z</time>
      </trkpt>
      <trkpt lat="49.0836" lon="-0.40973">
        <ele>64.7</ele>
        <time>2024-02-04T09:41:36Z</time>
      </trkpt>
      <trkpt lat="49.08358" lon="-0.40965">
        <ele>64.8</ele>
        <time>2024-02-04T09:41:37Z</time>
      </trkpt>
      <trkpt lat="49.08356" lon="-0.40958">
        <ele>65</ele>
        <time>2024-02-04T09:41:38Z</time>
      </trkpt>
      <trkpt lat="49.08354" lon="-0.4095">
        <ele>65.2</ele>
        <time>2024-02-04T09:41:39Z</time>
      </trkpt>
      <trkpt lat="49.08353" lon="-0.40943">
        <ele>65.4</ele>
        <time>2024-02-04T09:41:40Z</time>
      </trkpt>
      <trkpt lat="49.08351" lon="-0.40935">
        <ele>65.6</ele>
        <time>2024-02-04T09:41:41Z</time>
      </trkpt>
      <trkpt lat="49.08349" lon="-0.40927">
        <ele>65.8</ele>
        <time>2024-02-04T09:41:42Z</time>
      </trkpt>
      <trkpt lat="49.08347" lon="-0.40919">
        <ele>66</ele>
        <time>2024-02-04T09:41:43Z</time>
      </trkpt>
      <trkpt lat="49.08346" lon="-0.40911">
        <ele>66.2</ele>
        <time>2024-02-04T09:41:44Z</time>
      </trkpt>
      <trkpt lat="49.08344" lon="-0.40904">
        <ele>66.4</ele>
        <time>2024-02-04T09:41:45Z</time>
      </trkpt>
      <trkpt lat="49.08342" lon="-0.40897">
        <ele>66.6</ele>
        <time>2024-02-04T09:41:46Z</time>
      </trkpt>
      <trkpt lat="49.0834" lon="-0.40889">
        <ele>66.8</ele>
        <time>2024-02-04T09:41:47Z</time>
      </trkpt>
      <trkpt lat="49.08338" lon="-0.40882">
        <ele>66.9</ele>
        <time>2024-02-04T09:41:48Z</time>
      </trkpt>
      <trkpt lat="49.08336" lon="-0.40875">
        <ele>67.1</ele>
        <time>2024-02-04T09:41:49Z</time>
      </trkpt>
      <trkpt lat="49.08334" lon="-0.40867">
        <ele>67.3</ele>
        <time>2024-02-04T09:41:50Z</time>
      </trkpt>
      <trkpt lat="49.08332" lon="-0.4086">
        <ele>67.5</ele>
        <time>2024-02-04T09:41:51Z</time>
      </trkpt>
      <trkpt lat="49.08331" lon="-0.40852">
        <ele>67.7</ele>
        <time>2024-02-04T09:41:52Z</time>
      </trkpt>
      <trkpt lat="49.08329" lon="-0.40845">
        <ele>67.9</ele>
        <time>2024-02-04T09:41:53Z</time>
      </trkpt>
      <trkpt lat="49.08327" lon="-0.40838">
        <ele>68.1</ele>
        <time>2024-02-04T09:41:54Z</time>
      </trkpt>
      <trkpt lat="49.08325" lon="-0.40831">
        <ele>68.3</ele>
        <time>2024-02-04T09:41:55Z</time>
      </trkpt>
      <trkpt lat="49.08323" lon="-0.40824">
        <ele>68.6</ele>
        <time>2024-02-04T09:41:56Z</time>
      </trkpt>
      <trkpt lat="49.08321" lon="-0.40816">
        <ele>68.8</ele>
        <time>2024-02-04T09:41:57Z</time>
      </trkpt>
      <trkpt lat="49.0832" lon="-0.4081">
        <ele>69</ele>
        <time>2024-02-04T09:41:58Z</time>
      </trkpt>
      <trkpt lat="49.08318" lon="-0.40803">
        <ele>69.1</ele>
        <time>2024-02-04T09:41:59Z</time>
      </trkpt>
      <trkpt lat="49.08316" lon="-0.40796">
        <ele>69.1</ele>
        <time>2024-02-04T09:42:00Z</time>
      </trkpt>
      <trkpt lat="49.08314" lon="-0.40789">
        <ele>69.3</ele>
        <time>2024-02-04T09:42:01Z</time>
      </trkpt>
      <trkpt lat="49.08313" lon="-0.40782">
        <ele>69.5</ele>
        <time>2024-02-04T09:42:02Z</time>
      </trkpt>
      <trkpt lat="49.08311" lon="-0.40775">
        <ele>69.6</ele>
        <time>2024-02-04T09:42:03Z</time>
      </trkpt>
      <trkpt lat="49.08309" lon="-0.40769">
        <ele>69.8</ele>
        <time>2024-02-04T09:42:04Z</time>
      </trkpt>
      <trkpt lat="49.08306" lon="-0.40762">
        <ele>69.9</ele>
        <time>2024-02-04T09:42:05Z</time>
      </trkpt>
      <trkpt lat="49.08304" lon="-0.40756">
        <ele>70.1</ele>
        <time>2024-02-04T09:42:06Z</time>
      </trkpt>
      <trkpt lat="49.08302" lon="-0.40749">
        <ele>70.2</ele>
        <time>2024-02-04T09:42:07Z</time>
      </trkpt>
      <trkpt lat="49.083" lon="-0.40742">
        <ele>70.4</ele>
        <time>2024-02-04T09:42:08Z</time>
      </trkpt>
      <trkpt lat="49.08298" lon="-0.40735">
        <ele>70.6</ele>
        <time>2024-02-04T09:42:09Z</time>
      </trkpt>
      <trkpt lat="49.08295" lon="-0.40728">
        <ele>70.8</ele>
        <time>2024-02-04T09:42:10Z</time>
      </trkpt>
      <trkpt lat="49.08293" lon="-0.4072">
        <ele>71</ele>
        <time>2024-02-04T09:42:11Z</time>
      </trkpt>
      <trkpt lat="49.08291" lon="-0.40713">
        <ele>71.2</ele>
        <time>2024-02-04T09:42:12Z</time>
      </trkpt>
      <trkpt lat="49.08289" lon="-0.40706">
        <ele>71.4</ele>
        <time>2024-02-04T09:42:13Z</time>
      </trkpt>
      <trkpt lat="49.08287" lon="-0.40698">
        <ele>71.7</ele>
        <time>2024-02-04T09:42:14Z</time>
      </trkpt>
      <trkpt lat="49.08284" lon="-0.40692">
        <ele>71.9</ele>
        <time>2024-02-04T09:42:15Z</time>
      </trkpt>
      <trkpt lat="49.08282" lon="-0.40685">
        <ele>72.1</ele>
        <time>2024-02-04T09:42:16Z</time>
      </trkpt>
      <trkpt lat="49.08279" lon="-0.40678">
        <ele>72.3</ele>
        <time>2024-02-04T09:42:17Z</time>
      </trkpt>
      <trkpt lat="49.08276" lon="-0.4067">
        <ele>72.6</ele>
        <time>2024-02-04T09:42:18Z</time>
      </trkpt>
      <trkpt lat="49.08273" lon="-0.40663">
        <ele>72.8</ele>
        <time>2024-02-04T09:42:19Z</time>
      </trkpt>
      <trkpt lat="49.08271" lon="-0.40656">
        <ele>73</ele>
        <time>2024-02-04T09:42:20Z</time>
      </trkpt>
      <trkpt lat="49.08268" lon="-0.40649">
        <ele>73.2</ele>
        <time>2024-02-04T09:42:21Z</time>
      </trkpt>
      <trkpt lat="49.08266" lon="-0.40642">
        <ele>73.4</ele>
        <time>2024-02-04T09:42:22Z</time>
      </trkpt>
      <trkpt lat="49.08263" lon="-0.40635">
        <ele>73.6</ele>
        <time>2024-02-04T09:42:23Z</time>
      </trkpt>
      <trkpt lat="49.08261" lon="-0.40628">
        <ele>73.7</ele>
        <time>2024-02-04T09:42:24Z</time>
      </trkpt>
      <trkpt lat="49.08258" lon="-0.40621">
        <ele>73.8</ele>
        <time>2024-02-04T09:42:25Z</time>
      </trkpt>
      <trkpt lat="49.08256" lon="-0.40614">
        <ele>73.9</ele>
        <time>2024-02-04T09:42:26Z</time>
      </trkpt>
      <trkpt lat="49.08253" lon="-0.40607">
        <ele>74.1</ele>
        <time>2024-02-04T09:42:27Z</time>
      </trkpt>
      <trkpt lat="49.0825" lon="-0.406">
        <ele>74.2</ele>
        <time>2024-02-04T09:42:28Z</time>
      </trkpt>
      <trkpt lat="49.08247" lon="-0.40593">
        <ele>74.4</ele>
        <time>2024-02-04T09:42:29Z</time>
      </trkpt>
      <trkpt lat="49.08244" lon="-0.40586">
        <ele>74.5</ele>
        <time>2024-02-04T09:42:30Z</time>
      </trkpt>
      <trkpt lat="49.08242" lon="-0.40579">
        <ele>74.6</ele>
        <time>2024-02-04T09:42:31Z</time>
      </trkpt>
      <trkpt lat="49.08239" lon="-0.40572">
        <ele>74.8</ele>
        <time>2024-02-04T09:42:32Z</time>
      </trkpt>
      <trkpt lat="49.08237" lon="-0.40564">
        <ele>74.9</ele>
        <time>2024-02-04T09:42:33Z</time>
      </trkpt>
      <trkpt lat="49.08234" lon="-0.40557">
        <ele>75</ele>
        <time>2024-02-04T09:42:34Z</time>
      </trkpt>
      <trkpt lat="49.08231" lon="-0.4055">
        <ele>75.1</ele>
        <time>2024-02-04T09:42:35Z</time>
      </trkpt>
      <trkpt lat="49.08229" lon="-0.40542">
        <ele>75.2</ele>
        <time>2024-02-04T09:42:36Z</time>
      </trkpt>
      <trkpt lat="49.08226" lon="-0.40534">
        <ele>75.3</ele>
        <time>2024-02-04T09:42:37Z</time>
      </trkpt>
      <trkpt lat="49.08223" lon="-0.40527">
        <ele>75.3</ele>
        <time>2024-02-04T09:42:38Z</time>
      </trkpt>
      <trkpt lat="49.0822" lon="-0.40519">
        <ele>75.4</ele>
        <time>2024-02-04T09:42:39Z</time>
      </trkpt>
      <trkpt lat="49.08217" lon="-0.40512">
        <ele>75.5</ele>
        <time>2024-02-04T09:42:40Z</time>
      </trkpt>
      <trkpt lat="49.08213" lon="-0.40506">
        <ele>75.5</ele>
        <time>2024-02-04T09:42:41Z</time>
      </trkpt>
      <trkpt lat="49.08208" lon="-0.40501">
        <ele>75.5</ele>
        <time>2024-02-04T09:42:42Z</time>
      </trkpt>
      <trkpt lat="49.08203" lon="-0.40496">
        <ele>75.6</ele>
        <time>2024-02-04T09:42:43Z</time>
      </trkpt>
      <trkpt lat="49.08198" lon="-0.40491">
        <ele>75.6</ele>
        <time>2024-02-04T09:42:44Z</time>
      </trkpt>
      <trkpt lat="49.08192" lon="-0.40487">
        <ele>75.6</ele>
        <time>2024-02-04T09:42:45Z</time>
      </trkpt>
      <trkpt lat="49.08186" lon="-0.40484">
        <ele>75.7</ele>
        <time>2024-02-04T09:42:46Z</time>
      </trkpt>
      <trkpt lat="49.0818" lon="-0.40481">
        <ele>75.7</ele>
        <time>2024-02-04T09:42:47Z</time>
      </trkpt>
      <trkpt lat="49.08174" lon="-0.40477">
        <ele>75.6</ele>
        <time>2024-02-04T09:42:48Z</time>
      </trkpt>
      <trkpt lat="49.08169" lon="-0.40474">
        <ele>75.6</ele>
        <time>2024-02-04T09:42:49Z</time>
      </trkpt>
      <trkpt lat="49.08163" lon="-0.40471">
        <ele>75.6</ele>
        <time>2024-02-04T09:42:50Z</time>
      </trkpt>
      <trkpt lat="49.08157" lon="-0.40467">
        <ele>75.6</ele>
        <time>2024-02-04T09:42:51Z</time>
      </trkpt>
      <trkpt lat="49.08151" lon="-0.40463">
        <ele>75.5</ele>
        <time>2024-02-04T09:42:52Z</time>
      </trkpt>
      <trkpt lat="49.08145" lon="-0.4046">
        <ele>75.5</ele>
        <time>2024-02-04T09:42:53Z</time>
      </trkpt>
      <trkpt lat="49.08139" lon="-0.40457">
        <ele>75.5</ele>
        <time>2024-02-04T09:42:54Z</time>
      </trkpt>
      <trkpt lat="49.08133" lon="-0.40454">
        <ele>75.4</ele>
        <time>2024-02-04T09:42:55Z</time>
      </trkpt>
      <trkpt lat="49.08127" lon="-0.4045">
        <ele>75.4</ele>
        <time>2024-02-04T09:42:56Z</time>
      </trkpt>
      <trkpt lat="49.08121" lon="-0.40447">
        <ele>75.3</ele>
        <time>2024-02-04T09:42:57Z</time>
      </trkpt>
      <trkpt lat="49.08115" lon="-0.40444">
        <ele>75.3</ele>
        <time>2024-02-04T09:42:58Z</time>
      </trkpt>
      <trkpt lat="49.08109" lon="-0.40441">
        <ele>75.2</ele>
        <time>2024-02-04T09:42:59Z</time>
      </trkpt>
      <trkpt lat="49.08103" lon="-0.40437">
        <ele>75.1</ele>
        <time>2024-02-04T09:43:00Z</time>
      </trkpt>
      <trkpt lat="49.08097" lon="-0.40434">
        <ele>75</ele>
        <time>2024-02-04T09:43:01Z</time>
      </trkpt>
      <trkpt lat="49.08092" lon="-0.40429">
        <ele>75</ele>
        <time>2024-02-04T09:43:02Z</time>
      </trkpt>
      <trkpt lat="49.08087" lon="-0.40423">
        <ele>74.9</ele>
        <time>2024-02-04T09:43:03Z</time>
      </trkpt>
      <trkpt lat="49.08083" lon="-0.40417">
        <ele>74.8</ele>
        <time>2024-02-04T09:43:04Z</time>
      </trkpt>
      <trkpt lat="49.08079" lon="-0.40409">
        <ele>74.3</ele>
        <time>2024-02-04T09:43:05Z</time>
      </trkpt>
      <trkpt lat="49.08075" lon="-0.404">
        <ele>73.9</ele>
        <time>2024-02-04T09:43:06Z</time>
      </trkpt>
      <trkpt lat="49.08073" lon="-0.4039">
        <ele>73.4</ele>
        <time>2024-02-04T09:43:07Z</time>
      </trkpt>
      <trkpt lat="49.08069" lon="-0.4038">
        <ele>72.8</ele>
        <time>2024-02-04T09:43:08Z</time>
      </trkpt>
      <trkpt lat="49.08066" lon="-0.40371">
        <ele>72.3</ele>
        <time>2024-02-04T09:43:09Z</time>
      </trkpt>
      <trkpt lat="49.08063" lon="-0.40361">
        <ele>71.7</ele>
        <time>2024-02-04T09:43:10Z</time>
      </trkpt>
      <trkpt lat="49.08059" lon="-0.4035">
        <ele>71.1</ele>
        <time>2024-02-04T09:43:11Z</time>
      </trkpt>
      <trkpt lat="49.08056" lon="-0.40339">
        <ele>70.5</ele>
        <time>2024-02-04T09:43:12Z</time>
      </trkpt>
      <trkpt lat="49.08052" lon="-0.40328">
        <ele>69.8</ele>
        <time>2024-02-04T09:43:13Z</time>
      </trkpt>
      <trkpt lat="49.08049" lon="-0.40316">
        <ele>69.1</ele>
        <time>2024-02-04T09:43:14Z</time>
      </trkpt>
      <trkpt lat="49.08045" lon="-0.40303">
        <ele>68.4</ele>
        <time>2024-02-04T09:43:15Z</time>
      </trkpt>
      <trkpt lat="49.08041" lon="-0.4029">
        <ele>67.7</ele>
        <time>2024-02-04T09:43:16Z</time>
      </trkpt>
      <trkpt lat="49.08036" lon="-0.40277">
        <ele>66.8</ele>
        <time>2024-02-04T09:43:17Z</time>
      </trkpt>
      <trkpt lat="49.08032" lon="-0.40263">
        <ele>66</ele>
        <time>2024-02-04T09:43:18Z</time>
      </trkpt>
      <trkpt lat="49.08027" lon="-0.40249">
        <ele>65.1</ele>
        <time>2024-02-04T09:43:19Z</time>
      </trkpt>
      <trkpt lat="49.08023" lon="-0.40234">
        <ele>64.3</ele>
        <time>2024-02-04T09:43:20Z</time>
      </trkpt>
      <trkpt lat="49.08019" lon="-0.4022">
        <ele>63.6</ele>
        <time>2024-02-04T09:43:21Z</time>
      </trkpt>
      <trkpt lat="49.08014" lon="-0.40206">
        <ele>63.3</ele>
        <time>2024-02-04T09:43:22Z</time>
      </trkpt>
      <trkpt lat="49.0801" lon="-0.40193">
        <ele>62.5</ele>
        <time>2024-02-04T09:43:23Z</time>
      </trkpt>
      <trkpt lat="49.08007" lon="-0.4018">
        <ele>61.8</ele>
        <time>2024-02-04T09:43:24Z</time>
      </trkpt>
      <trkpt lat="49.08004" lon="-0.40169">
        <ele>61.1</ele>
        <time>2024-02-04T09:43:25Z</time>
      </trkpt>
      <trkpt lat="49.08" lon="-0.40158">
        <ele>60.4</ele>
        <time>2024-02-04T09:43:26Z</time>
      </trkpt>
      <trkpt lat="49.07997" lon="-0.40147">
        <ele>59.7</ele>
        <time>2024-02-04T09:43:27Z</time>
      </trkpt>
      <trkpt lat="49.07993" lon="-0.40136">
        <ele>59</ele>
        <time>2024-02-04T09:43:28Z</time>
      </trkpt>
      <trkpt lat="49.0799" lon="-0.40125">
        <ele>58.4</ele>
        <time>2024-02-04T09:43:29Z</time>
      </trkpt>
      <trkpt lat="49.07988" lon="-0.40111">
        <ele>57.7</ele>
        <time>2024-02-04T09:43:30Z</time>
      </trkpt>
      <trkpt lat="49.07988" lon="-0.40098">
        <ele>57.1</ele>
        <time>2024-02-04T09:43:31Z</time>
      </trkpt>
      <trkpt lat="49.07988" lon="-0.40083">
        <ele>56.4</ele>
        <time>2024-02-04T09:43:32Z</time>
      </trkpt>
      <trkpt lat="49.07989" lon="-0.40069">
        <ele>55.8</ele>
        <time>2024-02-04T09:43:33Z</time>
      </trkpt>
      <trkpt lat="49.07992" lon="-0.40056">
        <ele>55.2</ele>
        <time>2024-02-04T09:43:34Z</time>
      </trkpt>
      <trkpt lat="49.07995" lon="-0.40043">
        <ele>54.6</ele>
        <time>2024-02-04T09:43:35Z</time>
      </trkpt>
      <trkpt lat="49.07999" lon="-0.40031">
        <ele>54</ele>
        <time>2024-02-04T09:43:36Z</time>
      </trkpt>
      <trkpt lat="49.08003" lon="-0.40018">
        <ele>53.4</ele>
        <time>2024-02-04T09:43:37Z</time>
      </trkpt>
      <trkpt lat="49.08006" lon="-0.40005">
        <ele>52.7</ele>
        <time>2024-02-04T09:43:38Z</time>
      </trkpt>
      <trkpt lat="49.0801" lon="-0.39991">
        <ele>52</ele>
        <time>2024-02-04T09:43:39Z</time>
      </trkpt>
      <trkpt lat="49.08014" lon="-0.39978">
        <ele>51.4</ele>
        <time>2024-02-04T09:43:40Z</time>
      </trkpt>
      <trkpt lat="49.08018" lon="-0.39964">
        <ele>50.8</ele>
        <time>2024-02-04T09:43:41Z</time>
      </trkpt>
      <trkpt lat="49.08022" lon="-0.39951">
        <ele>50.4</ele>
        <time>2024-02-04T09:43:42Z</time>
      </trkpt>
      <trkpt lat="49.08026" lon="-0.39937">
        <ele>49.9</ele>
        <time>2024-02-04T09:43:43Z</time>
      </trkpt>
      <trkpt lat="49.08029" lon="-0.39924">
        <ele>49.6</ele>
        <time>2024-02-04T09:43:44Z</time>
      </trkpt>
      <trkpt lat="49.08032" lon="-0.3991">
        <ele>49.4</ele>
        <time>2024-02-04T09:43:45Z</time>
      </trkpt>
      <trkpt lat="49.08036" lon="-0.39897">
        <ele>49.2</ele>
        <time>2024-02-04T09:43:46Z</time>
      </trkpt>
      <trkpt lat="49.0804" lon="-0.39882">
        <ele>49.1</ele>
        <time>2024-02-04T09:43:47Z</time>
      </trkpt>
      <trkpt lat="49.08044" lon="-0.39869">
        <ele>49.1</ele>
        <time>2024-02-04T09:43:48Z</time>
      </trkpt>
      <trkpt lat="49.08049" lon="-0.39856">
        <ele>48.9</ele>
        <time>2024-02-04T09:43:49Z</time>
      </trkpt>
      <trkpt lat="49.08055" lon="-0.39843">
        <ele>48.7</ele>
        <time>2024-02-04T09:43:50Z</time>
      </trkpt>
      <trkpt lat="49.0806" lon="-0.39832">
        <ele>48.6</ele>
        <time>2024-02-04T09:43:51Z</time>
      </trkpt>
      <trkpt lat="49.08066" lon="-0.39821">
        <ele>48.4</ele>
        <time>2024-02-04T09:43:52Z</time>
      </trkpt>
      <trkpt lat="49.08072" lon="-0.39811">
        <ele>48.1</ele>
        <time>2024-02-04T09:43:53Z</time>
      </trkpt>
      <trkpt lat="49.08078" lon="-0.39801">
        <ele>47.9</ele>
        <time>2024-02-04T09:43:54Z</time>
      </trkpt>
      <trkpt lat="49.08083" lon="-0.39791">
        <ele>47.7</ele>
        <time>2024-02-04T09:43:55Z</time>
      </trkpt>
      <trkpt lat="49.08087" lon="-0.3978">
        <ele>47.5</ele>
        <time>2024-02-04T09:43:56Z</time>
      </trkpt>
      <trkpt lat="49.08092" lon="-0.39769">
        <ele>47.4</ele>
        <time>2024-02-04T09:43:57Z</time>
      </trkpt>
      <trkpt lat="49.08096" lon="-0.39757">
        <ele>47.3</ele>
        <time>2024-02-04T09:43:58Z</time>
      </trkpt>
      <trkpt lat="49.081" lon="-0.39746">
        <ele>47.3</ele>
        <time>2024-02-04T09:43:59Z</time>
      </trkpt>
      <trkpt lat="49.08103" lon="-0.39734">
        <ele>47.2</ele>
        <time>2024-02-04T09:44:00Z</time>
      </trkpt>
      <trkpt lat="49.08106" lon="-0.39722">
        <ele>47.2</ele>
        <time>2024-02-04T09:44:01Z</time>
      </trkpt>
      <trkpt lat="49.0811" lon="-0.3971">
        <ele>47.1</ele>
        <time>2024-02-04T09:44:02Z</time>
      </trkpt>
      <trkpt lat="49.08113" lon="-0.39697">
        <ele>47</ele>
        <time>2024-02-04T09:44:03Z</time>
      </trkpt>
      <trkpt lat="49.08116" lon="-0.39685">
        <ele>46.9</ele>
        <time>2024-02-04T09:44:04Z</time>
      </trkpt>
      <trkpt lat="49.08119" lon="-0.39672">
        <ele>46.8</ele>
        <time>2024-02-04T09:44:05Z</time>
      </trkpt>
      <trkpt lat="49.08122" lon="-0.3966">
        <ele>46.7</ele>
        <time>2024-02-04T09:44:06Z</time>
      </trkpt>
      <trkpt lat="49.08126" lon="-0.39648">
        <ele>46.7</ele>
        <time>2024-02-04T09:44:07Z</time>
      </trkpt>
      <trkpt lat="49.0813" lon="-0.39637">
        <ele>46.7</ele>
        <time>2024-02-04T09:44:08Z</time>
      </trkpt>
      <trkpt lat="49.08133" lon="-0.39626">
        <ele>46.8</ele>
        <time>2024-02-04T09:44:09Z</time>
      </trkpt>
      <trkpt lat="49.08135" lon="-0.39615">
        <ele>47.1</ele>
        <time>2024-02-04T09:44:10Z</time>
      </trkpt>
      <trkpt lat="49.08138" lon="-0.39605">
        <ele>47.3</ele>
        <time>2024-02-04T09:44:11Z</time>
      </trkpt>
      <trkpt lat="49.0814" lon="-0.39595">
        <ele>47.5</ele>
        <time>2024-02-04T09:44:12Z</time>
      </trkpt>
      <trkpt lat="49.08142" lon="-0.39585">
        <ele>47.8</ele>
        <time>2024-02-04T09:44:13Z</time>
      </trkpt>
      <trkpt lat="49.08144" lon="-0.39574">
        <ele>48</ele>
        <time>2024-02-04T09:44:14Z</time>
      </trkpt>
      <trkpt lat="49.08145" lon="-0.39564">
        <ele>48.3</ele>
        <time>2024-02-04T09:44:15Z</time>
      </trkpt>
      <trkpt lat="49.08147" lon="-0.39554">
        <ele>48.5</ele>
        <time>2024-02-04T09:44:16Z</time>
      </trkpt>
      <trkpt lat="49.08148" lon="-0.39544">
        <ele>48.7</ele>
        <time>2024-02-04T09:44:17Z</time>
      </trkpt>
      <trkpt lat="49.08149" lon="-0.39535">
        <ele>49</ele>
        <time>2024-02-04T09:44:18Z</time>
      </trkpt>
      <trkpt lat="49.08151" lon="-0.39526">
        <ele>49.3</ele>
        <time>2024-02-04T09:44:19Z</time>
      </trkpt>
      <trkpt lat="49.08152" lon="-0.39517">
        <ele>49.8</ele>
        <time>2024-02-04T09:44:20Z</time>
      </trkpt>
      <trkpt lat="49.08152" lon="-0.39508">
        <ele>50.2</ele>
        <time>2024-02-04T09:44:21Z</time>
      </trkpt>
      <trkpt lat="49.08153" lon="-0.39499">
        <ele>50.6</ele>
        <time>2024-02-04T09:44:22Z</time>
      </trkpt>
      <trkpt lat="49.08154" lon="-0.39491">
        <ele>51</ele>
        <time>2024-02-04T09:44:23Z</time>
      </trkpt>
      <trkpt lat="49.08155" lon="-0.39483">
        <ele>51.4</ele>
        <time>2024-02-04T09:44:24Z</time>
      </trkpt>
      <trkpt lat="49.08156" lon="-0.39475">
        <ele>51.7</ele>
        <time>2024-02-04T09:44:25Z</time>
      </trkpt>
      <trkpt lat="49.08157" lon="-0.39467">
        <ele>52.1</ele>
        <time>2024-02-04T09:44:26Z</time>
      </trkpt>
      <trkpt lat="49.08158" lon="-0.3946">
        <ele>52.4</ele>
        <time>2024-02-04T09:44:27Z</time>
      </trkpt>
      <trkpt lat="49.08158" lon="-0.39452">
        <ele>52.7</ele>
        <time>2024-02-04T09:44:28Z</time>
      </trkpt>
      <trkpt lat="49.08159" lon="-0.39444">
        <ele>52.9</ele>
        <time>2024-02-04T09:44:29Z</time>
      </trkpt>
      <trkpt lat="49.0816" lon="-0.39436">
        <ele>53.2</ele>
        <time>2024-02-04T09:44:30Z</time>
      </trkpt>
      <trkpt lat="49.0816" lon="-0.39428">
        <ele>53.5</ele>
        <time>2024-02-04T09:44:31Z</time>
      </trkpt>
      <trkpt lat="49.08161" lon="-0.39419">
        <ele>53.8</ele>
        <time>2024-02-04T09:44:32Z</time>
      </trkpt>
      <trkpt lat="49.08162" lon="-0.39411">
        <ele>54</ele>
        <time>2024-02-04T09:44:33Z</time>
      </trkpt>
      <trkpt lat="49.08162" lon="-0.39402">
        <ele>54.2</ele>
        <time>2024-02-04T09:44:34Z</time>
      </trkpt>
      <trkpt lat="49.08163" lon="-0.39393">
        <ele>54.5</ele>
        <time>2024-02-04T09:44:35Z</time>
      </trkpt>
      <trkpt lat="49.08164" lon="-0.39384">
        <ele>54.7</ele>
        <time>2024-02-04T09:44:36Z</time>
      </trkpt>
      <trkpt lat="49.08165" lon="-0.39374">
        <ele>54.9</ele>
        <time>2024-02-04T09:44:37Z</time>
      </trkpt>
      <trkpt lat="49.08165" lon="-0.39365">
        <ele>55</ele>
        <time>2024-02-04T09:44:38Z</time>
      </trkpt>
      <trkpt lat="49.08166" lon="-0.39356">
        <ele>55.2</ele>
        <time>2024-02-04T09:44:39Z</time>
      </trkpt>
      <trkpt lat="49.08166" lon="-0.39347">
        <ele>55.3</ele>
        <time>2024-02-04T09:44:40Z</time>
      </trkpt>
      <trkpt lat="49.08167" lon="-0.39338">
        <ele>55.4</ele>
        <time>2024-02-04T09:44:41Z</time>
      </trkpt>
      <trkpt lat="49.08168" lon="-0.39329">
        <ele>55.5</ele>
        <time>2024-02-04T09:44:42Z</time>
      </trkpt>
      <trkpt lat="49.08168" lon="-0.3932">
        <ele>55.6</ele>
        <time>2024-02-04T09:44:43Z</time>
      </trkpt>
      <trkpt lat="49.08169" lon="-0.39312">
        <ele>55.7</ele>
        <time>2024-02-04T09:44:44Z</time>
      </trkpt>
      <trkpt lat="49.0817" lon="-0.39304">
        <ele>55.8</ele>
        <time>2024-02-04T09:44:45Z</time>
      </trkpt>
      <trkpt lat="49.0817" lon="-0.39295">
        <ele>55.9</ele>
        <time>2024-02-04T09:44:46Z</time>
      </trkpt>
      <trkpt lat="49.0817" lon="-0.39286">
        <ele>55.9</ele>
        <time>2024-02-04T09:44:47Z</time>
      </trkpt>
      <trkpt lat="49.0817" lon="-0.39277">
        <ele>55.9</ele>
        <time>2024-02-04T09:44:48Z</time>
      </trkpt>
      <trkpt lat="49.0817" lon="-0.39267">
        <ele>55.9</ele>
        <time>2024-02-04T09:44:49Z</time>
      </trkpt>
      <trkpt lat="49.08171" lon="-0.39256">
        <ele>55.9</ele>
        <time>2024-02-04T09:44:50Z</time>
      </trkpt>
      <trkpt lat="49.08171" lon="-0.39245">
        <ele>55.9</ele>
        <time>2024-02-04T09:44:51Z</time>
      </trkpt>
      <trkpt lat="49.08172" lon="-0.39235">
        <ele>55.9</ele>
        <time>2024-02-04T09:44:52Z</time>
      </trkpt>
      <trkpt lat="49.08172" lon="-0.39224">
        <ele>55.8</ele>
        <time>2024-02-04T09:44:53Z</time>
      </trkpt>
      <trkpt lat="49.08172" lon="-0.39213">
        <ele>55.8</ele>
        <time>2024-02-04T09:44:54Z</time>
      </trkpt>
      <trkpt lat="49.08173" lon="-0.39202">
        <ele>55.8</ele>
        <time>2024-02-04T09:44:55Z</time>
      </trkpt>
      <trkpt lat="49.08173" lon="-0.39192">
        <ele>55.7</ele>
        <time>2024-02-04T09:44:56Z</time>
      </trkpt>
      <trkpt lat="49.08173" lon="-0.39181">
        <ele>55.6</ele>
        <time>2024-02-04T09:44:57Z</time>
      </trkpt>
      <trkpt lat="49.08174" lon="-0.3917">
        <ele>55.5</ele>
        <time>2024-02-04T09:44:58Z</time>
      </trkpt>
      <trkpt lat="49.08174" lon="-0.39159">
        <ele>55.4</ele>
        <time>2024-02-04T09:44:59Z</time>
      </trkpt>
      <trkpt lat="49.08175" lon="-0.39148">
        <ele>55.3</ele>
        <time>2024-02-04T09:45:00Z</time>
      </trkpt>
      <trkpt lat="49.08175" lon="-0.39136">
        <ele>55.2</ele>
        <time>2024-02-04T09:45:01Z</time>
      </trkpt>
      <trkpt lat="49.08176" lon="-0.39125">
        <ele>55.1</ele>
        <time>2024-02-04T09:45:02Z</time>
      </trkpt>
      <trkpt lat="49.08176" lon="-0.39113">
        <ele>55</ele>
        <time>2024-02-04T09:45:03Z</time>
      </trkpt>
      <trkpt lat="49.08176" lon="-0.39102">
        <ele>54.9</ele>
        <time>2024-02-04T09:45:04Z</time>
      </trkpt>
      <trkpt lat="49.08177" lon="-0.3909">
        <ele>54.7</ele>
        <time>2024-02-04T09:45:05Z</time>
      </trkpt>
      <trkpt lat="49.08177" lon="-0.39078">
        <ele>54.6</ele>
        <time>2024-02-04T09:45:06Z</time>
      </trkpt>
      <trkpt lat="49.08178" lon="-0.39067">
        <ele>54.4</ele>
        <time>2024-02-04T09:45:07Z</time>
      </trkpt>
      <trkpt lat="49.08178" lon="-0.39055">
        <ele>54.2</ele>
        <time>2024-02-04T09:45:08Z</time>
      </trkpt>
      <trkpt lat="49.08179" lon="-0.39042">
        <ele>54</ele>
        <time>2024-02-04T09:45:09Z</time>
      </trkpt>
      <trkpt lat="49.08179" lon="-0.3903">
        <ele>53.8</ele>
        <time>2024-02-04T09:45:10Z</time>
      </trkpt>
      <trkpt lat="49.0818" lon="-0.39018">
        <ele>53.6</ele>
        <time>2024-02-04T09:45:11Z</time>
      </trkpt>
      <trkpt lat="49.0818" lon="-0.39005">
        <ele>53.4</ele>
        <time>2024-02-04T09:45:12Z</time>
      </trkpt>
      <trkpt lat="49.08181" lon="-0.38992">
        <ele>53.1</ele>
        <time>2024-02-04T09:45:13Z</time>
      </trkpt>
      <trkpt lat="49.08182" lon="-0.38979">
        <ele>52.9</ele>
        <time>2024-02-04T09:45:14Z</time>
      </trkpt>
      <trkpt lat="49.08182" lon="-0.38966">
        <ele>52.6</ele>
        <time>2024-02-04T09:45:15Z</time>
      </trkpt>
      <trkpt lat="49.08183" lon="-0.38953">
        <ele>52.3</ele>
        <time>2024-02-04T09:45:16Z</time>
      </trkpt>
      <trkpt lat="49.08183" lon="-0.38941">
        <ele>51.9</ele>
        <time>2024-02-04T09:45:17Z</time>
      </trkpt>
      <trkpt lat="49.08184" lon="-0.38927">
        <ele>51.6</ele>
        <time>2024-02-04T09:45:18Z</time>
      </trkpt>
      <trkpt lat="49.08184" lon="-0.38914">
        <ele>51.2</ele>
        <time>2024-02-04T09:45:19Z</time>
      </trkpt>
      <trkpt lat="49.08184" lon="-0.389">
        <ele>50.8</ele>
        <time>2024-02-04T09:45:20Z</time>
      </trkpt>
      <trkpt lat="49.08185" lon="-0.38886">
        <ele>50.3</ele>
        <time>2024-02-04T09:45:21Z</time>
      </trkpt>
      <trkpt lat="49.08186" lon="-0.38871">
        <ele>49.8</ele>
        <time>2024-02-04T09:45:22Z</time>
      </trkpt>
      <trkpt lat="49.08187" lon="-0.38857">
        <ele>49.2</ele>
        <time>2024-02-04T09:45:23Z</time>
      </trkpt>
      <trkpt lat="49.08187" lon="-0.38842">
        <ele>48.5</ele>
        <time>2024-02-04T09:45:24Z</time>
      </trkpt>
      <trkpt lat="49.08188" lon="-0.38827">
        <ele>47.8</ele>
        <time>2024-02-04T09:45:25Z</time>
      </trkpt>
      <trkpt lat="49.08188" lon="-0.38811">
        <ele>47</ele>
        <time>2024-02-04T09:45:26Z</time>
      </trkpt>
      <trkpt lat="49.08189" lon="-0.38795">
        <ele>46.2</ele>
        <time>2024-02-04T09:45:27Z</time>
      </trkpt>
      <trkpt lat="49.0819" lon="-0.38779">
        <ele>45.4</ele>
        <time>2024-02-04T09:45:28Z</time>
      </trkpt>
      <trkpt lat="49.08191" lon="-0.38762">
        <ele>44.5</ele>
        <time>2024-02-04T09:45:29Z</time>
      </trkpt>
      <trkpt lat="49.08191" lon="-0.38745">
        <ele>43.8</ele>
        <time>2024-02-04T09:45:30Z</time>
      </trkpt>
      <trkpt lat="49.08192" lon="-0.38728">
        <ele>43.1</ele>
        <time>2024-02-04T09:45:31Z</time>
      </trkpt>
      <trkpt lat="49.08194" lon="-0.3871">
        <ele>42.4</ele>
        <time>2024-02-04T09:45:32Z</time>
      </trkpt>
      <trkpt lat="49.08197" lon="-0.38693">
        <ele>41.6</ele>
        <time>2024-02-04T09:45:33Z</time>
      </trkpt>
      <trkpt lat="49.082" lon="-0.38674">
        <ele>40.4</ele>
        <time>2024-02-04T09:45:34Z</time>
      </trkpt>
      <trkpt lat="49.08204" lon="-0.38657">
        <ele>39.3</ele>
        <time>2024-02-04T09:45:35Z</time>
      </trkpt>
      <trkpt lat="49.08208" lon="-0.38639">
        <ele>38.1</ele>
        <time>2024-02-04T09:45:36Z</time>
      </trkpt>
      <trkpt lat="49.08213" lon="-0.38621">
        <ele>37.5</ele>
        <time>2024-02-04T09:45:37Z</time>
      </trkpt>
      <trkpt lat="49.08217" lon="-0.38603">
        <ele>37</ele>
        <time>2024-02-04T09:45:38Z</time>
      </trkpt>
      <trkpt lat="49.08221" lon="-0.38585">
        <ele>36.7</ele>
        <time>2024-02-04T09:45:39Z</time>
      </trkpt>
      <trkpt lat="49.08226" lon="-0.38567">
        <ele>36.4</ele>
        <time>2024-02-04T09:45:40Z</time>
      </trkpt>
      <trkpt lat="49.0823" lon="-0.3855">
        <ele>36.3</ele>
        <time>2024-02-04T09:45:41Z</time>
      </trkpt>
      <trkpt lat="49.08233" lon="-0.38534">
        <ele>36.2</ele>
        <time>2024-02-04T09:45:42Z</time>
      </trkpt>
      <trkpt lat="49.08237" lon="-0.3852">
        <ele>36.3</ele>
        <time>2024-02-04T09:45:43Z</time>
      </trkpt>
      <trkpt lat="49.08239" lon="-0.38506">
        <ele>36.4</ele>
        <time>2024-02-04T09:45:44Z</time>
      </trkpt>
      <trkpt lat="49.08241" lon="-0.38492">
        <ele>36.5</ele>
        <time>2024-02-04T09:45:45Z</time>
      </trkpt>
      <trkpt lat="49.08242" lon="-0.3848">
        <ele>36.5</ele>
        <time>2024-02-04T09:45:46Z</time>
      </trkpt>
      <trkpt lat="49.08243" lon="-0.38467">
        <ele>36.8</ele>
        <time>2024-02-04T09:45:47Z</time>
      </trkpt>
      <trkpt lat="49.08243" lon="-0.38454">
        <ele>37</ele>
        <time>2024-02-04T09:45:48Z</time>
      </trkpt>
      <trkpt lat="49.08242" lon="-0.38442">
        <ele>37.2</ele>
        <time>2024-02-04T09:45:49Z</time>
      </trkpt>
      <trkpt lat="49.08242" lon="-0.3843">
        <ele>37.4</ele>
        <time>2024-02-04T09:45:50Z</time>
      </trkpt>
      <trkpt lat="49.08241" lon="-0.38418">
        <ele>37.6</ele>
        <time>2024-02-04T09:45:51Z</time>
      </trkpt>
      <trkpt lat="49.08239" lon="-0.38407">
        <ele>37.7</ele>
        <time>2024-02-04T09:45:52Z</time>
      </trkpt>
      <trkpt lat="49.08239" lon="-0.38395">
        <ele>37.8</ele>
        <time>2024-02-04T09:45:53Z</time>
      </trkpt>
      <trkpt lat="49.08238" lon="-0.38383">
        <ele>37.9</ele>
        <time>2024-02-04T09:45:54Z</time>
      </trkpt>
      <trkpt lat="49.08238" lon="-0.3837">
        <ele>37.9</ele>
        <time>2024-02-04T09:45:55Z</time>
      </trkpt>
      <trkpt lat="49.08237" lon="-0.38358">
        <ele>37.8</ele>
        <time>2024-02-04T09:45:56Z</time>
      </trkpt>
      <trkpt lat="49.08237" lon="-0.38346">
        <ele>37.8</ele>
        <time>2024-02-04T09:45:57Z</time>
      </trkpt>
      <trkpt lat="49.08236" lon="-0.38332">
        <ele>37.7</ele>
        <time>2024-02-04T09:45:58Z</time>
      </trkpt>
      <trkpt lat="49.08236" lon="-0.38319">
        <ele>37.6</ele>
        <time>2024-02-04T09:45:59Z</time>
      </trkpt>
      <trkpt lat="49.08235" lon="-0.38305">
        <ele>37.5</ele>
        <time>2024-02-04T09:46:00Z</time>
      </trkpt>
      <trkpt lat="49.08235" lon="-0.38292">
        <ele>37.3</ele>
        <time>2024-02-04T09:46:01Z</time>
      </trkpt>
      <trkpt lat="49.08234" lon="-0.38278">
        <ele>37.2</ele>
        <time>2024-02-04T09:46:02Z</time>
      </trkpt>
      <trkpt lat="49.08233" lon="-0.38265">
        <ele>37</ele>
        <time>2024-02-04T09:46:03Z</time>
      </trkpt>
      <trkpt lat="49.08233" lon="-0.38252">
        <ele>36.8</ele>
        <time>2024-02-04T09:46:04Z</time>
      </trkpt>
      <trkpt lat="49.08232" lon="-0.38239">
        <ele>36.6</ele>
        <time>2024-02-04T09:46:05Z</time>
      </trkpt>
      <trkpt lat="49.08231" lon="-0.38227">
        <ele>36.4</ele>
        <time>2024-02-04T09:46:06Z</time>
      </trkpt>
      <trkpt lat="49.0823" lon="-0.38217">
        <ele>36.2</ele>
        <time>2024-02-04T09:46:07Z</time>
      </trkpt>
      <trkpt lat="49.08229" lon="-0.38209">
        <ele>36.1</ele>
        <time>2024-02-04T09:46:08Z</time>
      </trkpt>
      <trkpt lat="49.08228" lon="-0.38202">
        <ele>36</ele>
        <time>2024-02-04T09:46:09Z</time>
      </trkpt>
      <trkpt lat="49.08228" lon="-0.38196">
        <ele>35.9</ele>
        <time>2024-02-04T09:46:10Z</time>
      </trkpt>
      <trkpt lat="49.08227" lon="-0.38191">
        <ele>35.9</ele>
        <time>2024-02-04T09:46:11Z</time>
      </trkpt>
      <trkpt lat="49.08226" lon="-0.38187">
        <ele>35.8</ele>
        <time>2024-02-04T09:46:12Z</time>
      </trkpt>
      <trkpt lat="49.08226" lon="-0.38185">
        <ele>35.8</ele>
        <time>2024-02-04T09:46:13Z</time>
      </trkpt>
      <trkpt lat="49.08226" lon="-0.38186">
        <ele>35.8</ele>
        <time>2024-02-04T09:46:14Z</time>
      </trkpt>
      <trkpt lat="49.08226" lon="-0.38186">
        <ele>35.8</ele>
        <time>2024-02-04T09:46:15Z</time>
      </trkpt>
      <trkpt lat="49.08226" lon="-0.38186">
        <ele>35.7</ele>
        <time>2024-02-04T09:46:16Z</time>
      </trkpt>
      <trkpt lat="49.08226" lon="-0.38185">
        <ele>35.7</ele>
        <time>2024-02-04T09:46:17Z</time>
      </trkpt>
      <trkpt lat="49.08225" lon="-0.38183">
        <ele>35.7</ele>
        <time>2024-02-04T09:46:18Z</time>
      </trkpt>
      <trkpt lat="49.08225" lon="-0.38181">
        <ele>35.7</ele>
        <time>2024-02-04T09:46:19Z</time>
      </trkpt>
      <trkpt lat="49.08225" lon="-0.38179">
        <ele>35.6</ele>
        <time>2024-02-04T09:46:20Z</time>
      </trkpt>
      <trkpt lat="49.08225" lon="-0.38176">
        <ele>35.6</ele>
        <time>2024-02-04T09:46:21Z</time>
      </trkpt>
      <trkpt lat="49.08227" lon="-0.38172">
        <ele>35.4</ele>
        <time>2024-02-04T09:46:22Z</time>
      </trkpt>
      <trkpt lat="49.08228" lon="-0.3817">
        <ele>35.3</ele>
        <time>2024-02-04T09:46:23Z</time>
      </trkpt>
      <trkpt lat="49.08231" lon="-0.38166">
        <ele>35.1</ele>
        <time>2024-02-04T09:46:24Z</time>
      </trkpt>
      <trkpt lat="49.08235" lon="-0.38163">
        <ele>34.8</ele>
        <time>2024-02-04T09:46:25Z</time>
      </trkpt>
      <trkpt lat="49.08239" lon="-0.3816">
        <ele>34.6</ele>
        <time>2024-02-04T09:46:26Z</time>
      </trkpt>
      <trkpt lat="49.08244" lon="-0.38158">
        <ele>34.3</ele>
        <time>2024-02-04T09:46:27Z</time>
      </trkpt>
      <trkpt lat="49.08249" lon="-0.38154">
        <ele>33.9</ele>
        <time>2024-02-04T09:46:28Z</time>
      </trkpt>
      <trkpt lat="49.08255" lon="-0.38151">
        <ele>33.6</ele>
        <time>2024-02-04T09:46:29Z</time>
      </trkpt>
      <trkpt lat="49.08261" lon="-0.38147">
        <ele>33.2</ele>
        <time>2024-02-04T09:46:30Z</time>
      </trkpt>
      <trkpt lat="49.08267" lon="-0.38144">
        <ele>32.8</ele>
        <time>2024-02-04T09:46:31Z</time>
      </trkpt>
      <trkpt lat="49.08273" lon="-0.3814">
        <ele>32.4</ele>
        <time>2024-02-04T09:46:32Z</time>
      </trkpt>
      <trkpt lat="49.0828" lon="-0.38137">
        <ele>32</ele>
        <time>2024-02-04T09:46:33Z</time>
      </trkpt>
      <trkpt lat="49.08288" lon="-0.38133">
        <ele>31.6</ele>
        <time>2024-02-04T09:46:34Z</time>
      </trkpt>
      <trkpt lat="49.08295" lon="-0.38129">
        <ele>31.1</ele>
        <time>2024-02-04T09:46:35Z</time>
      </trkpt>
      <trkpt lat="49.08303" lon="-0.38125">
        <ele>30.7</ele>
        <time>2024-02-04T09:46:36Z</time>
      </trkpt>
      <trkpt lat="49.08311" lon="-0.38121">
        <ele>30.2</ele>
        <time>2024-02-04T09:46:37Z</time>
      </trkpt>
      <trkpt lat="49.08319" lon="-0.38116">
        <ele>29.7</ele>
        <time>2024-02-04T09:46:38Z</time>
      </trkpt>
      <trkpt lat="49.08327" lon="-0.38111">
        <ele>29.2</ele>
        <time>2024-02-04T09:46:39Z</time>
      </trkpt>
      <trkpt lat="49.08336" lon="-0.38107">
        <ele>28.7</ele>
        <time>2024-02-04T09:46:40Z</time>
      </trkpt>
      <trkpt lat="49.08345" lon="-0.38102">
        <ele>28.2</ele>
        <time>2024-02-04T09:46:41Z</time>
      </trkpt>
      <trkpt lat="49.08353" lon="-0.38097">
        <ele>28</ele>
        <time>2024-02-04T09:46:42Z</time>
      </trkpt>
      <trkpt lat="49.08362" lon="-0.38092">
        <ele>27.4</ele>
        <time>2024-02-04T09:46:43Z</time>
      </trkpt>
      <trkpt lat="49.08372" lon="-0.38087">
        <ele>26.9</ele>
        <time>2024-02-04T09:46:44Z</time>
      </trkpt>
      <trkpt lat="49.08381" lon="-0.38082">
        <ele>26.3</ele>
        <time>2024-02-04T09:46:45Z</time>
      </trkpt>
      <trkpt lat="49.0839" lon="-0.38076">
        <ele>25.9</ele>
        <time>2024-02-04T09:46:46Z</time>
      </trkpt>
      <trkpt lat="49.084" lon="-0.38071">
        <ele>25.4</ele>
        <time>2024-02-04T09:46:47Z</time>
      </trkpt>
      <trkpt lat="49.0841" lon="-0.38065">
        <ele>24.8</ele>
        <time>2024-02-04T09:46:48Z</time>
      </trkpt>
      <trkpt lat="49.0842" lon="-0.38059">
        <ele>24.2</ele>
        <time>2024-02-04T09:46:49Z</time>
      </trkpt>
      <trkpt lat="49.0843" lon="-0.38053">
        <ele>23.7</ele>
        <time>2024-02-04T09:46:50Z</time>
      </trkpt>
      <trkpt lat="49.0844" lon="-0.38048">
        <ele>23.2</ele>
        <time>2024-02-04T09:46:51Z</time>
      </trkpt>
      <trkpt lat="49.0845" lon="-0.38042">
        <ele>22.7</ele>
        <time>2024-02-04T09:46:52Z</time>
      </trkpt>
      <trkpt lat="49.0846" lon="-0.38036">
        <ele>22.2</ele>
        <time>2024-02-04T09:46:53Z</time>
      </trkpt>
      <trkpt lat="49.08471" lon="-0.3803">
        <ele>22</ele>
        <time>2024-02-04T09:46:54Z</time>
      </trkpt>
      <trkpt lat="49.08481" lon="-0.38025">
        <ele>21.4</ele>
        <time>2024-02-04T09:46:55Z</time>
      </trkpt>
      <trkpt lat="49.08491" lon="-0.38019">
        <ele>20.8</ele>
        <time>2024-02-04T09:46:56Z</time>
      </trkpt>
      <trkpt lat="49.08501" lon="-0.38014">
        <ele>20.3</ele>
        <time>2024-02-04T09:46:57Z</time>
      </trkpt>
      <trkpt lat="49.08511" lon="-0.38007">
        <ele>19.8</ele>
        <time>2024-02-04T09:46:58Z</time>
      </trkpt>
      <trkpt lat="49.08521" lon="-0.38">
        <ele>19.5</ele>
        <time>2024-02-04T09:46:59Z</time>
      </trkpt>
      <trkpt lat="49.08531" lon="-0.37993">
        <ele>19.4</ele>
        <time>2024-02-04T09:47:00Z</time>
      </trkpt>
      <trkpt lat="49.08539" lon="-0.37984">
        <ele>19.4</ele>
        <time>2024-02-04T09:47:01Z</time>
      </trkpt>
      <trkpt lat="49.08548" lon="-0.37976">
        <ele>19.4</ele>
        <time>2024-02-04T09:47:02Z</time>
      </trkpt>
      <trkpt lat="49.08556" lon="-0.37968">
        <ele>19.5</ele>
        <time>2024-02-04T09:47:03Z</time>
      </trkpt>
      <trkpt lat="49.08564" lon="-0.3796">
        <ele>19.6</ele>
        <time>2024-02-04T09:47:04Z</time>
      </trkpt>
      <trkpt lat="49.08572" lon="-0.37953">
        <ele>19.7</ele>
        <time>2024-02-04T09:47:05Z</time>
      </trkpt>
      <trkpt lat="49.08579" lon="-0.37945">
        <ele>19.8</ele>
        <time>2024-02-04T09:47:06Z</time>
      </trkpt>
      <trkpt lat="49.08584" lon="-0.37939">
        <ele>19.9</ele>
        <time>2024-02-04T09:47:07Z</time>
      </trkpt>
      <trkpt lat="49.08589" lon="-0.37932">
        <ele>19.9</ele>
        <time>2024-02-04T09:47:08Z</time>
      </trkpt>
      <trkpt lat="49.08592" lon="-0.37925">
        <ele>20</ele>
        <time>2024-02-04T09:47:09Z</time>
      </trkpt>
      <trkpt lat="49.08591" lon="-0.37916">
        <ele>20.2</ele>
        <time>2024-02-04T09:47:10Z</time>
      </trkpt>
      <trkpt lat="49.08588" lon="-0.37909">
        <ele>20.2</ele>
        <time>2024-02-04T09:47:11Z</time>
      </trkpt>
      <trkpt lat="49.08583" lon="-0.37903">
        <ele>20.2</ele>
        <time>2024-02-04T09:47:12Z</time>
      </trkpt>
      <trkpt lat="49.08579" lon="-0.37895">
        <ele>20.2</ele>
        <time>2024-02-04T09:47:13Z</time>
      </trkpt>
      <trkpt lat="49.08577" lon="-0.37887">
        <ele>20.1</ele>
        <time>2024-02-04T09:47:14Z</time>
      </trkpt>
      <trkpt lat="49.08576" lon="-0.37875">
        <ele>20</ele>
        <time>2024-02-04T09:47:15Z</time>
      </trkpt>
      <trkpt lat="49.08575" lon="-0.37863">
        <ele>19.9</ele>
        <time>2024-02-04T09:47:16Z</time>
      </trkpt>
      <trkpt lat="49.08575" lon="-0.37851">
        <ele>19.7</ele>
        <time>2024-02-04T09:47:17Z</time>
      </trkpt>
      <trkpt lat="49.08575" lon="-0.37838">
        <ele>19.5</ele>
        <time>2024-02-04T09:47:18Z</time>
      </trkpt>
      <trkpt lat="49.08575" lon="-0.37825">
        <ele>19.3</ele>
        <time>2024-02-04T09:47:19Z</time>
      </trkpt>
      <trkpt lat="49.08574" lon="-0.37811">
        <ele>19.1</ele>
        <time>2024-02-04T09:47:20Z</time>
      </trkpt>
      <trkpt lat="49.08574" lon="-0.37797">
        <ele>18.9</ele>
        <time>2024-02-04T09:47:21Z</time>
      </trkpt>
      <trkpt lat="49.08573" lon="-0.37783">
        <ele>18.8</ele>
        <time>2024-02-04T09:47:22Z</time>
      </trkpt>
      <trkpt lat="49.08571" lon="-0.3777">
        <ele>18.6</ele>
        <time>2024-02-04T09:47:23Z</time>
      </trkpt>
      <trkpt lat="49.0857" lon="-0.37756">
        <ele>18.5</ele>
        <time>2024-02-04T09:47:24Z</time>
      </trkpt>
      <trkpt lat="49.08567" lon="-0.37742">
        <ele>18.4</ele>
        <time>2024-02-04T09:47:25Z</time>
      </trkpt>
      <trkpt lat="49.08564" lon="-0.37729">
        <ele>18.3</ele>
        <time>2024-02-04T09:47:26Z</time>
      </trkpt>
      <trkpt lat="49.08561" lon="-0.37716">
        <ele>18.2</ele>
        <time>2024-02-04T09:47:27Z</time>
      </trkpt>
      <trkpt lat="49.08557" lon="-0.37703">
        <ele>18.2</ele>
        <time>2024-02-04T09:47:28Z</time>
      </trkpt>
      <trkpt lat="49.08554" lon="-0.3769">
        <ele>18.1</ele>
        <time>2024-02-04T09:47:29Z</time>
      </trkpt>
      <trkpt lat="49.08551" lon="-0.37676">
        <ele>18.1</ele>
        <time>2024-02-04T09:47:30Z</time>
      </trkpt>
      <trkpt lat="49.08549" lon="-0.37663">
        <ele>18.2</ele>
        <time>2024-02-04T09:47:31Z</time>
      </trkpt>
      <trkpt lat="49.08547" lon="-0.37649">
        <ele>18.3</ele>
        <time>2024-02-04T09:47:32Z</time>
      </trkpt>
      <trkpt lat="49.08544" lon="-0.37637">
        <ele>18.5</ele>
        <time>2024-02-04T09:47:33Z</time>
      </trkpt>
      <trkpt lat="49.08542" lon="-0.37624">
        <ele>18.7</ele>
        <time>2024-02-04T09:47:34Z</time>
      </trkpt>
      <trkpt lat="49.08539" lon="-0.37611">
        <ele>19</ele>
        <time>2024-02-04T09:47:35Z</time>
      </trkpt>
      <trkpt lat="49.08537" lon="-0.37599">
        <ele>19.2</ele>
        <time>2024-02-04T09:47:36Z</time>
      </trkpt>
      <trkpt lat="49.08534" lon="-0.37586">
        <ele>19.5</ele>
        <time>2024-02-04T09:47:37Z</time>
      </trkpt>
      <trkpt lat="49.08532" lon="-0.37575">
        <ele>19.7</ele>
        <time>2024-02-04T09:47:38Z</time>
      </trkpt>
      <trkpt lat="49.08529" lon="-0.37563">
        <ele>19.9</ele>
        <time>2024-02-04T09:47:39Z</time>
      </trkpt>
      <trkpt lat="49.08526" lon="-0.37552">
        <ele>20.2</ele>
        <time>2024-02-04T09:47:40Z</time>
      </trkpt>
      <trkpt lat="49.08524" lon="-0.37542">
        <ele>20.4</ele>
        <time>2024-02-04T09:47:41Z</time>
      </trkpt>
      <trkpt lat="49.08522" lon="-0.37532">
        <ele>20.7</ele>
        <time>2024-02-04T09:47:42Z</time>
      </trkpt>
      <trkpt lat="49.0852" lon="-0.37522">
        <ele>21</ele>
        <time>2024-02-04T09:47:43Z</time>
      </trkpt>
      <trkpt lat="49.08518" lon="-0.37512">
        <ele>21.2</ele>
        <time>2024-02-04T09:47:44Z</time>
      </trkpt>
      <trkpt lat="49.08516" lon="-0.37503">
        <ele>21.7</ele>
        <time>2024-02-04T09:47:45Z</time>
      </trkpt>
      <trkpt lat="49.08514" lon="-0.37494">
        <ele>22.2</ele>
        <time>2024-02-04T09:47:46Z</time>
      </trkpt>
      <trkpt lat="49.08512" lon="-0.37485">
        <ele>22.6</ele>
        <time>2024-02-04T09:47:47Z</time>
      </trkpt>
      <trkpt lat="49.0851" lon="-0.37475">
        <ele>23.1</ele>
        <time>2024-02-04T09:47:48Z</time>
      </trkpt>
      <trkpt lat="49.08509" lon="-0.37466">
        <ele>23.6</ele>
        <time>2024-02-04T09:47:49Z</time>
      </trkpt>
      <trkpt lat="49.08507" lon="-0.37456">
        <ele>24.1</ele>
        <time>2024-02-04T09:47:50Z</time>
      </trkpt>
      <trkpt lat="49.08506" lon="-0.37447">
        <ele>24.5</ele>
        <time>2024-02-04T09:47:51Z</time>
      </trkpt>
      <trkpt lat="49.08504" lon="-0.37438">
        <ele>24.9</ele>
        <time>2024-02-04T09:47:52Z</time>
      </trkpt>
      <trkpt lat="49.08503" lon="-0.37428">
        <ele>25.3</ele>
        <time>2024-02-04T09:47:53Z</time>
      </trkpt>
      <trkpt lat="49.08503" lon="-0.37419">
        <ele>25.7</ele>
        <time>2024-02-04T09:47:54Z</time>
      </trkpt>
      <trkpt lat="49.08502" lon="-0.37409">
        <ele>26</ele>
        <time>2024-02-04T09:47:55Z</time>
      </trkpt>
      <trkpt lat="49.08502" lon="-0.374">
        <ele>26.4</ele>
        <time>2024-02-04T09:47:56Z</time>
      </trkpt>
      <trkpt lat="49.08501" lon="-0.37391">
        <ele>26.7</ele>
        <time>2024-02-04T09:47:57Z</time>
      </trkpt>
      <trkpt lat="49.08501" lon="-0.37382">
        <ele>27</ele>
        <time>2024-02-04T09:47:58Z</time>
      </trkpt>
      <trkpt lat="49.085" lon="-0.37373">
        <ele>27.3</ele>
        <time>2024-02-04T09:47:59Z</time>
      </trkpt>
      <trkpt lat="49.085" lon="-0.37363">
        <ele>27.6</ele>
        <time>2024-02-04T09:48:00Z</time>
      </trkpt>
      <trkpt lat="49.085" lon="-0.37354">
        <ele>27.8</ele>
        <time>2024-02-04T09:48:01Z</time>
      </trkpt>
      <trkpt lat="49.08501" lon="-0.37345">
        <ele>28</ele>
        <time>2024-02-04T09:48:02Z</time>
      </trkpt>
      <trkpt lat="49.08502" lon="-0.37337">
        <ele>28.2</ele>
        <time>2024-02-04T09:48:03Z</time>
      </trkpt>
      <trkpt lat="49.08502" lon="-0.37327">
        <ele>28.4</ele>
        <time>2024-02-04T09:48:04Z</time>
      </trkpt>
      <trkpt lat="49.08504" lon="-0.37317">
        <ele>28.5</ele>
        <time>2024-02-04T09:48:05Z</time>
      </trkpt>
      <trkpt lat="49.08505" lon="-0.37308">
        <ele>28.7</ele>
        <time>2024-02-04T09:48:06Z</time>
      </trkpt>
      <trkpt lat="49.08507" lon="-0.37298">
        <ele>28.8</ele>
        <time>2024-02-04T09:48:07Z</time>
      </trkpt>
      <trkpt lat="49.08508" lon="-0.37289">
        <ele>29</ele>
        <time>2024-02-04T09:48:08Z</time>
      </trkpt>
      <trkpt lat="49.0851" lon="-0.37279">
        <ele>29.1</ele>
        <time>2024-02-04T09:48:09Z</time>
      </trkpt>
      <trkpt lat="49.08512" lon="-0.37269">
        <ele>29.2</ele>
        <time>2024-02-04T09:48:10Z</time>
      </trkpt>
      <trkpt lat="49.08514" lon="-0.3726">
        <ele>29.3</ele>
        <time>2024-02-04T09:48:11Z</time>
      </trkpt>
      <trkpt lat="49.08516" lon="-0.3725">
        <ele>29.4</ele>
        <time>2024-02-04T09:48:12Z</time>
      </trkpt>
      <trkpt lat="49.08518" lon="-0.3724">
        <ele>29.5</ele>
        <time>2024-02-04T09:48:13Z</time>
      </trkpt>
      <trkpt lat="49.0852" lon="-0.3723">
        <ele>29.5</ele>
        <time>2024-02-04T09:48:14Z</time>
      </trkpt>
      <trkpt lat="49.08523" lon="-0.3722">
        <ele>29.6</ele>
        <time>2024-02-04T09:48:15Z</time>
      </trkpt>
      <trkpt lat="49.08525" lon="-0.3721">
        <ele>29.6</ele>
        <time>2024-02-04T09:48:16Z</time>
      </trkpt>
      <trkpt lat="49.08527" lon="-0.37199">
        <ele>29.6</ele>
        <time>2024-02-04T09:48:17Z</time>
      </trkpt>
      <trkpt lat="49.08529" lon="-0.37189">
        <ele>29.6</ele>
        <time>2024-02-04T09:48:18Z</time>
      </trkpt>
      <trkpt lat="49.08532" lon="-0.37179">
        <ele>29.6</ele>
        <time>2024-02-04T09:48:19Z</time>
      </trkpt>
      <trkpt lat="49.08534" lon="-0.37169">
        <ele>29.6</ele>
        <time>2024-02-04T09:48:20Z</time>
      </trkpt>
      <trkpt lat="49.08537" lon="-0.37159">
        <ele>29.5</ele>
        <time>2024-02-04T09:48:21Z</time>
      </trkpt>
      <trkpt lat="49.0854" lon="-0.37148">
        <ele>29.5</ele>
        <time>2024-02-04T09:48:22Z</time>
      </trkpt>
      <trkpt lat="49.08542" lon="-0.37138">
        <ele>29.4</ele>
        <time>2024-02-04T09:48:23Z</time>
      </trkpt>
      <trkpt lat="49.08545" lon="-0.37127">
        <ele>29.4</ele>
        <time>2024-02-04T09:48:24Z</time>
      </trkpt>
      <trkpt lat="49.08548" lon="-0.37117">
        <ele>29.3</ele>
        <time>2024-02-04T09:48:25Z</time>
      </trkpt>
      <trkpt lat="49.08551" lon="-0.37106">
        <ele>29.2</ele>
        <time>2024-02-04T09:48:26Z</time>
      </trkpt>
      <trkpt lat="49.08555" lon="-0.37095">
        <ele>29.2</ele>
        <time>2024-02-04T09:48:27Z</time>
      </trkpt>
      <trkpt lat="49.08558" lon="-0.37085">
        <ele>29.1</ele>
        <time>2024-02-04T09:48:28Z</time>
      </trkpt>
      <trkpt lat="49.08562" lon="-0.37074">
        <ele>29</ele>
        <time>2024-02-04T09:48:29Z</time>
      </trkpt>
      <trkpt lat="49.08566" lon="-0.37063">
        <ele>28.9</ele>
        <time>2024-02-04T09:48:30Z</time>
      </trkpt>
      <trkpt lat="49.0857" lon="-0.37053">
        <ele>28.9</ele>
        <time>2024-02-04T09:48:31Z</time>
      </trkpt>
      <trkpt lat="49.08574" lon="-0.37042">
        <ele>28.9</ele>
        <time>2024-02-04T09:48:32Z</time>
      </trkpt>
      <trkpt lat="49.08579" lon="-0.37032">
        <ele>28.9</ele>
        <time>2024-02-04T09:48:33Z</time>
      </trkpt>
      <trkpt lat="49.08584" lon="-0.37023">
        <ele>29</ele>
        <time>2024-02-04T09:48:34Z</time>
      </trkpt>
      <trkpt lat="49.08589" lon="-0.37014">
        <ele>29</ele>
        <time>2024-02-04T09:48:35Z</time>
      </trkpt>
      <trkpt lat="49.08594" lon="-0.37005">
        <ele>29.2</ele>
        <time>2024-02-04T09:48:36Z</time>
      </trkpt>
      <trkpt lat="49.08599" lon="-0.36996">
        <ele>29.3</ele>
        <time>2024-02-04T09:48:37Z</time>
      </trkpt>
      <trkpt lat="49.08604" lon="-0.36988">
        <ele>29.5</ele>
        <time>2024-02-04T09:48:38Z</time>
      </trkpt>
      <trkpt lat="49.08609" lon="-0.36981">
        <ele>29.7</ele>
        <time>2024-02-04T09:48:39Z</time>
      </trkpt>
      <trkpt lat="49.08613" lon="-0.36974">
        <ele>29.9</ele>
        <time>2024-02-04T09:48:40Z</time>
      </trkpt>
      <trkpt lat="49.08618" lon="-0.36966">
        <ele>30.1</ele>
        <time>2024-02-04T09:48:41Z</time>
      </trkpt>
      <trkpt lat="49.08622" lon="-0.36959">
        <ele>30.3</ele>
        <time>2024-02-04T09:48:42Z</time>
      </trkpt>
      <trkpt lat="49.08626" lon="-0.36952">
        <ele>30.6</ele>
        <time>2024-02-04T09:48:43Z</time>
      </trkpt>
      <trkpt lat="49.0863" lon="-0.36946">
        <ele>30.8</ele>
        <time>2024-02-04T09:48:44Z</time>
      </trkpt>
      <trkpt lat="49.08634" lon="-0.36939">
        <ele>31</ele>
        <time>2024-02-04T09:48:45Z</time>
      </trkpt>
      <trkpt lat="49.08638" lon="-0.36932">
        <ele>31.3</ele>
        <time>2024-02-04T09:48:46Z</time>
      </trkpt>
      <trkpt lat="49.08642" lon="-0.36926">
        <ele>31.5</ele>
        <time>2024-02-04T09:48:47Z</time>
      </trkpt>
      <trkpt lat="49.08646" lon="-0.36919">
        <ele>31.7</ele>
        <time>2024-02-04T09:48:48Z</time>
      </trkpt>
      <trkpt lat="49.0865" lon="-0.36913">
        <ele>31.9</ele>
        <time>2024-02-04T09:48:49Z</time>
      </trkpt>
      <trkpt lat="49.08654" lon="-0.36906">
        <ele>32.1</ele>
        <time>2024-02-04T09:48:50Z</time>
      </trkpt>
      <trkpt lat="49.08658" lon="-0.36901">
        <ele>32.4</ele>
        <time>2024-02-04T09:48:51Z</time>
      </trkpt>
      <trkpt lat="49.08662" lon="-0.36894">
        <ele>32.6</ele>
        <time>2024-02-04T09:48:52Z</time>
      </trkpt>
      <trkpt lat="49.08666" lon="-0.36888">
        <ele>32.8</ele>
        <time>2024-02-04T09:48:53Z</time>
      </trkpt>
      <trkpt lat="49.0867" lon="-0.36882">
        <ele>33.1</ele>
        <time>2024-02-04T09:48:54Z</time>
      </trkpt>
      <trkpt lat="49.08674" lon="-0.36876">
        <ele>33.3</ele>
        <time>2024-02-04T09:48:55Z</time>
      </trkpt>
      <trkpt lat="49.08678" lon="-0.36869">
        <ele>33.5</ele>
        <time>2024-02-04T09:48:56Z</time>
      </trkpt>
      <trkpt lat="49.08681" lon="-0.36862">
        <ele>33.8</ele>
        <time>2024-02-04T09:48:57Z</time>
      </trkpt>
      <trkpt lat="49.08685" lon="-0.36856">
        <ele>34</ele>
        <time>2024-02-04T09:48:58Z</time>
      </trkpt>
      <trkpt lat="49.08688" lon="-0.3685">
        <ele>34.2</ele>
        <time>2024-02-04T09:48:59Z</time>
      </trkpt>
      <trkpt lat="49.08692" lon="-0.36842">
        <ele>34.5</ele>
        <time>2024-02-04T09:49:00Z</time>
      </trkpt>
      <trkpt lat="49.08695" lon="-0.36836">
        <ele>34.7</ele>
        <time>2024-02-04T09:49:01Z</time>
      </trkpt>
      <trkpt lat="49.08699" lon="-0.36829">
        <ele>35</ele>
        <time>2024-02-04T09:49:02Z</time>
      </trkpt>
      <trkpt lat="49.08702" lon="-0.36822">
        <ele>35.2</ele>
        <time>2024-02-04T09:49:03Z</time>
      </trkpt>
      <trkpt lat="49.08705" lon="-0.36815">
        <ele>35.5</ele>
        <time>2024-02-04T09:49:04Z</time>
      </trkpt>
      <trkpt lat="49.08708" lon="-0.36808">
        <ele>35.8</ele>
        <time>2024-02-04T09:49:05Z</time>
      </trkpt>
      <trkpt lat="49.08711" lon="-0.36801">
        <ele>36</ele>
        <time>2024-02-04T09:49:06Z</time>
      </trkpt>
      <trkpt lat="49.08714" lon="-0.36794">
        <ele>36.3</ele>
        <time>2024-02-04T09:49:07Z</time>
      </trkpt>
      <trkpt lat="49.08716" lon="-0.36787">
        <ele>36.6</ele>
        <time>2024-02-04T09:49:08Z</time>
      </trkpt>
      <trkpt lat="49.08719" lon="-0.3678">
        <ele>36.8</ele>
        <time>2024-02-04T09:49:09Z</time>
      </trkpt>
      <trkpt lat="49.08721" lon="-0.36773">
        <ele>37.1</ele>
        <time>2024-02-04T09:49:10Z</time>
      </trkpt>
      <trkpt lat="49.08724" lon="-0.36766">
        <ele>37.3</ele>
        <time>2024-02-04T09:49:11Z</time>
      </trkpt>
      <trkpt lat="49.08726" lon="-0.36759">
        <ele>37.6</ele>
        <time>2024-02-04T09:49:12Z</time>
      </trkpt>
      <trkpt lat="49.08729" lon="-0.36752">
        <ele>37.9</ele>
        <time>2024-02-04T09:49:13Z</time>
      </trkpt>
      <trkpt lat="49.08731" lon="-0.36745">
        <ele>38.1</ele>
        <time>2024-02-04T09:49:14Z</time>
      </trkpt>
      <trkpt lat="49.08733" lon="-0.36737">
        <ele>38.4</ele>
        <time>2024-02-04T09:49:15Z</time>
      </trkpt>
      <trkpt lat="49.08735" lon="-0.36731">
        <ele>38.7</ele>
        <time>2024-02-04T09:49:16Z</time>
      </trkpt>
      <trkpt lat="49.08737" lon="-0.36723">
        <ele>39</ele>
        <time>2024-02-04T09:49:17Z</time>
      </trkpt>
      <trkpt lat="49.0874" lon="-0.36716">
        <ele>39.2</ele>
        <time>2024-02-04T09:49:18Z</time>
      </trkpt>
      <trkpt lat="49.08742" lon="-0.3671">
        <ele>39.5</ele>
        <time>2024-02-04T09:49:19Z</time>
      </trkpt>
      <trkpt lat="49.08745" lon="-0.36703">
        <ele>39.8</ele>
        <time>2024-02-04T09:49:20Z</time>
      </trkpt>
      <trkpt lat="49.08747" lon="-0.36696">
        <ele>40.1</ele>
        <time>2024-02-04T09:49:21Z</time>
      </trkpt>
      <trkpt lat="49.08749" lon="-0.36689">
        <ele>40.4</ele>
        <time>2024-02-04T09:49:22Z</time>
      </trkpt>
      <trkpt lat="49.08751" lon="-0.36682">
        <ele>40.7</ele>
        <time>2024-02-04T09:49:23Z</time>
      </trkpt>
      <trkpt lat="49.08754" lon="-0.36675">
        <ele>40.9</ele>
        <time>2024-02-04T09:49:24Z</time>
      </trkpt>
      <trkpt lat="49.08756" lon="-0.36669">
        <ele>41.2</ele>
        <time>2024-02-04T09:49:25Z</time>
      </trkpt>
      <trkpt lat="49.08759" lon="-0.36662">
        <ele>41.5</ele>
        <time>2024-02-04T09:49:26Z</time>
      </trkpt>
      <trkpt lat="49.08761" lon="-0.36655">
        <ele>41.8</ele>
        <time>2024-02-04T09:49:27Z</time>
      </trkpt>
      <trkpt lat="49.08763" lon="-0.36649">
        <ele>42</ele>
        <time>2024-02-04T09:49:28Z</time>
      </trkpt>
      <trkpt lat="49.08765" lon="-0.36642">
        <ele>42.3</ele>
        <time>2024-02-04T09:49:29Z</time>
      </trkpt>
      <trkpt lat="49.08768" lon="-0.36635">
        <ele>42.5</ele>
        <time>2024-02-04T09:49:30Z</time>
      </trkpt>
      <trkpt lat="49.0877" lon="-0.36629">
        <ele>42.8</ele>
        <time>2024-02-04T09:49:31Z</time>
      </trkpt>
      <trkpt lat="49.08773" lon="-0.36622">
        <ele>43</ele>
        <time>2024-02-04T09:49:32Z</time>
      </trkpt>
      <trkpt lat="49.08775" lon="-0.36615">
        <ele>43.2</ele>
        <time>2024-02-04T09:49:33Z</time>
      </trkpt>
      <trkpt lat="49.08777" lon="-0.36608">
        <ele>43.4</ele>
        <time>2024-02-04T09:49:34Z</time>
      </trkpt>
      <trkpt lat="49.08779" lon="-0.36601">
        <ele>43.6</ele>
        <time>2024-02-04T09:49:35Z</time>
      </trkpt>
      <trkpt lat="49.08782" lon="-0.36594">
        <ele>43.8</ele>
        <time>2024-02-04T09:49:36Z</time>
      </trkpt>
      <trkpt lat="49.08784" lon="-0.36587">
        <ele>44</ele>
        <time>2024-02-04T09:49:37Z</time>
      </trkpt>
      <trkpt lat="49.08787" lon="-0.3658">
        <ele>44.2</ele>
        <time>2024-02-04T09:49:38Z</time>
      </trkpt>
      <trkpt lat="49.0879" lon="-0.36573">
        <ele>44.4</ele>
        <time>2024-02-04T09:49:39Z</time>
      </trkpt>
      <trkpt lat="49.08792" lon="-0.36566">
        <ele>44.5</ele>
        <time>2024-02-04T09:49:40Z</time>
      </trkpt>
      <trkpt lat="49.08795" lon="-0.36559">
        <ele>44.7</ele>
        <time>2024-02-04T09:49:41Z</time>
      </trkpt>
      <trkpt lat="49.08798" lon="-0.36551">
        <ele>44.8</ele>
        <time>2024-02-04T09:49:42Z</time>
      </trkpt>
      <trkpt lat="49.08801" lon="-0.36544">
        <ele>45</ele>
        <time>2024-02-04T09:49:43Z</time>
      </trkpt>
      <trkpt lat="49.08804" lon="-0.36537">
        <ele>45.1</ele>
        <time>2024-02-04T09:49:44Z</time>
      </trkpt>
      <trkpt lat="49.08807" lon="-0.3653">
        <ele>45.2</ele>
        <time>2024-02-04T09:49:45Z</time>
      </trkpt>
      <trkpt lat="49.0881" lon="-0.36523">
        <ele>45.3</ele>
        <time>2024-02-04T09:49:46Z</time>
      </trkpt>
      <trkpt lat="49.08813" lon="-0.36516">
        <ele>45.4</ele>
        <time>2024-02-04T09:49:47Z</time>
      </trkpt>
      <trkpt lat="49.08816" lon="-0.36509">
        <ele>45.6</ele>
        <time>2024-02-04T09:49:48Z</time>
      </trkpt>
      <trkpt lat="49.0882" lon="-0.36502">
        <ele>45.7</ele>
        <time>2024-02-04T09:49:49Z</time>
      </trkpt>
      <trkpt lat="49.08823" lon="-0.36495">
        <ele>45.8</ele>
        <time>2024-02-04T09:49:50Z</time>
      </trkpt>
      <trkpt lat="49.08827" lon="-0.36488">
        <ele>45.9</ele>
        <time>2024-02-04T09:49:51Z</time>
      </trkpt>
      <trkpt lat="49.0883" lon="-0.36482">
        <ele>46</ele>
        <time>2024-02-04T09:49:52Z</time>
      </trkpt>
      <trkpt lat="49.08834" lon="-0.36475">
        <ele>46.1</ele>
        <time>2024-02-04T09:49:53Z</time>
      </trkpt>
      <trkpt lat="49.08837" lon="-0.36468">
        <ele>46.2</ele>
        <time>2024-02-04T09:49:54Z</time>
      </trkpt>
      <trkpt lat="49.0884" lon="-0.36461">
        <ele>46.3</ele>
        <time>2024-02-04T09:49:55Z</time>
      </trkpt>
      <trkpt lat="49.08843" lon="-0.36453">
        <ele>46.3</ele>
        <time>2024-02-04T09:49:56Z</time>
      </trkpt>
      <trkpt lat="49.08847" lon="-0.36446">
        <ele>46.4</ele>
        <time>2024-02-04T09:49:57Z</time>
      </trkpt>
      <trkpt lat="49.08851" lon="-0.36439">
        <ele>46.5</ele>
        <time>2024-02-04T09:49:58Z</time>
      </trkpt>
      <trkpt lat="49.08854" lon="-0.36432">
        <ele>46.5</ele>
        <time>2024-02-04T09:49:59Z</time>
      </trkpt>
      <trkpt lat="49.08858" lon="-0.36424">
        <ele>46.5</ele>
        <time>2024-02-04T09:50:00Z</time>
      </trkpt>
      <trkpt lat="49.08862" lon="-0.36416">
        <ele>46.6</ele>
        <time>2024-02-04T09:50:01Z</time>
      </trkpt>
      <trkpt lat="49.08866" lon="-0.36408">
        <ele>46.6</ele>
        <time>2024-02-04T09:50:02Z</time>
      </trkpt>
      <trkpt lat="49.0887" lon="-0.364">
        <ele>46.7</ele>
        <time>2024-02-04T09:50:03Z</time>
      </trkpt>
      <trkpt lat="49.08873" lon="-0.36392">
        <ele>46.7</ele>
        <time>2024-02-04T09:50:04Z</time>
      </trkpt>
      <trkpt lat="49.08878" lon="-0.36384">
        <ele>46.6</ele>
        <time>2024-02-04T09:50:05Z</time>
      </trkpt>
      <trkpt lat="49.08882" lon="-0.36376">
        <ele>46.5</ele>
        <time>2024-02-04T09:50:06Z</time>
      </trkpt>
      <trkpt lat="49.08887" lon="-0.36368">
        <ele>46.4</ele>
        <time>2024-02-04T09:50:07Z</time>
      </trkpt>
      <trkpt lat="49.08892" lon="-0.3636">
        <ele>46.2</ele>
        <time>2024-02-04T09:50:08Z</time>
      </trkpt>
      <trkpt lat="49.08898" lon="-0.36352">
        <ele>45.9</ele>
        <time>2024-02-04T09:50:09Z</time>
      </trkpt>
      <trkpt lat="49.08904" lon="-0.36343">
        <ele>45.7</ele>
        <time>2024-02-04T09:50:10Z</time>
      </trkpt>
      <trkpt lat="49.08909" lon="-0.36334">
        <ele>45.5</ele>
        <time>2024-02-04T09:50:11Z</time>
      </trkpt>
      <trkpt lat="49.0892" lon="-0.36316">
        <ele>45</ele>
        <time>2024-02-04T09:50:13Z</time>
      </trkpt>
      <trkpt lat="49.08926" lon="-0.36306">
        <ele>44.8</ele>
        <time>2024-02-04T09:50:14Z</time>
      </trkpt>
      <trkpt lat="49.08932" lon="-0.36297">
        <ele>44.6</ele>
        <time>2024-02-04T09:50:15Z</time>
      </trkpt>
      <trkpt lat="49.08938" lon="-0.36288">
        <ele>44.4</ele>
        <time>2024-02-04T09:50:16Z</time>
      </trkpt>
      <trkpt lat="49.08944" lon="-0.36278">
        <ele>44.3</ele>
        <time>2024-02-04T09:50:17Z</time>
      </trkpt>
      <trkpt lat="49.0895" lon="-0.36268">
        <ele>44.2</ele>
        <time>2024-02-04T09:50:18Z</time>
      </trkpt>
      <trkpt lat="49.08956" lon="-0.36259">
        <ele>44.1</ele>
        <time>2024-02-04T09:50:19Z</time>
      </trkpt>
      <trkpt lat="49.08962" lon="-0.36249">
        <ele>44</ele>
        <time>2024-02-04T09:50:20Z</time>
      </trkpt>
      <trkpt lat="49.08967" lon="-0.36238">
        <ele>43.9</ele>
        <time>2024-02-04T09:50:21Z</time>
      </trkpt>
      <trkpt lat="49.08973" lon="-0.36228">
        <ele>43.8</ele>
        <time>2024-02-04T09:50:22Z</time>
      </trkpt>
      <trkpt lat="49.08978" lon="-0.36218">
        <ele>43.8</ele>
        <time>2024-02-04T09:50:23Z</time>
      </trkpt>
      <trkpt lat="49.08984" lon="-0.36208">
        <ele>43.7</ele>
        <time>2024-02-04T09:50:24Z</time>
      </trkpt>
      <trkpt lat="49.08989" lon="-0.36198">
        <ele>43.7</ele>
        <time>2024-02-04T09:50:25Z</time>
      </trkpt>
      <trkpt lat="49.08995" lon="-0.36188">
        <ele>43.6</ele>
        <time>2024-02-04T09:50:26Z</time>
      </trkpt>
      <trkpt lat="49.09001" lon="-0.36179">
        <ele>43.6</ele>
        <time>2024-02-04T09:50:27Z</time>
      </trkpt>
      <trkpt lat="49.09007" lon="-0.3617">
        <ele>43.6</ele>
        <time>2024-02-04T09:50:28Z</time>
      </trkpt>
      <trkpt lat="49.09013" lon="-0.36161">
        <ele>43.7</ele>
        <time>2024-02-04T09:50:29Z</time>
      </trkpt>
      <trkpt lat="49.09019" lon="-0.36153">
        <ele>43.8</ele>
        <time>2024-02-04T09:50:30Z</time>
      </trkpt>
      <trkpt lat="49.09026" lon="-0.36144">
        <ele>43.9</ele>
        <time>2024-02-04T09:50:31Z</time>
      </trkpt>
      <trkpt lat="49.09032" lon="-0.36136">
        <ele>44.1</ele>
        <time>2024-02-04T09:50:32Z</time>
      </trkpt>
      <trkpt lat="49.09038" lon="-0.36127">
        <ele>44.3</ele>
        <time>2024-02-04T09:50:33Z</time>
      </trkpt>
      <trkpt lat="49.09045" lon="-0.36119">
        <ele>44.6</ele>
        <time>2024-02-04T09:50:34Z</time>
      </trkpt>
      <trkpt lat="49.09051" lon="-0.3611">
        <ele>44.8</ele>
        <time>2024-02-04T09:50:35Z</time>
      </trkpt>
      <trkpt lat="49.09058" lon="-0.36103">
        <ele>45.1</ele>
        <time>2024-02-04T09:50:36Z</time>
      </trkpt>
      <trkpt lat="49.09064" lon="-0.36095">
        <ele>45.4</ele>
        <time>2024-02-04T09:50:37Z</time>
      </trkpt>
      <trkpt lat="49.09071" lon="-0.36088">
        <ele>45.6</ele>
        <time>2024-02-04T09:50:38Z</time>
      </trkpt>
      <trkpt lat="49.09077" lon="-0.36081">
        <ele>45.8</ele>
        <time>2024-02-04T09:50:39Z</time>
      </trkpt>
      <trkpt lat="49.09084" lon="-0.36074">
        <ele>45.9</ele>
        <time>2024-02-04T09:50:40Z</time>
      </trkpt>
      <trkpt lat="49.0909" lon="-0.36066">
        <ele>46.1</ele>
        <time>2024-02-04T09:50:41Z</time>
      </trkpt>
      <trkpt lat="49.09095" lon="-0.36059">
        <ele>46.3</ele>
        <time>2024-02-04T09:50:42Z</time>
      </trkpt>
      <trkpt lat="49.09099" lon="-0.36051">
        <ele>46.5</ele>
        <time>2024-02-04T09:50:43Z</time>
      </trkpt>
      <trkpt lat="49.09104" lon="-0.36042">
        <ele>46.8</ele>
        <time>2024-02-04T09:50:44Z</time>
      </trkpt>
      <trkpt lat="49.09108" lon="-0.36033">
        <ele>47</ele>
        <time>2024-02-04T09:50:45Z</time>
      </trkpt>
      <trkpt lat="49.09112" lon="-0.36024">
        <ele>47.2</ele>
        <time>2024-02-04T09:50:46Z</time>
      </trkpt>
      <trkpt lat="49.09115" lon="-0.36014">
        <ele>47.4</ele>
        <time>2024-02-04T09:50:47Z</time>
      </trkpt>
      <trkpt lat="49.09118" lon="-0.36004">
        <ele>47.6</ele>
        <time>2024-02-04T09:50:48Z</time>
      </trkpt>
      <trkpt lat="49.0912" lon="-0.35994">
        <ele>47.9</ele>
        <time>2024-02-04T09:50:49Z</time>
      </trkpt>
      <trkpt lat="49.09122" lon="-0.35983">
        <ele>48.2</ele>
        <time>2024-02-04T09:50:50Z</time>
      </trkpt>
      <trkpt lat="49.09123" lon="-0.35973">
        <ele>48.5</ele>
        <time>2024-02-04T09:50:51Z</time>
      </trkpt>
      <trkpt lat="49.09124" lon="-0.35962">
        <ele>48.7</ele>
        <time>2024-02-04T09:50:52Z</time>
      </trkpt>
      <trkpt lat="49.09124" lon="-0.35952">
        <ele>48.7</ele>
        <time>2024-02-04T09:50:53Z</time>
      </trkpt>
      <trkpt lat="49.09124" lon="-0.35941">
        <ele>48.8</ele>
        <time>2024-02-04T09:50:54Z</time>
      </trkpt>
      <trkpt lat="49.09124" lon="-0.35931">
        <ele>48.9</ele>
        <time>2024-02-04T09:50:55Z</time>
      </trkpt>
      <trkpt lat="49.09123" lon="-0.3592">
        <ele>49</ele>
        <time>2024-02-04T09:50:56Z</time>
      </trkpt>
      <trkpt lat="49.09122" lon="-0.35909">
        <ele>49.1</ele>
        <time>2024-02-04T09:50:57Z</time>
      </trkpt>
      <trkpt lat="49.09121" lon="-0.35899">
        <ele>49.1</ele>
        <time>2024-02-04T09:50:58Z</time>
      </trkpt>
      <trkpt lat="49.0912" lon="-0.35888">
        <ele>49.2</ele>
        <time>2024-02-04T09:50:59Z</time>
      </trkpt>
      <trkpt lat="49.0912" lon="-0.35878">
        <ele>49.3</ele>
        <time>2024-02-04T09:51:00Z</time>
      </trkpt>
      <trkpt lat="49.0912" lon="-0.35867">
        <ele>49.4</ele>
        <time>2024-02-04T09:51:01Z</time>
      </trkpt>
      <trkpt lat="49.09119" lon="-0.35856">
        <ele>49.4</ele>
        <time>2024-02-04T09:51:02Z</time>
      </trkpt>
      <trkpt lat="49.09119" lon="-0.35845">
        <ele>49.5</ele>
        <time>2024-02-04T09:51:03Z</time>
      </trkpt>
      <trkpt lat="49.09118" lon="-0.35834">
        <ele>49.6</ele>
        <time>2024-02-04T09:51:04Z</time>
      </trkpt>
      <trkpt lat="49.09118" lon="-0.35823">
        <ele>49.8</ele>
        <time>2024-02-04T09:51:05Z</time>
      </trkpt>
      <trkpt lat="49.09118" lon="-0.35812">
        <ele>49.8</ele>
        <time>2024-02-04T09:51:06Z</time>
      </trkpt>
      <trkpt lat="49.09117" lon="-0.35801">
        <ele>50</ele>
        <time>2024-02-04T09:51:07Z</time>
      </trkpt>
      <trkpt lat="49.09117" lon="-0.3579">
        <ele>50</ele>
        <time>2024-02-04T09:51:08Z</time>
      </trkpt>
      <trkpt lat="49.09118" lon="-0.35779">
        <ele>50.1</ele>
        <time>2024-02-04T09:51:09Z</time>
      </trkpt>
      <trkpt lat="49.09118" lon="-0.35768">
        <ele>50.2</ele>
        <time>2024-02-04T09:51:10Z</time>
      </trkpt>
      <trkpt lat="49.09119" lon="-0.35757">
        <ele>50.3</ele>
        <time>2024-02-04T09:51:11Z</time>
      </trkpt>
      <trkpt lat="49.0912" lon="-0.35746">
        <ele>50.4</ele>
        <time>2024-02-04T09:51:12Z</time>
      </trkpt>
      <trkpt lat="49.09122" lon="-0.35735">
        <ele>50.4</ele>
        <time>2024-02-04T09:51:13Z</time>
      </trkpt>
      <trkpt lat="49.09124" lon="-0.35724">
        <ele>50.4</ele>
        <time>2024-02-04T09:51:14Z</time>
      </trkpt>
      <trkpt lat="49.09126" lon="-0.35713">
        <ele>50.4</ele>
        <time>2024-02-04T09:51:15Z</time>
      </trkpt>
      <trkpt lat="49.09128" lon="-0.35702">
        <ele>50.4</ele>
        <time>2024-02-04T09:51:16Z</time>
      </trkpt>
      <trkpt lat="49.09131" lon="-0.35691">
        <ele>50.3</ele>
        <time>2024-02-04T09:51:17Z</time>
      </trkpt>
      <trkpt lat="49.09134" lon="-0.3568">
        <ele>50.2</ele>
        <time>2024-02-04T09:51:18Z</time>
      </trkpt>
      <trkpt lat="49.09137" lon="-0.3567">
        <ele>50.1</ele>
        <time>2024-02-04T09:51:19Z</time>
      </trkpt>
      <trkpt lat="49.09141" lon="-0.35659">
        <ele>50</ele>
        <time>2024-02-04T09:51:20Z</time>
      </trkpt>
      <trkpt lat="49.09145" lon="-0.35649">
        <ele>49.9</ele>
        <time>2024-02-04T09:51:21Z</time>
      </trkpt>
      <trkpt lat="49.0915" lon="-0.35639">
        <ele>49.9</ele>
        <time>2024-02-04T09:51:22Z</time>
      </trkpt>
      <trkpt lat="49.09156" lon="-0.3563">
        <ele>49.9</ele>
        <time>2024-02-04T09:51:23Z</time>
      </trkpt>
      <trkpt lat="49.09161" lon="-0.35621">
        <ele>49.9</ele>
        <time>2024-02-04T09:51:24Z</time>
      </trkpt>
      <trkpt lat="49.09167" lon="-0.35612">
        <ele>49.9</ele>
        <time>2024-02-04T09:51:25Z</time>
      </trkpt>
      <trkpt lat="49.09173" lon="-0.35603">
        <ele>49.9</ele>
        <time>2024-02-04T09:51:26Z</time>
      </trkpt>
      <trkpt lat="49.09179" lon="-0.35595">
        <ele>49.9</ele>
        <time>2024-02-04T09:51:27Z</time>
      </trkpt>
      <trkpt lat="49.09184" lon="-0.35587">
        <ele>50</ele>
        <time>2024-02-04T09:51:28Z</time>
      </trkpt>
      <trkpt lat="49.0919" lon="-0.35579">
        <ele>50</ele>
        <time>2024-02-04T09:51:29Z</time>
      </trkpt>
      <trkpt lat="49.09196" lon="-0.3557">
        <ele>50.1</ele>
        <time>2024-02-04T09:51:30Z</time>
      </trkpt>
      <trkpt lat="49.09202" lon="-0.35562">
        <ele>50.2</ele>
        <time>2024-02-04T09:51:31Z</time>
      </trkpt>
      <trkpt lat="49.09207" lon="-0.35554">
        <ele>50.3</ele>
        <time>2024-02-04T09:51:32Z</time>
      </trkpt>
      <trkpt lat="49.09213" lon="-0.35547">
        <ele>50.5</ele>
        <time>2024-02-04T09:51:33Z</time>
      </trkpt>
      <trkpt lat="49.09218" lon="-0.3554">
        <ele>50.6</ele>
        <time>2024-02-04T09:51:34Z</time>
      </trkpt>
      <trkpt lat="49.09223" lon="-0.35533">
        <ele>50.8</ele>
        <time>2024-02-04T09:51:35Z</time>
      </trkpt>
      <trkpt lat="49.09227" lon="-0.35525">
        <ele>50.9</ele>
        <time>2024-02-04T09:51:36Z</time>
      </trkpt>
      <trkpt lat="49.0923" lon="-0.35518">
        <ele>51</ele>
        <time>2024-02-04T09:51:37Z</time>
      </trkpt>
      <trkpt lat="49.09234" lon="-0.35511">
        <ele>51</ele>
        <time>2024-02-04T09:51:38Z</time>
      </trkpt>
      <trkpt lat="49.09239" lon="-0.35506">
        <ele>51.1</ele>
        <time>2024-02-04T09:51:39Z</time>
      </trkpt>
      <trkpt lat="49.09244" lon="-0.355">
        <ele>51.1</ele>
        <time>2024-02-04T09:51:40Z</time>
      </trkpt>
      <trkpt lat="49.09248" lon="-0.35492">
        <ele>51.1</ele>
        <time>2024-02-04T09:51:41Z</time>
      </trkpt>
      <trkpt lat="49.09252" lon="-0.35483">
        <ele>51.1</ele>
        <time>2024-02-04T09:51:42Z</time>
      </trkpt>
      <trkpt lat="49.09256" lon="-0.35474">
        <ele>51.2</ele>
        <time>2024-02-04T09:51:43Z</time>
      </trkpt>
      <trkpt lat="49.09261" lon="-0.35464">
        <ele>51.2</ele>
        <time>2024-02-04T09:51:44Z</time>
      </trkpt>
      <trkpt lat="49.09265" lon="-0.35455">
        <ele>51.3</ele>
        <time>2024-02-04T09:51:45Z</time>
      </trkpt>
      <trkpt lat="49.0927" lon="-0.35445">
        <ele>51.3</ele>
        <time>2024-02-04T09:51:46Z</time>
      </trkpt>
      <trkpt lat="49.09274" lon="-0.35436">
        <ele>51.4</ele>
        <time>2024-02-04T09:51:47Z</time>
      </trkpt>
      <trkpt lat="49.09278" lon="-0.35426">
        <ele>51.4</ele>
        <time>2024-02-04T09:51:48Z</time>
      </trkpt>
      <trkpt lat="49.09282" lon="-0.35417">
        <ele>51.5</ele>
        <time>2024-02-04T09:51:49Z</time>
      </trkpt>
      <trkpt lat="49.09285" lon="-0.35407">
        <ele>51.5</ele>
        <time>2024-02-04T09:51:50Z</time>
      </trkpt>
      <trkpt lat="49.09289" lon="-0.35398">
        <ele>51.6</ele>
        <time>2024-02-04T09:51:51Z</time>
      </trkpt>
      <trkpt lat="49.09293" lon="-0.35388">
        <ele>51.6</ele>
        <time>2024-02-04T09:51:52Z</time>
      </trkpt>
      <trkpt lat="49.09296" lon="-0.35378">
        <ele>51.7</ele>
        <time>2024-02-04T09:51:53Z</time>
      </trkpt>
      <trkpt lat="49.093" lon="-0.35369">
        <ele>51.8</ele>
        <time>2024-02-04T09:51:54Z</time>
      </trkpt>
      <trkpt lat="49.09304" lon="-0.35359">
        <ele>51.9</ele>
        <time>2024-02-04T09:51:55Z</time>
      </trkpt>
      <trkpt lat="49.09308" lon="-0.35349">
        <ele>52</ele>
        <time>2024-02-04T09:51:56Z</time>
      </trkpt>
      <trkpt lat="49.09313" lon="-0.35339">
        <ele>52.1</ele>
        <time>2024-02-04T09:51:57Z</time>
      </trkpt>
      <trkpt lat="49.09317" lon="-0.3533">
        <ele>52.2</ele>
        <time>2024-02-04T09:51:58Z</time>
      </trkpt>
      <trkpt lat="49.09322" lon="-0.35321">
        <ele>52.4</ele>
        <time>2024-02-04T09:51:59Z</time>
      </trkpt>
      <trkpt lat="49.09327" lon="-0.35312">
        <ele>52.5</ele>
        <time>2024-02-04T09:52:00Z</time>
      </trkpt>
      <trkpt lat="49.09331" lon="-0.35304">
        <ele>52.6</ele>
        <time>2024-02-04T09:52:01Z</time>
      </trkpt>
      <trkpt lat="49.09336" lon="-0.35295">
        <ele>52.8</ele>
        <time>2024-02-04T09:52:02Z</time>
      </trkpt>
      <trkpt lat="49.0934" lon="-0.35287">
        <ele>52.9</ele>
        <time>2024-02-04T09:52:03Z</time>
      </trkpt>
      <trkpt lat="49.09344" lon="-0.35278">
        <ele>53</ele>
        <time>2024-02-04T09:52:04Z</time>
      </trkpt>
      <trkpt lat="49.09349" lon="-0.35269">
        <ele>53</ele>
        <time>2024-02-04T09:52:05Z</time>
      </trkpt>
      <trkpt lat="49.09352" lon="-0.3526">
        <ele>53.1</ele>
        <time>2024-02-04T09:52:06Z</time>
      </trkpt>
      <trkpt lat="49.09356" lon="-0.35251">
        <ele>53.2</ele>
        <time>2024-02-04T09:52:07Z</time>
      </trkpt>
      <trkpt lat="49.0936" lon="-0.35241">
        <ele>53.2</ele>
        <time>2024-02-04T09:52:08Z</time>
      </trkpt>
      <trkpt lat="49.09363" lon="-0.3523">
        <ele>53.3</ele>
        <time>2024-02-04T09:52:09Z</time>
      </trkpt>
      <trkpt lat="49.09366" lon="-0.3522">
        <ele>53.4</ele>
        <time>2024-02-04T09:52:10Z</time>
      </trkpt>
      <trkpt lat="49.09369" lon="-0.3521">
        <ele>53.5</ele>
        <time>2024-02-04T09:52:11Z</time>
      </trkpt>
      <trkpt lat="49.09372" lon="-0.35199">
        <ele>53.6</ele>
        <time>2024-02-04T09:52:12Z</time>
      </trkpt>
      <trkpt lat="49.09374" lon="-0.3519">
        <ele>53.7</ele>
        <time>2024-02-04T09:52:13Z</time>
      </trkpt>
      <trkpt lat="49.09377" lon="-0.3518">
        <ele>53.7</ele>
        <time>2024-02-04T09:52:14Z</time>
      </trkpt>
      <trkpt lat="49.0938" lon="-0.35171">
        <ele>53.8</ele>
        <time>2024-02-04T09:52:15Z</time>
      </trkpt>
      <trkpt lat="49.09382" lon="-0.35162">
        <ele>53.8</ele>
        <time>2024-02-04T09:52:16Z</time>
      </trkpt>
      <trkpt lat="49.09384" lon="-0.35154">
        <ele>53.8</ele>
        <time>2024-02-04T09:52:17Z</time>
      </trkpt>
      <trkpt lat="49.09386" lon="-0.35146">
        <ele>53.8</ele>
        <time>2024-02-04T09:52:18Z</time>
      </trkpt>
      <trkpt lat="49.09389" lon="-0.35138">
        <ele>53.8</ele>
        <time>2024-02-04T09:52:19Z</time>
      </trkpt>
      <trkpt lat="49.09392" lon="-0.35129">
        <ele>53.8</ele>
        <time>2024-02-04T09:52:20Z</time>
      </trkpt>
      <trkpt lat="49.09395" lon="-0.3512">
        <ele>53.8</ele>
        <time>2024-02-04T09:52:21Z</time>
      </trkpt>
      <trkpt lat="49.09399" lon="-0.35112">
        <ele>53.8</ele>
        <time>2024-02-04T09:52:22Z</time>
      </trkpt>
      <trkpt lat="49.09403" lon="-0.35103">
        <ele>53.8</ele>
        <time>2024-02-04T09:52:23Z</time>
      </trkpt>
      <trkpt lat="49.09407" lon="-0.35094">
        <ele>53.7</ele>
        <time>2024-02-04T09:52:24Z</time>
      </trkpt>
      <trkpt lat="49.09409" lon="-0.35084">
        <ele>53.5</ele>
        <time>2024-02-04T09:52:25Z</time>
      </trkpt>
      <trkpt lat="49.09411" lon="-0.35074">
        <ele>53.4</ele>
        <time>2024-02-04T09:52:26Z</time>
      </trkpt>
      <trkpt lat="49.09414" lon="-0.35064">
        <ele>53.3</ele>
        <time>2024-02-04T09:52:27Z</time>
      </trkpt>
      <trkpt lat="49.09416" lon="-0.35053">
        <ele>53.2</ele>
        <time>2024-02-04T09:52:28Z</time>
      </trkpt>
      <trkpt lat="49.09418" lon="-0.35042">
        <ele>53.1</ele>
        <time>2024-02-04T09:52:29Z</time>
      </trkpt>
      <trkpt lat="49.09421" lon="-0.35031">
        <ele>53</ele>
        <time>2024-02-04T09:52:30Z</time>
      </trkpt>
      <trkpt lat="49.09423" lon="-0.3502">
        <ele>52.9</ele>
        <time>2024-02-04T09:52:31Z</time>
      </trkpt>
      <trkpt lat="49.09426" lon="-0.35007">
        <ele>52.8</ele>
        <time>2024-02-04T09:52:32Z</time>
      </trkpt>
      <trkpt lat="49.09428" lon="-0.34994">
        <ele>52.8</ele>
        <time>2024-02-04T09:52:33Z</time>
      </trkpt>
      <trkpt lat="49.0943" lon="-0.34981">
        <ele>52.7</ele>
        <time>2024-02-04T09:52:34Z</time>
      </trkpt>
      <trkpt lat="49.09433" lon="-0.34968">
        <ele>52.6</ele>
        <time>2024-02-04T09:52:35Z</time>
      </trkpt>
      <trkpt lat="49.09435" lon="-0.34956">
        <ele>52.6</ele>
        <time>2024-02-04T09:52:36Z</time>
      </trkpt>
      <trkpt lat="49.09438" lon="-0.34943">
        <ele>52.6</ele>
        <time>2024-02-04T09:52:37Z</time>
      </trkpt>
      <trkpt lat="49.0944" lon="-0.34931">
        <ele>52.5</ele>
        <time>2024-02-04T09:52:38Z</time>
      </trkpt>
      <trkpt lat="49.09442" lon="-0.34918">
        <ele>52.5</ele>
        <time>2024-02-04T09:52:39Z</time>
      </trkpt>
      <trkpt lat="49.09444" lon="-0.34905">
        <ele>52.5</ele>
        <time>2024-02-04T09:52:40Z</time>
      </trkpt>
      <trkpt lat="49.09447" lon="-0.34892">
        <ele>52.4</ele>
        <time>2024-02-04T09:52:41Z</time>
      </trkpt>
      <trkpt lat="49.09449" lon="-0.3488">
        <ele>52.4</ele>
        <time>2024-02-04T09:52:42Z</time>
      </trkpt>
      <trkpt lat="49.09451" lon="-0.34867">
        <ele>52.4</ele>
        <time>2024-02-04T09:52:43Z</time>
      </trkpt>
      <trkpt lat="49.09453" lon="-0.34855">
        <ele>52.3</ele>
        <time>2024-02-04T09:52:44Z</time>
      </trkpt>
      <trkpt lat="49.09456" lon="-0.34843">
        <ele>52.3</ele>
        <time>2024-02-04T09:52:45Z</time>
      </trkpt>
      <trkpt lat="49.09459" lon="-0.3483">
        <ele>52.3</ele>
        <time>2024-02-04T09:52:46Z</time>
      </trkpt>
      <trkpt lat="49.09461" lon="-0.34819">
        <ele>52.3</ele>
        <time>2024-02-04T09:52:47Z</time>
      </trkpt>
      <trkpt lat="49.09463" lon="-0.34807">
        <ele>52.3</ele>
        <time>2024-02-04T09:52:48Z</time>
      </trkpt>
      <trkpt lat="49.09465" lon="-0.34796">
        <ele>52.4</ele>
        <time>2024-02-04T09:52:49Z</time>
      </trkpt>
      <trkpt lat="49.09467" lon="-0.34784">
        <ele>52.4</ele>
        <time>2024-02-04T09:52:50Z</time>
      </trkpt>
      <trkpt lat="49.09469" lon="-0.34773">
        <ele>52.4</ele>
        <time>2024-02-04T09:52:51Z</time>
      </trkpt>
      <trkpt lat="49.09471" lon="-0.34762">
        <ele>52.4</ele>
        <time>2024-02-04T09:52:52Z</time>
      </trkpt>
      <trkpt lat="49.09473" lon="-0.3475">
        <ele>52.4</ele>
        <time>2024-02-04T09:52:53Z</time>
      </trkpt>
      <trkpt lat="49.09476" lon="-0.34738">
        <ele>52.4</ele>
        <time>2024-02-04T09:52:54Z</time>
      </trkpt>
      <trkpt lat="49.09478" lon="-0.34726">
        <ele>52.4</ele>
        <time>2024-02-04T09:52:55Z</time>
      </trkpt>
      <trkpt lat="49.0948" lon="-0.34714">
        <ele>52.4</ele>
        <time>2024-02-04T09:52:56Z</time>
      </trkpt>
      <trkpt lat="49.09482" lon="-0.34702">
        <ele>52.5</ele>
        <time>2024-02-04T09:52:57Z</time>
      </trkpt>
      <trkpt lat="49.09485" lon="-0.3469">
        <ele>52.5</ele>
        <time>2024-02-04T09:52:58Z</time>
      </trkpt>
      <trkpt lat="49.09487" lon="-0.34677">
        <ele>52.5</ele>
        <time>2024-02-04T09:52:59Z</time>
      </trkpt>
      <trkpt lat="49.09489" lon="-0.34665">
        <ele>52.6</ele>
        <time>2024-02-04T09:53:00Z</time>
      </trkpt>
      <trkpt lat="49.09492" lon="-0.34654">
        <ele>52.6</ele>
        <time>2024-02-04T09:53:01Z</time>
      </trkpt>
      <trkpt lat="49.09494" lon="-0.34642">
        <ele>52.7</ele>
        <time>2024-02-04T09:53:02Z</time>
      </trkpt>
      <trkpt lat="49.09496" lon="-0.3463">
        <ele>52.8</ele>
        <time>2024-02-04T09:53:03Z</time>
      </trkpt>
      <trkpt lat="49.09498" lon="-0.34618">
        <ele>52.9</ele>
        <time>2024-02-04T09:53:04Z</time>
      </trkpt>
      <trkpt lat="49.095" lon="-0.34607">
        <ele>53</ele>
        <time>2024-02-04T09:53:05Z</time>
      </trkpt>
      <trkpt lat="49.09502" lon="-0.34595">
        <ele>53</ele>
        <time>2024-02-04T09:53:06Z</time>
      </trkpt>
      <trkpt lat="49.09504" lon="-0.34584">
        <ele>53.1</ele>
        <time>2024-02-04T09:53:07Z</time>
      </trkpt>
      <trkpt lat="49.09507" lon="-0.34573">
        <ele>53.2</ele>
        <time>2024-02-04T09:53:08Z</time>
      </trkpt>
      <trkpt lat="49.09509" lon="-0.34562">
        <ele>53.3</ele>
        <time>2024-02-04T09:53:09Z</time>
      </trkpt>
      <trkpt lat="49.09512" lon="-0.3455">
        <ele>53.3</ele>
        <time>2024-02-04T09:53:10Z</time>
      </trkpt>
      <trkpt lat="49.09514" lon="-0.34538">
        <ele>53.4</ele>
        <time>2024-02-04T09:53:11Z</time>
      </trkpt>
      <trkpt lat="49.09516" lon="-0.34526">
        <ele>53.4</ele>
        <time>2024-02-04T09:53:12Z</time>
      </trkpt>
      <trkpt lat="49.09519" lon="-0.34514">
        <ele>53.4</ele>
        <time>2024-02-04T09:53:13Z</time>
      </trkpt>
      <trkpt lat="49.09521" lon="-0.34502">
        <ele>53.5</ele>
        <time>2024-02-04T09:53:14Z</time>
      </trkpt>
      <trkpt lat="49.09523" lon="-0.34491">
        <ele>53.6</ele>
        <time>2024-02-04T09:53:15Z</time>
      </trkpt>
      <trkpt lat="49.09525" lon="-0.34479">
        <ele>53.7</ele>
        <time>2024-02-04T09:53:16Z</time>
      </trkpt>
      <trkpt lat="49.09527" lon="-0.34467">
        <ele>53.7</ele>
        <time>2024-02-04T09:53:17Z</time>
      </trkpt>
      <trkpt lat="49.09529" lon="-0.34455">
        <ele>53.8</ele>
        <time>2024-02-04T09:53:18Z</time>
      </trkpt>
      <trkpt lat="49.0953" lon="-0.34443">
        <ele>53.9</ele>
        <time>2024-02-04T09:53:19Z</time>
      </trkpt>
      <trkpt lat="49.09532" lon="-0.34431">
        <ele>53.9</ele>
        <time>2024-02-04T09:53:20Z</time>
      </trkpt>
      <trkpt lat="49.09533" lon="-0.34418">
        <ele>54</ele>
        <time>2024-02-04T09:53:21Z</time>
      </trkpt>
      <trkpt lat="49.09533" lon="-0.34406">
        <ele>54</ele>
        <time>2024-02-04T09:53:22Z</time>
      </trkpt>
      <trkpt lat="49.09534" lon="-0.34393">
        <ele>54.1</ele>
        <time>2024-02-04T09:53:23Z</time>
      </trkpt>
      <trkpt lat="49.09534" lon="-0.34381">
        <ele>54.1</ele>
        <time>2024-02-04T09:53:24Z</time>
      </trkpt>
      <trkpt lat="49.09534" lon="-0.34368">
        <ele>54.2</ele>
        <time>2024-02-04T09:53:25Z</time>
      </trkpt>
      <trkpt lat="49.09534" lon="-0.34354">
        <ele>54.3</ele>
        <time>2024-02-04T09:53:26Z</time>
      </trkpt>
      <trkpt lat="49.09534" lon="-0.34341">
        <ele>54.3</ele>
        <time>2024-02-04T09:53:27Z</time>
      </trkpt>
      <trkpt lat="49.09534" lon="-0.34328">
        <ele>54.3</ele>
        <time>2024-02-04T09:53:28Z</time>
      </trkpt>
      <trkpt lat="49.09534" lon="-0.34315">
        <ele>54.4</ele>
        <time>2024-02-04T09:53:29Z</time>
      </trkpt>
      <trkpt lat="49.09534" lon="-0.34302">
        <ele>54.4</ele>
        <time>2024-02-04T09:53:30Z</time>
      </trkpt>
      <trkpt lat="49.09533" lon="-0.34289">
        <ele>54.4</ele>
        <time>2024-02-04T09:53:31Z</time>
      </trkpt>
      <trkpt lat="49.09533" lon="-0.34276">
        <ele>54.4</ele>
        <time>2024-02-04T09:53:32Z</time>
      </trkpt>
      <trkpt lat="49.09533" lon="-0.34263">
        <ele>54.4</ele>
        <time>2024-02-04T09:53:33Z</time>
      </trkpt>
      <trkpt lat="49.09533" lon="-0.34249">
        <ele>54.5</ele>
        <time>2024-02-04T09:53:34Z</time>
      </trkpt>
      <trkpt lat="49.09533" lon="-0.34235">
        <ele>54.6</ele>
        <time>2024-02-04T09:53:35Z</time>
      </trkpt>
      <trkpt lat="49.09533" lon="-0.34221">
        <ele>54.6</ele>
        <time>2024-02-04T09:53:36Z</time>
      </trkpt>
      <trkpt lat="49.09532" lon="-0.34207">
        <ele>54.7</ele>
        <time>2024-02-04T09:53:37Z</time>
      </trkpt>
      <trkpt lat="49.09532" lon="-0.34193">
        <ele>54.8</ele>
        <time>2024-02-04T09:53:38Z</time>
      </trkpt>
      <trkpt lat="49.09532" lon="-0.34179">
        <ele>54.8</ele>
        <time>2024-02-04T09:53:39Z</time>
      </trkpt>
      <trkpt lat="49.09531" lon="-0.34165">
        <ele>54.9</ele>
        <time>2024-02-04T09:53:40Z</time>
      </trkpt>
      <trkpt lat="49.09531" lon="-0.34151">
        <ele>54.9</ele>
        <time>2024-02-04T09:53:41Z</time>
      </trkpt>
      <trkpt lat="49.09531" lon="-0.34137">
        <ele>54.9</ele>
        <time>2024-02-04T09:53:42Z</time>
      </trkpt>
      <trkpt lat="49.09531" lon="-0.34124">
        <ele>54.9</ele>
        <time>2024-02-04T09:53:43Z</time>
      </trkpt>
      <trkpt lat="49.09531" lon="-0.34111">
        <ele>54.9</ele>
        <time>2024-02-04T09:53:44Z</time>
      </trkpt>
      <trkpt lat="49.09531" lon="-0.34098">
        <ele>55</ele>
        <time>2024-02-04T09:53:45Z</time>
      </trkpt>
      <trkpt lat="49.09531" lon="-0.34087">
        <ele>55</ele>
        <time>2024-02-04T09:53:46Z</time>
      </trkpt>
      <trkpt lat="49.0953" lon="-0.34075">
        <ele>55</ele>
        <time>2024-02-04T09:53:47Z</time>
      </trkpt>
      <trkpt lat="49.0953" lon="-0.34063">
        <ele>55</ele>
        <time>2024-02-04T09:53:48Z</time>
      </trkpt>
      <trkpt lat="49.0953" lon="-0.34051">
        <ele>55</ele>
        <time>2024-02-04T09:53:49Z</time>
      </trkpt>
      <trkpt lat="49.0953" lon="-0.3404">
        <ele>55</ele>
        <time>2024-02-04T09:53:50Z</time>
      </trkpt>
      <trkpt lat="49.09529" lon="-0.34029">
        <ele>55.1</ele>
        <time>2024-02-04T09:53:51Z</time>
      </trkpt>
      <trkpt lat="49.09529" lon="-0.34017">
        <ele>55.1</ele>
        <time>2024-02-04T09:53:52Z</time>
      </trkpt>
      <trkpt lat="49.09529" lon="-0.34007">
        <ele>55.1</ele>
        <time>2024-02-04T09:53:53Z</time>
      </trkpt>
      <trkpt lat="49.09529" lon="-0.33995">
        <ele>55</ele>
        <time>2024-02-04T09:53:54Z</time>
      </trkpt>
      <trkpt lat="49.09529" lon="-0.33984">
        <ele>55</ele>
        <time>2024-02-04T09:53:55Z</time>
      </trkpt>
      <trkpt lat="49.09529" lon="-0.33973">
        <ele>54.9</ele>
        <time>2024-02-04T09:53:56Z</time>
      </trkpt>
      <trkpt lat="49.09529" lon="-0.33961">
        <ele>54.8</ele>
        <time>2024-02-04T09:53:57Z</time>
      </trkpt>
      <trkpt lat="49.09529" lon="-0.33949">
        <ele>54.8</ele>
        <time>2024-02-04T09:53:58Z</time>
      </trkpt>
      <trkpt lat="49.09529" lon="-0.33937">
        <ele>54.8</ele>
        <time>2024-02-04T09:53:59Z</time>
      </trkpt>
      <trkpt lat="49.09528" lon="-0.33925">
        <ele>54.8</ele>
        <time>2024-02-04T09:54:00Z</time>
      </trkpt>
      <trkpt lat="49.09528" lon="-0.33913">
        <ele>54.8</ele>
        <time>2024-02-04T09:54:01Z</time>
      </trkpt>
      <trkpt lat="49.09528" lon="-0.33901">
        <ele>54.9</ele>
        <time>2024-02-04T09:54:02Z</time>
      </trkpt>
      <trkpt lat="49.09528" lon="-0.33889">
        <ele>54.9</ele>
        <time>2024-02-04T09:54:03Z</time>
      </trkpt>
      <trkpt lat="49.09528" lon="-0.33878">
        <ele>55</ele>
        <time>2024-02-04T09:54:04Z</time>
      </trkpt>
      <trkpt lat="49.09528" lon="-0.33866">
        <ele>55</ele>
        <time>2024-02-04T09:54:05Z</time>
      </trkpt>
      <trkpt lat="49.09529" lon="-0.33855">
        <ele>55</ele>
        <time>2024-02-04T09:54:06Z</time>
      </trkpt>
      <trkpt lat="49.09528" lon="-0.33843">
        <ele>55.1</ele>
        <time>2024-02-04T09:54:07Z</time>
      </trkpt>
      <trkpt lat="49.09527" lon="-0.33832">
        <ele>55.2</ele>
        <time>2024-02-04T09:54:08Z</time>
      </trkpt>
      <trkpt lat="49.09527" lon="-0.3382">
        <ele>55.3</ele>
        <time>2024-02-04T09:54:09Z</time>
      </trkpt>
      <trkpt lat="49.09527" lon="-0.33809">
        <ele>55.4</ele>
        <time>2024-02-04T09:54:10Z</time>
      </trkpt>
      <trkpt lat="49.09527" lon="-0.33798">
        <ele>55.5</ele>
        <time>2024-02-04T09:54:11Z</time>
      </trkpt>
      <trkpt lat="49.09527" lon="-0.33788">
        <ele>55.6</ele>
        <time>2024-02-04T09:54:12Z</time>
      </trkpt>
      <trkpt lat="49.09527" lon="-0.33777">
        <ele>55.8</ele>
        <time>2024-02-04T09:54:13Z</time>
      </trkpt>
      <trkpt lat="49.09526" lon="-0.33768">
        <ele>55.9</ele>
        <time>2024-02-04T09:54:14Z</time>
      </trkpt>
      <trkpt lat="49.09526" lon="-0.33758">
        <ele>56.1</ele>
        <time>2024-02-04T09:54:15Z</time>
      </trkpt>
      <trkpt lat="49.09525" lon="-0.33748">
        <ele>56.2</ele>
        <time>2024-02-04T09:54:16Z</time>
      </trkpt>
      <trkpt lat="49.09525" lon="-0.33738">
        <ele>56.4</ele>
        <time>2024-02-04T09:54:17Z</time>
      </trkpt>
      <trkpt lat="49.09525" lon="-0.33728">
        <ele>56.6</ele>
        <time>2024-02-04T09:54:18Z</time>
      </trkpt>
      <trkpt lat="49.09524" lon="-0.33719">
        <ele>56.8</ele>
        <time>2024-02-04T09:54:19Z</time>
      </trkpt>
      <trkpt lat="49.09524" lon="-0.33709">
        <ele>57</ele>
        <time>2024-02-04T09:54:20Z</time>
      </trkpt>
      <trkpt lat="49.09523" lon="-0.337">
        <ele>57.2</ele>
        <time>2024-02-04T09:54:21Z</time>
      </trkpt>
      <trkpt lat="49.09523" lon="-0.33691">
        <ele>57.5</ele>
        <time>2024-02-04T09:54:22Z</time>
      </trkpt>
      <trkpt lat="49.09523" lon="-0.33672">
        <ele>57.9</ele>
        <time>2024-02-04T09:54:24Z</time>
      </trkpt>
      <trkpt lat="49.09523" lon="-0.33663">
        <ele>58.2</ele>
        <time>2024-02-04T09:54:25Z</time>
      </trkpt>
      <trkpt lat="49.09523" lon="-0.33653">
        <ele>58.4</ele>
        <time>2024-02-04T09:54:26Z</time>
      </trkpt>
      <trkpt lat="49.09523" lon="-0.33643">
        <ele>58.6</ele>
        <time>2024-02-04T09:54:27Z</time>
      </trkpt>
      <trkpt lat="49.09523" lon="-0.33634">
        <ele>58.9</ele>
        <time>2024-02-04T09:54:28Z</time>
      </trkpt>
      <trkpt lat="49.09523" lon="-0.33624">
        <ele>59.1</ele>
        <time>2024-02-04T09:54:29Z</time>
      </trkpt>
      <trkpt lat="49.09523" lon="-0.33614">
        <ele>59.3</ele>
        <time>2024-02-04T09:54:30Z</time>
      </trkpt>
      <trkpt lat="49.09523" lon="-0.33605">
        <ele>59.5</ele>
        <time>2024-02-04T09:54:31Z</time>
      </trkpt>
      <trkpt lat="49.09524" lon="-0.33595">
        <ele>59.6</ele>
        <time>2024-02-04T09:54:32Z</time>
      </trkpt>
      <trkpt lat="49.09524" lon="-0.33585">
        <ele>59.8</ele>
        <time>2024-02-04T09:54:33Z</time>
      </trkpt>
      <trkpt lat="49.09524" lon="-0.33575">
        <ele>60</ele>
        <time>2024-02-04T09:54:34Z</time>
      </trkpt>
      <trkpt lat="49.09524" lon="-0.33565">
        <ele>60.2</ele>
        <time>2024-02-04T09:54:35Z</time>
      </trkpt>
      <trkpt lat="49.09525" lon="-0.33556">
        <ele>60.3</ele>
        <time>2024-02-04T09:54:36Z</time>
      </trkpt>
      <trkpt lat="49.09525" lon="-0.33546">
        <ele>60.5</ele>
        <time>2024-02-04T09:54:37Z</time>
      </trkpt>
      <trkpt lat="49.09525" lon="-0.33536">
        <ele>60.7</ele>
        <time>2024-02-04T09:54:38Z</time>
      </trkpt>
      <trkpt lat="49.09526" lon="-0.33526">
        <ele>60.8</ele>
        <time>2024-02-04T09:54:39Z</time>
      </trkpt>
      <trkpt lat="49.09526" lon="-0.33517">
        <ele>61</ele>
        <time>2024-02-04T09:54:40Z</time>
      </trkpt>
      <trkpt lat="49.09527" lon="-0.33507">
        <ele>61.1</ele>
        <time>2024-02-04T09:54:41Z</time>
      </trkpt>
      <trkpt lat="49.09528" lon="-0.33497">
        <ele>61.3</ele>
        <time>2024-02-04T09:54:42Z</time>
      </trkpt>
      <trkpt lat="49.09529" lon="-0.33488">
        <ele>61.4</ele>
        <time>2024-02-04T09:54:43Z</time>
      </trkpt>
      <trkpt lat="49.09529" lon="-0.33478">
        <ele>61.5</ele>
        <time>2024-02-04T09:54:44Z</time>
      </trkpt>
      <trkpt lat="49.0953" lon="-0.33468">
        <ele>61.7</ele>
        <time>2024-02-04T09:54:45Z</time>
      </trkpt>
      <trkpt lat="49.09531" lon="-0.33459">
        <ele>61.8</ele>
        <time>2024-02-04T09:54:46Z</time>
      </trkpt>
      <trkpt lat="49.09532" lon="-0.33449">
        <ele>62</ele>
        <time>2024-02-04T09:54:47Z</time>
      </trkpt>
      <trkpt lat="49.09533" lon="-0.3344">
        <ele>62.2</ele>
        <time>2024-02-04T09:54:48Z</time>
      </trkpt>
      <trkpt lat="49.09534" lon="-0.3343">
        <ele>62.3</ele>
        <time>2024-02-04T09:54:49Z</time>
      </trkpt>
      <trkpt lat="49.09535" lon="-0.33421">
        <ele>62.5</ele>
        <time>2024-02-04T09:54:50Z</time>
      </trkpt>
      <trkpt lat="49.09536" lon="-0.33412">
        <ele>62.7</ele>
        <time>2024-02-04T09:54:51Z</time>
      </trkpt>
      <trkpt lat="49.09537" lon="-0.33403">
        <ele>62.8</ele>
        <time>2024-02-04T09:54:52Z</time>
      </trkpt>
      <trkpt lat="49.09538" lon="-0.33394">
        <ele>62.9</ele>
        <time>2024-02-04T09:54:53Z</time>
      </trkpt>
      <trkpt lat="49.09539" lon="-0.33384">
        <ele>63.1</ele>
        <time>2024-02-04T09:54:54Z</time>
      </trkpt>
      <trkpt lat="49.09541" lon="-0.33375">
        <ele>63.2</ele>
        <time>2024-02-04T09:54:55Z</time>
      </trkpt>
      <trkpt lat="49.09544" lon="-0.33364">
        <ele>63.4</ele>
        <time>2024-02-04T09:54:56Z</time>
      </trkpt>
      <trkpt lat="49.09545" lon="-0.33354">
        <ele>63.6</ele>
        <time>2024-02-04T09:54:57Z</time>
      </trkpt>
      <trkpt lat="49.09547" lon="-0.33343">
        <ele>63.8</ele>
        <time>2024-02-04T09:54:58Z</time>
      </trkpt>
      <trkpt lat="49.09549" lon="-0.33333">
        <ele>63.9</ele>
        <time>2024-02-04T09:54:59Z</time>
      </trkpt>
      <trkpt lat="49.09551" lon="-0.33323">
        <ele>64.1</ele>
        <time>2024-02-04T09:55:00Z</time>
      </trkpt>
      <trkpt lat="49.09553" lon="-0.33312">
        <ele>64.3</ele>
        <time>2024-02-04T09:55:01Z</time>
      </trkpt>
      <trkpt lat="49.09555" lon="-0.33301">
        <ele>64.5</ele>
        <time>2024-02-04T09:55:02Z</time>
      </trkpt>
      <trkpt lat="49.09557" lon="-0.33291">
        <ele>64.6</ele>
        <time>2024-02-04T09:55:03Z</time>
      </trkpt>
      <trkpt lat="49.0956" lon="-0.33282">
        <ele>64.8</ele>
        <time>2024-02-04T09:55:04Z</time>
      </trkpt>
      <trkpt lat="49.09563" lon="-0.33272">
        <ele>65</ele>
        <time>2024-02-04T09:55:05Z</time>
      </trkpt>
      <trkpt lat="49.09566" lon="-0.33262">
        <ele>65.1</ele>
        <time>2024-02-04T09:55:06Z</time>
      </trkpt>
      <trkpt lat="49.09568" lon="-0.33252">
        <ele>65.3</ele>
        <time>2024-02-04T09:55:07Z</time>
      </trkpt>
      <trkpt lat="49.0957" lon="-0.33243">
        <ele>65.4</ele>
        <time>2024-02-04T09:55:08Z</time>
      </trkpt>
      <trkpt lat="49.09573" lon="-0.33233">
        <ele>65.6</ele>
        <time>2024-02-04T09:55:09Z</time>
      </trkpt>
      <trkpt lat="49.09575" lon="-0.33224">
        <ele>65.8</ele>
        <time>2024-02-04T09:55:10Z</time>
      </trkpt>
      <trkpt lat="49.09578" lon="-0.33214">
        <ele>65.9</ele>
        <time>2024-02-04T09:55:11Z</time>
      </trkpt>
      <trkpt lat="49.09581" lon="-0.33204">
        <ele>66.1</ele>
        <time>2024-02-04T09:55:12Z</time>
      </trkpt>
      <trkpt lat="49.09584" lon="-0.33195">
        <ele>66.3</ele>
        <time>2024-02-04T09:55:13Z</time>
      </trkpt>
      <trkpt lat="49.09586" lon="-0.33185">
        <ele>66.4</ele>
        <time>2024-02-04T09:55:14Z</time>
      </trkpt>
      <trkpt lat="49.09589" lon="-0.33174">
        <ele>66.6</ele>
        <time>2024-02-04T09:55:15Z</time>
      </trkpt>
      <trkpt lat="49.09592" lon="-0.33164">
        <ele>66.7</ele>
        <time>2024-02-04T09:55:16Z</time>
      </trkpt>
      <trkpt lat="49.09595" lon="-0.33155">
        <ele>66.9</ele>
        <time>2024-02-04T09:55:17Z</time>
      </trkpt>
      <trkpt lat="49.09597" lon="-0.33145">
        <ele>67</ele>
        <time>2024-02-04T09:55:18Z</time>
      </trkpt>
      <trkpt lat="49.09599" lon="-0.33135">
        <ele>67.1</ele>
        <time>2024-02-04T09:55:19Z</time>
      </trkpt>
      <trkpt lat="49.09601" lon="-0.33124">
        <ele>67.3</ele>
        <time>2024-02-04T09:55:20Z</time>
      </trkpt>
      <trkpt lat="49.09602" lon="-0.33114">
        <ele>67.4</ele>
        <time>2024-02-04T09:55:21Z</time>
      </trkpt>
      <trkpt lat="49.09604" lon="-0.33104">
        <ele>67.6</ele>
        <time>2024-02-04T09:55:22Z</time>
      </trkpt>
      <trkpt lat="49.09606" lon="-0.33093">
        <ele>67.7</ele>
        <time>2024-02-04T09:55:23Z</time>
      </trkpt>
      <trkpt lat="49.09607" lon="-0.33082">
        <ele>67.9</ele>
        <time>2024-02-04T09:55:24Z</time>
      </trkpt>
      <trkpt lat="49.09608" lon="-0.33071">
        <ele>68.1</ele>
        <time>2024-02-04T09:55:25Z</time>
      </trkpt>
      <trkpt lat="49.09609" lon="-0.33061">
        <ele>68.3</ele>
        <time>2024-02-04T09:55:26Z</time>
      </trkpt>
      <trkpt lat="49.0961" lon="-0.3305">
        <ele>68.5</ele>
        <time>2024-02-04T09:55:27Z</time>
      </trkpt>
      <trkpt lat="49.09611" lon="-0.33039">
        <ele>68.6</ele>
        <time>2024-02-04T09:55:28Z</time>
      </trkpt>
      <trkpt lat="49.09611" lon="-0.33029">
        <ele>68.8</ele>
        <time>2024-02-04T09:55:29Z</time>
      </trkpt>
      <trkpt lat="49.09611" lon="-0.33018">
        <ele>69</ele>
        <time>2024-02-04T09:55:30Z</time>
      </trkpt>
      <trkpt lat="49.09612" lon="-0.33008">
        <ele>69.1</ele>
        <time>2024-02-04T09:55:31Z</time>
      </trkpt>
      <trkpt lat="49.09611" lon="-0.32997">
        <ele>69.3</ele>
        <time>2024-02-04T09:55:32Z</time>
      </trkpt>
      <trkpt lat="49.09611" lon="-0.32987">
        <ele>69.5</ele>
        <time>2024-02-04T09:55:33Z</time>
      </trkpt>
      <trkpt lat="49.0961" lon="-0.32977">
        <ele>69.7</ele>
        <time>2024-02-04T09:55:34Z</time>
      </trkpt>
      <trkpt lat="49.0961" lon="-0.32966">
        <ele>69.9</ele>
        <time>2024-02-04T09:55:35Z</time>
      </trkpt>
      <trkpt lat="49.09609" lon="-0.32956">
        <ele>70.1</ele>
        <time>2024-02-04T09:55:36Z</time>
      </trkpt>
      <trkpt lat="49.09608" lon="-0.32945">
        <ele>70.3</ele>
        <time>2024-02-04T09:55:37Z</time>
      </trkpt>
      <trkpt lat="49.09607" lon="-0.32935">
        <ele>70.5</ele>
        <time>2024-02-04T09:55:38Z</time>
      </trkpt>
      <trkpt lat="49.09607" lon="-0.32925">
        <ele>70.7</ele>
        <time>2024-02-04T09:55:39Z</time>
      </trkpt>
      <trkpt lat="49.09606" lon="-0.32915">
        <ele>70.9</ele>
        <time>2024-02-04T09:55:40Z</time>
      </trkpt>
      <trkpt lat="49.09605" lon="-0.32905">
        <ele>71.2</ele>
        <time>2024-02-04T09:55:41Z</time>
      </trkpt>
      <trkpt lat="49.09604" lon="-0.32895">
        <ele>71.4</ele>
        <time>2024-02-04T09:55:42Z</time>
      </trkpt>
      <trkpt lat="49.09603" lon="-0.32886">
        <ele>71.6</ele>
        <time>2024-02-04T09:55:43Z</time>
      </trkpt>
      <trkpt lat="49.09602" lon="-0.32876">
        <ele>71.8</ele>
        <time>2024-02-04T09:55:44Z</time>
      </trkpt>
      <trkpt lat="49.09601" lon="-0.32867">
        <ele>72</ele>
        <time>2024-02-04T09:55:45Z</time>
      </trkpt>
      <trkpt lat="49.096" lon="-0.32858">
        <ele>72.1</ele>
        <time>2024-02-04T09:55:46Z</time>
      </trkpt>
      <trkpt lat="49.09599" lon="-0.3285">
        <ele>72.3</ele>
        <time>2024-02-04T09:55:47Z</time>
      </trkpt>
      <trkpt lat="49.09598" lon="-0.32841">
        <ele>72.5</ele>
        <time>2024-02-04T09:55:48Z</time>
      </trkpt>
      <trkpt lat="49.09598" lon="-0.32832">
        <ele>72.7</ele>
        <time>2024-02-04T09:55:49Z</time>
      </trkpt>
      <trkpt lat="49.09597" lon="-0.32824">
        <ele>72.9</ele>
        <time>2024-02-04T09:55:50Z</time>
      </trkpt>
      <trkpt lat="49.09596" lon="-0.32815">
        <ele>73.1</ele>
        <time>2024-02-04T09:55:51Z</time>
      </trkpt>
      <trkpt lat="49.09595" lon="-0.32806">
        <ele>73.3</ele>
        <time>2024-02-04T09:55:52Z</time>
      </trkpt>
      <trkpt lat="49.09593" lon="-0.32798">
        <ele>73.5</ele>
        <time>2024-02-04T09:55:53Z</time>
      </trkpt>
      <trkpt lat="49.09592" lon="-0.32789">
        <ele>73.8</ele>
        <time>2024-02-04T09:55:54Z</time>
      </trkpt>
      <trkpt lat="49.09591" lon="-0.3278">
        <ele>74</ele>
        <time>2024-02-04T09:55:55Z</time>
      </trkpt>
      <trkpt lat="49.09589" lon="-0.3277">
        <ele>74.2</ele>
        <time>2024-02-04T09:55:56Z</time>
      </trkpt>
      <trkpt lat="49.09588" lon="-0.32761">
        <ele>74.4</ele>
        <time>2024-02-04T09:55:57Z</time>
      </trkpt>
      <trkpt lat="49.09587" lon="-0.32752">
        <ele>74.6</ele>
        <time>2024-02-04T09:55:58Z</time>
      </trkpt>
      <trkpt lat="49.09585" lon="-0.32742">
        <ele>74.8</ele>
        <time>2024-02-04T09:55:59Z</time>
      </trkpt>
      <trkpt lat="49.09584" lon="-0.32733">
        <ele>75</ele>
        <time>2024-02-04T09:56:00Z</time>
      </trkpt>
      <trkpt lat="49.09582" lon="-0.32723">
        <ele>75.3</ele>
        <time>2024-02-04T09:56:01Z</time>
      </trkpt>
      <trkpt lat="49.09581" lon="-0.32712">
        <ele>75.5</ele>
        <time>2024-02-04T09:56:02Z</time>
      </trkpt>
      <trkpt lat="49.09579" lon="-0.32702">
        <ele>75.7</ele>
        <time>2024-02-04T09:56:03Z</time>
      </trkpt>
      <trkpt lat="49.09577" lon="-0.32692">
        <ele>75.9</ele>
        <time>2024-02-04T09:56:04Z</time>
      </trkpt>
      <trkpt lat="49.09576" lon="-0.32682">
        <ele>76.1</ele>
        <time>2024-02-04T09:56:05Z</time>
      </trkpt>
      <trkpt lat="49.09574" lon="-0.32672">
        <ele>76.3</ele>
        <time>2024-02-04T09:56:06Z</time>
      </trkpt>
      <trkpt lat="49.09573" lon="-0.32662">
        <ele>76.5</ele>
        <time>2024-02-04T09:56:07Z</time>
      </trkpt>
      <trkpt lat="49.09572" lon="-0.32652">
        <ele>76.6</ele>
        <time>2024-02-04T09:56:08Z</time>
      </trkpt>
      <trkpt lat="49.0957" lon="-0.32642">
        <ele>76.8</ele>
        <time>2024-02-04T09:56:09Z</time>
      </trkpt>
      <trkpt lat="49.09569" lon="-0.32632">
        <ele>77</ele>
        <time>2024-02-04T09:56:10Z</time>
      </trkpt>
      <trkpt lat="49.09567" lon="-0.32622">
        <ele>77.2</ele>
        <time>2024-02-04T09:56:11Z</time>
      </trkpt>
      <trkpt lat="49.09566" lon="-0.32611">
        <ele>77.4</ele>
        <time>2024-02-04T09:56:12Z</time>
      </trkpt>
      <trkpt lat="49.09564" lon="-0.32601">
        <ele>77.5</ele>
        <time>2024-02-04T09:56:13Z</time>
      </trkpt>
      <trkpt lat="49.09563" lon="-0.32591">
        <ele>77.7</ele>
        <time>2024-02-04T09:56:14Z</time>
      </trkpt>
      <trkpt lat="49.09561" lon="-0.32581">
        <ele>77.8</ele>
        <time>2024-02-04T09:56:15Z</time>
      </trkpt>
      <trkpt lat="49.0956" lon="-0.3257">
        <ele>78</ele>
        <time>2024-02-04T09:56:16Z</time>
      </trkpt>
      <trkpt lat="49.09558" lon="-0.3256">
        <ele>78.1</ele>
        <time>2024-02-04T09:56:17Z</time>
      </trkpt>
      <trkpt lat="49.09556" lon="-0.3255">
        <ele>78.3</ele>
        <time>2024-02-04T09:56:18Z</time>
      </trkpt>
      <trkpt lat="49.09555" lon="-0.32539">
        <ele>78.3</ele>
        <time>2024-02-04T09:56:19Z</time>
      </trkpt>
      <trkpt lat="49.09553" lon="-0.32529">
        <ele>78.4</ele>
        <time>2024-02-04T09:56:20Z</time>
      </trkpt>
      <trkpt lat="49.09551" lon="-0.32518">
        <ele>78.4</ele>
        <time>2024-02-04T09:56:21Z</time>
      </trkpt>
      <trkpt lat="49.09548" lon="-0.32508">
        <ele>78.5</ele>
        <time>2024-02-04T09:56:22Z</time>
      </trkpt>
      <trkpt lat="49.09545" lon="-0.32498">
        <ele>78.5</ele>
        <time>2024-02-04T09:56:23Z</time>
      </trkpt>
      <trkpt lat="49.09541" lon="-0.32488">
        <ele>78.5</ele>
        <time>2024-02-04T09:56:24Z</time>
      </trkpt>
      <trkpt lat="49.09537" lon="-0.32478">
        <ele>78.5</ele>
        <time>2024-02-04T09:56:25Z</time>
      </trkpt>
      <trkpt lat="49.09533" lon="-0.32469">
        <ele>78.5</ele>
        <time>2024-02-04T09:56:26Z</time>
      </trkpt>
      <trkpt lat="49.09528" lon="-0.3246">
        <ele>78.5</ele>
        <time>2024-02-04T09:56:27Z</time>
      </trkpt>
      <trkpt lat="49.09523" lon="-0.32451">
        <ele>78.5</ele>
        <time>2024-02-04T09:56:28Z</time>
      </trkpt>
      <trkpt lat="49.09518" lon="-0.32444">
        <ele>78.5</ele>
        <time>2024-02-04T09:56:29Z</time>
      </trkpt>
      <trkpt lat="49.09512" lon="-0.32436">
        <ele>78.5</ele>
        <time>2024-02-04T09:56:30Z</time>
      </trkpt>
      <trkpt lat="49.09507" lon="-0.32429">
        <ele>78.5</ele>
        <time>2024-02-04T09:56:31Z</time>
      </trkpt>
      <trkpt lat="49.095" lon="-0.32422">
        <ele>78.6</ele>
        <time>2024-02-04T09:56:32Z</time>
      </trkpt>
      <trkpt lat="49.09495" lon="-0.32416">
        <ele>78.6</ele>
        <time>2024-02-04T09:56:33Z</time>
      </trkpt>
      <trkpt lat="49.09488" lon="-0.3241">
        <ele>78.7</ele>
        <time>2024-02-04T09:56:34Z</time>
      </trkpt>
      <trkpt lat="49.09482" lon="-0.32404">
        <ele>78.7</ele>
        <time>2024-02-04T09:56:35Z</time>
      </trkpt>
      <trkpt lat="49.09476" lon="-0.32398">
        <ele>78.8</ele>
        <time>2024-02-04T09:56:36Z</time>
      </trkpt>
      <trkpt lat="49.0947" lon="-0.32392">
        <ele>78.8</ele>
        <time>2024-02-04T09:56:37Z</time>
      </trkpt>
      <trkpt lat="49.09463" lon="-0.32386">
        <ele>78.9</ele>
        <time>2024-02-04T09:56:38Z</time>
      </trkpt>
      <trkpt lat="49.09457" lon="-0.32381">
        <ele>78.9</ele>
        <time>2024-02-04T09:56:39Z</time>
      </trkpt>
      <trkpt lat="49.09451" lon="-0.32375">
        <ele>78.9</ele>
        <time>2024-02-04T09:56:40Z</time>
      </trkpt>
      <trkpt lat="49.09445" lon="-0.32367">
        <ele>79</ele>
        <time>2024-02-04T09:56:41Z</time>
      </trkpt>
      <trkpt lat="49.0944" lon="-0.32358">
        <ele>79</ele>
        <time>2024-02-04T09:56:42Z</time>
      </trkpt>
      <trkpt lat="49.09435" lon="-0.32348">
        <ele>79</ele>
        <time>2024-02-04T09:56:43Z</time>
      </trkpt>
      <trkpt lat="49.09431" lon="-0.32339">
        <ele>79.1</ele>
        <time>2024-02-04T09:56:44Z</time>
      </trkpt>
      <trkpt lat="49.09426" lon="-0.32329">
        <ele>79.1</ele>
        <time>2024-02-04T09:56:45Z</time>
      </trkpt>
      <trkpt lat="49.09422" lon="-0.32318">
        <ele>79.2</ele>
        <time>2024-02-04T09:56:46Z</time>
      </trkpt>
      <trkpt lat="49.09419" lon="-0.32307">
        <ele>79.2</ele>
        <time>2024-02-04T09:56:47Z</time>
      </trkpt>
      <trkpt lat="49.09417" lon="-0.32295">
        <ele>79.3</ele>
        <time>2024-02-04T09:56:48Z</time>
      </trkpt>
      <trkpt lat="49.09415" lon="-0.32284">
        <ele>79.4</ele>
        <time>2024-02-04T09:56:49Z</time>
      </trkpt>
      <trkpt lat="49.09413" lon="-0.32273">
        <ele>79.4</ele>
        <time>2024-02-04T09:56:50Z</time>
      </trkpt>
      <trkpt lat="49.09412" lon="-0.32261">
        <ele>79.5</ele>
        <time>2024-02-04T09:56:51Z</time>
      </trkpt>
      <trkpt lat="49.09411" lon="-0.3225">
        <ele>79.7</ele>
        <time>2024-02-04T09:56:52Z</time>
      </trkpt>
      <trkpt lat="49.09411" lon="-0.3224">
        <ele>79.8</ele>
        <time>2024-02-04T09:56:53Z</time>
      </trkpt>
      <trkpt lat="49.09411" lon="-0.32229">
        <ele>79.9</ele>
        <time>2024-02-04T09:56:54Z</time>
      </trkpt>
      <trkpt lat="49.09411" lon="-0.32218">
        <ele>80</ele>
        <time>2024-02-04T09:56:55Z</time>
      </trkpt>
      <trkpt lat="49.09411" lon="-0.32207">
        <ele>80.1</ele>
        <time>2024-02-04T09:56:56Z</time>
      </trkpt>
      <trkpt lat="49.09411" lon="-0.32196">
        <ele>80.2</ele>
        <time>2024-02-04T09:56:57Z</time>
      </trkpt>
      <trkpt lat="49.09411" lon="-0.32184">
        <ele>80.3</ele>
        <time>2024-02-04T09:56:58Z</time>
      </trkpt>
      <trkpt lat="49.09412" lon="-0.32173">
        <ele>80.3</ele>
        <time>2024-02-04T09:56:59Z</time>
      </trkpt>
      <trkpt lat="49.09412" lon="-0.32161">
        <ele>80.4</ele>
        <time>2024-02-04T09:57:00Z</time>
      </trkpt>
      <trkpt lat="49.09412" lon="-0.32149">
        <ele>80.5</ele>
        <time>2024-02-04T09:57:01Z</time>
      </trkpt>
      <trkpt lat="49.09412" lon="-0.32138">
        <ele>80.6</ele>
        <time>2024-02-04T09:57:02Z</time>
      </trkpt>
      <trkpt lat="49.09412" lon="-0.32126">
        <ele>80.6</ele>
        <time>2024-02-04T09:57:03Z</time>
      </trkpt>
      <trkpt lat="49.09412" lon="-0.32114">
        <ele>80.7</ele>
        <time>2024-02-04T09:57:04Z</time>
      </trkpt>
      <trkpt lat="49.09413" lon="-0.32103">
        <ele>80.8</ele>
        <time>2024-02-04T09:57:05Z</time>
      </trkpt>
      <trkpt lat="49.09413" lon="-0.32091">
        <ele>80.8</ele>
        <time>2024-02-04T09:57:06Z</time>
      </trkpt>
      <trkpt lat="49.09413" lon="-0.32079">
        <ele>80.9</ele>
        <time>2024-02-04T09:57:07Z</time>
      </trkpt>
      <trkpt lat="49.09413" lon="-0.32067">
        <ele>80.9</ele>
        <time>2024-02-04T09:57:08Z</time>
      </trkpt>
      <trkpt lat="49.09412" lon="-0.32056">
        <ele>81</ele>
        <time>2024-02-04T09:57:09Z</time>
      </trkpt>
      <trkpt lat="49.09412" lon="-0.32044">
        <ele>81.1</ele>
        <time>2024-02-04T09:57:10Z</time>
      </trkpt>
      <trkpt lat="49.09411" lon="-0.32032">
        <ele>81.2</ele>
        <time>2024-02-04T09:57:11Z</time>
      </trkpt>
      <trkpt lat="49.0941" lon="-0.3202">
        <ele>81.2</ele>
        <time>2024-02-04T09:57:12Z</time>
      </trkpt>
      <trkpt lat="49.09409" lon="-0.31997">
        <ele>81.4</ele>
        <time>2024-02-04T09:57:14Z</time>
      </trkpt>
      <trkpt lat="49.09408" lon="-0.31985">
        <ele>81.5</ele>
        <time>2024-02-04T09:57:15Z</time>
      </trkpt>
      <trkpt lat="49.09408" lon="-0.31973">
        <ele>81.5</ele>
        <time>2024-02-04T09:57:16Z</time>
      </trkpt>
      <trkpt lat="49.09407" lon="-0.31962">
        <ele>81.6</ele>
        <time>2024-02-04T09:57:17Z</time>
      </trkpt>
      <trkpt lat="49.09407" lon="-0.3195">
        <ele>81.7</ele>
        <time>2024-02-04T09:57:18Z</time>
      </trkpt>
      <trkpt lat="49.09406" lon="-0.31939">
        <ele>81.7</ele>
        <time>2024-02-04T09:57:19Z</time>
      </trkpt>
      <trkpt lat="49.09405" lon="-0.31927">
        <ele>81.8</ele>
        <time>2024-02-04T09:57:20Z</time>
      </trkpt>
      <trkpt lat="49.09404" lon="-0.31915">
        <ele>81.9</ele>
        <time>2024-02-04T09:57:21Z</time>
      </trkpt>
      <trkpt lat="49.09403" lon="-0.31903">
        <ele>82</ele>
        <time>2024-02-04T09:57:22Z</time>
      </trkpt>
      <trkpt lat="49.09402" lon="-0.31891">
        <ele>82.1</ele>
        <time>2024-02-04T09:57:23Z</time>
      </trkpt>
      <trkpt lat="49.094" lon="-0.31879">
        <ele>82.2</ele>
        <time>2024-02-04T09:57:24Z</time>
      </trkpt>
      <trkpt lat="49.09399" lon="-0.31868">
        <ele>82.3</ele>
        <time>2024-02-04T09:57:25Z</time>
      </trkpt>
      <trkpt lat="49.09397" lon="-0.31857">
        <ele>82.3</ele>
        <time>2024-02-04T09:57:26Z</time>
      </trkpt>
      <trkpt lat="49.09395" lon="-0.31846">
        <ele>82.4</ele>
        <time>2024-02-04T09:57:27Z</time>
      </trkpt>
      <trkpt lat="49.09393" lon="-0.31835">
        <ele>82.5</ele>
        <time>2024-02-04T09:57:28Z</time>
      </trkpt>
      <trkpt lat="49.09391" lon="-0.31824">
        <ele>82.6</ele>
        <time>2024-02-04T09:57:29Z</time>
      </trkpt>
      <trkpt lat="49.09388" lon="-0.31814">
        <ele>82.7</ele>
        <time>2024-02-04T09:57:30Z</time>
      </trkpt>
      <trkpt lat="49.09385" lon="-0.31803">
        <ele>82.8</ele>
        <time>2024-02-04T09:57:31Z</time>
      </trkpt>
      <trkpt lat="49.09382" lon="-0.31793">
        <ele>82.9</ele>
        <time>2024-02-04T09:57:32Z</time>
      </trkpt>
      <trkpt lat="49.09379" lon="-0.31782">
        <ele>83</ele>
        <time>2024-02-04T09:57:33Z</time>
      </trkpt>
      <trkpt lat="49.09376" lon="-0.31772">
        <ele>83</ele>
        <time>2024-02-04T09:57:34Z</time>
      </trkpt>
      <trkpt lat="49.09372" lon="-0.31762">
        <ele>83.1</ele>
        <time>2024-02-04T09:57:35Z</time>
      </trkpt>
      <trkpt lat="49.09369" lon="-0.31751">
        <ele>83.2</ele>
        <time>2024-02-04T09:57:36Z</time>
      </trkpt>
      <trkpt lat="49.09365" lon="-0.31741">
        <ele>83.3</ele>
        <time>2024-02-04T09:57:37Z</time>
      </trkpt>
      <trkpt lat="49.09361" lon="-0.31731">
        <ele>83.3</ele>
        <time>2024-02-04T09:57:38Z</time>
      </trkpt>
      <trkpt lat="49.09357" lon="-0.3172">
        <ele>83.4</ele>
        <time>2024-02-04T09:57:39Z</time>
      </trkpt>
      <trkpt lat="49.09353" lon="-0.3171">
        <ele>83.5</ele>
        <time>2024-02-04T09:57:40Z</time>
      </trkpt>
      <trkpt lat="49.09349" lon="-0.317">
        <ele>83.5</ele>
        <time>2024-02-04T09:57:41Z</time>
      </trkpt>
      <trkpt lat="49.09345" lon="-0.3169">
        <ele>83.6</ele>
        <time>2024-02-04T09:57:42Z</time>
      </trkpt>
      <trkpt lat="49.09341" lon="-0.31681">
        <ele>83.7</ele>
        <time>2024-02-04T09:57:43Z</time>
      </trkpt>
      <trkpt lat="49.09337" lon="-0.31671">
        <ele>83.8</ele>
        <time>2024-02-04T09:57:44Z</time>
      </trkpt>
      <trkpt lat="49.09332" lon="-0.31661">
        <ele>83.8</ele>
        <time>2024-02-04T09:57:45Z</time>
      </trkpt>
      <trkpt lat="49.09328" lon="-0.31652">
        <ele>83.9</ele>
        <time>2024-02-04T09:57:46Z</time>
      </trkpt>
      <trkpt lat="49.09323" lon="-0.31642">
        <ele>83.9</ele>
        <time>2024-02-04T09:57:47Z</time>
      </trkpt>
      <trkpt lat="49.09319" lon="-0.31632">
        <ele>84</ele>
        <time>2024-02-04T09:57:48Z</time>
      </trkpt>
      <trkpt lat="49.09315" lon="-0.31622">
        <ele>84</ele>
        <time>2024-02-04T09:57:49Z</time>
      </trkpt>
      <trkpt lat="49.09311" lon="-0.31612">
        <ele>84.1</ele>
        <time>2024-02-04T09:57:50Z</time>
      </trkpt>
      <trkpt lat="49.09306" lon="-0.31603">
        <ele>84.1</ele>
        <time>2024-02-04T09:57:51Z</time>
      </trkpt>
      <trkpt lat="49.09302" lon="-0.31593">
        <ele>84.1</ele>
        <time>2024-02-04T09:57:52Z</time>
      </trkpt>
      <trkpt lat="49.09298" lon="-0.31584">
        <ele>84.2</ele>
        <time>2024-02-04T09:57:53Z</time>
      </trkpt>
      <trkpt lat="49.09293" lon="-0.31574">
        <ele>84.3</ele>
        <time>2024-02-04T09:57:54Z</time>
      </trkpt>
      <trkpt lat="49.09289" lon="-0.31564">
        <ele>84.3</ele>
        <time>2024-02-04T09:57:55Z</time>
      </trkpt>
      <trkpt lat="49.09285" lon="-0.31554">
        <ele>84.4</ele>
        <time>2024-02-04T09:57:56Z</time>
      </trkpt>
      <trkpt lat="49.09281" lon="-0.31544">
        <ele>84.5</ele>
        <time>2024-02-04T09:57:57Z</time>
      </trkpt>
      <trkpt lat="49.09278" lon="-0.31534">
        <ele>84.6</ele>
        <time>2024-02-04T09:57:58Z</time>
      </trkpt>
      <trkpt lat="49.09274" lon="-0.31524">
        <ele>84.7</ele>
        <time>2024-02-04T09:57:59Z</time>
      </trkpt>
      <trkpt lat="49.09271" lon="-0.31515">
        <ele>84.8</ele>
        <time>2024-02-04T09:58:00Z</time>
      </trkpt>
      <trkpt lat="49.09267" lon="-0.31506">
        <ele>84.8</ele>
        <time>2024-02-04T09:58:01Z</time>
      </trkpt>
      <trkpt lat="49.09264" lon="-0.31497">
        <ele>84.9</ele>
        <time>2024-02-04T09:58:02Z</time>
      </trkpt>
      <trkpt lat="49.09262" lon="-0.31488">
        <ele>84.9</ele>
        <time>2024-02-04T09:58:03Z</time>
      </trkpt>
      <trkpt lat="49.0926" lon="-0.31478">
        <ele>85</ele>
        <time>2024-02-04T09:58:04Z</time>
      </trkpt>
      <trkpt lat="49.09259" lon="-0.31467">
        <ele>85</ele>
        <time>2024-02-04T09:58:05Z</time>
      </trkpt>
      <trkpt lat="49.09257" lon="-0.31456">
        <ele>85.1</ele>
        <time>2024-02-04T09:58:06Z</time>
      </trkpt>
      <trkpt lat="49.09255" lon="-0.31445">
        <ele>85.1</ele>
        <time>2024-02-04T09:58:07Z</time>
      </trkpt>
      <trkpt lat="49.09253" lon="-0.31434">
        <ele>85.2</ele>
        <time>2024-02-04T09:58:08Z</time>
      </trkpt>
      <trkpt lat="49.09252" lon="-0.31424">
        <ele>85.2</ele>
        <time>2024-02-04T09:58:09Z</time>
      </trkpt>
      <trkpt lat="49.0925" lon="-0.31413">
        <ele>85.3</ele>
        <time>2024-02-04T09:58:10Z</time>
      </trkpt>
      <trkpt lat="49.09248" lon="-0.31402">
        <ele>85.3</ele>
        <time>2024-02-04T09:58:11Z</time>
      </trkpt>
      <trkpt lat="49.09247" lon="-0.31392">
        <ele>85.3</ele>
        <time>2024-02-04T09:58:12Z</time>
      </trkpt>
      <trkpt lat="49.09245" lon="-0.31381">
        <ele>85.4</ele>
        <time>2024-02-04T09:58:13Z</time>
      </trkpt>
      <trkpt lat="49.09243" lon="-0.31369">
        <ele>85.4</ele>
        <time>2024-02-04T09:58:14Z</time>
      </trkpt>
      <trkpt lat="49.09242" lon="-0.31359">
        <ele>85.4</ele>
        <time>2024-02-04T09:58:15Z</time>
      </trkpt>
      <trkpt lat="49.0924" lon="-0.31349">
        <ele>85.5</ele>
        <time>2024-02-04T09:58:16Z</time>
      </trkpt>
      <trkpt lat="49.09239" lon="-0.31338">
        <ele>85.6</ele>
        <time>2024-02-04T09:58:17Z</time>
      </trkpt>
      <trkpt lat="49.09237" lon="-0.31329">
        <ele>85.7</ele>
        <time>2024-02-04T09:58:18Z</time>
      </trkpt>
      <trkpt lat="49.09236" lon="-0.31318">
        <ele>85.8</ele>
        <time>2024-02-04T09:58:19Z</time>
      </trkpt>
      <trkpt lat="49.09235" lon="-0.31308">
        <ele>86</ele>
        <time>2024-02-04T09:58:20Z</time>
      </trkpt>
      <trkpt lat="49.09234" lon="-0.31298">
        <ele>86.1</ele>
        <time>2024-02-04T09:58:21Z</time>
      </trkpt>
      <trkpt lat="49.09233" lon="-0.31287">
        <ele>86.2</ele>
        <time>2024-02-04T09:58:22Z</time>
      </trkpt>
      <trkpt lat="49.09233" lon="-0.31277">
        <ele>86.3</ele>
        <time>2024-02-04T09:58:23Z</time>
      </trkpt>
      <trkpt lat="49.09233" lon="-0.31266">
        <ele>86.4</ele>
        <time>2024-02-04T09:58:24Z</time>
      </trkpt>
      <trkpt lat="49.09233" lon="-0.31256">
        <ele>86.5</ele>
        <time>2024-02-04T09:58:25Z</time>
      </trkpt>
      <trkpt lat="49.09233" lon="-0.31245">
        <ele>86.6</ele>
        <time>2024-02-04T09:58:26Z</time>
      </trkpt>
      <trkpt lat="49.09233" lon="-0.31234">
        <ele>86.6</ele>
        <time>2024-02-04T09:58:27Z</time>
      </trkpt>
      <trkpt lat="49.09233" lon="-0.31223">
        <ele>86.7</ele>
        <time>2024-02-04T09:58:28Z</time>
      </trkpt>
      <trkpt lat="49.09233" lon="-0.31213">
        <ele>86.7</ele>
        <time>2024-02-04T09:58:29Z</time>
      </trkpt>
      <trkpt lat="49.09233" lon="-0.31202">
        <ele>86.8</ele>
        <time>2024-02-04T09:58:30Z</time>
      </trkpt>
      <trkpt lat="49.09232" lon="-0.31192">
        <ele>86.9</ele>
        <time>2024-02-04T09:58:31Z</time>
      </trkpt>
      <trkpt lat="49.09232" lon="-0.31182">
        <ele>86.9</ele>
        <time>2024-02-04T09:58:32Z</time>
      </trkpt>
      <trkpt lat="49.09231" lon="-0.31171">
        <ele>87</ele>
        <time>2024-02-04T09:58:33Z</time>
      </trkpt>
      <trkpt lat="49.0923" lon="-0.31161">
        <ele>87</ele>
        <time>2024-02-04T09:58:34Z</time>
      </trkpt>
      <trkpt lat="49.09229" lon="-0.31151">
        <ele>87</ele>
        <time>2024-02-04T09:58:35Z</time>
      </trkpt>
      <trkpt lat="49.09228" lon="-0.31141">
        <ele>87</ele>
        <time>2024-02-04T09:58:36Z</time>
      </trkpt>
      <trkpt lat="49.09227" lon="-0.31131">
        <ele>87</ele>
        <time>2024-02-04T09:58:37Z</time>
      </trkpt>
      <trkpt lat="49.09227" lon="-0.31121">
        <ele>87</ele>
        <time>2024-02-04T09:58:38Z</time>
      </trkpt>
      <trkpt lat="49.09226" lon="-0.31112">
        <ele>87</ele>
        <time>2024-02-04T09:58:39Z</time>
      </trkpt>
      <trkpt lat="49.09225" lon="-0.31102">
        <ele>87.1</ele>
        <time>2024-02-04T09:58:40Z</time>
      </trkpt>
      <trkpt lat="49.09224" lon="-0.31093">
        <ele>87.1</ele>
        <time>2024-02-04T09:58:41Z</time>
      </trkpt>
      <trkpt lat="49.09223" lon="-0.31084">
        <ele>87.1</ele>
        <time>2024-02-04T09:58:42Z</time>
      </trkpt>
      <trkpt lat="49.09222" lon="-0.31077">
        <ele>87.1</ele>
        <time>2024-02-04T09:58:43Z</time>
      </trkpt>
      <trkpt lat="49.0922" lon="-0.31069">
        <ele>87.1</ele>
        <time>2024-02-04T09:58:44Z</time>
      </trkpt>
      <trkpt lat="49.09218" lon="-0.31063">
        <ele>87.1</ele>
        <time>2024-02-04T09:58:45Z</time>
      </trkpt>
      <trkpt lat="49.09215" lon="-0.31058">
        <ele>87.1</ele>
        <time>2024-02-04T09:58:46Z</time>
      </trkpt>
      <trkpt lat="49.09212" lon="-0.31053">
        <ele>87.1</ele>
        <time>2024-02-04T09:58:47Z</time>
      </trkpt>
      <trkpt lat="49.09209" lon="-0.31048">
        <ele>87.1</ele>
        <time>2024-02-04T09:58:48Z</time>
      </trkpt>
      <trkpt lat="49.09207" lon="-0.31042">
        <ele>87</ele>
        <time>2024-02-04T09:58:49Z</time>
      </trkpt>
      <trkpt lat="49.09206" lon="-0.31036">
        <ele>87</ele>
        <time>2024-02-04T09:58:50Z</time>
      </trkpt>
      <trkpt lat="49.09206" lon="-0.3103">
        <ele>86.9</ele>
        <time>2024-02-04T09:58:51Z</time>
      </trkpt>
      <trkpt lat="49.09207" lon="-0.31024">
        <ele>86.8</ele>
        <time>2024-02-04T09:58:52Z</time>
      </trkpt>
      <trkpt lat="49.09209" lon="-0.31019">
        <ele>86.8</ele>
        <time>2024-02-04T09:58:53Z</time>
      </trkpt>
      <trkpt lat="49.09213" lon="-0.31016">
        <ele>86.8</ele>
        <time>2024-02-04T09:58:54Z</time>
      </trkpt>
      <trkpt lat="49.09216" lon="-0.31013">
        <ele>86.8</ele>
        <time>2024-02-04T09:58:55Z</time>
      </trkpt>
      <trkpt lat="49.0922" lon="-0.31012">
        <ele>86.8</ele>
        <time>2024-02-04T09:58:56Z</time>
      </trkpt>
      <trkpt lat="49.09224" lon="-0.31011">
        <ele>86.8</ele>
        <time>2024-02-04T09:58:57Z</time>
      </trkpt>
      <trkpt lat="49.09228" lon="-0.31012">
        <ele>86.8</ele>
        <time>2024-02-04T09:58:58Z</time>
      </trkpt>
      <trkpt lat="49.09231" lon="-0.31014">
        <ele>86.8</ele>
        <time>2024-02-04T09:58:59Z</time>
      </trkpt>
      <trkpt lat="49.09233" lon="-0.31017">
        <ele>86.8</ele>
        <time>2024-02-04T09:59:00Z</time>
      </trkpt>
      <trkpt lat="49.09236" lon="-0.3102">
        <ele>86.8</ele>
        <time>2024-02-04T09:59:01Z</time>
      </trkpt>
      <trkpt lat="49.09238" lon="-0.31022">
        <ele>86.8</ele>
        <time>2024-02-04T09:59:02Z</time>
      </trkpt>
      <trkpt lat="49.09241" lon="-0.31024">
        <ele>86.8</ele>
        <time>2024-02-04T09:59:03Z</time>
      </trkpt>
      <trkpt lat="49.09244" lon="-0.31026">
        <ele>86.8</ele>
        <time>2024-02-04T09:59:04Z</time>
      </trkpt>
      <trkpt lat="49.09247" lon="-0.31028">
        <ele>86.8</ele>
        <time>2024-02-04T09:59:05Z</time>
      </trkpt>
      <trkpt lat="49.09251" lon="-0.31029">
        <ele>86.7</ele>
        <time>2024-02-04T09:59:06Z</time>
      </trkpt>
      <trkpt lat="49.09254" lon="-0.3103">
        <ele>86.6</ele>
        <time>2024-02-04T09:59:07Z</time>
      </trkpt>
      <trkpt lat="49.09258" lon="-0.3103">
        <ele>86.4</ele>
        <time>2024-02-04T09:59:08Z</time>
      </trkpt>
      <trkpt lat="49.09262" lon="-0.3103">
        <ele>86.3</ele>
        <time>2024-02-04T09:59:09Z</time>
      </trkpt>
      <trkpt lat="49.09266" lon="-0.3103">
        <ele>86.1</ele>
        <time>2024-02-04T09:59:10Z</time>
      </trkpt>
      <trkpt lat="49.09271" lon="-0.3103">
        <ele>86</ele>
        <time>2024-02-04T09:59:11Z</time>
      </trkpt>
      <trkpt lat="49.09276" lon="-0.3103">
        <ele>85.9</ele>
        <time>2024-02-04T09:59:12Z</time>
      </trkpt>
      <trkpt lat="49.09281" lon="-0.3103">
        <ele>85.8</ele>
        <time>2024-02-04T09:59:13Z</time>
      </trkpt>
      <trkpt lat="49.09286" lon="-0.31029">
        <ele>85.7</ele>
        <time>2024-02-04T09:59:14Z</time>
      </trkpt>
      <trkpt lat="49.09291" lon="-0.31027">
        <ele>85.6</ele>
        <time>2024-02-04T09:59:15Z</time>
      </trkpt>
      <trkpt lat="49.09297" lon="-0.31026">
        <ele>85.5</ele>
        <time>2024-02-04T09:59:16Z</time>
      </trkpt>
      <trkpt lat="49.09302" lon="-0.31026">
        <ele>85.4</ele>
        <time>2024-02-04T09:59:17Z</time>
      </trkpt>
      <trkpt lat="49.09308" lon="-0.31025">
        <ele>85.3</ele>
        <time>2024-02-04T09:59:18Z</time>
      </trkpt>
      <trkpt lat="49.09314" lon="-0.31023">
        <ele>85.2</ele>
        <time>2024-02-04T09:59:19Z</time>
      </trkpt>
      <trkpt lat="49.0932" lon="-0.31022">
        <ele>85.1</ele>
        <time>2024-02-04T09:59:20Z</time>
      </trkpt>
      <trkpt lat="49.09326" lon="-0.3102">
        <ele>85.1</ele>
        <time>2024-02-04T09:59:21Z</time>
      </trkpt>
      <trkpt lat="49.09333" lon="-0.31018">
        <ele>85</ele>
        <time>2024-02-04T09:59:22Z</time>
      </trkpt>
      <trkpt lat="49.09339" lon="-0.31015">
        <ele>84.9</ele>
        <time>2024-02-04T09:59:23Z</time>
      </trkpt>
      <trkpt lat="49.09345" lon="-0.31013">
        <ele>84.9</ele>
        <time>2024-02-04T09:59:24Z</time>
      </trkpt>
      <trkpt lat="49.09352" lon="-0.3101">
        <ele>84.8</ele>
        <time>2024-02-04T09:59:25Z</time>
      </trkpt>
      <trkpt lat="49.09358" lon="-0.31007">
        <ele>84.8</ele>
        <time>2024-02-04T09:59:26Z</time>
      </trkpt>
      <trkpt lat="49.09364" lon="-0.31004">
        <ele>84.8</ele>
        <time>2024-02-04T09:59:27Z</time>
      </trkpt>
      <trkpt lat="49.0937" lon="-0.31">
        <ele>84.7</ele>
        <time>2024-02-04T09:59:28Z</time>
      </trkpt>
      <trkpt lat="49.09376" lon="-0.30997">
        <ele>84.7</ele>
        <time>2024-02-04T09:59:29Z</time>
      </trkpt>
      <trkpt lat="49.09382" lon="-0.30994">
        <ele>84.7</ele>
        <time>2024-02-04T09:59:30Z</time>
      </trkpt>
      <trkpt lat="49.09388" lon="-0.3099">
        <ele>84.7</ele>
        <time>2024-02-04T09:59:31Z</time>
      </trkpt>
      <trkpt lat="49.09393" lon="-0.30987">
        <ele>84.7</ele>
        <time>2024-02-04T09:59:32Z</time>
      </trkpt>
      <trkpt lat="49.09398" lon="-0.30984">
        <ele>84.6</ele>
        <time>2024-02-04T09:59:33Z</time>
      </trkpt>
      <trkpt lat="49.09401" lon="-0.30982">
        <ele>84.6</ele>
        <time>2024-02-04T09:59:34Z</time>
      </trkpt>
      <trkpt lat="49.09404" lon="-0.3098">
        <ele>84.6</ele>
        <time>2024-02-04T09:59:35Z</time>
      </trkpt>
      <trkpt lat="49.09408" lon="-0.30978">
        <ele>84.6</ele>
        <time>2024-02-04T09:59:36Z</time>
      </trkpt>
      <trkpt lat="49.09409" lon="-0.30977">
        <ele>84.6</ele>
        <time>2024-02-04T09:59:37Z</time>
      </trkpt>
      <trkpt lat="49.09412" lon="-0.30975">
        <ele>84.6</ele>
        <time>2024-02-04T09:59:38Z</time>
      </trkpt>
      <trkpt lat="49.09413" lon="-0.30974">
        <ele>84.6</ele>
        <time>2024-02-04T09:59:39Z</time>
      </trkpt>
      <trkpt lat="49.09417" lon="-0.30973">
        <ele>84.6</ele>
        <time>2024-02-04T09:59:40Z</time>
      </trkpt>
      <trkpt lat="49.09418" lon="-0.30972">
        <ele>84.6</ele>
        <time>2024-02-04T09:59:41Z</time>
      </trkpt>
      <trkpt lat="49.09421" lon="-0.3097">
        <ele>84.6</ele>
        <time>2024-02-04T09:59:42Z</time>
      </trkpt>
      <trkpt lat="49.09422" lon="-0.3097">
        <ele>84.7</ele>
        <time>2024-02-04T09:59:43Z</time>
      </trkpt>
      <trkpt lat="49.09424" lon="-0.30968">
        <ele>84.7</ele>
        <time>2024-02-04T09:59:44Z</time>
      </trkpt>
      <trkpt lat="49.09425" lon="-0.30967">
        <ele>84.7</ele>
        <time>2024-02-04T09:59:45Z</time>
      </trkpt>
      <trkpt lat="49.09427" lon="-0.30965">
        <ele>84.7</ele>
        <time>2024-02-04T09:59:46Z</time>
      </trkpt>
      <trkpt lat="49.09428" lon="-0.30965">
        <ele>84.7</ele>
        <time>2024-02-04T09:59:47Z</time>
      </trkpt>
      <trkpt lat="49.09429" lon="-0.30964">
        <ele>84.7</ele>
        <time>2024-02-04T09:59:48Z</time>
      </trkpt>
      <trkpt lat="49.09431" lon="-0.30963">
        <ele>84.7</ele>
        <time>2024-02-04T09:59:49Z</time>
      </trkpt>
      <trkpt lat="49.09433" lon="-0.30962">
        <ele>84.7</ele>
        <time>2024-02-04T09:59:50Z</time>
      </trkpt>
      <trkpt lat="49.09434" lon="-0.30961">
        <ele>84.7</ele>
        <time>2024-02-04T09:59:51Z</time>
      </trkpt>
      <trkpt lat="49.09435" lon="-0.3096">
        <ele>84.7</ele>
        <time>2024-02-04T09:59:52Z</time>
      </trkpt>
      <trkpt lat="49.09436" lon="-0.30959">
        <ele>84.7</ele>
        <time>2024-02-04T09:59:53Z</time>
      </trkpt>
      <trkpt lat="49.09437" lon="-0.30959">
        <ele>84.7</ele>
        <time>2024-02-04T09:59:54Z</time>
      </trkpt>
      <trkpt lat="49.09437" lon="-0.30959">
        <ele>84.7</ele>
        <time>2024-02-04T09:59:55Z</time>
      </trkpt>
      <trkpt lat="49.09437" lon="-0.30959">
        <ele>84.7</ele>
        <time>2024-02-04T09:59:56Z</time>
      </trkpt>
      <trkpt lat="49.09437" lon="-0.30959">
        <ele>84.7</ele>
        <time>2024-02-04T09:59:57Z</time>
      </trkpt>
      <trkpt lat="49.09437" lon="-0.30959">
        <ele>84.7</ele>
        <time>2024-02-04T09:59:58Z</time>
      </trkpt>
      <trkpt lat="49.09437" lon="-0.30959">
        <ele>84.7</ele>
        <time>2024-02-04T09:59:59Z</time>
      </trkpt>
      <trkpt lat="49.09437" lon="-0.30959">
        <ele>84.7</ele>
        <time>2024-02-04T10:00:00Z</time>
      </trkpt>
      <trkpt lat="49.09437" lon="-0.30959">
        <ele>84.7</ele>
        <time>2024-02-04T10:00:01Z</time>
      </trkpt>
      <trkpt lat="49.09437" lon="-0.30959">
        <ele>84.7</ele>
        <time>2024-02-04T10:00:02Z</time>
      </trkpt>
      <trkpt lat="49.09437" lon="-0.30959">
        <ele>84.7</ele>
        <time>2024-02-04T10:00:03Z</time>
      </trkpt>
      <trkpt lat="49.09437" lon="-0.30959">
        <ele>84.7</ele>
        <time>2024-02-04T10:00:04Z</time>
      </trkpt>
      <trkpt lat="49.09437" lon="-0.30959">
        <ele>84.7</ele>
        <time>2024-02-04T10:00:05Z</time>
      </trkpt>
      <trkpt lat="49.09437" lon="-0.3097">
        <ele>84.8</ele>
        <time>2024-02-04T10:00:32Z</time>
      </trkpt>
      <trkpt lat="49.09436" lon="-0.30971">
        <ele>84.8</ele>
        <time>2024-02-04T10:00:33Z</time>
      </trkpt>
      <trkpt lat="49.09434" lon="-0.30971">
        <ele>84.8</ele>
        <time>2024-02-04T10:00:34Z</time>
      </trkpt>
      <trkpt lat="49.09433" lon="-0.30971">
        <ele>84.8</ele>
        <time>2024-02-04T10:00:35Z</time>
      </trkpt>
      <trkpt lat="49.09432" lon="-0.3097">
        <ele>84.8</ele>
        <time>2024-02-04T10:00:36Z</time>
      </trkpt>
      <trkpt lat="49.09432" lon="-0.30969">
        <ele>84.8</ele>
        <time>2024-02-04T10:00:37Z</time>
      </trkpt>
      <trkpt lat="49.09432" lon="-0.30967">
        <ele>84.8</ele>
        <time>2024-02-04T10:00:38Z</time>
      </trkpt>
      <trkpt lat="49.09432" lon="-0.30966">
        <ele>84.9</ele>
        <time>2024-02-04T10:00:39Z</time>
      </trkpt>
      <trkpt lat="49.09433" lon="-0.30964">
        <ele>84.9</ele>
        <time>2024-02-04T10:00:40Z</time>
      </trkpt>
      <trkpt lat="49.09433" lon="-0.30963">
        <ele>84.9</ele>
        <time>2024-02-04T10:00:41Z</time>
      </trkpt>
      <trkpt lat="49.09434" lon="-0.30962">
        <ele>84.9</ele>
        <time>2024-02-04T10:00:42Z</time>
      </trkpt>
      <trkpt lat="49.09436" lon="-0.3096">
        <ele>84.9</ele>
        <time>2024-02-04T10:00:43Z</time>
      </trkpt>
      <trkpt lat="49.09436" lon="-0.3096">
        <ele>84.9</ele>
        <time>2024-02-04T10:00:44Z</time>
      </trkpt>
      <trkpt lat="49.09437" lon="-0.3096">
        <ele>84.9</ele>
        <time>2024-02-04T10:00:45Z</time>
      </trkpt>
      <trkpt lat="49.09437" lon="-0.30959">
        <ele>84.9</ele>
        <time>2024-02-04T10:00:46Z</time>
      </trkpt>
      <trkpt lat="49.09438" lon="-0.30959">
        <ele>84.9</ele>
        <time>2024-02-04T10:00:47Z</time>
      </trkpt>
      <trkpt lat="49.09439" lon="-0.30959">
        <ele>84.9</ele>
        <time>2024-02-04T10:00:48Z</time>
      </trkpt>
      <trkpt lat="49.09439" lon="-0.30958">
        <ele>84.9</ele>
        <time>2024-02-04T10:00:49Z</time>
      </trkpt>
      <trkpt lat="49.0944" lon="-0.30958">
        <ele>84.9</ele>
        <time>2024-02-04T10:00:50Z</time>
      </trkpt>
      <trkpt lat="49.0944" lon="-0.30958">
        <ele>84.9</ele>
        <time>2024-02-04T10:00:51Z</time>
      </trkpt>
      <trkpt lat="49.09441" lon="-0.30957">
        <ele>84.9</ele>
        <time>2024-02-04T10:00:52Z</time>
      </trkpt>
      <trkpt lat="49.09441" lon="-0.30957">
        <ele>84.9</ele>
        <time>2024-02-04T10:00:53Z</time>
      </trkpt>
      <trkpt lat="49.09442" lon="-0.30957">
        <ele>84.9</ele>
        <time>2024-02-04T10:00:54Z</time>
      </trkpt>
      <trkpt lat="49.09442" lon="-0.30956">
        <ele>84.9</ele>
        <time>2024-02-04T10:00:55Z</time>
      </trkpt>
      <trkpt lat="49.09443" lon="-0.30956">
        <ele>84.9</ele>
        <time>2024-02-04T10:01:28Z</time>
      </trkpt>
      <trkpt lat="49.09443" lon="-0.30955">
        <ele>84.9</ele>
        <time>2024-02-04T10:01:29Z</time>
      </trkpt>
      <trkpt lat="49.09444" lon="-0.30955">
        <ele>84.9</ele>
        <time>2024-02-04T10:01:30Z</time>
      </trkpt>
      <trkpt lat="49.09447" lon="-0.30953">
        <ele>85</ele>
        <time>2024-02-04T10:01:31Z</time>
      </trkpt>
      <trkpt lat="49.09449" lon="-0.30953">
        <ele>85</ele>
        <time>2024-02-04T10:01:32Z</time>
      </trkpt>
      <trkpt lat="49.09452" lon="-0.30951">
        <ele>85</ele>
        <time>2024-02-04T10:01:33Z</time>
      </trkpt>
      <trkpt lat="49.09453" lon="-0.3095">
        <ele>85</ele>
        <time>2024-02-04T10:01:34Z</time>
      </trkpt>
      <trkpt lat="49.09457" lon="-0.30948">
        <ele>84.9</ele>
        <time>2024-02-04T10:01:35Z</time>
      </trkpt>
      <trkpt lat="49.09458" lon="-0.30947">
        <ele>84.9</ele>
        <time>2024-02-04T10:01:36Z</time>
      </trkpt>
      <trkpt lat="49.09461" lon="-0.30945">
        <ele>84.9</ele>
        <time>2024-02-04T10:01:37Z</time>
      </trkpt>
      <trkpt lat="49.09464" lon="-0.30944">
        <ele>84.9</ele>
        <time>2024-02-04T10:01:38Z</time>
      </trkpt>
      <trkpt lat="49.09467" lon="-0.30941">
        <ele>84.9</ele>
        <time>2024-02-04T10:01:39Z</time>
      </trkpt>
      <trkpt lat="49.09471" lon="-0.30938">
        <ele>85</ele>
        <time>2024-02-04T10:01:40Z</time>
      </trkpt>
      <trkpt lat="49.09474" lon="-0.30935">
        <ele>85</ele>
        <time>2024-02-04T10:01:41Z</time>
      </trkpt>
      <trkpt lat="49.09478" lon="-0.30932">
        <ele>85</ele>
        <time>2024-02-04T10:01:42Z</time>
      </trkpt>
      <trkpt lat="49.09481" lon="-0.30929">
        <ele>85</ele>
        <time>2024-02-04T10:01:43Z</time>
      </trkpt>
      <trkpt lat="49.09485" lon="-0.30926">
        <ele>85</ele>
        <time>2024-02-04T10:01:44Z</time>
      </trkpt>
      <trkpt lat="49.09489" lon="-0.30923">
        <ele>85</ele>
        <time>2024-02-04T10:01:45Z</time>
      </trkpt>
      <trkpt lat="49.09493" lon="-0.3092">
        <ele>85.1</ele>
        <time>2024-02-04T10:01:46Z</time>
      </trkpt>
      <trkpt lat="49.09497" lon="-0.30917">
        <ele>85.1</ele>
        <time>2024-02-04T10:01:47Z</time>
      </trkpt>
      <trkpt lat="49.09501" lon="-0.30914">
        <ele>85.1</ele>
        <time>2024-02-04T10:01:48Z</time>
      </trkpt>
      <trkpt lat="49.09505" lon="-0.30912">
        <ele>85.1</ele>
        <time>2024-02-04T10:01:49Z</time>
      </trkpt>
      <trkpt lat="49.09509" lon="-0.30909">
        <ele>85.1</ele>
        <time>2024-02-04T10:01:50Z</time>
      </trkpt>
      <trkpt lat="49.09513" lon="-0.30906">
        <ele>85.1</ele>
        <time>2024-02-04T10:01:51Z</time>
      </trkpt>
      <trkpt lat="49.09516" lon="-0.30903">
        <ele>85.2</ele>
        <time>2024-02-04T10:01:52Z</time>
      </trkpt>
      <trkpt lat="49.09521" lon="-0.30901">
        <ele>85.2</ele>
        <time>2024-02-04T10:01:53Z</time>
      </trkpt>
      <trkpt lat="49.09525" lon="-0.30898">
        <ele>85.2</ele>
        <time>2024-02-04T10:01:54Z</time>
      </trkpt>
      <trkpt lat="49.09529" lon="-0.30896">
        <ele>85.2</ele>
        <time>2024-02-04T10:01:55Z</time>
      </trkpt>
      <trkpt lat="49.09534" lon="-0.30893">
        <ele>85.3</ele>
        <time>2024-02-04T10:01:56Z</time>
      </trkpt>
      <trkpt lat="49.09538" lon="-0.30891">
        <ele>85.3</ele>
        <time>2024-02-04T10:01:57Z</time>
      </trkpt>
      <trkpt lat="49.09542" lon="-0.30888">
        <ele>85.3</ele>
        <time>2024-02-04T10:01:58Z</time>
      </trkpt>
      <trkpt lat="49.09546" lon="-0.30886">
        <ele>85.4</ele>
        <time>2024-02-04T10:01:59Z</time>
      </trkpt>
      <trkpt lat="49.09551" lon="-0.30883">
        <ele>85.4</ele>
        <time>2024-02-04T10:02:00Z</time>
      </trkpt>
      <trkpt lat="49.09555" lon="-0.30881">
        <ele>85.4</ele>
        <time>2024-02-04T10:02:01Z</time>
      </trkpt>
      <trkpt lat="49.09559" lon="-0.30879">
        <ele>85.4</ele>
        <time>2024-02-04T10:02:02Z</time>
      </trkpt>
      <trkpt lat="49.09564" lon="-0.30877">
        <ele>85.4</ele>
        <time>2024-02-04T10:02:03Z</time>
      </trkpt>
      <trkpt lat="49.09569" lon="-0.30874">
        <ele>85.5</ele>
        <time>2024-02-04T10:02:04Z</time>
      </trkpt>
      <trkpt lat="49.09573" lon="-0.30872">
        <ele>85.5</ele>
        <time>2024-02-04T10:02:05Z</time>
      </trkpt>
      <trkpt lat="49.09577" lon="-0.30869">
        <ele>85.5</ele>
        <time>2024-02-04T10:02:06Z</time>
      </trkpt>
      <trkpt lat="49.09582" lon="-0.30867">
        <ele>85.6</ele>
        <time>2024-02-04T10:02:07Z</time>
      </trkpt>
      <trkpt lat="49.09586" lon="-0.30865">
        <ele>85.6</ele>
        <time>2024-02-04T10:02:08Z</time>
      </trkpt>
      <trkpt lat="49.09591" lon="-0.30863">
        <ele>85.7</ele>
        <time>2024-02-04T10:02:09Z</time>
      </trkpt>
      <trkpt lat="49.09595" lon="-0.30861">
        <ele>85.7</ele>
        <time>2024-02-04T10:02:10Z</time>
      </trkpt>
      <trkpt lat="49.096" lon="-0.30859">
        <ele>85.8</ele>
        <time>2024-02-04T10:02:11Z</time>
      </trkpt>
      <trkpt lat="49.09605" lon="-0.30856">
        <ele>85.8</ele>
        <time>2024-02-04T10:02:12Z</time>
      </trkpt>
      <trkpt lat="49.09609" lon="-0.30854">
        <ele>85.9</ele>
        <time>2024-02-04T10:02:13Z</time>
      </trkpt>
      <trkpt lat="49.09614" lon="-0.30852">
        <ele>85.9</ele>
        <time>2024-02-04T10:02:14Z</time>
      </trkpt>
      <trkpt lat="49.09619" lon="-0.3085">
        <ele>86</ele>
        <time>2024-02-04T10:02:15Z</time>
      </trkpt>
      <trkpt lat="49.09624" lon="-0.30848">
        <ele>86</ele>
        <time>2024-02-04T10:02:16Z</time>
      </trkpt>
      <trkpt lat="49.09628" lon="-0.30846">
        <ele>86.1</ele>
        <time>2024-02-04T10:02:17Z</time>
      </trkpt>
      <trkpt lat="49.09633" lon="-0.30844">
        <ele>86.1</ele>
        <time>2024-02-04T10:02:18Z</time>
      </trkpt>
      <trkpt lat="49.09637" lon="-0.30841">
        <ele>86.2</ele>
        <time>2024-02-04T10:02:19Z</time>
      </trkpt>
      <trkpt lat="49.09642" lon="-0.30839">
        <ele>86.3</ele>
        <time>2024-02-04T10:02:20Z</time>
      </trkpt>
      <trkpt lat="49.09647" lon="-0.30838">
        <ele>86.3</ele>
        <time>2024-02-04T10:02:21Z</time>
      </trkpt>
      <trkpt lat="49.09652" lon="-0.30836">
        <ele>86.4</ele>
        <time>2024-02-04T10:02:22Z</time>
      </trkpt>
      <trkpt lat="49.09657" lon="-0.30834">
        <ele>86.4</ele>
        <time>2024-02-04T10:02:23Z</time>
      </trkpt>
      <trkpt lat="49.09662" lon="-0.30832">
        <ele>86.5</ele>
        <time>2024-02-04T10:02:24Z</time>
      </trkpt>
      <trkpt lat="49.09666" lon="-0.30831">
        <ele>86.5</ele>
        <time>2024-02-04T10:02:25Z</time>
      </trkpt>
      <trkpt lat="49.09671" lon="-0.30829">
        <ele>86.6</ele>
        <time>2024-02-04T10:02:26Z</time>
      </trkpt>
      <trkpt lat="49.09676" lon="-0.30827">
        <ele>86.7</ele>
        <time>2024-02-04T10:02:27Z</time>
      </trkpt>
      <trkpt lat="49.09681" lon="-0.30825">
        <ele>86.7</ele>
        <time>2024-02-04T10:02:28Z</time>
      </trkpt>
      <trkpt lat="49.09686" lon="-0.30824">
        <ele>86.8</ele>
        <time>2024-02-04T10:02:29Z</time>
      </trkpt>
      <trkpt lat="49.09691" lon="-0.30822">
        <ele>86.8</ele>
        <time>2024-02-04T10:02:30Z</time>
      </trkpt>
      <trkpt lat="49.09696" lon="-0.3082">
        <ele>86.9</ele>
        <time>2024-02-04T10:02:31Z</time>
      </trkpt>
      <trkpt lat="49.09701" lon="-0.30819">
        <ele>86.9</ele>
        <time>2024-02-04T10:02:32Z</time>
      </trkpt>
      <trkpt lat="49.09706" lon="-0.30818">
        <ele>87</ele>
        <time>2024-02-04T10:02:33Z</time>
      </trkpt>
      <trkpt lat="49.09712" lon="-0.30816">
        <ele>87</ele>
        <time>2024-02-04T10:02:34Z</time>
      </trkpt>
      <trkpt lat="49.09717" lon="-0.30815">
        <ele>87.1</ele>
        <time>2024-02-04T10:02:35Z</time>
      </trkpt>
      <trkpt lat="49.09722" lon="-0.30813">
        <ele>87.2</ele>
        <time>2024-02-04T10:02:36Z</time>
      </trkpt>
      <trkpt lat="49.09727" lon="-0.30812">
        <ele>87.2</ele>
        <time>2024-02-04T10:02:37Z</time>
      </trkpt>
      <trkpt lat="49.09733" lon="-0.3081">
        <ele>87.3</ele>
        <time>2024-02-04T10:02:38Z</time>
      </trkpt>
      <trkpt lat="49.09738" lon="-0.30809">
        <ele>87.3</ele>
        <time>2024-02-04T10:02:39Z</time>
      </trkpt>
      <trkpt lat="49.09743" lon="-0.30807">
        <ele>87.3</ele>
        <time>2024-02-04T10:02:40Z</time>
      </trkpt>
      <trkpt lat="49.09748" lon="-0.30806">
        <ele>87.4</ele>
        <time>2024-02-04T10:02:41Z</time>
      </trkpt>
      <trkpt lat="49.09754" lon="-0.30805">
        <ele>87.4</ele>
        <time>2024-02-04T10:02:42Z</time>
      </trkpt>
      <trkpt lat="49.0976" lon="-0.30804">
        <ele>87.5</ele>
        <time>2024-02-04T10:02:43Z</time>
      </trkpt>
      <trkpt lat="49.09765" lon="-0.30803">
        <ele>87.5</ele>
        <time>2024-02-04T10:02:44Z</time>
      </trkpt>
      <trkpt lat="49.09771" lon="-0.30802">
        <ele>87.5</ele>
        <time>2024-02-04T10:02:45Z</time>
      </trkpt>
      <trkpt lat="49.09776" lon="-0.30801">
        <ele>87.6</ele>
        <time>2024-02-04T10:02:46Z</time>
      </trkpt>
      <trkpt lat="49.09782" lon="-0.308">
        <ele>87.7</ele>
        <time>2024-02-04T10:02:47Z</time>
      </trkpt>
      <trkpt lat="49.09787" lon="-0.30799">
        <ele>87.7</ele>
        <time>2024-02-04T10:02:48Z</time>
      </trkpt>
      <trkpt lat="49.09793" lon="-0.30798">
        <ele>87.8</ele>
        <time>2024-02-04T10:02:49Z</time>
      </trkpt>
      <trkpt lat="49.09798" lon="-0.30797">
        <ele>87.8</ele>
        <time>2024-02-04T10:02:50Z</time>
      </trkpt>
      <trkpt lat="49.09804" lon="-0.30796">
        <ele>87.8</ele>
        <time>2024-02-04T10:02:51Z</time>
      </trkpt>
      <trkpt lat="49.0981" lon="-0.30795">
        <ele>87.9</ele>
        <time>2024-02-04T10:02:52Z</time>
      </trkpt>
      <trkpt lat="49.09816" lon="-0.30794">
        <ele>87.9</ele>
        <time>2024-02-04T10:02:53Z</time>
      </trkpt>
      <trkpt lat="49.09821" lon="-0.30794">
        <ele>88</ele>
        <time>2024-02-04T10:02:54Z</time>
      </trkpt>
      <trkpt lat="49.09827" lon="-0.30793">
        <ele>88</ele>
        <time>2024-02-04T10:02:55Z</time>
      </trkpt>
      <trkpt lat="49.09833" lon="-0.30792">
        <ele>88</ele>
        <time>2024-02-04T10:02:56Z</time>
      </trkpt>
      <trkpt lat="49.09839" lon="-0.30791">
        <ele>88.1</ele>
        <time>2024-02-04T10:02:57Z</time>
      </trkpt>
      <trkpt lat="49.09844" lon="-0.30791">
        <ele>88.1</ele>
        <time>2024-02-04T10:02:58Z</time>
      </trkpt>
      <trkpt lat="49.0985" lon="-0.30791">
        <ele>88.1</ele>
        <time>2024-02-04T10:02:59Z</time>
      </trkpt>
      <trkpt lat="49.09855" lon="-0.3079">
        <ele>88.2</ele>
        <time>2024-02-04T10:03:00Z</time>
      </trkpt>
      <trkpt lat="49.09861" lon="-0.3079">
        <ele>88.2</ele>
        <time>2024-02-04T10:03:01Z</time>
      </trkpt>
      <trkpt lat="49.09867" lon="-0.30789">
        <ele>88.2</ele>
        <time>2024-02-04T10:03:02Z</time>
      </trkpt>
      <trkpt lat="49.09873" lon="-0.30789">
        <ele>88.2</ele>
        <time>2024-02-04T10:03:03Z</time>
      </trkpt>
      <trkpt lat="49.09878" lon="-0.30789">
        <ele>88.2</ele>
        <time>2024-02-04T10:03:04Z</time>
      </trkpt>
      <trkpt lat="49.09884" lon="-0.30789">
        <ele>88.2</ele>
        <time>2024-02-04T10:03:05Z</time>
      </trkpt>
      <trkpt lat="49.0989" lon="-0.30789">
        <ele>88.2</ele>
        <time>2024-02-04T10:03:06Z</time>
      </trkpt>
      <trkpt lat="49.09896" lon="-0.30789">
        <ele>88.2</ele>
        <time>2024-02-04T10:03:07Z</time>
      </trkpt>
      <trkpt lat="49.09902" lon="-0.30789">
        <ele>88.2</ele>
        <time>2024-02-04T10:03:08Z</time>
      </trkpt>
      <trkpt lat="49.09909" lon="-0.30789">
        <ele>88.2</ele>
        <time>2024-02-04T10:03:09Z</time>
      </trkpt>
      <trkpt lat="49.09915" lon="-0.30789">
        <ele>88.3</ele>
        <time>2024-02-04T10:03:10Z</time>
      </trkpt>
      <trkpt lat="49.09921" lon="-0.30789">
        <ele>88.3</ele>
        <time>2024-02-04T10:03:11Z</time>
      </trkpt>
      <trkpt lat="49.09927" lon="-0.30789">
        <ele>88.3</ele>
        <time>2024-02-04T10:03:12Z</time>
      </trkpt>
      <trkpt lat="49.09934" lon="-0.30789">
        <ele>88.3</ele>
        <time>2024-02-04T10:03:13Z</time>
      </trkpt>
      <trkpt lat="49.0994" lon="-0.3079">
        <ele>88.3</ele>
        <time>2024-02-04T10:03:14Z</time>
      </trkpt>
      <trkpt lat="49.09946" lon="-0.3079">
        <ele>88.3</ele>
        <time>2024-02-04T10:03:15Z</time>
      </trkpt>
      <trkpt lat="49.09953" lon="-0.30791">
        <ele>88.2</ele>
        <time>2024-02-04T10:03:16Z</time>
      </trkpt>
      <trkpt lat="49.09959" lon="-0.30792">
        <ele>88.2</ele>
        <time>2024-02-04T10:03:17Z</time>
      </trkpt>
      <trkpt lat="49.09966" lon="-0.30792">
        <ele>88.2</ele>
        <time>2024-02-04T10:03:18Z</time>
      </trkpt>
      <trkpt lat="49.09972" lon="-0.30793">
        <ele>88.2</ele>
        <time>2024-02-04T10:03:19Z</time>
      </trkpt>
      <trkpt lat="49.09979" lon="-0.30793">
        <ele>88.2</ele>
        <time>2024-02-04T10:03:20Z</time>
      </trkpt>
      <trkpt lat="49.09985" lon="-0.30793">
        <ele>88.2</ele>
        <time>2024-02-04T10:03:21Z</time>
      </trkpt>
      <trkpt lat="49.09992" lon="-0.30794">
        <ele>88.2</ele>
        <time>2024-02-04T10:03:22Z</time>
      </trkpt>
      <trkpt lat="49.09999" lon="-0.30795">
        <ele>88.2</ele>
        <time>2024-02-04T10:03:23Z</time>
      </trkpt>
      <trkpt lat="49.10006" lon="-0.30795">
        <ele>88.2</ele>
        <time>2024-02-04T10:03:24Z</time>
      </trkpt>
      <trkpt lat="49.10012" lon="-0.30795">
        <ele>88.1</ele>
        <time>2024-02-04T10:03:25Z</time>
      </trkpt>
      <trkpt lat="49.10019" lon="-0.30796">
        <ele>88.1</ele>
        <time>2024-02-04T10:03:26Z</time>
      </trkpt>
      <trkpt lat="49.10026" lon="-0.30797">
        <ele>88.1</ele>
        <time>2024-02-04T10:03:27Z</time>
      </trkpt>
      <trkpt lat="49.10033" lon="-0.30798">
        <ele>88</ele>
        <time>2024-02-04T10:03:28Z</time>
      </trkpt>
      <trkpt lat="49.1004" lon="-0.30798">
        <ele>88</ele>
        <time>2024-02-04T10:03:29Z</time>
      </trkpt>
      <trkpt lat="49.10047" lon="-0.30798">
        <ele>88</ele>
        <time>2024-02-04T10:03:30Z</time>
      </trkpt>
      <trkpt lat="49.10053" lon="-0.30799">
        <ele>87.9</ele>
        <time>2024-02-04T10:03:31Z</time>
      </trkpt>
      <trkpt lat="49.10061" lon="-0.308">
        <ele>87.9</ele>
        <time>2024-02-04T10:03:32Z</time>
      </trkpt>
      <trkpt lat="49.10067" lon="-0.308">
        <ele>87.8</ele>
        <time>2024-02-04T10:03:33Z</time>
      </trkpt>
      <trkpt lat="49.10074" lon="-0.30801">
        <ele>87.7</ele>
        <time>2024-02-04T10:03:34Z</time>
      </trkpt>
      <trkpt lat="49.10081" lon="-0.30801">
        <ele>87.7</ele>
        <time>2024-02-04T10:03:35Z</time>
      </trkpt>
      <trkpt lat="49.10089" lon="-0.30801">
        <ele>87.6</ele>
        <time>2024-02-04T10:03:36Z</time>
      </trkpt>
      <trkpt lat="49.10096" lon="-0.30802">
        <ele>87.5</ele>
        <time>2024-02-04T10:03:37Z</time>
      </trkpt>
      <trkpt lat="49.10103" lon="-0.30802">
        <ele>87.5</ele>
        <time>2024-02-04T10:03:38Z</time>
      </trkpt>
      <trkpt lat="49.10111" lon="-0.30802">
        <ele>87.4</ele>
        <time>2024-02-04T10:03:39Z</time>
      </trkpt>
      <trkpt lat="49.10119" lon="-0.30803">
        <ele>87.3</ele>
        <time>2024-02-04T10:03:40Z</time>
      </trkpt>
      <trkpt lat="49.10126" lon="-0.30804">
        <ele>87.2</ele>
        <time>2024-02-04T10:03:41Z</time>
      </trkpt>
      <trkpt lat="49.10134" lon="-0.30804">
        <ele>87.1</ele>
        <time>2024-02-04T10:03:42Z</time>
      </trkpt>
      <trkpt lat="49.10142" lon="-0.30805">
        <ele>87</ele>
        <time>2024-02-04T10:03:43Z</time>
      </trkpt>
      <trkpt lat="49.1015" lon="-0.30806">
        <ele>87</ele>
        <time>2024-02-04T10:03:44Z</time>
      </trkpt>
      <trkpt lat="49.10158" lon="-0.30806">
        <ele>86.9</ele>
        <time>2024-02-04T10:03:45Z</time>
      </trkpt>
      <trkpt lat="49.10166" lon="-0.30807">
        <ele>86.8</ele>
        <time>2024-02-04T10:03:46Z</time>
      </trkpt>
      <trkpt lat="49.10174" lon="-0.30807">
        <ele>86.7</ele>
        <time>2024-02-04T10:03:47Z</time>
      </trkpt>
      <trkpt lat="49.10182" lon="-0.30808">
        <ele>86.5</ele>
        <time>2024-02-04T10:03:48Z</time>
      </trkpt>
      <trkpt lat="49.1019" lon="-0.30809">
        <ele>86.4</ele>
        <time>2024-02-04T10:03:49Z</time>
      </trkpt>
      <trkpt lat="49.10199" lon="-0.3081">
        <ele>86.2</ele>
        <time>2024-02-04T10:03:50Z</time>
      </trkpt>
      <trkpt lat="49.10207" lon="-0.3081">
        <ele>86.1</ele>
        <time>2024-02-04T10:03:51Z</time>
      </trkpt>
      <trkpt lat="49.10216" lon="-0.30811">
        <ele>86</ele>
        <time>2024-02-04T10:03:52Z</time>
      </trkpt>
      <trkpt lat="49.10225" lon="-0.30811">
        <ele>85.8</ele>
        <time>2024-02-04T10:03:53Z</time>
      </trkpt>
      <trkpt lat="49.10234" lon="-0.30812">
        <ele>85.7</ele>
        <time>2024-02-04T10:03:54Z</time>
      </trkpt>
      <trkpt lat="49.10244" lon="-0.30813">
        <ele>85.6</ele>
        <time>2024-02-04T10:03:55Z</time>
      </trkpt>
      <trkpt lat="49.10253" lon="-0.30813">
        <ele>85.5</ele>
        <time>2024-02-04T10:03:56Z</time>
      </trkpt>
      <trkpt lat="49.10262" lon="-0.30814">
        <ele>85.3</ele>
        <time>2024-02-04T10:03:57Z</time>
      </trkpt>
      <trkpt lat="49.10272" lon="-0.30815">
        <ele>85.2</ele>
        <time>2024-02-04T10:03:58Z</time>
      </trkpt>
      <trkpt lat="49.10282" lon="-0.30816">
        <ele>85.1</ele>
        <time>2024-02-04T10:03:59Z</time>
      </trkpt>
      <trkpt lat="49.10291" lon="-0.30817">
        <ele>85</ele>
        <time>2024-02-04T10:04:00Z</time>
      </trkpt>
      <trkpt lat="49.10301" lon="-0.30818">
        <ele>84.9</ele>
        <time>2024-02-04T10:04:01Z</time>
      </trkpt>
      <trkpt lat="49.10311" lon="-0.30818">
        <ele>84.7</ele>
        <time>2024-02-04T10:04:02Z</time>
      </trkpt>
      <trkpt lat="49.10321" lon="-0.30819">
        <ele>84.6</ele>
        <time>2024-02-04T10:04:03Z</time>
      </trkpt>
      <trkpt lat="49.1033" lon="-0.3082">
        <ele>84.5</ele>
        <time>2024-02-04T10:04:04Z</time>
      </trkpt>
      <trkpt lat="49.1034" lon="-0.30821">
        <ele>84.4</ele>
        <time>2024-02-04T10:04:05Z</time>
      </trkpt>
      <trkpt lat="49.1035" lon="-0.30822">
        <ele>84.3</ele>
        <time>2024-02-04T10:04:06Z</time>
      </trkpt>
      <trkpt lat="49.10359" lon="-0.30822">
        <ele>84.2</ele>
        <time>2024-02-04T10:04:07Z</time>
      </trkpt>
      <trkpt lat="49.10369" lon="-0.30823">
        <ele>84</ele>
        <time>2024-02-04T10:04:08Z</time>
      </trkpt>
      <trkpt lat="49.10379" lon="-0.30823">
        <ele>83.9</ele>
        <time>2024-02-04T10:04:09Z</time>
      </trkpt>
      <trkpt lat="49.10388" lon="-0.30823">
        <ele>83.8</ele>
        <time>2024-02-04T10:04:10Z</time>
      </trkpt>
      <trkpt lat="49.10398" lon="-0.30824">
        <ele>83.6</ele>
        <time>2024-02-04T10:04:11Z</time>
      </trkpt>
      <trkpt lat="49.10408" lon="-0.30825">
        <ele>83.5</ele>
        <time>2024-02-04T10:04:12Z</time>
      </trkpt>
      <trkpt lat="49.10417" lon="-0.30825">
        <ele>83.4</ele>
        <time>2024-02-04T10:04:13Z</time>
      </trkpt>
      <trkpt lat="49.10427" lon="-0.30826">
        <ele>83.3</ele>
        <time>2024-02-04T10:04:14Z</time>
      </trkpt>
      <trkpt lat="49.10437" lon="-0.30827">
        <ele>83.2</ele>
        <time>2024-02-04T10:04:15Z</time>
      </trkpt>
      <trkpt lat="49.10446" lon="-0.30828">
        <ele>83</ele>
        <time>2024-02-04T10:04:16Z</time>
      </trkpt>
      <trkpt lat="49.10456" lon="-0.30829">
        <ele>82.9</ele>
        <time>2024-02-04T10:04:17Z</time>
      </trkpt>
      <trkpt lat="49.10466" lon="-0.30829">
        <ele>82.8</ele>
        <time>2024-02-04T10:04:18Z</time>
      </trkpt>
      <trkpt lat="49.10476" lon="-0.3083">
        <ele>82.6</ele>
        <time>2024-02-04T10:04:19Z</time>
      </trkpt>
      <trkpt lat="49.10486" lon="-0.30831">
        <ele>82.5</ele>
        <time>2024-02-04T10:04:20Z</time>
      </trkpt>
      <trkpt lat="49.10496" lon="-0.30832">
        <ele>82.4</ele>
        <time>2024-02-04T10:04:21Z</time>
      </trkpt>
      <trkpt lat="49.10506" lon="-0.30833">
        <ele>82.3</ele>
        <time>2024-02-04T10:04:22Z</time>
      </trkpt>
      <trkpt lat="49.10516" lon="-0.30833">
        <ele>82.2</ele>
        <time>2024-02-04T10:04:23Z</time>
      </trkpt>
      <trkpt lat="49.10527" lon="-0.30833">
        <ele>82</ele>
        <time>2024-02-04T10:04:24Z</time>
      </trkpt>
      <trkpt lat="49.10538" lon="-0.30834">
        <ele>81.9</ele>
        <time>2024-02-04T10:04:25Z</time>
      </trkpt>
      <trkpt lat="49.10548" lon="-0.30835">
        <ele>81.8</ele>
        <time>2024-02-04T10:04:26Z</time>
      </trkpt>
      <trkpt lat="49.10558" lon="-0.30835">
        <ele>81.6</ele>
        <time>2024-02-04T10:04:27Z</time>
      </trkpt>
      <trkpt lat="49.10569" lon="-0.30836">
        <ele>81.5</ele>
        <time>2024-02-04T10:04:28Z</time>
      </trkpt>
      <trkpt lat="49.10579" lon="-0.30837">
        <ele>81.4</ele>
        <time>2024-02-04T10:04:29Z</time>
      </trkpt>
      <trkpt lat="49.10589" lon="-0.30838">
        <ele>81.2</ele>
        <time>2024-02-04T10:04:30Z</time>
      </trkpt>
      <trkpt lat="49.106" lon="-0.30839">
        <ele>81</ele>
        <time>2024-02-04T10:04:31Z</time>
      </trkpt>
      <trkpt lat="49.1061" lon="-0.30839">
        <ele>80.9</ele>
        <time>2024-02-04T10:04:32Z</time>
      </trkpt>
      <trkpt lat="49.1062" lon="-0.3084">
        <ele>80.7</ele>
        <time>2024-02-04T10:04:33Z</time>
      </trkpt>
      <trkpt lat="49.10631" lon="-0.3084">
        <ele>80.6</ele>
        <time>2024-02-04T10:04:34Z</time>
      </trkpt>
      <trkpt lat="49.10641" lon="-0.30841">
        <ele>80.4</ele>
        <time>2024-02-04T10:04:35Z</time>
      </trkpt>
      <trkpt lat="49.10652" lon="-0.30842">
        <ele>80.3</ele>
        <time>2024-02-04T10:04:36Z</time>
      </trkpt>
      <trkpt lat="49.10662" lon="-0.30842">
        <ele>80.3</ele>
        <time>2024-02-04T10:04:37Z</time>
      </trkpt>
      <trkpt lat="49.10672" lon="-0.30844">
        <ele>80.1</ele>
        <time>2024-02-04T10:04:38Z</time>
      </trkpt>
      <trkpt lat="49.10682" lon="-0.30844">
        <ele>80</ele>
        <time>2024-02-04T10:04:39Z</time>
      </trkpt>
      <trkpt lat="49.10693" lon="-0.30845">
        <ele>79.9</ele>
        <time>2024-02-04T10:04:40Z</time>
      </trkpt>
      <trkpt lat="49.10703" lon="-0.30846">
        <ele>79.7</ele>
        <time>2024-02-04T10:04:41Z</time>
      </trkpt>
      <trkpt lat="49.10714" lon="-0.30846">
        <ele>79.6</ele>
        <time>2024-02-04T10:04:42Z</time>
      </trkpt>
      <trkpt lat="49.10724" lon="-0.30847">
        <ele>79.4</ele>
        <time>2024-02-04T10:04:43Z</time>
      </trkpt>
      <trkpt lat="49.10734" lon="-0.30847">
        <ele>79.3</ele>
        <time>2024-02-04T10:04:44Z</time>
      </trkpt>
      <trkpt lat="49.10744" lon="-0.30848">
        <ele>79.2</ele>
        <time>2024-02-04T10:04:45Z</time>
      </trkpt>
      <trkpt lat="49.10755" lon="-0.30849">
        <ele>79</ele>
        <time>2024-02-04T10:04:46Z</time>
      </trkpt>
      <trkpt lat="49.10765" lon="-0.30849">
        <ele>78.9</ele>
        <time>2024-02-04T10:04:47Z</time>
      </trkpt>
      <trkpt lat="49.10775" lon="-0.3085">
        <ele>78.8</ele>
        <time>2024-02-04T10:04:48Z</time>
      </trkpt>
      <trkpt lat="49.10785" lon="-0.30851">
        <ele>78.6</ele>
        <time>2024-02-04T10:04:49Z</time>
      </trkpt>
      <trkpt lat="49.10795" lon="-0.30853">
        <ele>78.5</ele>
        <time>2024-02-04T10:04:50Z</time>
      </trkpt>
      <trkpt lat="49.10806" lon="-0.30854">
        <ele>78.4</ele>
        <time>2024-02-04T10:04:51Z</time>
      </trkpt>
      <trkpt lat="49.10816" lon="-0.30854">
        <ele>78.3</ele>
        <time>2024-02-04T10:04:52Z</time>
      </trkpt>
      <trkpt lat="49.10826" lon="-0.30855">
        <ele>78.2</ele>
        <time>2024-02-04T10:04:53Z</time>
      </trkpt>
      <trkpt lat="49.10836" lon="-0.30855">
        <ele>78.1</ele>
        <time>2024-02-04T10:04:54Z</time>
      </trkpt>
      <trkpt lat="49.10847" lon="-0.30856">
        <ele>78</ele>
        <time>2024-02-04T10:04:55Z</time>
      </trkpt>
      <trkpt lat="49.10857" lon="-0.30857">
        <ele>77.9</ele>
        <time>2024-02-04T10:04:56Z</time>
      </trkpt>
      <trkpt lat="49.10867" lon="-0.30857">
        <ele>77.8</ele>
        <time>2024-02-04T10:04:57Z</time>
      </trkpt>
      <trkpt lat="49.10878" lon="-0.30858">
        <ele>77.7</ele>
        <time>2024-02-04T10:04:58Z</time>
      </trkpt>
      <trkpt lat="49.10888" lon="-0.30859">
        <ele>77.6</ele>
        <time>2024-02-04T10:04:59Z</time>
      </trkpt>
      <trkpt lat="49.10899" lon="-0.3086">
        <ele>77.5</ele>
        <time>2024-02-04T10:05:00Z</time>
      </trkpt>
      <trkpt lat="49.10909" lon="-0.3086">
        <ele>77.3</ele>
        <time>2024-02-04T10:05:01Z</time>
      </trkpt>
      <trkpt lat="49.10919" lon="-0.30861">
        <ele>77.2</ele>
        <time>2024-02-04T10:05:02Z</time>
      </trkpt>
      <trkpt lat="49.1093" lon="-0.30862">
        <ele>77.1</ele>
        <time>2024-02-04T10:05:03Z</time>
      </trkpt>
      <trkpt lat="49.10941" lon="-0.30863">
        <ele>77</ele>
        <time>2024-02-04T10:05:04Z</time>
      </trkpt>
      <trkpt lat="49.10951" lon="-0.30863">
        <ele>76.8</ele>
        <time>2024-02-04T10:05:05Z</time>
      </trkpt>
      <trkpt lat="49.10962" lon="-0.30864">
        <ele>76.7</ele>
        <time>2024-02-04T10:05:06Z</time>
      </trkpt>
      <trkpt lat="49.10972" lon="-0.30865">
        <ele>76.5</ele>
        <time>2024-02-04T10:05:07Z</time>
      </trkpt>
      <trkpt lat="49.10983" lon="-0.30865">
        <ele>76.4</ele>
        <time>2024-02-04T10:05:08Z</time>
      </trkpt>
      <trkpt lat="49.10994" lon="-0.30866">
        <ele>76.2</ele>
        <time>2024-02-04T10:05:09Z</time>
      </trkpt>
      <trkpt lat="49.11004" lon="-0.30868">
        <ele>76</ele>
        <time>2024-02-04T10:05:10Z</time>
      </trkpt>
      <trkpt lat="49.11015" lon="-0.30869">
        <ele>75.8</ele>
        <time>2024-02-04T10:05:11Z</time>
      </trkpt>
      <trkpt lat="49.11025" lon="-0.3087">
        <ele>75.6</ele>
        <time>2024-02-04T10:05:12Z</time>
      </trkpt>
      <trkpt lat="49.11035" lon="-0.30871">
        <ele>75.4</ele>
        <time>2024-02-04T10:05:13Z</time>
      </trkpt>
      <trkpt lat="49.11046" lon="-0.30872">
        <ele>75.2</ele>
        <time>2024-02-04T10:05:14Z</time>
      </trkpt>
      <trkpt lat="49.11056" lon="-0.30873">
        <ele>75.1</ele>
        <time>2024-02-04T10:05:15Z</time>
      </trkpt>
      <trkpt lat="49.11066" lon="-0.30874">
        <ele>74.9</ele>
        <time>2024-02-04T10:05:16Z</time>
      </trkpt>
      <trkpt lat="49.11075" lon="-0.30874">
        <ele>74.8</ele>
        <time>2024-02-04T10:05:17Z</time>
      </trkpt>
      <trkpt lat="49.11085" lon="-0.30875">
        <ele>74.7</ele>
        <time>2024-02-04T10:05:18Z</time>
      </trkpt>
      <trkpt lat="49.11094" lon="-0.30875">
        <ele>74.6</ele>
        <time>2024-02-04T10:05:19Z</time>
      </trkpt>
      <trkpt lat="49.11104" lon="-0.30876">
        <ele>74.5</ele>
        <time>2024-02-04T10:05:20Z</time>
      </trkpt>
      <trkpt lat="49.11113" lon="-0.30877">
        <ele>74.5</ele>
        <time>2024-02-04T10:05:21Z</time>
      </trkpt>
      <trkpt lat="49.11121" lon="-0.30877">
        <ele>74.5</ele>
        <time>2024-02-04T10:05:22Z</time>
      </trkpt>
      <trkpt lat="49.11129" lon="-0.30877">
        <ele>74.5</ele>
        <time>2024-02-04T10:05:23Z</time>
      </trkpt>
      <trkpt lat="49.11136" lon="-0.30876">
        <ele>74.5</ele>
        <time>2024-02-04T10:05:24Z</time>
      </trkpt>
      <trkpt lat="49.11142" lon="-0.30873">
        <ele>74.5</ele>
        <time>2024-02-04T10:05:25Z</time>
      </trkpt>
      <trkpt lat="49.11148" lon="-0.30869">
        <ele>74.5</ele>
        <time>2024-02-04T10:05:26Z</time>
      </trkpt>
      <trkpt lat="49.11153" lon="-0.30864">
        <ele>74.4</ele>
        <time>2024-02-04T10:05:27Z</time>
      </trkpt>
      <trkpt lat="49.11159" lon="-0.30862">
        <ele>74.2</ele>
        <time>2024-02-04T10:05:28Z</time>
      </trkpt>
      <trkpt lat="49.11164" lon="-0.30862">
        <ele>74</ele>
        <time>2024-02-04T10:05:29Z</time>
      </trkpt>
      <trkpt lat="49.1117" lon="-0.30867">
        <ele>73.9</ele>
        <time>2024-02-04T10:05:30Z</time>
      </trkpt>
      <trkpt lat="49.11174" lon="-0.30872">
        <ele>73.9</ele>
        <time>2024-02-04T10:05:31Z</time>
      </trkpt>
      <trkpt lat="49.11179" lon="-0.30876">
        <ele>73.8</ele>
        <time>2024-02-04T10:05:32Z</time>
      </trkpt>
      <trkpt lat="49.11185" lon="-0.30879">
        <ele>73.8</ele>
        <time>2024-02-04T10:05:33Z</time>
      </trkpt>
      <trkpt lat="49.11191" lon="-0.30881">
        <ele>73.7</ele>
        <time>2024-02-04T10:05:34Z</time>
      </trkpt>
      <trkpt lat="49.11197" lon="-0.30882">
        <ele>73.5</ele>
        <time>2024-02-04T10:05:35Z</time>
      </trkpt>
      <trkpt lat="49.11203" lon="-0.30882">
        <ele>73.3</ele>
        <time>2024-02-04T10:05:36Z</time>
      </trkpt>
      <trkpt lat="49.11209" lon="-0.30882">
        <ele>73.1</ele>
        <time>2024-02-04T10:05:37Z</time>
      </trkpt>
      <trkpt lat="49.11215" lon="-0.30883">
        <ele>72.9</ele>
        <time>2024-02-04T10:05:38Z</time>
      </trkpt>
      <trkpt lat="49.11221" lon="-0.30884">
        <ele>72.7</ele>
        <time>2024-02-04T10:05:39Z</time>
      </trkpt>
      <trkpt lat="49.11228" lon="-0.30885">
        <ele>72.5</ele>
        <time>2024-02-04T10:05:40Z</time>
      </trkpt>
      <trkpt lat="49.11234" lon="-0.30885">
        <ele>72.4</ele>
        <time>2024-02-04T10:05:41Z</time>
      </trkpt>
      <trkpt lat="49.1124" lon="-0.30884">
        <ele>72.2</ele>
        <time>2024-02-04T10:05:42Z</time>
      </trkpt>
      <trkpt lat="49.11246" lon="-0.30885">
        <ele>72.1</ele>
        <time>2024-02-04T10:05:43Z</time>
      </trkpt>
      <trkpt lat="49.11252" lon="-0.30885">
        <ele>71.9</ele>
        <time>2024-02-04T10:05:44Z</time>
      </trkpt>
      <trkpt lat="49.11259" lon="-0.30885">
        <ele>71.8</ele>
        <time>2024-02-04T10:05:45Z</time>
      </trkpt>
      <trkpt lat="49.11265" lon="-0.30886">
        <ele>71.6</ele>
        <time>2024-02-04T10:05:46Z</time>
      </trkpt>
      <trkpt lat="49.11272" lon="-0.30886">
        <ele>71.5</ele>
        <time>2024-02-04T10:05:47Z</time>
      </trkpt>
      <trkpt lat="49.11278" lon="-0.30887">
        <ele>71.4</ele>
        <time>2024-02-04T10:05:48Z</time>
      </trkpt>
      <trkpt lat="49.11284" lon="-0.30887">
        <ele>71.3</ele>
        <time>2024-02-04T10:05:49Z</time>
      </trkpt>
      <trkpt lat="49.11291" lon="-0.30887">
        <ele>71.1</ele>
        <time>2024-02-04T10:05:50Z</time>
      </trkpt>
      <trkpt lat="49.11297" lon="-0.30888">
        <ele>71</ele>
        <time>2024-02-04T10:05:51Z</time>
      </trkpt>
      <trkpt lat="49.11304" lon="-0.30888">
        <ele>70.9</ele>
        <time>2024-02-04T10:05:52Z</time>
      </trkpt>
      <trkpt lat="49.11311" lon="-0.30889">
        <ele>70.7</ele>
        <time>2024-02-04T10:05:53Z</time>
      </trkpt>
      <trkpt lat="49.11318" lon="-0.30889">
        <ele>70.6</ele>
        <time>2024-02-04T10:05:54Z</time>
      </trkpt>
      <trkpt lat="49.11324" lon="-0.30889">
        <ele>70.4</ele>
        <time>2024-02-04T10:05:55Z</time>
      </trkpt>
      <trkpt lat="49.11331" lon="-0.30889">
        <ele>70.3</ele>
        <time>2024-02-04T10:05:56Z</time>
      </trkpt>
      <trkpt lat="49.11338" lon="-0.3089">
        <ele>70.1</ele>
        <time>2024-02-04T10:05:57Z</time>
      </trkpt>
      <trkpt lat="49.11345" lon="-0.30891">
        <ele>70</ele>
        <time>2024-02-04T10:05:58Z</time>
      </trkpt>
      <trkpt lat="49.11351" lon="-0.30891">
        <ele>69.9</ele>
        <time>2024-02-04T10:05:59Z</time>
      </trkpt>
      <trkpt lat="49.11358" lon="-0.30892">
        <ele>69.7</ele>
        <time>2024-02-04T10:06:00Z</time>
      </trkpt>
      <trkpt lat="49.11365" lon="-0.30892">
        <ele>69.6</ele>
        <time>2024-02-04T10:06:01Z</time>
      </trkpt>
      <trkpt lat="49.11372" lon="-0.30892">
        <ele>69.4</ele>
        <time>2024-02-04T10:06:02Z</time>
      </trkpt>
      <trkpt lat="49.11379" lon="-0.30893">
        <ele>69.3</ele>
        <time>2024-02-04T10:06:03Z</time>
      </trkpt>
      <trkpt lat="49.11386" lon="-0.30894">
        <ele>69.1</ele>
        <time>2024-02-04T10:06:04Z</time>
      </trkpt>
      <trkpt lat="49.11393" lon="-0.30895">
        <ele>69</ele>
        <time>2024-02-04T10:06:05Z</time>
      </trkpt>
      <trkpt lat="49.11401" lon="-0.30895">
        <ele>68.8</ele>
        <time>2024-02-04T10:06:06Z</time>
      </trkpt>
      <trkpt lat="49.11409" lon="-0.30896">
        <ele>68.6</ele>
        <time>2024-02-04T10:06:07Z</time>
      </trkpt>
      <trkpt lat="49.11418" lon="-0.30897">
        <ele>68.5</ele>
        <time>2024-02-04T10:06:08Z</time>
      </trkpt>
      <trkpt lat="49.11426" lon="-0.30897">
        <ele>68.3</ele>
        <time>2024-02-04T10:06:09Z</time>
      </trkpt>
      <trkpt lat="49.11434" lon="-0.30898">
        <ele>68.2</ele>
        <time>2024-02-04T10:06:10Z</time>
      </trkpt>
      <trkpt lat="49.11442" lon="-0.30898">
        <ele>68</ele>
        <time>2024-02-04T10:06:11Z</time>
      </trkpt>
      <trkpt lat="49.1145" lon="-0.30898">
        <ele>67.8</ele>
        <time>2024-02-04T10:06:12Z</time>
      </trkpt>
      <trkpt lat="49.11459" lon="-0.30899">
        <ele>67.7</ele>
        <time>2024-02-04T10:06:13Z</time>
      </trkpt>
      <trkpt lat="49.11467" lon="-0.30899">
        <ele>67.5</ele>
        <time>2024-02-04T10:06:14Z</time>
      </trkpt>
      <trkpt lat="49.11475" lon="-0.309">
        <ele>67.4</ele>
        <time>2024-02-04T10:06:15Z</time>
      </trkpt>
      <trkpt lat="49.11484" lon="-0.309">
        <ele>67.2</ele>
        <time>2024-02-04T10:06:16Z</time>
      </trkpt>
      <trkpt lat="49.11494" lon="-0.309">
        <ele>67</ele>
        <time>2024-02-04T10:06:17Z</time>
      </trkpt>
      <trkpt lat="49.11503" lon="-0.30901">
        <ele>66.8</ele>
        <time>2024-02-04T10:06:18Z</time>
      </trkpt>
      <trkpt lat="49.11512" lon="-0.30902">
        <ele>66.6</ele>
        <time>2024-02-04T10:06:19Z</time>
      </trkpt>
      <trkpt lat="49.11522" lon="-0.30903">
        <ele>66.4</ele>
        <time>2024-02-04T10:06:20Z</time>
      </trkpt>
      <trkpt lat="49.11532" lon="-0.30903">
        <ele>66.2</ele>
        <time>2024-02-04T10:06:21Z</time>
      </trkpt>
      <trkpt lat="49.11542" lon="-0.30904">
        <ele>66</ele>
        <time>2024-02-04T10:06:22Z</time>
      </trkpt>
      <trkpt lat="49.11551" lon="-0.30905">
        <ele>65.8</ele>
        <time>2024-02-04T10:06:23Z</time>
      </trkpt>
      <trkpt lat="49.11561" lon="-0.30905">
        <ele>65.6</ele>
        <time>2024-02-04T10:06:24Z</time>
      </trkpt>
      <trkpt lat="49.1157" lon="-0.30906">
        <ele>65.4</ele>
        <time>2024-02-04T10:06:25Z</time>
      </trkpt>
      <trkpt lat="49.1158" lon="-0.30907">
        <ele>65.2</ele>
        <time>2024-02-04T10:06:26Z</time>
      </trkpt>
      <trkpt lat="49.11589" lon="-0.30907">
        <ele>65</ele>
        <time>2024-02-04T10:06:27Z</time>
      </trkpt>
      <trkpt lat="49.11599" lon="-0.30908">
        <ele>64.7</ele>
        <time>2024-02-04T10:06:28Z</time>
      </trkpt>
      <trkpt lat="49.11608" lon="-0.30908">
        <ele>64.5</ele>
        <time>2024-02-04T10:06:29Z</time>
      </trkpt>
      <trkpt lat="49.11618" lon="-0.3091">
        <ele>64.4</ele>
        <time>2024-02-04T10:06:30Z</time>
      </trkpt>
      <trkpt lat="49.11627" lon="-0.30911">
        <ele>64.2</ele>
        <time>2024-02-04T10:06:31Z</time>
      </trkpt>
      <trkpt lat="49.11636" lon="-0.30913">
        <ele>64</ele>
        <time>2024-02-04T10:06:32Z</time>
      </trkpt>
      <trkpt lat="49.11646" lon="-0.30915">
        <ele>63.8</ele>
        <time>2024-02-04T10:06:33Z</time>
      </trkpt>
      <trkpt lat="49.11656" lon="-0.30917">
        <ele>63.6</ele>
        <time>2024-02-04T10:06:34Z</time>
      </trkpt>
      <trkpt lat="49.11665" lon="-0.3092">
        <ele>63.4</ele>
        <time>2024-02-04T10:06:35Z</time>
      </trkpt>
      <trkpt lat="49.11675" lon="-0.30923">
        <ele>63.2</ele>
        <time>2024-02-04T10:06:36Z</time>
      </trkpt>
      <trkpt lat="49.11684" lon="-0.30926">
        <ele>63</ele>
        <time>2024-02-04T10:06:37Z</time>
      </trkpt>
      <trkpt lat="49.11693" lon="-0.3093">
        <ele>62.8</ele>
        <time>2024-02-04T10:06:38Z</time>
      </trkpt>
      <trkpt lat="49.11702" lon="-0.30934">
        <ele>62.6</ele>
        <time>2024-02-04T10:06:39Z</time>
      </trkpt>
      <trkpt lat="49.11711" lon="-0.30939">
        <ele>62.4</ele>
        <time>2024-02-04T10:06:40Z</time>
      </trkpt>
      <trkpt lat="49.1172" lon="-0.30944">
        <ele>62.3</ele>
        <time>2024-02-04T10:06:41Z</time>
      </trkpt>
      <trkpt lat="49.11729" lon="-0.30949">
        <ele>62.1</ele>
        <time>2024-02-04T10:06:42Z</time>
      </trkpt>
      <trkpt lat="49.11738" lon="-0.30956">
        <ele>61.9</ele>
        <time>2024-02-04T10:06:43Z</time>
      </trkpt>
      <trkpt lat="49.11747" lon="-0.30962">
        <ele>61.8</ele>
        <time>2024-02-04T10:06:44Z</time>
      </trkpt>
      <trkpt lat="49.11755" lon="-0.30969">
        <ele>61.7</ele>
        <time>2024-02-04T10:06:45Z</time>
      </trkpt>
      <trkpt lat="49.11764" lon="-0.30975">
        <ele>61.6</ele>
        <time>2024-02-04T10:06:46Z</time>
      </trkpt>
      <trkpt lat="49.11772" lon="-0.30982">
        <ele>61.5</ele>
        <time>2024-02-04T10:06:47Z</time>
      </trkpt>
      <trkpt lat="49.1178" lon="-0.3099">
        <ele>61.5</ele>
        <time>2024-02-04T10:06:48Z</time>
      </trkpt>
      <trkpt lat="49.11788" lon="-0.30998">
        <ele>61.4</ele>
        <time>2024-02-04T10:06:49Z</time>
      </trkpt>
      <trkpt lat="49.11795" lon="-0.31006">
        <ele>61.4</ele>
        <time>2024-02-04T10:06:50Z</time>
      </trkpt>
      <trkpt lat="49.11802" lon="-0.31013">
        <ele>61.3</ele>
        <time>2024-02-04T10:06:51Z</time>
      </trkpt>
      <trkpt lat="49.1181" lon="-0.31021">
        <ele>61.3</ele>
        <time>2024-02-04T10:06:52Z</time>
      </trkpt>
      <trkpt lat="49.11817" lon="-0.31028">
        <ele>61.3</ele>
        <time>2024-02-04T10:06:53Z</time>
      </trkpt>
      <trkpt lat="49.11824" lon="-0.31036">
        <ele>61.4</ele>
        <time>2024-02-04T10:06:54Z</time>
      </trkpt>
      <trkpt lat="49.1183" lon="-0.31043">
        <ele>61.5</ele>
        <time>2024-02-04T10:06:55Z</time>
      </trkpt>
      <trkpt lat="49.11837" lon="-0.31049">
        <ele>61.5</ele>
        <time>2024-02-04T10:06:56Z</time>
      </trkpt>
      <trkpt lat="49.11843" lon="-0.31053">
        <ele>61.5</ele>
        <time>2024-02-04T10:06:57Z</time>
      </trkpt>
      <trkpt lat="49.1185" lon="-0.31055">
        <ele>61.5</ele>
        <time>2024-02-04T10:06:58Z</time>
      </trkpt>
      <trkpt lat="49.11857" lon="-0.31057">
        <ele>61.5</ele>
        <time>2024-02-04T10:06:59Z</time>
      </trkpt>
      <trkpt lat="49.11864" lon="-0.3106">
        <ele>61.5</ele>
        <time>2024-02-04T10:07:00Z</time>
      </trkpt>
      <trkpt lat="49.1187" lon="-0.31067">
        <ele>61.5</ele>
        <time>2024-02-04T10:07:01Z</time>
      </trkpt>
      <trkpt lat="49.11874" lon="-0.31076">
        <ele>61.6</ele>
        <time>2024-02-04T10:07:02Z</time>
      </trkpt>
      <trkpt lat="49.11877" lon="-0.31086">
        <ele>61.7</ele>
        <time>2024-02-04T10:07:03Z</time>
      </trkpt>
      <trkpt lat="49.11881" lon="-0.31096">
        <ele>61.8</ele>
        <time>2024-02-04T10:07:04Z</time>
      </trkpt>
      <trkpt lat="49.11887" lon="-0.31105">
        <ele>61.9</ele>
        <time>2024-02-04T10:07:05Z</time>
      </trkpt>
      <trkpt lat="49.11894" lon="-0.31112">
        <ele>62</ele>
        <time>2024-02-04T10:07:06Z</time>
      </trkpt>
      <trkpt lat="49.11901" lon="-0.31118">
        <ele>62</ele>
        <time>2024-02-04T10:07:07Z</time>
      </trkpt>
      <trkpt lat="49.11908" lon="-0.31124">
        <ele>62.1</ele>
        <time>2024-02-04T10:07:08Z</time>
      </trkpt>
      <trkpt lat="49.11916" lon="-0.31129">
        <ele>62.1</ele>
        <time>2024-02-04T10:07:09Z</time>
      </trkpt>
      <trkpt lat="49.11923" lon="-0.31135">
        <ele>62.1</ele>
        <time>2024-02-04T10:07:10Z</time>
      </trkpt>
      <trkpt lat="49.1193" lon="-0.3114">
        <ele>62.2</ele>
        <time>2024-02-04T10:07:11Z</time>
      </trkpt>
      <trkpt lat="49.11938" lon="-0.31145">
        <ele>62.2</ele>
        <time>2024-02-04T10:07:12Z</time>
      </trkpt>
      <trkpt lat="49.11945" lon="-0.3115">
        <ele>62.2</ele>
        <time>2024-02-04T10:07:13Z</time>
      </trkpt>
      <trkpt lat="49.11953" lon="-0.31155">
        <ele>62.2</ele>
        <time>2024-02-04T10:07:14Z</time>
      </trkpt>
      <trkpt lat="49.11961" lon="-0.3116">
        <ele>62.2</ele>
        <time>2024-02-04T10:07:15Z</time>
      </trkpt>
      <trkpt lat="49.11969" lon="-0.31165">
        <ele>62.3</ele>
        <time>2024-02-04T10:07:16Z</time>
      </trkpt>
      <trkpt lat="49.11978" lon="-0.31169">
        <ele>62.3</ele>
        <time>2024-02-04T10:07:17Z</time>
      </trkpt>
      <trkpt lat="49.11986" lon="-0.31172">
        <ele>62.3</ele>
        <time>2024-02-04T10:07:18Z</time>
      </trkpt>
      <trkpt lat="49.11995" lon="-0.31176">
        <ele>62.3</ele>
        <time>2024-02-04T10:07:19Z</time>
      </trkpt>
      <trkpt lat="49.12003" lon="-0.31179">
        <ele>62.3</ele>
        <time>2024-02-04T10:07:20Z</time>
      </trkpt>
      <trkpt lat="49.12012" lon="-0.31181">
        <ele>62.2</ele>
        <time>2024-02-04T10:07:21Z</time>
      </trkpt>
      <trkpt lat="49.12021" lon="-0.31184">
        <ele>62.2</ele>
        <time>2024-02-04T10:07:22Z</time>
      </trkpt>
      <trkpt lat="49.1203" lon="-0.31186">
        <ele>62.2</ele>
        <time>2024-02-04T10:07:23Z</time>
      </trkpt>
      <trkpt lat="49.12039" lon="-0.31188">
        <ele>62.2</ele>
        <time>2024-02-04T10:07:24Z</time>
      </trkpt>
      <trkpt lat="49.12048" lon="-0.31189">
        <ele>62.1</ele>
        <time>2024-02-04T10:07:25Z</time>
      </trkpt>
      <trkpt lat="49.12057" lon="-0.3119">
        <ele>62</ele>
        <time>2024-02-04T10:07:26Z</time>
      </trkpt>
      <trkpt lat="49.12066" lon="-0.31191">
        <ele>61.9</ele>
        <time>2024-02-04T10:07:27Z</time>
      </trkpt>
      <trkpt lat="49.12076" lon="-0.31192">
        <ele>61.8</ele>
        <time>2024-02-04T10:07:28Z</time>
      </trkpt>
      <trkpt lat="49.12085" lon="-0.31191">
        <ele>61.7</ele>
        <time>2024-02-04T10:07:29Z</time>
      </trkpt>
      <trkpt lat="49.12095" lon="-0.31191">
        <ele>61.6</ele>
        <time>2024-02-04T10:07:30Z</time>
      </trkpt>
      <trkpt lat="49.12104" lon="-0.3119">
        <ele>61.5</ele>
        <time>2024-02-04T10:07:31Z</time>
      </trkpt>
      <trkpt lat="49.12114" lon="-0.31188">
        <ele>61.4</ele>
        <time>2024-02-04T10:07:32Z</time>
      </trkpt>
      <trkpt lat="49.12123" lon="-0.31187">
        <ele>61.3</ele>
        <time>2024-02-04T10:07:33Z</time>
      </trkpt>
      <trkpt lat="49.12132" lon="-0.31184">
        <ele>61.1</ele>
        <time>2024-02-04T10:07:34Z</time>
      </trkpt>
      <trkpt lat="49.12141" lon="-0.31182">
        <ele>61</ele>
        <time>2024-02-04T10:07:35Z</time>
      </trkpt>
      <trkpt lat="49.12151" lon="-0.31179">
        <ele>60.8</ele>
        <time>2024-02-04T10:07:36Z</time>
      </trkpt>
      <trkpt lat="49.1216" lon="-0.31176">
        <ele>60.6</ele>
        <time>2024-02-04T10:07:37Z</time>
      </trkpt>
      <trkpt lat="49.12169" lon="-0.31172">
        <ele>60.5</ele>
        <time>2024-02-04T10:07:38Z</time>
      </trkpt>
      <trkpt lat="49.12178" lon="-0.31168">
        <ele>60.3</ele>
        <time>2024-02-04T10:07:39Z</time>
      </trkpt>
      <trkpt lat="49.12188" lon="-0.31163">
        <ele>60.1</ele>
        <time>2024-02-04T10:07:40Z</time>
      </trkpt>
      <trkpt lat="49.12198" lon="-0.31158">
        <ele>59.9</ele>
        <time>2024-02-04T10:07:41Z</time>
      </trkpt>
      <trkpt lat="49.12207" lon="-0.31153">
        <ele>59.7</ele>
        <time>2024-02-04T10:07:42Z</time>
      </trkpt>
      <trkpt lat="49.12216" lon="-0.31147">
        <ele>59.4</ele>
        <time>2024-02-04T10:07:43Z</time>
      </trkpt>
      <trkpt lat="49.12226" lon="-0.31142">
        <ele>59.2</ele>
        <time>2024-02-04T10:07:44Z</time>
      </trkpt>
      <trkpt lat="49.12236" lon="-0.31137">
        <ele>59</ele>
        <time>2024-02-04T10:07:45Z</time>
      </trkpt>
      <trkpt lat="49.12245" lon="-0.31132">
        <ele>58.7</ele>
        <time>2024-02-04T10:07:46Z</time>
      </trkpt>
      <trkpt lat="49.12255" lon="-0.31128">
        <ele>58.5</ele>
        <time>2024-02-04T10:07:47Z</time>
      </trkpt>
      <trkpt lat="49.12265" lon="-0.31122">
        <ele>58.3</ele>
        <time>2024-02-04T10:07:48Z</time>
      </trkpt>
      <trkpt lat="49.12274" lon="-0.31117">
        <ele>58.1</ele>
        <time>2024-02-04T10:07:49Z</time>
      </trkpt>
      <trkpt lat="49.12284" lon="-0.31111">
        <ele>57.9</ele>
        <time>2024-02-04T10:07:50Z</time>
      </trkpt>
      <trkpt lat="49.12293" lon="-0.31106">
        <ele>57.7</ele>
        <time>2024-02-04T10:07:51Z</time>
      </trkpt>
      <trkpt lat="49.12303" lon="-0.31101">
        <ele>57.5</ele>
        <time>2024-02-04T10:07:52Z</time>
      </trkpt>
      <trkpt lat="49.12313" lon="-0.31096">
        <ele>57.3</ele>
        <time>2024-02-04T10:07:53Z</time>
      </trkpt>
      <trkpt lat="49.12323" lon="-0.3109">
        <ele>57.1</ele>
        <time>2024-02-04T10:07:54Z</time>
      </trkpt>
      <trkpt lat="49.12333" lon="-0.31084">
        <ele>56.9</ele>
        <time>2024-02-04T10:07:55Z</time>
      </trkpt>
      <trkpt lat="49.12344" lon="-0.31079">
        <ele>56.7</ele>
        <time>2024-02-04T10:07:56Z</time>
      </trkpt>
      <trkpt lat="49.12354" lon="-0.31073">
        <ele>56.5</ele>
        <time>2024-02-04T10:07:57Z</time>
      </trkpt>
      <trkpt lat="49.12364" lon="-0.31068">
        <ele>56.3</ele>
        <time>2024-02-04T10:07:58Z</time>
      </trkpt>
      <trkpt lat="49.12374" lon="-0.31062">
        <ele>56</ele>
        <time>2024-02-04T10:07:59Z</time>
      </trkpt>
      <trkpt lat="49.12385" lon="-0.31057">
        <ele>55.8</ele>
        <time>2024-02-04T10:08:00Z</time>
      </trkpt>
      <trkpt lat="49.12395" lon="-0.31052">
        <ele>55.6</ele>
        <time>2024-02-04T10:08:01Z</time>
      </trkpt>
      <trkpt lat="49.12405" lon="-0.31046">
        <ele>55.4</ele>
        <time>2024-02-04T10:08:02Z</time>
      </trkpt>
      <trkpt lat="49.12415" lon="-0.3104">
        <ele>55.2</ele>
        <time>2024-02-04T10:08:03Z</time>
      </trkpt>
      <trkpt lat="49.12426" lon="-0.31034">
        <ele>55</ele>
        <time>2024-02-04T10:08:04Z</time>
      </trkpt>
      <trkpt lat="49.12436" lon="-0.31029">
        <ele>54.8</ele>
        <time>2024-02-04T10:08:05Z</time>
      </trkpt>
      <trkpt lat="49.12446" lon="-0.31023">
        <ele>54.5</ele>
        <time>2024-02-04T10:08:06Z</time>
      </trkpt>
      <trkpt lat="49.12456" lon="-0.31018">
        <ele>54.4</ele>
        <time>2024-02-04T10:08:07Z</time>
      </trkpt>
      <trkpt lat="49.12466" lon="-0.31013">
        <ele>54.2</ele>
        <time>2024-02-04T10:08:08Z</time>
      </trkpt>
      <trkpt lat="49.12475" lon="-0.31007">
        <ele>54</ele>
        <time>2024-02-04T10:08:09Z</time>
      </trkpt>
      <trkpt lat="49.12484" lon="-0.31002">
        <ele>53.8</ele>
        <time>2024-02-04T10:08:10Z</time>
      </trkpt>
      <trkpt lat="49.12493" lon="-0.30998">
        <ele>53.7</ele>
        <time>2024-02-04T10:08:11Z</time>
      </trkpt>
      <trkpt lat="49.12503" lon="-0.30993">
        <ele>53.6</ele>
        <time>2024-02-04T10:08:12Z</time>
      </trkpt>
      <trkpt lat="49.12512" lon="-0.30988">
        <ele>53.5</ele>
        <time>2024-02-04T10:08:13Z</time>
      </trkpt>
      <trkpt lat="49.12522" lon="-0.30983">
        <ele>53.4</ele>
        <time>2024-02-04T10:08:14Z</time>
      </trkpt>
      <trkpt lat="49.12531" lon="-0.30978">
        <ele>53.3</ele>
        <time>2024-02-04T10:08:15Z</time>
      </trkpt>
      <trkpt lat="49.12539" lon="-0.30973">
        <ele>53.2</ele>
        <time>2024-02-04T10:08:16Z</time>
      </trkpt>
      <trkpt lat="49.12547" lon="-0.30969">
        <ele>53.2</ele>
        <time>2024-02-04T10:08:17Z</time>
      </trkpt>
      <trkpt lat="49.12555" lon="-0.30962">
        <ele>53.2</ele>
        <time>2024-02-04T10:08:18Z</time>
      </trkpt>
      <trkpt lat="49.12562" lon="-0.30954">
        <ele>53.2</ele>
        <time>2024-02-04T10:08:19Z</time>
      </trkpt>
      <trkpt lat="49.12568" lon="-0.30945">
        <ele>53.2</ele>
        <time>2024-02-04T10:08:20Z</time>
      </trkpt>
      <trkpt lat="49.12571" lon="-0.30936">
        <ele>53.2</ele>
        <time>2024-02-04T10:08:21Z</time>
      </trkpt>
      <trkpt lat="49.12574" lon="-0.30927">
        <ele>53.3</ele>
        <time>2024-02-04T10:08:22Z</time>
      </trkpt>
      <trkpt lat="49.12574" lon="-0.30916">
        <ele>53.4</ele>
        <time>2024-02-04T10:08:23Z</time>
      </trkpt>
      <trkpt lat="49.12574" lon="-0.30905">
        <ele>53.4</ele>
        <time>2024-02-04T10:08:24Z</time>
      </trkpt>
      <trkpt lat="49.12572" lon="-0.30895">
        <ele>53.6</ele>
        <time>2024-02-04T10:08:25Z</time>
      </trkpt>
      <trkpt lat="49.12569" lon="-0.30885">
        <ele>53.7</ele>
        <time>2024-02-04T10:08:26Z</time>
      </trkpt>
      <trkpt lat="49.12565" lon="-0.30876">
        <ele>53.8</ele>
        <time>2024-02-04T10:08:27Z</time>
      </trkpt>
      <trkpt lat="49.12561" lon="-0.30866">
        <ele>53.9</ele>
        <time>2024-02-04T10:08:28Z</time>
      </trkpt>
      <trkpt lat="49.12557" lon="-0.30856">
        <ele>53.9</ele>
        <time>2024-02-04T10:08:29Z</time>
      </trkpt>
      <trkpt lat="49.12554" lon="-0.30846">
        <ele>54</ele>
        <time>2024-02-04T10:08:30Z</time>
      </trkpt>
      <trkpt lat="49.1255" lon="-0.30836">
        <ele>54.1</ele>
        <time>2024-02-04T10:08:31Z</time>
      </trkpt>
      <trkpt lat="49.12547" lon="-0.30826">
        <ele>54.2</ele>
        <time>2024-02-04T10:08:32Z</time>
      </trkpt>
      <trkpt lat="49.12543" lon="-0.30817">
        <ele>54.2</ele>
        <time>2024-02-04T10:08:33Z</time>
      </trkpt>
      <trkpt lat="49.1254" lon="-0.30808">
        <ele>54.3</ele>
        <time>2024-02-04T10:08:34Z</time>
      </trkpt>
      <trkpt lat="49.12536" lon="-0.308">
        <ele>54.4</ele>
        <time>2024-02-04T10:08:35Z</time>
      </trkpt>
      <trkpt lat="49.12531" lon="-0.30791">
        <ele>54.5</ele>
        <time>2024-02-04T10:08:36Z</time>
      </trkpt>
      <trkpt lat="49.12527" lon="-0.30783">
        <ele>54.6</ele>
        <time>2024-02-04T10:08:37Z</time>
      </trkpt>
      <trkpt lat="49.12523" lon="-0.30775">
        <ele>54.7</ele>
        <time>2024-02-04T10:08:38Z</time>
      </trkpt>
      <trkpt lat="49.12519" lon="-0.30768">
        <ele>54.8</ele>
        <time>2024-02-04T10:08:39Z</time>
      </trkpt>
      <trkpt lat="49.12514" lon="-0.30761">
        <ele>54.8</ele>
        <time>2024-02-04T10:08:40Z</time>
      </trkpt>
      <trkpt lat="49.12509" lon="-0.30754">
        <ele>54.8</ele>
        <time>2024-02-04T10:08:41Z</time>
      </trkpt>
      <trkpt lat="49.12505" lon="-0.30745">
        <ele>54.8</ele>
        <time>2024-02-04T10:08:42Z</time>
      </trkpt>
      <trkpt lat="49.12502" lon="-0.30735">
        <ele>55.1</ele>
        <time>2024-02-04T10:08:43Z</time>
      </trkpt>
      <trkpt lat="49.12501" lon="-0.30724">
        <ele>55.3</ele>
        <time>2024-02-04T10:08:44Z</time>
      </trkpt>
      <trkpt lat="49.12499" lon="-0.30713">
        <ele>55.5</ele>
        <time>2024-02-04T10:08:45Z</time>
      </trkpt>
      <trkpt lat="49.12496" lon="-0.30704">
        <ele>55.6</ele>
        <time>2024-02-04T10:08:46Z</time>
      </trkpt>
      <trkpt lat="49.12493" lon="-0.30695">
        <ele>55.7</ele>
        <time>2024-02-04T10:08:47Z</time>
      </trkpt>
      <trkpt lat="49.12489" lon="-0.30686">
        <ele>55.8</ele>
        <time>2024-02-04T10:08:48Z</time>
      </trkpt>
      <trkpt lat="49.12485" lon="-0.30677">
        <ele>55.8</ele>
        <time>2024-02-04T10:08:49Z</time>
      </trkpt>
      <trkpt lat="49.12481" lon="-0.30668">
        <ele>55.9</ele>
        <time>2024-02-04T10:08:50Z</time>
      </trkpt>
      <trkpt lat="49.12478" lon="-0.30658">
        <ele>56</ele>
        <time>2024-02-04T10:08:51Z</time>
      </trkpt>
      <trkpt lat="49.12474" lon="-0.30648">
        <ele>56</ele>
        <time>2024-02-04T10:08:52Z</time>
      </trkpt>
      <trkpt lat="49.1247" lon="-0.30639">
        <ele>56.1</ele>
        <time>2024-02-04T10:08:53Z</time>
      </trkpt>
      <trkpt lat="49.12467" lon="-0.30628">
        <ele>56.1</ele>
        <time>2024-02-04T10:08:54Z</time>
      </trkpt>
      <trkpt lat="49.12463" lon="-0.30618">
        <ele>56.1</ele>
        <time>2024-02-04T10:08:55Z</time>
      </trkpt>
      <trkpt lat="49.1246" lon="-0.30607">
        <ele>56.1</ele>
        <time>2024-02-04T10:08:56Z</time>
      </trkpt>
      <trkpt lat="49.12457" lon="-0.30597">
        <ele>56.1</ele>
        <time>2024-02-04T10:08:57Z</time>
      </trkpt>
      <trkpt lat="49.12454" lon="-0.30586">
        <ele>56.1</ele>
        <time>2024-02-04T10:08:58Z</time>
      </trkpt>
      <trkpt lat="49.12451" lon="-0.30575">
        <ele>56.1</ele>
        <time>2024-02-04T10:08:59Z</time>
      </trkpt>
      <trkpt lat="49.12448" lon="-0.30564">
        <ele>56.1</ele>
        <time>2024-02-04T10:09:00Z</time>
      </trkpt>
      <trkpt lat="49.12445" lon="-0.30552">
        <ele>56.1</ele>
        <time>2024-02-04T10:09:01Z</time>
      </trkpt>
      <trkpt lat="49.12443" lon="-0.3054">
        <ele>56</ele>
        <time>2024-02-04T10:09:02Z</time>
      </trkpt>
      <trkpt lat="49.12441" lon="-0.30529">
        <ele>55.9</ele>
        <time>2024-02-04T10:09:03Z</time>
      </trkpt>
      <trkpt lat="49.12438" lon="-0.30518">
        <ele>55.8</ele>
        <time>2024-02-04T10:09:04Z</time>
      </trkpt>
      <trkpt lat="49.12436" lon="-0.30507">
        <ele>55.6</ele>
        <time>2024-02-04T10:09:05Z</time>
      </trkpt>
      <trkpt lat="49.12434" lon="-0.30495">
        <ele>55.4</ele>
        <time>2024-02-04T10:09:06Z</time>
      </trkpt>
      <trkpt lat="49.12433" lon="-0.30483">
        <ele>55.2</ele>
        <time>2024-02-04T10:09:07Z</time>
      </trkpt>
      <trkpt lat="49.12431" lon="-0.30472">
        <ele>55</ele>
        <time>2024-02-04T10:09:08Z</time>
      </trkpt>
      <trkpt lat="49.1243" lon="-0.30459">
        <ele>54.7</ele>
        <time>2024-02-04T10:09:09Z</time>
      </trkpt>
      <trkpt lat="49.12429" lon="-0.30447">
        <ele>54.4</ele>
        <time>2024-02-04T10:09:10Z</time>
      </trkpt>
      <trkpt lat="49.12428" lon="-0.30435">
        <ele>54.1</ele>
        <time>2024-02-04T10:09:11Z</time>
      </trkpt>
      <trkpt lat="49.12427" lon="-0.30423">
        <ele>53.7</ele>
        <time>2024-02-04T10:09:12Z</time>
      </trkpt>
      <trkpt lat="49.12426" lon="-0.3041">
        <ele>53.4</ele>
        <time>2024-02-04T10:09:13Z</time>
      </trkpt>
      <trkpt lat="49.12425" lon="-0.30397">
        <ele>53.1</ele>
        <time>2024-02-04T10:09:14Z</time>
      </trkpt>
      <trkpt lat="49.12425" lon="-0.30384">
        <ele>52.8</ele>
        <time>2024-02-04T10:09:15Z</time>
      </trkpt>
      <trkpt lat="49.12425" lon="-0.30371">
        <ele>52.6</ele>
        <time>2024-02-04T10:09:16Z</time>
      </trkpt>
      <trkpt lat="49.12425" lon="-0.30357">
        <ele>52.2</ele>
        <time>2024-02-04T10:09:17Z</time>
      </trkpt>
      <trkpt lat="49.12426" lon="-0.30344">
        <ele>51.8</ele>
        <time>2024-02-04T10:09:18Z</time>
      </trkpt>
      <trkpt lat="49.12427" lon="-0.30331">
        <ele>51.3</ele>
        <time>2024-02-04T10:09:19Z</time>
      </trkpt>
      <trkpt lat="49.12428" lon="-0.30317">
        <ele>50.9</ele>
        <time>2024-02-04T10:09:20Z</time>
      </trkpt>
      <trkpt lat="49.12428" lon="-0.30304">
        <ele>50.5</ele>
        <time>2024-02-04T10:09:21Z</time>
      </trkpt>
      <trkpt lat="49.12429" lon="-0.3029">
        <ele>50</ele>
        <time>2024-02-04T10:09:22Z</time>
      </trkpt>
      <trkpt lat="49.12429" lon="-0.30276">
        <ele>49.6</ele>
        <time>2024-02-04T10:09:23Z</time>
      </trkpt>
      <trkpt lat="49.1243" lon="-0.30262">
        <ele>49.2</ele>
        <time>2024-02-04T10:09:24Z</time>
      </trkpt>
      <trkpt lat="49.1243" lon="-0.30248">
        <ele>48.9</ele>
        <time>2024-02-04T10:09:25Z</time>
      </trkpt>
      <trkpt lat="49.12431" lon="-0.30233">
        <ele>48.5</ele>
        <time>2024-02-04T10:09:26Z</time>
      </trkpt>
      <trkpt lat="49.12432" lon="-0.30218">
        <ele>48.2</ele>
        <time>2024-02-04T10:09:27Z</time>
      </trkpt>
      <trkpt lat="49.12432" lon="-0.30204">
        <ele>47.9</ele>
        <time>2024-02-04T10:09:28Z</time>
      </trkpt>
      <trkpt lat="49.12433" lon="-0.30189">
        <ele>47.5</ele>
        <time>2024-02-04T10:09:29Z</time>
      </trkpt>
      <trkpt lat="49.12433" lon="-0.30173">
        <ele>47.2</ele>
        <time>2024-02-04T10:09:30Z</time>
      </trkpt>
      <trkpt lat="49.12434" lon="-0.30158">
        <ele>46.8</ele>
        <time>2024-02-04T10:09:31Z</time>
      </trkpt>
      <trkpt lat="49.12435" lon="-0.30143">
        <ele>46.5</ele>
        <time>2024-02-04T10:09:32Z</time>
      </trkpt>
      <trkpt lat="49.12435" lon="-0.30127">
        <ele>46.2</ele>
        <time>2024-02-04T10:09:33Z</time>
      </trkpt>
      <trkpt lat="49.12435" lon="-0.30112">
        <ele>45.9</ele>
        <time>2024-02-04T10:09:34Z</time>
      </trkpt>
      <trkpt lat="49.12436" lon="-0.30096">
        <ele>45.7</ele>
        <time>2024-02-04T10:09:35Z</time>
      </trkpt>
      <trkpt lat="49.12436" lon="-0.30081">
        <ele>45.5</ele>
        <time>2024-02-04T10:09:36Z</time>
      </trkpt>
      <trkpt lat="49.12436" lon="-0.30066">
        <ele>45.3</ele>
        <time>2024-02-04T10:09:37Z</time>
      </trkpt>
      <trkpt lat="49.12436" lon="-0.30051">
        <ele>45.1</ele>
        <time>2024-02-04T10:09:38Z</time>
      </trkpt>
      <trkpt lat="49.12437" lon="-0.30036">
        <ele>45</ele>
        <time>2024-02-04T10:09:39Z</time>
      </trkpt>
      <trkpt lat="49.12437" lon="-0.30023">
        <ele>44.9</ele>
        <time>2024-02-04T10:09:40Z</time>
      </trkpt>
      <trkpt lat="49.12437" lon="-0.3001">
        <ele>44.8</ele>
        <time>2024-02-04T10:09:41Z</time>
      </trkpt>
      <trkpt lat="49.12437" lon="-0.29998">
        <ele>44.8</ele>
        <time>2024-02-04T10:09:42Z</time>
      </trkpt>
      <trkpt lat="49.12436" lon="-0.29987">
        <ele>44.8</ele>
        <time>2024-02-04T10:09:43Z</time>
      </trkpt>
      <trkpt lat="49.12432" lon="-0.29977">
        <ele>44.8</ele>
        <time>2024-02-04T10:09:44Z</time>
      </trkpt>
      <trkpt lat="49.12426" lon="-0.2997">
        <ele>44.9</ele>
        <time>2024-02-04T10:09:45Z</time>
      </trkpt>
      <trkpt lat="49.12419" lon="-0.29967">
        <ele>45.1</ele>
        <time>2024-02-04T10:09:46Z</time>
      </trkpt>
      <trkpt lat="49.12411" lon="-0.29967">
        <ele>45.2</ele>
        <time>2024-02-04T10:09:47Z</time>
      </trkpt>
      <trkpt lat="49.12403" lon="-0.29968">
        <ele>45.3</ele>
        <time>2024-02-04T10:09:48Z</time>
      </trkpt>
      <trkpt lat="49.12396" lon="-0.29969">
        <ele>45.4</ele>
        <time>2024-02-04T10:09:49Z</time>
      </trkpt>
      <trkpt lat="49.12388" lon="-0.2997">
        <ele>45.5</ele>
        <time>2024-02-04T10:09:50Z</time>
      </trkpt>
      <trkpt lat="49.12381" lon="-0.29971">
        <ele>45.6</ele>
        <time>2024-02-04T10:09:51Z</time>
      </trkpt>
      <trkpt lat="49.12373" lon="-0.29972">
        <ele>45.7</ele>
        <time>2024-02-04T10:09:52Z</time>
      </trkpt>
      <trkpt lat="49.12365" lon="-0.29973">
        <ele>45.9</ele>
        <time>2024-02-04T10:09:53Z</time>
      </trkpt>
      <trkpt lat="49.12358" lon="-0.29974">
        <ele>46</ele>
        <time>2024-02-04T10:09:54Z</time>
      </trkpt>
      <trkpt lat="49.12351" lon="-0.29974">
        <ele>46.1</ele>
        <time>2024-02-04T10:09:55Z</time>
      </trkpt>
      <trkpt lat="49.12344" lon="-0.29974">
        <ele>46.2</ele>
        <time>2024-02-04T10:09:56Z</time>
      </trkpt>
      <trkpt lat="49.12336" lon="-0.29974">
        <ele>46.4</ele>
        <time>2024-02-04T10:09:57Z</time>
      </trkpt>
      <trkpt lat="49.12329" lon="-0.29973">
        <ele>46.5</ele>
        <time>2024-02-04T10:09:58Z</time>
      </trkpt>
      <trkpt lat="49.12322" lon="-0.29972">
        <ele>46.7</ele>
        <time>2024-02-04T10:09:59Z</time>
      </trkpt>
      <trkpt lat="49.12315" lon="-0.29971">
        <ele>46.9</ele>
        <time>2024-02-04T10:10:00Z</time>
      </trkpt>
      <trkpt lat="49.12308" lon="-0.29969">
        <ele>47</ele>
        <time>2024-02-04T10:10:01Z</time>
      </trkpt>
      <trkpt lat="49.12301" lon="-0.29967">
        <ele>47.2</ele>
        <time>2024-02-04T10:10:02Z</time>
      </trkpt>
      <trkpt lat="49.12295" lon="-0.29966">
        <ele>47.3</ele>
        <time>2024-02-04T10:10:03Z</time>
      </trkpt>
      <trkpt lat="49.12288" lon="-0.29964">
        <ele>47.4</ele>
        <time>2024-02-04T10:10:04Z</time>
      </trkpt>
      <trkpt lat="49.12281" lon="-0.29962">
        <ele>47.6</ele>
        <time>2024-02-04T10:10:05Z</time>
      </trkpt>
      <trkpt lat="49.12274" lon="-0.2996">
        <ele>47.7</ele>
        <time>2024-02-04T10:10:06Z</time>
      </trkpt>
      <trkpt lat="49.12267" lon="-0.29958">
        <ele>47.8</ele>
        <time>2024-02-04T10:10:07Z</time>
      </trkpt>
      <trkpt lat="49.1226" lon="-0.29955">
        <ele>47.9</ele>
        <time>2024-02-04T10:10:08Z</time>
      </trkpt>
      <trkpt lat="49.12254" lon="-0.29952">
        <ele>48</ele>
        <time>2024-02-04T10:10:09Z</time>
      </trkpt>
      <trkpt lat="49.12247" lon="-0.29948">
        <ele>48.1</ele>
        <time>2024-02-04T10:10:10Z</time>
      </trkpt>
      <trkpt lat="49.1224" lon="-0.29944">
        <ele>48.2</ele>
        <time>2024-02-04T10:10:11Z</time>
      </trkpt>
      <trkpt lat="49.12234" lon="-0.29939">
        <ele>48.2</ele>
        <time>2024-02-04T10:10:12Z</time>
      </trkpt>
      <trkpt lat="49.12227" lon="-0.29934">
        <ele>48.3</ele>
        <time>2024-02-04T10:10:13Z</time>
      </trkpt>
      <trkpt lat="49.12222" lon="-0.29928">
        <ele>48.4</ele>
        <time>2024-02-04T10:10:14Z</time>
      </trkpt>
      <trkpt lat="49.12216" lon="-0.29921">
        <ele>48.4</ele>
        <time>2024-02-04T10:10:15Z</time>
      </trkpt>
      <trkpt lat="49.12211" lon="-0.29916">
        <ele>48.5</ele>
        <time>2024-02-04T10:10:16Z</time>
      </trkpt>
      <trkpt lat="49.12205" lon="-0.2991">
        <ele>48.6</ele>
        <time>2024-02-04T10:10:17Z</time>
      </trkpt>
      <trkpt lat="49.122" lon="-0.29904">
        <ele>48.6</ele>
        <time>2024-02-04T10:10:18Z</time>
      </trkpt>
      <trkpt lat="49.12195" lon="-0.29897">
        <ele>48.7</ele>
        <time>2024-02-04T10:10:19Z</time>
      </trkpt>
      <trkpt lat="49.1219" lon="-0.2989">
        <ele>48.8</ele>
        <time>2024-02-04T10:10:20Z</time>
      </trkpt>
      <trkpt lat="49.12186" lon="-0.29884">
        <ele>48.8</ele>
        <time>2024-02-04T10:10:21Z</time>
      </trkpt>
      <trkpt lat="49.12182" lon="-0.29877">
        <ele>48.9</ele>
        <time>2024-02-04T10:10:22Z</time>
      </trkpt>
      <trkpt lat="49.12178" lon="-0.29871">
        <ele>48.9</ele>
        <time>2024-02-04T10:10:23Z</time>
      </trkpt>
      <trkpt lat="49.12176" lon="-0.29864">
        <ele>48.9</ele>
        <time>2024-02-04T10:10:24Z</time>
      </trkpt>
      <trkpt lat="49.12174" lon="-0.29856">
        <ele>49</ele>
        <time>2024-02-04T10:10:25Z</time>
      </trkpt>
      <trkpt lat="49.12172" lon="-0.29849">
        <ele>49</ele>
        <time>2024-02-04T10:10:26Z</time>
      </trkpt>
      <trkpt lat="49.12171" lon="-0.2984">
        <ele>49.1</ele>
        <time>2024-02-04T10:10:27Z</time>
      </trkpt>
      <trkpt lat="49.12169" lon="-0.29832">
        <ele>49.1</ele>
        <time>2024-02-04T10:10:28Z</time>
      </trkpt>
      <trkpt lat="49.12168" lon="-0.29822">
        <ele>49.1</ele>
        <time>2024-02-04T10:10:29Z</time>
      </trkpt>
      <trkpt lat="49.12166" lon="-0.29813">
        <ele>49.2</ele>
        <time>2024-02-04T10:10:30Z</time>
      </trkpt>
      <trkpt lat="49.12164" lon="-0.29803">
        <ele>49.2</ele>
        <time>2024-02-04T10:10:31Z</time>
      </trkpt>
      <trkpt lat="49.12162" lon="-0.29793">
        <ele>49.3</ele>
        <time>2024-02-04T10:10:32Z</time>
      </trkpt>
      <trkpt lat="49.12161" lon="-0.29783">
        <ele>49.3</ele>
        <time>2024-02-04T10:10:33Z</time>
      </trkpt>
      <trkpt lat="49.12158" lon="-0.29773">
        <ele>49.4</ele>
        <time>2024-02-04T10:10:34Z</time>
      </trkpt>
      <trkpt lat="49.12157" lon="-0.29763">
        <ele>49.4</ele>
        <time>2024-02-04T10:10:35Z</time>
      </trkpt>
      <trkpt lat="49.12155" lon="-0.29753">
        <ele>49.5</ele>
        <time>2024-02-04T10:10:36Z</time>
      </trkpt>
      <trkpt lat="49.12152" lon="-0.29743">
        <ele>49.5</ele>
        <time>2024-02-04T10:10:37Z</time>
      </trkpt>
      <trkpt lat="49.1215" lon="-0.29733">
        <ele>49.5</ele>
        <time>2024-02-04T10:10:38Z</time>
      </trkpt>
      <trkpt lat="49.12148" lon="-0.29722">
        <ele>49.6</ele>
        <time>2024-02-04T10:10:39Z</time>
      </trkpt>
      <trkpt lat="49.12146" lon="-0.29712">
        <ele>49.6</ele>
        <time>2024-02-04T10:10:40Z</time>
      </trkpt>
      <trkpt lat="49.12144" lon="-0.29701">
        <ele>49.7</ele>
        <time>2024-02-04T10:10:41Z</time>
      </trkpt>
      <trkpt lat="49.12142" lon="-0.2969">
        <ele>49.7</ele>
        <time>2024-02-04T10:10:42Z</time>
      </trkpt>
      <trkpt lat="49.1214" lon="-0.2968">
        <ele>49.8</ele>
        <time>2024-02-04T10:10:43Z</time>
      </trkpt>
      <trkpt lat="49.12137" lon="-0.29669">
        <ele>49.8</ele>
        <time>2024-02-04T10:10:44Z</time>
      </trkpt>
      <trkpt lat="49.12135" lon="-0.29659">
        <ele>49.9</ele>
        <time>2024-02-04T10:10:45Z</time>
      </trkpt>
      <trkpt lat="49.12133" lon="-0.29648">
        <ele>49.9</ele>
        <time>2024-02-04T10:10:46Z</time>
      </trkpt>
      <trkpt lat="49.1213" lon="-0.29637">
        <ele>49.9</ele>
        <time>2024-02-04T10:10:47Z</time>
      </trkpt>
      <trkpt lat="49.12128" lon="-0.29626">
        <ele>50</ele>
        <time>2024-02-04T10:10:48Z</time>
      </trkpt>
      <trkpt lat="49.12125" lon="-0.29615">
        <ele>50</ele>
        <time>2024-02-04T10:10:49Z</time>
      </trkpt>
      <trkpt lat="49.12123" lon="-0.29603">
        <ele>50.1</ele>
        <time>2024-02-04T10:10:50Z</time>
      </trkpt>
      <trkpt lat="49.12121" lon="-0.29591">
        <ele>50.1</ele>
        <time>2024-02-04T10:10:51Z</time>
      </trkpt>
      <trkpt lat="49.12119" lon="-0.29578">
        <ele>50.1</ele>
        <time>2024-02-04T10:10:52Z</time>
      </trkpt>
      <trkpt lat="49.12118" lon="-0.29566">
        <ele>50.1</ele>
        <time>2024-02-04T10:10:53Z</time>
      </trkpt>
      <trkpt lat="49.12116" lon="-0.29553">
        <ele>50.1</ele>
        <time>2024-02-04T10:10:54Z</time>
      </trkpt>
      <trkpt lat="49.12115" lon="-0.2954">
        <ele>50</ele>
        <time>2024-02-04T10:10:55Z</time>
      </trkpt>
      <trkpt lat="49.12113" lon="-0.29527">
        <ele>50</ele>
        <time>2024-02-04T10:10:56Z</time>
      </trkpt>
      <trkpt lat="49.12112" lon="-0.29514">
        <ele>49.9</ele>
        <time>2024-02-04T10:10:57Z</time>
      </trkpt>
      <trkpt lat="49.1211" lon="-0.29501">
        <ele>49.9</ele>
        <time>2024-02-04T10:10:58Z</time>
      </trkpt>
      <trkpt lat="49.12108" lon="-0.29488">
        <ele>49.8</ele>
        <time>2024-02-04T10:10:59Z</time>
      </trkpt>
      <trkpt lat="49.12106" lon="-0.29474">
        <ele>49.8</ele>
        <time>2024-02-04T10:11:00Z</time>
      </trkpt>
      <trkpt lat="49.12104" lon="-0.2946">
        <ele>49.7</ele>
        <time>2024-02-04T10:11:01Z</time>
      </trkpt>
      <trkpt lat="49.12102" lon="-0.29447">
        <ele>49.6</ele>
        <time>2024-02-04T10:11:02Z</time>
      </trkpt>
      <trkpt lat="49.12101" lon="-0.29433">
        <ele>49.6</ele>
        <time>2024-02-04T10:11:03Z</time>
      </trkpt>
      <trkpt lat="49.12099" lon="-0.2942">
        <ele>49.5</ele>
        <time>2024-02-04T10:11:04Z</time>
      </trkpt>
      <trkpt lat="49.12097" lon="-0.29406">
        <ele>49.4</ele>
        <time>2024-02-04T10:11:05Z</time>
      </trkpt>
      <trkpt lat="49.12095" lon="-0.29393">
        <ele>49.4</ele>
        <time>2024-02-04T10:11:06Z</time>
      </trkpt>
      <trkpt lat="49.12094" lon="-0.2938">
        <ele>49.3</ele>
        <time>2024-02-04T10:11:07Z</time>
      </trkpt>
      <trkpt lat="49.12092" lon="-0.29367">
        <ele>49.2</ele>
        <time>2024-02-04T10:11:08Z</time>
      </trkpt>
      <trkpt lat="49.12089" lon="-0.29353">
        <ele>49.1</ele>
        <time>2024-02-04T10:11:09Z</time>
      </trkpt>
      <trkpt lat="49.12086" lon="-0.2934">
        <ele>49.1</ele>
        <time>2024-02-04T10:11:10Z</time>
      </trkpt>
      <trkpt lat="49.12084" lon="-0.29326">
        <ele>49</ele>
        <time>2024-02-04T10:11:11Z</time>
      </trkpt>
      <trkpt lat="49.12082" lon="-0.29312">
        <ele>48.9</ele>
        <time>2024-02-04T10:11:12Z</time>
      </trkpt>
      <trkpt lat="49.1208" lon="-0.29298">
        <ele>48.8</ele>
        <time>2024-02-04T10:11:13Z</time>
      </trkpt>
      <trkpt lat="49.12078" lon="-0.29283">
        <ele>48.8</ele>
        <time>2024-02-04T10:11:14Z</time>
      </trkpt>
      <trkpt lat="49.12076" lon="-0.29269">
        <ele>48.7</ele>
        <time>2024-02-04T10:11:15Z</time>
      </trkpt>
      <trkpt lat="49.12074" lon="-0.29253">
        <ele>48.6</ele>
        <time>2024-02-04T10:11:16Z</time>
      </trkpt>
      <trkpt lat="49.12073" lon="-0.29238">
        <ele>48.5</ele>
        <time>2024-02-04T10:11:17Z</time>
      </trkpt>
      <trkpt lat="49.1207" lon="-0.29224">
        <ele>48.4</ele>
        <time>2024-02-04T10:11:18Z</time>
      </trkpt>
      <trkpt lat="49.12068" lon="-0.2921">
        <ele>48.2</ele>
        <time>2024-02-04T10:11:19Z</time>
      </trkpt>
      <trkpt lat="49.12066" lon="-0.29195">
        <ele>48.1</ele>
        <time>2024-02-04T10:11:20Z</time>
      </trkpt>
      <trkpt lat="49.12064" lon="-0.2918">
        <ele>48</ele>
        <time>2024-02-04T10:11:21Z</time>
      </trkpt>
      <trkpt lat="49.12061" lon="-0.29152">
        <ele>47.8</ele>
        <time>2024-02-04T10:11:23Z</time>
      </trkpt>
      <trkpt lat="49.12059" lon="-0.29137">
        <ele>47.8</ele>
        <time>2024-02-04T10:11:24Z</time>
      </trkpt>
      <trkpt lat="49.12057" lon="-0.29123">
        <ele>47.7</ele>
        <time>2024-02-04T10:11:25Z</time>
      </trkpt>
      <trkpt lat="49.12055" lon="-0.29109">
        <ele>47.6</ele>
        <time>2024-02-04T10:11:26Z</time>
      </trkpt>
      <trkpt lat="49.12053" lon="-0.29095">
        <ele>47.5</ele>
        <time>2024-02-04T10:11:27Z</time>
      </trkpt>
      <trkpt lat="49.12051" lon="-0.29082">
        <ele>47.4</ele>
        <time>2024-02-04T10:11:28Z</time>
      </trkpt>
      <trkpt lat="49.12049" lon="-0.29068">
        <ele>47.3</ele>
        <time>2024-02-04T10:11:29Z</time>
      </trkpt>
      <trkpt lat="49.12047" lon="-0.29054">
        <ele>47.2</ele>
        <time>2024-02-04T10:11:30Z</time>
      </trkpt>
      <trkpt lat="49.12045" lon="-0.2904">
        <ele>47.2</ele>
        <time>2024-02-04T10:11:31Z</time>
      </trkpt>
      <trkpt lat="49.12043" lon="-0.29027">
        <ele>47.1</ele>
        <time>2024-02-04T10:11:32Z</time>
      </trkpt>
      <trkpt lat="49.12041" lon="-0.29013">
        <ele>47.1</ele>
        <time>2024-02-04T10:11:33Z</time>
      </trkpt>
      <trkpt lat="49.12039" lon="-0.28999">
        <ele>47.1</ele>
        <time>2024-02-04T10:11:34Z</time>
      </trkpt>
      <trkpt lat="49.12036" lon="-0.28985">
        <ele>47.1</ele>
        <time>2024-02-04T10:11:35Z</time>
      </trkpt>
      <trkpt lat="49.12033" lon="-0.28972">
        <ele>47.1</ele>
        <time>2024-02-04T10:11:36Z</time>
      </trkpt>
      <trkpt lat="49.12031" lon="-0.28958">
        <ele>47.1</ele>
        <time>2024-02-04T10:11:37Z</time>
      </trkpt>
      <trkpt lat="49.12028" lon="-0.28945">
        <ele>47.1</ele>
        <time>2024-02-04T10:11:38Z</time>
      </trkpt>
      <trkpt lat="49.12025" lon="-0.28931">
        <ele>47.2</ele>
        <time>2024-02-04T10:11:39Z</time>
      </trkpt>
      <trkpt lat="49.12022" lon="-0.28918">
        <ele>47.2</ele>
        <time>2024-02-04T10:11:40Z</time>
      </trkpt>
      <trkpt lat="49.12019" lon="-0.28905">
        <ele>47.3</ele>
        <time>2024-02-04T10:11:41Z</time>
      </trkpt>
      <trkpt lat="49.12016" lon="-0.28893">
        <ele>47.4</ele>
        <time>2024-02-04T10:11:42Z</time>
      </trkpt>
      <trkpt lat="49.12013" lon="-0.2888">
        <ele>47.4</ele>
        <time>2024-02-04T10:11:43Z</time>
      </trkpt>
      <trkpt lat="49.1201" lon="-0.28868">
        <ele>47.5</ele>
        <time>2024-02-04T10:11:44Z</time>
      </trkpt>
      <trkpt lat="49.12006" lon="-0.28855">
        <ele>47.6</ele>
        <time>2024-02-04T10:11:45Z</time>
      </trkpt>
      <trkpt lat="49.12002" lon="-0.28842">
        <ele>47.6</ele>
        <time>2024-02-04T10:11:46Z</time>
      </trkpt>
      <trkpt lat="49.11999" lon="-0.2883">
        <ele>47.7</ele>
        <time>2024-02-04T10:11:47Z</time>
      </trkpt>
      <trkpt lat="49.11995" lon="-0.28817">
        <ele>47.7</ele>
        <time>2024-02-04T10:11:48Z</time>
      </trkpt>
      <trkpt lat="49.11992" lon="-0.28804">
        <ele>47.8</ele>
        <time>2024-02-04T10:11:49Z</time>
      </trkpt>
      <trkpt lat="49.11988" lon="-0.28791">
        <ele>47.9</ele>
        <time>2024-02-04T10:11:50Z</time>
      </trkpt>
      <trkpt lat="49.11984" lon="-0.28778">
        <ele>47.9</ele>
        <time>2024-02-04T10:11:51Z</time>
      </trkpt>
      <trkpt lat="49.11981" lon="-0.28765">
        <ele>48</ele>
        <time>2024-02-04T10:11:52Z</time>
      </trkpt>
      <trkpt lat="49.11977" lon="-0.28753">
        <ele>48.1</ele>
        <time>2024-02-04T10:11:53Z</time>
      </trkpt>
      <trkpt lat="49.11974" lon="-0.2874">
        <ele>48.1</ele>
        <time>2024-02-04T10:11:54Z</time>
      </trkpt>
      <trkpt lat="49.1197" lon="-0.28727">
        <ele>48.1</ele>
        <time>2024-02-04T10:11:55Z</time>
      </trkpt>
      <trkpt lat="49.11966" lon="-0.28715">
        <ele>48.1</ele>
        <time>2024-02-04T10:11:56Z</time>
      </trkpt>
      <trkpt lat="49.11963" lon="-0.28703">
        <ele>48.1</ele>
        <time>2024-02-04T10:11:57Z</time>
      </trkpt>
      <trkpt lat="49.11959" lon="-0.2869">
        <ele>48.1</ele>
        <time>2024-02-04T10:11:58Z</time>
      </trkpt>
      <trkpt lat="49.11956" lon="-0.28678">
        <ele>48.2</ele>
        <time>2024-02-04T10:11:59Z</time>
      </trkpt>
      <trkpt lat="49.11952" lon="-0.28666">
        <ele>48.3</ele>
        <time>2024-02-04T10:12:00Z</time>
      </trkpt>
      <trkpt lat="49.11949" lon="-0.28653">
        <ele>48.4</ele>
        <time>2024-02-04T10:12:01Z</time>
      </trkpt>
      <trkpt lat="49.11946" lon="-0.28641">
        <ele>48.5</ele>
        <time>2024-02-04T10:12:02Z</time>
      </trkpt>
      <trkpt lat="49.11942" lon="-0.28629">
        <ele>48.6</ele>
        <time>2024-02-04T10:12:03Z</time>
      </trkpt>
      <trkpt lat="49.11938" lon="-0.28616">
        <ele>48.7</ele>
        <time>2024-02-04T10:12:04Z</time>
      </trkpt>
      <trkpt lat="49.11935" lon="-0.28604">
        <ele>48.8</ele>
        <time>2024-02-04T10:12:05Z</time>
      </trkpt>
      <trkpt lat="49.11931" lon="-0.28591">
        <ele>48.9</ele>
        <time>2024-02-04T10:12:06Z</time>
      </trkpt>
      <trkpt lat="49.11928" lon="-0.28579">
        <ele>49.1</ele>
        <time>2024-02-04T10:12:07Z</time>
      </trkpt>
      <trkpt lat="49.11924" lon="-0.28566">
        <ele>49.2</ele>
        <time>2024-02-04T10:12:08Z</time>
      </trkpt>
      <trkpt lat="49.11921" lon="-0.28554">
        <ele>49.3</ele>
        <time>2024-02-04T10:12:09Z</time>
      </trkpt>
      <trkpt lat="49.11917" lon="-0.28541">
        <ele>49.5</ele>
        <time>2024-02-04T10:12:10Z</time>
      </trkpt>
      <trkpt lat="49.11914" lon="-0.28529">
        <ele>49.6</ele>
        <time>2024-02-04T10:12:11Z</time>
      </trkpt>
      <trkpt lat="49.1191" lon="-0.28516">
        <ele>49.8</ele>
        <time>2024-02-04T10:12:12Z</time>
      </trkpt>
      <trkpt lat="49.11907" lon="-0.28504">
        <ele>49.9</ele>
        <time>2024-02-04T10:12:13Z</time>
      </trkpt>
      <trkpt lat="49.11903" lon="-0.28492">
        <ele>50</ele>
        <time>2024-02-04T10:12:14Z</time>
      </trkpt>
      <trkpt lat="49.119" lon="-0.2848">
        <ele>50.2</ele>
        <time>2024-02-04T10:12:15Z</time>
      </trkpt>
      <trkpt lat="49.11896" lon="-0.28469">
        <ele>50.3</ele>
        <time>2024-02-04T10:12:16Z</time>
      </trkpt>
      <trkpt lat="49.11893" lon="-0.28457">
        <ele>50.4</ele>
        <time>2024-02-04T10:12:17Z</time>
      </trkpt>
      <trkpt lat="49.11889" lon="-0.28445">
        <ele>50.5</ele>
        <time>2024-02-04T10:12:18Z</time>
      </trkpt>
      <trkpt lat="49.11886" lon="-0.28433">
        <ele>50.6</ele>
        <time>2024-02-04T10:12:19Z</time>
      </trkpt>
      <trkpt lat="49.11883" lon="-0.2842">
        <ele>50.7</ele>
        <time>2024-02-04T10:12:20Z</time>
      </trkpt>
      <trkpt lat="49.11879" lon="-0.28408">
        <ele>50.8</ele>
        <time>2024-02-04T10:12:21Z</time>
      </trkpt>
      <trkpt lat="49.11875" lon="-0.28395">
        <ele>50.8</ele>
        <time>2024-02-04T10:12:22Z</time>
      </trkpt>
      <trkpt lat="49.11872" lon="-0.28383">
        <ele>50.9</ele>
        <time>2024-02-04T10:12:23Z</time>
      </trkpt>
      <trkpt lat="49.11868" lon="-0.2837">
        <ele>51</ele>
        <time>2024-02-04T10:12:24Z</time>
      </trkpt>
      <trkpt lat="49.11865" lon="-0.28358">
        <ele>51</ele>
        <time>2024-02-04T10:12:25Z</time>
      </trkpt>
      <trkpt lat="49.11861" lon="-0.28345">
        <ele>51.1</ele>
        <time>2024-02-04T10:12:26Z</time>
      </trkpt>
      <trkpt lat="49.11858" lon="-0.28333">
        <ele>51.1</ele>
        <time>2024-02-04T10:12:27Z</time>
      </trkpt>
      <trkpt lat="49.11855" lon="-0.28321">
        <ele>51.1</ele>
        <time>2024-02-04T10:12:28Z</time>
      </trkpt>
      <trkpt lat="49.11852" lon="-0.28309">
        <ele>51.1</ele>
        <time>2024-02-04T10:12:29Z</time>
      </trkpt>
      <trkpt lat="49.11848" lon="-0.28297">
        <ele>51.1</ele>
        <time>2024-02-04T10:12:30Z</time>
      </trkpt>
      <trkpt lat="49.11845" lon="-0.28285">
        <ele>51.1</ele>
        <time>2024-02-04T10:12:31Z</time>
      </trkpt>
      <trkpt lat="49.11842" lon="-0.28272">
        <ele>51</ele>
        <time>2024-02-04T10:12:32Z</time>
      </trkpt>
      <trkpt lat="49.11838" lon="-0.2826">
        <ele>51</ele>
        <time>2024-02-04T10:12:33Z</time>
      </trkpt>
      <trkpt lat="49.11835" lon="-0.28248">
        <ele>50.9</ele>
        <time>2024-02-04T10:12:34Z</time>
      </trkpt>
      <trkpt lat="49.11831" lon="-0.28235">
        <ele>50.8</ele>
        <time>2024-02-04T10:12:35Z</time>
      </trkpt>
      <trkpt lat="49.11828" lon="-0.28223">
        <ele>50.7</ele>
        <time>2024-02-04T10:12:36Z</time>
      </trkpt>
      <trkpt lat="49.11825" lon="-0.2821">
        <ele>50.6</ele>
        <time>2024-02-04T10:12:37Z</time>
      </trkpt>
      <trkpt lat="49.11821" lon="-0.28197">
        <ele>50.5</ele>
        <time>2024-02-04T10:12:38Z</time>
      </trkpt>
      <trkpt lat="49.11818" lon="-0.28185">
        <ele>50.4</ele>
        <time>2024-02-04T10:12:39Z</time>
      </trkpt>
      <trkpt lat="49.11814" lon="-0.28172">
        <ele>50.3</ele>
        <time>2024-02-04T10:12:40Z</time>
      </trkpt>
      <trkpt lat="49.11811" lon="-0.28159">
        <ele>50.2</ele>
        <time>2024-02-04T10:12:41Z</time>
      </trkpt>
      <trkpt lat="49.11807" lon="-0.28146">
        <ele>50.1</ele>
        <time>2024-02-04T10:12:42Z</time>
      </trkpt>
      <trkpt lat="49.11804" lon="-0.28133">
        <ele>50</ele>
        <time>2024-02-04T10:12:43Z</time>
      </trkpt>
      <trkpt lat="49.118" lon="-0.2812">
        <ele>49.9</ele>
        <time>2024-02-04T10:12:44Z</time>
      </trkpt>
      <trkpt lat="49.11797" lon="-0.28107">
        <ele>49.7</ele>
        <time>2024-02-04T10:12:45Z</time>
      </trkpt>
      <trkpt lat="49.11793" lon="-0.28094">
        <ele>49.6</ele>
        <time>2024-02-04T10:12:46Z</time>
      </trkpt>
      <trkpt lat="49.11789" lon="-0.28081">
        <ele>49.5</ele>
        <time>2024-02-04T10:12:47Z</time>
      </trkpt>
      <trkpt lat="49.11786" lon="-0.28068">
        <ele>49.3</ele>
        <time>2024-02-04T10:12:48Z</time>
      </trkpt>
      <trkpt lat="49.11782" lon="-0.28055">
        <ele>49.2</ele>
        <time>2024-02-04T10:12:49Z</time>
      </trkpt>
      <trkpt lat="49.11778" lon="-0.28042">
        <ele>49</ele>
        <time>2024-02-04T10:12:50Z</time>
      </trkpt>
      <trkpt lat="49.11774" lon="-0.28029">
        <ele>48.9</ele>
        <time>2024-02-04T10:12:51Z</time>
      </trkpt>
      <trkpt lat="49.11771" lon="-0.28017">
        <ele>48.7</ele>
        <time>2024-02-04T10:12:52Z</time>
      </trkpt>
      <trkpt lat="49.11767" lon="-0.28004">
        <ele>48.6</ele>
        <time>2024-02-04T10:12:53Z</time>
      </trkpt>
      <trkpt lat="49.11763" lon="-0.27991">
        <ele>48.5</ele>
        <time>2024-02-04T10:12:54Z</time>
      </trkpt>
      <trkpt lat="49.11759" lon="-0.27978">
        <ele>48.3</ele>
        <time>2024-02-04T10:12:55Z</time>
      </trkpt>
      <trkpt lat="49.11755" lon="-0.27965">
        <ele>48.2</ele>
        <time>2024-02-04T10:12:56Z</time>
      </trkpt>
      <trkpt lat="49.11751" lon="-0.27953">
        <ele>48.2</ele>
        <time>2024-02-04T10:12:57Z</time>
      </trkpt>
      <trkpt lat="49.11747" lon="-0.2794">
        <ele>48.1</ele>
        <time>2024-02-04T10:12:58Z</time>
      </trkpt>
      <trkpt lat="49.11743" lon="-0.27928">
        <ele>48.1</ele>
        <time>2024-02-04T10:12:59Z</time>
      </trkpt>
      <trkpt lat="49.11739" lon="-0.27916">
        <ele>48</ele>
        <time>2024-02-04T10:13:00Z</time>
      </trkpt>
      <trkpt lat="49.11735" lon="-0.27903">
        <ele>48</ele>
        <time>2024-02-04T10:13:01Z</time>
      </trkpt>
      <trkpt lat="49.11731" lon="-0.2789">
        <ele>48</ele>
        <time>2024-02-04T10:13:02Z</time>
      </trkpt>
      <trkpt lat="49.11727" lon="-0.27878">
        <ele>47.9</ele>
        <time>2024-02-04T10:13:03Z</time>
      </trkpt>
      <trkpt lat="49.11723" lon="-0.27865">
        <ele>47.9</ele>
        <time>2024-02-04T10:13:04Z</time>
      </trkpt>
      <trkpt lat="49.11719" lon="-0.27853">
        <ele>48</ele>
        <time>2024-02-04T10:13:05Z</time>
      </trkpt>
      <trkpt lat="49.11715" lon="-0.2784">
        <ele>48</ele>
        <time>2024-02-04T10:13:06Z</time>
      </trkpt>
      <trkpt lat="49.11711" lon="-0.27828">
        <ele>48.1</ele>
        <time>2024-02-04T10:13:07Z</time>
      </trkpt>
      <trkpt lat="49.11707" lon="-0.27816">
        <ele>48.1</ele>
        <time>2024-02-04T10:13:08Z</time>
      </trkpt>
      <trkpt lat="49.11703" lon="-0.27803">
        <ele>48.2</ele>
        <time>2024-02-04T10:13:09Z</time>
      </trkpt>
      <trkpt lat="49.11699" lon="-0.27791">
        <ele>48.3</ele>
        <time>2024-02-04T10:13:10Z</time>
      </trkpt>
      <trkpt lat="49.11696" lon="-0.27778">
        <ele>48.4</ele>
        <time>2024-02-04T10:13:11Z</time>
      </trkpt>
      <trkpt lat="49.11692" lon="-0.27766">
        <ele>48.5</ele>
        <time>2024-02-04T10:13:12Z</time>
      </trkpt>
      <trkpt lat="49.11689" lon="-0.27753">
        <ele>48.6</ele>
        <time>2024-02-04T10:13:13Z</time>
      </trkpt>
      <trkpt lat="49.11685" lon="-0.2774">
        <ele>48.7</ele>
        <time>2024-02-04T10:13:14Z</time>
      </trkpt>
      <trkpt lat="49.11682" lon="-0.27727">
        <ele>48.8</ele>
        <time>2024-02-04T10:13:15Z</time>
      </trkpt>
      <trkpt lat="49.11679" lon="-0.27714">
        <ele>48.9</ele>
        <time>2024-02-04T10:13:16Z</time>
      </trkpt>
      <trkpt lat="49.11676" lon="-0.27701">
        <ele>49</ele>
        <time>2024-02-04T10:13:17Z</time>
      </trkpt>
      <trkpt lat="49.11674" lon="-0.27688">
        <ele>49.1</ele>
        <time>2024-02-04T10:13:18Z</time>
      </trkpt>
      <trkpt lat="49.11671" lon="-0.27676">
        <ele>49.1</ele>
        <time>2024-02-04T10:13:19Z</time>
      </trkpt>
      <trkpt lat="49.11669" lon="-0.27663">
        <ele>49.1</ele>
        <time>2024-02-04T10:13:20Z</time>
      </trkpt>
      <trkpt lat="49.11668" lon="-0.2765">
        <ele>49.1</ele>
        <time>2024-02-04T10:13:21Z</time>
      </trkpt>
      <trkpt lat="49.11665" lon="-0.27638">
        <ele>49.2</ele>
        <time>2024-02-04T10:13:22Z</time>
      </trkpt>
      <trkpt lat="49.11663" lon="-0.27625">
        <ele>49.2</ele>
        <time>2024-02-04T10:13:23Z</time>
      </trkpt>
      <trkpt lat="49.11661" lon="-0.27612">
        <ele>49.2</ele>
        <time>2024-02-04T10:13:24Z</time>
      </trkpt>
      <trkpt lat="49.11659" lon="-0.276">
        <ele>49.3</ele>
        <time>2024-02-04T10:13:25Z</time>
      </trkpt>
      <trkpt lat="49.11657" lon="-0.27587">
        <ele>49.3</ele>
        <time>2024-02-04T10:13:26Z</time>
      </trkpt>
      <trkpt lat="49.11654" lon="-0.27574">
        <ele>49.4</ele>
        <time>2024-02-04T10:13:27Z</time>
      </trkpt>
      <trkpt lat="49.11652" lon="-0.27561">
        <ele>49.4</ele>
        <time>2024-02-04T10:13:28Z</time>
      </trkpt>
      <trkpt lat="49.11651" lon="-0.27548">
        <ele>49.5</ele>
        <time>2024-02-04T10:13:29Z</time>
      </trkpt>
      <trkpt lat="49.11649" lon="-0.27536">
        <ele>49.5</ele>
        <time>2024-02-04T10:13:30Z</time>
      </trkpt>
      <trkpt lat="49.11647" lon="-0.27523">
        <ele>49.6</ele>
        <time>2024-02-04T10:13:31Z</time>
      </trkpt>
      <trkpt lat="49.11644" lon="-0.2751">
        <ele>49.6</ele>
        <time>2024-02-04T10:13:32Z</time>
      </trkpt>
      <trkpt lat="49.11642" lon="-0.27498">
        <ele>49.6</ele>
        <time>2024-02-04T10:13:33Z</time>
      </trkpt>
      <trkpt lat="49.11639" lon="-0.27485">
        <ele>49.7</ele>
        <time>2024-02-04T10:13:34Z</time>
      </trkpt>
      <trkpt lat="49.11636" lon="-0.27473">
        <ele>49.7</ele>
        <time>2024-02-04T10:13:35Z</time>
      </trkpt>
      <trkpt lat="49.11634" lon="-0.27461">
        <ele>49.8</ele>
        <time>2024-02-04T10:13:36Z</time>
      </trkpt>
      <trkpt lat="49.11631" lon="-0.2745">
        <ele>49.8</ele>
        <time>2024-02-04T10:13:37Z</time>
      </trkpt>
      <trkpt lat="49.11629" lon="-0.27438">
        <ele>49.8</ele>
        <time>2024-02-04T10:13:38Z</time>
      </trkpt>
      <trkpt lat="49.11627" lon="-0.27427">
        <ele>49.9</ele>
        <time>2024-02-04T10:13:39Z</time>
      </trkpt>
      <trkpt lat="49.11624" lon="-0.27416">
        <ele>50</ele>
        <time>2024-02-04T10:13:40Z</time>
      </trkpt>
      <trkpt lat="49.11622" lon="-0.27404">
        <ele>50</ele>
        <time>2024-02-04T10:13:41Z</time>
      </trkpt>
      <trkpt lat="49.11621" lon="-0.27393">
        <ele>50.1</ele>
        <time>2024-02-04T10:13:42Z</time>
      </trkpt>
      <trkpt lat="49.11619" lon="-0.2738">
        <ele>50.2</ele>
        <time>2024-02-04T10:13:43Z</time>
      </trkpt>
      <trkpt lat="49.11619" lon="-0.27367">
        <ele>50.2</ele>
        <time>2024-02-04T10:13:44Z</time>
      </trkpt>
      <trkpt lat="49.11619" lon="-0.27354">
        <ele>50.3</ele>
        <time>2024-02-04T10:13:45Z</time>
      </trkpt>
      <trkpt lat="49.11621" lon="-0.27341">
        <ele>50.3</ele>
        <time>2024-02-04T10:13:46Z</time>
      </trkpt>
      <trkpt lat="49.11624" lon="-0.27328">
        <ele>50.3</ele>
        <time>2024-02-04T10:13:47Z</time>
      </trkpt>
      <trkpt lat="49.11628" lon="-0.27315">
        <ele>50.3</ele>
        <time>2024-02-04T10:13:48Z</time>
      </trkpt>
      <trkpt lat="49.11633" lon="-0.27302">
        <ele>50.3</ele>
        <time>2024-02-04T10:13:49Z</time>
      </trkpt>
      <trkpt lat="49.11638" lon="-0.2729">
        <ele>50.4</ele>
        <time>2024-02-04T10:13:50Z</time>
      </trkpt>
      <trkpt lat="49.11643" lon="-0.27279">
        <ele>50.4</ele>
        <time>2024-02-04T10:13:51Z</time>
      </trkpt>
      <trkpt lat="49.11649" lon="-0.27267">
        <ele>50.4</ele>
        <time>2024-02-04T10:13:52Z</time>
      </trkpt>
      <trkpt lat="49.11654" lon="-0.27255">
        <ele>50.4</ele>
        <time>2024-02-04T10:13:53Z</time>
      </trkpt>
      <trkpt lat="49.1166" lon="-0.27243">
        <ele>50.4</ele>
        <time>2024-02-04T10:13:54Z</time>
      </trkpt>
      <trkpt lat="49.11665" lon="-0.27231">
        <ele>50.5</ele>
        <time>2024-02-04T10:13:55Z</time>
      </trkpt>
      <trkpt lat="49.1167" lon="-0.27219">
        <ele>50.5</ele>
        <time>2024-02-04T10:13:56Z</time>
      </trkpt>
      <trkpt lat="49.11673" lon="-0.27206">
        <ele>50.6</ele>
        <time>2024-02-04T10:13:57Z</time>
      </trkpt>
      <trkpt lat="49.11676" lon="-0.27193">
        <ele>50.6</ele>
        <time>2024-02-04T10:13:58Z</time>
      </trkpt>
      <trkpt lat="49.11677" lon="-0.2718">
        <ele>50.6</ele>
        <time>2024-02-04T10:13:59Z</time>
      </trkpt>
      <trkpt lat="49.11677" lon="-0.27166">
        <ele>50.6</ele>
        <time>2024-02-04T10:14:00Z</time>
      </trkpt>
      <trkpt lat="49.11675" lon="-0.27152">
        <ele>50.6</ele>
        <time>2024-02-04T10:14:01Z</time>
      </trkpt>
      <trkpt lat="49.11674" lon="-0.27138">
        <ele>50.6</ele>
        <time>2024-02-04T10:14:02Z</time>
      </trkpt>
      <trkpt lat="49.11671" lon="-0.27124">
        <ele>50.6</ele>
        <time>2024-02-04T10:14:03Z</time>
      </trkpt>
      <trkpt lat="49.11669" lon="-0.2711">
        <ele>50.6</ele>
        <time>2024-02-04T10:14:04Z</time>
      </trkpt>
      <trkpt lat="49.11666" lon="-0.27096">
        <ele>50.5</ele>
        <time>2024-02-04T10:14:05Z</time>
      </trkpt>
      <trkpt lat="49.11663" lon="-0.27081">
        <ele>50.5</ele>
        <time>2024-02-04T10:14:06Z</time>
      </trkpt>
      <trkpt lat="49.1166" lon="-0.27068">
        <ele>50.5</ele>
        <time>2024-02-04T10:14:07Z</time>
      </trkpt>
      <trkpt lat="49.11658" lon="-0.27055">
        <ele>50.5</ele>
        <time>2024-02-04T10:14:08Z</time>
      </trkpt>
      <trkpt lat="49.11655" lon="-0.27041">
        <ele>50.5</ele>
        <time>2024-02-04T10:14:09Z</time>
      </trkpt>
      <trkpt lat="49.11653" lon="-0.27027">
        <ele>50.5</ele>
        <time>2024-02-04T10:14:10Z</time>
      </trkpt>
      <trkpt lat="49.1165" lon="-0.27014">
        <ele>50.5</ele>
        <time>2024-02-04T10:14:11Z</time>
      </trkpt>
      <trkpt lat="49.11647" lon="-0.27001">
        <ele>50.5</ele>
        <time>2024-02-04T10:14:12Z</time>
      </trkpt>
      <trkpt lat="49.11644" lon="-0.26988">
        <ele>50.4</ele>
        <time>2024-02-04T10:14:13Z</time>
      </trkpt>
      <trkpt lat="49.11639" lon="-0.26962">
        <ele>50.4</ele>
        <time>2024-02-04T10:14:15Z</time>
      </trkpt>
      <trkpt lat="49.11637" lon="-0.26948">
        <ele>50.4</ele>
        <time>2024-02-04T10:14:16Z</time>
      </trkpt>
      <trkpt lat="49.11634" lon="-0.26935">
        <ele>50.4</ele>
        <time>2024-02-04T10:14:17Z</time>
      </trkpt>
      <trkpt lat="49.11632" lon="-0.26922">
        <ele>50.4</ele>
        <time>2024-02-04T10:14:18Z</time>
      </trkpt>
      <trkpt lat="49.11629" lon="-0.26909">
        <ele>50.4</ele>
        <time>2024-02-04T10:14:19Z</time>
      </trkpt>
      <trkpt lat="49.11626" lon="-0.26896">
        <ele>50.4</ele>
        <time>2024-02-04T10:14:20Z</time>
      </trkpt>
      <trkpt lat="49.11624" lon="-0.26882">
        <ele>50.4</ele>
        <time>2024-02-04T10:14:21Z</time>
      </trkpt>
      <trkpt lat="49.11621" lon="-0.26868">
        <ele>50.3</ele>
        <time>2024-02-04T10:14:22Z</time>
      </trkpt>
      <trkpt lat="49.11615" lon="-0.26841">
        <ele>50.3</ele>
        <time>2024-02-04T10:14:24Z</time>
      </trkpt>
      <trkpt lat="49.11613" lon="-0.26827">
        <ele>50.3</ele>
        <time>2024-02-04T10:14:25Z</time>
      </trkpt>
      <trkpt lat="49.1161" lon="-0.26813">
        <ele>50.3</ele>
        <time>2024-02-04T10:14:26Z</time>
      </trkpt>
      <trkpt lat="49.11608" lon="-0.268">
        <ele>50.3</ele>
        <time>2024-02-04T10:14:27Z</time>
      </trkpt>
      <trkpt lat="49.11605" lon="-0.26786">
        <ele>50.3</ele>
        <time>2024-02-04T10:14:28Z</time>
      </trkpt>
      <trkpt lat="49.11602" lon="-0.26772">
        <ele>50.3</ele>
        <time>2024-02-04T10:14:29Z</time>
      </trkpt>
      <trkpt lat="49.116" lon="-0.26759">
        <ele>50.3</ele>
        <time>2024-02-04T10:14:30Z</time>
      </trkpt>
      <trkpt lat="49.11597" lon="-0.26745">
        <ele>50.2</ele>
        <time>2024-02-04T10:14:31Z</time>
      </trkpt>
      <trkpt lat="49.11595" lon="-0.26731">
        <ele>50.1</ele>
        <time>2024-02-04T10:14:32Z</time>
      </trkpt>
      <trkpt lat="49.11593" lon="-0.26717">
        <ele>50</ele>
        <time>2024-02-04T10:14:33Z</time>
      </trkpt>
      <trkpt lat="49.11591" lon="-0.26702">
        <ele>49.9</ele>
        <time>2024-02-04T10:14:34Z</time>
      </trkpt>
      <trkpt lat="49.1159" lon="-0.26688">
        <ele>49.8</ele>
        <time>2024-02-04T10:14:35Z</time>
      </trkpt>
      <trkpt lat="49.11589" lon="-0.26673">
        <ele>49.7</ele>
        <time>2024-02-04T10:14:36Z</time>
      </trkpt>
      <trkpt lat="49.11588" lon="-0.26659">
        <ele>49.6</ele>
        <time>2024-02-04T10:14:37Z</time>
      </trkpt>
      <trkpt lat="49.11588" lon="-0.26645">
        <ele>49.5</ele>
        <time>2024-02-04T10:14:38Z</time>
      </trkpt>
      <trkpt lat="49.11588" lon="-0.26616">
        <ele>49.2</ele>
        <time>2024-02-04T10:14:40Z</time>
      </trkpt>
      <trkpt lat="49.11587" lon="-0.26586">
        <ele>48.9</ele>
        <time>2024-02-04T10:14:42Z</time>
      </trkpt>
      <trkpt lat="49.11587" lon="-0.26571">
        <ele>48.8</ele>
        <time>2024-02-04T10:14:43Z</time>
      </trkpt>
      <trkpt lat="49.11586" lon="-0.26556">
        <ele>48.6</ele>
        <time>2024-02-04T10:14:44Z</time>
      </trkpt>
      <trkpt lat="49.11586" lon="-0.26541">
        <ele>48.5</ele>
        <time>2024-02-04T10:14:45Z</time>
      </trkpt>
      <trkpt lat="49.11586" lon="-0.26526">
        <ele>48.3</ele>
        <time>2024-02-04T10:14:46Z</time>
      </trkpt>
      <trkpt lat="49.11585" lon="-0.26511">
        <ele>48.2</ele>
        <time>2024-02-04T10:14:47Z</time>
      </trkpt>
      <trkpt lat="49.11585" lon="-0.26496">
        <ele>48</ele>
        <time>2024-02-04T10:14:48Z</time>
      </trkpt>
      <trkpt lat="49.11585" lon="-0.26481">
        <ele>47.9</ele>
        <time>2024-02-04T10:14:49Z</time>
      </trkpt>
      <trkpt lat="49.11585" lon="-0.26466">
        <ele>47.8</ele>
        <time>2024-02-04T10:14:50Z</time>
      </trkpt>
      <trkpt lat="49.11584" lon="-0.26451">
        <ele>47.7</ele>
        <time>2024-02-04T10:14:51Z</time>
      </trkpt>
      <trkpt lat="49.11584" lon="-0.26436">
        <ele>47.6</ele>
        <time>2024-02-04T10:14:52Z</time>
      </trkpt>
      <trkpt lat="49.11584" lon="-0.26421">
        <ele>47.4</ele>
        <time>2024-02-04T10:14:53Z</time>
      </trkpt>
      <trkpt lat="49.11583" lon="-0.26406">
        <ele>47.3</ele>
        <time>2024-02-04T10:14:54Z</time>
      </trkpt>
      <trkpt lat="49.11583" lon="-0.26391">
        <ele>47.2</ele>
        <time>2024-02-04T10:14:55Z</time>
      </trkpt>
      <trkpt lat="49.11583" lon="-0.26375">
        <ele>47</ele>
        <time>2024-02-04T10:14:56Z</time>
      </trkpt>
      <trkpt lat="49.11582" lon="-0.2636">
        <ele>46.9</ele>
        <time>2024-02-04T10:14:57Z</time>
      </trkpt>
      <trkpt lat="49.11582" lon="-0.26345">
        <ele>46.8</ele>
        <time>2024-02-04T10:14:58Z</time>
      </trkpt>
      <trkpt lat="49.11582" lon="-0.26329">
        <ele>46.7</ele>
        <time>2024-02-04T10:14:59Z</time>
      </trkpt>
      <trkpt lat="49.11582" lon="-0.26298">
        <ele>46.5</ele>
        <time>2024-02-04T10:15:01Z</time>
      </trkpt>
      <trkpt lat="49.11582" lon="-0.26282">
        <ele>46.4</ele>
        <time>2024-02-04T10:15:02Z</time>
      </trkpt>
      <trkpt lat="49.11581" lon="-0.26266">
        <ele>46.3</ele>
        <time>2024-02-04T10:15:03Z</time>
      </trkpt>
      <trkpt lat="49.11581" lon="-0.26251">
        <ele>46.2</ele>
        <time>2024-02-04T10:15:04Z</time>
      </trkpt>
      <trkpt lat="49.1158" lon="-0.26235">
        <ele>46.1</ele>
        <time>2024-02-04T10:15:05Z</time>
      </trkpt>
      <trkpt lat="49.1158" lon="-0.26219">
        <ele>45.9</ele>
        <time>2024-02-04T10:15:06Z</time>
      </trkpt>
      <trkpt lat="49.1158" lon="-0.26202">
        <ele>45.8</ele>
        <time>2024-02-04T10:15:07Z</time>
      </trkpt>
      <trkpt lat="49.11579" lon="-0.26186">
        <ele>45.6</ele>
        <time>2024-02-04T10:15:08Z</time>
      </trkpt>
      <trkpt lat="49.11579" lon="-0.2617">
        <ele>45.4</ele>
        <time>2024-02-04T10:15:09Z</time>
      </trkpt>
      <trkpt lat="49.11578" lon="-0.26153">
        <ele>45.3</ele>
        <time>2024-02-04T10:15:10Z</time>
      </trkpt>
      <trkpt lat="49.11578" lon="-0.26137">
        <ele>45.2</ele>
        <time>2024-02-04T10:15:11Z</time>
      </trkpt>
      <trkpt lat="49.11577" lon="-0.2612">
        <ele>45</ele>
        <time>2024-02-04T10:15:12Z</time>
      </trkpt>
      <trkpt lat="49.11577" lon="-0.26103">
        <ele>44.9</ele>
        <time>2024-02-04T10:15:13Z</time>
      </trkpt>
      <trkpt lat="49.11577" lon="-0.26086">
        <ele>44.8</ele>
        <time>2024-02-04T10:15:14Z</time>
      </trkpt>
      <trkpt lat="49.11577" lon="-0.26069">
        <ele>44.7</ele>
        <time>2024-02-04T10:15:15Z</time>
      </trkpt>
      <trkpt lat="49.11577" lon="-0.26053">
        <ele>44.7</ele>
        <time>2024-02-04T10:15:16Z</time>
      </trkpt>
      <trkpt lat="49.11578" lon="-0.26037">
        <ele>44.7</ele>
        <time>2024-02-04T10:15:17Z</time>
      </trkpt>
      <trkpt lat="49.11579" lon="-0.26021">
        <ele>44.7</ele>
        <time>2024-02-04T10:15:18Z</time>
      </trkpt>
      <trkpt lat="49.11579" lon="-0.26005">
        <ele>44.8</ele>
        <time>2024-02-04T10:15:19Z</time>
      </trkpt>
      <trkpt lat="49.1158" lon="-0.25989">
        <ele>44.9</ele>
        <time>2024-02-04T10:15:20Z</time>
      </trkpt>
      <trkpt lat="49.1158" lon="-0.25974">
        <ele>44.9</ele>
        <time>2024-02-04T10:15:21Z</time>
      </trkpt>
      <trkpt lat="49.11581" lon="-0.25958">
        <ele>45</ele>
        <time>2024-02-04T10:15:22Z</time>
      </trkpt>
      <trkpt lat="49.11582" lon="-0.25943">
        <ele>45</ele>
        <time>2024-02-04T10:15:23Z</time>
      </trkpt>
      <trkpt lat="49.11582" lon="-0.25928">
        <ele>45.1</ele>
        <time>2024-02-04T10:15:24Z</time>
      </trkpt>
      <trkpt lat="49.11583" lon="-0.25913">
        <ele>45.1</ele>
        <time>2024-02-04T10:15:25Z</time>
      </trkpt>
      <trkpt lat="49.11584" lon="-0.25898">
        <ele>45.2</ele>
        <time>2024-02-04T10:15:26Z</time>
      </trkpt>
      <trkpt lat="49.11584" lon="-0.25882">
        <ele>45.2</ele>
        <time>2024-02-04T10:15:27Z</time>
      </trkpt>
      <trkpt lat="49.11585" lon="-0.25868">
        <ele>45.2</ele>
        <time>2024-02-04T10:15:28Z</time>
      </trkpt>
      <trkpt lat="49.11585" lon="-0.25852">
        <ele>45.3</ele>
        <time>2024-02-04T10:15:29Z</time>
      </trkpt>
      <trkpt lat="49.11586" lon="-0.25838">
        <ele>45.3</ele>
        <time>2024-02-04T10:15:30Z</time>
      </trkpt>
      <trkpt lat="49.11587" lon="-0.25823">
        <ele>45.3</ele>
        <time>2024-02-04T10:15:31Z</time>
      </trkpt>
      <trkpt lat="49.11587" lon="-0.25809">
        <ele>45.3</ele>
        <time>2024-02-04T10:15:32Z</time>
      </trkpt>
      <trkpt lat="49.11588" lon="-0.25795">
        <ele>45.3</ele>
        <time>2024-02-04T10:15:33Z</time>
      </trkpt>
      <trkpt lat="49.11589" lon="-0.25781">
        <ele>45.3</ele>
        <time>2024-02-04T10:15:34Z</time>
      </trkpt>
      <trkpt lat="49.1159" lon="-0.25766">
        <ele>45.3</ele>
        <time>2024-02-04T10:15:35Z</time>
      </trkpt>
      <trkpt lat="49.1159" lon="-0.25751">
        <ele>45.4</ele>
        <time>2024-02-04T10:15:36Z</time>
      </trkpt>
      <trkpt lat="49.11591" lon="-0.25737">
        <ele>45.4</ele>
        <time>2024-02-04T10:15:37Z</time>
      </trkpt>
      <trkpt lat="49.11592" lon="-0.25722">
        <ele>45.4</ele>
        <time>2024-02-04T10:15:38Z</time>
      </trkpt>
      <trkpt lat="49.11593" lon="-0.25708">
        <ele>45.4</ele>
        <time>2024-02-04T10:15:39Z</time>
      </trkpt>
      <trkpt lat="49.11594" lon="-0.25694">
        <ele>45.4</ele>
        <time>2024-02-04T10:15:40Z</time>
      </trkpt>
      <trkpt lat="49.11595" lon="-0.25679">
        <ele>45.4</ele>
        <time>2024-02-04T10:15:41Z</time>
      </trkpt>
      <trkpt lat="49.11595" lon="-0.25665">
        <ele>45.5</ele>
        <time>2024-02-04T10:15:42Z</time>
      </trkpt>
      <trkpt lat="49.11596" lon="-0.25651">
        <ele>45.5</ele>
        <time>2024-02-04T10:15:43Z</time>
      </trkpt>
      <trkpt lat="49.11597" lon="-0.25636">
        <ele>45.5</ele>
        <time>2024-02-04T10:15:44Z</time>
      </trkpt>
      <trkpt lat="49.11597" lon="-0.25621">
        <ele>45.5</ele>
        <time>2024-02-04T10:15:45Z</time>
      </trkpt>
      <trkpt lat="49.11598" lon="-0.25606">
        <ele>45.5</ele>
        <time>2024-02-04T10:15:46Z</time>
      </trkpt>
      <trkpt lat="49.11599" lon="-0.25591">
        <ele>45.5</ele>
        <time>2024-02-04T10:15:47Z</time>
      </trkpt>
      <trkpt lat="49.116" lon="-0.25576">
        <ele>45.5</ele>
        <time>2024-02-04T10:15:48Z</time>
      </trkpt>
      <trkpt lat="49.116" lon="-0.25562">
        <ele>45.5</ele>
        <time>2024-02-04T10:15:49Z</time>
      </trkpt>
      <trkpt lat="49.11601" lon="-0.25547">
        <ele>45.6</ele>
        <time>2024-02-04T10:15:50Z</time>
      </trkpt>
      <trkpt lat="49.11602" lon="-0.25533">
        <ele>45.6</ele>
        <time>2024-02-04T10:15:51Z</time>
      </trkpt>
      <trkpt lat="49.11603" lon="-0.25519">
        <ele>45.6</ele>
        <time>2024-02-04T10:15:52Z</time>
      </trkpt>
      <trkpt lat="49.11604" lon="-0.25505">
        <ele>45.6</ele>
        <time>2024-02-04T10:15:53Z</time>
      </trkpt>
      <trkpt lat="49.11604" lon="-0.2549">
        <ele>45.6</ele>
        <time>2024-02-04T10:15:54Z</time>
      </trkpt>
      <trkpt lat="49.11605" lon="-0.25476">
        <ele>45.6</ele>
        <time>2024-02-04T10:15:55Z</time>
      </trkpt>
      <trkpt lat="49.11606" lon="-0.25461">
        <ele>45.6</ele>
        <time>2024-02-04T10:15:56Z</time>
      </trkpt>
      <trkpt lat="49.11607" lon="-0.25446">
        <ele>45.5</ele>
        <time>2024-02-04T10:15:57Z</time>
      </trkpt>
      <trkpt lat="49.11607" lon="-0.25432">
        <ele>45.5</ele>
        <time>2024-02-04T10:15:58Z</time>
      </trkpt>
      <trkpt lat="49.11608" lon="-0.25418">
        <ele>45.4</ele>
        <time>2024-02-04T10:15:59Z</time>
      </trkpt>
      <trkpt lat="49.11609" lon="-0.25403">
        <ele>45.4</ele>
        <time>2024-02-04T10:16:00Z</time>
      </trkpt>
      <trkpt lat="49.11609" lon="-0.25388">
        <ele>45.3</ele>
        <time>2024-02-04T10:16:01Z</time>
      </trkpt>
      <trkpt lat="49.1161" lon="-0.25373">
        <ele>45.3</ele>
        <time>2024-02-04T10:16:02Z</time>
      </trkpt>
      <trkpt lat="49.1161" lon="-0.25358">
        <ele>45.2</ele>
        <time>2024-02-04T10:16:03Z</time>
      </trkpt>
      <trkpt lat="49.11611" lon="-0.25344">
        <ele>45.2</ele>
        <time>2024-02-04T10:16:04Z</time>
      </trkpt>
      <trkpt lat="49.11612" lon="-0.25329">
        <ele>45.1</ele>
        <time>2024-02-04T10:16:05Z</time>
      </trkpt>
      <trkpt lat="49.11612" lon="-0.25314">
        <ele>45.1</ele>
        <time>2024-02-04T10:16:06Z</time>
      </trkpt>
      <trkpt lat="49.11611" lon="-0.25299">
        <ele>45.1</ele>
        <time>2024-02-04T10:16:07Z</time>
      </trkpt>
      <trkpt lat="49.11611" lon="-0.25284">
        <ele>45.1</ele>
        <time>2024-02-04T10:16:08Z</time>
      </trkpt>
      <trkpt lat="49.11611" lon="-0.25268">
        <ele>45</ele>
        <time>2024-02-04T10:16:09Z</time>
      </trkpt>
      <trkpt lat="49.11611" lon="-0.25253">
        <ele>45</ele>
        <time>2024-02-04T10:16:10Z</time>
      </trkpt>
      <trkpt lat="49.11611" lon="-0.25238">
        <ele>44.9</ele>
        <time>2024-02-04T10:16:11Z</time>
      </trkpt>
      <trkpt lat="49.11612" lon="-0.25223">
        <ele>44.9</ele>
        <time>2024-02-04T10:16:12Z</time>
      </trkpt>
      <trkpt lat="49.11613" lon="-0.25207">
        <ele>44.9</ele>
        <time>2024-02-04T10:16:13Z</time>
      </trkpt>
      <trkpt lat="49.11614" lon="-0.25192">
        <ele>44.9</ele>
        <time>2024-02-04T10:16:14Z</time>
      </trkpt>
      <trkpt lat="49.11615" lon="-0.25176">
        <ele>44.8</ele>
        <time>2024-02-04T10:16:15Z</time>
      </trkpt>
      <trkpt lat="49.11616" lon="-0.25161">
        <ele>44.8</ele>
        <time>2024-02-04T10:16:16Z</time>
      </trkpt>
      <trkpt lat="49.11617" lon="-0.25145">
        <ele>44.8</ele>
        <time>2024-02-04T10:16:17Z</time>
      </trkpt>
      <trkpt lat="49.11617" lon="-0.2513">
        <ele>44.8</ele>
        <time>2024-02-04T10:16:18Z</time>
      </trkpt>
      <trkpt lat="49.11618" lon="-0.25114">
        <ele>44.8</ele>
        <time>2024-02-04T10:16:19Z</time>
      </trkpt>
      <trkpt lat="49.1162" lon="-0.25099">
        <ele>44.7</ele>
        <time>2024-02-04T10:16:20Z</time>
      </trkpt>
      <trkpt lat="49.11621" lon="-0.25084">
        <ele>44.7</ele>
        <time>2024-02-04T10:16:21Z</time>
      </trkpt>
      <trkpt lat="49.11623" lon="-0.25068">
        <ele>44.7</ele>
        <time>2024-02-04T10:16:22Z</time>
      </trkpt>
      <trkpt lat="49.11624" lon="-0.25053">
        <ele>44.7</ele>
        <time>2024-02-04T10:16:23Z</time>
      </trkpt>
      <trkpt lat="49.11626" lon="-0.25037">
        <ele>44.6</ele>
        <time>2024-02-04T10:16:24Z</time>
      </trkpt>
      <trkpt lat="49.11627" lon="-0.25021">
        <ele>44.6</ele>
        <time>2024-02-04T10:16:25Z</time>
      </trkpt>
      <trkpt lat="49.11627" lon="-0.25005">
        <ele>44.6</ele>
        <time>2024-02-04T10:16:26Z</time>
      </trkpt>
      <trkpt lat="49.11628" lon="-0.24989">
        <ele>44.6</ele>
        <time>2024-02-04T10:16:27Z</time>
      </trkpt>
      <trkpt lat="49.11629" lon="-0.24973">
        <ele>44.5</ele>
        <time>2024-02-04T10:16:28Z</time>
      </trkpt>
      <trkpt lat="49.1163" lon="-0.24958">
        <ele>44.5</ele>
        <time>2024-02-04T10:16:29Z</time>
      </trkpt>
      <trkpt lat="49.11631" lon="-0.24942">
        <ele>44.5</ele>
        <time>2024-02-04T10:16:30Z</time>
      </trkpt>
      <trkpt lat="49.11632" lon="-0.24926">
        <ele>44.5</ele>
        <time>2024-02-04T10:16:31Z</time>
      </trkpt>
      <trkpt lat="49.11633" lon="-0.2491">
        <ele>44.4</ele>
        <time>2024-02-04T10:16:32Z</time>
      </trkpt>
      <trkpt lat="49.11634" lon="-0.24895">
        <ele>44.3</ele>
        <time>2024-02-04T10:16:33Z</time>
      </trkpt>
      <trkpt lat="49.11635" lon="-0.24879">
        <ele>44.2</ele>
        <time>2024-02-04T10:16:34Z</time>
      </trkpt>
      <trkpt lat="49.11636" lon="-0.24863">
        <ele>44.1</ele>
        <time>2024-02-04T10:16:35Z</time>
      </trkpt>
      <trkpt lat="49.11636" lon="-0.24847">
        <ele>43.9</ele>
        <time>2024-02-04T10:16:36Z</time>
      </trkpt>
      <trkpt lat="49.11637" lon="-0.24831">
        <ele>43.8</ele>
        <time>2024-02-04T10:16:37Z</time>
      </trkpt>
      <trkpt lat="49.11638" lon="-0.24815">
        <ele>43.7</ele>
        <time>2024-02-04T10:16:38Z</time>
      </trkpt>
      <trkpt lat="49.11639" lon="-0.248">
        <ele>43.5</ele>
        <time>2024-02-04T10:16:39Z</time>
      </trkpt>
      <trkpt lat="49.1164" lon="-0.24784">
        <ele>43.4</ele>
        <time>2024-02-04T10:16:40Z</time>
      </trkpt>
      <trkpt lat="49.11641" lon="-0.24767">
        <ele>43.1</ele>
        <time>2024-02-04T10:16:41Z</time>
      </trkpt>
      <trkpt lat="49.11641" lon="-0.24751">
        <ele>43.1</ele>
        <time>2024-02-04T10:16:42Z</time>
      </trkpt>
      <trkpt lat="49.11642" lon="-0.24735">
        <ele>43</ele>
        <time>2024-02-04T10:16:43Z</time>
      </trkpt>
      <trkpt lat="49.11643" lon="-0.24718">
        <ele>42.9</ele>
        <time>2024-02-04T10:16:44Z</time>
      </trkpt>
      <trkpt lat="49.11644" lon="-0.24702">
        <ele>42.7</ele>
        <time>2024-02-04T10:16:45Z</time>
      </trkpt>
      <trkpt lat="49.11644" lon="-0.24686">
        <ele>42.6</ele>
        <time>2024-02-04T10:16:46Z</time>
      </trkpt>
      <trkpt lat="49.11645" lon="-0.24671">
        <ele>42.5</ele>
        <time>2024-02-04T10:16:47Z</time>
      </trkpt>
      <trkpt lat="49.11646" lon="-0.24655">
        <ele>42.3</ele>
        <time>2024-02-04T10:16:48Z</time>
      </trkpt>
      <trkpt lat="49.11647" lon="-0.2464">
        <ele>42.2</ele>
        <time>2024-02-04T10:16:49Z</time>
      </trkpt>
      <trkpt lat="49.11647" lon="-0.24625">
        <ele>42.2</ele>
        <time>2024-02-04T10:16:50Z</time>
      </trkpt>
      <trkpt lat="49.11648" lon="-0.2461">
        <ele>42.1</ele>
        <time>2024-02-04T10:16:51Z</time>
      </trkpt>
      <trkpt lat="49.11649" lon="-0.24595">
        <ele>42.1</ele>
        <time>2024-02-04T10:16:52Z</time>
      </trkpt>
      <trkpt lat="49.1165" lon="-0.2458">
        <ele>42.1</ele>
        <time>2024-02-04T10:16:53Z</time>
      </trkpt>
      <trkpt lat="49.11651" lon="-0.24564">
        <ele>42.1</ele>
        <time>2024-02-04T10:16:54Z</time>
      </trkpt>
      <trkpt lat="49.11652" lon="-0.24549">
        <ele>42.1</ele>
        <time>2024-02-04T10:16:55Z</time>
      </trkpt>
      <trkpt lat="49.11652" lon="-0.24533">
        <ele>42.1</ele>
        <time>2024-02-04T10:16:56Z</time>
      </trkpt>
      <trkpt lat="49.11653" lon="-0.24517">
        <ele>42.1</ele>
        <time>2024-02-04T10:16:57Z</time>
      </trkpt>
      <trkpt lat="49.11654" lon="-0.24502">
        <ele>42.1</ele>
        <time>2024-02-04T10:16:58Z</time>
      </trkpt>
      <trkpt lat="49.11655" lon="-0.24485">
        <ele>42.1</ele>
        <time>2024-02-04T10:16:59Z</time>
      </trkpt>
      <trkpt lat="49.11655" lon="-0.24469">
        <ele>42.2</ele>
        <time>2024-02-04T10:17:00Z</time>
      </trkpt>
      <trkpt lat="49.11656" lon="-0.24453">
        <ele>42.2</ele>
        <time>2024-02-04T10:17:01Z</time>
      </trkpt>
      <trkpt lat="49.11657" lon="-0.24438">
        <ele>42.2</ele>
        <time>2024-02-04T10:17:02Z</time>
      </trkpt>
      <trkpt lat="49.11658" lon="-0.24423">
        <ele>42.2</ele>
        <time>2024-02-04T10:17:03Z</time>
      </trkpt>
      <trkpt lat="49.11659" lon="-0.24407">
        <ele>42.2</ele>
        <time>2024-02-04T10:17:04Z</time>
      </trkpt>
      <trkpt lat="49.1166" lon="-0.24391">
        <ele>42.2</ele>
        <time>2024-02-04T10:17:05Z</time>
      </trkpt>
      <trkpt lat="49.1166" lon="-0.24375">
        <ele>42.2</ele>
        <time>2024-02-04T10:17:06Z</time>
      </trkpt>
      <trkpt lat="49.11662" lon="-0.2436">
        <ele>42.2</ele>
        <time>2024-02-04T10:17:07Z</time>
      </trkpt>
      <trkpt lat="49.11663" lon="-0.24344">
        <ele>42.1</ele>
        <time>2024-02-04T10:17:08Z</time>
      </trkpt>
      <trkpt lat="49.11664" lon="-0.24328">
        <ele>42</ele>
        <time>2024-02-04T10:17:09Z</time>
      </trkpt>
      <trkpt lat="49.11666" lon="-0.24313">
        <ele>41.9</ele>
        <time>2024-02-04T10:17:10Z</time>
      </trkpt>
      <trkpt lat="49.11669" lon="-0.24297">
        <ele>41.9</ele>
        <time>2024-02-04T10:17:11Z</time>
      </trkpt>
      <trkpt lat="49.11671" lon="-0.24282">
        <ele>41.7</ele>
        <time>2024-02-04T10:17:12Z</time>
      </trkpt>
      <trkpt lat="49.11674" lon="-0.24267">
        <ele>41.6</ele>
        <time>2024-02-04T10:17:13Z</time>
      </trkpt>
      <trkpt lat="49.11676" lon="-0.24252">
        <ele>41.5</ele>
        <time>2024-02-04T10:17:14Z</time>
      </trkpt>
      <trkpt lat="49.11679" lon="-0.24237">
        <ele>41.4</ele>
        <time>2024-02-04T10:17:15Z</time>
      </trkpt>
      <trkpt lat="49.11682" lon="-0.24222">
        <ele>41.2</ele>
        <time>2024-02-04T10:17:16Z</time>
      </trkpt>
      <trkpt lat="49.11685" lon="-0.24206">
        <ele>41</ele>
        <time>2024-02-04T10:17:17Z</time>
      </trkpt>
      <trkpt lat="49.11687" lon="-0.24191">
        <ele>40.9</ele>
        <time>2024-02-04T10:17:18Z</time>
      </trkpt>
      <trkpt lat="49.1169" lon="-0.24175">
        <ele>40.7</ele>
        <time>2024-02-04T10:17:19Z</time>
      </trkpt>
      <trkpt lat="49.11692" lon="-0.24159">
        <ele>40.6</ele>
        <time>2024-02-04T10:17:20Z</time>
      </trkpt>
      <trkpt lat="49.11695" lon="-0.24143">
        <ele>40.4</ele>
        <time>2024-02-04T10:17:21Z</time>
      </trkpt>
      <trkpt lat="49.11697" lon="-0.24127">
        <ele>40.2</ele>
        <time>2024-02-04T10:17:22Z</time>
      </trkpt>
      <trkpt lat="49.117" lon="-0.24111">
        <ele>40</ele>
        <time>2024-02-04T10:17:23Z</time>
      </trkpt>
      <trkpt lat="49.11703" lon="-0.24095">
        <ele>39.9</ele>
        <time>2024-02-04T10:17:24Z</time>
      </trkpt>
      <trkpt lat="49.11705" lon="-0.2408">
        <ele>39.7</ele>
        <time>2024-02-04T10:17:25Z</time>
      </trkpt>
      <trkpt lat="49.11708" lon="-0.24064">
        <ele>39.6</ele>
        <time>2024-02-04T10:17:26Z</time>
      </trkpt>
      <trkpt lat="49.1171" lon="-0.24048">
        <ele>39.4</ele>
        <time>2024-02-04T10:17:27Z</time>
      </trkpt>
      <trkpt lat="49.11713" lon="-0.24033">
        <ele>39.3</ele>
        <time>2024-02-04T10:17:28Z</time>
      </trkpt>
      <trkpt lat="49.11715" lon="-0.24018">
        <ele>39.2</ele>
        <time>2024-02-04T10:17:29Z</time>
      </trkpt>
      <trkpt lat="49.11718" lon="-0.24002">
        <ele>39.2</ele>
        <time>2024-02-04T10:17:30Z</time>
      </trkpt>
      <trkpt lat="49.11721" lon="-0.23987">
        <ele>39.2</ele>
        <time>2024-02-04T10:17:31Z</time>
      </trkpt>
      <trkpt lat="49.11723" lon="-0.23972">
        <ele>39.1</ele>
        <time>2024-02-04T10:17:32Z</time>
      </trkpt>
      <trkpt lat="49.11726" lon="-0.23955">
        <ele>39.1</ele>
        <time>2024-02-04T10:17:33Z</time>
      </trkpt>
      <trkpt lat="49.11728" lon="-0.2394">
        <ele>39.1</ele>
        <time>2024-02-04T10:17:34Z</time>
      </trkpt>
      <trkpt lat="49.1173" lon="-0.23924">
        <ele>39.1</ele>
        <time>2024-02-04T10:17:35Z</time>
      </trkpt>
      <trkpt lat="49.11733" lon="-0.2391">
        <ele>39.1</ele>
        <time>2024-02-04T10:17:36Z</time>
      </trkpt>
      <trkpt lat="49.11735" lon="-0.23896">
        <ele>39.1</ele>
        <time>2024-02-04T10:17:37Z</time>
      </trkpt>
      <trkpt lat="49.11738" lon="-0.23882">
        <ele>39.1</ele>
        <time>2024-02-04T10:17:38Z</time>
      </trkpt>
      <trkpt lat="49.1174" lon="-0.23868">
        <ele>39.2</ele>
        <time>2024-02-04T10:17:39Z</time>
      </trkpt>
      <trkpt lat="49.11743" lon="-0.23853">
        <ele>39.2</ele>
        <time>2024-02-04T10:17:40Z</time>
      </trkpt>
      <trkpt lat="49.11745" lon="-0.23839">
        <ele>39.2</ele>
        <time>2024-02-04T10:17:41Z</time>
      </trkpt>
      <trkpt lat="49.11748" lon="-0.23825">
        <ele>39.3</ele>
        <time>2024-02-04T10:17:42Z</time>
      </trkpt>
      <trkpt lat="49.11751" lon="-0.2381">
        <ele>39.5</ele>
        <time>2024-02-04T10:17:43Z</time>
      </trkpt>
      <trkpt lat="49.11753" lon="-0.23796">
        <ele>39.5</ele>
        <time>2024-02-04T10:17:44Z</time>
      </trkpt>
      <trkpt lat="49.11756" lon="-0.23781">
        <ele>39.5</ele>
        <time>2024-02-04T10:17:45Z</time>
      </trkpt>
      <trkpt lat="49.11758" lon="-0.23766">
        <ele>39.5</ele>
        <time>2024-02-04T10:17:46Z</time>
      </trkpt>
      <trkpt lat="49.11761" lon="-0.23752">
        <ele>39.5</ele>
        <time>2024-02-04T10:17:47Z</time>
      </trkpt>
      <trkpt lat="49.11763" lon="-0.23737">
        <ele>39.5</ele>
        <time>2024-02-04T10:17:48Z</time>
      </trkpt>
      <trkpt lat="49.11766" lon="-0.23722">
        <ele>39.6</ele>
        <time>2024-02-04T10:17:49Z</time>
      </trkpt>
      <trkpt lat="49.11768" lon="-0.23708">
        <ele>39.5</ele>
        <time>2024-02-04T10:17:50Z</time>
      </trkpt>
      <trkpt lat="49.11771" lon="-0.23693">
        <ele>39.5</ele>
        <time>2024-02-04T10:17:51Z</time>
      </trkpt>
      <trkpt lat="49.11774" lon="-0.23678">
        <ele>39.5</ele>
        <time>2024-02-04T10:17:52Z</time>
      </trkpt>
      <trkpt lat="49.11776" lon="-0.23663">
        <ele>39.5</ele>
        <time>2024-02-04T10:17:53Z</time>
      </trkpt>
      <trkpt lat="49.11779" lon="-0.23648">
        <ele>39.5</ele>
        <time>2024-02-04T10:17:54Z</time>
      </trkpt>
      <trkpt lat="49.11782" lon="-0.23633">
        <ele>39.5</ele>
        <time>2024-02-04T10:17:55Z</time>
      </trkpt>
      <trkpt lat="49.11784" lon="-0.23619">
        <ele>39.4</ele>
        <time>2024-02-04T10:17:56Z</time>
      </trkpt>
      <trkpt lat="49.11787" lon="-0.23604">
        <ele>39.4</ele>
        <time>2024-02-04T10:17:57Z</time>
      </trkpt>
      <trkpt lat="49.11789" lon="-0.2359">
        <ele>39.3</ele>
        <time>2024-02-04T10:17:58Z</time>
      </trkpt>
      <trkpt lat="49.11792" lon="-0.23575">
        <ele>39.3</ele>
        <time>2024-02-04T10:17:59Z</time>
      </trkpt>
      <trkpt lat="49.11794" lon="-0.2356">
        <ele>39.2</ele>
        <time>2024-02-04T10:18:00Z</time>
      </trkpt>
      <trkpt lat="49.11797" lon="-0.23546">
        <ele>39.2</ele>
        <time>2024-02-04T10:18:01Z</time>
      </trkpt>
      <trkpt lat="49.11799" lon="-0.23531">
        <ele>39.1</ele>
        <time>2024-02-04T10:18:02Z</time>
      </trkpt>
      <trkpt lat="49.11802" lon="-0.23517">
        <ele>39</ele>
        <time>2024-02-04T10:18:03Z</time>
      </trkpt>
      <trkpt lat="49.11804" lon="-0.23502">
        <ele>38.9</ele>
        <time>2024-02-04T10:18:04Z</time>
      </trkpt>
      <trkpt lat="49.11807" lon="-0.23487">
        <ele>38.8</ele>
        <time>2024-02-04T10:18:05Z</time>
      </trkpt>
      <trkpt lat="49.11809" lon="-0.23473">
        <ele>38.7</ele>
        <time>2024-02-04T10:18:06Z</time>
      </trkpt>
      <trkpt lat="49.11811" lon="-0.23458">
        <ele>38.7</ele>
        <time>2024-02-04T10:18:07Z</time>
      </trkpt>
      <trkpt lat="49.11814" lon="-0.23444">
        <ele>38.6</ele>
        <time>2024-02-04T10:18:08Z</time>
      </trkpt>
      <trkpt lat="49.11816" lon="-0.2343">
        <ele>38.5</ele>
        <time>2024-02-04T10:18:09Z</time>
      </trkpt>
      <trkpt lat="49.11818" lon="-0.23415">
        <ele>38.4</ele>
        <time>2024-02-04T10:18:10Z</time>
      </trkpt>
      <trkpt lat="49.11821" lon="-0.234">
        <ele>38.3</ele>
        <time>2024-02-04T10:18:11Z</time>
      </trkpt>
      <trkpt lat="49.11823" lon="-0.23385">
        <ele>38.2</ele>
        <time>2024-02-04T10:18:12Z</time>
      </trkpt>
      <trkpt lat="49.11826" lon="-0.2337">
        <ele>38.1</ele>
        <time>2024-02-04T10:18:13Z</time>
      </trkpt>
      <trkpt lat="49.11828" lon="-0.23356">
        <ele>38</ele>
        <time>2024-02-04T10:18:14Z</time>
      </trkpt>
      <trkpt lat="49.1183" lon="-0.23341">
        <ele>37.9</ele>
        <time>2024-02-04T10:18:15Z</time>
      </trkpt>
      <trkpt lat="49.11832" lon="-0.23326">
        <ele>37.9</ele>
        <time>2024-02-04T10:18:16Z</time>
      </trkpt>
      <trkpt lat="49.11835" lon="-0.23311">
        <ele>37.7</ele>
        <time>2024-02-04T10:18:17Z</time>
      </trkpt>
      <trkpt lat="49.11838" lon="-0.23296">
        <ele>37.6</ele>
        <time>2024-02-04T10:18:18Z</time>
      </trkpt>
      <trkpt lat="49.11841" lon="-0.23281">
        <ele>37.5</ele>
        <time>2024-02-04T10:18:19Z</time>
      </trkpt>
      <trkpt lat="49.11844" lon="-0.23266">
        <ele>37.3</ele>
        <time>2024-02-04T10:18:20Z</time>
      </trkpt>
      <trkpt lat="49.11848" lon="-0.23252">
        <ele>37.2</ele>
        <time>2024-02-04T10:18:21Z</time>
      </trkpt>
      <trkpt lat="49.11851" lon="-0.23237">
        <ele>37</ele>
        <time>2024-02-04T10:18:22Z</time>
      </trkpt>
      <trkpt lat="49.11854" lon="-0.23222">
        <ele>36.8</ele>
        <time>2024-02-04T10:18:23Z</time>
      </trkpt>
      <trkpt lat="49.11857" lon="-0.23207">
        <ele>36.7</ele>
        <time>2024-02-04T10:18:24Z</time>
      </trkpt>
      <trkpt lat="49.11861" lon="-0.23193">
        <ele>36.5</ele>
        <time>2024-02-04T10:18:25Z</time>
      </trkpt>
      <trkpt lat="49.11864" lon="-0.23178">
        <ele>36.4</ele>
        <time>2024-02-04T10:18:26Z</time>
      </trkpt>
      <trkpt lat="49.11867" lon="-0.23163">
        <ele>36.2</ele>
        <time>2024-02-04T10:18:27Z</time>
      </trkpt>
      <trkpt lat="49.1187" lon="-0.23148">
        <ele>36</ele>
        <time>2024-02-04T10:18:28Z</time>
      </trkpt>
      <trkpt lat="49.11874" lon="-0.23133">
        <ele>35.8</ele>
        <time>2024-02-04T10:18:29Z</time>
      </trkpt>
      <trkpt lat="49.11877" lon="-0.23118">
        <ele>35.7</ele>
        <time>2024-02-04T10:18:30Z</time>
      </trkpt>
      <trkpt lat="49.11879" lon="-0.23102">
        <ele>35.5</ele>
        <time>2024-02-04T10:18:31Z</time>
      </trkpt>
      <trkpt lat="49.11882" lon="-0.23086">
        <ele>35.4</ele>
        <time>2024-02-04T10:18:32Z</time>
      </trkpt>
      <trkpt lat="49.11884" lon="-0.23071">
        <ele>35.2</ele>
        <time>2024-02-04T10:18:33Z</time>
      </trkpt>
      <trkpt lat="49.11885" lon="-0.23055">
        <ele>35.1</ele>
        <time>2024-02-04T10:18:34Z</time>
      </trkpt>
      <trkpt lat="49.11887" lon="-0.23039">
        <ele>34.9</ele>
        <time>2024-02-04T10:18:35Z</time>
      </trkpt>
      <trkpt lat="49.11888" lon="-0.23022">
        <ele>34.8</ele>
        <time>2024-02-04T10:18:36Z</time>
      </trkpt>
      <trkpt lat="49.11889" lon="-0.23006">
        <ele>34.6</ele>
        <time>2024-02-04T10:18:37Z</time>
      </trkpt>
      <trkpt lat="49.1189" lon="-0.22989">
        <ele>34.5</ele>
        <time>2024-02-04T10:18:38Z</time>
      </trkpt>
      <trkpt lat="49.11892" lon="-0.22973">
        <ele>34.3</ele>
        <time>2024-02-04T10:18:39Z</time>
      </trkpt>
      <trkpt lat="49.11893" lon="-0.22957">
        <ele>34.2</ele>
        <time>2024-02-04T10:18:40Z</time>
      </trkpt>
      <trkpt lat="49.11894" lon="-0.2294">
        <ele>34</ele>
        <time>2024-02-04T10:18:41Z</time>
      </trkpt>
      <trkpt lat="49.11895" lon="-0.22924">
        <ele>33.8</ele>
        <time>2024-02-04T10:18:42Z</time>
      </trkpt>
      <trkpt lat="49.11896" lon="-0.22907">
        <ele>33.7</ele>
        <time>2024-02-04T10:18:43Z</time>
      </trkpt>
      <trkpt lat="49.11897" lon="-0.22891">
        <ele>33.6</ele>
        <time>2024-02-04T10:18:44Z</time>
      </trkpt>
      <trkpt lat="49.11899" lon="-0.22859">
        <ele>33.3</ele>
        <time>2024-02-04T10:18:46Z</time>
      </trkpt>
      <trkpt lat="49.119" lon="-0.22842">
        <ele>33.2</ele>
        <time>2024-02-04T10:18:47Z</time>
      </trkpt>
      <trkpt lat="49.11901" lon="-0.22826">
        <ele>33.1</ele>
        <time>2024-02-04T10:18:48Z</time>
      </trkpt>
      <trkpt lat="49.11902" lon="-0.2281">
        <ele>32.9</ele>
        <time>2024-02-04T10:18:49Z</time>
      </trkpt>
      <trkpt lat="49.11903" lon="-0.22793">
        <ele>32.8</ele>
        <time>2024-02-04T10:18:50Z</time>
      </trkpt>
      <trkpt lat="49.11905" lon="-0.22776">
        <ele>32.6</ele>
        <time>2024-02-04T10:18:51Z</time>
      </trkpt>
      <trkpt lat="49.11906" lon="-0.2276">
        <ele>32.5</ele>
        <time>2024-02-04T10:18:52Z</time>
      </trkpt>
      <trkpt lat="49.11907" lon="-0.22743">
        <ele>32.3</ele>
        <time>2024-02-04T10:18:53Z</time>
      </trkpt>
      <trkpt lat="49.11909" lon="-0.2271">
        <ele>32.1</ele>
        <time>2024-02-04T10:18:55Z</time>
      </trkpt>
      <trkpt lat="49.1191" lon="-0.22694">
        <ele>32</ele>
        <time>2024-02-04T10:18:56Z</time>
      </trkpt>
      <trkpt lat="49.11912" lon="-0.22678">
        <ele>31.9</ele>
        <time>2024-02-04T10:18:57Z</time>
      </trkpt>
      <trkpt lat="49.11913" lon="-0.22662">
        <ele>31.9</ele>
        <time>2024-02-04T10:18:58Z</time>
      </trkpt>
      <trkpt lat="49.11916" lon="-0.22646">
        <ele>31.8</ele>
        <time>2024-02-04T10:18:59Z</time>
      </trkpt>
      <trkpt lat="49.11918" lon="-0.22631">
        <ele>31.7</ele>
        <time>2024-02-04T10:19:00Z</time>
      </trkpt>
      <trkpt lat="49.11921" lon="-0.22616">
        <ele>31.6</ele>
        <time>2024-02-04T10:19:01Z</time>
      </trkpt>
      <trkpt lat="49.11924" lon="-0.226">
        <ele>31.6</ele>
        <time>2024-02-04T10:19:02Z</time>
      </trkpt>
      <trkpt lat="49.11928" lon="-0.22586">
        <ele>31.6</ele>
        <time>2024-02-04T10:19:03Z</time>
      </trkpt>
      <trkpt lat="49.11933" lon="-0.22572">
        <ele>31.5</ele>
        <time>2024-02-04T10:19:04Z</time>
      </trkpt>
      <trkpt lat="49.11945" lon="-0.22544">
        <ele>31.4</ele>
        <time>2024-02-04T10:19:06Z</time>
      </trkpt>
      <trkpt lat="49.11951" lon="-0.2253">
        <ele>31.4</ele>
        <time>2024-02-04T10:19:07Z</time>
      </trkpt>
      <trkpt lat="49.11957" lon="-0.22516">
        <ele>31.3</ele>
        <time>2024-02-04T10:19:08Z</time>
      </trkpt>
      <trkpt lat="49.11963" lon="-0.22502">
        <ele>31.3</ele>
        <time>2024-02-04T10:19:09Z</time>
      </trkpt>
      <trkpt lat="49.11969" lon="-0.22488">
        <ele>31.3</ele>
        <time>2024-02-04T10:19:10Z</time>
      </trkpt>
      <trkpt lat="49.11975" lon="-0.22474">
        <ele>31.4</ele>
        <time>2024-02-04T10:19:11Z</time>
      </trkpt>
      <trkpt lat="49.11981" lon="-0.2246">
        <ele>31.4</ele>
        <time>2024-02-04T10:19:12Z</time>
      </trkpt>
      <trkpt lat="49.11987" lon="-0.22446">
        <ele>31.4</ele>
        <time>2024-02-04T10:19:13Z</time>
      </trkpt>
      <trkpt lat="49.11993" lon="-0.22432">
        <ele>31.5</ele>
        <time>2024-02-04T10:19:14Z</time>
      </trkpt>
      <trkpt lat="49.11999" lon="-0.22418">
        <ele>31.4</ele>
        <time>2024-02-04T10:19:15Z</time>
      </trkpt>
      <trkpt lat="49.12005" lon="-0.22405">
        <ele>31.3</ele>
        <time>2024-02-04T10:19:16Z</time>
      </trkpt>
      <trkpt lat="49.12011" lon="-0.22391">
        <ele>31.2</ele>
        <time>2024-02-04T10:19:17Z</time>
      </trkpt>
      <trkpt lat="49.12017" lon="-0.22377">
        <ele>31.1</ele>
        <time>2024-02-04T10:19:18Z</time>
      </trkpt>
      <trkpt lat="49.12022" lon="-0.22364">
        <ele>31</ele>
        <time>2024-02-04T10:19:19Z</time>
      </trkpt>
      <trkpt lat="49.12028" lon="-0.2235">
        <ele>30.9</ele>
        <time>2024-02-04T10:19:20Z</time>
      </trkpt>
      <trkpt lat="49.12033" lon="-0.22337">
        <ele>30.9</ele>
        <time>2024-02-04T10:19:21Z</time>
      </trkpt>
      <trkpt lat="49.12038" lon="-0.22324">
        <ele>30.8</ele>
        <time>2024-02-04T10:19:22Z</time>
      </trkpt>
      <trkpt lat="49.12044" lon="-0.2231">
        <ele>30.6</ele>
        <time>2024-02-04T10:19:23Z</time>
      </trkpt>
      <trkpt lat="49.12049" lon="-0.22296">
        <ele>30.5</ele>
        <time>2024-02-04T10:19:24Z</time>
      </trkpt>
      <trkpt lat="49.12054" lon="-0.22282">
        <ele>30.4</ele>
        <time>2024-02-04T10:19:25Z</time>
      </trkpt>
      <trkpt lat="49.12058" lon="-0.22268">
        <ele>30.4</ele>
        <time>2024-02-04T10:19:26Z</time>
      </trkpt>
      <trkpt lat="49.12063" lon="-0.22254">
        <ele>30.3</ele>
        <time>2024-02-04T10:19:27Z</time>
      </trkpt>
      <trkpt lat="49.12067" lon="-0.22241">
        <ele>30.2</ele>
        <time>2024-02-04T10:19:28Z</time>
      </trkpt>
      <trkpt lat="49.12072" lon="-0.22227">
        <ele>30.1</ele>
        <time>2024-02-04T10:19:29Z</time>
      </trkpt>
      <trkpt lat="49.12077" lon="-0.22213">
        <ele>29.9</ele>
        <time>2024-02-04T10:19:30Z</time>
      </trkpt>
      <trkpt lat="49.12083" lon="-0.22199">
        <ele>29.8</ele>
        <time>2024-02-04T10:19:31Z</time>
      </trkpt>
      <trkpt lat="49.12089" lon="-0.22186">
        <ele>29.7</ele>
        <time>2024-02-04T10:19:32Z</time>
      </trkpt>
      <trkpt lat="49.12096" lon="-0.22173">
        <ele>29.6</ele>
        <time>2024-02-04T10:19:33Z</time>
      </trkpt>
      <trkpt lat="49.12103" lon="-0.2216">
        <ele>29.4</ele>
        <time>2024-02-04T10:19:34Z</time>
      </trkpt>
      <trkpt lat="49.12111" lon="-0.22148">
        <ele>29.3</ele>
        <time>2024-02-04T10:19:35Z</time>
      </trkpt>
      <trkpt lat="49.12119" lon="-0.22137">
        <ele>29.2</ele>
        <time>2024-02-04T10:19:36Z</time>
      </trkpt>
      <trkpt lat="49.12127" lon="-0.22126">
        <ele>29</ele>
        <time>2024-02-04T10:19:37Z</time>
      </trkpt>
      <trkpt lat="49.12135" lon="-0.22116">
        <ele>28.9</ele>
        <time>2024-02-04T10:19:38Z</time>
      </trkpt>
      <trkpt lat="49.12144" lon="-0.22107">
        <ele>28.8</ele>
        <time>2024-02-04T10:19:39Z</time>
      </trkpt>
      <trkpt lat="49.12152" lon="-0.22099">
        <ele>28.6</ele>
        <time>2024-02-04T10:19:40Z</time>
      </trkpt>
      <trkpt lat="49.12162" lon="-0.2209">
        <ele>28.5</ele>
        <time>2024-02-04T10:19:41Z</time>
      </trkpt>
      <trkpt lat="49.12171" lon="-0.22083">
        <ele>28.3</ele>
        <time>2024-02-04T10:19:42Z</time>
      </trkpt>
      <trkpt lat="49.12181" lon="-0.22076">
        <ele>28.2</ele>
        <time>2024-02-04T10:19:43Z</time>
      </trkpt>
      <trkpt lat="49.1219" lon="-0.22071">
        <ele>28.1</ele>
        <time>2024-02-04T10:19:44Z</time>
      </trkpt>
      <trkpt lat="49.122" lon="-0.22066">
        <ele>28</ele>
        <time>2024-02-04T10:19:45Z</time>
      </trkpt>
      <trkpt lat="49.1221" lon="-0.22061">
        <ele>27.8</ele>
        <time>2024-02-04T10:19:46Z</time>
      </trkpt>
      <trkpt lat="49.12221" lon="-0.22058">
        <ele>27.7</ele>
        <time>2024-02-04T10:19:47Z</time>
      </trkpt>
      <trkpt lat="49.12231" lon="-0.22055">
        <ele>27.6</ele>
        <time>2024-02-04T10:19:48Z</time>
      </trkpt>
      <trkpt lat="49.12242" lon="-0.22053">
        <ele>27.5</ele>
        <time>2024-02-04T10:19:49Z</time>
      </trkpt>
      <trkpt lat="49.12252" lon="-0.22051">
        <ele>27.4</ele>
        <time>2024-02-04T10:19:50Z</time>
      </trkpt>
      <trkpt lat="49.12262" lon="-0.2205">
        <ele>27.3</ele>
        <time>2024-02-04T10:19:51Z</time>
      </trkpt>
      <trkpt lat="49.12272" lon="-0.22049">
        <ele>27.2</ele>
        <time>2024-02-04T10:19:52Z</time>
      </trkpt>
      <trkpt lat="49.12282" lon="-0.22049">
        <ele>27.1</ele>
        <time>2024-02-04T10:19:53Z</time>
      </trkpt>
      <trkpt lat="49.12293" lon="-0.22048">
        <ele>27</ele>
        <time>2024-02-04T10:19:54Z</time>
      </trkpt>
      <trkpt lat="49.12303" lon="-0.22048">
        <ele>26.9</ele>
        <time>2024-02-04T10:19:55Z</time>
      </trkpt>
      <trkpt lat="49.12313" lon="-0.22048">
        <ele>26.8</ele>
        <time>2024-02-04T10:19:56Z</time>
      </trkpt>
      <trkpt lat="49.12324" lon="-0.22047">
        <ele>26.8</ele>
        <time>2024-02-04T10:19:57Z</time>
      </trkpt>
      <trkpt lat="49.12334" lon="-0.22047">
        <ele>26.7</ele>
        <time>2024-02-04T10:19:58Z</time>
      </trkpt>
      <trkpt lat="49.12344" lon="-0.22047">
        <ele>26.7</ele>
        <time>2024-02-04T10:19:59Z</time>
      </trkpt>
      <trkpt lat="49.12354" lon="-0.22047">
        <ele>26.8</ele>
        <time>2024-02-04T10:20:00Z</time>
      </trkpt>
      <trkpt lat="49.12365" lon="-0.22047">
        <ele>26.9</ele>
        <time>2024-02-04T10:20:01Z</time>
      </trkpt>
      <trkpt lat="49.12375" lon="-0.22046">
        <ele>27</ele>
        <time>2024-02-04T10:20:02Z</time>
      </trkpt>
      <trkpt lat="49.12385" lon="-0.22045">
        <ele>27.3</ele>
        <time>2024-02-04T10:20:03Z</time>
      </trkpt>
      <trkpt lat="49.12395" lon="-0.22043">
        <ele>27.6</ele>
        <time>2024-02-04T10:20:04Z</time>
      </trkpt>
      <trkpt lat="49.12404" lon="-0.2204">
        <ele>27.9</ele>
        <time>2024-02-04T10:20:05Z</time>
      </trkpt>
      <trkpt lat="49.12413" lon="-0.22036">
        <ele>28.2</ele>
        <time>2024-02-04T10:20:06Z</time>
      </trkpt>
      <trkpt lat="49.12422" lon="-0.22032">
        <ele>28.5</ele>
        <time>2024-02-04T10:20:07Z</time>
      </trkpt>
      <trkpt lat="49.12431" lon="-0.22027">
        <ele>28.7</ele>
        <time>2024-02-04T10:20:08Z</time>
      </trkpt>
      <trkpt lat="49.12439" lon="-0.22022">
        <ele>28.9</ele>
        <time>2024-02-04T10:20:09Z</time>
      </trkpt>
      <trkpt lat="49.12447" lon="-0.22015">
        <ele>29.1</ele>
        <time>2024-02-04T10:20:10Z</time>
      </trkpt>
      <trkpt lat="49.12454" lon="-0.22009">
        <ele>29.3</ele>
        <time>2024-02-04T10:20:11Z</time>
      </trkpt>
      <trkpt lat="49.12462" lon="-0.22002">
        <ele>29.4</ele>
        <time>2024-02-04T10:20:12Z</time>
      </trkpt>
      <trkpt lat="49.12469" lon="-0.21994">
        <ele>29.4</ele>
        <time>2024-02-04T10:20:13Z</time>
      </trkpt>
      <trkpt lat="49.12477" lon="-0.21986">
        <ele>29.5</ele>
        <time>2024-02-04T10:20:14Z</time>
      </trkpt>
      <trkpt lat="49.12485" lon="-0.21978">
        <ele>29.5</ele>
        <time>2024-02-04T10:20:15Z</time>
      </trkpt>
      <trkpt lat="49.12494" lon="-0.21971">
        <ele>29.3</ele>
        <time>2024-02-04T10:20:16Z</time>
      </trkpt>
      <trkpt lat="49.12502" lon="-0.21964">
        <ele>29.2</ele>
        <time>2024-02-04T10:20:17Z</time>
      </trkpt>
      <trkpt lat="49.12511" lon="-0.21959">
        <ele>29</ele>
        <time>2024-02-04T10:20:18Z</time>
      </trkpt>
      <trkpt lat="49.1252" lon="-0.21955">
        <ele>28.7</ele>
        <time>2024-02-04T10:20:19Z</time>
      </trkpt>
      <trkpt lat="49.1253" lon="-0.2195">
        <ele>28.3</ele>
        <time>2024-02-04T10:20:20Z</time>
      </trkpt>
      <trkpt lat="49.12539" lon="-0.21945">
        <ele>27.9</ele>
        <time>2024-02-04T10:20:21Z</time>
      </trkpt>
      <trkpt lat="49.12549" lon="-0.2194">
        <ele>27.4</ele>
        <time>2024-02-04T10:20:22Z</time>
      </trkpt>
      <trkpt lat="49.1256" lon="-0.21935">
        <ele>26.8</ele>
        <time>2024-02-04T10:20:23Z</time>
      </trkpt>
      <trkpt lat="49.1257" lon="-0.21929">
        <ele>26.4</ele>
        <time>2024-02-04T10:20:24Z</time>
      </trkpt>
      <trkpt lat="49.12581" lon="-0.21924">
        <ele>26</ele>
        <time>2024-02-04T10:20:25Z</time>
      </trkpt>
      <trkpt lat="49.12592" lon="-0.21918">
        <ele>25.6</ele>
        <time>2024-02-04T10:20:26Z</time>
      </trkpt>
      <trkpt lat="49.12603" lon="-0.21913">
        <ele>25.1</ele>
        <time>2024-02-04T10:20:27Z</time>
      </trkpt>
      <trkpt lat="49.12614" lon="-0.21908">
        <ele>24.7</ele>
        <time>2024-02-04T10:20:28Z</time>
      </trkpt>
      <trkpt lat="49.12625" lon="-0.21902">
        <ele>24.4</ele>
        <time>2024-02-04T10:20:29Z</time>
      </trkpt>
      <trkpt lat="49.12636" lon="-0.21896">
        <ele>24</ele>
        <time>2024-02-04T10:20:30Z</time>
      </trkpt>
      <trkpt lat="49.12647" lon="-0.21891">
        <ele>23.7</ele>
        <time>2024-02-04T10:20:31Z</time>
      </trkpt>
      <trkpt lat="49.12658" lon="-0.21885">
        <ele>23.5</ele>
        <time>2024-02-04T10:20:32Z</time>
      </trkpt>
      <trkpt lat="49.12669" lon="-0.2188">
        <ele>23.2</ele>
        <time>2024-02-04T10:20:33Z</time>
      </trkpt>
      <trkpt lat="49.1268" lon="-0.21875">
        <ele>23.1</ele>
        <time>2024-02-04T10:20:34Z</time>
      </trkpt>
      <trkpt lat="49.1269" lon="-0.21871">
        <ele>22.9</ele>
        <time>2024-02-04T10:20:35Z</time>
      </trkpt>
      <trkpt lat="49.127" lon="-0.21866">
        <ele>22.7</ele>
        <time>2024-02-04T10:20:36Z</time>
      </trkpt>
      <trkpt lat="49.1271" lon="-0.21861">
        <ele>22.6</ele>
        <time>2024-02-04T10:20:37Z</time>
      </trkpt>
      <trkpt lat="49.12719" lon="-0.21856">
        <ele>22.4</ele>
        <time>2024-02-04T10:20:38Z</time>
      </trkpt>
      <trkpt lat="49.12728" lon="-0.21851">
        <ele>22.2</ele>
        <time>2024-02-04T10:20:39Z</time>
      </trkpt>
      <trkpt lat="49.12738" lon="-0.21846">
        <ele>22.1</ele>
        <time>2024-02-04T10:20:40Z</time>
      </trkpt>
      <trkpt lat="49.12747" lon="-0.21841">
        <ele>21.9</ele>
        <time>2024-02-04T10:20:41Z</time>
      </trkpt>
      <trkpt lat="49.12756" lon="-0.21836">
        <ele>21.8</ele>
        <time>2024-02-04T10:20:42Z</time>
      </trkpt>
      <trkpt lat="49.12765" lon="-0.21832">
        <ele>21.7</ele>
        <time>2024-02-04T10:20:43Z</time>
      </trkpt>
      <trkpt lat="49.12774" lon="-0.21828">
        <ele>21.5</ele>
        <time>2024-02-04T10:20:44Z</time>
      </trkpt>
      <trkpt lat="49.12783" lon="-0.21823">
        <ele>21.4</ele>
        <time>2024-02-04T10:20:45Z</time>
      </trkpt>
      <trkpt lat="49.12792" lon="-0.21819">
        <ele>21.3</ele>
        <time>2024-02-04T10:20:46Z</time>
      </trkpt>
      <trkpt lat="49.128" lon="-0.21816">
        <ele>21.1</ele>
        <time>2024-02-04T10:20:47Z</time>
      </trkpt>
      <trkpt lat="49.12809" lon="-0.21814">
        <ele>21</ele>
        <time>2024-02-04T10:20:48Z</time>
      </trkpt>
      <trkpt lat="49.12817" lon="-0.21813">
        <ele>20.9</ele>
        <time>2024-02-04T10:20:49Z</time>
      </trkpt>
      <trkpt lat="49.12826" lon="-0.21813">
        <ele>20.8</ele>
        <time>2024-02-04T10:20:50Z</time>
      </trkpt>
      <trkpt lat="49.12835" lon="-0.21812">
        <ele>20.7</ele>
        <time>2024-02-04T10:20:51Z</time>
      </trkpt>
      <trkpt lat="49.12843" lon="-0.21812">
        <ele>20.6</ele>
        <time>2024-02-04T10:20:52Z</time>
      </trkpt>
      <trkpt lat="49.12852" lon="-0.2181">
        <ele>20.5</ele>
        <time>2024-02-04T10:20:53Z</time>
      </trkpt>
      <trkpt lat="49.1286" lon="-0.21808">
        <ele>20.4</ele>
        <time>2024-02-04T10:20:54Z</time>
      </trkpt>
      <trkpt lat="49.12868" lon="-0.21805">
        <ele>20.4</ele>
        <time>2024-02-04T10:20:55Z</time>
      </trkpt>
      <trkpt lat="49.12876" lon="-0.218">
        <ele>20.3</ele>
        <time>2024-02-04T10:20:56Z</time>
      </trkpt>
      <trkpt lat="49.12883" lon="-0.21795">
        <ele>20.3</ele>
        <time>2024-02-04T10:20:57Z</time>
      </trkpt>
      <trkpt lat="49.1289" lon="-0.21788">
        <ele>20.3</ele>
        <time>2024-02-04T10:20:58Z</time>
      </trkpt>
      <trkpt lat="49.12896" lon="-0.21781">
        <ele>20.3</ele>
        <time>2024-02-04T10:20:59Z</time>
      </trkpt>
      <trkpt lat="49.12902" lon="-0.21774">
        <ele>20.3</ele>
        <time>2024-02-04T10:21:00Z</time>
      </trkpt>
      <trkpt lat="49.12907" lon="-0.21767">
        <ele>20.3</ele>
        <time>2024-02-04T10:21:01Z</time>
      </trkpt>
      <trkpt lat="49.1291" lon="-0.2176">
        <ele>20.2</ele>
        <time>2024-02-04T10:21:02Z</time>
      </trkpt>
      <trkpt lat="49.12912" lon="-0.21752">
        <ele>20.2</ele>
        <time>2024-02-04T10:21:03Z</time>
      </trkpt>
      <trkpt lat="49.12914" lon="-0.21743">
        <ele>20.3</ele>
        <time>2024-02-04T10:21:04Z</time>
      </trkpt>
      <trkpt lat="49.12915" lon="-0.21734">
        <ele>20.3</ele>
        <time>2024-02-04T10:21:05Z</time>
      </trkpt>
      <trkpt lat="49.12916" lon="-0.21726">
        <ele>20.4</ele>
        <time>2024-02-04T10:21:06Z</time>
      </trkpt>
      <trkpt lat="49.12916" lon="-0.21716">
        <ele>20.4</ele>
        <time>2024-02-04T10:21:07Z</time>
      </trkpt>
      <trkpt lat="49.12916" lon="-0.21706">
        <ele>20.4</ele>
        <time>2024-02-04T10:21:08Z</time>
      </trkpt>
      <trkpt lat="49.12913" lon="-0.21695">
        <ele>20.4</ele>
        <time>2024-02-04T10:21:09Z</time>
      </trkpt>
      <trkpt lat="49.1291" lon="-0.21685">
        <ele>20.4</ele>
        <time>2024-02-04T10:21:10Z</time>
      </trkpt>
      <trkpt lat="49.12905" lon="-0.21676">
        <ele>20.5</ele>
        <time>2024-02-04T10:21:11Z</time>
      </trkpt>
      <trkpt lat="49.129" lon="-0.21667">
        <ele>20.5</ele>
        <time>2024-02-04T10:21:12Z</time>
      </trkpt>
      <trkpt lat="49.12896" lon="-0.21658">
        <ele>20.7</ele>
        <time>2024-02-04T10:21:13Z</time>
      </trkpt>
      <trkpt lat="49.12891" lon="-0.21649">
        <ele>20.8</ele>
        <time>2024-02-04T10:21:14Z</time>
      </trkpt>
      <trkpt lat="49.12887" lon="-0.2164">
        <ele>20.9</ele>
        <time>2024-02-04T10:21:15Z</time>
      </trkpt>
      <trkpt lat="49.12883" lon="-0.21631">
        <ele>21</ele>
        <time>2024-02-04T10:21:16Z</time>
      </trkpt>
      <trkpt lat="49.12879" lon="-0.21622">
        <ele>21.1</ele>
        <time>2024-02-04T10:21:17Z</time>
      </trkpt>
      <trkpt lat="49.12875" lon="-0.21612">
        <ele>21.3</ele>
        <time>2024-02-04T10:21:18Z</time>
      </trkpt>
      <trkpt lat="49.12871" lon="-0.21603">
        <ele>21.4</ele>
        <time>2024-02-04T10:21:19Z</time>
      </trkpt>
      <trkpt lat="49.12867" lon="-0.21594">
        <ele>21.5</ele>
        <time>2024-02-04T10:21:20Z</time>
      </trkpt>
      <trkpt lat="49.12862" lon="-0.21585">
        <ele>21.7</ele>
        <time>2024-02-04T10:21:21Z</time>
      </trkpt>
      <trkpt lat="49.12858" lon="-0.21575">
        <ele>21.8</ele>
        <time>2024-02-04T10:21:22Z</time>
      </trkpt>
      <trkpt lat="49.12854" lon="-0.21566">
        <ele>21.8</ele>
        <time>2024-02-04T10:21:23Z</time>
      </trkpt>
      <trkpt lat="49.1285" lon="-0.21556">
        <ele>21.9</ele>
        <time>2024-02-04T10:21:24Z</time>
      </trkpt>
      <trkpt lat="49.12846" lon="-0.21546">
        <ele>22</ele>
        <time>2024-02-04T10:21:25Z</time>
      </trkpt>
      <trkpt lat="49.12842" lon="-0.21537">
        <ele>22.1</ele>
        <time>2024-02-04T10:21:26Z</time>
      </trkpt>
      <trkpt lat="49.12837" lon="-0.21527">
        <ele>22.2</ele>
        <time>2024-02-04T10:21:27Z</time>
      </trkpt>
      <trkpt lat="49.12832" lon="-0.21517">
        <ele>22.3</ele>
        <time>2024-02-04T10:21:28Z</time>
      </trkpt>
      <trkpt lat="49.12828" lon="-0.21508">
        <ele>22.4</ele>
        <time>2024-02-04T10:21:29Z</time>
      </trkpt>
      <trkpt lat="49.12823" lon="-0.21498">
        <ele>22.5</ele>
        <time>2024-02-04T10:21:30Z</time>
      </trkpt>
      <trkpt lat="49.12819" lon="-0.21488">
        <ele>22.6</ele>
        <time>2024-02-04T10:21:31Z</time>
      </trkpt>
      <trkpt lat="49.12815" lon="-0.21478">
        <ele>22.7</ele>
        <time>2024-02-04T10:21:32Z</time>
      </trkpt>
      <trkpt lat="49.1281" lon="-0.21469">
        <ele>22.8</ele>
        <time>2024-02-04T10:21:33Z</time>
      </trkpt>
      <trkpt lat="49.12806" lon="-0.21459">
        <ele>22.9</ele>
        <time>2024-02-04T10:21:34Z</time>
      </trkpt>
      <trkpt lat="49.12802" lon="-0.21449">
        <ele>23</ele>
        <time>2024-02-04T10:21:35Z</time>
      </trkpt>
      <trkpt lat="49.12797" lon="-0.21438">
        <ele>23.1</ele>
        <time>2024-02-04T10:21:36Z</time>
      </trkpt>
      <trkpt lat="49.12792" lon="-0.21428">
        <ele>23.2</ele>
        <time>2024-02-04T10:21:37Z</time>
      </trkpt>
      <trkpt lat="49.12788" lon="-0.21418">
        <ele>23.2</ele>
        <time>2024-02-04T10:21:38Z</time>
      </trkpt>
      <trkpt lat="49.12784" lon="-0.21408">
        <ele>23.3</ele>
        <time>2024-02-04T10:21:39Z</time>
      </trkpt>
      <trkpt lat="49.12779" lon="-0.21398">
        <ele>23.4</ele>
        <time>2024-02-04T10:21:40Z</time>
      </trkpt>
      <trkpt lat="49.12774" lon="-0.21389">
        <ele>23.4</ele>
        <time>2024-02-04T10:21:41Z</time>
      </trkpt>
      <trkpt lat="49.1277" lon="-0.21379">
        <ele>23.5</ele>
        <time>2024-02-04T10:21:42Z</time>
      </trkpt>
      <trkpt lat="49.12765" lon="-0.21369">
        <ele>23.6</ele>
        <time>2024-02-04T10:21:43Z</time>
      </trkpt>
      <trkpt lat="49.12761" lon="-0.21359">
        <ele>23.7</ele>
        <time>2024-02-04T10:21:44Z</time>
      </trkpt>
      <trkpt lat="49.12756" lon="-0.21349">
        <ele>23.7</ele>
        <time>2024-02-04T10:21:45Z</time>
      </trkpt>
      <trkpt lat="49.12752" lon="-0.2134">
        <ele>23.8</ele>
        <time>2024-02-04T10:21:46Z</time>
      </trkpt>
      <trkpt lat="49.12748" lon="-0.2133">
        <ele>23.8</ele>
        <time>2024-02-04T10:21:47Z</time>
      </trkpt>
      <trkpt lat="49.12743" lon="-0.2132">
        <ele>23.9</ele>
        <time>2024-02-04T10:21:48Z</time>
      </trkpt>
      <trkpt lat="49.12739" lon="-0.21311">
        <ele>23.9</ele>
        <time>2024-02-04T10:21:49Z</time>
      </trkpt>
      <trkpt lat="49.12735" lon="-0.21301">
        <ele>24</ele>
        <time>2024-02-04T10:21:50Z</time>
      </trkpt>
      <trkpt lat="49.1273" lon="-0.21292">
        <ele>24</ele>
        <time>2024-02-04T10:21:51Z</time>
      </trkpt>
      <trkpt lat="49.12726" lon="-0.21283">
        <ele>24.1</ele>
        <time>2024-02-04T10:21:52Z</time>
      </trkpt>
      <trkpt lat="49.12721" lon="-0.21273">
        <ele>24.1</ele>
        <time>2024-02-04T10:21:53Z</time>
      </trkpt>
      <trkpt lat="49.12718" lon="-0.21263">
        <ele>24.2</ele>
        <time>2024-02-04T10:21:54Z</time>
      </trkpt>
      <trkpt lat="49.12714" lon="-0.21253">
        <ele>24.2</ele>
        <time>2024-02-04T10:21:55Z</time>
      </trkpt>
      <trkpt lat="49.1271" lon="-0.21244">
        <ele>24.2</ele>
        <time>2024-02-04T10:21:56Z</time>
      </trkpt>
      <trkpt lat="49.12706" lon="-0.21234">
        <ele>24.3</ele>
        <time>2024-02-04T10:21:57Z</time>
      </trkpt>
      <trkpt lat="49.12697" lon="-0.21215">
        <ele>24.3</ele>
        <time>2024-02-04T10:21:59Z</time>
      </trkpt>
      <trkpt lat="49.12693" lon="-0.21206">
        <ele>24.4</ele>
        <time>2024-02-04T10:22:00Z</time>
      </trkpt>
      <trkpt lat="49.12688" lon="-0.21198">
        <ele>24.4</ele>
        <time>2024-02-04T10:22:01Z</time>
      </trkpt>
      <trkpt lat="49.12684" lon="-0.21189">
        <ele>24.4</ele>
        <time>2024-02-04T10:22:02Z</time>
      </trkpt>
      <trkpt lat="49.1268" lon="-0.2118">
        <ele>24.4</ele>
        <time>2024-02-04T10:22:03Z</time>
      </trkpt>
      <trkpt lat="49.12675" lon="-0.21171">
        <ele>24.4</ele>
        <time>2024-02-04T10:22:04Z</time>
      </trkpt>
      <trkpt lat="49.12671" lon="-0.21161">
        <ele>24.4</ele>
        <time>2024-02-04T10:22:05Z</time>
      </trkpt>
      <trkpt lat="49.12667" lon="-0.21151">
        <ele>24.4</ele>
        <time>2024-02-04T10:22:06Z</time>
      </trkpt>
      <trkpt lat="49.12663" lon="-0.2114">
        <ele>24.4</ele>
        <time>2024-02-04T10:22:07Z</time>
      </trkpt>
      <trkpt lat="49.12659" lon="-0.21131">
        <ele>24.4</ele>
        <time>2024-02-04T10:22:08Z</time>
      </trkpt>
      <trkpt lat="49.12654" lon="-0.21121">
        <ele>24.4</ele>
        <time>2024-02-04T10:22:09Z</time>
      </trkpt>
      <trkpt lat="49.1265" lon="-0.21111">
        <ele>24.3</ele>
        <time>2024-02-04T10:22:10Z</time>
      </trkpt>
      <trkpt lat="49.12646" lon="-0.21101">
        <ele>24.3</ele>
        <time>2024-02-04T10:22:11Z</time>
      </trkpt>
      <trkpt lat="49.12642" lon="-0.21091">
        <ele>24.2</ele>
        <time>2024-02-04T10:22:12Z</time>
      </trkpt>
      <trkpt lat="49.12638" lon="-0.21081">
        <ele>24.2</ele>
        <time>2024-02-04T10:22:13Z</time>
      </trkpt>
      <trkpt lat="49.12633" lon="-0.21071">
        <ele>24.1</ele>
        <time>2024-02-04T10:22:14Z</time>
      </trkpt>
      <trkpt lat="49.12629" lon="-0.21061">
        <ele>24.1</ele>
        <time>2024-02-04T10:22:15Z</time>
      </trkpt>
      <trkpt lat="49.12624" lon="-0.21051">
        <ele>24.1</ele>
        <time>2024-02-04T10:22:16Z</time>
      </trkpt>
      <trkpt lat="49.1262" lon="-0.21042">
        <ele>24.1</ele>
        <time>2024-02-04T10:22:17Z</time>
      </trkpt>
      <trkpt lat="49.12615" lon="-0.21032">
        <ele>24</ele>
        <time>2024-02-04T10:22:18Z</time>
      </trkpt>
      <trkpt lat="49.12611" lon="-0.21022">
        <ele>24</ele>
        <time>2024-02-04T10:22:19Z</time>
      </trkpt>
      <trkpt lat="49.12606" lon="-0.21012">
        <ele>24</ele>
        <time>2024-02-04T10:22:20Z</time>
      </trkpt>
      <trkpt lat="49.12602" lon="-0.21002">
        <ele>24</ele>
        <time>2024-02-04T10:22:21Z</time>
      </trkpt>
      <trkpt lat="49.12598" lon="-0.20992">
        <ele>24</ele>
        <time>2024-02-04T10:22:22Z</time>
      </trkpt>
      <trkpt lat="49.12593" lon="-0.20982">
        <ele>24</ele>
        <time>2024-02-04T10:22:23Z</time>
      </trkpt>
      <trkpt lat="49.12589" lon="-0.20973">
        <ele>23.9</ele>
        <time>2024-02-04T10:22:24Z</time>
      </trkpt>
      <trkpt lat="49.12584" lon="-0.20963">
        <ele>23.9</ele>
        <time>2024-02-04T10:22:25Z</time>
      </trkpt>
      <trkpt lat="49.1258" lon="-0.20953">
        <ele>23.9</ele>
        <time>2024-02-04T10:22:26Z</time>
      </trkpt>
      <trkpt lat="49.12576" lon="-0.20943">
        <ele>23.8</ele>
        <time>2024-02-04T10:22:27Z</time>
      </trkpt>
      <trkpt lat="49.12571" lon="-0.20933">
        <ele>23.8</ele>
        <time>2024-02-04T10:22:28Z</time>
      </trkpt>
      <trkpt lat="49.12566" lon="-0.20923">
        <ele>23.8</ele>
        <time>2024-02-04T10:22:29Z</time>
      </trkpt>
      <trkpt lat="49.12562" lon="-0.20913">
        <ele>23.7</ele>
        <time>2024-02-04T10:22:30Z</time>
      </trkpt>
      <trkpt lat="49.12558" lon="-0.20903">
        <ele>23.7</ele>
        <time>2024-02-04T10:22:31Z</time>
      </trkpt>
      <trkpt lat="49.12553" lon="-0.20893">
        <ele>23.7</ele>
        <time>2024-02-04T10:22:32Z</time>
      </trkpt>
      <trkpt lat="49.12548" lon="-0.20883">
        <ele>23.6</ele>
        <time>2024-02-04T10:22:33Z</time>
      </trkpt>
      <trkpt lat="49.12544" lon="-0.20873">
        <ele>23.6</ele>
        <time>2024-02-04T10:22:34Z</time>
      </trkpt>
      <trkpt lat="49.1254" lon="-0.20864">
        <ele>23.6</ele>
        <time>2024-02-04T10:22:35Z</time>
      </trkpt>
      <trkpt lat="49.12536" lon="-0.20854">
        <ele>23.5</ele>
        <time>2024-02-04T10:22:36Z</time>
      </trkpt>
      <trkpt lat="49.12531" lon="-0.20844">
        <ele>23.5</ele>
        <time>2024-02-04T10:22:37Z</time>
      </trkpt>
      <trkpt lat="49.12527" lon="-0.20834">
        <ele>23.4</ele>
        <time>2024-02-04T10:22:38Z</time>
      </trkpt>
      <trkpt lat="49.12523" lon="-0.20824">
        <ele>23.4</ele>
        <time>2024-02-04T10:22:39Z</time>
      </trkpt>
      <trkpt lat="49.1252" lon="-0.20814">
        <ele>23.3</ele>
        <time>2024-02-04T10:22:40Z</time>
      </trkpt>
      <trkpt lat="49.12516" lon="-0.20805">
        <ele>23.3</ele>
        <time>2024-02-04T10:22:41Z</time>
      </trkpt>
      <trkpt lat="49.12512" lon="-0.20797">
        <ele>23.2</ele>
        <time>2024-02-04T10:22:42Z</time>
      </trkpt>
      <trkpt lat="49.12508" lon="-0.20788">
        <ele>23.2</ele>
        <time>2024-02-04T10:22:43Z</time>
      </trkpt>
      <trkpt lat="49.12504" lon="-0.20779">
        <ele>23.1</ele>
        <time>2024-02-04T10:22:44Z</time>
      </trkpt>
      <trkpt lat="49.125" lon="-0.20771">
        <ele>23.1</ele>
        <time>2024-02-04T10:22:45Z</time>
      </trkpt>
      <trkpt lat="49.12497" lon="-0.20762">
        <ele>23</ele>
        <time>2024-02-04T10:22:46Z</time>
      </trkpt>
      <trkpt lat="49.12494" lon="-0.20753">
        <ele>22.9</ele>
        <time>2024-02-04T10:22:47Z</time>
      </trkpt>
      <trkpt lat="49.12491" lon="-0.20746">
        <ele>22.9</ele>
        <time>2024-02-04T10:22:48Z</time>
      </trkpt>
      <trkpt lat="49.12488" lon="-0.20739">
        <ele>22.8</ele>
        <time>2024-02-04T10:22:49Z</time>
      </trkpt>
      <trkpt lat="49.12486" lon="-0.20735">
        <ele>22.8</ele>
        <time>2024-02-04T10:22:50Z</time>
      </trkpt>
      <trkpt lat="49.12484" lon="-0.20731">
        <ele>22.8</ele>
        <time>2024-02-04T10:22:51Z</time>
      </trkpt>
      <trkpt lat="49.12482" lon="-0.20728">
        <ele>22.8</ele>
        <time>2024-02-04T10:22:52Z</time>
      </trkpt>
      <trkpt lat="49.12481" lon="-0.20724">
        <ele>22.7</ele>
        <time>2024-02-04T10:22:53Z</time>
      </trkpt>
      <trkpt lat="49.12479" lon="-0.2072">
        <ele>22.7</ele>
        <time>2024-02-04T10:22:54Z</time>
      </trkpt>
      <trkpt lat="49.12477" lon="-0.20716">
        <ele>22.7</ele>
        <time>2024-02-04T10:22:55Z</time>
      </trkpt>
      <trkpt lat="49.12475" lon="-0.20713">
        <ele>22.7</ele>
        <time>2024-02-04T10:22:56Z</time>
      </trkpt>
      <trkpt lat="49.12473" lon="-0.20709">
        <ele>22.7</ele>
        <time>2024-02-04T10:22:57Z</time>
      </trkpt>
      <trkpt lat="49.12471" lon="-0.20705">
        <ele>22.7</ele>
        <time>2024-02-04T10:22:58Z</time>
      </trkpt>
      <trkpt lat="49.12468" lon="-0.20701">
        <ele>22.7</ele>
        <time>2024-02-04T10:22:59Z</time>
      </trkpt>
      <trkpt lat="49.12465" lon="-0.20696">
        <ele>22.6</ele>
        <time>2024-02-04T10:23:00Z</time>
      </trkpt>
      <trkpt lat="49.12462" lon="-0.2069">
        <ele>22.5</ele>
        <time>2024-02-04T10:23:01Z</time>
      </trkpt>
      <trkpt lat="49.12459" lon="-0.20683">
        <ele>22.5</ele>
        <time>2024-02-04T10:23:02Z</time>
      </trkpt>
      <trkpt lat="49.12457" lon="-0.20676">
        <ele>22.4</ele>
        <time>2024-02-04T10:23:03Z</time>
      </trkpt>
      <trkpt lat="49.12454" lon="-0.20669">
        <ele>22.3</ele>
        <time>2024-02-04T10:23:04Z</time>
      </trkpt>
      <trkpt lat="49.12451" lon="-0.20661">
        <ele>22.3</ele>
        <time>2024-02-04T10:23:05Z</time>
      </trkpt>
      <trkpt lat="49.12448" lon="-0.20653">
        <ele>22.2</ele>
        <time>2024-02-04T10:23:06Z</time>
      </trkpt>
      <trkpt lat="49.12445" lon="-0.20645">
        <ele>22.1</ele>
        <time>2024-02-04T10:23:07Z</time>
      </trkpt>
      <trkpt lat="49.12441" lon="-0.20637">
        <ele>22</ele>
        <time>2024-02-04T10:23:08Z</time>
      </trkpt>
      <trkpt lat="49.12438" lon="-0.20628">
        <ele>21.9</ele>
        <time>2024-02-04T10:23:09Z</time>
      </trkpt>
      <trkpt lat="49.12434" lon="-0.2062">
        <ele>21.9</ele>
        <time>2024-02-04T10:23:10Z</time>
      </trkpt>
      <trkpt lat="49.12431" lon="-0.20612">
        <ele>21.9</ele>
        <time>2024-02-04T10:23:11Z</time>
      </trkpt>
      <trkpt lat="49.12427" lon="-0.20602">
        <ele>21.8</ele>
        <time>2024-02-04T10:23:12Z</time>
      </trkpt>
      <trkpt lat="49.12423" lon="-0.20593">
        <ele>21.8</ele>
        <time>2024-02-04T10:23:13Z</time>
      </trkpt>
      <trkpt lat="49.12419" lon="-0.20583">
        <ele>21.8</ele>
        <time>2024-02-04T10:23:14Z</time>
      </trkpt>
      <trkpt lat="49.12415" lon="-0.20573">
        <ele>21.8</ele>
        <time>2024-02-04T10:23:15Z</time>
      </trkpt>
      <trkpt lat="49.12411" lon="-0.20564">
        <ele>21.8</ele>
        <time>2024-02-04T10:23:16Z</time>
      </trkpt>
      <trkpt lat="49.12407" lon="-0.20554">
        <ele>21.8</ele>
        <time>2024-02-04T10:23:17Z</time>
      </trkpt>
      <trkpt lat="49.12402" lon="-0.20544">
        <ele>21.8</ele>
        <time>2024-02-04T10:23:18Z</time>
      </trkpt>
      <trkpt lat="49.12399" lon="-0.20534">
        <ele>21.8</ele>
        <time>2024-02-04T10:23:19Z</time>
      </trkpt>
      <trkpt lat="49.12395" lon="-0.20524">
        <ele>21.8</ele>
        <time>2024-02-04T10:23:20Z</time>
      </trkpt>
      <trkpt lat="49.12391" lon="-0.20514">
        <ele>21.8</ele>
        <time>2024-02-04T10:23:21Z</time>
      </trkpt>
      <trkpt lat="49.12387" lon="-0.20504">
        <ele>21.8</ele>
        <time>2024-02-04T10:23:22Z</time>
      </trkpt>
      <trkpt lat="49.12383" lon="-0.20494">
        <ele>21.8</ele>
        <time>2024-02-04T10:23:23Z</time>
      </trkpt>
      <trkpt lat="49.12379" lon="-0.20484">
        <ele>21.7</ele>
        <time>2024-02-04T10:23:24Z</time>
      </trkpt>
      <trkpt lat="49.12375" lon="-0.20474">
        <ele>21.7</ele>
        <time>2024-02-04T10:23:25Z</time>
      </trkpt>
      <trkpt lat="49.12371" lon="-0.20463">
        <ele>21.7</ele>
        <time>2024-02-04T10:23:26Z</time>
      </trkpt>
      <trkpt lat="49.12367" lon="-0.20453">
        <ele>21.7</ele>
        <time>2024-02-04T10:23:27Z</time>
      </trkpt>
      <trkpt lat="49.12363" lon="-0.20442">
        <ele>21.7</ele>
        <time>2024-02-04T10:23:28Z</time>
      </trkpt>
      <trkpt lat="49.1236" lon="-0.20431">
        <ele>21.6</ele>
        <time>2024-02-04T10:23:29Z</time>
      </trkpt>
      <trkpt lat="49.12356" lon="-0.20419">
        <ele>21.6</ele>
        <time>2024-02-04T10:23:30Z</time>
      </trkpt>
      <trkpt lat="49.12353" lon="-0.20407">
        <ele>21.6</ele>
        <time>2024-02-04T10:23:31Z</time>
      </trkpt>
      <trkpt lat="49.1235" lon="-0.20395">
        <ele>21.6</ele>
        <time>2024-02-04T10:23:32Z</time>
      </trkpt>
      <trkpt lat="49.12347" lon="-0.20383">
        <ele>21.6</ele>
        <time>2024-02-04T10:23:33Z</time>
      </trkpt>
      <trkpt lat="49.12344" lon="-0.20371">
        <ele>21.6</ele>
        <time>2024-02-04T10:23:34Z</time>
      </trkpt>
      <trkpt lat="49.12341" lon="-0.20359">
        <ele>21.5</ele>
        <time>2024-02-04T10:23:35Z</time>
      </trkpt>
      <trkpt lat="49.12338" lon="-0.20347">
        <ele>21.5</ele>
        <time>2024-02-04T10:23:36Z</time>
      </trkpt>
      <trkpt lat="49.12335" lon="-0.20334">
        <ele>21.5</ele>
        <time>2024-02-04T10:23:37Z</time>
      </trkpt>
      <trkpt lat="49.12331" lon="-0.20322">
        <ele>21.5</ele>
        <time>2024-02-04T10:23:38Z</time>
      </trkpt>
      <trkpt lat="49.12328" lon="-0.20309">
        <ele>21.6</ele>
        <time>2024-02-04T10:23:39Z</time>
      </trkpt>
      <trkpt lat="49.12325" lon="-0.20297">
        <ele>21.6</ele>
        <time>2024-02-04T10:23:40Z</time>
      </trkpt>
      <trkpt lat="49.12322" lon="-0.20284">
        <ele>21.6</ele>
        <time>2024-02-04T10:23:41Z</time>
      </trkpt>
      <trkpt lat="49.12318" lon="-0.20272">
        <ele>21.6</ele>
        <time>2024-02-04T10:23:42Z</time>
      </trkpt>
      <trkpt lat="49.12315" lon="-0.20259">
        <ele>21.7</ele>
        <time>2024-02-04T10:23:43Z</time>
      </trkpt>
      <trkpt lat="49.12311" lon="-0.20247">
        <ele>21.7</ele>
        <time>2024-02-04T10:23:44Z</time>
      </trkpt>
      <trkpt lat="49.12308" lon="-0.20234">
        <ele>21.7</ele>
        <time>2024-02-04T10:23:45Z</time>
      </trkpt>
      <trkpt lat="49.12305" lon="-0.20221">
        <ele>21.7</ele>
        <time>2024-02-04T10:23:46Z</time>
      </trkpt>
      <trkpt lat="49.12301" lon="-0.20209">
        <ele>21.7</ele>
        <time>2024-02-04T10:23:47Z</time>
      </trkpt>
      <trkpt lat="49.12298" lon="-0.20197">
        <ele>21.7</ele>
        <time>2024-02-04T10:23:48Z</time>
      </trkpt>
      <trkpt lat="49.12295" lon="-0.20185">
        <ele>21.7</ele>
        <time>2024-02-04T10:23:49Z</time>
      </trkpt>
      <trkpt lat="49.12292" lon="-0.20173">
        <ele>21.8</ele>
        <time>2024-02-04T10:23:50Z</time>
      </trkpt>
      <trkpt lat="49.12289" lon="-0.20161">
        <ele>21.8</ele>
        <time>2024-02-04T10:23:51Z</time>
      </trkpt>
      <trkpt lat="49.12286" lon="-0.2015">
        <ele>21.9</ele>
        <time>2024-02-04T10:23:52Z</time>
      </trkpt>
      <trkpt lat="49.12283" lon="-0.20138">
        <ele>21.9</ele>
        <time>2024-02-04T10:23:53Z</time>
      </trkpt>
      <trkpt lat="49.12279" lon="-0.20127">
        <ele>22</ele>
        <time>2024-02-04T10:23:54Z</time>
      </trkpt>
      <trkpt lat="49.12276" lon="-0.20116">
        <ele>22</ele>
        <time>2024-02-04T10:23:55Z</time>
      </trkpt>
      <trkpt lat="49.12273" lon="-0.20105">
        <ele>22</ele>
        <time>2024-02-04T10:23:56Z</time>
      </trkpt>
      <trkpt lat="49.12271" lon="-0.20094">
        <ele>22.1</ele>
        <time>2024-02-04T10:23:57Z</time>
      </trkpt>
      <trkpt lat="49.12268" lon="-0.20084">
        <ele>22.1</ele>
        <time>2024-02-04T10:23:58Z</time>
      </trkpt>
      <trkpt lat="49.12267" lon="-0.20073">
        <ele>22.1</ele>
        <time>2024-02-04T10:23:59Z</time>
      </trkpt>
      <trkpt lat="49.12265" lon="-0.20064">
        <ele>22.1</ele>
        <time>2024-02-04T10:24:00Z</time>
      </trkpt>
      <trkpt lat="49.12264" lon="-0.20056">
        <ele>22.2</ele>
        <time>2024-02-04T10:24:01Z</time>
      </trkpt>
      <trkpt lat="49.12263" lon="-0.20048">
        <ele>22.2</ele>
        <time>2024-02-04T10:24:02Z</time>
      </trkpt>
      <trkpt lat="49.12262" lon="-0.20041">
        <ele>22.2</ele>
        <time>2024-02-04T10:24:03Z</time>
      </trkpt>
      <trkpt lat="49.12261" lon="-0.20035">
        <ele>22.2</ele>
        <time>2024-02-04T10:24:04Z</time>
      </trkpt>
      <trkpt lat="49.12259" lon="-0.20028">
        <ele>22.3</ele>
        <time>2024-02-04T10:24:05Z</time>
      </trkpt>
      <trkpt lat="49.12258" lon="-0.20022">
        <ele>22.3</ele>
        <time>2024-02-04T10:24:06Z</time>
      </trkpt>
      <trkpt lat="49.12256" lon="-0.20016">
        <ele>22.3</ele>
        <time>2024-02-04T10:24:07Z</time>
      </trkpt>
      <trkpt lat="49.12255" lon="-0.2001">
        <ele>22.3</ele>
        <time>2024-02-04T10:24:08Z</time>
      </trkpt>
      <trkpt lat="49.12253" lon="-0.20004">
        <ele>22.4</ele>
        <time>2024-02-04T10:24:09Z</time>
      </trkpt>
      <trkpt lat="49.12252" lon="-0.19999">
        <ele>22.4</ele>
        <time>2024-02-04T10:24:10Z</time>
      </trkpt>
      <trkpt lat="49.1225" lon="-0.19993">
        <ele>22.4</ele>
        <time>2024-02-04T10:24:11Z</time>
      </trkpt>
      <trkpt lat="49.12249" lon="-0.19987">
        <ele>22.5</ele>
        <time>2024-02-04T10:24:12Z</time>
      </trkpt>
      <trkpt lat="49.12247" lon="-0.1998">
        <ele>22.5</ele>
        <time>2024-02-04T10:24:13Z</time>
      </trkpt>
      <trkpt lat="49.12245" lon="-0.19973">
        <ele>22.5</ele>
        <time>2024-02-04T10:24:14Z</time>
      </trkpt>
      <trkpt lat="49.12244" lon="-0.19966">
        <ele>22.5</ele>
        <time>2024-02-04T10:24:15Z</time>
      </trkpt>
      <trkpt lat="49.12242" lon="-0.19959">
        <ele>22.6</ele>
        <time>2024-02-04T10:24:16Z</time>
      </trkpt>
      <trkpt lat="49.12241" lon="-0.19952">
        <ele>22.6</ele>
        <time>2024-02-04T10:24:17Z</time>
      </trkpt>
      <trkpt lat="49.12239" lon="-0.19945">
        <ele>22.6</ele>
        <time>2024-02-04T10:24:18Z</time>
      </trkpt>
      <trkpt lat="49.12237" lon="-0.19939">
        <ele>22.7</ele>
        <time>2024-02-04T10:24:19Z</time>
      </trkpt>
      <trkpt lat="49.12236" lon="-0.19932">
        <ele>22.7</ele>
        <time>2024-02-04T10:24:20Z</time>
      </trkpt>
      <trkpt lat="49.12234" lon="-0.19925">
        <ele>22.8</ele>
        <time>2024-02-04T10:24:21Z</time>
      </trkpt>
      <trkpt lat="49.12233" lon="-0.19918">
        <ele>22.8</ele>
        <time>2024-02-04T10:24:22Z</time>
      </trkpt>
      <trkpt lat="49.12232" lon="-0.19911">
        <ele>22.9</ele>
        <time>2024-02-04T10:24:23Z</time>
      </trkpt>
      <trkpt lat="49.1223" lon="-0.19903">
        <ele>22.9</ele>
        <time>2024-02-04T10:24:24Z</time>
      </trkpt>
      <trkpt lat="49.12229" lon="-0.19896">
        <ele>23</ele>
        <time>2024-02-04T10:24:25Z</time>
      </trkpt>
      <trkpt lat="49.12227" lon="-0.1989">
        <ele>23</ele>
        <time>2024-02-04T10:24:26Z</time>
      </trkpt>
      <trkpt lat="49.12226" lon="-0.19883">
        <ele>23.1</ele>
        <time>2024-02-04T10:24:27Z</time>
      </trkpt>
      <trkpt lat="49.12225" lon="-0.19877">
        <ele>23.2</ele>
        <time>2024-02-04T10:24:28Z</time>
      </trkpt>
      <trkpt lat="49.12224" lon="-0.19871">
        <ele>23.2</ele>
        <time>2024-02-04T10:24:29Z</time>
      </trkpt>
      <trkpt lat="49.12222" lon="-0.19865">
        <ele>23.2</ele>
        <time>2024-02-04T10:24:30Z</time>
      </trkpt>
      <trkpt lat="49.12221" lon="-0.19859">
        <ele>23.2</ele>
        <time>2024-02-04T10:24:31Z</time>
      </trkpt>
      <trkpt lat="49.1222" lon="-0.19854">
        <ele>23.3</ele>
        <time>2024-02-04T10:24:32Z</time>
      </trkpt>
      <trkpt lat="49.12217" lon="-0.1985">
        <ele>23.3</ele>
        <time>2024-02-04T10:24:33Z</time>
      </trkpt>
      <trkpt lat="49.12216" lon="-0.19846">
        <ele>23.3</ele>
        <time>2024-02-04T10:24:34Z</time>
      </trkpt>
      <trkpt lat="49.12216" lon="-0.19842">
        <ele>23.3</ele>
        <time>2024-02-04T10:24:35Z</time>
      </trkpt>
      <trkpt lat="49.12216" lon="-0.1984">
        <ele>23.3</ele>
        <time>2024-02-04T10:24:36Z</time>
      </trkpt>
      <trkpt lat="49.12216" lon="-0.19838">
        <ele>23.3</ele>
        <time>2024-02-04T10:24:37Z</time>
      </trkpt>
      <trkpt lat="49.12216" lon="-0.19836">
        <ele>23.3</ele>
        <time>2024-02-04T10:24:38Z</time>
      </trkpt>
      <trkpt lat="49.12215" lon="-0.19835">
        <ele>23.3</ele>
        <time>2024-02-04T10:24:39Z</time>
      </trkpt>
      <trkpt lat="49.12215" lon="-0.19833">
        <ele>23.3</ele>
        <time>2024-02-04T10:24:40Z</time>
      </trkpt>
      <trkpt lat="49.12215" lon="-0.19832">
        <ele>23.3</ele>
        <time>2024-02-04T10:24:41Z</time>
      </trkpt>
      <trkpt lat="49.12215" lon="-0.19832">
        <ele>23.3</ele>
        <time>2024-02-04T10:24:42Z</time>
      </trkpt>
      <trkpt lat="49.12215" lon="-0.19831">
        <ele>23.3</ele>
        <time>2024-02-04T10:24:43Z</time>
      </trkpt>
      <trkpt lat="49.12215" lon="-0.1983">
        <ele>23.3</ele>
        <time>2024-02-04T10:24:44Z</time>
      </trkpt>
      <trkpt lat="49.12214" lon="-0.1983">
        <ele>23.4</ele>
        <time>2024-02-04T10:24:45Z</time>
      </trkpt>
      <trkpt lat="49.12214" lon="-0.19829">
        <ele>23.4</ele>
        <time>2024-02-04T10:24:46Z</time>
      </trkpt>
      <trkpt lat="49.12214" lon="-0.19828">
        <ele>23.4</ele>
        <time>2024-02-04T10:24:47Z</time>
      </trkpt>
      <trkpt lat="49.12214" lon="-0.19828">
        <ele>23.4</ele>
        <time>2024-02-04T10:24:48Z</time>
      </trkpt>
      <trkpt lat="49.12214" lon="-0.19827">
        <ele>23.4</ele>
        <time>2024-02-04T10:24:49Z</time>
      </trkpt>
      <trkpt lat="49.12214" lon="-0.19826">
        <ele>23.4</ele>
        <time>2024-02-04T10:24:50Z</time>
      </trkpt>
      <trkpt lat="49.12214" lon="-0.19825">
        <ele>23.4</ele>
        <time>2024-02-04T10:24:51Z</time>
      </trkpt>
      <trkpt lat="49.12214" lon="-0.19825">
        <ele>23.4</ele>
        <time>2024-02-04T10:24:52Z</time>
      </trkpt>
      <trkpt lat="49.12214" lon="-0.19824">
        <ele>23.4</ele>
        <time>2024-02-04T10:25:00Z</time>
      </trkpt>
      <trkpt lat="49.12214" lon="-0.19823">
        <ele>23.4</ele>
        <time>2024-02-04T10:25:01Z</time>
      </trkpt>
      <trkpt lat="49.12214" lon="-0.19823">
        <ele>23.4</ele>
        <time>2024-02-04T10:25:02Z</time>
      </trkpt>
      <trkpt lat="49.12213" lon="-0.19818">
        <ele>23.4</ele>
        <time>2024-02-04T10:25:03Z</time>
      </trkpt>
      <trkpt lat="49.12212" lon="-0.19814">
        <ele>23.4</ele>
        <time>2024-02-04T10:25:04Z</time>
      </trkpt>
      <trkpt lat="49.1221" lon="-0.198">
        <ele>23.6</ele>
        <time>2024-02-04T10:25:06Z</time>
      </trkpt>
      <trkpt lat="49.12208" lon="-0.19792">
        <ele>23.7</ele>
        <time>2024-02-04T10:25:07Z</time>
      </trkpt>
      <trkpt lat="49.12206" lon="-0.19784">
        <ele>23.7</ele>
        <time>2024-02-04T10:25:08Z</time>
      </trkpt>
      <trkpt lat="49.12204" lon="-0.19766">
        <ele>23.6</ele>
        <time>2024-02-04T10:25:10Z</time>
      </trkpt>
      <trkpt lat="49.12202" lon="-0.19756">
        <ele>23.6</ele>
        <time>2024-02-04T10:25:11Z</time>
      </trkpt>
      <trkpt lat="49.12198" lon="-0.19736">
        <ele>23.7</ele>
        <time>2024-02-04T10:25:13Z</time>
      </trkpt>
      <trkpt lat="49.12196" lon="-0.19725">
        <ele>23.7</ele>
        <time>2024-02-04T10:25:14Z</time>
      </trkpt>
      <trkpt lat="49.12194" lon="-0.19714">
        <ele>23.8</ele>
        <time>2024-02-04T10:25:15Z</time>
      </trkpt>
      <trkpt lat="49.12192" lon="-0.19702">
        <ele>23.8</ele>
        <time>2024-02-04T10:25:16Z</time>
      </trkpt>
      <trkpt lat="49.12191" lon="-0.19691">
        <ele>23.9</ele>
        <time>2024-02-04T10:25:17Z</time>
      </trkpt>
      <trkpt lat="49.12189" lon="-0.19679">
        <ele>23.9</ele>
        <time>2024-02-04T10:25:18Z</time>
      </trkpt>
      <trkpt lat="49.12187" lon="-0.19667">
        <ele>23.9</ele>
        <time>2024-02-04T10:25:19Z</time>
      </trkpt>
      <trkpt lat="49.12185" lon="-0.19655">
        <ele>24</ele>
        <time>2024-02-04T10:25:20Z</time>
      </trkpt>
      <trkpt lat="49.12182" lon="-0.19643">
        <ele>24.1</ele>
        <time>2024-02-04T10:25:21Z</time>
      </trkpt>
      <trkpt lat="49.1218" lon="-0.19632">
        <ele>24.2</ele>
        <time>2024-02-04T10:25:22Z</time>
      </trkpt>
      <trkpt lat="49.12178" lon="-0.19619">
        <ele>24.2</ele>
        <time>2024-02-04T10:25:23Z</time>
      </trkpt>
      <trkpt lat="49.12176" lon="-0.19608">
        <ele>24.3</ele>
        <time>2024-02-04T10:25:24Z</time>
      </trkpt>
      <trkpt lat="49.12174" lon="-0.19596">
        <ele>24.4</ele>
        <time>2024-02-04T10:25:25Z</time>
      </trkpt>
      <trkpt lat="49.12172" lon="-0.19583">
        <ele>24.6</ele>
        <time>2024-02-04T10:25:26Z</time>
      </trkpt>
      <trkpt lat="49.1217" lon="-0.19571">
        <ele>24.7</ele>
        <time>2024-02-04T10:25:27Z</time>
      </trkpt>
      <trkpt lat="49.12168" lon="-0.19559">
        <ele>24.9</ele>
        <time>2024-02-04T10:25:28Z</time>
      </trkpt>
      <trkpt lat="49.12166" lon="-0.19547">
        <ele>25</ele>
        <time>2024-02-04T10:25:29Z</time>
      </trkpt>
      <trkpt lat="49.12164" lon="-0.19534">
        <ele>25.1</ele>
        <time>2024-02-04T10:25:30Z</time>
      </trkpt>
      <trkpt lat="49.12162" lon="-0.19522">
        <ele>25.3</ele>
        <time>2024-02-04T10:25:31Z</time>
      </trkpt>
      <trkpt lat="49.1216" lon="-0.1951">
        <ele>25.4</ele>
        <time>2024-02-04T10:25:32Z</time>
      </trkpt>
      <trkpt lat="49.12158" lon="-0.19497">
        <ele>25.4</ele>
        <time>2024-02-04T10:25:33Z</time>
      </trkpt>
      <trkpt lat="49.12156" lon="-0.19485">
        <ele>25.5</ele>
        <time>2024-02-04T10:25:34Z</time>
      </trkpt>
      <trkpt lat="49.12154" lon="-0.19472">
        <ele>25.5</ele>
        <time>2024-02-04T10:25:35Z</time>
      </trkpt>
      <trkpt lat="49.12152" lon="-0.1946">
        <ele>25.6</ele>
        <time>2024-02-04T10:25:36Z</time>
      </trkpt>
      <trkpt lat="49.12149" lon="-0.19447">
        <ele>25.6</ele>
        <time>2024-02-04T10:25:37Z</time>
      </trkpt>
      <trkpt lat="49.12147" lon="-0.19435">
        <ele>25.7</ele>
        <time>2024-02-04T10:25:38Z</time>
      </trkpt>
      <trkpt lat="49.12145" lon="-0.19423">
        <ele>25.7</ele>
        <time>2024-02-04T10:25:39Z</time>
      </trkpt>
      <trkpt lat="49.12143" lon="-0.19411">
        <ele>25.8</ele>
        <time>2024-02-04T10:25:40Z</time>
      </trkpt>
      <trkpt lat="49.12141" lon="-0.19399">
        <ele>25.8</ele>
        <time>2024-02-04T10:25:41Z</time>
      </trkpt>
      <trkpt lat="49.12139" lon="-0.19387">
        <ele>25.8</ele>
        <time>2024-02-04T10:25:42Z</time>
      </trkpt>
      <trkpt lat="49.12137" lon="-0.19376">
        <ele>25.8</ele>
        <time>2024-02-04T10:25:43Z</time>
      </trkpt>
      <trkpt lat="49.12135" lon="-0.19364">
        <ele>25.9</ele>
        <time>2024-02-04T10:25:44Z</time>
      </trkpt>
      <trkpt lat="49.12133" lon="-0.19353">
        <ele>25.9</ele>
        <time>2024-02-04T10:25:45Z</time>
      </trkpt>
      <trkpt lat="49.12131" lon="-0.19342">
        <ele>25.9</ele>
        <time>2024-02-04T10:25:46Z</time>
      </trkpt>
      <trkpt lat="49.12129" lon="-0.19331">
        <ele>25.9</ele>
        <time>2024-02-04T10:25:47Z</time>
      </trkpt>
      <trkpt lat="49.12127" lon="-0.1932">
        <ele>25.9</ele>
        <time>2024-02-04T10:25:48Z</time>
      </trkpt>
      <trkpt lat="49.12126" lon="-0.19308">
        <ele>25.9</ele>
        <time>2024-02-04T10:25:49Z</time>
      </trkpt>
      <trkpt lat="49.12124" lon="-0.19297">
        <ele>25.9</ele>
        <time>2024-02-04T10:25:50Z</time>
      </trkpt>
      <trkpt lat="49.12123" lon="-0.19285">
        <ele>25.9</ele>
        <time>2024-02-04T10:25:51Z</time>
      </trkpt>
      <trkpt lat="49.12121" lon="-0.19274">
        <ele>25.9</ele>
        <time>2024-02-04T10:25:52Z</time>
      </trkpt>
      <trkpt lat="49.12119" lon="-0.19262">
        <ele>25.9</ele>
        <time>2024-02-04T10:25:53Z</time>
      </trkpt>
      <trkpt lat="49.12117" lon="-0.19251">
        <ele>25.9</ele>
        <time>2024-02-04T10:25:54Z</time>
      </trkpt>
      <trkpt lat="49.12115" lon="-0.19239">
        <ele>25.9</ele>
        <time>2024-02-04T10:25:55Z</time>
      </trkpt>
      <trkpt lat="49.12113" lon="-0.19228">
        <ele>25.9</ele>
        <time>2024-02-04T10:25:56Z</time>
      </trkpt>
      <trkpt lat="49.12111" lon="-0.19216">
        <ele>26</ele>
        <time>2024-02-04T10:25:57Z</time>
      </trkpt>
      <trkpt lat="49.12109" lon="-0.19205">
        <ele>26</ele>
        <time>2024-02-04T10:25:58Z</time>
      </trkpt>
      <trkpt lat="49.12106" lon="-0.19195">
        <ele>26.2</ele>
        <time>2024-02-04T10:25:59Z</time>
      </trkpt>
      <trkpt lat="49.12103" lon="-0.19185">
        <ele>26.3</ele>
        <time>2024-02-04T10:26:00Z</time>
      </trkpt>
      <trkpt lat="49.12099" lon="-0.19176">
        <ele>26.3</ele>
        <time>2024-02-04T10:26:01Z</time>
      </trkpt>
      <trkpt lat="49.12094" lon="-0.19169">
        <ele>26.4</ele>
        <time>2024-02-04T10:26:02Z</time>
      </trkpt>
      <trkpt lat="49.12088" lon="-0.19165">
        <ele>26.4</ele>
        <time>2024-02-04T10:26:03Z</time>
      </trkpt>
      <trkpt lat="49.12082" lon="-0.19161">
        <ele>26.3</ele>
        <time>2024-02-04T10:26:04Z</time>
      </trkpt>
      <trkpt lat="49.12075" lon="-0.19156">
        <ele>26.3</ele>
        <time>2024-02-04T10:26:05Z</time>
      </trkpt>
      <trkpt lat="49.1207" lon="-0.1915">
        <ele>26.3</ele>
        <time>2024-02-04T10:26:06Z</time>
      </trkpt>
      <trkpt lat="49.12065" lon="-0.19142">
        <ele>26.3</ele>
        <time>2024-02-04T10:26:07Z</time>
      </trkpt>
      <trkpt lat="49.12061" lon="-0.19132">
        <ele>26.3</ele>
        <time>2024-02-04T10:26:08Z</time>
      </trkpt>
      <trkpt lat="49.12058" lon="-0.19121">
        <ele>26.2</ele>
        <time>2024-02-04T10:26:09Z</time>
      </trkpt>
      <trkpt lat="49.12057" lon="-0.1911">
        <ele>26.2</ele>
        <time>2024-02-04T10:26:10Z</time>
      </trkpt>
      <trkpt lat="49.12057" lon="-0.19098">
        <ele>26.2</ele>
        <time>2024-02-04T10:26:11Z</time>
      </trkpt>
      <trkpt lat="49.12058" lon="-0.19086">
        <ele>26.2</ele>
        <time>2024-02-04T10:26:12Z</time>
      </trkpt>
      <trkpt lat="49.12062" lon="-0.19075">
        <ele>26.2</ele>
        <time>2024-02-04T10:26:13Z</time>
      </trkpt>
      <trkpt lat="49.12067" lon="-0.19066">
        <ele>26.2</ele>
        <time>2024-02-04T10:26:14Z</time>
      </trkpt>
      <trkpt lat="49.12073" lon="-0.19058">
        <ele>26.3</ele>
        <time>2024-02-04T10:26:15Z</time>
      </trkpt>
      <trkpt lat="49.1208" lon="-0.19053">
        <ele>26.3</ele>
        <time>2024-02-04T10:26:16Z</time>
      </trkpt>
      <trkpt lat="49.12087" lon="-0.19049">
        <ele>26.3</ele>
        <time>2024-02-04T10:26:17Z</time>
      </trkpt>
      <trkpt lat="49.12094" lon="-0.19047">
        <ele>26.4</ele>
        <time>2024-02-04T10:26:18Z</time>
      </trkpt>
      <trkpt lat="49.12101" lon="-0.19045">
        <ele>26.4</ele>
        <time>2024-02-04T10:26:19Z</time>
      </trkpt>
      <trkpt lat="49.12108" lon="-0.19043">
        <ele>26.4</ele>
        <time>2024-02-04T10:26:20Z</time>
      </trkpt>
      <trkpt lat="49.12114" lon="-0.19038">
        <ele>26.3</ele>
        <time>2024-02-04T10:26:21Z</time>
      </trkpt>
      <trkpt lat="49.1212" lon="-0.19031">
        <ele>26.2</ele>
        <time>2024-02-04T10:26:22Z</time>
      </trkpt>
      <trkpt lat="49.12126" lon="-0.19022">
        <ele>26.1</ele>
        <time>2024-02-04T10:26:23Z</time>
      </trkpt>
      <trkpt lat="49.12131" lon="-0.19012">
        <ele>25.9</ele>
        <time>2024-02-04T10:26:24Z</time>
      </trkpt>
      <trkpt lat="49.12135" lon="-0.19001">
        <ele>25.9</ele>
        <time>2024-02-04T10:26:25Z</time>
      </trkpt>
      <trkpt lat="49.12141" lon="-0.1899">
        <ele>25.8</ele>
        <time>2024-02-04T10:26:26Z</time>
      </trkpt>
      <trkpt lat="49.12146" lon="-0.18979">
        <ele>25.7</ele>
        <time>2024-02-04T10:26:27Z</time>
      </trkpt>
      <trkpt lat="49.12152" lon="-0.18969">
        <ele>25.6</ele>
        <time>2024-02-04T10:26:28Z</time>
      </trkpt>
      <trkpt lat="49.12158" lon="-0.18959">
        <ele>25.5</ele>
        <time>2024-02-04T10:26:29Z</time>
      </trkpt>
      <trkpt lat="49.12165" lon="-0.1895">
        <ele>25.4</ele>
        <time>2024-02-04T10:26:30Z</time>
      </trkpt>
      <trkpt lat="49.12172" lon="-0.18942">
        <ele>25.3</ele>
        <time>2024-02-04T10:26:31Z</time>
      </trkpt>
      <trkpt lat="49.1218" lon="-0.18935">
        <ele>25.1</ele>
        <time>2024-02-04T10:26:32Z</time>
      </trkpt>
      <trkpt lat="49.12188" lon="-0.1893">
        <ele>25</ele>
        <time>2024-02-04T10:26:33Z</time>
      </trkpt>
      <trkpt lat="49.12196" lon="-0.18924">
        <ele>24.9</ele>
        <time>2024-02-04T10:26:34Z</time>
      </trkpt>
      <trkpt lat="49.12205" lon="-0.1892">
        <ele>24.8</ele>
        <time>2024-02-04T10:26:35Z</time>
      </trkpt>
      <trkpt lat="49.12213" lon="-0.18916">
        <ele>24.8</ele>
        <time>2024-02-04T10:26:36Z</time>
      </trkpt>
      <trkpt lat="49.12221" lon="-0.18913">
        <ele>24.7</ele>
        <time>2024-02-04T10:26:37Z</time>
      </trkpt>
      <trkpt lat="49.1223" lon="-0.18911">
        <ele>24.6</ele>
        <time>2024-02-04T10:26:38Z</time>
      </trkpt>
      <trkpt lat="49.12238" lon="-0.18908">
        <ele>24.6</ele>
        <time>2024-02-04T10:26:39Z</time>
      </trkpt>
      <trkpt lat="49.12246" lon="-0.18905">
        <ele>24.5</ele>
        <time>2024-02-04T10:26:40Z</time>
      </trkpt>
      <trkpt lat="49.12255" lon="-0.18901">
        <ele>24.4</ele>
        <time>2024-02-04T10:26:41Z</time>
      </trkpt>
      <trkpt lat="49.12264" lon="-0.18898">
        <ele>24.4</ele>
        <time>2024-02-04T10:26:42Z</time>
      </trkpt>
      <trkpt lat="49.12273" lon="-0.18895">
        <ele>24.3</ele>
        <time>2024-02-04T10:26:43Z</time>
      </trkpt>
      <trkpt lat="49.12282" lon="-0.18892">
        <ele>24.2</ele>
        <time>2024-02-04T10:26:44Z</time>
      </trkpt>
      <trkpt lat="49.12291" lon="-0.18889">
        <ele>24.1</ele>
        <time>2024-02-04T10:26:45Z</time>
      </trkpt>
      <trkpt lat="49.123" lon="-0.18886">
        <ele>24</ele>
        <time>2024-02-04T10:26:46Z</time>
      </trkpt>
      <trkpt lat="49.1231" lon="-0.18883">
        <ele>23.9</ele>
        <time>2024-02-04T10:26:47Z</time>
      </trkpt>
      <trkpt lat="49.12319" lon="-0.18879">
        <ele>23.8</ele>
        <time>2024-02-04T10:26:48Z</time>
      </trkpt>
      <trkpt lat="49.12328" lon="-0.18876">
        <ele>23.7</ele>
        <time>2024-02-04T10:26:49Z</time>
      </trkpt>
      <trkpt lat="49.12338" lon="-0.18873">
        <ele>23.6</ele>
        <time>2024-02-04T10:26:50Z</time>
      </trkpt>
      <trkpt lat="49.12347" lon="-0.18869">
        <ele>23.5</ele>
        <time>2024-02-04T10:26:51Z</time>
      </trkpt>
      <trkpt lat="49.12355" lon="-0.18864">
        <ele>23.4</ele>
        <time>2024-02-04T10:26:52Z</time>
      </trkpt>
      <trkpt lat="49.12364" lon="-0.18858">
        <ele>23.3</ele>
        <time>2024-02-04T10:26:53Z</time>
      </trkpt>
      <trkpt lat="49.12372" lon="-0.18851">
        <ele>23.2</ele>
        <time>2024-02-04T10:26:54Z</time>
      </trkpt>
      <trkpt lat="49.1238" lon="-0.18841">
        <ele>23.1</ele>
        <time>2024-02-04T10:26:55Z</time>
      </trkpt>
      <trkpt lat="49.12388" lon="-0.1883">
        <ele>22.9</ele>
        <time>2024-02-04T10:26:56Z</time>
      </trkpt>
      <trkpt lat="49.12395" lon="-0.18819">
        <ele>22.8</ele>
        <time>2024-02-04T10:26:57Z</time>
      </trkpt>
      <trkpt lat="49.12401" lon="-0.18806">
        <ele>22.6</ele>
        <time>2024-02-04T10:26:58Z</time>
      </trkpt>
      <trkpt lat="49.12407" lon="-0.18793">
        <ele>22.5</ele>
        <time>2024-02-04T10:26:59Z</time>
      </trkpt>
      <trkpt lat="49.12411" lon="-0.18778">
        <ele>22.3</ele>
        <time>2024-02-04T10:27:00Z</time>
      </trkpt>
      <trkpt lat="49.12415" lon="-0.18764">
        <ele>22.1</ele>
        <time>2024-02-04T10:27:01Z</time>
      </trkpt>
      <trkpt lat="49.12417" lon="-0.18749">
        <ele>22</ele>
        <time>2024-02-04T10:27:02Z</time>
      </trkpt>
      <trkpt lat="49.1242" lon="-0.18733">
        <ele>21.9</ele>
        <time>2024-02-04T10:27:03Z</time>
      </trkpt>
      <trkpt lat="49.12422" lon="-0.18719">
        <ele>21.8</ele>
        <time>2024-02-04T10:27:04Z</time>
      </trkpt>
      <trkpt lat="49.12425" lon="-0.18704">
        <ele>21.7</ele>
        <time>2024-02-04T10:27:05Z</time>
      </trkpt>
      <trkpt lat="49.12427" lon="-0.1869">
        <ele>21.7</ele>
        <time>2024-02-04T10:27:06Z</time>
      </trkpt>
      <trkpt lat="49.1243" lon="-0.18675">
        <ele>21.5</ele>
        <time>2024-02-04T10:27:07Z</time>
      </trkpt>
      <trkpt lat="49.12433" lon="-0.18661">
        <ele>21.4</ele>
        <time>2024-02-04T10:27:08Z</time>
      </trkpt>
      <trkpt lat="49.12435" lon="-0.18645">
        <ele>21.3</ele>
        <time>2024-02-04T10:27:09Z</time>
      </trkpt>
      <trkpt lat="49.12438" lon="-0.1863">
        <ele>21.2</ele>
        <time>2024-02-04T10:27:10Z</time>
      </trkpt>
      <trkpt lat="49.12441" lon="-0.18615">
        <ele>21</ele>
        <time>2024-02-04T10:27:11Z</time>
      </trkpt>
      <trkpt lat="49.12443" lon="-0.186">
        <ele>20.8</ele>
        <time>2024-02-04T10:27:12Z</time>
      </trkpt>
      <trkpt lat="49.12446" lon="-0.18585">
        <ele>20.7</ele>
        <time>2024-02-04T10:27:13Z</time>
      </trkpt>
      <trkpt lat="49.12448" lon="-0.18569">
        <ele>20.6</ele>
        <time>2024-02-04T10:27:14Z</time>
      </trkpt>
      <trkpt lat="49.12451" lon="-0.18554">
        <ele>20.5</ele>
        <time>2024-02-04T10:27:15Z</time>
      </trkpt>
      <trkpt lat="49.12453" lon="-0.18538">
        <ele>20.4</ele>
        <time>2024-02-04T10:27:16Z</time>
      </trkpt>
      <trkpt lat="49.12456" lon="-0.18523">
        <ele>20.4</ele>
        <time>2024-02-04T10:27:17Z</time>
      </trkpt>
      <trkpt lat="49.12458" lon="-0.18507">
        <ele>20.5</ele>
        <time>2024-02-04T10:27:18Z</time>
      </trkpt>
      <trkpt lat="49.1246" lon="-0.18492">
        <ele>20.5</ele>
        <time>2024-02-04T10:27:19Z</time>
      </trkpt>
      <trkpt lat="49.12463" lon="-0.18477">
        <ele>20.6</ele>
        <time>2024-02-04T10:27:20Z</time>
      </trkpt>
      <trkpt lat="49.12467" lon="-0.18463">
        <ele>20.7</ele>
        <time>2024-02-04T10:27:21Z</time>
      </trkpt>
      <trkpt lat="49.1247" lon="-0.18449">
        <ele>20.8</ele>
        <time>2024-02-04T10:27:22Z</time>
      </trkpt>
      <trkpt lat="49.12474" lon="-0.18436">
        <ele>20.8</ele>
        <time>2024-02-04T10:27:23Z</time>
      </trkpt>
      <trkpt lat="49.12478" lon="-0.18423">
        <ele>20.8</ele>
        <time>2024-02-04T10:27:24Z</time>
      </trkpt>
      <trkpt lat="49.12481" lon="-0.18409">
        <ele>20.8</ele>
        <time>2024-02-04T10:27:25Z</time>
      </trkpt>
      <trkpt lat="49.12485" lon="-0.18395">
        <ele>20.8</ele>
        <time>2024-02-04T10:27:26Z</time>
      </trkpt>
      <trkpt lat="49.12489" lon="-0.18382">
        <ele>20.7</ele>
        <time>2024-02-04T10:27:27Z</time>
      </trkpt>
      <trkpt lat="49.12492" lon="-0.18367">
        <ele>20.8</ele>
        <time>2024-02-04T10:27:28Z</time>
      </trkpt>
      <trkpt lat="49.12494" lon="-0.18353">
        <ele>20.8</ele>
        <time>2024-02-04T10:27:29Z</time>
      </trkpt>
      <trkpt lat="49.12497" lon="-0.18339">
        <ele>20.8</ele>
        <time>2024-02-04T10:27:30Z</time>
      </trkpt>
      <trkpt lat="49.125" lon="-0.18325">
        <ele>20.7</ele>
        <time>2024-02-04T10:27:31Z</time>
      </trkpt>
      <trkpt lat="49.12502" lon="-0.18311">
        <ele>20.7</ele>
        <time>2024-02-04T10:27:32Z</time>
      </trkpt>
      <trkpt lat="49.12505" lon="-0.18296">
        <ele>20.7</ele>
        <time>2024-02-04T10:27:33Z</time>
      </trkpt>
      <trkpt lat="49.12508" lon="-0.18283">
        <ele>20.7</ele>
        <time>2024-02-04T10:27:34Z</time>
      </trkpt>
      <trkpt lat="49.12511" lon="-0.18269">
        <ele>20.7</ele>
        <time>2024-02-04T10:27:35Z</time>
      </trkpt>
      <trkpt lat="49.12514" lon="-0.18254">
        <ele>20.6</ele>
        <time>2024-02-04T10:27:36Z</time>
      </trkpt>
      <trkpt lat="49.12517" lon="-0.1824">
        <ele>20.5</ele>
        <time>2024-02-04T10:27:37Z</time>
      </trkpt>
      <trkpt lat="49.1252" lon="-0.18226">
        <ele>20.4</ele>
        <time>2024-02-04T10:27:38Z</time>
      </trkpt>
      <trkpt lat="49.12522" lon="-0.18213">
        <ele>20.3</ele>
        <time>2024-02-04T10:27:39Z</time>
      </trkpt>
      <trkpt lat="49.12525" lon="-0.18199">
        <ele>20.2</ele>
        <time>2024-02-04T10:27:40Z</time>
      </trkpt>
      <trkpt lat="49.12528" lon="-0.18185">
        <ele>20.1</ele>
        <time>2024-02-04T10:27:41Z</time>
      </trkpt>
      <trkpt lat="49.12531" lon="-0.18171">
        <ele>20</ele>
        <time>2024-02-04T10:27:42Z</time>
      </trkpt>
      <trkpt lat="49.12534" lon="-0.18157">
        <ele>19.9</ele>
        <time>2024-02-04T10:27:43Z</time>
      </trkpt>
      <trkpt lat="49.12536" lon="-0.18142">
        <ele>19.8</ele>
        <time>2024-02-04T10:27:44Z</time>
      </trkpt>
      <trkpt lat="49.12538" lon="-0.18128">
        <ele>19.6</ele>
        <time>2024-02-04T10:27:45Z</time>
      </trkpt>
      <trkpt lat="49.12541" lon="-0.18113">
        <ele>19.5</ele>
        <time>2024-02-04T10:27:46Z</time>
      </trkpt>
      <trkpt lat="49.12543" lon="-0.18098">
        <ele>19.4</ele>
        <time>2024-02-04T10:27:47Z</time>
      </trkpt>
      <trkpt lat="49.12544" lon="-0.18083">
        <ele>19.3</ele>
        <time>2024-02-04T10:27:48Z</time>
      </trkpt>
      <trkpt lat="49.12546" lon="-0.18068">
        <ele>19.2</ele>
        <time>2024-02-04T10:27:49Z</time>
      </trkpt>
      <trkpt lat="49.12547" lon="-0.18052">
        <ele>19.1</ele>
        <time>2024-02-04T10:27:50Z</time>
      </trkpt>
      <trkpt lat="49.12549" lon="-0.18037">
        <ele>19.1</ele>
        <time>2024-02-04T10:27:51Z</time>
      </trkpt>
      <trkpt lat="49.1255" lon="-0.18021">
        <ele>19</ele>
        <time>2024-02-04T10:27:52Z</time>
      </trkpt>
      <trkpt lat="49.12552" lon="-0.18006">
        <ele>19</ele>
        <time>2024-02-04T10:27:53Z</time>
      </trkpt>
      <trkpt lat="49.12553" lon="-0.17991">
        <ele>18.9</ele>
        <time>2024-02-04T10:27:54Z</time>
      </trkpt>
      <trkpt lat="49.12554" lon="-0.17975">
        <ele>18.9</ele>
        <time>2024-02-04T10:27:55Z</time>
      </trkpt>
      <trkpt lat="49.12555" lon="-0.1796">
        <ele>18.9</ele>
        <time>2024-02-04T10:27:56Z</time>
      </trkpt>
      <trkpt lat="49.12557" lon="-0.17945">
        <ele>18.9</ele>
        <time>2024-02-04T10:27:57Z</time>
      </trkpt>
      <trkpt lat="49.12558" lon="-0.17929">
        <ele>18.9</ele>
        <time>2024-02-04T10:27:58Z</time>
      </trkpt>
      <trkpt lat="49.12559" lon="-0.17914">
        <ele>18.9</ele>
        <time>2024-02-04T10:27:59Z</time>
      </trkpt>
      <trkpt lat="49.1256" lon="-0.17899">
        <ele>18.9</ele>
        <time>2024-02-04T10:28:00Z</time>
      </trkpt>
      <trkpt lat="49.12561" lon="-0.17884">
        <ele>19</ele>
        <time>2024-02-04T10:28:01Z</time>
      </trkpt>
      <trkpt lat="49.12561" lon="-0.17869">
        <ele>19</ele>
        <time>2024-02-04T10:28:02Z</time>
      </trkpt>
      <trkpt lat="49.12562" lon="-0.17854">
        <ele>19.1</ele>
        <time>2024-02-04T10:28:03Z</time>
      </trkpt>
      <trkpt lat="49.12561" lon="-0.17839">
        <ele>19.1</ele>
        <time>2024-02-04T10:28:04Z</time>
      </trkpt>
      <trkpt lat="49.12561" lon="-0.17824">
        <ele>19.1</ele>
        <time>2024-02-04T10:28:05Z</time>
      </trkpt>
      <trkpt lat="49.12561" lon="-0.17809">
        <ele>19.1</ele>
        <time>2024-02-04T10:28:06Z</time>
      </trkpt>
      <trkpt lat="49.12561" lon="-0.17794">
        <ele>19.1</ele>
        <time>2024-02-04T10:28:07Z</time>
      </trkpt>
      <trkpt lat="49.12561" lon="-0.17779">
        <ele>19.1</ele>
        <time>2024-02-04T10:28:08Z</time>
      </trkpt>
      <trkpt lat="49.12562" lon="-0.17765">
        <ele>19.1</ele>
        <time>2024-02-04T10:28:09Z</time>
      </trkpt>
      <trkpt lat="49.12562" lon="-0.17751">
        <ele>19.1</ele>
        <time>2024-02-04T10:28:10Z</time>
      </trkpt>
      <trkpt lat="49.12563" lon="-0.17737">
        <ele>19.1</ele>
        <time>2024-02-04T10:28:11Z</time>
      </trkpt>
      <trkpt lat="49.12564" lon="-0.17723">
        <ele>19.1</ele>
        <time>2024-02-04T10:28:12Z</time>
      </trkpt>
      <trkpt lat="49.12565" lon="-0.17709">
        <ele>19.1</ele>
        <time>2024-02-04T10:28:13Z</time>
      </trkpt>
      <trkpt lat="49.12565" lon="-0.17695">
        <ele>19.1</ele>
        <time>2024-02-04T10:28:14Z</time>
      </trkpt>
      <trkpt lat="49.12565" lon="-0.1768">
        <ele>19.1</ele>
        <time>2024-02-04T10:28:15Z</time>
      </trkpt>
      <trkpt lat="49.12564" lon="-0.17665">
        <ele>19.1</ele>
        <time>2024-02-04T10:28:16Z</time>
      </trkpt>
      <trkpt lat="49.12563" lon="-0.1765">
        <ele>19.1</ele>
        <time>2024-02-04T10:28:17Z</time>
      </trkpt>
      <trkpt lat="49.12563" lon="-0.17636">
        <ele>19.1</ele>
        <time>2024-02-04T10:28:18Z</time>
      </trkpt>
      <trkpt lat="49.12562" lon="-0.17621">
        <ele>19.1</ele>
        <time>2024-02-04T10:28:19Z</time>
      </trkpt>
      <trkpt lat="49.12561" lon="-0.17607">
        <ele>19.1</ele>
        <time>2024-02-04T10:28:20Z</time>
      </trkpt>
      <trkpt lat="49.12561" lon="-0.17592">
        <ele>19.1</ele>
        <time>2024-02-04T10:28:21Z</time>
      </trkpt>
      <trkpt lat="49.12561" lon="-0.17579">
        <ele>19.1</ele>
        <time>2024-02-04T10:28:22Z</time>
      </trkpt>
      <trkpt lat="49.12563" lon="-0.17566">
        <ele>19</ele>
        <time>2024-02-04T10:28:23Z</time>
      </trkpt>
      <trkpt lat="49.12564" lon="-0.17553">
        <ele>19</ele>
        <time>2024-02-04T10:28:24Z</time>
      </trkpt>
      <trkpt lat="49.12566" lon="-0.17539">
        <ele>19</ele>
        <time>2024-02-04T10:28:25Z</time>
      </trkpt>
      <trkpt lat="49.12568" lon="-0.17525">
        <ele>19</ele>
        <time>2024-02-04T10:28:26Z</time>
      </trkpt>
      <trkpt lat="49.12569" lon="-0.17511">
        <ele>19</ele>
        <time>2024-02-04T10:28:27Z</time>
      </trkpt>
      <trkpt lat="49.1257" lon="-0.17498">
        <ele>19</ele>
        <time>2024-02-04T10:28:28Z</time>
      </trkpt>
      <trkpt lat="49.12571" lon="-0.17484">
        <ele>19</ele>
        <time>2024-02-04T10:28:29Z</time>
      </trkpt>
      <trkpt lat="49.12573" lon="-0.1747">
        <ele>19</ele>
        <time>2024-02-04T10:28:30Z</time>
      </trkpt>
      <trkpt lat="49.12575" lon="-0.17456">
        <ele>19</ele>
        <time>2024-02-04T10:28:31Z</time>
      </trkpt>
      <trkpt lat="49.12578" lon="-0.17443">
        <ele>19</ele>
        <time>2024-02-04T10:28:32Z</time>
      </trkpt>
      <trkpt lat="49.1258" lon="-0.17428">
        <ele>19</ele>
        <time>2024-02-04T10:28:33Z</time>
      </trkpt>
      <trkpt lat="49.12583" lon="-0.17414">
        <ele>19</ele>
        <time>2024-02-04T10:28:34Z</time>
      </trkpt>
      <trkpt lat="49.12585" lon="-0.174">
        <ele>19.1</ele>
        <time>2024-02-04T10:28:35Z</time>
      </trkpt>
      <trkpt lat="49.12588" lon="-0.17387">
        <ele>19.1</ele>
        <time>2024-02-04T10:28:36Z</time>
      </trkpt>
      <trkpt lat="49.12591" lon="-0.17373">
        <ele>19.1</ele>
        <time>2024-02-04T10:28:37Z</time>
      </trkpt>
      <trkpt lat="49.12593" lon="-0.1736">
        <ele>19.1</ele>
        <time>2024-02-04T10:28:38Z</time>
      </trkpt>
      <trkpt lat="49.12596" lon="-0.17347">
        <ele>19.1</ele>
        <time>2024-02-04T10:28:39Z</time>
      </trkpt>
      <trkpt lat="49.12598" lon="-0.17334">
        <ele>19.1</ele>
        <time>2024-02-04T10:28:40Z</time>
      </trkpt>
      <trkpt lat="49.12601" lon="-0.17321">
        <ele>19.1</ele>
        <time>2024-02-04T10:28:41Z</time>
      </trkpt>
      <trkpt lat="49.12604" lon="-0.17307">
        <ele>19.1</ele>
        <time>2024-02-04T10:28:42Z</time>
      </trkpt>
      <trkpt lat="49.12606" lon="-0.17294">
        <ele>19.1</ele>
        <time>2024-02-04T10:28:43Z</time>
      </trkpt>
      <trkpt lat="49.12609" lon="-0.17281">
        <ele>19.1</ele>
        <time>2024-02-04T10:28:44Z</time>
      </trkpt>
      <trkpt lat="49.12612" lon="-0.17269">
        <ele>19</ele>
        <time>2024-02-04T10:28:45Z</time>
      </trkpt>
      <trkpt lat="49.12614" lon="-0.17257">
        <ele>19</ele>
        <time>2024-02-04T10:28:46Z</time>
      </trkpt>
      <trkpt lat="49.12617" lon="-0.17245">
        <ele>18.9</ele>
        <time>2024-02-04T10:28:47Z</time>
      </trkpt>
      <trkpt lat="49.12619" lon="-0.17232">
        <ele>18.9</ele>
        <time>2024-02-04T10:28:48Z</time>
      </trkpt>
      <trkpt lat="49.12621" lon="-0.1722">
        <ele>18.8</ele>
        <time>2024-02-04T10:28:49Z</time>
      </trkpt>
      <trkpt lat="49.12624" lon="-0.17207">
        <ele>18.8</ele>
        <time>2024-02-04T10:28:50Z</time>
      </trkpt>
      <trkpt lat="49.12626" lon="-0.17195">
        <ele>18.7</ele>
        <time>2024-02-04T10:28:51Z</time>
      </trkpt>
      <trkpt lat="49.12628" lon="-0.17182">
        <ele>18.7</ele>
        <time>2024-02-04T10:28:52Z</time>
      </trkpt>
      <trkpt lat="49.12631" lon="-0.17169">
        <ele>18.6</ele>
        <time>2024-02-04T10:28:53Z</time>
      </trkpt>
      <trkpt lat="49.12633" lon="-0.17157">
        <ele>18.5</ele>
        <time>2024-02-04T10:28:54Z</time>
      </trkpt>
      <trkpt lat="49.12634" lon="-0.17144">
        <ele>18.5</ele>
        <time>2024-02-04T10:28:55Z</time>
      </trkpt>
      <trkpt lat="49.12636" lon="-0.17132">
        <ele>18.4</ele>
        <time>2024-02-04T10:28:56Z</time>
      </trkpt>
      <trkpt lat="49.12638" lon="-0.1712">
        <ele>18.3</ele>
        <time>2024-02-04T10:28:57Z</time>
      </trkpt>
      <trkpt lat="49.12639" lon="-0.17109">
        <ele>18.2</ele>
        <time>2024-02-04T10:28:58Z</time>
      </trkpt>
      <trkpt lat="49.12641" lon="-0.17098">
        <ele>18.1</ele>
        <time>2024-02-04T10:28:59Z</time>
      </trkpt>
      <trkpt lat="49.12642" lon="-0.17086">
        <ele>18</ele>
        <time>2024-02-04T10:29:00Z</time>
      </trkpt>
      <trkpt lat="49.12644" lon="-0.17074">
        <ele>17.9</ele>
        <time>2024-02-04T10:29:01Z</time>
      </trkpt>
      <trkpt lat="49.12645" lon="-0.17062">
        <ele>17.8</ele>
        <time>2024-02-04T10:29:02Z</time>
      </trkpt>
      <trkpt lat="49.12647" lon="-0.1705">
        <ele>17.6</ele>
        <time>2024-02-04T10:29:03Z</time>
      </trkpt>
      <trkpt lat="49.12649" lon="-0.17037">
        <ele>17.5</ele>
        <time>2024-02-04T10:29:04Z</time>
      </trkpt>
      <trkpt lat="49.12649" lon="-0.17024">
        <ele>17.4</ele>
        <time>2024-02-04T10:29:05Z</time>
      </trkpt>
      <trkpt lat="49.1265" lon="-0.1701">
        <ele>17.2</ele>
        <time>2024-02-04T10:29:06Z</time>
      </trkpt>
      <trkpt lat="49.12651" lon="-0.16997">
        <ele>17.1</ele>
        <time>2024-02-04T10:29:07Z</time>
      </trkpt>
      <trkpt lat="49.12652" lon="-0.16983">
        <ele>17</ele>
        <time>2024-02-04T10:29:08Z</time>
      </trkpt>
      <trkpt lat="49.12653" lon="-0.16971">
        <ele>16.9</ele>
        <time>2024-02-04T10:29:09Z</time>
      </trkpt>
      <trkpt lat="49.12654" lon="-0.16958">
        <ele>16.8</ele>
        <time>2024-02-04T10:29:10Z</time>
      </trkpt>
      <trkpt lat="49.12656" lon="-0.16945">
        <ele>16.7</ele>
        <time>2024-02-04T10:29:11Z</time>
      </trkpt>
      <trkpt lat="49.12657" lon="-0.16932">
        <ele>16.6</ele>
        <time>2024-02-04T10:29:12Z</time>
      </trkpt>
      <trkpt lat="49.12657" lon="-0.16921">
        <ele>16.5</ele>
        <time>2024-02-04T10:29:13Z</time>
      </trkpt>
      <trkpt lat="49.12657" lon="-0.16913">
        <ele>16.4</ele>
        <time>2024-02-04T10:29:14Z</time>
      </trkpt>
      <trkpt lat="49.12655" lon="-0.16907">
        <ele>16.4</ele>
        <time>2024-02-04T10:29:15Z</time>
      </trkpt>
      <trkpt lat="49.12653" lon="-0.16902">
        <ele>16.3</ele>
        <time>2024-02-04T10:29:16Z</time>
      </trkpt>
      <trkpt lat="49.12651" lon="-0.16896">
        <ele>16.3</ele>
        <time>2024-02-04T10:29:17Z</time>
      </trkpt>
      <trkpt lat="49.12652" lon="-0.16889">
        <ele>16.2</ele>
        <time>2024-02-04T10:29:18Z</time>
      </trkpt>
      <trkpt lat="49.12655" lon="-0.16881">
        <ele>16.1</ele>
        <time>2024-02-04T10:29:19Z</time>
      </trkpt>
      <trkpt lat="49.12659" lon="-0.16874">
        <ele>16</ele>
        <time>2024-02-04T10:29:20Z</time>
      </trkpt>
      <trkpt lat="49.12662" lon="-0.16866">
        <ele>15.8</ele>
        <time>2024-02-04T10:29:21Z</time>
      </trkpt>
      <trkpt lat="49.12663" lon="-0.16856">
        <ele>15.6</ele>
        <time>2024-02-04T10:29:22Z</time>
      </trkpt>
      <trkpt lat="49.12664" lon="-0.16846">
        <ele>15.5</ele>
        <time>2024-02-04T10:29:23Z</time>
      </trkpt>
      <trkpt lat="49.12666" lon="-0.16836">
        <ele>15.4</ele>
        <time>2024-02-04T10:29:24Z</time>
      </trkpt>
      <trkpt lat="49.12667" lon="-0.16825">
        <ele>15.2</ele>
        <time>2024-02-04T10:29:25Z</time>
      </trkpt>
      <trkpt lat="49.12667" lon="-0.16815">
        <ele>15.1</ele>
        <time>2024-02-04T10:29:26Z</time>
      </trkpt>
      <trkpt lat="49.12668" lon="-0.16805">
        <ele>15.1</ele>
        <time>2024-02-04T10:29:27Z</time>
      </trkpt>
      <trkpt lat="49.12669" lon="-0.16795">
        <ele>15</ele>
        <time>2024-02-04T10:29:28Z</time>
      </trkpt>
      <trkpt lat="49.1267" lon="-0.16785">
        <ele>15</ele>
        <time>2024-02-04T10:29:29Z</time>
      </trkpt>
      <trkpt lat="49.12671" lon="-0.16775">
        <ele>14.9</ele>
        <time>2024-02-04T10:29:30Z</time>
      </trkpt>
      <trkpt lat="49.12673" lon="-0.16766">
        <ele>14.9</ele>
        <time>2024-02-04T10:29:31Z</time>
      </trkpt>
      <trkpt lat="49.12674" lon="-0.16756">
        <ele>14.9</ele>
        <time>2024-02-04T10:29:32Z</time>
      </trkpt>
      <trkpt lat="49.12675" lon="-0.16746">
        <ele>14.8</ele>
        <time>2024-02-04T10:29:33Z</time>
      </trkpt>
      <trkpt lat="49.12676" lon="-0.16736">
        <ele>14.8</ele>
        <time>2024-02-04T10:29:34Z</time>
      </trkpt>
      <trkpt lat="49.12677" lon="-0.16726">
        <ele>14.8</ele>
        <time>2024-02-04T10:29:35Z</time>
      </trkpt>
      <trkpt lat="49.12677" lon="-0.16715">
        <ele>14.8</ele>
        <time>2024-02-04T10:29:36Z</time>
      </trkpt>
      <trkpt lat="49.12679" lon="-0.16705">
        <ele>14.7</ele>
        <time>2024-02-04T10:29:37Z</time>
      </trkpt>
      <trkpt lat="49.1268" lon="-0.16695">
        <ele>14.7</ele>
        <time>2024-02-04T10:29:38Z</time>
      </trkpt>
      <trkpt lat="49.1268" lon="-0.16686">
        <ele>14.7</ele>
        <time>2024-02-04T10:29:39Z</time>
      </trkpt>
      <trkpt lat="49.1268" lon="-0.16677">
        <ele>14.7</ele>
        <time>2024-02-04T10:29:40Z</time>
      </trkpt>
      <trkpt lat="49.12678" lon="-0.1667">
        <ele>14.8</ele>
        <time>2024-02-04T10:29:41Z</time>
      </trkpt>
      <trkpt lat="49.12678" lon="-0.16663">
        <ele>14.9</ele>
        <time>2024-02-04T10:29:42Z</time>
      </trkpt>
      <trkpt lat="49.1268" lon="-0.16658">
        <ele>15</ele>
        <time>2024-02-04T10:29:43Z</time>
      </trkpt>
      <trkpt lat="49.12683" lon="-0.16653">
        <ele>15</ele>
        <time>2024-02-04T10:29:44Z</time>
      </trkpt>
      <trkpt lat="49.12687" lon="-0.16648">
        <ele>15</ele>
        <time>2024-02-04T10:29:45Z</time>
      </trkpt>
      <trkpt lat="49.1269" lon="-0.16641">
        <ele>15.1</ele>
        <time>2024-02-04T10:29:46Z</time>
      </trkpt>
      <trkpt lat="49.12694" lon="-0.16633">
        <ele>15.2</ele>
        <time>2024-02-04T10:29:47Z</time>
      </trkpt>
      <trkpt lat="49.12698" lon="-0.16625">
        <ele>15.3</ele>
        <time>2024-02-04T10:29:48Z</time>
      </trkpt>
      <trkpt lat="49.12702" lon="-0.16617">
        <ele>15.3</ele>
        <time>2024-02-04T10:29:49Z</time>
      </trkpt>
      <trkpt lat="49.12706" lon="-0.16608">
        <ele>15.3</ele>
        <time>2024-02-04T10:29:50Z</time>
      </trkpt>
      <trkpt lat="49.12709" lon="-0.166">
        <ele>15.4</ele>
        <time>2024-02-04T10:29:51Z</time>
      </trkpt>
      <trkpt lat="49.12713" lon="-0.16592">
        <ele>15.4</ele>
        <time>2024-02-04T10:29:52Z</time>
      </trkpt>
      <trkpt lat="49.12717" lon="-0.16584">
        <ele>15.4</ele>
        <time>2024-02-04T10:29:53Z</time>
      </trkpt>
      <trkpt lat="49.12721" lon="-0.16575">
        <ele>15.4</ele>
        <time>2024-02-04T10:29:54Z</time>
      </trkpt>
      <trkpt lat="49.12725" lon="-0.16567">
        <ele>15.4</ele>
        <time>2024-02-04T10:29:55Z</time>
      </trkpt>
      <trkpt lat="49.1273" lon="-0.16558">
        <ele>15.4</ele>
        <time>2024-02-04T10:29:56Z</time>
      </trkpt>
      <trkpt lat="49.12734" lon="-0.1655">
        <ele>15.4</ele>
        <time>2024-02-04T10:29:57Z</time>
      </trkpt>
      <trkpt lat="49.12737" lon="-0.16545">
        <ele>15.4</ele>
        <time>2024-02-04T10:29:58Z</time>
      </trkpt>
      <trkpt lat="49.1274" lon="-0.16539">
        <ele>15.4</ele>
        <time>2024-02-04T10:29:59Z</time>
      </trkpt>
      <trkpt lat="49.12743" lon="-0.16533">
        <ele>15.3</ele>
        <time>2024-02-04T10:30:00Z</time>
      </trkpt>
      <trkpt lat="49.12747" lon="-0.16527">
        <ele>15.3</ele>
        <time>2024-02-04T10:30:01Z</time>
      </trkpt>
      <trkpt lat="49.1275" lon="-0.16521">
        <ele>15.1</ele>
        <time>2024-02-04T10:30:02Z</time>
      </trkpt>
      <trkpt lat="49.12753" lon="-0.16514">
        <ele>15</ele>
        <time>2024-02-04T10:30:03Z</time>
      </trkpt>
      <trkpt lat="49.12757" lon="-0.16508">
        <ele>14.8</ele>
        <time>2024-02-04T10:30:04Z</time>
      </trkpt>
      <trkpt lat="49.12762" lon="-0.16503">
        <ele>14.7</ele>
        <time>2024-02-04T10:30:05Z</time>
      </trkpt>
      <trkpt lat="49.12766" lon="-0.16497">
        <ele>14.6</ele>
        <time>2024-02-04T10:30:06Z</time>
      </trkpt>
      <trkpt lat="49.12771" lon="-0.16491">
        <ele>14.5</ele>
        <time>2024-02-04T10:30:07Z</time>
      </trkpt>
      <trkpt lat="49.12775" lon="-0.16485">
        <ele>14.4</ele>
        <time>2024-02-04T10:30:08Z</time>
      </trkpt>
      <trkpt lat="49.1278" lon="-0.16478">
        <ele>14.3</ele>
        <time>2024-02-04T10:30:09Z</time>
      </trkpt>
      <trkpt lat="49.12785" lon="-0.16471">
        <ele>14.2</ele>
        <time>2024-02-04T10:30:10Z</time>
      </trkpt>
      <trkpt lat="49.12789" lon="-0.16464">
        <ele>14.2</ele>
        <time>2024-02-04T10:30:11Z</time>
      </trkpt>
      <trkpt lat="49.12794" lon="-0.16458">
        <ele>14.1</ele>
        <time>2024-02-04T10:30:12Z</time>
      </trkpt>
      <trkpt lat="49.12799" lon="-0.16451">
        <ele>14</ele>
        <time>2024-02-04T10:30:13Z</time>
      </trkpt>
      <trkpt lat="49.12804" lon="-0.16444">
        <ele>14</ele>
        <time>2024-02-04T10:30:14Z</time>
      </trkpt>
      <trkpt lat="49.12808" lon="-0.16437">
        <ele>14</ele>
        <time>2024-02-04T10:30:15Z</time>
      </trkpt>
      <trkpt lat="49.12813" lon="-0.16431">
        <ele>14</ele>
        <time>2024-02-04T10:30:16Z</time>
      </trkpt>
      <trkpt lat="49.12817" lon="-0.16425">
        <ele>14</ele>
        <time>2024-02-04T10:30:17Z</time>
      </trkpt>
      <trkpt lat="49.12818" lon="-0.1642">
        <ele>14</ele>
        <time>2024-02-04T10:30:18Z</time>
      </trkpt>
      <trkpt lat="49.1282" lon="-0.16416">
        <ele>14</ele>
        <time>2024-02-04T10:30:19Z</time>
      </trkpt>
      <trkpt lat="49.12823" lon="-0.16412">
        <ele>14</ele>
        <time>2024-02-04T10:30:20Z</time>
      </trkpt>
      <trkpt lat="49.12826" lon="-0.1641">
        <ele>14</ele>
        <time>2024-02-04T10:30:21Z</time>
      </trkpt>
      <trkpt lat="49.12831" lon="-0.16411">
        <ele>14</ele>
        <time>2024-02-04T10:30:22Z</time>
      </trkpt>
      <trkpt lat="49.12835" lon="-0.16412">
        <ele>14</ele>
        <time>2024-02-04T10:30:23Z</time>
      </trkpt>
      <trkpt lat="49.12839" lon="-0.16414">
        <ele>14</ele>
        <time>2024-02-04T10:30:24Z</time>
      </trkpt>
      <trkpt lat="49.12843" lon="-0.16415">
        <ele>13.9</ele>
        <time>2024-02-04T10:30:25Z</time>
      </trkpt>
      <trkpt lat="49.12848" lon="-0.16415">
        <ele>13.9</ele>
        <time>2024-02-04T10:30:26Z</time>
      </trkpt>
      <trkpt lat="49.12852" lon="-0.16412">
        <ele>13.8</ele>
        <time>2024-02-04T10:30:27Z</time>
      </trkpt>
      <trkpt lat="49.12856" lon="-0.16406">
        <ele>13.8</ele>
        <time>2024-02-04T10:30:28Z</time>
      </trkpt>
      <trkpt lat="49.12859" lon="-0.16397">
        <ele>13.8</ele>
        <time>2024-02-04T10:30:29Z</time>
      </trkpt>
      <trkpt lat="49.12862" lon="-0.16387">
        <ele>13.8</ele>
        <time>2024-02-04T10:30:30Z</time>
      </trkpt>
      <trkpt lat="49.12864" lon="-0.16378">
        <ele>13.7</ele>
        <time>2024-02-04T10:30:31Z</time>
      </trkpt>
      <trkpt lat="49.12868" lon="-0.16369">
        <ele>13.7</ele>
        <time>2024-02-04T10:30:32Z</time>
      </trkpt>
      <trkpt lat="49.12871" lon="-0.16361">
        <ele>13.7</ele>
        <time>2024-02-04T10:30:33Z</time>
      </trkpt>
      <trkpt lat="49.12875" lon="-0.16353">
        <ele>13.6</ele>
        <time>2024-02-04T10:30:34Z</time>
      </trkpt>
      <trkpt lat="49.12879" lon="-0.16344">
        <ele>13.6</ele>
        <time>2024-02-04T10:30:35Z</time>
      </trkpt>
      <trkpt lat="49.12883" lon="-0.16335">
        <ele>13.6</ele>
        <time>2024-02-04T10:30:36Z</time>
      </trkpt>
      <trkpt lat="49.12887" lon="-0.16325">
        <ele>13.6</ele>
        <time>2024-02-04T10:30:37Z</time>
      </trkpt>
      <trkpt lat="49.12891" lon="-0.16316">
        <ele>13.6</ele>
        <time>2024-02-04T10:30:38Z</time>
      </trkpt>
      <trkpt lat="49.12895" lon="-0.16307">
        <ele>13.6</ele>
        <time>2024-02-04T10:30:39Z</time>
      </trkpt>
      <trkpt lat="49.129" lon="-0.16298">
        <ele>13.6</ele>
        <time>2024-02-04T10:30:40Z</time>
      </trkpt>
      <trkpt lat="49.12905" lon="-0.16289">
        <ele>13.6</ele>
        <time>2024-02-04T10:30:41Z</time>
      </trkpt>
      <trkpt lat="49.12909" lon="-0.1628">
        <ele>13.6</ele>
        <time>2024-02-04T10:30:42Z</time>
      </trkpt>
      <trkpt lat="49.12913" lon="-0.16271">
        <ele>13.6</ele>
        <time>2024-02-04T10:30:43Z</time>
      </trkpt>
      <trkpt lat="49.12918" lon="-0.16262">
        <ele>13.7</ele>
        <time>2024-02-04T10:30:44Z</time>
      </trkpt>
      <trkpt lat="49.12923" lon="-0.16254">
        <ele>13.7</ele>
        <time>2024-02-04T10:30:45Z</time>
      </trkpt>
      <trkpt lat="49.12928" lon="-0.16247">
        <ele>13.8</ele>
        <time>2024-02-04T10:30:46Z</time>
      </trkpt>
      <trkpt lat="49.12934" lon="-0.16241">
        <ele>13.8</ele>
        <time>2024-02-04T10:30:47Z</time>
      </trkpt>
      <trkpt lat="49.12939" lon="-0.16236">
        <ele>13.9</ele>
        <time>2024-02-04T10:30:48Z</time>
      </trkpt>
      <trkpt lat="49.12945" lon="-0.16233">
        <ele>14</ele>
        <time>2024-02-04T10:30:49Z</time>
      </trkpt>
      <trkpt lat="49.12952" lon="-0.16231">
        <ele>14.1</ele>
        <time>2024-02-04T10:30:50Z</time>
      </trkpt>
      <trkpt lat="49.12959" lon="-0.1623">
        <ele>14.2</ele>
        <time>2024-02-04T10:30:51Z</time>
      </trkpt>
      <trkpt lat="49.12966" lon="-0.16231">
        <ele>14.3</ele>
        <time>2024-02-04T10:30:52Z</time>
      </trkpt>
      <trkpt lat="49.12973" lon="-0.16234">
        <ele>14.4</ele>
        <time>2024-02-04T10:30:53Z</time>
      </trkpt>
      <trkpt lat="49.1298" lon="-0.16237">
        <ele>14.5</ele>
        <time>2024-02-04T10:30:54Z</time>
      </trkpt>
      <trkpt lat="49.12987" lon="-0.16241">
        <ele>14.6</ele>
        <time>2024-02-04T10:30:55Z</time>
      </trkpt>
      <trkpt lat="49.12994" lon="-0.16244">
        <ele>14.6</ele>
        <time>2024-02-04T10:30:56Z</time>
      </trkpt>
      <trkpt lat="49.13001" lon="-0.16248">
        <ele>14.7</ele>
        <time>2024-02-04T10:30:57Z</time>
      </trkpt>
      <trkpt lat="49.13007" lon="-0.16252">
        <ele>14.8</ele>
        <time>2024-02-04T10:30:58Z</time>
      </trkpt>
      <trkpt lat="49.13014" lon="-0.16257">
        <ele>14.9</ele>
        <time>2024-02-04T10:30:59Z</time>
      </trkpt>
      <trkpt lat="49.1302" lon="-0.16261">
        <ele>15</ele>
        <time>2024-02-04T10:31:00Z</time>
      </trkpt>
      <trkpt lat="49.13027" lon="-0.16265">
        <ele>15.1</ele>
        <time>2024-02-04T10:31:01Z</time>
      </trkpt>
      <trkpt lat="49.13033" lon="-0.16269">
        <ele>15.2</ele>
        <time>2024-02-04T10:31:02Z</time>
      </trkpt>
      <trkpt lat="49.13039" lon="-0.16273">
        <ele>15.3</ele>
        <time>2024-02-04T10:31:03Z</time>
      </trkpt>
      <trkpt lat="49.13045" lon="-0.16278">
        <ele>15.4</ele>
        <time>2024-02-04T10:31:04Z</time>
      </trkpt>
      <trkpt lat="49.13051" lon="-0.16282">
        <ele>15.5</ele>
        <time>2024-02-04T10:31:05Z</time>
      </trkpt>
      <trkpt lat="49.13057" lon="-0.16286">
        <ele>15.6</ele>
        <time>2024-02-04T10:31:06Z</time>
      </trkpt>
      <trkpt lat="49.13063" lon="-0.16289">
        <ele>15.8</ele>
        <time>2024-02-04T10:31:07Z</time>
      </trkpt>
      <trkpt lat="49.13069" lon="-0.16293">
        <ele>15.9</ele>
        <time>2024-02-04T10:31:08Z</time>
      </trkpt>
      <trkpt lat="49.13075" lon="-0.16296">
        <ele>16.1</ele>
        <time>2024-02-04T10:31:09Z</time>
      </trkpt>
      <trkpt lat="49.13081" lon="-0.16298">
        <ele>16.3</ele>
        <time>2024-02-04T10:31:10Z</time>
      </trkpt>
      <trkpt lat="49.13087" lon="-0.16301">
        <ele>16.4</ele>
        <time>2024-02-04T10:31:11Z</time>
      </trkpt>
      <trkpt lat="49.13093" lon="-0.16303">
        <ele>16.6</ele>
        <time>2024-02-04T10:31:12Z</time>
      </trkpt>
      <trkpt lat="49.13099" lon="-0.16306">
        <ele>16.8</ele>
        <time>2024-02-04T10:31:13Z</time>
      </trkpt>
      <trkpt lat="49.13105" lon="-0.16309">
        <ele>17</ele>
        <time>2024-02-04T10:31:14Z</time>
      </trkpt>
      <trkpt lat="49.13111" lon="-0.16312">
        <ele>17.2</ele>
        <time>2024-02-04T10:31:15Z</time>
      </trkpt>
      <trkpt lat="49.13117" lon="-0.16315">
        <ele>17.4</ele>
        <time>2024-02-04T10:31:16Z</time>
      </trkpt>
      <trkpt lat="49.13123" lon="-0.16317">
        <ele>17.7</ele>
        <time>2024-02-04T10:31:17Z</time>
      </trkpt>
      <trkpt lat="49.13129" lon="-0.16319">
        <ele>17.9</ele>
        <time>2024-02-04T10:31:18Z</time>
      </trkpt>
      <trkpt lat="49.13136" lon="-0.16321">
        <ele>18.1</ele>
        <time>2024-02-04T10:31:19Z</time>
      </trkpt>
      <trkpt lat="49.13142" lon="-0.16322">
        <ele>18.4</ele>
        <time>2024-02-04T10:31:20Z</time>
      </trkpt>
      <trkpt lat="49.13148" lon="-0.16323">
        <ele>18.6</ele>
        <time>2024-02-04T10:31:21Z</time>
      </trkpt>
      <trkpt lat="49.13154" lon="-0.16324">
        <ele>18.8</ele>
        <time>2024-02-04T10:31:22Z</time>
      </trkpt>
      <trkpt lat="49.13161" lon="-0.16325">
        <ele>19</ele>
        <time>2024-02-04T10:31:23Z</time>
      </trkpt>
      <trkpt lat="49.13167" lon="-0.16324">
        <ele>19.3</ele>
        <time>2024-02-04T10:31:24Z</time>
      </trkpt>
      <trkpt lat="49.13173" lon="-0.16324">
        <ele>19.5</ele>
        <time>2024-02-04T10:31:25Z</time>
      </trkpt>
      <trkpt lat="49.13179" lon="-0.16324">
        <ele>19.6</ele>
        <time>2024-02-04T10:31:26Z</time>
      </trkpt>
      <trkpt lat="49.13185" lon="-0.16324">
        <ele>19.8</ele>
        <time>2024-02-04T10:31:27Z</time>
      </trkpt>
      <trkpt lat="49.13191" lon="-0.16323">
        <ele>20</ele>
        <time>2024-02-04T10:31:28Z</time>
      </trkpt>
      <trkpt lat="49.13197" lon="-0.16322">
        <ele>20.2</ele>
        <time>2024-02-04T10:31:29Z</time>
      </trkpt>
      <trkpt lat="49.13203" lon="-0.16322">
        <ele>20.4</ele>
        <time>2024-02-04T10:31:30Z</time>
      </trkpt>
      <trkpt lat="49.13208" lon="-0.1632">
        <ele>20.5</ele>
        <time>2024-02-04T10:31:31Z</time>
      </trkpt>
      <trkpt lat="49.13212" lon="-0.16314">
        <ele>20.8</ele>
        <time>2024-02-04T10:31:32Z</time>
      </trkpt>
      <trkpt lat="49.13215" lon="-0.16308">
        <ele>21.1</ele>
        <time>2024-02-04T10:31:33Z</time>
      </trkpt>
      <trkpt lat="49.13219" lon="-0.16302">
        <ele>21.4</ele>
        <time>2024-02-04T10:31:34Z</time>
      </trkpt>
      <trkpt lat="49.13222" lon="-0.16297">
        <ele>21.7</ele>
        <time>2024-02-04T10:31:35Z</time>
      </trkpt>
      <trkpt lat="49.13227" lon="-0.16293">
        <ele>22</ele>
        <time>2024-02-04T10:31:36Z</time>
      </trkpt>
      <trkpt lat="49.1323" lon="-0.1629">
        <ele>22.2</ele>
        <time>2024-02-04T10:31:37Z</time>
      </trkpt>
      <trkpt lat="49.13234" lon="-0.16288">
        <ele>22.5</ele>
        <time>2024-02-04T10:31:38Z</time>
      </trkpt>
      <trkpt lat="49.13237" lon="-0.16286">
        <ele>22.7</ele>
        <time>2024-02-04T10:31:39Z</time>
      </trkpt>
      <trkpt lat="49.13241" lon="-0.16283">
        <ele>22.9</ele>
        <time>2024-02-04T10:31:40Z</time>
      </trkpt>
      <trkpt lat="49.13244" lon="-0.16281">
        <ele>23.1</ele>
        <time>2024-02-04T10:31:41Z</time>
      </trkpt>
      <trkpt lat="49.13248" lon="-0.16279">
        <ele>23.4</ele>
        <time>2024-02-04T10:31:42Z</time>
      </trkpt>
      <trkpt lat="49.13252" lon="-0.16276">
        <ele>23.6</ele>
        <time>2024-02-04T10:31:43Z</time>
      </trkpt>
      <trkpt lat="49.13255" lon="-0.16273">
        <ele>23.9</ele>
        <time>2024-02-04T10:31:44Z</time>
      </trkpt>
      <trkpt lat="49.13259" lon="-0.16271">
        <ele>24.1</ele>
        <time>2024-02-04T10:31:45Z</time>
      </trkpt>
      <trkpt lat="49.13262" lon="-0.16269">
        <ele>24.4</ele>
        <time>2024-02-04T10:31:46Z</time>
      </trkpt>
      <trkpt lat="49.13266" lon="-0.16266">
        <ele>24.6</ele>
        <time>2024-02-04T10:31:47Z</time>
      </trkpt>
      <trkpt lat="49.1327" lon="-0.16263">
        <ele>24.9</ele>
        <time>2024-02-04T10:31:48Z</time>
      </trkpt>
      <trkpt lat="49.13274" lon="-0.1626">
        <ele>25.1</ele>
        <time>2024-02-04T10:31:49Z</time>
      </trkpt>
      <trkpt lat="49.13277" lon="-0.16257">
        <ele>25.3</ele>
        <time>2024-02-04T10:31:50Z</time>
      </trkpt>
      <trkpt lat="49.1328" lon="-0.16254">
        <ele>25.6</ele>
        <time>2024-02-04T10:31:51Z</time>
      </trkpt>
      <trkpt lat="49.13284" lon="-0.16252">
        <ele>25.8</ele>
        <time>2024-02-04T10:31:52Z</time>
      </trkpt>
      <trkpt lat="49.13288" lon="-0.16249">
        <ele>26</ele>
        <time>2024-02-04T10:31:53Z</time>
      </trkpt>
      <trkpt lat="49.13292" lon="-0.16247">
        <ele>26.3</ele>
        <time>2024-02-04T10:31:54Z</time>
      </trkpt>
      <trkpt lat="49.13295" lon="-0.16244">
        <ele>26.4</ele>
        <time>2024-02-04T10:31:55Z</time>
      </trkpt>
      <trkpt lat="49.13299" lon="-0.16242">
        <ele>26.6</ele>
        <time>2024-02-04T10:31:56Z</time>
      </trkpt>
      <trkpt lat="49.13302" lon="-0.16239">
        <ele>26.8</ele>
        <time>2024-02-04T10:31:57Z</time>
      </trkpt>
      <trkpt lat="49.13305" lon="-0.16236">
        <ele>27</ele>
        <time>2024-02-04T10:31:58Z</time>
      </trkpt>
      <trkpt lat="49.13308" lon="-0.16232">
        <ele>27.2</ele>
        <time>2024-02-04T10:31:59Z</time>
      </trkpt>
      <trkpt lat="49.13312" lon="-0.16229">
        <ele>27.4</ele>
        <time>2024-02-04T10:32:00Z</time>
      </trkpt>
      <trkpt lat="49.13314" lon="-0.16226">
        <ele>27.6</ele>
        <time>2024-02-04T10:32:01Z</time>
      </trkpt>
      <trkpt lat="49.13317" lon="-0.16222">
        <ele>27.8</ele>
        <time>2024-02-04T10:32:02Z</time>
      </trkpt>
      <trkpt lat="49.1332" lon="-0.1622">
        <ele>28</ele>
        <time>2024-02-04T10:32:03Z</time>
      </trkpt>
      <trkpt lat="49.13323" lon="-0.16217">
        <ele>28.2</ele>
        <time>2024-02-04T10:32:04Z</time>
      </trkpt>
      <trkpt lat="49.13326" lon="-0.16214">
        <ele>28.5</ele>
        <time>2024-02-04T10:32:05Z</time>
      </trkpt>
      <trkpt lat="49.13329" lon="-0.16211">
        <ele>28.7</ele>
        <time>2024-02-04T10:32:06Z</time>
      </trkpt>
      <trkpt lat="49.13332" lon="-0.16208">
        <ele>28.9</ele>
        <time>2024-02-04T10:32:07Z</time>
      </trkpt>
      <trkpt lat="49.13335" lon="-0.16205">
        <ele>29.1</ele>
        <time>2024-02-04T10:32:08Z</time>
      </trkpt>
      <trkpt lat="49.13338" lon="-0.16202">
        <ele>29.4</ele>
        <time>2024-02-04T10:32:09Z</time>
      </trkpt>
      <trkpt lat="49.13341" lon="-0.16199">
        <ele>29.7</ele>
        <time>2024-02-04T10:32:10Z</time>
      </trkpt>
      <trkpt lat="49.13344" lon="-0.16195">
        <ele>29.9</ele>
        <time>2024-02-04T10:32:11Z</time>
      </trkpt>
      <trkpt lat="49.13348" lon="-0.16192">
        <ele>30.2</ele>
        <time>2024-02-04T10:32:12Z</time>
      </trkpt>
      <trkpt lat="49.13351" lon="-0.16188">
        <ele>30.5</ele>
        <time>2024-02-04T10:32:13Z</time>
      </trkpt>
      <trkpt lat="49.13354" lon="-0.16185">
        <ele>30.7</ele>
        <time>2024-02-04T10:32:14Z</time>
      </trkpt>
      <trkpt lat="49.13357" lon="-0.16182">
        <ele>31</ele>
        <time>2024-02-04T10:32:15Z</time>
      </trkpt>
      <trkpt lat="49.1336" lon="-0.16178">
        <ele>31.2</ele>
        <time>2024-02-04T10:32:16Z</time>
      </trkpt>
      <trkpt lat="49.13363" lon="-0.16174">
        <ele>31.5</ele>
        <time>2024-02-04T10:32:17Z</time>
      </trkpt>
      <trkpt lat="49.13366" lon="-0.16171">
        <ele>31.8</ele>
        <time>2024-02-04T10:32:18Z</time>
      </trkpt>
      <trkpt lat="49.13369" lon="-0.16168">
        <ele>32</ele>
        <time>2024-02-04T10:32:19Z</time>
      </trkpt>
      <trkpt lat="49.13372" lon="-0.16165">
        <ele>32.3</ele>
        <time>2024-02-04T10:32:20Z</time>
      </trkpt>
      <trkpt lat="49.13375" lon="-0.16163">
        <ele>32.5</ele>
        <time>2024-02-04T10:32:21Z</time>
      </trkpt>
      <trkpt lat="49.13378" lon="-0.16159">
        <ele>32.7</ele>
        <time>2024-02-04T10:32:22Z</time>
      </trkpt>
      <trkpt lat="49.13381" lon="-0.16156">
        <ele>33</ele>
        <time>2024-02-04T10:32:23Z</time>
      </trkpt>
      <trkpt lat="49.13384" lon="-0.16154">
        <ele>33.3</ele>
        <time>2024-02-04T10:32:24Z</time>
      </trkpt>
      <trkpt lat="49.13387" lon="-0.16151">
        <ele>33.5</ele>
        <time>2024-02-04T10:32:25Z</time>
      </trkpt>
      <trkpt lat="49.1339" lon="-0.16148">
        <ele>33.8</ele>
        <time>2024-02-04T10:32:26Z</time>
      </trkpt>
      <trkpt lat="49.13392" lon="-0.16144">
        <ele>34</ele>
        <time>2024-02-04T10:32:27Z</time>
      </trkpt>
      <trkpt lat="49.13395" lon="-0.16141">
        <ele>34.3</ele>
        <time>2024-02-04T10:32:28Z</time>
      </trkpt>
      <trkpt lat="49.13398" lon="-0.16137">
        <ele>34.6</ele>
        <time>2024-02-04T10:32:29Z</time>
      </trkpt>
      <trkpt lat="49.13401" lon="-0.16134">
        <ele>34.9</ele>
        <time>2024-02-04T10:32:30Z</time>
      </trkpt>
      <trkpt lat="49.13404" lon="-0.16131">
        <ele>35.1</ele>
        <time>2024-02-04T10:32:31Z</time>
      </trkpt>
      <trkpt lat="49.13407" lon="-0.16128">
        <ele>35.4</ele>
        <time>2024-02-04T10:32:32Z</time>
      </trkpt>
      <trkpt lat="49.1341" lon="-0.16125">
        <ele>35.7</ele>
        <time>2024-02-04T10:32:33Z</time>
      </trkpt>
      <trkpt lat="49.13413" lon="-0.16122">
        <ele>36</ele>
        <time>2024-02-04T10:32:34Z</time>
      </trkpt>
      <trkpt lat="49.13416" lon="-0.16119">
        <ele>36.3</ele>
        <time>2024-02-04T10:32:35Z</time>
      </trkpt>
      <trkpt lat="49.13419" lon="-0.16116">
        <ele>36.6</ele>
        <time>2024-02-04T10:32:36Z</time>
      </trkpt>
      <trkpt lat="49.13422" lon="-0.16113">
        <ele>36.8</ele>
        <time>2024-02-04T10:32:37Z</time>
      </trkpt>
      <trkpt lat="49.13425" lon="-0.1611">
        <ele>37.1</ele>
        <time>2024-02-04T10:32:38Z</time>
      </trkpt>
      <trkpt lat="49.13428" lon="-0.16108">
        <ele>37.4</ele>
        <time>2024-02-04T10:32:39Z</time>
      </trkpt>
      <trkpt lat="49.13431" lon="-0.16105">
        <ele>37.6</ele>
        <time>2024-02-04T10:32:40Z</time>
      </trkpt>
      <trkpt lat="49.13434" lon="-0.16102">
        <ele>37.9</ele>
        <time>2024-02-04T10:32:41Z</time>
      </trkpt>
      <trkpt lat="49.13437" lon="-0.16099">
        <ele>38.2</ele>
        <time>2024-02-04T10:32:42Z</time>
      </trkpt>
      <trkpt lat="49.1344" lon="-0.16096">
        <ele>38.5</ele>
        <time>2024-02-04T10:32:43Z</time>
      </trkpt>
      <trkpt lat="49.13443" lon="-0.16093">
        <ele>38.8</ele>
        <time>2024-02-04T10:32:44Z</time>
      </trkpt>
      <trkpt lat="49.13446" lon="-0.1609">
        <ele>39.1</ele>
        <time>2024-02-04T10:32:45Z</time>
      </trkpt>
      <trkpt lat="49.13449" lon="-0.16087">
        <ele>39.3</ele>
        <time>2024-02-04T10:32:46Z</time>
      </trkpt>
      <trkpt lat="49.13452" lon="-0.16084">
        <ele>39.6</ele>
        <time>2024-02-04T10:32:47Z</time>
      </trkpt>
      <trkpt lat="49.13454" lon="-0.16081">
        <ele>39.8</ele>
        <time>2024-02-04T10:32:48Z</time>
      </trkpt>
      <trkpt lat="49.13458" lon="-0.16078">
        <ele>40.1</ele>
        <time>2024-02-04T10:32:49Z</time>
      </trkpt>
      <trkpt lat="49.13461" lon="-0.16075">
        <ele>40.4</ele>
        <time>2024-02-04T10:32:50Z</time>
      </trkpt>
      <trkpt lat="49.13464" lon="-0.16072">
        <ele>40.7</ele>
        <time>2024-02-04T10:32:51Z</time>
      </trkpt>
      <trkpt lat="49.13467" lon="-0.16069">
        <ele>40.9</ele>
        <time>2024-02-04T10:32:52Z</time>
      </trkpt>
      <trkpt lat="49.13471" lon="-0.16067">
        <ele>41.2</ele>
        <time>2024-02-04T10:32:53Z</time>
      </trkpt>
      <trkpt lat="49.13474" lon="-0.16065">
        <ele>41.5</ele>
        <time>2024-02-04T10:32:54Z</time>
      </trkpt>
      <trkpt lat="49.13478" lon="-0.16063">
        <ele>41.7</ele>
        <time>2024-02-04T10:32:55Z</time>
      </trkpt>
      <trkpt lat="49.13481" lon="-0.1606">
        <ele>42</ele>
        <time>2024-02-04T10:32:56Z</time>
      </trkpt>
      <trkpt lat="49.13484" lon="-0.16058">
        <ele>42.3</ele>
        <time>2024-02-04T10:32:57Z</time>
      </trkpt>
      <trkpt lat="49.13487" lon="-0.16056">
        <ele>42.5</ele>
        <time>2024-02-04T10:32:58Z</time>
      </trkpt>
      <trkpt lat="49.13491" lon="-0.16053">
        <ele>42.8</ele>
        <time>2024-02-04T10:32:59Z</time>
      </trkpt>
      <trkpt lat="49.13494" lon="-0.16051">
        <ele>43</ele>
        <time>2024-02-04T10:33:00Z</time>
      </trkpt>
      <trkpt lat="49.13498" lon="-0.16049">
        <ele>43.2</ele>
        <time>2024-02-04T10:33:01Z</time>
      </trkpt>
      <trkpt lat="49.13501" lon="-0.16047">
        <ele>43.5</ele>
        <time>2024-02-04T10:33:02Z</time>
      </trkpt>
      <trkpt lat="49.13505" lon="-0.16045">
        <ele>43.7</ele>
        <time>2024-02-04T10:33:03Z</time>
      </trkpt>
      <trkpt lat="49.13508" lon="-0.16042">
        <ele>44</ele>
        <time>2024-02-04T10:33:04Z</time>
      </trkpt>
      <trkpt lat="49.13511" lon="-0.16041">
        <ele>44.2</ele>
        <time>2024-02-04T10:33:05Z</time>
      </trkpt>
      <trkpt lat="49.13515" lon="-0.16039">
        <ele>44.5</ele>
        <time>2024-02-04T10:33:06Z</time>
      </trkpt>
      <trkpt lat="49.13518" lon="-0.16036">
        <ele>44.7</ele>
        <time>2024-02-04T10:33:07Z</time>
      </trkpt>
      <trkpt lat="49.13521" lon="-0.16033">
        <ele>45</ele>
        <time>2024-02-04T10:33:08Z</time>
      </trkpt>
      <trkpt lat="49.13524" lon="-0.16031">
        <ele>45.2</ele>
        <time>2024-02-04T10:33:09Z</time>
      </trkpt>
      <trkpt lat="49.13527" lon="-0.16028">
        <ele>45.5</ele>
        <time>2024-02-04T10:33:10Z</time>
      </trkpt>
      <trkpt lat="49.13531" lon="-0.16025">
        <ele>45.7</ele>
        <time>2024-02-04T10:33:11Z</time>
      </trkpt>
      <trkpt lat="49.13534" lon="-0.16023">
        <ele>46</ele>
        <time>2024-02-04T10:33:12Z</time>
      </trkpt>
      <trkpt lat="49.13537" lon="-0.1602">
        <ele>46.2</ele>
        <time>2024-02-04T10:33:13Z</time>
      </trkpt>
      <trkpt lat="49.1354" lon="-0.16017">
        <ele>46.5</ele>
        <time>2024-02-04T10:33:14Z</time>
      </trkpt>
      <trkpt lat="49.13543" lon="-0.16014">
        <ele>46.7</ele>
        <time>2024-02-04T10:33:15Z</time>
      </trkpt>
      <trkpt lat="49.13546" lon="-0.1601">
        <ele>47</ele>
        <time>2024-02-04T10:33:16Z</time>
      </trkpt>
      <trkpt lat="49.13549" lon="-0.16007">
        <ele>47.3</ele>
        <time>2024-02-04T10:33:17Z</time>
      </trkpt>
      <trkpt lat="49.13552" lon="-0.16004">
        <ele>47.5</ele>
        <time>2024-02-04T10:33:18Z</time>
      </trkpt>
      <trkpt lat="49.13555" lon="-0.16001">
        <ele>47.8</ele>
        <time>2024-02-04T10:33:19Z</time>
      </trkpt>
      <trkpt lat="49.13558" lon="-0.15998">
        <ele>48.1</ele>
        <time>2024-02-04T10:33:20Z</time>
      </trkpt>
      <trkpt lat="49.13561" lon="-0.15994">
        <ele>48.4</ele>
        <time>2024-02-04T10:33:21Z</time>
      </trkpt>
      <trkpt lat="49.13564" lon="-0.15991">
        <ele>48.6</ele>
        <time>2024-02-04T10:33:22Z</time>
      </trkpt>
      <trkpt lat="49.13567" lon="-0.15988">
        <ele>48.9</ele>
        <time>2024-02-04T10:33:23Z</time>
      </trkpt>
      <trkpt lat="49.1357" lon="-0.15985">
        <ele>49.1</ele>
        <time>2024-02-04T10:33:24Z</time>
      </trkpt>
      <trkpt lat="49.13573" lon="-0.15981">
        <ele>49.4</ele>
        <time>2024-02-04T10:33:25Z</time>
      </trkpt>
      <trkpt lat="49.13575" lon="-0.15978">
        <ele>49.6</ele>
        <time>2024-02-04T10:33:26Z</time>
      </trkpt>
      <trkpt lat="49.13578" lon="-0.15975">
        <ele>49.9</ele>
        <time>2024-02-04T10:33:27Z</time>
      </trkpt>
      <trkpt lat="49.13581" lon="-0.15972">
        <ele>50.1</ele>
        <time>2024-02-04T10:33:28Z</time>
      </trkpt>
      <trkpt lat="49.13584" lon="-0.15968">
        <ele>50.4</ele>
        <time>2024-02-04T10:33:29Z</time>
      </trkpt>
      <trkpt lat="49.13586" lon="-0.15965">
        <ele>50.6</ele>
        <time>2024-02-04T10:33:30Z</time>
      </trkpt>
      <trkpt lat="49.13589" lon="-0.15961">
        <ele>50.8</ele>
        <time>2024-02-04T10:33:31Z</time>
      </trkpt>
      <trkpt lat="49.13592" lon="-0.15958">
        <ele>51.1</ele>
        <time>2024-02-04T10:33:32Z</time>
      </trkpt>
      <trkpt lat="49.13595" lon="-0.15955">
        <ele>51.3</ele>
        <time>2024-02-04T10:33:33Z</time>
      </trkpt>
      <trkpt lat="49.13598" lon="-0.15951">
        <ele>51.6</ele>
        <time>2024-02-04T10:33:34Z</time>
      </trkpt>
      <trkpt lat="49.13601" lon="-0.15948">
        <ele>51.8</ele>
        <time>2024-02-04T10:33:35Z</time>
      </trkpt>
      <trkpt lat="49.13604" lon="-0.15945">
        <ele>52.1</ele>
        <time>2024-02-04T10:33:36Z</time>
      </trkpt>
      <trkpt lat="49.13606" lon="-0.15941">
        <ele>52.3</ele>
        <time>2024-02-04T10:33:37Z</time>
      </trkpt>
      <trkpt lat="49.13609" lon="-0.15937">
        <ele>52.5</ele>
        <time>2024-02-04T10:33:38Z</time>
      </trkpt>
      <trkpt lat="49.13612" lon="-0.15934">
        <ele>52.8</ele>
        <time>2024-02-04T10:33:39Z</time>
      </trkpt>
      <trkpt lat="49.13615" lon="-0.15931">
        <ele>53</ele>
        <time>2024-02-04T10:33:40Z</time>
      </trkpt>
      <trkpt lat="49.13618" lon="-0.15928">
        <ele>53.3</ele>
        <time>2024-02-04T10:33:41Z</time>
      </trkpt>
      <trkpt lat="49.1362" lon="-0.15925">
        <ele>53.5</ele>
        <time>2024-02-04T10:33:42Z</time>
      </trkpt>
      <trkpt lat="49.13623" lon="-0.15922">
        <ele>53.7</ele>
        <time>2024-02-04T10:33:43Z</time>
      </trkpt>
      <trkpt lat="49.13625" lon="-0.15918">
        <ele>54</ele>
        <time>2024-02-04T10:33:44Z</time>
      </trkpt>
      <trkpt lat="49.13628" lon="-0.15915">
        <ele>54.2</ele>
        <time>2024-02-04T10:33:45Z</time>
      </trkpt>
      <trkpt lat="49.1363" lon="-0.15912">
        <ele>54.4</ele>
        <time>2024-02-04T10:33:46Z</time>
      </trkpt>
      <trkpt lat="49.13633" lon="-0.15908">
        <ele>54.7</ele>
        <time>2024-02-04T10:33:47Z</time>
      </trkpt>
      <trkpt lat="49.13636" lon="-0.15905">
        <ele>54.9</ele>
        <time>2024-02-04T10:33:48Z</time>
      </trkpt>
      <trkpt lat="49.13639" lon="-0.15902">
        <ele>55.1</ele>
        <time>2024-02-04T10:33:49Z</time>
      </trkpt>
      <trkpt lat="49.13641" lon="-0.15899">
        <ele>55.4</ele>
        <time>2024-02-04T10:33:50Z</time>
      </trkpt>
      <trkpt lat="49.13643" lon="-0.15895">
        <ele>55.6</ele>
        <time>2024-02-04T10:33:51Z</time>
      </trkpt>
      <trkpt lat="49.13646" lon="-0.15891">
        <ele>55.8</ele>
        <time>2024-02-04T10:33:52Z</time>
      </trkpt>
      <trkpt lat="49.13648" lon="-0.15888">
        <ele>56</ele>
        <time>2024-02-04T10:33:53Z</time>
      </trkpt>
      <trkpt lat="49.13651" lon="-0.15884">
        <ele>56.2</ele>
        <time>2024-02-04T10:33:54Z</time>
      </trkpt>
      <trkpt lat="49.13653" lon="-0.15881">
        <ele>56.4</ele>
        <time>2024-02-04T10:33:55Z</time>
      </trkpt>
      <trkpt lat="49.13656" lon="-0.15878">
        <ele>56.6</ele>
        <time>2024-02-04T10:33:56Z</time>
      </trkpt>
      <trkpt lat="49.13659" lon="-0.15874">
        <ele>56.9</ele>
        <time>2024-02-04T10:33:57Z</time>
      </trkpt>
      <trkpt lat="49.13662" lon="-0.1587">
        <ele>57.1</ele>
        <time>2024-02-04T10:33:58Z</time>
      </trkpt>
      <trkpt lat="49.13665" lon="-0.15866">
        <ele>57.3</ele>
        <time>2024-02-04T10:33:59Z</time>
      </trkpt>
      <trkpt lat="49.13668" lon="-0.15862">
        <ele>57.6</ele>
        <time>2024-02-04T10:34:00Z</time>
      </trkpt>
      <trkpt lat="49.13672" lon="-0.15858">
        <ele>57.8</ele>
        <time>2024-02-04T10:34:01Z</time>
      </trkpt>
      <trkpt lat="49.13675" lon="-0.15853">
        <ele>58.1</ele>
        <time>2024-02-04T10:34:02Z</time>
      </trkpt>
      <trkpt lat="49.13678" lon="-0.15849">
        <ele>58.3</ele>
        <time>2024-02-04T10:34:03Z</time>
      </trkpt>
      <trkpt lat="49.1368" lon="-0.15844">
        <ele>58.5</ele>
        <time>2024-02-04T10:34:04Z</time>
      </trkpt>
      <trkpt lat="49.13683" lon="-0.1584">
        <ele>58.7</ele>
        <time>2024-02-04T10:34:05Z</time>
      </trkpt>
      <trkpt lat="49.13686" lon="-0.15836">
        <ele>58.9</ele>
        <time>2024-02-04T10:34:06Z</time>
      </trkpt>
      <trkpt lat="49.13689" lon="-0.15831">
        <ele>59.1</ele>
        <time>2024-02-04T10:34:07Z</time>
      </trkpt>
      <trkpt lat="49.13692" lon="-0.15826">
        <ele>59.2</ele>
        <time>2024-02-04T10:34:08Z</time>
      </trkpt>
      <trkpt lat="49.13696" lon="-0.15822">
        <ele>59.4</ele>
        <time>2024-02-04T10:34:09Z</time>
      </trkpt>
      <trkpt lat="49.13699" lon="-0.15817">
        <ele>59.6</ele>
        <time>2024-02-04T10:34:10Z</time>
      </trkpt>
      <trkpt lat="49.13702" lon="-0.15812">
        <ele>59.8</ele>
        <time>2024-02-04T10:34:11Z</time>
      </trkpt>
      <trkpt lat="49.13706" lon="-0.15807">
        <ele>59.9</ele>
        <time>2024-02-04T10:34:12Z</time>
      </trkpt>
      <trkpt lat="49.13709" lon="-0.15802">
        <ele>60.1</ele>
        <time>2024-02-04T10:34:13Z</time>
      </trkpt>
      <trkpt lat="49.13713" lon="-0.15797">
        <ele>60.2</ele>
        <time>2024-02-04T10:34:14Z</time>
      </trkpt>
      <trkpt lat="49.13717" lon="-0.15793">
        <ele>60.4</ele>
        <time>2024-02-04T10:34:15Z</time>
      </trkpt>
      <trkpt lat="49.1372" lon="-0.15788">
        <ele>60.5</ele>
        <time>2024-02-04T10:34:16Z</time>
      </trkpt>
      <trkpt lat="49.13724" lon="-0.15782">
        <ele>60.6</ele>
        <time>2024-02-04T10:34:17Z</time>
      </trkpt>
      <trkpt lat="49.13727" lon="-0.15776">
        <ele>60.8</ele>
        <time>2024-02-04T10:34:18Z</time>
      </trkpt>
      <trkpt lat="49.13731" lon="-0.15771">
        <ele>60.8</ele>
        <time>2024-02-04T10:34:19Z</time>
      </trkpt>
      <trkpt lat="49.13735" lon="-0.15765">
        <ele>60.9</ele>
        <time>2024-02-04T10:34:20Z</time>
      </trkpt>
      <trkpt lat="49.1374" lon="-0.15759">
        <ele>60.9</ele>
        <time>2024-02-04T10:34:21Z</time>
      </trkpt>
      <trkpt lat="49.13744" lon="-0.15754">
        <ele>60.9</ele>
        <time>2024-02-04T10:34:22Z</time>
      </trkpt>
      <trkpt lat="49.13748" lon="-0.15748">
        <ele>60.9</ele>
        <time>2024-02-04T10:34:23Z</time>
      </trkpt>
      <trkpt lat="49.13752" lon="-0.15742">
        <ele>60.9</ele>
        <time>2024-02-04T10:34:24Z</time>
      </trkpt>
      <trkpt lat="49.13756" lon="-0.15735">
        <ele>60.8</ele>
        <time>2024-02-04T10:34:25Z</time>
      </trkpt>
      <trkpt lat="49.13761" lon="-0.15728">
        <ele>60.7</ele>
        <time>2024-02-04T10:34:26Z</time>
      </trkpt>
      <trkpt lat="49.13766" lon="-0.15721">
        <ele>60.5</ele>
        <time>2024-02-04T10:34:27Z</time>
      </trkpt>
      <trkpt lat="49.13771" lon="-0.15713">
        <ele>60.2</ele>
        <time>2024-02-04T10:34:28Z</time>
      </trkpt>
      <trkpt lat="49.13777" lon="-0.15705">
        <ele>60</ele>
        <time>2024-02-04T10:34:29Z</time>
      </trkpt>
      <trkpt lat="49.13782" lon="-0.15697">
        <ele>59.6</ele>
        <time>2024-02-04T10:34:30Z</time>
      </trkpt>
      <trkpt lat="49.13788" lon="-0.1569">
        <ele>59.3</ele>
        <time>2024-02-04T10:34:31Z</time>
      </trkpt>
      <trkpt lat="49.13794" lon="-0.15681">
        <ele>58.9</ele>
        <time>2024-02-04T10:34:32Z</time>
      </trkpt>
      <trkpt lat="49.138" lon="-0.15673">
        <ele>58.4</ele>
        <time>2024-02-04T10:34:33Z</time>
      </trkpt>
      <trkpt lat="49.13807" lon="-0.15665">
        <ele>57.9</ele>
        <time>2024-02-04T10:34:34Z</time>
      </trkpt>
      <trkpt lat="49.13814" lon="-0.15656">
        <ele>57.3</ele>
        <time>2024-02-04T10:34:35Z</time>
      </trkpt>
      <trkpt lat="49.1382" lon="-0.15646">
        <ele>56.8</ele>
        <time>2024-02-04T10:34:36Z</time>
      </trkpt>
      <trkpt lat="49.13827" lon="-0.15637">
        <ele>56.3</ele>
        <time>2024-02-04T10:34:37Z</time>
      </trkpt>
      <trkpt lat="49.13834" lon="-0.15628">
        <ele>55.9</ele>
        <time>2024-02-04T10:34:38Z</time>
      </trkpt>
      <trkpt lat="49.13841" lon="-0.15618">
        <ele>55.5</ele>
        <time>2024-02-04T10:34:39Z</time>
      </trkpt>
      <trkpt lat="49.13849" lon="-0.15608">
        <ele>55.1</ele>
        <time>2024-02-04T10:34:40Z</time>
      </trkpt>
      <trkpt lat="49.13856" lon="-0.15598">
        <ele>54.7</ele>
        <time>2024-02-04T10:34:41Z</time>
      </trkpt>
      <trkpt lat="49.13864" lon="-0.15588">
        <ele>54.4</ele>
        <time>2024-02-04T10:34:42Z</time>
      </trkpt>
      <trkpt lat="49.13871" lon="-0.15578">
        <ele>54.1</ele>
        <time>2024-02-04T10:34:43Z</time>
      </trkpt>
      <trkpt lat="49.1388" lon="-0.15568">
        <ele>53.9</ele>
        <time>2024-02-04T10:34:44Z</time>
      </trkpt>
      <trkpt lat="49.13888" lon="-0.15559">
        <ele>53.6</ele>
        <time>2024-02-04T10:34:45Z</time>
      </trkpt>
      <trkpt lat="49.13896" lon="-0.1555">
        <ele>53.4</ele>
        <time>2024-02-04T10:34:46Z</time>
      </trkpt>
      <trkpt lat="49.13904" lon="-0.1554">
        <ele>53.2</ele>
        <time>2024-02-04T10:34:47Z</time>
      </trkpt>
      <trkpt lat="49.13913" lon="-0.1553">
        <ele>53</ele>
        <time>2024-02-04T10:34:48Z</time>
      </trkpt>
      <trkpt lat="49.13921" lon="-0.1552">
        <ele>52.8</ele>
        <time>2024-02-04T10:34:49Z</time>
      </trkpt>
      <trkpt lat="49.13929" lon="-0.15511">
        <ele>52.6</ele>
        <time>2024-02-04T10:34:50Z</time>
      </trkpt>
      <trkpt lat="49.13937" lon="-0.15501">
        <ele>52.3</ele>
        <time>2024-02-04T10:34:51Z</time>
      </trkpt>
      <trkpt lat="49.13945" lon="-0.15492">
        <ele>52.1</ele>
        <time>2024-02-04T10:34:52Z</time>
      </trkpt>
      <trkpt lat="49.13953" lon="-0.15482">
        <ele>51.8</ele>
        <time>2024-02-04T10:34:53Z</time>
      </trkpt>
      <trkpt lat="49.13961" lon="-0.15472">
        <ele>51.6</ele>
        <time>2024-02-04T10:34:54Z</time>
      </trkpt>
      <trkpt lat="49.1397" lon="-0.15463">
        <ele>51.4</ele>
        <time>2024-02-04T10:34:55Z</time>
      </trkpt>
      <trkpt lat="49.13978" lon="-0.15454">
        <ele>51.1</ele>
        <time>2024-02-04T10:34:56Z</time>
      </trkpt>
      <trkpt lat="49.13987" lon="-0.15446">
        <ele>50.7</ele>
        <time>2024-02-04T10:34:57Z</time>
      </trkpt>
      <trkpt lat="49.13995" lon="-0.15437">
        <ele>50.5</ele>
        <time>2024-02-04T10:34:58Z</time>
      </trkpt>
      <trkpt lat="49.14004" lon="-0.15427">
        <ele>50.2</ele>
        <time>2024-02-04T10:34:59Z</time>
      </trkpt>
      <trkpt lat="49.14012" lon="-0.15418">
        <ele>50</ele>
        <time>2024-02-04T10:35:00Z</time>
      </trkpt>
      <trkpt lat="49.14021" lon="-0.15408">
        <ele>49.8</ele>
        <time>2024-02-04T10:35:01Z</time>
      </trkpt>
      <trkpt lat="49.14029" lon="-0.15398">
        <ele>49.5</ele>
        <time>2024-02-04T10:35:02Z</time>
      </trkpt>
      <trkpt lat="49.14037" lon="-0.15388">
        <ele>49.3</ele>
        <time>2024-02-04T10:35:03Z</time>
      </trkpt>
      <trkpt lat="49.14045" lon="-0.15378">
        <ele>49</ele>
        <time>2024-02-04T10:35:04Z</time>
      </trkpt>
      <trkpt lat="49.14053" lon="-0.15367">
        <ele>48.8</ele>
        <time>2024-02-04T10:35:05Z</time>
      </trkpt>
      <trkpt lat="49.1406" lon="-0.15355">
        <ele>48.5</ele>
        <time>2024-02-04T10:35:06Z</time>
      </trkpt>
      <trkpt lat="49.14068" lon="-0.15344">
        <ele>48.4</ele>
        <time>2024-02-04T10:35:07Z</time>
      </trkpt>
      <trkpt lat="49.14075" lon="-0.15332">
        <ele>48.2</ele>
        <time>2024-02-04T10:35:08Z</time>
      </trkpt>
      <trkpt lat="49.14082" lon="-0.15321">
        <ele>48.1</ele>
        <time>2024-02-04T10:35:09Z</time>
      </trkpt>
      <trkpt lat="49.14088" lon="-0.1531">
        <ele>47.9</ele>
        <time>2024-02-04T10:35:10Z</time>
      </trkpt>
      <trkpt lat="49.14095" lon="-0.15299">
        <ele>47.8</ele>
        <time>2024-02-04T10:35:11Z</time>
      </trkpt>
      <trkpt lat="49.14101" lon="-0.15288">
        <ele>47.7</ele>
        <time>2024-02-04T10:35:12Z</time>
      </trkpt>
      <trkpt lat="49.14108" lon="-0.15278">
        <ele>47.5</ele>
        <time>2024-02-04T10:35:13Z</time>
      </trkpt>
      <trkpt lat="49.14113" lon="-0.15267">
        <ele>47.4</ele>
        <time>2024-02-04T10:35:14Z</time>
      </trkpt>
      <trkpt lat="49.14119" lon="-0.15256">
        <ele>47.3</ele>
        <time>2024-02-04T10:35:15Z</time>
      </trkpt>
      <trkpt lat="49.14124" lon="-0.15244">
        <ele>47.2</ele>
        <time>2024-02-04T10:35:16Z</time>
      </trkpt>
      <trkpt lat="49.1413" lon="-0.15233">
        <ele>47.1</ele>
        <time>2024-02-04T10:35:17Z</time>
      </trkpt>
      <trkpt lat="49.14135" lon="-0.15222">
        <ele>46.9</ele>
        <time>2024-02-04T10:35:18Z</time>
      </trkpt>
      <trkpt lat="49.14141" lon="-0.15211">
        <ele>46.8</ele>
        <time>2024-02-04T10:35:19Z</time>
      </trkpt>
      <trkpt lat="49.14146" lon="-0.152">
        <ele>46.6</ele>
        <time>2024-02-04T10:35:20Z</time>
      </trkpt>
      <trkpt lat="49.14152" lon="-0.15189">
        <ele>46.5</ele>
        <time>2024-02-04T10:35:21Z</time>
      </trkpt>
      <trkpt lat="49.14158" lon="-0.15178">
        <ele>46.4</ele>
        <time>2024-02-04T10:35:22Z</time>
      </trkpt>
      <trkpt lat="49.14163" lon="-0.15166">
        <ele>46.3</ele>
        <time>2024-02-04T10:35:23Z</time>
      </trkpt>
      <trkpt lat="49.14169" lon="-0.15155">
        <ele>46.1</ele>
        <time>2024-02-04T10:35:24Z</time>
      </trkpt>
      <trkpt lat="49.14175" lon="-0.15144">
        <ele>46</ele>
        <time>2024-02-04T10:35:25Z</time>
      </trkpt>
      <trkpt lat="49.14181" lon="-0.15133">
        <ele>45.8</ele>
        <time>2024-02-04T10:35:26Z</time>
      </trkpt>
      <trkpt lat="49.14187" lon="-0.15122">
        <ele>45.6</ele>
        <time>2024-02-04T10:35:27Z</time>
      </trkpt>
      <trkpt lat="49.14194" lon="-0.1511">
        <ele>45.4</ele>
        <time>2024-02-04T10:35:28Z</time>
      </trkpt>
      <trkpt lat="49.14201" lon="-0.15099">
        <ele>45.3</ele>
        <time>2024-02-04T10:35:29Z</time>
      </trkpt>
      <trkpt lat="49.14207" lon="-0.15089">
        <ele>45.1</ele>
        <time>2024-02-04T10:35:30Z</time>
      </trkpt>
      <trkpt lat="49.14214" lon="-0.15078">
        <ele>44.9</ele>
        <time>2024-02-04T10:35:31Z</time>
      </trkpt>
      <trkpt lat="49.14221" lon="-0.15068">
        <ele>44.7</ele>
        <time>2024-02-04T10:35:32Z</time>
      </trkpt>
      <trkpt lat="49.14228" lon="-0.15057">
        <ele>44.5</ele>
        <time>2024-02-04T10:35:33Z</time>
      </trkpt>
      <trkpt lat="49.14234" lon="-0.15047">
        <ele>44.3</ele>
        <time>2024-02-04T10:35:34Z</time>
      </trkpt>
      <trkpt lat="49.14241" lon="-0.15037">
        <ele>44.2</ele>
        <time>2024-02-04T10:35:35Z</time>
      </trkpt>
      <trkpt lat="49.14248" lon="-0.15027">
        <ele>44</ele>
        <time>2024-02-04T10:35:36Z</time>
      </trkpt>
      <trkpt lat="49.14254" lon="-0.15017">
        <ele>43.8</ele>
        <time>2024-02-04T10:35:37Z</time>
      </trkpt>
      <trkpt lat="49.14261" lon="-0.15006">
        <ele>43.7</ele>
        <time>2024-02-04T10:35:38Z</time>
      </trkpt>
      <trkpt lat="49.14268" lon="-0.14996">
        <ele>43.5</ele>
        <time>2024-02-04T10:35:39Z</time>
      </trkpt>
      <trkpt lat="49.14274" lon="-0.14986">
        <ele>43.4</ele>
        <time>2024-02-04T10:35:40Z</time>
      </trkpt>
      <trkpt lat="49.14281" lon="-0.14976">
        <ele>43.2</ele>
        <time>2024-02-04T10:35:41Z</time>
      </trkpt>
      <trkpt lat="49.14288" lon="-0.14965">
        <ele>43</ele>
        <time>2024-02-04T10:35:42Z</time>
      </trkpt>
      <trkpt lat="49.14294" lon="-0.14955">
        <ele>42.8</ele>
        <time>2024-02-04T10:35:43Z</time>
      </trkpt>
      <trkpt lat="49.14301" lon="-0.14945">
        <ele>42.6</ele>
        <time>2024-02-04T10:35:44Z</time>
      </trkpt>
      <trkpt lat="49.14308" lon="-0.14935">
        <ele>42.5</ele>
        <time>2024-02-04T10:35:45Z</time>
      </trkpt>
      <trkpt lat="49.14316" lon="-0.14925">
        <ele>42.3</ele>
        <time>2024-02-04T10:35:46Z</time>
      </trkpt>
      <trkpt lat="49.14323" lon="-0.14915">
        <ele>42.2</ele>
        <time>2024-02-04T10:35:47Z</time>
      </trkpt>
      <trkpt lat="49.14331" lon="-0.14906">
        <ele>42</ele>
        <time>2024-02-04T10:35:48Z</time>
      </trkpt>
      <trkpt lat="49.14338" lon="-0.14897">
        <ele>41.9</ele>
        <time>2024-02-04T10:35:49Z</time>
      </trkpt>
      <trkpt lat="49.14345" lon="-0.14888">
        <ele>41.8</ele>
        <time>2024-02-04T10:35:50Z</time>
      </trkpt>
      <trkpt lat="49.14353" lon="-0.14879">
        <ele>41.6</ele>
        <time>2024-02-04T10:35:51Z</time>
      </trkpt>
      <trkpt lat="49.1436" lon="-0.1487">
        <ele>41.5</ele>
        <time>2024-02-04T10:35:52Z</time>
      </trkpt>
      <trkpt lat="49.14367" lon="-0.14862">
        <ele>41.4</ele>
        <time>2024-02-04T10:35:53Z</time>
      </trkpt>
      <trkpt lat="49.14375" lon="-0.14854">
        <ele>41.3</ele>
        <time>2024-02-04T10:35:54Z</time>
      </trkpt>
      <trkpt lat="49.14382" lon="-0.14845">
        <ele>41.2</ele>
        <time>2024-02-04T10:35:55Z</time>
      </trkpt>
      <trkpt lat="49.14389" lon="-0.14836">
        <ele>41.1</ele>
        <time>2024-02-04T10:35:56Z</time>
      </trkpt>
      <trkpt lat="49.14397" lon="-0.14827">
        <ele>41</ele>
        <time>2024-02-04T10:35:57Z</time>
      </trkpt>
      <trkpt lat="49.14404" lon="-0.14819">
        <ele>40.9</ele>
        <time>2024-02-04T10:35:58Z</time>
      </trkpt>
      <trkpt lat="49.14412" lon="-0.14811">
        <ele>40.8</ele>
        <time>2024-02-04T10:35:59Z</time>
      </trkpt>
      <trkpt lat="49.14419" lon="-0.14802">
        <ele>40.7</ele>
        <time>2024-02-04T10:36:00Z</time>
      </trkpt>
      <trkpt lat="49.14427" lon="-0.14794">
        <ele>40.7</ele>
        <time>2024-02-04T10:36:01Z</time>
      </trkpt>
      <trkpt lat="49.14434" lon="-0.14785">
        <ele>40.6</ele>
        <time>2024-02-04T10:36:02Z</time>
      </trkpt>
      <trkpt lat="49.1444" lon="-0.14777">
        <ele>40.5</ele>
        <time>2024-02-04T10:36:03Z</time>
      </trkpt>
      <trkpt lat="49.14447" lon="-0.1477">
        <ele>40.5</ele>
        <time>2024-02-04T10:36:04Z</time>
      </trkpt>
      <trkpt lat="49.14454" lon="-0.14762">
        <ele>40.5</ele>
        <time>2024-02-04T10:36:05Z</time>
      </trkpt>
      <trkpt lat="49.1446" lon="-0.14754">
        <ele>40.5</ele>
        <time>2024-02-04T10:36:06Z</time>
      </trkpt>
      <trkpt lat="49.14467" lon="-0.14748">
        <ele>40.5</ele>
        <time>2024-02-04T10:36:07Z</time>
      </trkpt>
      <trkpt lat="49.14473" lon="-0.14742">
        <ele>40.5</ele>
        <time>2024-02-04T10:36:08Z</time>
      </trkpt>
      <trkpt lat="49.14479" lon="-0.14735">
        <ele>40.4</ele>
        <time>2024-02-04T10:36:09Z</time>
      </trkpt>
      <trkpt lat="49.14486" lon="-0.14728">
        <ele>40.4</ele>
        <time>2024-02-04T10:36:10Z</time>
      </trkpt>
      <trkpt lat="49.14491" lon="-0.1472">
        <ele>40.4</ele>
        <time>2024-02-04T10:36:11Z</time>
      </trkpt>
      <trkpt lat="49.14497" lon="-0.14713">
        <ele>40.4</ele>
        <time>2024-02-04T10:36:12Z</time>
      </trkpt>
      <trkpt lat="49.14502" lon="-0.14706">
        <ele>40.3</ele>
        <time>2024-02-04T10:36:13Z</time>
      </trkpt>
      <trkpt lat="49.14508" lon="-0.147">
        <ele>40.3</ele>
        <time>2024-02-04T10:36:14Z</time>
      </trkpt>
      <trkpt lat="49.14513" lon="-0.14693">
        <ele>40.3</ele>
        <time>2024-02-04T10:36:15Z</time>
      </trkpt>
      <trkpt lat="49.14519" lon="-0.14687">
        <ele>40.3</ele>
        <time>2024-02-04T10:36:16Z</time>
      </trkpt>
      <trkpt lat="49.14525" lon="-0.1468">
        <ele>40.2</ele>
        <time>2024-02-04T10:36:17Z</time>
      </trkpt>
      <trkpt lat="49.1453" lon="-0.14674">
        <ele>40.2</ele>
        <time>2024-02-04T10:36:18Z</time>
      </trkpt>
      <trkpt lat="49.14536" lon="-0.14667">
        <ele>40.2</ele>
        <time>2024-02-04T10:36:19Z</time>
      </trkpt>
      <trkpt lat="49.14541" lon="-0.14661">
        <ele>40.2</ele>
        <time>2024-02-04T10:36:20Z</time>
      </trkpt>
      <trkpt lat="49.14547" lon="-0.14654">
        <ele>40.2</ele>
        <time>2024-02-04T10:36:21Z</time>
      </trkpt>
      <trkpt lat="49.14552" lon="-0.14648">
        <ele>40.2</ele>
        <time>2024-02-04T10:36:22Z</time>
      </trkpt>
      <trkpt lat="49.14558" lon="-0.14641">
        <ele>40.1</ele>
        <time>2024-02-04T10:36:23Z</time>
      </trkpt>
      <trkpt lat="49.14564" lon="-0.14635">
        <ele>40.1</ele>
        <time>2024-02-04T10:36:24Z</time>
      </trkpt>
      <trkpt lat="49.1457" lon="-0.14629">
        <ele>40</ele>
        <time>2024-02-04T10:36:25Z</time>
      </trkpt>
      <trkpt lat="49.14576" lon="-0.14622">
        <ele>40</ele>
        <time>2024-02-04T10:36:26Z</time>
      </trkpt>
      <trkpt lat="49.14581" lon="-0.14615">
        <ele>39.9</ele>
        <time>2024-02-04T10:36:27Z</time>
      </trkpt>
      <trkpt lat="49.14587" lon="-0.14608">
        <ele>39.9</ele>
        <time>2024-02-04T10:36:28Z</time>
      </trkpt>
      <trkpt lat="49.14593" lon="-0.14601">
        <ele>39.9</ele>
        <time>2024-02-04T10:36:29Z</time>
      </trkpt>
      <trkpt lat="49.14599" lon="-0.14593">
        <ele>39.8</ele>
        <time>2024-02-04T10:36:30Z</time>
      </trkpt>
      <trkpt lat="49.14605" lon="-0.14586">
        <ele>39.8</ele>
        <time>2024-02-04T10:36:31Z</time>
      </trkpt>
      <trkpt lat="49.14611" lon="-0.14578">
        <ele>39.8</ele>
        <time>2024-02-04T10:36:32Z</time>
      </trkpt>
      <trkpt lat="49.14618" lon="-0.1457">
        <ele>39.7</ele>
        <time>2024-02-04T10:36:33Z</time>
      </trkpt>
      <trkpt lat="49.14625" lon="-0.14562">
        <ele>39.7</ele>
        <time>2024-02-04T10:36:34Z</time>
      </trkpt>
      <trkpt lat="49.14631" lon="-0.14555">
        <ele>39.6</ele>
        <time>2024-02-04T10:36:35Z</time>
      </trkpt>
      <trkpt lat="49.14638" lon="-0.14547">
        <ele>39.5</ele>
        <time>2024-02-04T10:36:36Z</time>
      </trkpt>
      <trkpt lat="49.14644" lon="-0.14539">
        <ele>39.4</ele>
        <time>2024-02-04T10:36:37Z</time>
      </trkpt>
      <trkpt lat="49.1465" lon="-0.14531">
        <ele>39.4</ele>
        <time>2024-02-04T10:36:38Z</time>
      </trkpt>
      <trkpt lat="49.14657" lon="-0.14524">
        <ele>39.3</ele>
        <time>2024-02-04T10:36:39Z</time>
      </trkpt>
      <trkpt lat="49.14663" lon="-0.14516">
        <ele>39.2</ele>
        <time>2024-02-04T10:36:40Z</time>
      </trkpt>
      <trkpt lat="49.1467" lon="-0.14508">
        <ele>39.2</ele>
        <time>2024-02-04T10:36:41Z</time>
      </trkpt>
      <trkpt lat="49.14676" lon="-0.145">
        <ele>39.1</ele>
        <time>2024-02-04T10:36:42Z</time>
      </trkpt>
      <trkpt lat="49.14683" lon="-0.14492">
        <ele>39</ele>
        <time>2024-02-04T10:36:43Z</time>
      </trkpt>
      <trkpt lat="49.1469" lon="-0.14484">
        <ele>38.9</ele>
        <time>2024-02-04T10:36:44Z</time>
      </trkpt>
      <trkpt lat="49.14697" lon="-0.14477">
        <ele>38.9</ele>
        <time>2024-02-04T10:36:45Z</time>
      </trkpt>
      <trkpt lat="49.14704" lon="-0.14469">
        <ele>38.8</ele>
        <time>2024-02-04T10:36:46Z</time>
      </trkpt>
      <trkpt lat="49.14711" lon="-0.14461">
        <ele>38.7</ele>
        <time>2024-02-04T10:36:47Z</time>
      </trkpt>
      <trkpt lat="49.14718" lon="-0.14453">
        <ele>38.7</ele>
        <time>2024-02-04T10:36:48Z</time>
      </trkpt>
      <trkpt lat="49.14724" lon="-0.14445">
        <ele>38.5</ele>
        <time>2024-02-04T10:36:49Z</time>
      </trkpt>
      <trkpt lat="49.14731" lon="-0.14436">
        <ele>38.4</ele>
        <time>2024-02-04T10:36:50Z</time>
      </trkpt>
      <trkpt lat="49.14738" lon="-0.14428">
        <ele>38.2</ele>
        <time>2024-02-04T10:36:51Z</time>
      </trkpt>
      <trkpt lat="49.14744" lon="-0.14419">
        <ele>38</ele>
        <time>2024-02-04T10:36:52Z</time>
      </trkpt>
      <trkpt lat="49.14751" lon="-0.1441">
        <ele>37.8</ele>
        <time>2024-02-04T10:36:53Z</time>
      </trkpt>
      <trkpt lat="49.14757" lon="-0.144">
        <ele>37.6</ele>
        <time>2024-02-04T10:36:54Z</time>
      </trkpt>
      <trkpt lat="49.14763" lon="-0.1439">
        <ele>37.4</ele>
        <time>2024-02-04T10:36:55Z</time>
      </trkpt>
      <trkpt lat="49.14769" lon="-0.14379">
        <ele>37.1</ele>
        <time>2024-02-04T10:36:56Z</time>
      </trkpt>
      <trkpt lat="49.14774" lon="-0.14368">
        <ele>36.9</ele>
        <time>2024-02-04T10:36:57Z</time>
      </trkpt>
      <trkpt lat="49.14779" lon="-0.14355">
        <ele>36.6</ele>
        <time>2024-02-04T10:36:58Z</time>
      </trkpt>
      <trkpt lat="49.14784" lon="-0.14343">
        <ele>36.3</ele>
        <time>2024-02-04T10:36:59Z</time>
      </trkpt>
      <trkpt lat="49.14789" lon="-0.1433">
        <ele>36</ele>
        <time>2024-02-04T10:37:00Z</time>
      </trkpt>
      <trkpt lat="49.14793" lon="-0.14316">
        <ele>35.7</ele>
        <time>2024-02-04T10:37:01Z</time>
      </trkpt>
      <trkpt lat="49.14798" lon="-0.14303">
        <ele>35.4</ele>
        <time>2024-02-04T10:37:02Z</time>
      </trkpt>
      <trkpt lat="49.14802" lon="-0.14289">
        <ele>35.2</ele>
        <time>2024-02-04T10:37:03Z</time>
      </trkpt>
      <trkpt lat="49.14806" lon="-0.14276">
        <ele>34.9</ele>
        <time>2024-02-04T10:37:04Z</time>
      </trkpt>
      <trkpt lat="49.14811" lon="-0.14262">
        <ele>34.7</ele>
        <time>2024-02-04T10:37:05Z</time>
      </trkpt>
      <trkpt lat="49.14815" lon="-0.14249">
        <ele>34.4</ele>
        <time>2024-02-04T10:37:06Z</time>
      </trkpt>
      <trkpt lat="49.14819" lon="-0.14236">
        <ele>34.2</ele>
        <time>2024-02-04T10:37:07Z</time>
      </trkpt>
      <trkpt lat="49.14823" lon="-0.14223">
        <ele>34</ele>
        <time>2024-02-04T10:37:08Z</time>
      </trkpt>
      <trkpt lat="49.14828" lon="-0.1421">
        <ele>33.7</ele>
        <time>2024-02-04T10:37:09Z</time>
      </trkpt>
      <trkpt lat="49.14832" lon="-0.14197">
        <ele>33.5</ele>
        <time>2024-02-04T10:37:10Z</time>
      </trkpt>
      <trkpt lat="49.14836" lon="-0.14184">
        <ele>33.3</ele>
        <time>2024-02-04T10:37:11Z</time>
      </trkpt>
      <trkpt lat="49.14841" lon="-0.14172">
        <ele>33.1</ele>
        <time>2024-02-04T10:37:12Z</time>
      </trkpt>
      <trkpt lat="49.14845" lon="-0.14159">
        <ele>33</ele>
        <time>2024-02-04T10:37:13Z</time>
      </trkpt>
      <trkpt lat="49.1485" lon="-0.14146">
        <ele>32.8</ele>
        <time>2024-02-04T10:37:14Z</time>
      </trkpt>
      <trkpt lat="49.14854" lon="-0.14133">
        <ele>32.5</ele>
        <time>2024-02-04T10:37:15Z</time>
      </trkpt>
      <trkpt lat="49.14859" lon="-0.1412">
        <ele>32.4</ele>
        <time>2024-02-04T10:37:16Z</time>
      </trkpt>
      <trkpt lat="49.14863" lon="-0.14107">
        <ele>32.3</ele>
        <time>2024-02-04T10:37:17Z</time>
      </trkpt>
      <trkpt lat="49.14868" lon="-0.14094">
        <ele>32.1</ele>
        <time>2024-02-04T10:37:18Z</time>
      </trkpt>
      <trkpt lat="49.14872" lon="-0.14081">
        <ele>32</ele>
        <time>2024-02-04T10:37:19Z</time>
      </trkpt>
      <trkpt lat="49.14876" lon="-0.14068">
        <ele>32</ele>
        <time>2024-02-04T10:37:20Z</time>
      </trkpt>
      <trkpt lat="49.1488" lon="-0.14056">
        <ele>31.9</ele>
        <time>2024-02-04T10:37:21Z</time>
      </trkpt>
      <trkpt lat="49.14884" lon="-0.14043">
        <ele>31.8</ele>
        <time>2024-02-04T10:37:22Z</time>
      </trkpt>
      <trkpt lat="49.14889" lon="-0.14031">
        <ele>31.7</ele>
        <time>2024-02-04T10:37:23Z</time>
      </trkpt>
      <trkpt lat="49.14893" lon="-0.14018">
        <ele>31.6</ele>
        <time>2024-02-04T10:37:24Z</time>
      </trkpt>
      <trkpt lat="49.14898" lon="-0.14005">
        <ele>31.5</ele>
        <time>2024-02-04T10:37:25Z</time>
      </trkpt>
      <trkpt lat="49.14903" lon="-0.13993">
        <ele>31.5</ele>
        <time>2024-02-04T10:37:26Z</time>
      </trkpt>
      <trkpt lat="49.14908" lon="-0.13981">
        <ele>31.4</ele>
        <time>2024-02-04T10:37:27Z</time>
      </trkpt>
      <trkpt lat="49.14914" lon="-0.1397">
        <ele>31.3</ele>
        <time>2024-02-04T10:37:28Z</time>
      </trkpt>
      <trkpt lat="49.14919" lon="-0.13959">
        <ele>31.2</ele>
        <time>2024-02-04T10:37:29Z</time>
      </trkpt>
      <trkpt lat="49.14925" lon="-0.13948">
        <ele>31.1</ele>
        <time>2024-02-04T10:37:30Z</time>
      </trkpt>
      <trkpt lat="49.14932" lon="-0.13938">
        <ele>31</ele>
        <time>2024-02-04T10:37:31Z</time>
      </trkpt>
      <trkpt lat="49.14939" lon="-0.13928">
        <ele>30.9</ele>
        <time>2024-02-04T10:37:32Z</time>
      </trkpt>
      <trkpt lat="49.14946" lon="-0.13919">
        <ele>30.7</ele>
        <time>2024-02-04T10:37:33Z</time>
      </trkpt>
      <trkpt lat="49.14954" lon="-0.1391">
        <ele>30.6</ele>
        <time>2024-02-04T10:37:34Z</time>
      </trkpt>
      <trkpt lat="49.14962" lon="-0.13902">
        <ele>30.5</ele>
        <time>2024-02-04T10:37:35Z</time>
      </trkpt>
      <trkpt lat="49.14971" lon="-0.13893">
        <ele>30.3</ele>
        <time>2024-02-04T10:37:36Z</time>
      </trkpt>
      <trkpt lat="49.1498" lon="-0.13884">
        <ele>30.2</ele>
        <time>2024-02-04T10:37:37Z</time>
      </trkpt>
      <trkpt lat="49.14989" lon="-0.13876">
        <ele>30</ele>
        <time>2024-02-04T10:37:38Z</time>
      </trkpt>
      <trkpt lat="49.14998" lon="-0.13867">
        <ele>29.7</ele>
        <time>2024-02-04T10:37:39Z</time>
      </trkpt>
      <trkpt lat="49.15007" lon="-0.13859">
        <ele>29.5</ele>
        <time>2024-02-04T10:37:40Z</time>
      </trkpt>
      <trkpt lat="49.15016" lon="-0.1385">
        <ele>29.4</ele>
        <time>2024-02-04T10:37:41Z</time>
      </trkpt>
      <trkpt lat="49.15025" lon="-0.13842">
        <ele>29.3</ele>
        <time>2024-02-04T10:37:42Z</time>
      </trkpt>
      <trkpt lat="49.15034" lon="-0.13834">
        <ele>29.1</ele>
        <time>2024-02-04T10:37:43Z</time>
      </trkpt>
      <trkpt lat="49.15042" lon="-0.13825">
        <ele>29</ele>
        <time>2024-02-04T10:37:44Z</time>
      </trkpt>
      <trkpt lat="49.15051" lon="-0.13817">
        <ele>28.9</ele>
        <time>2024-02-04T10:37:45Z</time>
      </trkpt>
      <trkpt lat="49.1506" lon="-0.13809">
        <ele>28.7</ele>
        <time>2024-02-04T10:37:46Z</time>
      </trkpt>
      <trkpt lat="49.15069" lon="-0.13801">
        <ele>28.6</ele>
        <time>2024-02-04T10:37:47Z</time>
      </trkpt>
      <trkpt lat="49.15078" lon="-0.13792">
        <ele>28.4</ele>
        <time>2024-02-04T10:37:48Z</time>
      </trkpt>
      <trkpt lat="49.15087" lon="-0.13784">
        <ele>28.3</ele>
        <time>2024-02-04T10:37:49Z</time>
      </trkpt>
      <trkpt lat="49.15096" lon="-0.13775">
        <ele>28.2</ele>
        <time>2024-02-04T10:37:50Z</time>
      </trkpt>
      <trkpt lat="49.15105" lon="-0.13767">
        <ele>28</ele>
        <time>2024-02-04T10:37:51Z</time>
      </trkpt>
      <trkpt lat="49.15115" lon="-0.13758">
        <ele>27.9</ele>
        <time>2024-02-04T10:37:52Z</time>
      </trkpt>
      <trkpt lat="49.15124" lon="-0.13749">
        <ele>27.7</ele>
        <time>2024-02-04T10:37:53Z</time>
      </trkpt>
      <trkpt lat="49.15133" lon="-0.13741">
        <ele>27.6</ele>
        <time>2024-02-04T10:37:54Z</time>
      </trkpt>
      <trkpt lat="49.15142" lon="-0.13732">
        <ele>27.5</ele>
        <time>2024-02-04T10:37:55Z</time>
      </trkpt>
      <trkpt lat="49.15151" lon="-0.13724">
        <ele>27.5</ele>
        <time>2024-02-04T10:37:56Z</time>
      </trkpt>
      <trkpt lat="49.1516" lon="-0.13716">
        <ele>27.4</ele>
        <time>2024-02-04T10:37:57Z</time>
      </trkpt>
      <trkpt lat="49.15168" lon="-0.13707">
        <ele>27.4</ele>
        <time>2024-02-04T10:37:58Z</time>
      </trkpt>
      <trkpt lat="49.15177" lon="-0.137">
        <ele>27.4</ele>
        <time>2024-02-04T10:37:59Z</time>
      </trkpt>
      <trkpt lat="49.15186" lon="-0.13692">
        <ele>27.3</ele>
        <time>2024-02-04T10:38:00Z</time>
      </trkpt>
      <trkpt lat="49.15194" lon="-0.13684">
        <ele>27.2</ele>
        <time>2024-02-04T10:38:01Z</time>
      </trkpt>
      <trkpt lat="49.15202" lon="-0.13677">
        <ele>27.1</ele>
        <time>2024-02-04T10:38:02Z</time>
      </trkpt>
      <trkpt lat="49.1521" lon="-0.13669">
        <ele>27.1</ele>
        <time>2024-02-04T10:38:03Z</time>
      </trkpt>
      <trkpt lat="49.15218" lon="-0.13662">
        <ele>27</ele>
        <time>2024-02-04T10:38:04Z</time>
      </trkpt>
      <trkpt lat="49.15226" lon="-0.13654">
        <ele>27</ele>
        <time>2024-02-04T10:38:05Z</time>
      </trkpt>
      <trkpt lat="49.15233" lon="-0.13647">
        <ele>26.9</ele>
        <time>2024-02-04T10:38:06Z</time>
      </trkpt>
      <trkpt lat="49.15241" lon="-0.1364">
        <ele>26.8</ele>
        <time>2024-02-04T10:38:07Z</time>
      </trkpt>
      <trkpt lat="49.15248" lon="-0.13633">
        <ele>26.8</ele>
        <time>2024-02-04T10:38:08Z</time>
      </trkpt>
      <trkpt lat="49.15255" lon="-0.13626">
        <ele>26.7</ele>
        <time>2024-02-04T10:38:09Z</time>
      </trkpt>
      <trkpt lat="49.15263" lon="-0.13618">
        <ele>26.7</ele>
        <time>2024-02-04T10:38:10Z</time>
      </trkpt>
      <trkpt lat="49.1527" lon="-0.13611">
        <ele>26.7</ele>
        <time>2024-02-04T10:38:11Z</time>
      </trkpt>
      <trkpt lat="49.15277" lon="-0.13603">
        <ele>26.7</ele>
        <time>2024-02-04T10:38:12Z</time>
      </trkpt>
      <trkpt lat="49.15284" lon="-0.13595">
        <ele>26.6</ele>
        <time>2024-02-04T10:38:13Z</time>
      </trkpt>
      <trkpt lat="49.15291" lon="-0.13586">
        <ele>26.6</ele>
        <time>2024-02-04T10:38:14Z</time>
      </trkpt>
      <trkpt lat="49.15298" lon="-0.13577">
        <ele>26.6</ele>
        <time>2024-02-04T10:38:15Z</time>
      </trkpt>
      <trkpt lat="49.15304" lon="-0.13567">
        <ele>26.6</ele>
        <time>2024-02-04T10:38:16Z</time>
      </trkpt>
      <trkpt lat="49.15311" lon="-0.13556">
        <ele>26.5</ele>
        <time>2024-02-04T10:38:17Z</time>
      </trkpt>
      <trkpt lat="49.15317" lon="-0.13545">
        <ele>26.5</ele>
        <time>2024-02-04T10:38:18Z</time>
      </trkpt>
      <trkpt lat="49.15323" lon="-0.13534">
        <ele>26.4</ele>
        <time>2024-02-04T10:38:19Z</time>
      </trkpt>
      <trkpt lat="49.15329" lon="-0.13522">
        <ele>26.4</ele>
        <time>2024-02-04T10:38:20Z</time>
      </trkpt>
      <trkpt lat="49.15335" lon="-0.1351">
        <ele>26.4</ele>
        <time>2024-02-04T10:38:21Z</time>
      </trkpt>
      <trkpt lat="49.15341" lon="-0.13498">
        <ele>26.3</ele>
        <time>2024-02-04T10:38:22Z</time>
      </trkpt>
      <trkpt lat="49.15347" lon="-0.13486">
        <ele>26.3</ele>
        <time>2024-02-04T10:38:23Z</time>
      </trkpt>
      <trkpt lat="49.15353" lon="-0.13475">
        <ele>26.3</ele>
        <time>2024-02-04T10:38:24Z</time>
      </trkpt>
      <trkpt lat="49.15359" lon="-0.13463">
        <ele>26.3</ele>
        <time>2024-02-04T10:38:25Z</time>
      </trkpt>
      <trkpt lat="49.15366" lon="-0.13452">
        <ele>26.2</ele>
        <time>2024-02-04T10:38:26Z</time>
      </trkpt>
      <trkpt lat="49.15373" lon="-0.13442">
        <ele>26.2</ele>
        <time>2024-02-04T10:38:27Z</time>
      </trkpt>
      <trkpt lat="49.15379" lon="-0.13431">
        <ele>26.2</ele>
        <time>2024-02-04T10:38:28Z</time>
      </trkpt>
      <trkpt lat="49.15386" lon="-0.13422">
        <ele>26.1</ele>
        <time>2024-02-04T10:38:29Z</time>
      </trkpt>
      <trkpt lat="49.15394" lon="-0.13412">
        <ele>26</ele>
        <time>2024-02-04T10:38:30Z</time>
      </trkpt>
      <trkpt lat="49.15401" lon="-0.13404">
        <ele>26</ele>
        <time>2024-02-04T10:38:31Z</time>
      </trkpt>
      <trkpt lat="49.15409" lon="-0.13396">
        <ele>25.9</ele>
        <time>2024-02-04T10:38:32Z</time>
      </trkpt>
      <trkpt lat="49.15418" lon="-0.13388">
        <ele>25.9</ele>
        <time>2024-02-04T10:38:33Z</time>
      </trkpt>
      <trkpt lat="49.15425" lon="-0.1338">
        <ele>25.9</ele>
        <time>2024-02-04T10:38:34Z</time>
      </trkpt>
      <trkpt lat="49.15433" lon="-0.13373">
        <ele>25.9</ele>
        <time>2024-02-04T10:38:35Z</time>
      </trkpt>
      <trkpt lat="49.15441" lon="-0.13365">
        <ele>25.9</ele>
        <time>2024-02-04T10:38:36Z</time>
      </trkpt>
      <trkpt lat="49.15449" lon="-0.13358">
        <ele>25.8</ele>
        <time>2024-02-04T10:38:37Z</time>
      </trkpt>
      <trkpt lat="49.15457" lon="-0.1335">
        <ele>25.8</ele>
        <time>2024-02-04T10:38:38Z</time>
      </trkpt>
      <trkpt lat="49.15465" lon="-0.13342">
        <ele>25.8</ele>
        <time>2024-02-04T10:38:39Z</time>
      </trkpt>
      <trkpt lat="49.15472" lon="-0.13334">
        <ele>25.7</ele>
        <time>2024-02-04T10:38:40Z</time>
      </trkpt>
      <trkpt lat="49.15488" lon="-0.13318">
        <ele>25.6</ele>
        <time>2024-02-04T10:38:42Z</time>
      </trkpt>
      <trkpt lat="49.15496" lon="-0.1331">
        <ele>25.6</ele>
        <time>2024-02-04T10:38:43Z</time>
      </trkpt>
      <trkpt lat="49.15504" lon="-0.13302">
        <ele>25.5</ele>
        <time>2024-02-04T10:38:44Z</time>
      </trkpt>
      <trkpt lat="49.15513" lon="-0.13294">
        <ele>25.5</ele>
        <time>2024-02-04T10:38:45Z</time>
      </trkpt>
      <trkpt lat="49.15521" lon="-0.13287">
        <ele>25.5</ele>
        <time>2024-02-04T10:38:46Z</time>
      </trkpt>
      <trkpt lat="49.15529" lon="-0.13279">
        <ele>25.5</ele>
        <time>2024-02-04T10:38:47Z</time>
      </trkpt>
      <trkpt lat="49.15537" lon="-0.13272">
        <ele>25.4</ele>
        <time>2024-02-04T10:38:48Z</time>
      </trkpt>
      <trkpt lat="49.15545" lon="-0.13264">
        <ele>25.4</ele>
        <time>2024-02-04T10:38:49Z</time>
      </trkpt>
      <trkpt lat="49.15553" lon="-0.13256">
        <ele>25.4</ele>
        <time>2024-02-04T10:38:50Z</time>
      </trkpt>
      <trkpt lat="49.15561" lon="-0.13248">
        <ele>25.4</ele>
        <time>2024-02-04T10:38:51Z</time>
      </trkpt>
      <trkpt lat="49.1557" lon="-0.1324">
        <ele>25.3</ele>
        <time>2024-02-04T10:38:52Z</time>
      </trkpt>
      <trkpt lat="49.15578" lon="-0.13233">
        <ele>25.3</ele>
        <time>2024-02-04T10:38:53Z</time>
      </trkpt>
      <trkpt lat="49.15586" lon="-0.13225">
        <ele>25.3</ele>
        <time>2024-02-04T10:38:54Z</time>
      </trkpt>
      <trkpt lat="49.15594" lon="-0.13217">
        <ele>25.3</ele>
        <time>2024-02-04T10:38:55Z</time>
      </trkpt>
      <trkpt lat="49.15602" lon="-0.13209">
        <ele>25.2</ele>
        <time>2024-02-04T10:38:56Z</time>
      </trkpt>
      <trkpt lat="49.15618" lon="-0.13193">
        <ele>25.2</ele>
        <time>2024-02-04T10:38:58Z</time>
      </trkpt>
      <trkpt lat="49.15626" lon="-0.13186">
        <ele>25.1</ele>
        <time>2024-02-04T10:39:00Z</time>
      </trkpt>
      <trkpt lat="49.15642" lon="-0.1317">
        <ele>25</ele>
        <time>2024-02-04T10:39:01Z</time>
      </trkpt>
      <trkpt lat="49.1565" lon="-0.13163">
        <ele>25</ele>
        <time>2024-02-04T10:39:02Z</time>
      </trkpt>
      <trkpt lat="49.15666" lon="-0.13147">
        <ele>25</ele>
        <time>2024-02-04T10:39:04Z</time>
      </trkpt>
      <trkpt lat="49.15674" lon="-0.1314">
        <ele>24.9</ele>
        <time>2024-02-04T10:39:05Z</time>
      </trkpt>
      <trkpt lat="49.15681" lon="-0.13132">
        <ele>24.9</ele>
        <time>2024-02-04T10:39:06Z</time>
      </trkpt>
      <trkpt lat="49.15688" lon="-0.13125">
        <ele>24.9</ele>
        <time>2024-02-04T10:39:07Z</time>
      </trkpt>
      <trkpt lat="49.15696" lon="-0.13117">
        <ele>24.9</ele>
        <time>2024-02-04T10:39:08Z</time>
      </trkpt>
      <trkpt lat="49.15703" lon="-0.1311">
        <ele>24.9</ele>
        <time>2024-02-04T10:39:09Z</time>
      </trkpt>
      <trkpt lat="49.15711" lon="-0.13103">
        <ele>24.9</ele>
        <time>2024-02-04T10:39:10Z</time>
      </trkpt>
      <trkpt lat="49.15718" lon="-0.13096">
        <ele>24.9</ele>
        <time>2024-02-04T10:39:11Z</time>
      </trkpt>
      <trkpt lat="49.15724" lon="-0.1309">
        <ele>24.9</ele>
        <time>2024-02-04T10:39:12Z</time>
      </trkpt>
      <trkpt lat="49.15731" lon="-0.13083">
        <ele>24.9</ele>
        <time>2024-02-04T10:39:13Z</time>
      </trkpt>
      <trkpt lat="49.15738" lon="-0.13076">
        <ele>24.8</ele>
        <time>2024-02-04T10:39:14Z</time>
      </trkpt>
      <trkpt lat="49.15744" lon="-0.1307">
        <ele>24.8</ele>
        <time>2024-02-04T10:39:15Z</time>
      </trkpt>
      <trkpt lat="49.15751" lon="-0.13064">
        <ele>24.8</ele>
        <time>2024-02-04T10:39:16Z</time>
      </trkpt>
      <trkpt lat="49.15757" lon="-0.13058">
        <ele>24.8</ele>
        <time>2024-02-04T10:39:17Z</time>
      </trkpt>
      <trkpt lat="49.15763" lon="-0.13052">
        <ele>24.7</ele>
        <time>2024-02-04T10:39:18Z</time>
      </trkpt>
      <trkpt lat="49.15769" lon="-0.13047">
        <ele>24.7</ele>
        <time>2024-02-04T10:39:19Z</time>
      </trkpt>
      <trkpt lat="49.15775" lon="-0.13041">
        <ele>24.7</ele>
        <time>2024-02-04T10:39:20Z</time>
      </trkpt>
      <trkpt lat="49.15782" lon="-0.13036">
        <ele>24.7</ele>
        <time>2024-02-04T10:39:21Z</time>
      </trkpt>
      <trkpt lat="49.15794" lon="-0.13025">
        <ele>24.7</ele>
        <time>2024-02-04T10:39:23Z</time>
      </trkpt>
      <trkpt lat="49.15799" lon="-0.13019">
        <ele>24.7</ele>
        <time>2024-02-04T10:39:24Z</time>
      </trkpt>
      <trkpt lat="49.15805" lon="-0.13014">
        <ele>24.7</ele>
        <time>2024-02-04T10:39:25Z</time>
      </trkpt>
      <trkpt lat="49.1581" lon="-0.13009">
        <ele>24.7</ele>
        <time>2024-02-04T10:39:26Z</time>
      </trkpt>
      <trkpt lat="49.15816" lon="-0.13004">
        <ele>24.7</ele>
        <time>2024-02-04T10:39:27Z</time>
      </trkpt>
      <trkpt lat="49.15822" lon="-0.12999">
        <ele>24.7</ele>
        <time>2024-02-04T10:39:28Z</time>
      </trkpt>
      <trkpt lat="49.15827" lon="-0.12995">
        <ele>24.7</ele>
        <time>2024-02-04T10:39:29Z</time>
      </trkpt>
      <trkpt lat="49.15832" lon="-0.1299">
        <ele>24.7</ele>
        <time>2024-02-04T10:39:30Z</time>
      </trkpt>
      <trkpt lat="49.15838" lon="-0.12985">
        <ele>24.7</ele>
        <time>2024-02-04T10:39:31Z</time>
      </trkpt>
      <trkpt lat="49.15843" lon="-0.12981">
        <ele>24.7</ele>
        <time>2024-02-04T10:39:32Z</time>
      </trkpt>
      <trkpt lat="49.15849" lon="-0.12977">
        <ele>24.6</ele>
        <time>2024-02-04T10:39:33Z</time>
      </trkpt>
      <trkpt lat="49.15854" lon="-0.12973">
        <ele>24.6</ele>
        <time>2024-02-04T10:39:34Z</time>
      </trkpt>
      <trkpt lat="49.15859" lon="-0.12968">
        <ele>24.5</ele>
        <time>2024-02-04T10:39:35Z</time>
      </trkpt>
      <trkpt lat="49.15865" lon="-0.12964">
        <ele>24.5</ele>
        <time>2024-02-04T10:39:36Z</time>
      </trkpt>
      <trkpt lat="49.15871" lon="-0.1296">
        <ele>24.5</ele>
        <time>2024-02-04T10:39:37Z</time>
      </trkpt>
      <trkpt lat="49.15877" lon="-0.12955">
        <ele>24.4</ele>
        <time>2024-02-04T10:39:38Z</time>
      </trkpt>
      <trkpt lat="49.15882" lon="-0.12951">
        <ele>24.4</ele>
        <time>2024-02-04T10:39:39Z</time>
      </trkpt>
      <trkpt lat="49.15888" lon="-0.12946">
        <ele>24.3</ele>
        <time>2024-02-04T10:39:40Z</time>
      </trkpt>
      <trkpt lat="49.15894" lon="-0.12942">
        <ele>24.3</ele>
        <time>2024-02-04T10:39:41Z</time>
      </trkpt>
      <trkpt lat="49.15899" lon="-0.12937">
        <ele>24.2</ele>
        <time>2024-02-04T10:39:42Z</time>
      </trkpt>
      <trkpt lat="49.15905" lon="-0.12932">
        <ele>24.2</ele>
        <time>2024-02-04T10:39:43Z</time>
      </trkpt>
      <trkpt lat="49.15912" lon="-0.12927">
        <ele>24.1</ele>
        <time>2024-02-04T10:39:44Z</time>
      </trkpt>
      <trkpt lat="49.15918" lon="-0.12923">
        <ele>24.1</ele>
        <time>2024-02-04T10:39:45Z</time>
      </trkpt>
      <trkpt lat="49.15924" lon="-0.12918">
        <ele>24</ele>
        <time>2024-02-04T10:39:46Z</time>
      </trkpt>
      <trkpt lat="49.1593" lon="-0.12913">
        <ele>24</ele>
        <time>2024-02-04T10:39:47Z</time>
      </trkpt>
      <trkpt lat="49.15936" lon="-0.12909">
        <ele>23.9</ele>
        <time>2024-02-04T10:39:48Z</time>
      </trkpt>
      <trkpt lat="49.15942" lon="-0.12904">
        <ele>23.8</ele>
        <time>2024-02-04T10:39:49Z</time>
      </trkpt>
      <trkpt lat="49.15948" lon="-0.129">
        <ele>23.8</ele>
        <time>2024-02-04T10:39:50Z</time>
      </trkpt>
      <trkpt lat="49.15954" lon="-0.12895">
        <ele>23.7</ele>
        <time>2024-02-04T10:39:51Z</time>
      </trkpt>
      <trkpt lat="49.1596" lon="-0.12891">
        <ele>23.7</ele>
        <time>2024-02-04T10:39:52Z</time>
      </trkpt>
      <trkpt lat="49.15966" lon="-0.12886">
        <ele>23.7</ele>
        <time>2024-02-04T10:39:53Z</time>
      </trkpt>
      <trkpt lat="49.15971" lon="-0.12882">
        <ele>23.6</ele>
        <time>2024-02-04T10:39:54Z</time>
      </trkpt>
      <trkpt lat="49.15977" lon="-0.12878">
        <ele>23.6</ele>
        <time>2024-02-04T10:39:55Z</time>
      </trkpt>
      <trkpt lat="49.15983" lon="-0.12873">
        <ele>23.5</ele>
        <time>2024-02-04T10:39:56Z</time>
      </trkpt>
      <trkpt lat="49.15988" lon="-0.12869">
        <ele>23.4</ele>
        <time>2024-02-04T10:39:57Z</time>
      </trkpt>
      <trkpt lat="49.15994" lon="-0.12865">
        <ele>23.3</ele>
        <time>2024-02-04T10:39:58Z</time>
      </trkpt>
      <trkpt lat="49.16" lon="-0.12862">
        <ele>23.3</ele>
        <time>2024-02-04T10:39:59Z</time>
      </trkpt>
      <trkpt lat="49.16005" lon="-0.12857">
        <ele>23.2</ele>
        <time>2024-02-04T10:40:00Z</time>
      </trkpt>
      <trkpt lat="49.16011" lon="-0.12853">
        <ele>23.1</ele>
        <time>2024-02-04T10:40:01Z</time>
      </trkpt>
      <trkpt lat="49.16017" lon="-0.12849">
        <ele>23</ele>
        <time>2024-02-04T10:40:02Z</time>
      </trkpt>
      <trkpt lat="49.16023" lon="-0.12845">
        <ele>23</ele>
        <time>2024-02-04T10:40:03Z</time>
      </trkpt>
      <trkpt lat="49.16029" lon="-0.12841">
        <ele>22.9</ele>
        <time>2024-02-04T10:40:04Z</time>
      </trkpt>
      <trkpt lat="49.16035" lon="-0.12837">
        <ele>22.8</ele>
        <time>2024-02-04T10:40:05Z</time>
      </trkpt>
      <trkpt lat="49.16041" lon="-0.12833">
        <ele>22.7</ele>
        <time>2024-02-04T10:40:06Z</time>
      </trkpt>
      <trkpt lat="49.16047" lon="-0.12829">
        <ele>22.6</ele>
        <time>2024-02-04T10:40:07Z</time>
      </trkpt>
      <trkpt lat="49.16053" lon="-0.12825">
        <ele>22.5</ele>
        <time>2024-02-04T10:40:08Z</time>
      </trkpt>
      <trkpt lat="49.1606" lon="-0.12822">
        <ele>22.4</ele>
        <time>2024-02-04T10:40:09Z</time>
      </trkpt>
      <trkpt lat="49.16066" lon="-0.12818">
        <ele>22.3</ele>
        <time>2024-02-04T10:40:10Z</time>
      </trkpt>
      <trkpt lat="49.16072" lon="-0.12815">
        <ele>22.2</ele>
        <time>2024-02-04T10:40:11Z</time>
      </trkpt>
      <trkpt lat="49.16078" lon="-0.12811">
        <ele>22.1</ele>
        <time>2024-02-04T10:40:12Z</time>
      </trkpt>
      <trkpt lat="49.16084" lon="-0.12807">
        <ele>22.1</ele>
        <time>2024-02-04T10:40:13Z</time>
      </trkpt>
      <trkpt lat="49.16097" lon="-0.128">
        <ele>21.9</ele>
        <time>2024-02-04T10:40:15Z</time>
      </trkpt>
      <trkpt lat="49.16103" lon="-0.12797">
        <ele>21.8</ele>
        <time>2024-02-04T10:40:16Z</time>
      </trkpt>
      <trkpt lat="49.1611" lon="-0.12794">
        <ele>21.7</ele>
        <time>2024-02-04T10:40:17Z</time>
      </trkpt>
      <trkpt lat="49.16116" lon="-0.12791">
        <ele>21.6</ele>
        <time>2024-02-04T10:40:18Z</time>
      </trkpt>
      <trkpt lat="49.16123" lon="-0.12788">
        <ele>21.6</ele>
        <time>2024-02-04T10:40:19Z</time>
      </trkpt>
      <trkpt lat="49.16129" lon="-0.12785">
        <ele>21.5</ele>
        <time>2024-02-04T10:40:20Z</time>
      </trkpt>
      <trkpt lat="49.16136" lon="-0.12782">
        <ele>21.4</ele>
        <time>2024-02-04T10:40:21Z</time>
      </trkpt>
      <trkpt lat="49.16142" lon="-0.1278">
        <ele>21.3</ele>
        <time>2024-02-04T10:40:22Z</time>
      </trkpt>
      <trkpt lat="49.16149" lon="-0.12776">
        <ele>21.2</ele>
        <time>2024-02-04T10:40:23Z</time>
      </trkpt>
      <trkpt lat="49.16156" lon="-0.12773">
        <ele>21.2</ele>
        <time>2024-02-04T10:40:24Z</time>
      </trkpt>
      <trkpt lat="49.16162" lon="-0.12771">
        <ele>21.1</ele>
        <time>2024-02-04T10:40:25Z</time>
      </trkpt>
      <trkpt lat="49.1617" lon="-0.12768">
        <ele>21.1</ele>
        <time>2024-02-04T10:40:26Z</time>
      </trkpt>
      <trkpt lat="49.16176" lon="-0.12765">
        <ele>21</ele>
        <time>2024-02-04T10:40:27Z</time>
      </trkpt>
      <trkpt lat="49.16183" lon="-0.12762">
        <ele>21</ele>
        <time>2024-02-04T10:40:28Z</time>
      </trkpt>
      <trkpt lat="49.1619" lon="-0.12759">
        <ele>20.9</ele>
        <time>2024-02-04T10:40:29Z</time>
      </trkpt>
      <trkpt lat="49.16197" lon="-0.12757">
        <ele>20.9</ele>
        <time>2024-02-04T10:40:30Z</time>
      </trkpt>
      <trkpt lat="49.16203" lon="-0.12754">
        <ele>20.8</ele>
        <time>2024-02-04T10:40:31Z</time>
      </trkpt>
      <trkpt lat="49.1621" lon="-0.12751">
        <ele>20.8</ele>
        <time>2024-02-04T10:40:32Z</time>
      </trkpt>
      <trkpt lat="49.16217" lon="-0.12749">
        <ele>20.7</ele>
        <time>2024-02-04T10:40:33Z</time>
      </trkpt>
      <trkpt lat="49.16225" lon="-0.12746">
        <ele>20.6</ele>
        <time>2024-02-04T10:40:34Z</time>
      </trkpt>
      <trkpt lat="49.16232" lon="-0.12743">
        <ele>20.6</ele>
        <time>2024-02-04T10:40:35Z</time>
      </trkpt>
      <trkpt lat="49.1624" lon="-0.12739">
        <ele>20.5</ele>
        <time>2024-02-04T10:40:36Z</time>
      </trkpt>
      <trkpt lat="49.16248" lon="-0.12736">
        <ele>20.4</ele>
        <time>2024-02-04T10:40:37Z</time>
      </trkpt>
      <trkpt lat="49.16255" lon="-0.12733">
        <ele>20.3</ele>
        <time>2024-02-04T10:40:38Z</time>
      </trkpt>
      <trkpt lat="49.16264" lon="-0.12729">
        <ele>20.3</ele>
        <time>2024-02-04T10:40:39Z</time>
      </trkpt>
      <trkpt lat="49.16272" lon="-0.12726">
        <ele>20.2</ele>
        <time>2024-02-04T10:40:40Z</time>
      </trkpt>
      <trkpt lat="49.16281" lon="-0.12723">
        <ele>20.1</ele>
        <time>2024-02-04T10:40:41Z</time>
      </trkpt>
      <trkpt lat="49.1629" lon="-0.1272">
        <ele>20</ele>
        <time>2024-02-04T10:40:42Z</time>
      </trkpt>
      <trkpt lat="49.16298" lon="-0.12717">
        <ele>19.9</ele>
        <time>2024-02-04T10:40:43Z</time>
      </trkpt>
      <trkpt lat="49.16307" lon="-0.12713">
        <ele>19.8</ele>
        <time>2024-02-04T10:40:44Z</time>
      </trkpt>
      <trkpt lat="49.16315" lon="-0.1271">
        <ele>19.6</ele>
        <time>2024-02-04T10:40:45Z</time>
      </trkpt>
      <trkpt lat="49.16324" lon="-0.12707">
        <ele>19.5</ele>
        <time>2024-02-04T10:40:46Z</time>
      </trkpt>
      <trkpt lat="49.16333" lon="-0.12703">
        <ele>19.3</ele>
        <time>2024-02-04T10:40:47Z</time>
      </trkpt>
      <trkpt lat="49.16342" lon="-0.127">
        <ele>19.2</ele>
        <time>2024-02-04T10:40:48Z</time>
      </trkpt>
      <trkpt lat="49.1635" lon="-0.12696">
        <ele>19</ele>
        <time>2024-02-04T10:40:49Z</time>
      </trkpt>
      <trkpt lat="49.16359" lon="-0.12693">
        <ele>18.9</ele>
        <time>2024-02-04T10:40:50Z</time>
      </trkpt>
      <trkpt lat="49.16368" lon="-0.12689">
        <ele>18.7</ele>
        <time>2024-02-04T10:40:51Z</time>
      </trkpt>
      <trkpt lat="49.16377" lon="-0.12685">
        <ele>18.6</ele>
        <time>2024-02-04T10:40:52Z</time>
      </trkpt>
      <trkpt lat="49.16386" lon="-0.12682">
        <ele>18.4</ele>
        <time>2024-02-04T10:40:53Z</time>
      </trkpt>
      <trkpt lat="49.16395" lon="-0.12678">
        <ele>18.3</ele>
        <time>2024-02-04T10:40:54Z</time>
      </trkpt>
      <trkpt lat="49.16404" lon="-0.12675">
        <ele>18.1</ele>
        <time>2024-02-04T10:40:55Z</time>
      </trkpt>
      <trkpt lat="49.16414" lon="-0.12671">
        <ele>17.9</ele>
        <time>2024-02-04T10:40:56Z</time>
      </trkpt>
      <trkpt lat="49.16423" lon="-0.12667">
        <ele>17.8</ele>
        <time>2024-02-04T10:40:57Z</time>
      </trkpt>
      <trkpt lat="49.16431" lon="-0.12664">
        <ele>17.6</ele>
        <time>2024-02-04T10:40:58Z</time>
      </trkpt>
      <trkpt lat="49.1644" lon="-0.1266">
        <ele>17.4</ele>
        <time>2024-02-04T10:40:59Z</time>
      </trkpt>
      <trkpt lat="49.16449" lon="-0.12657">
        <ele>17.2</ele>
        <time>2024-02-04T10:41:00Z</time>
      </trkpt>
      <trkpt lat="49.16459" lon="-0.12654">
        <ele>17</ele>
        <time>2024-02-04T10:41:01Z</time>
      </trkpt>
      <trkpt lat="49.16468" lon="-0.1265">
        <ele>16.8</ele>
        <time>2024-02-04T10:41:02Z</time>
      </trkpt>
      <trkpt lat="49.16477" lon="-0.12646">
        <ele>16.6</ele>
        <time>2024-02-04T10:41:03Z</time>
      </trkpt>
      <trkpt lat="49.16486" lon="-0.12643">
        <ele>16.4</ele>
        <time>2024-02-04T10:41:04Z</time>
      </trkpt>
      <trkpt lat="49.16496" lon="-0.12639">
        <ele>16.2</ele>
        <time>2024-02-04T10:41:05Z</time>
      </trkpt>
      <trkpt lat="49.16505" lon="-0.12636">
        <ele>16</ele>
        <time>2024-02-04T10:41:06Z</time>
      </trkpt>
      <trkpt lat="49.16514" lon="-0.12632">
        <ele>15.8</ele>
        <time>2024-02-04T10:41:07Z</time>
      </trkpt>
      <trkpt lat="49.16524" lon="-0.12629">
        <ele>15.6</ele>
        <time>2024-02-04T10:41:08Z</time>
      </trkpt>
      <trkpt lat="49.16533" lon="-0.12625">
        <ele>15.4</ele>
        <time>2024-02-04T10:41:09Z</time>
      </trkpt>
      <trkpt lat="49.16542" lon="-0.12621">
        <ele>15.2</ele>
        <time>2024-02-04T10:41:10Z</time>
      </trkpt>
      <trkpt lat="49.16551" lon="-0.12617">
        <ele>14.9</ele>
        <time>2024-02-04T10:41:11Z</time>
      </trkpt>
      <trkpt lat="49.16561" lon="-0.12613">
        <ele>14.7</ele>
        <time>2024-02-04T10:41:12Z</time>
      </trkpt>
      <trkpt lat="49.16571" lon="-0.12609">
        <ele>14.4</ele>
        <time>2024-02-04T10:41:13Z</time>
      </trkpt>
      <trkpt lat="49.1658" lon="-0.12605">
        <ele>14.1</ele>
        <time>2024-02-04T10:41:14Z</time>
      </trkpt>
      <trkpt lat="49.1659" lon="-0.12601">
        <ele>13.9</ele>
        <time>2024-02-04T10:41:15Z</time>
      </trkpt>
      <trkpt lat="49.166" lon="-0.12597">
        <ele>13.7</ele>
        <time>2024-02-04T10:41:16Z</time>
      </trkpt>
      <trkpt lat="49.1661" lon="-0.12593">
        <ele>13.4</ele>
        <time>2024-02-04T10:41:17Z</time>
      </trkpt>
      <trkpt lat="49.16619" lon="-0.12589">
        <ele>13.2</ele>
        <time>2024-02-04T10:41:18Z</time>
      </trkpt>
      <trkpt lat="49.16629" lon="-0.12586">
        <ele>13</ele>
        <time>2024-02-04T10:41:19Z</time>
      </trkpt>
      <trkpt lat="49.16639" lon="-0.12582">
        <ele>12.7</ele>
        <time>2024-02-04T10:41:20Z</time>
      </trkpt>
      <trkpt lat="49.16648" lon="-0.12578">
        <ele>12.5</ele>
        <time>2024-02-04T10:41:21Z</time>
      </trkpt>
      <trkpt lat="49.16658" lon="-0.12574">
        <ele>12.3</ele>
        <time>2024-02-04T10:41:22Z</time>
      </trkpt>
      <trkpt lat="49.16667" lon="-0.1257">
        <ele>12.1</ele>
        <time>2024-02-04T10:41:23Z</time>
      </trkpt>
      <trkpt lat="49.16677" lon="-0.12566">
        <ele>11.9</ele>
        <time>2024-02-04T10:41:24Z</time>
      </trkpt>
      <trkpt lat="49.16687" lon="-0.12562">
        <ele>11.7</ele>
        <time>2024-02-04T10:41:25Z</time>
      </trkpt>
      <trkpt lat="49.16696" lon="-0.12558">
        <ele>11.5</ele>
        <time>2024-02-04T10:41:26Z</time>
      </trkpt>
      <trkpt lat="49.16706" lon="-0.12553">
        <ele>11.3</ele>
        <time>2024-02-04T10:41:27Z</time>
      </trkpt>
      <trkpt lat="49.16715" lon="-0.12548">
        <ele>11.1</ele>
        <time>2024-02-04T10:41:28Z</time>
      </trkpt>
      <trkpt lat="49.16723" lon="-0.12543">
        <ele>11</ele>
        <time>2024-02-04T10:41:29Z</time>
      </trkpt>
      <trkpt lat="49.16732" lon="-0.12537">
        <ele>10.8</ele>
        <time>2024-02-04T10:41:30Z</time>
      </trkpt>
      <trkpt lat="49.16741" lon="-0.12531">
        <ele>10.7</ele>
        <time>2024-02-04T10:41:31Z</time>
      </trkpt>
      <trkpt lat="49.1675" lon="-0.12523">
        <ele>10.5</ele>
        <time>2024-02-04T10:41:32Z</time>
      </trkpt>
      <trkpt lat="49.16759" lon="-0.12517">
        <ele>10.4</ele>
        <time>2024-02-04T10:41:33Z</time>
      </trkpt>
      <trkpt lat="49.16768" lon="-0.1251">
        <ele>10.3</ele>
        <time>2024-02-04T10:41:34Z</time>
      </trkpt>
      <trkpt lat="49.16776" lon="-0.12503">
        <ele>10.2</ele>
        <time>2024-02-04T10:41:35Z</time>
      </trkpt>
      <trkpt lat="49.16785" lon="-0.12495">
        <ele>10.2</ele>
        <time>2024-02-04T10:41:36Z</time>
      </trkpt>
      <trkpt lat="49.16793" lon="-0.12489">
        <ele>10.1</ele>
        <time>2024-02-04T10:41:37Z</time>
      </trkpt>
      <trkpt lat="49.16801" lon="-0.12482">
        <ele>10</ele>
        <time>2024-02-04T10:41:38Z</time>
      </trkpt>
      <trkpt lat="49.16809" lon="-0.12475">
        <ele>10</ele>
        <time>2024-02-04T10:41:39Z</time>
      </trkpt>
      <trkpt lat="49.16816" lon="-0.12469">
        <ele>9.9</ele>
        <time>2024-02-04T10:41:40Z</time>
      </trkpt>
      <trkpt lat="49.16823" lon="-0.12462">
        <ele>9.9</ele>
        <time>2024-02-04T10:41:41Z</time>
      </trkpt>
      <trkpt lat="49.1683" lon="-0.12457">
        <ele>9.8</ele>
        <time>2024-02-04T10:41:42Z</time>
      </trkpt>
      <trkpt lat="49.16837" lon="-0.12451">
        <ele>9.8</ele>
        <time>2024-02-04T10:41:43Z</time>
      </trkpt>
      <trkpt lat="49.16844" lon="-0.12445">
        <ele>9.7</ele>
        <time>2024-02-04T10:41:44Z</time>
      </trkpt>
      <trkpt lat="49.16851" lon="-0.12439">
        <ele>9.7</ele>
        <time>2024-02-04T10:41:45Z</time>
      </trkpt>
      <trkpt lat="49.16857" lon="-0.12433">
        <ele>9.7</ele>
        <time>2024-02-04T10:41:46Z</time>
      </trkpt>
      <trkpt lat="49.16864" lon="-0.12428">
        <ele>9.7</ele>
        <time>2024-02-04T10:41:47Z</time>
      </trkpt>
      <trkpt lat="49.16871" lon="-0.12422">
        <ele>9.7</ele>
        <time>2024-02-04T10:41:48Z</time>
      </trkpt>
      <trkpt lat="49.16878" lon="-0.12415">
        <ele>9.6</ele>
        <time>2024-02-04T10:41:49Z</time>
      </trkpt>
      <trkpt lat="49.16884" lon="-0.12406">
        <ele>9.5</ele>
        <time>2024-02-04T10:41:50Z</time>
      </trkpt>
      <trkpt lat="49.1689" lon="-0.12397">
        <ele>9.4</ele>
        <time>2024-02-04T10:41:51Z</time>
      </trkpt>
      <trkpt lat="49.16899" lon="-0.12373">
        <ele>9.2</ele>
        <time>2024-02-04T10:41:53Z</time>
      </trkpt>
      <trkpt lat="49.16902" lon="-0.12361">
        <ele>9</ele>
        <time>2024-02-04T10:41:54Z</time>
      </trkpt>
      <trkpt lat="49.16904" lon="-0.12347">
        <ele>8.9</ele>
        <time>2024-02-04T10:41:55Z</time>
      </trkpt>
      <trkpt lat="49.16906" lon="-0.12334">
        <ele>8.9</ele>
        <time>2024-02-04T10:41:56Z</time>
      </trkpt>
      <trkpt lat="49.16907" lon="-0.1232">
        <ele>8.8</ele>
        <time>2024-02-04T10:41:57Z</time>
      </trkpt>
      <trkpt lat="49.16908" lon="-0.12307">
        <ele>8.6</ele>
        <time>2024-02-04T10:41:58Z</time>
      </trkpt>
      <trkpt lat="49.16909" lon="-0.12293">
        <ele>8.5</ele>
        <time>2024-02-04T10:41:59Z</time>
      </trkpt>
      <trkpt lat="49.1691" lon="-0.12279">
        <ele>8.4</ele>
        <time>2024-02-04T10:42:00Z</time>
      </trkpt>
      <trkpt lat="49.16911" lon="-0.12267">
        <ele>8.3</ele>
        <time>2024-02-04T10:42:01Z</time>
      </trkpt>
      <trkpt lat="49.16912" lon="-0.12253">
        <ele>8.1</ele>
        <time>2024-02-04T10:42:02Z</time>
      </trkpt>
      <trkpt lat="49.16913" lon="-0.1224">
        <ele>8</ele>
        <time>2024-02-04T10:42:03Z</time>
      </trkpt>
      <trkpt lat="49.16914" lon="-0.12227">
        <ele>7.9</ele>
        <time>2024-02-04T10:42:04Z</time>
      </trkpt>
      <trkpt lat="49.16915" lon="-0.12213">
        <ele>7.7</ele>
        <time>2024-02-04T10:42:05Z</time>
      </trkpt>
      <trkpt lat="49.16916" lon="-0.122">
        <ele>7.6</ele>
        <time>2024-02-04T10:42:06Z</time>
      </trkpt>
      <trkpt lat="49.16917" lon="-0.12187">
        <ele>7.5</ele>
        <time>2024-02-04T10:42:07Z</time>
      </trkpt>
      <trkpt lat="49.16918" lon="-0.12174">
        <ele>7.4</ele>
        <time>2024-02-04T10:42:08Z</time>
      </trkpt>
      <trkpt lat="49.16919" lon="-0.1216">
        <ele>7.3</ele>
        <time>2024-02-04T10:42:09Z</time>
      </trkpt>
      <trkpt lat="49.1692" lon="-0.12146">
        <ele>7.2</ele>
        <time>2024-02-04T10:42:10Z</time>
      </trkpt>
      <trkpt lat="49.16921" lon="-0.12132">
        <ele>7</ele>
        <time>2024-02-04T10:42:11Z</time>
      </trkpt>
      <trkpt lat="49.16922" lon="-0.12119">
        <ele>6.9</ele>
        <time>2024-02-04T10:42:12Z</time>
      </trkpt>
      <trkpt lat="49.16923" lon="-0.12106">
        <ele>6.8</ele>
        <time>2024-02-04T10:42:13Z</time>
      </trkpt>
      <trkpt lat="49.16924" lon="-0.12092">
        <ele>6.7</ele>
        <time>2024-02-04T10:42:14Z</time>
      </trkpt>
      <trkpt lat="49.16925" lon="-0.12078">
        <ele>6.6</ele>
        <time>2024-02-04T10:42:15Z</time>
      </trkpt>
      <trkpt lat="49.16926" lon="-0.12065">
        <ele>6.5</ele>
        <time>2024-02-04T10:42:16Z</time>
      </trkpt>
      <trkpt lat="49.16928" lon="-0.12051">
        <ele>6.5</ele>
        <time>2024-02-04T10:42:17Z</time>
      </trkpt>
      <trkpt lat="49.1693" lon="-0.12024">
        <ele>6.4</ele>
        <time>2024-02-04T10:42:19Z</time>
      </trkpt>
      <trkpt lat="49.16931" lon="-0.12011">
        <ele>6.4</ele>
        <time>2024-02-04T10:42:20Z</time>
      </trkpt>
      <trkpt lat="49.16932" lon="-0.11998">
        <ele>6.3</ele>
        <time>2024-02-04T10:42:21Z</time>
      </trkpt>
      <trkpt lat="49.16934" lon="-0.11985">
        <ele>6.3</ele>
        <time>2024-02-04T10:42:22Z</time>
      </trkpt>
      <trkpt lat="49.16936" lon="-0.11972">
        <ele>6.2</ele>
        <time>2024-02-04T10:42:23Z</time>
      </trkpt>
      <trkpt lat="49.16938" lon="-0.11959">
        <ele>6.2</ele>
        <time>2024-02-04T10:42:24Z</time>
      </trkpt>
      <trkpt lat="49.1694" lon="-0.11946">
        <ele>6.2</ele>
        <time>2024-02-04T10:42:25Z</time>
      </trkpt>
      <trkpt lat="49.16943" lon="-0.11933">
        <ele>6.1</ele>
        <time>2024-02-04T10:42:26Z</time>
      </trkpt>
      <trkpt lat="49.16946" lon="-0.11921">
        <ele>6.1</ele>
        <time>2024-02-04T10:42:27Z</time>
      </trkpt>
      <trkpt lat="49.16949" lon="-0.11908">
        <ele>6</ele>
        <time>2024-02-04T10:42:28Z</time>
      </trkpt>
      <trkpt lat="49.16953" lon="-0.11896">
        <ele>6</ele>
        <time>2024-02-04T10:42:29Z</time>
      </trkpt>
      <trkpt lat="49.16956" lon="-0.11884">
        <ele>6</ele>
        <time>2024-02-04T10:42:30Z</time>
      </trkpt>
      <trkpt lat="49.16961" lon="-0.11872">
        <ele>5.9</ele>
        <time>2024-02-04T10:42:31Z</time>
      </trkpt>
      <trkpt lat="49.16965" lon="-0.1186">
        <ele>5.9</ele>
        <time>2024-02-04T10:42:32Z</time>
      </trkpt>
      <trkpt lat="49.1697" lon="-0.11849">
        <ele>5.8</ele>
        <time>2024-02-04T10:42:33Z</time>
      </trkpt>
      <trkpt lat="49.16974" lon="-0.11837">
        <ele>5.7</ele>
        <time>2024-02-04T10:42:34Z</time>
      </trkpt>
      <trkpt lat="49.16979" lon="-0.11826">
        <ele>5.7</ele>
        <time>2024-02-04T10:42:35Z</time>
      </trkpt>
      <trkpt lat="49.16984" lon="-0.11814">
        <ele>5.6</ele>
        <time>2024-02-04T10:42:36Z</time>
      </trkpt>
      <trkpt lat="49.16989" lon="-0.11803">
        <ele>5.6</ele>
        <time>2024-02-04T10:42:37Z</time>
      </trkpt>
      <trkpt lat="49.16995" lon="-0.11792">
        <ele>5.6</ele>
        <time>2024-02-04T10:42:38Z</time>
      </trkpt>
      <trkpt lat="49.17" lon="-0.11781">
        <ele>5.6</ele>
        <time>2024-02-04T10:42:39Z</time>
      </trkpt>
      <trkpt lat="49.17005" lon="-0.11769">
        <ele>5.6</ele>
        <time>2024-02-04T10:42:40Z</time>
      </trkpt>
      <trkpt lat="49.17009" lon="-0.11758">
        <ele>5.6</ele>
        <time>2024-02-04T10:42:41Z</time>
      </trkpt>
      <trkpt lat="49.17014" lon="-0.11747">
        <ele>5.6</ele>
        <time>2024-02-04T10:42:42Z</time>
      </trkpt>
      <trkpt lat="49.17019" lon="-0.11736">
        <ele>5.6</ele>
        <time>2024-02-04T10:42:43Z</time>
      </trkpt>
      <trkpt lat="49.17024" lon="-0.11725">
        <ele>5.7</ele>
        <time>2024-02-04T10:42:44Z</time>
      </trkpt>
      <trkpt lat="49.17029" lon="-0.11714">
        <ele>5.7</ele>
        <time>2024-02-04T10:42:45Z</time>
      </trkpt>
      <trkpt lat="49.17034" lon="-0.11703">
        <ele>5.8</ele>
        <time>2024-02-04T10:42:46Z</time>
      </trkpt>
      <trkpt lat="49.17043" lon="-0.11682">
        <ele>5.7</ele>
        <time>2024-02-04T10:42:48Z</time>
      </trkpt>
      <trkpt lat="49.17048" lon="-0.1167">
        <ele>5.7</ele>
        <time>2024-02-04T10:42:49Z</time>
      </trkpt>
      <trkpt lat="49.17053" lon="-0.11659">
        <ele>5.7</ele>
        <time>2024-02-04T10:42:50Z</time>
      </trkpt>
      <trkpt lat="49.17057" lon="-0.11648">
        <ele>5.7</ele>
        <time>2024-02-04T10:42:51Z</time>
      </trkpt>
      <trkpt lat="49.17062" lon="-0.11638">
        <ele>5.7</ele>
        <time>2024-02-04T10:42:52Z</time>
      </trkpt>
      <trkpt lat="49.17067" lon="-0.11627">
        <ele>5.7</ele>
        <time>2024-02-04T10:42:53Z</time>
      </trkpt>
      <trkpt lat="49.17071" lon="-0.11617">
        <ele>5.7</ele>
        <time>2024-02-04T10:42:54Z</time>
      </trkpt>
      <trkpt lat="49.17076" lon="-0.11606">
        <ele>5.7</ele>
        <time>2024-02-04T10:42:55Z</time>
      </trkpt>
      <trkpt lat="49.1708" lon="-0.11596">
        <ele>5.7</ele>
        <time>2024-02-04T10:42:56Z</time>
      </trkpt>
      <trkpt lat="49.17085" lon="-0.11586">
        <ele>5.7</ele>
        <time>2024-02-04T10:42:57Z</time>
      </trkpt>
      <trkpt lat="49.17089" lon="-0.11575">
        <ele>5.7</ele>
        <time>2024-02-04T10:42:58Z</time>
      </trkpt>
      <trkpt lat="49.17098" lon="-0.11555">
        <ele>5.6</ele>
        <time>2024-02-04T10:43:00Z</time>
      </trkpt>
      <trkpt lat="49.17103" lon="-0.11545">
        <ele>5.6</ele>
        <time>2024-02-04T10:43:01Z</time>
      </trkpt>
      <trkpt lat="49.17111" lon="-0.11524">
        <ele>5.6</ele>
        <time>2024-02-04T10:43:03Z</time>
      </trkpt>
      <trkpt lat="49.17116" lon="-0.11514">
        <ele>5.6</ele>
        <time>2024-02-04T10:43:04Z</time>
      </trkpt>
      <trkpt lat="49.1712" lon="-0.11503">
        <ele>5.6</ele>
        <time>2024-02-04T10:43:05Z</time>
      </trkpt>
      <trkpt lat="49.17125" lon="-0.11493">
        <ele>5.6</ele>
        <time>2024-02-04T10:43:06Z</time>
      </trkpt>
      <trkpt lat="49.17129" lon="-0.11483">
        <ele>5.6</ele>
        <time>2024-02-04T10:43:07Z</time>
      </trkpt>
      <trkpt lat="49.17134" lon="-0.11473">
        <ele>5.6</ele>
        <time>2024-02-04T10:43:08Z</time>
      </trkpt>
      <trkpt lat="49.17138" lon="-0.11463">
        <ele>5.7</ele>
        <time>2024-02-04T10:43:09Z</time>
      </trkpt>
      <trkpt lat="49.17143" lon="-0.11452">
        <ele>5.7</ele>
        <time>2024-02-04T10:43:10Z</time>
      </trkpt>
      <trkpt lat="49.17147" lon="-0.11441">
        <ele>5.6</ele>
        <time>2024-02-04T10:43:11Z</time>
      </trkpt>
      <trkpt lat="49.17151" lon="-0.11431">
        <ele>5.6</ele>
        <time>2024-02-04T10:43:12Z</time>
      </trkpt>
      <trkpt lat="49.17156" lon="-0.1142">
        <ele>5.6</ele>
        <time>2024-02-04T10:43:13Z</time>
      </trkpt>
      <trkpt lat="49.17161" lon="-0.1141">
        <ele>5.6</ele>
        <time>2024-02-04T10:43:14Z</time>
      </trkpt>
      <trkpt lat="49.17166" lon="-0.114">
        <ele>5.6</ele>
        <time>2024-02-04T10:43:15Z</time>
      </trkpt>
      <trkpt lat="49.17171" lon="-0.1139">
        <ele>5.6</ele>
        <time>2024-02-04T10:43:16Z</time>
      </trkpt>
      <trkpt lat="49.17176" lon="-0.11381">
        <ele>5.5</ele>
        <time>2024-02-04T10:43:17Z</time>
      </trkpt>
      <trkpt lat="49.17181" lon="-0.11371">
        <ele>5.5</ele>
        <time>2024-02-04T10:43:18Z</time>
      </trkpt>
      <trkpt lat="49.17187" lon="-0.11362">
        <ele>5.6</ele>
        <time>2024-02-04T10:43:19Z</time>
      </trkpt>
      <trkpt lat="49.17193" lon="-0.11353">
        <ele>5.6</ele>
        <time>2024-02-04T10:43:20Z</time>
      </trkpt>
      <trkpt lat="49.17199" lon="-0.11344">
        <ele>5.6</ele>
        <time>2024-02-04T10:43:21Z</time>
      </trkpt>
      <trkpt lat="49.17205" lon="-0.11337">
        <ele>5.6</ele>
        <time>2024-02-04T10:43:22Z</time>
      </trkpt>
      <trkpt lat="49.17211" lon="-0.11329">
        <ele>5.6</ele>
        <time>2024-02-04T10:43:23Z</time>
      </trkpt>
      <trkpt lat="49.17217" lon="-0.11322">
        <ele>5.6</ele>
        <time>2024-02-04T10:43:24Z</time>
      </trkpt>
      <trkpt lat="49.17224" lon="-0.11315">
        <ele>5.7</ele>
        <time>2024-02-04T10:43:25Z</time>
      </trkpt>
      <trkpt lat="49.1723" lon="-0.11308">
        <ele>5.7</ele>
        <time>2024-02-04T10:43:26Z</time>
      </trkpt>
      <trkpt lat="49.17237" lon="-0.11302">
        <ele>5.7</ele>
        <time>2024-02-04T10:43:27Z</time>
      </trkpt>
      <trkpt lat="49.17244" lon="-0.11296">
        <ele>5.8</ele>
        <time>2024-02-04T10:43:28Z</time>
      </trkpt>
      <trkpt lat="49.1725" lon="-0.1129">
        <ele>5.8</ele>
        <time>2024-02-04T10:43:29Z</time>
      </trkpt>
      <trkpt lat="49.17257" lon="-0.11285">
        <ele>5.8</ele>
        <time>2024-02-04T10:43:30Z</time>
      </trkpt>
      <trkpt lat="49.17264" lon="-0.1128">
        <ele>5.8</ele>
        <time>2024-02-04T10:43:31Z</time>
      </trkpt>
      <trkpt lat="49.17271" lon="-0.11274">
        <ele>5.8</ele>
        <time>2024-02-04T10:43:32Z</time>
      </trkpt>
      <trkpt lat="49.17278" lon="-0.11269">
        <ele>5.7</ele>
        <time>2024-02-04T10:43:33Z</time>
      </trkpt>
      <trkpt lat="49.17286" lon="-0.11263">
        <ele>5.7</ele>
        <time>2024-02-04T10:43:34Z</time>
      </trkpt>
      <trkpt lat="49.17293" lon="-0.11258">
        <ele>5.7</ele>
        <time>2024-02-04T10:43:35Z</time>
      </trkpt>
      <trkpt lat="49.173" lon="-0.11253">
        <ele>5.7</ele>
        <time>2024-02-04T10:43:36Z</time>
      </trkpt>
      <trkpt lat="49.17307" lon="-0.11247">
        <ele>5.7</ele>
        <time>2024-02-04T10:43:37Z</time>
      </trkpt>
      <trkpt lat="49.17314" lon="-0.11242">
        <ele>5.7</ele>
        <time>2024-02-04T10:43:38Z</time>
      </trkpt>
      <trkpt lat="49.17321" lon="-0.11236">
        <ele>5.7</ele>
        <time>2024-02-04T10:43:39Z</time>
      </trkpt>
      <trkpt lat="49.17328" lon="-0.11231">
        <ele>5.8</ele>
        <time>2024-02-04T10:43:40Z</time>
      </trkpt>
      <trkpt lat="49.17335" lon="-0.11225">
        <ele>5.8</ele>
        <time>2024-02-04T10:43:41Z</time>
      </trkpt>
      <trkpt lat="49.17342" lon="-0.11219">
        <ele>5.8</ele>
        <time>2024-02-04T10:43:42Z</time>
      </trkpt>
      <trkpt lat="49.17349" lon="-0.11213">
        <ele>5.8</ele>
        <time>2024-02-04T10:43:43Z</time>
      </trkpt>
      <trkpt lat="49.17356" lon="-0.11208">
        <ele>5.8</ele>
        <time>2024-02-04T10:43:44Z</time>
      </trkpt>
      <trkpt lat="49.17363" lon="-0.11203">
        <ele>5.8</ele>
        <time>2024-02-04T10:43:45Z</time>
      </trkpt>
      <trkpt lat="49.1737" lon="-0.11198">
        <ele>5.8</ele>
        <time>2024-02-04T10:43:46Z</time>
      </trkpt>
      <trkpt lat="49.17378" lon="-0.11192">
        <ele>5.8</ele>
        <time>2024-02-04T10:43:47Z</time>
      </trkpt>
      <trkpt lat="49.17385" lon="-0.11187">
        <ele>5.7</ele>
        <time>2024-02-04T10:43:48Z</time>
      </trkpt>
      <trkpt lat="49.17392" lon="-0.11181">
        <ele>5.7</ele>
        <time>2024-02-04T10:43:49Z</time>
      </trkpt>
      <trkpt lat="49.17399" lon="-0.11176">
        <ele>5.7</ele>
        <time>2024-02-04T10:43:50Z</time>
      </trkpt>
      <trkpt lat="49.17407" lon="-0.1117">
        <ele>5.7</ele>
        <time>2024-02-04T10:43:51Z</time>
      </trkpt>
      <trkpt lat="49.17414" lon="-0.11165">
        <ele>5.7</ele>
        <time>2024-02-04T10:43:52Z</time>
      </trkpt>
      <trkpt lat="49.17421" lon="-0.11159">
        <ele>5.7</ele>
        <time>2024-02-04T10:43:53Z</time>
      </trkpt>
      <trkpt lat="49.17428" lon="-0.11154">
        <ele>5.7</ele>
        <time>2024-02-04T10:43:54Z</time>
      </trkpt>
      <trkpt lat="49.17435" lon="-0.11148">
        <ele>5.7</ele>
        <time>2024-02-04T10:43:55Z</time>
      </trkpt>
      <trkpt lat="49.17442" lon="-0.11143">
        <ele>5.8</ele>
        <time>2024-02-04T10:43:56Z</time>
      </trkpt>
      <trkpt lat="49.1745" lon="-0.11137">
        <ele>5.7</ele>
        <time>2024-02-04T10:43:57Z</time>
      </trkpt>
      <trkpt lat="49.17457" lon="-0.11132">
        <ele>5.7</ele>
        <time>2024-02-04T10:43:58Z</time>
      </trkpt>
      <trkpt lat="49.17464" lon="-0.11126">
        <ele>5.7</ele>
        <time>2024-02-04T10:43:59Z</time>
      </trkpt>
      <trkpt lat="49.17471" lon="-0.1112">
        <ele>5.7</ele>
        <time>2024-02-04T10:44:00Z</time>
      </trkpt>
      <trkpt lat="49.17478" lon="-0.11115">
        <ele>5.6</ele>
        <time>2024-02-04T10:44:01Z</time>
      </trkpt>
      <trkpt lat="49.17485" lon="-0.11109">
        <ele>5.6</ele>
        <time>2024-02-04T10:44:02Z</time>
      </trkpt>
      <trkpt lat="49.17492" lon="-0.11104">
        <ele>5.6</ele>
        <time>2024-02-04T10:44:03Z</time>
      </trkpt>
      <trkpt lat="49.17499" lon="-0.11098">
        <ele>5.6</ele>
        <time>2024-02-04T10:44:04Z</time>
      </trkpt>
      <trkpt lat="49.17506" lon="-0.11092">
        <ele>5.6</ele>
        <time>2024-02-04T10:44:05Z</time>
      </trkpt>
      <trkpt lat="49.17513" lon="-0.11086">
        <ele>5.6</ele>
        <time>2024-02-04T10:44:06Z</time>
      </trkpt>
      <trkpt lat="49.1752" lon="-0.1108">
        <ele>5.6</ele>
        <time>2024-02-04T10:44:07Z</time>
      </trkpt>
      <trkpt lat="49.17527" lon="-0.11074">
        <ele>5.6</ele>
        <time>2024-02-04T10:44:08Z</time>
      </trkpt>
      <trkpt lat="49.17533" lon="-0.11067">
        <ele>5.6</ele>
        <time>2024-02-04T10:44:09Z</time>
      </trkpt>
      <trkpt lat="49.1754" lon="-0.1106">
        <ele>5.6</ele>
        <time>2024-02-04T10:44:10Z</time>
      </trkpt>
      <trkpt lat="49.17546" lon="-0.11053">
        <ele>5.6</ele>
        <time>2024-02-04T10:44:11Z</time>
      </trkpt>
      <trkpt lat="49.17552" lon="-0.11046">
        <ele>5.7</ele>
        <time>2024-02-04T10:44:12Z</time>
      </trkpt>
      <trkpt lat="49.17557" lon="-0.11038">
        <ele>5.7</ele>
        <time>2024-02-04T10:44:13Z</time>
      </trkpt>
      <trkpt lat="49.17563" lon="-0.1103">
        <ele>5.9</ele>
        <time>2024-02-04T10:44:14Z</time>
      </trkpt>
      <trkpt lat="49.17568" lon="-0.11022">
        <ele>6</ele>
        <time>2024-02-04T10:44:15Z</time>
      </trkpt>
      <trkpt lat="49.17573" lon="-0.11014">
        <ele>6.1</ele>
        <time>2024-02-04T10:44:16Z</time>
      </trkpt>
      <trkpt lat="49.17577" lon="-0.11007">
        <ele>6.2</ele>
        <time>2024-02-04T10:44:17Z</time>
      </trkpt>
      <trkpt lat="49.17582" lon="-0.11">
        <ele>6.3</ele>
        <time>2024-02-04T10:44:18Z</time>
      </trkpt>
      <trkpt lat="49.17587" lon="-0.10993">
        <ele>6.4</ele>
        <time>2024-02-04T10:44:19Z</time>
      </trkpt>
      <trkpt lat="49.17592" lon="-0.10984">
        <ele>6.4</ele>
        <time>2024-02-04T10:44:20Z</time>
      </trkpt>
      <trkpt lat="49.17597" lon="-0.10976">
        <ele>6.5</ele>
        <time>2024-02-04T10:44:21Z</time>
      </trkpt>
      <trkpt lat="49.17602" lon="-0.10969">
        <ele>6.5</ele>
        <time>2024-02-04T10:44:22Z</time>
      </trkpt>
      <trkpt lat="49.17607" lon="-0.10961">
        <ele>6.5</ele>
        <time>2024-02-04T10:44:23Z</time>
      </trkpt>
      <trkpt lat="49.17613" lon="-0.10953">
        <ele>6.5</ele>
        <time>2024-02-04T10:44:24Z</time>
      </trkpt>
      <trkpt lat="49.17618" lon="-0.10945">
        <ele>6.5</ele>
        <time>2024-02-04T10:44:25Z</time>
      </trkpt>
      <trkpt lat="49.17623" lon="-0.10936">
        <ele>6.5</ele>
        <time>2024-02-04T10:44:26Z</time>
      </trkpt>
      <trkpt lat="49.17629" lon="-0.10927">
        <ele>6.5</ele>
        <time>2024-02-04T10:44:27Z</time>
      </trkpt>
      <trkpt lat="49.17634" lon="-0.10919">
        <ele>6.5</ele>
        <time>2024-02-04T10:44:28Z</time>
      </trkpt>
      <trkpt lat="49.17639" lon="-0.1091">
        <ele>6.3</ele>
        <time>2024-02-04T10:44:29Z</time>
      </trkpt>
      <trkpt lat="49.17644" lon="-0.10901">
        <ele>6.2</ele>
        <time>2024-02-04T10:44:30Z</time>
      </trkpt>
      <trkpt lat="49.1765" lon="-0.10893">
        <ele>6.1</ele>
        <time>2024-02-04T10:44:31Z</time>
      </trkpt>
      <trkpt lat="49.17655" lon="-0.10884">
        <ele>5.9</ele>
        <time>2024-02-04T10:44:32Z</time>
      </trkpt>
      <trkpt lat="49.17661" lon="-0.10875">
        <ele>5.7</ele>
        <time>2024-02-04T10:44:33Z</time>
      </trkpt>
      <trkpt lat="49.17666" lon="-0.10865">
        <ele>5.6</ele>
        <time>2024-02-04T10:44:34Z</time>
      </trkpt>
      <trkpt lat="49.17672" lon="-0.10856">
        <ele>5.4</ele>
        <time>2024-02-04T10:44:35Z</time>
      </trkpt>
      <trkpt lat="49.17678" lon="-0.10847">
        <ele>5.2</ele>
        <time>2024-02-04T10:44:36Z</time>
      </trkpt>
      <trkpt lat="49.17684" lon="-0.10837">
        <ele>5.1</ele>
        <time>2024-02-04T10:44:37Z</time>
      </trkpt>
      <trkpt lat="49.17691" lon="-0.10827">
        <ele>4.9</ele>
        <time>2024-02-04T10:44:38Z</time>
      </trkpt>
      <trkpt lat="49.17697" lon="-0.10817">
        <ele>4.8</ele>
        <time>2024-02-04T10:44:39Z</time>
      </trkpt>
      <trkpt lat="49.17703" lon="-0.10807">
        <ele>4.7</ele>
        <time>2024-02-04T10:44:40Z</time>
      </trkpt>
      <trkpt lat="49.17709" lon="-0.10798">
        <ele>4.7</ele>
        <time>2024-02-04T10:44:41Z</time>
      </trkpt>
      <trkpt lat="49.17716" lon="-0.10788">
        <ele>4.6</ele>
        <time>2024-02-04T10:44:42Z</time>
      </trkpt>
      <trkpt lat="49.17722" lon="-0.10777">
        <ele>4.5</ele>
        <time>2024-02-04T10:44:43Z</time>
      </trkpt>
      <trkpt lat="49.17728" lon="-0.10767">
        <ele>4.5</ele>
        <time>2024-02-04T10:44:44Z</time>
      </trkpt>
      <trkpt lat="49.17734" lon="-0.10756">
        <ele>4.4</ele>
        <time>2024-02-04T10:44:45Z</time>
      </trkpt>
      <trkpt lat="49.17741" lon="-0.10746">
        <ele>4.4</ele>
        <time>2024-02-04T10:44:46Z</time>
      </trkpt>
      <trkpt lat="49.17746" lon="-0.10736">
        <ele>4.4</ele>
        <time>2024-02-04T10:44:47Z</time>
      </trkpt>
      <trkpt lat="49.17752" lon="-0.10727">
        <ele>4.4</ele>
        <time>2024-02-04T10:44:48Z</time>
      </trkpt>
      <trkpt lat="49.17758" lon="-0.10717">
        <ele>4.3</ele>
        <time>2024-02-04T10:44:49Z</time>
      </trkpt>
      <trkpt lat="49.17764" lon="-0.10707">
        <ele>4.3</ele>
        <time>2024-02-04T10:44:50Z</time>
      </trkpt>
      <trkpt lat="49.17771" lon="-0.10698">
        <ele>4.3</ele>
        <time>2024-02-04T10:44:51Z</time>
      </trkpt>
      <trkpt lat="49.17777" lon="-0.10689">
        <ele>4.3</ele>
        <time>2024-02-04T10:44:52Z</time>
      </trkpt>
      <trkpt lat="49.17783" lon="-0.1068">
        <ele>4.3</ele>
        <time>2024-02-04T10:44:53Z</time>
      </trkpt>
      <trkpt lat="49.1779" lon="-0.10671">
        <ele>4.2</ele>
        <time>2024-02-04T10:44:54Z</time>
      </trkpt>
      <trkpt lat="49.17796" lon="-0.10662">
        <ele>4.2</ele>
        <time>2024-02-04T10:44:55Z</time>
      </trkpt>
      <trkpt lat="49.17802" lon="-0.10653">
        <ele>4.2</ele>
        <time>2024-02-04T10:44:56Z</time>
      </trkpt>
      <trkpt lat="49.17809" lon="-0.10645">
        <ele>4.2</ele>
        <time>2024-02-04T10:44:57Z</time>
      </trkpt>
      <trkpt lat="49.17815" lon="-0.10636">
        <ele>4.2</ele>
        <time>2024-02-04T10:44:58Z</time>
      </trkpt>
      <trkpt lat="49.17822" lon="-0.10627">
        <ele>4.2</ele>
        <time>2024-02-04T10:44:59Z</time>
      </trkpt>
      <trkpt lat="49.17828" lon="-0.10619">
        <ele>4.2</ele>
        <time>2024-02-04T10:45:00Z</time>
      </trkpt>
      <trkpt lat="49.17835" lon="-0.1061">
        <ele>4.2</ele>
        <time>2024-02-04T10:45:01Z</time>
      </trkpt>
      <trkpt lat="49.17841" lon="-0.10602">
        <ele>4.2</ele>
        <time>2024-02-04T10:45:02Z</time>
      </trkpt>
      <trkpt lat="49.17847" lon="-0.10594">
        <ele>4.1</ele>
        <time>2024-02-04T10:45:03Z</time>
      </trkpt>
      <trkpt lat="49.17854" lon="-0.10586">
        <ele>4.1</ele>
        <time>2024-02-04T10:45:04Z</time>
      </trkpt>
      <trkpt lat="49.1786" lon="-0.10578">
        <ele>4.1</ele>
        <time>2024-02-04T10:45:05Z</time>
      </trkpt>
      <trkpt lat="49.17866" lon="-0.1057">
        <ele>4.1</ele>
        <time>2024-02-04T10:45:06Z</time>
      </trkpt>
      <trkpt lat="49.17873" lon="-0.10561">
        <ele>4.1</ele>
        <time>2024-02-04T10:45:07Z</time>
      </trkpt>
      <trkpt lat="49.17879" lon="-0.10553">
        <ele>4.1</ele>
        <time>2024-02-04T10:45:08Z</time>
      </trkpt>
      <trkpt lat="49.17886" lon="-0.10545">
        <ele>4.1</ele>
        <time>2024-02-04T10:45:09Z</time>
      </trkpt>
      <trkpt lat="49.17892" lon="-0.10538">
        <ele>4.1</ele>
        <time>2024-02-04T10:45:10Z</time>
      </trkpt>
      <trkpt lat="49.17898" lon="-0.1053">
        <ele>4.1</ele>
        <time>2024-02-04T10:45:11Z</time>
      </trkpt>
      <trkpt lat="49.17904" lon="-0.10521">
        <ele>4.1</ele>
        <time>2024-02-04T10:45:12Z</time>
      </trkpt>
      <trkpt lat="49.1791" lon="-0.10513">
        <ele>4.1</ele>
        <time>2024-02-04T10:45:13Z</time>
      </trkpt>
      <trkpt lat="49.17917" lon="-0.10505">
        <ele>4.1</ele>
        <time>2024-02-04T10:45:14Z</time>
      </trkpt>
      <trkpt lat="49.17923" lon="-0.10496">
        <ele>4.1</ele>
        <time>2024-02-04T10:45:15Z</time>
      </trkpt>
      <trkpt lat="49.1793" lon="-0.10489">
        <ele>4.1</ele>
        <time>2024-02-04T10:45:16Z</time>
      </trkpt>
      <trkpt lat="49.17936" lon="-0.10481">
        <ele>4.1</ele>
        <time>2024-02-04T10:45:17Z</time>
      </trkpt>
      <trkpt lat="49.17943" lon="-0.10473">
        <ele>4.1</ele>
        <time>2024-02-04T10:45:18Z</time>
      </trkpt>
      <trkpt lat="49.17949" lon="-0.10465">
        <ele>4.1</ele>
        <time>2024-02-04T10:45:19Z</time>
      </trkpt>
      <trkpt lat="49.17956" lon="-0.10457">
        <ele>4.2</ele>
        <time>2024-02-04T10:45:20Z</time>
      </trkpt>
      <trkpt lat="49.17962" lon="-0.10449">
        <ele>4.2</ele>
        <time>2024-02-04T10:45:21Z</time>
      </trkpt>
      <trkpt lat="49.17969" lon="-0.10442">
        <ele>4.2</ele>
        <time>2024-02-04T10:45:22Z</time>
      </trkpt>
      <trkpt lat="49.17975" lon="-0.10434">
        <ele>4.3</ele>
        <time>2024-02-04T10:45:23Z</time>
      </trkpt>
      <trkpt lat="49.17982" lon="-0.10427">
        <ele>4.4</ele>
        <time>2024-02-04T10:45:24Z</time>
      </trkpt>
      <trkpt lat="49.17988" lon="-0.1042">
        <ele>4.5</ele>
        <time>2024-02-04T10:45:25Z</time>
      </trkpt>
      <trkpt lat="49.17995" lon="-0.10414">
        <ele>4.5</ele>
        <time>2024-02-04T10:45:26Z</time>
      </trkpt>
      <trkpt lat="49.18002" lon="-0.10408">
        <ele>4.6</ele>
        <time>2024-02-04T10:45:27Z</time>
      </trkpt>
      <trkpt lat="49.18009" lon="-0.10401">
        <ele>4.7</ele>
        <time>2024-02-04T10:45:28Z</time>
      </trkpt>
      <trkpt lat="49.18015" lon="-0.10395">
        <ele>4.7</ele>
        <time>2024-02-04T10:45:29Z</time>
      </trkpt>
      <trkpt lat="49.18022" lon="-0.10388">
        <ele>4.8</ele>
        <time>2024-02-04T10:45:30Z</time>
      </trkpt>
      <trkpt lat="49.18028" lon="-0.10382">
        <ele>4.9</ele>
        <time>2024-02-04T10:45:31Z</time>
      </trkpt>
      <trkpt lat="49.18035" lon="-0.10375">
        <ele>4.9</ele>
        <time>2024-02-04T10:45:32Z</time>
      </trkpt>
      <trkpt lat="49.18042" lon="-0.10369">
        <ele>5</ele>
        <time>2024-02-04T10:45:33Z</time>
      </trkpt>
      <trkpt lat="49.18049" lon="-0.10363">
        <ele>5.1</ele>
        <time>2024-02-04T10:45:34Z</time>
      </trkpt>
      <trkpt lat="49.18055" lon="-0.10358">
        <ele>5.2</ele>
        <time>2024-02-04T10:45:35Z</time>
      </trkpt>
      <trkpt lat="49.18061" lon="-0.10352">
        <ele>5.3</ele>
        <time>2024-02-04T10:45:36Z</time>
      </trkpt>
      <trkpt lat="49.18067" lon="-0.10346">
        <ele>5.4</ele>
        <time>2024-02-04T10:45:37Z</time>
      </trkpt>
      <trkpt lat="49.18073" lon="-0.10338">
        <ele>5.6</ele>
        <time>2024-02-04T10:45:38Z</time>
      </trkpt>
      <trkpt lat="49.18077" lon="-0.1033">
        <ele>5.7</ele>
        <time>2024-02-04T10:45:39Z</time>
      </trkpt>
      <trkpt lat="49.18081" lon="-0.10321">
        <ele>5.9</ele>
        <time>2024-02-04T10:45:40Z</time>
      </trkpt>
      <trkpt lat="49.18084" lon="-0.10313">
        <ele>6.1</ele>
        <time>2024-02-04T10:45:41Z</time>
      </trkpt>
      <trkpt lat="49.18088" lon="-0.10304">
        <ele>6.3</ele>
        <time>2024-02-04T10:45:42Z</time>
      </trkpt>
      <trkpt lat="49.18091" lon="-0.10296">
        <ele>6.5</ele>
        <time>2024-02-04T10:45:43Z</time>
      </trkpt>
      <trkpt lat="49.18093" lon="-0.10287">
        <ele>6.7</ele>
        <time>2024-02-04T10:45:44Z</time>
      </trkpt>
      <trkpt lat="49.18094" lon="-0.10278">
        <ele>6.9</ele>
        <time>2024-02-04T10:45:45Z</time>
      </trkpt>
      <trkpt lat="49.18096" lon="-0.10269">
        <ele>7.1</ele>
        <time>2024-02-04T10:45:46Z</time>
      </trkpt>
      <trkpt lat="49.18098" lon="-0.1026">
        <ele>7.3</ele>
        <time>2024-02-04T10:45:47Z</time>
      </trkpt>
      <trkpt lat="49.181" lon="-0.10251">
        <ele>7.6</ele>
        <time>2024-02-04T10:45:48Z</time>
      </trkpt>
      <trkpt lat="49.18103" lon="-0.10243">
        <ele>7.9</ele>
        <time>2024-02-04T10:45:49Z</time>
      </trkpt>
      <trkpt lat="49.18106" lon="-0.10235">
        <ele>8.2</ele>
        <time>2024-02-04T10:45:50Z</time>
      </trkpt>
      <trkpt lat="49.1811" lon="-0.10227">
        <ele>8.4</ele>
        <time>2024-02-04T10:45:51Z</time>
      </trkpt>
      <trkpt lat="49.18114" lon="-0.1022">
        <ele>8.7</ele>
        <time>2024-02-04T10:45:52Z</time>
      </trkpt>
      <trkpt lat="49.18118" lon="-0.10212">
        <ele>9</ele>
        <time>2024-02-04T10:45:53Z</time>
      </trkpt>
      <trkpt lat="49.18122" lon="-0.10206">
        <ele>9.2</ele>
        <time>2024-02-04T10:45:54Z</time>
      </trkpt>
      <trkpt lat="49.18127" lon="-0.102">
        <ele>9.4</ele>
        <time>2024-02-04T10:45:55Z</time>
      </trkpt>
      <trkpt lat="49.18131" lon="-0.10193">
        <ele>9.6</ele>
        <time>2024-02-04T10:45:56Z</time>
      </trkpt>
      <trkpt lat="49.18135" lon="-0.10186">
        <ele>9.8</ele>
        <time>2024-02-04T10:45:57Z</time>
      </trkpt>
      <trkpt lat="49.1814" lon="-0.10179">
        <ele>10</ele>
        <time>2024-02-04T10:45:58Z</time>
      </trkpt>
      <trkpt lat="49.18145" lon="-0.10172">
        <ele>10.2</ele>
        <time>2024-02-04T10:45:59Z</time>
      </trkpt>
      <trkpt lat="49.1815" lon="-0.10164">
        <ele>10.4</ele>
        <time>2024-02-04T10:46:00Z</time>
      </trkpt>
      <trkpt lat="49.18155" lon="-0.10156">
        <ele>10.6</ele>
        <time>2024-02-04T10:46:01Z</time>
      </trkpt>
      <trkpt lat="49.1816" lon="-0.10148">
        <ele>10.8</ele>
        <time>2024-02-04T10:46:02Z</time>
      </trkpt>
      <trkpt lat="49.18165" lon="-0.1014">
        <ele>11</ele>
        <time>2024-02-04T10:46:03Z</time>
      </trkpt>
      <trkpt lat="49.1817" lon="-0.10132">
        <ele>11.2</ele>
        <time>2024-02-04T10:46:04Z</time>
      </trkpt>
      <trkpt lat="49.1818" lon="-0.10115">
        <ele>11.6</ele>
        <time>2024-02-04T10:46:06Z</time>
      </trkpt>
      <trkpt lat="49.18185" lon="-0.10107">
        <ele>11.8</ele>
        <time>2024-02-04T10:46:07Z</time>
      </trkpt>
      <trkpt lat="49.18189" lon="-0.101">
        <ele>12</ele>
        <time>2024-02-04T10:46:08Z</time>
      </trkpt>
      <trkpt lat="49.18194" lon="-0.10092">
        <ele>12.2</ele>
        <time>2024-02-04T10:46:09Z</time>
      </trkpt>
      <trkpt lat="49.182" lon="-0.10084">
        <ele>12.5</ele>
        <time>2024-02-04T10:46:10Z</time>
      </trkpt>
      <trkpt lat="49.18205" lon="-0.10076">
        <ele>12.8</ele>
        <time>2024-02-04T10:46:11Z</time>
      </trkpt>
      <trkpt lat="49.1821" lon="-0.10068">
        <ele>12.9</ele>
        <time>2024-02-04T10:46:12Z</time>
      </trkpt>
      <trkpt lat="49.18214" lon="-0.10061">
        <ele>13.1</ele>
        <time>2024-02-04T10:46:13Z</time>
      </trkpt>
      <trkpt lat="49.18219" lon="-0.10053">
        <ele>13.2</ele>
        <time>2024-02-04T10:46:14Z</time>
      </trkpt>
      <trkpt lat="49.18224" lon="-0.10045">
        <ele>13.4</ele>
        <time>2024-02-04T10:46:15Z</time>
      </trkpt>
      <trkpt lat="49.18229" lon="-0.10037">
        <ele>13.6</ele>
        <time>2024-02-04T10:46:16Z</time>
      </trkpt>
      <trkpt lat="49.18234" lon="-0.10029">
        <ele>13.8</ele>
        <time>2024-02-04T10:46:17Z</time>
      </trkpt>
      <trkpt lat="49.18239" lon="-0.10022">
        <ele>13.9</ele>
        <time>2024-02-04T10:46:18Z</time>
      </trkpt>
      <trkpt lat="49.18244" lon="-0.10014">
        <ele>14</ele>
        <time>2024-02-04T10:46:19Z</time>
      </trkpt>
      <trkpt lat="49.18249" lon="-0.10006">
        <ele>14.2</ele>
        <time>2024-02-04T10:46:20Z</time>
      </trkpt>
      <trkpt lat="49.18254" lon="-0.09997">
        <ele>14.3</ele>
        <time>2024-02-04T10:46:21Z</time>
      </trkpt>
      <trkpt lat="49.18258" lon="-0.09988">
        <ele>14.4</ele>
        <time>2024-02-04T10:46:22Z</time>
      </trkpt>
      <trkpt lat="49.18263" lon="-0.09979">
        <ele>14.4</ele>
        <time>2024-02-04T10:46:23Z</time>
      </trkpt>
      <trkpt lat="49.18268" lon="-0.09969">
        <ele>14.5</ele>
        <time>2024-02-04T10:46:24Z</time>
      </trkpt>
      <trkpt lat="49.18271" lon="-0.09959">
        <ele>14.6</ele>
        <time>2024-02-04T10:46:25Z</time>
      </trkpt>
      <trkpt lat="49.18274" lon="-0.09948">
        <ele>14.7</ele>
        <time>2024-02-04T10:46:26Z</time>
      </trkpt>
      <trkpt lat="49.18278" lon="-0.09937">
        <ele>14.8</ele>
        <time>2024-02-04T10:46:27Z</time>
      </trkpt>
      <trkpt lat="49.18281" lon="-0.09927">
        <ele>14.8</ele>
        <time>2024-02-04T10:46:28Z</time>
      </trkpt>
      <trkpt lat="49.18284" lon="-0.09916">
        <ele>14.9</ele>
        <time>2024-02-04T10:46:29Z</time>
      </trkpt>
      <trkpt lat="49.18286" lon="-0.09905">
        <ele>14.9</ele>
        <time>2024-02-04T10:46:30Z</time>
      </trkpt>
      <trkpt lat="49.18289" lon="-0.09894">
        <ele>14.9</ele>
        <time>2024-02-04T10:46:31Z</time>
      </trkpt>
      <trkpt lat="49.18292" lon="-0.09882">
        <ele>14.9</ele>
        <time>2024-02-04T10:46:32Z</time>
      </trkpt>
      <trkpt lat="49.18294" lon="-0.09871">
        <ele>15</ele>
        <time>2024-02-04T10:46:33Z</time>
      </trkpt>
      <trkpt lat="49.18296" lon="-0.0986">
        <ele>15</ele>
        <time>2024-02-04T10:46:34Z</time>
      </trkpt>
      <trkpt lat="49.18298" lon="-0.09849">
        <ele>15</ele>
        <time>2024-02-04T10:46:35Z</time>
      </trkpt>
      <trkpt lat="49.18301" lon="-0.09837">
        <ele>15.1</ele>
        <time>2024-02-04T10:46:36Z</time>
      </trkpt>
      <trkpt lat="49.18303" lon="-0.09826">
        <ele>15.1</ele>
        <time>2024-02-04T10:46:37Z</time>
      </trkpt>
      <trkpt lat="49.18305" lon="-0.09814">
        <ele>15.2</ele>
        <time>2024-02-04T10:46:38Z</time>
      </trkpt>
      <trkpt lat="49.18307" lon="-0.09803">
        <ele>15.2</ele>
        <time>2024-02-04T10:46:39Z</time>
      </trkpt>
      <trkpt lat="49.1831" lon="-0.09791">
        <ele>15.3</ele>
        <time>2024-02-04T10:46:40Z</time>
      </trkpt>
      <trkpt lat="49.18312" lon="-0.0978">
        <ele>15.3</ele>
        <time>2024-02-04T10:46:41Z</time>
      </trkpt>
      <trkpt lat="49.18315" lon="-0.09769">
        <ele>15.3</ele>
        <time>2024-02-04T10:46:42Z</time>
      </trkpt>
      <trkpt lat="49.18317" lon="-0.09757">
        <ele>15.3</ele>
        <time>2024-02-04T10:46:43Z</time>
      </trkpt>
      <trkpt lat="49.18319" lon="-0.09746">
        <ele>15.3</ele>
        <time>2024-02-04T10:46:44Z</time>
      </trkpt>
      <trkpt lat="49.18321" lon="-0.09734">
        <ele>15.4</ele>
        <time>2024-02-04T10:46:45Z</time>
      </trkpt>
      <trkpt lat="49.18323" lon="-0.09722">
        <ele>15.4</ele>
        <time>2024-02-04T10:46:46Z</time>
      </trkpt>
      <trkpt lat="49.18326" lon="-0.09711">
        <ele>15.4</ele>
        <time>2024-02-04T10:46:47Z</time>
      </trkpt>
      <trkpt lat="49.18328" lon="-0.09699">
        <ele>15.4</ele>
        <time>2024-02-04T10:46:48Z</time>
      </trkpt>
      <trkpt lat="49.1833" lon="-0.09687">
        <ele>15.4</ele>
        <time>2024-02-04T10:46:49Z</time>
      </trkpt>
      <trkpt lat="49.18333" lon="-0.09676">
        <ele>15.4</ele>
        <time>2024-02-04T10:46:50Z</time>
      </trkpt>
      <trkpt lat="49.18335" lon="-0.09664">
        <ele>15.4</ele>
        <time>2024-02-04T10:46:51Z</time>
      </trkpt>
      <trkpt lat="49.18337" lon="-0.09652">
        <ele>15.4</ele>
        <time>2024-02-04T10:46:52Z</time>
      </trkpt>
      <trkpt lat="49.18339" lon="-0.0964">
        <ele>15.4</ele>
        <time>2024-02-04T10:46:53Z</time>
      </trkpt>
      <trkpt lat="49.18341" lon="-0.09628">
        <ele>15.5</ele>
        <time>2024-02-04T10:46:54Z</time>
      </trkpt>
      <trkpt lat="49.18342" lon="-0.09616">
        <ele>15.5</ele>
        <time>2024-02-04T10:46:55Z</time>
      </trkpt>
      <trkpt lat="49.18343" lon="-0.09604">
        <ele>15.5</ele>
        <time>2024-02-04T10:46:56Z</time>
      </trkpt>
      <trkpt lat="49.18343" lon="-0.09592">
        <ele>15.6</ele>
        <time>2024-02-04T10:46:57Z</time>
      </trkpt>
      <trkpt lat="49.18344" lon="-0.0958">
        <ele>15.6</ele>
        <time>2024-02-04T10:46:58Z</time>
      </trkpt>
      <trkpt lat="49.18344" lon="-0.09568">
        <ele>15.6</ele>
        <time>2024-02-04T10:46:59Z</time>
      </trkpt>
      <trkpt lat="49.18344" lon="-0.09555">
        <ele>15.7</ele>
        <time>2024-02-04T10:47:00Z</time>
      </trkpt>
      <trkpt lat="49.18344" lon="-0.09543">
        <ele>15.7</ele>
        <time>2024-02-04T10:47:01Z</time>
      </trkpt>
      <trkpt lat="49.18344" lon="-0.0953">
        <ele>15.8</ele>
        <time>2024-02-04T10:47:02Z</time>
      </trkpt>
      <trkpt lat="49.18343" lon="-0.09518">
        <ele>15.8</ele>
        <time>2024-02-04T10:47:03Z</time>
      </trkpt>
      <trkpt lat="49.18343" lon="-0.09506">
        <ele>15.9</ele>
        <time>2024-02-04T10:47:04Z</time>
      </trkpt>
      <trkpt lat="49.18343" lon="-0.09494">
        <ele>15.9</ele>
        <time>2024-02-04T10:47:05Z</time>
      </trkpt>
      <trkpt lat="49.18342" lon="-0.09482">
        <ele>15.9</ele>
        <time>2024-02-04T10:47:06Z</time>
      </trkpt>
      <trkpt lat="49.18342" lon="-0.0947">
        <ele>15.9</ele>
        <time>2024-02-04T10:47:07Z</time>
      </trkpt>
      <trkpt lat="49.18342" lon="-0.09457">
        <ele>15.9</ele>
        <time>2024-02-04T10:47:08Z</time>
      </trkpt>
      <trkpt lat="49.18343" lon="-0.09445">
        <ele>15.9</ele>
        <time>2024-02-04T10:47:09Z</time>
      </trkpt>
      <trkpt lat="49.18343" lon="-0.09433">
        <ele>16</ele>
        <time>2024-02-04T10:47:10Z</time>
      </trkpt>
      <trkpt lat="49.18344" lon="-0.09421">
        <ele>16</ele>
        <time>2024-02-04T10:47:11Z</time>
      </trkpt>
      <trkpt lat="49.18345" lon="-0.09408">
        <ele>16</ele>
        <time>2024-02-04T10:47:12Z</time>
      </trkpt>
      <trkpt lat="49.18346" lon="-0.09396">
        <ele>16</ele>
        <time>2024-02-04T10:47:13Z</time>
      </trkpt>
      <trkpt lat="49.18347" lon="-0.09385">
        <ele>16</ele>
        <time>2024-02-04T10:47:14Z</time>
      </trkpt>
      <trkpt lat="49.18349" lon="-0.09373">
        <ele>16</ele>
        <time>2024-02-04T10:47:15Z</time>
      </trkpt>
      <trkpt lat="49.18351" lon="-0.09362">
        <ele>16</ele>
        <time>2024-02-04T10:47:16Z</time>
      </trkpt>
      <trkpt lat="49.18352" lon="-0.0935">
        <ele>16</ele>
        <time>2024-02-04T10:47:17Z</time>
      </trkpt>
      <trkpt lat="49.18353" lon="-0.09339">
        <ele>16</ele>
        <time>2024-02-04T10:47:18Z</time>
      </trkpt>
      <trkpt lat="49.18354" lon="-0.09328">
        <ele>16</ele>
        <time>2024-02-04T10:47:19Z</time>
      </trkpt>
      <trkpt lat="49.18355" lon="-0.09316">
        <ele>16.1</ele>
        <time>2024-02-04T10:47:20Z</time>
      </trkpt>
      <trkpt lat="49.18356" lon="-0.09305">
        <ele>16.1</ele>
        <time>2024-02-04T10:47:21Z</time>
      </trkpt>
      <trkpt lat="49.18358" lon="-0.09295">
        <ele>16.2</ele>
        <time>2024-02-04T10:47:22Z</time>
      </trkpt>
      <trkpt lat="49.1836" lon="-0.09284">
        <ele>16.3</ele>
        <time>2024-02-04T10:47:23Z</time>
      </trkpt>
      <trkpt lat="49.18364" lon="-0.09275">
        <ele>16.2</ele>
        <time>2024-02-04T10:47:24Z</time>
      </trkpt>
      <trkpt lat="49.18368" lon="-0.09267">
        <ele>16.1</ele>
        <time>2024-02-04T10:47:25Z</time>
      </trkpt>
      <trkpt lat="49.18372" lon="-0.09257">
        <ele>16</ele>
        <time>2024-02-04T10:47:26Z</time>
      </trkpt>
      <trkpt lat="49.18375" lon="-0.09248">
        <ele>16</ele>
        <time>2024-02-04T10:47:27Z</time>
      </trkpt>
      <trkpt lat="49.18379" lon="-0.09238">
        <ele>16</ele>
        <time>2024-02-04T10:47:28Z</time>
      </trkpt>
      <trkpt lat="49.18382" lon="-0.09228">
        <ele>16</ele>
        <time>2024-02-04T10:47:29Z</time>
      </trkpt>
      <trkpt lat="49.18385" lon="-0.09218">
        <ele>16</ele>
        <time>2024-02-04T10:47:30Z</time>
      </trkpt>
      <trkpt lat="49.18389" lon="-0.09209">
        <ele>16</ele>
        <time>2024-02-04T10:47:31Z</time>
      </trkpt>
      <trkpt lat="49.18393" lon="-0.09199">
        <ele>16.1</ele>
        <time>2024-02-04T10:47:32Z</time>
      </trkpt>
      <trkpt lat="49.18398" lon="-0.09189">
        <ele>16.1</ele>
        <time>2024-02-04T10:47:33Z</time>
      </trkpt>
      <trkpt lat="49.18402" lon="-0.0918">
        <ele>16.2</ele>
        <time>2024-02-04T10:47:34Z</time>
      </trkpt>
      <trkpt lat="49.18407" lon="-0.09171">
        <ele>16.2</ele>
        <time>2024-02-04T10:47:35Z</time>
      </trkpt>
      <trkpt lat="49.18412" lon="-0.09162">
        <ele>16.3</ele>
        <time>2024-02-04T10:47:36Z</time>
      </trkpt>
      <trkpt lat="49.18417" lon="-0.09153">
        <ele>16.3</ele>
        <time>2024-02-04T10:47:37Z</time>
      </trkpt>
      <trkpt lat="49.18423" lon="-0.09144">
        <ele>16.4</ele>
        <time>2024-02-04T10:47:38Z</time>
      </trkpt>
      <trkpt lat="49.18428" lon="-0.09134">
        <ele>16.4</ele>
        <time>2024-02-04T10:47:39Z</time>
      </trkpt>
      <trkpt lat="49.18432" lon="-0.09125">
        <ele>16.5</ele>
        <time>2024-02-04T10:47:40Z</time>
      </trkpt>
      <trkpt lat="49.18436" lon="-0.09115">
        <ele>16.5</ele>
        <time>2024-02-04T10:47:41Z</time>
      </trkpt>
      <trkpt lat="49.1844" lon="-0.09105">
        <ele>16.6</ele>
        <time>2024-02-04T10:47:42Z</time>
      </trkpt>
      <trkpt lat="49.18444" lon="-0.09095">
        <ele>16.6</ele>
        <time>2024-02-04T10:47:43Z</time>
      </trkpt>
      <trkpt lat="49.18448" lon="-0.09085">
        <ele>16.6</ele>
        <time>2024-02-04T10:47:44Z</time>
      </trkpt>
      <trkpt lat="49.18452" lon="-0.09075">
        <ele>16.7</ele>
        <time>2024-02-04T10:47:45Z</time>
      </trkpt>
      <trkpt lat="49.18456" lon="-0.09064">
        <ele>16.8</ele>
        <time>2024-02-04T10:47:46Z</time>
      </trkpt>
      <trkpt lat="49.18459" lon="-0.09054">
        <ele>16.8</ele>
        <time>2024-02-04T10:47:47Z</time>
      </trkpt>
      <trkpt lat="49.18461" lon="-0.09043">
        <ele>16.9</ele>
        <time>2024-02-04T10:47:48Z</time>
      </trkpt>
      <trkpt lat="49.18464" lon="-0.09032">
        <ele>17</ele>
        <time>2024-02-04T10:47:49Z</time>
      </trkpt>
      <trkpt lat="49.18466" lon="-0.09022">
        <ele>17</ele>
        <time>2024-02-04T10:47:50Z</time>
      </trkpt>
      <trkpt lat="49.18469" lon="-0.09012">
        <ele>17.1</ele>
        <time>2024-02-04T10:47:51Z</time>
      </trkpt>
      <trkpt lat="49.18471" lon="-0.09002">
        <ele>17.1</ele>
        <time>2024-02-04T10:47:52Z</time>
      </trkpt>
      <trkpt lat="49.18473" lon="-0.08993">
        <ele>17.2</ele>
        <time>2024-02-04T10:47:53Z</time>
      </trkpt>
      <trkpt lat="49.18475" lon="-0.08984">
        <ele>17.2</ele>
        <time>2024-02-04T10:47:54Z</time>
      </trkpt>
      <trkpt lat="49.18476" lon="-0.08974">
        <ele>17.2</ele>
        <time>2024-02-04T10:47:55Z</time>
      </trkpt>
      <trkpt lat="49.18479" lon="-0.08965">
        <ele>17.2</ele>
        <time>2024-02-04T10:47:56Z</time>
      </trkpt>
      <trkpt lat="49.1848" lon="-0.08956">
        <ele>17.2</ele>
        <time>2024-02-04T10:47:57Z</time>
      </trkpt>
      <trkpt lat="49.18482" lon="-0.08946">
        <ele>17.2</ele>
        <time>2024-02-04T10:47:58Z</time>
      </trkpt>
      <trkpt lat="49.18484" lon="-0.08935">
        <ele>17.2</ele>
        <time>2024-02-04T10:47:59Z</time>
      </trkpt>
      <trkpt lat="49.18486" lon="-0.08925">
        <ele>17.3</ele>
        <time>2024-02-04T10:48:00Z</time>
      </trkpt>
      <trkpt lat="49.18488" lon="-0.08913">
        <ele>17.3</ele>
        <time>2024-02-04T10:48:01Z</time>
      </trkpt>
      <trkpt lat="49.18491" lon="-0.08902">
        <ele>17.4</ele>
        <time>2024-02-04T10:48:02Z</time>
      </trkpt>
      <trkpt lat="49.18493" lon="-0.08891">
        <ele>17.4</ele>
        <time>2024-02-04T10:48:03Z</time>
      </trkpt>
      <trkpt lat="49.18495" lon="-0.08879">
        <ele>17.4</ele>
        <time>2024-02-04T10:48:04Z</time>
      </trkpt>
      <trkpt lat="49.18497" lon="-0.08867">
        <ele>17.5</ele>
        <time>2024-02-04T10:48:05Z</time>
      </trkpt>
      <trkpt lat="49.185" lon="-0.08856">
        <ele>17.5</ele>
        <time>2024-02-04T10:48:06Z</time>
      </trkpt>
      <trkpt lat="49.18502" lon="-0.08844">
        <ele>17.5</ele>
        <time>2024-02-04T10:48:07Z</time>
      </trkpt>
      <trkpt lat="49.18505" lon="-0.08833">
        <ele>17.5</ele>
        <time>2024-02-04T10:48:08Z</time>
      </trkpt>
      <trkpt lat="49.18507" lon="-0.08821">
        <ele>17.5</ele>
        <time>2024-02-04T10:48:09Z</time>
      </trkpt>
      <trkpt lat="49.18509" lon="-0.08809">
        <ele>17.5</ele>
        <time>2024-02-04T10:48:10Z</time>
      </trkpt>
      <trkpt lat="49.18512" lon="-0.08798">
        <ele>17.5</ele>
        <time>2024-02-04T10:48:11Z</time>
      </trkpt>
      <trkpt lat="49.18515" lon="-0.08788">
        <ele>17.5</ele>
        <time>2024-02-04T10:48:12Z</time>
      </trkpt>
      <trkpt lat="49.18517" lon="-0.08778">
        <ele>17.5</ele>
        <time>2024-02-04T10:48:13Z</time>
      </trkpt>
      <trkpt lat="49.18519" lon="-0.08769">
        <ele>17.5</ele>
        <time>2024-02-04T10:48:14Z</time>
      </trkpt>
      <trkpt lat="49.1852" lon="-0.08759">
        <ele>17.6</ele>
        <time>2024-02-04T10:48:15Z</time>
      </trkpt>
      <trkpt lat="49.18523" lon="-0.08748">
        <ele>17.6</ele>
        <time>2024-02-04T10:48:16Z</time>
      </trkpt>
      <trkpt lat="49.18525" lon="-0.08738">
        <ele>17.5</ele>
        <time>2024-02-04T10:48:17Z</time>
      </trkpt>
      <trkpt lat="49.18527" lon="-0.08728">
        <ele>17.5</ele>
        <time>2024-02-04T10:48:18Z</time>
      </trkpt>
      <trkpt lat="49.1853" lon="-0.08717">
        <ele>17.5</ele>
        <time>2024-02-04T10:48:19Z</time>
      </trkpt>
      <trkpt lat="49.18532" lon="-0.08705">
        <ele>17.5</ele>
        <time>2024-02-04T10:48:20Z</time>
      </trkpt>
      <trkpt lat="49.18535" lon="-0.08694">
        <ele>17.4</ele>
        <time>2024-02-04T10:48:21Z</time>
      </trkpt>
      <trkpt lat="49.18537" lon="-0.08682">
        <ele>17.3</ele>
        <time>2024-02-04T10:48:22Z</time>
      </trkpt>
      <trkpt lat="49.18539" lon="-0.08671">
        <ele>17.3</ele>
        <time>2024-02-04T10:48:23Z</time>
      </trkpt>
      <trkpt lat="49.18541" lon="-0.0866">
        <ele>17.2</ele>
        <time>2024-02-04T10:48:24Z</time>
      </trkpt>
      <trkpt lat="49.18544" lon="-0.08648">
        <ele>17.1</ele>
        <time>2024-02-04T10:48:25Z</time>
      </trkpt>
      <trkpt lat="49.18547" lon="-0.08636">
        <ele>17.1</ele>
        <time>2024-02-04T10:48:26Z</time>
      </trkpt>
      <trkpt lat="49.18549" lon="-0.08624">
        <ele>17</ele>
        <time>2024-02-04T10:48:27Z</time>
      </trkpt>
      <trkpt lat="49.18552" lon="-0.08613">
        <ele>16.9</ele>
        <time>2024-02-04T10:48:28Z</time>
      </trkpt>
      <trkpt lat="49.18555" lon="-0.08601">
        <ele>16.8</ele>
        <time>2024-02-04T10:48:29Z</time>
      </trkpt>
      <trkpt lat="49.18558" lon="-0.08589">
        <ele>16.7</ele>
        <time>2024-02-04T10:48:30Z</time>
      </trkpt>
      <trkpt lat="49.18562" lon="-0.08578">
        <ele>16.6</ele>
        <time>2024-02-04T10:48:31Z</time>
      </trkpt>
      <trkpt lat="49.18567" lon="-0.08567">
        <ele>16.5</ele>
        <time>2024-02-04T10:48:32Z</time>
      </trkpt>
      <trkpt lat="49.18571" lon="-0.08556">
        <ele>16.4</ele>
        <time>2024-02-04T10:48:33Z</time>
      </trkpt>
      <trkpt lat="49.18575" lon="-0.08545">
        <ele>16.4</ele>
        <time>2024-02-04T10:48:34Z</time>
      </trkpt>
      <trkpt lat="49.18578" lon="-0.08534">
        <ele>16.3</ele>
        <time>2024-02-04T10:48:35Z</time>
      </trkpt>
      <trkpt lat="49.18582" lon="-0.08524">
        <ele>16.2</ele>
        <time>2024-02-04T10:48:36Z</time>
      </trkpt>
      <trkpt lat="49.18585" lon="-0.08514">
        <ele>16.2</ele>
        <time>2024-02-04T10:48:37Z</time>
      </trkpt>
      <trkpt lat="49.18589" lon="-0.08504">
        <ele>16.1</ele>
        <time>2024-02-04T10:48:38Z</time>
      </trkpt>
      <trkpt lat="49.18592" lon="-0.08496">
        <ele>16.1</ele>
        <time>2024-02-04T10:48:39Z</time>
      </trkpt>
      <trkpt lat="49.18596" lon="-0.08486">
        <ele>16</ele>
        <time>2024-02-04T10:48:40Z</time>
      </trkpt>
      <trkpt lat="49.186" lon="-0.08476">
        <ele>16</ele>
        <time>2024-02-04T10:48:41Z</time>
      </trkpt>
      <trkpt lat="49.18604" lon="-0.08465">
        <ele>16</ele>
        <time>2024-02-04T10:48:42Z</time>
      </trkpt>
      <trkpt lat="49.18607" lon="-0.08454">
        <ele>16</ele>
        <time>2024-02-04T10:48:43Z</time>
      </trkpt>
      <trkpt lat="49.18611" lon="-0.08443">
        <ele>16</ele>
        <time>2024-02-04T10:48:44Z</time>
      </trkpt>
      <trkpt lat="49.18616" lon="-0.08432">
        <ele>16.1</ele>
        <time>2024-02-04T10:48:45Z</time>
      </trkpt>
      <trkpt lat="49.18619" lon="-0.08421">
        <ele>16.1</ele>
        <time>2024-02-04T10:48:46Z</time>
      </trkpt>
      <trkpt lat="49.18623" lon="-0.08409">
        <ele>16.2</ele>
        <time>2024-02-04T10:48:47Z</time>
      </trkpt>
      <trkpt lat="49.18626" lon="-0.08396">
        <ele>16.2</ele>
        <time>2024-02-04T10:48:48Z</time>
      </trkpt>
      <trkpt lat="49.1863" lon="-0.08384">
        <ele>16.3</ele>
        <time>2024-02-04T10:48:49Z</time>
      </trkpt>
      <trkpt lat="49.18634" lon="-0.08372">
        <ele>16.4</ele>
        <time>2024-02-04T10:48:50Z</time>
      </trkpt>
      <trkpt lat="49.18637" lon="-0.0836">
        <ele>16.5</ele>
        <time>2024-02-04T10:48:51Z</time>
      </trkpt>
      <trkpt lat="49.18641" lon="-0.08348">
        <ele>16.5</ele>
        <time>2024-02-04T10:48:52Z</time>
      </trkpt>
      <trkpt lat="49.18645" lon="-0.08336">
        <ele>16.6</ele>
        <time>2024-02-04T10:48:53Z</time>
      </trkpt>
      <trkpt lat="49.18648" lon="-0.08325">
        <ele>16.7</ele>
        <time>2024-02-04T10:48:54Z</time>
      </trkpt>
      <trkpt lat="49.18652" lon="-0.08313">
        <ele>16.7</ele>
        <time>2024-02-04T10:48:55Z</time>
      </trkpt>
      <trkpt lat="49.18655" lon="-0.08301">
        <ele>16.7</ele>
        <time>2024-02-04T10:48:56Z</time>
      </trkpt>
      <trkpt lat="49.18659" lon="-0.0829">
        <ele>16.8</ele>
        <time>2024-02-04T10:48:57Z</time>
      </trkpt>
      <trkpt lat="49.18662" lon="-0.08279">
        <ele>16.8</ele>
        <time>2024-02-04T10:48:58Z</time>
      </trkpt>
      <trkpt lat="49.18666" lon="-0.08268">
        <ele>16.8</ele>
        <time>2024-02-04T10:48:59Z</time>
      </trkpt>
      <trkpt lat="49.1867" lon="-0.08257">
        <ele>16.7</ele>
        <time>2024-02-04T10:49:00Z</time>
      </trkpt>
      <trkpt lat="49.18675" lon="-0.08247">
        <ele>16.7</ele>
        <time>2024-02-04T10:49:01Z</time>
      </trkpt>
      <trkpt lat="49.18679" lon="-0.08236">
        <ele>16.6</ele>
        <time>2024-02-04T10:49:02Z</time>
      </trkpt>
      <trkpt lat="49.18683" lon="-0.08224">
        <ele>16.6</ele>
        <time>2024-02-04T10:49:03Z</time>
      </trkpt>
      <trkpt lat="49.18688" lon="-0.08213">
        <ele>16.5</ele>
        <time>2024-02-04T10:49:04Z</time>
      </trkpt>
      <trkpt lat="49.18692" lon="-0.08201">
        <ele>16.5</ele>
        <time>2024-02-04T10:49:05Z</time>
      </trkpt>
      <trkpt lat="49.18697" lon="-0.0819">
        <ele>16.5</ele>
        <time>2024-02-04T10:49:06Z</time>
      </trkpt>
      <trkpt lat="49.18702" lon="-0.08179">
        <ele>16.4</ele>
        <time>2024-02-04T10:49:07Z</time>
      </trkpt>
      <trkpt lat="49.18707" lon="-0.08167">
        <ele>16.4</ele>
        <time>2024-02-04T10:49:08Z</time>
      </trkpt>
      <trkpt lat="49.18711" lon="-0.08155">
        <ele>16.3</ele>
        <time>2024-02-04T10:49:09Z</time>
      </trkpt>
      <trkpt lat="49.18716" lon="-0.08144">
        <ele>16.2</ele>
        <time>2024-02-04T10:49:10Z</time>
      </trkpt>
      <trkpt lat="49.18721" lon="-0.08131">
        <ele>16.1</ele>
        <time>2024-02-04T10:49:11Z</time>
      </trkpt>
      <trkpt lat="49.18727" lon="-0.08119">
        <ele>15.9</ele>
        <time>2024-02-04T10:49:12Z</time>
      </trkpt>
      <trkpt lat="49.18732" lon="-0.08106">
        <ele>15.7</ele>
        <time>2024-02-04T10:49:13Z</time>
      </trkpt>
      <trkpt lat="49.18736" lon="-0.08094">
        <ele>15.6</ele>
        <time>2024-02-04T10:49:14Z</time>
      </trkpt>
      <trkpt lat="49.18741" lon="-0.08082">
        <ele>15.4</ele>
        <time>2024-02-04T10:49:15Z</time>
      </trkpt>
      <trkpt lat="49.18746" lon="-0.08069">
        <ele>15.2</ele>
        <time>2024-02-04T10:49:16Z</time>
      </trkpt>
      <trkpt lat="49.18751" lon="-0.08057">
        <ele>15</ele>
        <time>2024-02-04T10:49:17Z</time>
      </trkpt>
      <trkpt lat="49.18755" lon="-0.08045">
        <ele>14.9</ele>
        <time>2024-02-04T10:49:18Z</time>
      </trkpt>
      <trkpt lat="49.1876" lon="-0.08033">
        <ele>14.8</ele>
        <time>2024-02-04T10:49:19Z</time>
      </trkpt>
      <trkpt lat="49.18766" lon="-0.08021">
        <ele>14.6</ele>
        <time>2024-02-04T10:49:20Z</time>
      </trkpt>
      <trkpt lat="49.18771" lon="-0.08009">
        <ele>14.5</ele>
        <time>2024-02-04T10:49:21Z</time>
      </trkpt>
      <trkpt lat="49.18777" lon="-0.07998">
        <ele>14.4</ele>
        <time>2024-02-04T10:49:22Z</time>
      </trkpt>
      <trkpt lat="49.18784" lon="-0.07988">
        <ele>14.3</ele>
        <time>2024-02-04T10:49:23Z</time>
      </trkpt>
      <trkpt lat="49.1879" lon="-0.07978">
        <ele>14.2</ele>
        <time>2024-02-04T10:49:24Z</time>
      </trkpt>
      <trkpt lat="49.18797" lon="-0.07968">
        <ele>14</ele>
        <time>2024-02-04T10:49:25Z</time>
      </trkpt>
      <trkpt lat="49.18803" lon="-0.07958">
        <ele>13.8</ele>
        <time>2024-02-04T10:49:26Z</time>
      </trkpt>
      <trkpt lat="49.1881" lon="-0.07948">
        <ele>13.6</ele>
        <time>2024-02-04T10:49:27Z</time>
      </trkpt>
      <trkpt lat="49.18817" lon="-0.07938">
        <ele>13.5</ele>
        <time>2024-02-04T10:49:28Z</time>
      </trkpt>
      <trkpt lat="49.18823" lon="-0.07926">
        <ele>13.4</ele>
        <time>2024-02-04T10:49:29Z</time>
      </trkpt>
      <trkpt lat="49.18829" lon="-0.07916">
        <ele>13.3</ele>
        <time>2024-02-04T10:49:30Z</time>
      </trkpt>
      <trkpt lat="49.18836" lon="-0.07905">
        <ele>13.1</ele>
        <time>2024-02-04T10:49:31Z</time>
      </trkpt>
      <trkpt lat="49.18843" lon="-0.07893">
        <ele>13</ele>
        <time>2024-02-04T10:49:32Z</time>
      </trkpt>
      <trkpt lat="49.18848" lon="-0.07881">
        <ele>12.9</ele>
        <time>2024-02-04T10:49:33Z</time>
      </trkpt>
      <trkpt lat="49.18853" lon="-0.07868">
        <ele>12.8</ele>
        <time>2024-02-04T10:49:34Z</time>
      </trkpt>
      <trkpt lat="49.18858" lon="-0.07855">
        <ele>12.8</ele>
        <time>2024-02-04T10:49:35Z</time>
      </trkpt>
      <trkpt lat="49.18862" lon="-0.07842">
        <ele>12.7</ele>
        <time>2024-02-04T10:49:36Z</time>
      </trkpt>
      <trkpt lat="49.18866" lon="-0.07828">
        <ele>12.6</ele>
        <time>2024-02-04T10:49:37Z</time>
      </trkpt>
      <trkpt lat="49.1887" lon="-0.07815">
        <ele>12.5</ele>
        <time>2024-02-04T10:49:38Z</time>
      </trkpt>
      <trkpt lat="49.18873" lon="-0.07802">
        <ele>12.5</ele>
        <time>2024-02-04T10:49:39Z</time>
      </trkpt>
      <trkpt lat="49.18875" lon="-0.07788">
        <ele>12.3</ele>
        <time>2024-02-04T10:49:40Z</time>
      </trkpt>
      <trkpt lat="49.18878" lon="-0.07774">
        <ele>12.2</ele>
        <time>2024-02-04T10:49:41Z</time>
      </trkpt>
      <trkpt lat="49.1888" lon="-0.07759">
        <ele>12</ele>
        <time>2024-02-04T10:49:42Z</time>
      </trkpt>
      <trkpt lat="49.18883" lon="-0.07745">
        <ele>11.8</ele>
        <time>2024-02-04T10:49:43Z</time>
      </trkpt>
      <trkpt lat="49.18886" lon="-0.0773">
        <ele>11.6</ele>
        <time>2024-02-04T10:49:44Z</time>
      </trkpt>
      <trkpt lat="49.18889" lon="-0.07715">
        <ele>11.5</ele>
        <time>2024-02-04T10:49:45Z</time>
      </trkpt>
      <trkpt lat="49.18893" lon="-0.07701">
        <ele>11.4</ele>
        <time>2024-02-04T10:49:46Z</time>
      </trkpt>
      <trkpt lat="49.18897" lon="-0.07686">
        <ele>11.3</ele>
        <time>2024-02-04T10:49:47Z</time>
      </trkpt>
      <trkpt lat="49.18901" lon="-0.07672">
        <ele>11.3</ele>
        <time>2024-02-04T10:49:48Z</time>
      </trkpt>
      <trkpt lat="49.18905" lon="-0.07658">
        <ele>11.4</ele>
        <time>2024-02-04T10:49:49Z</time>
      </trkpt>
      <trkpt lat="49.18909" lon="-0.07644">
        <ele>11.5</ele>
        <time>2024-02-04T10:49:50Z</time>
      </trkpt>
      <trkpt lat="49.18913" lon="-0.0763">
        <ele>11.7</ele>
        <time>2024-02-04T10:49:51Z</time>
      </trkpt>
      <trkpt lat="49.18917" lon="-0.07616">
        <ele>11.8</ele>
        <time>2024-02-04T10:49:52Z</time>
      </trkpt>
      <trkpt lat="49.1892" lon="-0.07603">
        <ele>11.9</ele>
        <time>2024-02-04T10:49:53Z</time>
      </trkpt>
      <trkpt lat="49.18924" lon="-0.0759">
        <ele>12.1</ele>
        <time>2024-02-04T10:49:54Z</time>
      </trkpt>
      <trkpt lat="49.18929" lon="-0.07577">
        <ele>12.2</ele>
        <time>2024-02-04T10:49:55Z</time>
      </trkpt>
      <trkpt lat="49.18933" lon="-0.07563">
        <ele>12.3</ele>
        <time>2024-02-04T10:49:56Z</time>
      </trkpt>
      <trkpt lat="49.18937" lon="-0.0755">
        <ele>12.3</ele>
        <time>2024-02-04T10:49:57Z</time>
      </trkpt>
      <trkpt lat="49.18941" lon="-0.07537">
        <ele>12.4</ele>
        <time>2024-02-04T10:49:58Z</time>
      </trkpt>
      <trkpt lat="49.18945" lon="-0.07523">
        <ele>12.4</ele>
        <time>2024-02-04T10:49:59Z</time>
      </trkpt>
      <trkpt lat="49.18949" lon="-0.0751">
        <ele>12.4</ele>
        <time>2024-02-04T10:50:00Z</time>
      </trkpt>
      <trkpt lat="49.18952" lon="-0.07496">
        <ele>12.4</ele>
        <time>2024-02-04T10:50:01Z</time>
      </trkpt>
      <trkpt lat="49.18956" lon="-0.07482">
        <ele>12.4</ele>
        <time>2024-02-04T10:50:02Z</time>
      </trkpt>
      <trkpt lat="49.1896" lon="-0.07468">
        <ele>12.5</ele>
        <time>2024-02-04T10:50:03Z</time>
      </trkpt>
      <trkpt lat="49.18964" lon="-0.07455">
        <ele>12.5</ele>
        <time>2024-02-04T10:50:04Z</time>
      </trkpt>
      <trkpt lat="49.18968" lon="-0.07442">
        <ele>12.4</ele>
        <time>2024-02-04T10:50:05Z</time>
      </trkpt>
      <trkpt lat="49.18972" lon="-0.07429">
        <ele>12.3</ele>
        <time>2024-02-04T10:50:06Z</time>
      </trkpt>
      <trkpt lat="49.18976" lon="-0.07417">
        <ele>12.2</ele>
        <time>2024-02-04T10:50:07Z</time>
      </trkpt>
      <trkpt lat="49.18981" lon="-0.07405">
        <ele>12.1</ele>
        <time>2024-02-04T10:50:08Z</time>
      </trkpt>
      <trkpt lat="49.18987" lon="-0.07395">
        <ele>11.9</ele>
        <time>2024-02-04T10:50:09Z</time>
      </trkpt>
      <trkpt lat="49.18995" lon="-0.07385">
        <ele>11.8</ele>
        <time>2024-02-04T10:50:10Z</time>
      </trkpt>
      <trkpt lat="49.19002" lon="-0.07376">
        <ele>11.7</ele>
        <time>2024-02-04T10:50:11Z</time>
      </trkpt>
      <trkpt lat="49.1901" lon="-0.07368">
        <ele>11.5</ele>
        <time>2024-02-04T10:50:12Z</time>
      </trkpt>
      <trkpt lat="49.19018" lon="-0.0736">
        <ele>11.3</ele>
        <time>2024-02-04T10:50:13Z</time>
      </trkpt>
      <trkpt lat="49.19026" lon="-0.07351">
        <ele>11.1</ele>
        <time>2024-02-04T10:50:14Z</time>
      </trkpt>
      <trkpt lat="49.19034" lon="-0.07342">
        <ele>10.8</ele>
        <time>2024-02-04T10:50:15Z</time>
      </trkpt>
      <trkpt lat="49.19042" lon="-0.07333">
        <ele>10.5</ele>
        <time>2024-02-04T10:50:16Z</time>
      </trkpt>
      <trkpt lat="49.1905" lon="-0.07324">
        <ele>10.2</ele>
        <time>2024-02-04T10:50:17Z</time>
      </trkpt>
      <trkpt lat="49.19058" lon="-0.07315">
        <ele>9.9</ele>
        <time>2024-02-04T10:50:18Z</time>
      </trkpt>
      <trkpt lat="49.19066" lon="-0.07306">
        <ele>9.6</ele>
        <time>2024-02-04T10:50:19Z</time>
      </trkpt>
      <trkpt lat="49.19074" lon="-0.07297">
        <ele>9.3</ele>
        <time>2024-02-04T10:50:20Z</time>
      </trkpt>
      <trkpt lat="49.19082" lon="-0.07288">
        <ele>9</ele>
        <time>2024-02-04T10:50:21Z</time>
      </trkpt>
      <trkpt lat="49.19091" lon="-0.07279">
        <ele>8.8</ele>
        <time>2024-02-04T10:50:22Z</time>
      </trkpt>
      <trkpt lat="49.19099" lon="-0.07271">
        <ele>8.7</ele>
        <time>2024-02-04T10:50:23Z</time>
      </trkpt>
      <trkpt lat="49.19107" lon="-0.07262">
        <ele>8.5</ele>
        <time>2024-02-04T10:50:24Z</time>
      </trkpt>
      <trkpt lat="49.19116" lon="-0.07253">
        <ele>8.3</ele>
        <time>2024-02-04T10:50:25Z</time>
      </trkpt>
      <trkpt lat="49.19124" lon="-0.07244">
        <ele>8.2</ele>
        <time>2024-02-04T10:50:26Z</time>
      </trkpt>
      <trkpt lat="49.19132" lon="-0.07235">
        <ele>8</ele>
        <time>2024-02-04T10:50:27Z</time>
      </trkpt>
      <trkpt lat="49.1914" lon="-0.07227">
        <ele>7.9</ele>
        <time>2024-02-04T10:50:28Z</time>
      </trkpt>
      <trkpt lat="49.19148" lon="-0.07218">
        <ele>7.8</ele>
        <time>2024-02-04T10:50:29Z</time>
      </trkpt>
      <trkpt lat="49.19156" lon="-0.07209">
        <ele>7.7</ele>
        <time>2024-02-04T10:50:30Z</time>
      </trkpt>
      <trkpt lat="49.19165" lon="-0.07201">
        <ele>7.6</ele>
        <time>2024-02-04T10:50:31Z</time>
      </trkpt>
      <trkpt lat="49.19173" lon="-0.07192">
        <ele>7.5</ele>
        <time>2024-02-04T10:50:32Z</time>
      </trkpt>
      <trkpt lat="49.19181" lon="-0.07183">
        <ele>7.4</ele>
        <time>2024-02-04T10:50:33Z</time>
      </trkpt>
      <trkpt lat="49.1919" lon="-0.07175">
        <ele>7.3</ele>
        <time>2024-02-04T10:50:34Z</time>
      </trkpt>
      <trkpt lat="49.19198" lon="-0.07166">
        <ele>7.2</ele>
        <time>2024-02-04T10:50:35Z</time>
      </trkpt>
      <trkpt lat="49.19206" lon="-0.07157">
        <ele>7.1</ele>
        <time>2024-02-04T10:50:36Z</time>
      </trkpt>
      <trkpt lat="49.19214" lon="-0.07149">
        <ele>7.1</ele>
        <time>2024-02-04T10:50:37Z</time>
      </trkpt>
      <trkpt lat="49.19222" lon="-0.0714">
        <ele>7</ele>
        <time>2024-02-04T10:50:38Z</time>
      </trkpt>
      <trkpt lat="49.1923" lon="-0.07131">
        <ele>7</ele>
        <time>2024-02-04T10:50:39Z</time>
      </trkpt>
      <trkpt lat="49.19238" lon="-0.07123">
        <ele>7</ele>
        <time>2024-02-04T10:50:40Z</time>
      </trkpt>
      <trkpt lat="49.19245" lon="-0.07115">
        <ele>7</ele>
        <time>2024-02-04T10:50:41Z</time>
      </trkpt>
      <trkpt lat="49.19253" lon="-0.07106">
        <ele>7</ele>
        <time>2024-02-04T10:50:42Z</time>
      </trkpt>
      <trkpt lat="49.19261" lon="-0.07097">
        <ele>7</ele>
        <time>2024-02-04T10:50:43Z</time>
      </trkpt>
      <trkpt lat="49.19269" lon="-0.07089">
        <ele>7</ele>
        <time>2024-02-04T10:50:44Z</time>
      </trkpt>
      <trkpt lat="49.19277" lon="-0.0708">
        <ele>7.1</ele>
        <time>2024-02-04T10:50:45Z</time>
      </trkpt>
      <trkpt lat="49.19284" lon="-0.07072">
        <ele>7.1</ele>
        <time>2024-02-04T10:50:46Z</time>
      </trkpt>
      <trkpt lat="49.19292" lon="-0.07064">
        <ele>7.2</ele>
        <time>2024-02-04T10:50:47Z</time>
      </trkpt>
      <trkpt lat="49.193" lon="-0.07057">
        <ele>7.3</ele>
        <time>2024-02-04T10:50:48Z</time>
      </trkpt>
      <trkpt lat="49.19308" lon="-0.0705">
        <ele>7.3</ele>
        <time>2024-02-04T10:50:49Z</time>
      </trkpt>
      <trkpt lat="49.19317" lon="-0.07043">
        <ele>7.4</ele>
        <time>2024-02-04T10:50:50Z</time>
      </trkpt>
      <trkpt lat="49.19325" lon="-0.07036">
        <ele>7.5</ele>
        <time>2024-02-04T10:50:51Z</time>
      </trkpt>
      <trkpt lat="49.19334" lon="-0.0703">
        <ele>7.6</ele>
        <time>2024-02-04T10:50:52Z</time>
      </trkpt>
      <trkpt lat="49.19341" lon="-0.07023">
        <ele>7.7</ele>
        <time>2024-02-04T10:50:53Z</time>
      </trkpt>
      <trkpt lat="49.19349" lon="-0.07017">
        <ele>7.9</ele>
        <time>2024-02-04T10:50:54Z</time>
      </trkpt>
      <trkpt lat="49.19357" lon="-0.07012">
        <ele>8</ele>
        <time>2024-02-04T10:50:55Z</time>
      </trkpt>
      <trkpt lat="49.19365" lon="-0.07006">
        <ele>8.2</ele>
        <time>2024-02-04T10:50:56Z</time>
      </trkpt>
      <trkpt lat="49.19373" lon="-0.07001">
        <ele>8.4</ele>
        <time>2024-02-04T10:50:57Z</time>
      </trkpt>
      <trkpt lat="49.19381" lon="-0.06995">
        <ele>8.7</ele>
        <time>2024-02-04T10:50:58Z</time>
      </trkpt>
      <trkpt lat="49.19389" lon="-0.06989">
        <ele>9</ele>
        <time>2024-02-04T10:50:59Z</time>
      </trkpt>
      <trkpt lat="49.19397" lon="-0.06984">
        <ele>9.3</ele>
        <time>2024-02-04T10:51:00Z</time>
      </trkpt>
      <trkpt lat="49.19405" lon="-0.06979">
        <ele>9.6</ele>
        <time>2024-02-04T10:51:01Z</time>
      </trkpt>
      <trkpt lat="49.19413" lon="-0.06974">
        <ele>9.9</ele>
        <time>2024-02-04T10:51:02Z</time>
      </trkpt>
      <trkpt lat="49.19422" lon="-0.06969">
        <ele>10</ele>
        <time>2024-02-04T10:51:03Z</time>
      </trkpt>
      <trkpt lat="49.19429" lon="-0.06964">
        <ele>10.2</ele>
        <time>2024-02-04T10:51:04Z</time>
      </trkpt>
      <trkpt lat="49.19437" lon="-0.0696">
        <ele>10.2</ele>
        <time>2024-02-04T10:51:05Z</time>
      </trkpt>
      <trkpt lat="49.19445" lon="-0.06955">
        <ele>10.2</ele>
        <time>2024-02-04T10:51:06Z</time>
      </trkpt>
      <trkpt lat="49.19452" lon="-0.0695">
        <ele>10</ele>
        <time>2024-02-04T10:51:07Z</time>
      </trkpt>
      <trkpt lat="49.1946" lon="-0.06945">
        <ele>9.8</ele>
        <time>2024-02-04T10:51:08Z</time>
      </trkpt>
      <trkpt lat="49.19469" lon="-0.06939">
        <ele>9.5</ele>
        <time>2024-02-04T10:51:09Z</time>
      </trkpt>
      <trkpt lat="49.19478" lon="-0.06933">
        <ele>9.2</ele>
        <time>2024-02-04T10:51:10Z</time>
      </trkpt>
      <trkpt lat="49.19487" lon="-0.06926">
        <ele>8.9</ele>
        <time>2024-02-04T10:51:11Z</time>
      </trkpt>
      <trkpt lat="49.19496" lon="-0.06919">
        <ele>8.6</ele>
        <time>2024-02-04T10:51:12Z</time>
      </trkpt>
      <trkpt lat="49.19505" lon="-0.06911">
        <ele>8.4</ele>
        <time>2024-02-04T10:51:13Z</time>
      </trkpt>
      <trkpt lat="49.19514" lon="-0.06903">
        <ele>8.2</ele>
        <time>2024-02-04T10:51:14Z</time>
      </trkpt>
      <trkpt lat="49.19523" lon="-0.06895">
        <ele>8</ele>
        <time>2024-02-04T10:51:15Z</time>
      </trkpt>
      <trkpt lat="49.19532" lon="-0.06887">
        <ele>7.8</ele>
        <time>2024-02-04T10:51:16Z</time>
      </trkpt>
      <trkpt lat="49.1954" lon="-0.06879">
        <ele>7.7</ele>
        <time>2024-02-04T10:51:17Z</time>
      </trkpt>
      <trkpt lat="49.19549" lon="-0.06871">
        <ele>7.6</ele>
        <time>2024-02-04T10:51:18Z</time>
      </trkpt>
      <trkpt lat="49.19557" lon="-0.06863">
        <ele>7.5</ele>
        <time>2024-02-04T10:51:19Z</time>
      </trkpt>
      <trkpt lat="49.19565" lon="-0.06855">
        <ele>7.5</ele>
        <time>2024-02-04T10:51:20Z</time>
      </trkpt>
      <trkpt lat="49.19574" lon="-0.06847">
        <ele>7.4</ele>
        <time>2024-02-04T10:51:21Z</time>
      </trkpt>
      <trkpt lat="49.19582" lon="-0.06838">
        <ele>7.4</ele>
        <time>2024-02-04T10:51:22Z</time>
      </trkpt>
      <trkpt lat="49.19591" lon="-0.0683">
        <ele>7.4</ele>
        <time>2024-02-04T10:51:23Z</time>
      </trkpt>
      <trkpt lat="49.19599" lon="-0.06822">
        <ele>7.4</ele>
        <time>2024-02-04T10:51:24Z</time>
      </trkpt>
      <trkpt lat="49.19607" lon="-0.06814">
        <ele>7.5</ele>
        <time>2024-02-04T10:51:25Z</time>
      </trkpt>
      <trkpt lat="49.19615" lon="-0.06807">
        <ele>7.5</ele>
        <time>2024-02-04T10:51:26Z</time>
      </trkpt>
      <trkpt lat="49.19623" lon="-0.068">
        <ele>7.6</ele>
        <time>2024-02-04T10:51:27Z</time>
      </trkpt>
      <trkpt lat="49.19631" lon="-0.06793">
        <ele>7.7</ele>
        <time>2024-02-04T10:51:28Z</time>
      </trkpt>
      <trkpt lat="49.19639" lon="-0.06786">
        <ele>7.7</ele>
        <time>2024-02-04T10:51:29Z</time>
      </trkpt>
      <trkpt lat="49.19648" lon="-0.0678">
        <ele>7.7</ele>
        <time>2024-02-04T10:51:30Z</time>
      </trkpt>
      <trkpt lat="49.19656" lon="-0.06773">
        <ele>7.8</ele>
        <time>2024-02-04T10:51:31Z</time>
      </trkpt>
      <trkpt lat="49.19665" lon="-0.06767">
        <ele>7.8</ele>
        <time>2024-02-04T10:51:32Z</time>
      </trkpt>
      <trkpt lat="49.19673" lon="-0.06761">
        <ele>7.8</ele>
        <time>2024-02-04T10:51:33Z</time>
      </trkpt>
      <trkpt lat="49.19681" lon="-0.06755">
        <ele>7.8</ele>
        <time>2024-02-04T10:51:34Z</time>
      </trkpt>
      <trkpt lat="49.1969" lon="-0.06749">
        <ele>7.9</ele>
        <time>2024-02-04T10:51:35Z</time>
      </trkpt>
      <trkpt lat="49.19698" lon="-0.06743">
        <ele>7.9</ele>
        <time>2024-02-04T10:51:36Z</time>
      </trkpt>
      <trkpt lat="49.19707" lon="-0.06738">
        <ele>7.9</ele>
        <time>2024-02-04T10:51:37Z</time>
      </trkpt>
      <trkpt lat="49.19716" lon="-0.06733">
        <ele>7.9</ele>
        <time>2024-02-04T10:51:38Z</time>
      </trkpt>
      <trkpt lat="49.19724" lon="-0.06728">
        <ele>7.9</ele>
        <time>2024-02-04T10:51:39Z</time>
      </trkpt>
      <trkpt lat="49.19733" lon="-0.06724">
        <ele>7.9</ele>
        <time>2024-02-04T10:51:40Z</time>
      </trkpt>
      <trkpt lat="49.19742" lon="-0.06719">
        <ele>7.9</ele>
        <time>2024-02-04T10:51:41Z</time>
      </trkpt>
      <trkpt lat="49.1975" lon="-0.06714">
        <ele>7.8</ele>
        <time>2024-02-04T10:51:42Z</time>
      </trkpt>
      <trkpt lat="49.19758" lon="-0.06707">
        <ele>7.7</ele>
        <time>2024-02-04T10:51:43Z</time>
      </trkpt>
      <trkpt lat="49.19766" lon="-0.067">
        <ele>7.6</ele>
        <time>2024-02-04T10:51:44Z</time>
      </trkpt>
      <trkpt lat="49.19773" lon="-0.06692">
        <ele>7.5</ele>
        <time>2024-02-04T10:51:45Z</time>
      </trkpt>
      <trkpt lat="49.1978" lon="-0.06683">
        <ele>7.4</ele>
        <time>2024-02-04T10:51:46Z</time>
      </trkpt>
      <trkpt lat="49.19787" lon="-0.06674">
        <ele>7.3</ele>
        <time>2024-02-04T10:51:47Z</time>
      </trkpt>
      <trkpt lat="49.19793" lon="-0.06664">
        <ele>7.2</ele>
        <time>2024-02-04T10:51:48Z</time>
      </trkpt>
      <trkpt lat="49.19798" lon="-0.06653">
        <ele>7.1</ele>
        <time>2024-02-04T10:51:49Z</time>
      </trkpt>
      <trkpt lat="49.19803" lon="-0.06642">
        <ele>7.1</ele>
        <time>2024-02-04T10:51:50Z</time>
      </trkpt>
      <trkpt lat="49.19808" lon="-0.06631">
        <ele>7</ele>
        <time>2024-02-04T10:51:51Z</time>
      </trkpt>
      <trkpt lat="49.19812" lon="-0.06619">
        <ele>7</ele>
        <time>2024-02-04T10:51:52Z</time>
      </trkpt>
      <trkpt lat="49.19815" lon="-0.06608">
        <ele>7</ele>
        <time>2024-02-04T10:51:53Z</time>
      </trkpt>
      <trkpt lat="49.19818" lon="-0.06597">
        <ele>7</ele>
        <time>2024-02-04T10:51:54Z</time>
      </trkpt>
      <trkpt lat="49.19819" lon="-0.06588">
        <ele>7.1</ele>
        <time>2024-02-04T10:51:55Z</time>
      </trkpt>
      <trkpt lat="49.1982" lon="-0.0658">
        <ele>7.1</ele>
        <time>2024-02-04T10:51:56Z</time>
      </trkpt>
      <trkpt lat="49.19821" lon="-0.06573">
        <ele>7.2</ele>
        <time>2024-02-04T10:51:57Z</time>
      </trkpt>
      <trkpt lat="49.19823" lon="-0.06566">
        <ele>7.2</ele>
        <time>2024-02-04T10:51:58Z</time>
      </trkpt>
      <trkpt lat="49.19824" lon="-0.06561">
        <ele>7.3</ele>
        <time>2024-02-04T10:51:59Z</time>
      </trkpt>
      <trkpt lat="49.19824" lon="-0.06556">
        <ele>7.3</ele>
        <time>2024-02-04T10:52:00Z</time>
      </trkpt>
      <trkpt lat="49.19825" lon="-0.06551">
        <ele>7.3</ele>
        <time>2024-02-04T10:52:01Z</time>
      </trkpt>
      <trkpt lat="49.19826" lon="-0.06547">
        <ele>7.4</ele>
        <time>2024-02-04T10:52:02Z</time>
      </trkpt>
      <trkpt lat="49.19827" lon="-0.06542">
        <ele>7.4</ele>
        <time>2024-02-04T10:52:03Z</time>
      </trkpt>
      <trkpt lat="49.19828" lon="-0.06541">
        <ele>7.4</ele>
        <time>2024-02-04T10:52:04Z</time>
      </trkpt>
      <trkpt lat="49.19831" lon="-0.06539">
        <ele>7.4</ele>
        <time>2024-02-04T10:52:05Z</time>
      </trkpt>
      <trkpt lat="49.19834" lon="-0.06539">
        <ele>7.4</ele>
        <time>2024-02-04T10:52:06Z</time>
      </trkpt>
      <trkpt lat="49.19838" lon="-0.06539">
        <ele>7.4</ele>
        <time>2024-02-04T10:52:07Z</time>
      </trkpt>
      <trkpt lat="49.19841" lon="-0.06541">
        <ele>7.3</ele>
        <time>2024-02-04T10:52:08Z</time>
      </trkpt>
      <trkpt lat="49.19846" lon="-0.06542">
        <ele>7.3</ele>
        <time>2024-02-04T10:52:09Z</time>
      </trkpt>
      <trkpt lat="49.19851" lon="-0.06544">
        <ele>7.3</ele>
        <time>2024-02-04T10:52:10Z</time>
      </trkpt>
      <trkpt lat="49.19856" lon="-0.06547">
        <ele>7.2</ele>
        <time>2024-02-04T10:52:11Z</time>
      </trkpt>
      <trkpt lat="49.19862" lon="-0.06549">
        <ele>7.2</ele>
        <time>2024-02-04T10:52:12Z</time>
      </trkpt>
      <trkpt lat="49.19868" lon="-0.06551">
        <ele>7.2</ele>
        <time>2024-02-04T10:52:13Z</time>
      </trkpt>
      <trkpt lat="49.19874" lon="-0.06552">
        <ele>7.2</ele>
        <time>2024-02-04T10:52:14Z</time>
      </trkpt>
      <trkpt lat="49.1988" lon="-0.06553">
        <ele>7.2</ele>
        <time>2024-02-04T10:52:15Z</time>
      </trkpt>
      <trkpt lat="49.19886" lon="-0.06554">
        <ele>7.2</ele>
        <time>2024-02-04T10:52:16Z</time>
      </trkpt>
      <trkpt lat="49.19893" lon="-0.06555">
        <ele>7.2</ele>
        <time>2024-02-04T10:52:17Z</time>
      </trkpt>
      <trkpt lat="49.199" lon="-0.06555">
        <ele>7.2</ele>
        <time>2024-02-04T10:52:18Z</time>
      </trkpt>
      <trkpt lat="49.19907" lon="-0.06555">
        <ele>7.2</ele>
        <time>2024-02-04T10:52:19Z</time>
      </trkpt>
      <trkpt lat="49.19914" lon="-0.06554">
        <ele>7.2</ele>
        <time>2024-02-04T10:52:20Z</time>
      </trkpt>
      <trkpt lat="49.19921" lon="-0.06554">
        <ele>7.2</ele>
        <time>2024-02-04T10:52:21Z</time>
      </trkpt>
      <trkpt lat="49.19929" lon="-0.06554">
        <ele>7.2</ele>
        <time>2024-02-04T10:52:22Z</time>
      </trkpt>
      <trkpt lat="49.19936" lon="-0.06553">
        <ele>7.2</ele>
        <time>2024-02-04T10:52:23Z</time>
      </trkpt>
      <trkpt lat="49.19943" lon="-0.06552">
        <ele>7.2</ele>
        <time>2024-02-04T10:52:24Z</time>
      </trkpt>
      <trkpt lat="49.19951" lon="-0.06552">
        <ele>7.2</ele>
        <time>2024-02-04T10:52:25Z</time>
      </trkpt>
      <trkpt lat="49.19959" lon="-0.06552">
        <ele>7.2</ele>
        <time>2024-02-04T10:52:26Z</time>
      </trkpt>
      <trkpt lat="49.19966" lon="-0.06552">
        <ele>7.2</ele>
        <time>2024-02-04T10:52:27Z</time>
      </trkpt>
      <trkpt lat="49.19974" lon="-0.06552">
        <ele>7.2</ele>
        <time>2024-02-04T10:52:28Z</time>
      </trkpt>
      <trkpt lat="49.19982" lon="-0.06551">
        <ele>7.2</ele>
        <time>2024-02-04T10:52:29Z</time>
      </trkpt>
      <trkpt lat="49.19989" lon="-0.06549">
        <ele>7.2</ele>
        <time>2024-02-04T10:52:30Z</time>
      </trkpt>
      <trkpt lat="49.19997" lon="-0.06546">
        <ele>7.2</ele>
        <time>2024-02-04T10:52:31Z</time>
      </trkpt>
      <trkpt lat="49.20005" lon="-0.06542">
        <ele>7.2</ele>
        <time>2024-02-04T10:52:32Z</time>
      </trkpt>
      <trkpt lat="49.20012" lon="-0.06536">
        <ele>7.3</ele>
        <time>2024-02-04T10:52:33Z</time>
      </trkpt>
      <trkpt lat="49.20019" lon="-0.0653">
        <ele>7.3</ele>
        <time>2024-02-04T10:52:34Z</time>
      </trkpt>
      <trkpt lat="49.20026" lon="-0.06524">
        <ele>7.3</ele>
        <time>2024-02-04T10:52:35Z</time>
      </trkpt>
      <trkpt lat="49.20033" lon="-0.06518">
        <ele>7.3</ele>
        <time>2024-02-04T10:52:36Z</time>
      </trkpt>
      <trkpt lat="49.2004" lon="-0.0651">
        <ele>7.3</ele>
        <time>2024-02-04T10:52:37Z</time>
      </trkpt>
      <trkpt lat="49.20046" lon="-0.06502">
        <ele>7.3</ele>
        <time>2024-02-04T10:52:38Z</time>
      </trkpt>
      <trkpt lat="49.20053" lon="-0.06493">
        <ele>7.3</ele>
        <time>2024-02-04T10:52:39Z</time>
      </trkpt>
      <trkpt lat="49.2006" lon="-0.06486">
        <ele>7.3</ele>
        <time>2024-02-04T10:52:40Z</time>
      </trkpt>
      <trkpt lat="49.20068" lon="-0.06478">
        <ele>7.4</ele>
        <time>2024-02-04T10:52:41Z</time>
      </trkpt>
      <trkpt lat="49.20076" lon="-0.06471">
        <ele>7.4</ele>
        <time>2024-02-04T10:52:42Z</time>
      </trkpt>
      <trkpt lat="49.20084" lon="-0.06464">
        <ele>7.4</ele>
        <time>2024-02-04T10:52:43Z</time>
      </trkpt>
      <trkpt lat="49.20092" lon="-0.06456">
        <ele>7.5</ele>
        <time>2024-02-04T10:52:44Z</time>
      </trkpt>
      <trkpt lat="49.20099" lon="-0.06447">
        <ele>7.5</ele>
        <time>2024-02-04T10:52:45Z</time>
      </trkpt>
      <trkpt lat="49.20106" lon="-0.06437">
        <ele>7.6</ele>
        <time>2024-02-04T10:52:46Z</time>
      </trkpt>
      <trkpt lat="49.20112" lon="-0.06427">
        <ele>7.6</ele>
        <time>2024-02-04T10:52:47Z</time>
      </trkpt>
      <trkpt lat="49.20117" lon="-0.06415">
        <ele>7.6</ele>
        <time>2024-02-04T10:52:48Z</time>
      </trkpt>
      <trkpt lat="49.20122" lon="-0.06404">
        <ele>7.6</ele>
        <time>2024-02-04T10:52:49Z</time>
      </trkpt>
      <trkpt lat="49.20127" lon="-0.06392">
        <ele>7.6</ele>
        <time>2024-02-04T10:52:50Z</time>
      </trkpt>
      <trkpt lat="49.20132" lon="-0.06382">
        <ele>7.7</ele>
        <time>2024-02-04T10:52:51Z</time>
      </trkpt>
      <trkpt lat="49.20138" lon="-0.06371">
        <ele>7.7</ele>
        <time>2024-02-04T10:52:52Z</time>
      </trkpt>
      <trkpt lat="49.20144" lon="-0.06361">
        <ele>7.7</ele>
        <time>2024-02-04T10:52:53Z</time>
      </trkpt>
      <trkpt lat="49.2015" lon="-0.06351">
        <ele>7.8</ele>
        <time>2024-02-04T10:52:54Z</time>
      </trkpt>
      <trkpt lat="49.20156" lon="-0.06343">
        <ele>7.8</ele>
        <time>2024-02-04T10:52:55Z</time>
      </trkpt>
      <trkpt lat="49.20163" lon="-0.06334">
        <ele>7.9</ele>
        <time>2024-02-04T10:52:56Z</time>
      </trkpt>
      <trkpt lat="49.20169" lon="-0.06325">
        <ele>7.9</ele>
        <time>2024-02-04T10:52:57Z</time>
      </trkpt>
      <trkpt lat="49.20176" lon="-0.06317">
        <ele>7.9</ele>
        <time>2024-02-04T10:52:58Z</time>
      </trkpt>
      <trkpt lat="49.20183" lon="-0.06311">
        <ele>7.9</ele>
        <time>2024-02-04T10:52:59Z</time>
      </trkpt>
      <trkpt lat="49.20191" lon="-0.06306">
        <ele>7.9</ele>
        <time>2024-02-04T10:53:00Z</time>
      </trkpt>
      <trkpt lat="49.202" lon="-0.06305">
        <ele>7.9</ele>
        <time>2024-02-04T10:53:01Z</time>
      </trkpt>
      <trkpt lat="49.20209" lon="-0.06306">
        <ele>8</ele>
        <time>2024-02-04T10:53:02Z</time>
      </trkpt>
      <trkpt lat="49.20217" lon="-0.06309">
        <ele>8</ele>
        <time>2024-02-04T10:53:03Z</time>
      </trkpt>
      <trkpt lat="49.20226" lon="-0.06314">
        <ele>8</ele>
        <time>2024-02-04T10:53:04Z</time>
      </trkpt>
      <trkpt lat="49.20234" lon="-0.06319">
        <ele>8</ele>
        <time>2024-02-04T10:53:05Z</time>
      </trkpt>
      <trkpt lat="49.20243" lon="-0.06324">
        <ele>8.1</ele>
        <time>2024-02-04T10:53:06Z</time>
      </trkpt>
      <trkpt lat="49.20251" lon="-0.06328">
        <ele>8.2</ele>
        <time>2024-02-04T10:53:07Z</time>
      </trkpt>
      <trkpt lat="49.20259" lon="-0.06332">
        <ele>8.2</ele>
        <time>2024-02-04T10:53:08Z</time>
      </trkpt>
      <trkpt lat="49.20267" lon="-0.06336">
        <ele>8.3</ele>
        <time>2024-02-04T10:53:09Z</time>
      </trkpt>
      <trkpt lat="49.20275" lon="-0.06339">
        <ele>8.4</ele>
        <time>2024-02-04T10:53:10Z</time>
      </trkpt>
      <trkpt lat="49.20283" lon="-0.06343">
        <ele>8.4</ele>
        <time>2024-02-04T10:53:11Z</time>
      </trkpt>
      <trkpt lat="49.20291" lon="-0.06347">
        <ele>8.5</ele>
        <time>2024-02-04T10:53:12Z</time>
      </trkpt>
      <trkpt lat="49.203" lon="-0.0635">
        <ele>8.5</ele>
        <time>2024-02-04T10:53:13Z</time>
      </trkpt>
      <trkpt lat="49.20308" lon="-0.06353">
        <ele>8.5</ele>
        <time>2024-02-04T10:53:14Z</time>
      </trkpt>
      <trkpt lat="49.20316" lon="-0.06357">
        <ele>8.5</ele>
        <time>2024-02-04T10:53:15Z</time>
      </trkpt>
      <trkpt lat="49.20324" lon="-0.06361">
        <ele>8.6</ele>
        <time>2024-02-04T10:53:16Z</time>
      </trkpt>
      <trkpt lat="49.20332" lon="-0.06365">
        <ele>8.6</ele>
        <time>2024-02-04T10:53:17Z</time>
      </trkpt>
      <trkpt lat="49.20341" lon="-0.06369">
        <ele>8.6</ele>
        <time>2024-02-04T10:53:18Z</time>
      </trkpt>
      <trkpt lat="49.20349" lon="-0.06373">
        <ele>8.6</ele>
        <time>2024-02-04T10:53:19Z</time>
      </trkpt>
      <trkpt lat="49.20357" lon="-0.06377">
        <ele>8.7</ele>
        <time>2024-02-04T10:53:20Z</time>
      </trkpt>
      <trkpt lat="49.20365" lon="-0.06381">
        <ele>8.7</ele>
        <time>2024-02-04T10:53:21Z</time>
      </trkpt>
      <trkpt lat="49.20373" lon="-0.06386">
        <ele>8.8</ele>
        <time>2024-02-04T10:53:22Z</time>
      </trkpt>
      <trkpt lat="49.20382" lon="-0.0639">
        <ele>8.8</ele>
        <time>2024-02-04T10:53:23Z</time>
      </trkpt>
      <trkpt lat="49.2039" lon="-0.06395">
        <ele>8.8</ele>
        <time>2024-02-04T10:53:24Z</time>
      </trkpt>
      <trkpt lat="49.20398" lon="-0.064">
        <ele>8.9</ele>
        <time>2024-02-04T10:53:25Z</time>
      </trkpt>
      <trkpt lat="49.20406" lon="-0.06404">
        <ele>8.9</ele>
        <time>2024-02-04T10:53:26Z</time>
      </trkpt>
      <trkpt lat="49.20414" lon="-0.06409">
        <ele>8.9</ele>
        <time>2024-02-04T10:53:27Z</time>
      </trkpt>
      <trkpt lat="49.20422" lon="-0.06413">
        <ele>8.9</ele>
        <time>2024-02-04T10:53:28Z</time>
      </trkpt>
      <trkpt lat="49.2043" lon="-0.06417">
        <ele>8.9</ele>
        <time>2024-02-04T10:53:29Z</time>
      </trkpt>
      <trkpt lat="49.20439" lon="-0.0642">
        <ele>8.9</ele>
        <time>2024-02-04T10:53:30Z</time>
      </trkpt>
      <trkpt lat="49.20447" lon="-0.06424">
        <ele>8.8</ele>
        <time>2024-02-04T10:53:31Z</time>
      </trkpt>
      <trkpt lat="49.20455" lon="-0.06429">
        <ele>8.8</ele>
        <time>2024-02-04T10:53:32Z</time>
      </trkpt>
      <trkpt lat="49.20462" lon="-0.06434">
        <ele>8.8</ele>
        <time>2024-02-04T10:53:33Z</time>
      </trkpt>
      <trkpt lat="49.2047" lon="-0.0644">
        <ele>8.8</ele>
        <time>2024-02-04T10:53:34Z</time>
      </trkpt>
      <trkpt lat="49.20477" lon="-0.06448">
        <ele>8.9</ele>
        <time>2024-02-04T10:53:35Z</time>
      </trkpt>
      <trkpt lat="49.20483" lon="-0.06457">
        <ele>8.9</ele>
        <time>2024-02-04T10:53:36Z</time>
      </trkpt>
      <trkpt lat="49.2049" lon="-0.06466">
        <ele>8.9</ele>
        <time>2024-02-04T10:53:37Z</time>
      </trkpt>
      <trkpt lat="49.20496" lon="-0.06474">
        <ele>8.9</ele>
        <time>2024-02-04T10:53:38Z</time>
      </trkpt>
      <trkpt lat="49.20502" lon="-0.06483">
        <ele>8.9</ele>
        <time>2024-02-04T10:53:39Z</time>
      </trkpt>
      <trkpt lat="49.20509" lon="-0.06492">
        <ele>8.9</ele>
        <time>2024-02-04T10:53:40Z</time>
      </trkpt>
      <trkpt lat="49.20516" lon="-0.06499">
        <ele>8.9</ele>
        <time>2024-02-04T10:53:41Z</time>
      </trkpt>
      <trkpt lat="49.20523" lon="-0.06505">
        <ele>9</ele>
        <time>2024-02-04T10:53:42Z</time>
      </trkpt>
      <trkpt lat="49.20531" lon="-0.06511">
        <ele>9</ele>
        <time>2024-02-04T10:53:43Z</time>
      </trkpt>
      <trkpt lat="49.20539" lon="-0.06518">
        <ele>9</ele>
        <time>2024-02-04T10:53:44Z</time>
      </trkpt>
      <trkpt lat="49.20546" lon="-0.06524">
        <ele>9</ele>
        <time>2024-02-04T10:53:45Z</time>
      </trkpt>
      <trkpt lat="49.20554" lon="-0.06531">
        <ele>9</ele>
        <time>2024-02-04T10:53:46Z</time>
      </trkpt>
      <trkpt lat="49.20562" lon="-0.06538">
        <ele>9</ele>
        <time>2024-02-04T10:53:47Z</time>
      </trkpt>
      <trkpt lat="49.20569" lon="-0.06546">
        <ele>9.1</ele>
        <time>2024-02-04T10:53:48Z</time>
      </trkpt>
      <trkpt lat="49.20576" lon="-0.06554">
        <ele>9.1</ele>
        <time>2024-02-04T10:53:49Z</time>
      </trkpt>
      <trkpt lat="49.20582" lon="-0.06564">
        <ele>9.1</ele>
        <time>2024-02-04T10:53:50Z</time>
      </trkpt>
      <trkpt lat="49.20588" lon="-0.06574">
        <ele>9.2</ele>
        <time>2024-02-04T10:53:51Z</time>
      </trkpt>
      <trkpt lat="49.20594" lon="-0.06585">
        <ele>9.2</ele>
        <time>2024-02-04T10:53:52Z</time>
      </trkpt>
      <trkpt lat="49.206" lon="-0.06595">
        <ele>9.2</ele>
        <time>2024-02-04T10:53:53Z</time>
      </trkpt>
      <trkpt lat="49.20605" lon="-0.06604">
        <ele>9.2</ele>
        <time>2024-02-04T10:53:54Z</time>
      </trkpt>
      <trkpt lat="49.20612" lon="-0.06612">
        <ele>9.2</ele>
        <time>2024-02-04T10:53:55Z</time>
      </trkpt>
      <trkpt lat="49.20618" lon="-0.06621">
        <ele>9.2</ele>
        <time>2024-02-04T10:53:56Z</time>
      </trkpt>
      <trkpt lat="49.20624" lon="-0.06629">
        <ele>9.1</ele>
        <time>2024-02-04T10:53:57Z</time>
      </trkpt>
      <trkpt lat="49.2063" lon="-0.06639">
        <ele>9.1</ele>
        <time>2024-02-04T10:53:58Z</time>
      </trkpt>
      <trkpt lat="49.20637" lon="-0.06648">
        <ele>9.1</ele>
        <time>2024-02-04T10:53:59Z</time>
      </trkpt>
      <trkpt lat="49.20642" lon="-0.06657">
        <ele>9.1</ele>
        <time>2024-02-04T10:54:00Z</time>
      </trkpt>
      <trkpt lat="49.20649" lon="-0.06666">
        <ele>9</ele>
        <time>2024-02-04T10:54:01Z</time>
      </trkpt>
      <trkpt lat="49.20656" lon="-0.06674">
        <ele>9</ele>
        <time>2024-02-04T10:54:02Z</time>
      </trkpt>
      <trkpt lat="49.20662" lon="-0.06682">
        <ele>9</ele>
        <time>2024-02-04T10:54:03Z</time>
      </trkpt>
      <trkpt lat="49.20669" lon="-0.0669">
        <ele>9</ele>
        <time>2024-02-04T10:54:04Z</time>
      </trkpt>
      <trkpt lat="49.20676" lon="-0.06698">
        <ele>9</ele>
        <time>2024-02-04T10:54:05Z</time>
      </trkpt>
      <trkpt lat="49.20683" lon="-0.06706">
        <ele>9</ele>
        <time>2024-02-04T10:54:06Z</time>
      </trkpt>
      <trkpt lat="49.2069" lon="-0.06713">
        <ele>9</ele>
        <time>2024-02-04T10:54:07Z</time>
      </trkpt>
      <trkpt lat="49.20697" lon="-0.06721">
        <ele>8.9</ele>
        <time>2024-02-04T10:54:08Z</time>
      </trkpt>
      <trkpt lat="49.20704" lon="-0.06729">
        <ele>8.9</ele>
        <time>2024-02-04T10:54:09Z</time>
      </trkpt>
      <trkpt lat="49.20711" lon="-0.06737">
        <ele>8.9</ele>
        <time>2024-02-04T10:54:10Z</time>
      </trkpt>
      <trkpt lat="49.20718" lon="-0.06744">
        <ele>8.9</ele>
        <time>2024-02-04T10:54:11Z</time>
      </trkpt>
      <trkpt lat="49.20724" lon="-0.06752">
        <ele>8.8</ele>
        <time>2024-02-04T10:54:12Z</time>
      </trkpt>
      <trkpt lat="49.20731" lon="-0.0676">
        <ele>8.8</ele>
        <time>2024-02-04T10:54:13Z</time>
      </trkpt>
      <trkpt lat="49.20738" lon="-0.06767">
        <ele>8.8</ele>
        <time>2024-02-04T10:54:14Z</time>
      </trkpt>
      <trkpt lat="49.20745" lon="-0.06775">
        <ele>8.7</ele>
        <time>2024-02-04T10:54:15Z</time>
      </trkpt>
      <trkpt lat="49.20753" lon="-0.06783">
        <ele>8.7</ele>
        <time>2024-02-04T10:54:16Z</time>
      </trkpt>
      <trkpt lat="49.2076" lon="-0.0679">
        <ele>8.7</ele>
        <time>2024-02-04T10:54:17Z</time>
      </trkpt>
      <trkpt lat="49.20767" lon="-0.06798">
        <ele>8.6</ele>
        <time>2024-02-04T10:54:18Z</time>
      </trkpt>
      <trkpt lat="49.20774" lon="-0.06805">
        <ele>8.6</ele>
        <time>2024-02-04T10:54:19Z</time>
      </trkpt>
      <trkpt lat="49.20782" lon="-0.06812">
        <ele>8.5</ele>
        <time>2024-02-04T10:54:20Z</time>
      </trkpt>
      <trkpt lat="49.2079" lon="-0.06819">
        <ele>8.5</ele>
        <time>2024-02-04T10:54:21Z</time>
      </trkpt>
      <trkpt lat="49.20798" lon="-0.06823">
        <ele>8.5</ele>
        <time>2024-02-04T10:54:22Z</time>
      </trkpt>
      <trkpt lat="49.20806" lon="-0.06827">
        <ele>8.4</ele>
        <time>2024-02-04T10:54:23Z</time>
      </trkpt>
      <trkpt lat="49.20815" lon="-0.0683">
        <ele>8.4</ele>
        <time>2024-02-04T10:54:24Z</time>
      </trkpt>
      <trkpt lat="49.20823" lon="-0.06833">
        <ele>8.4</ele>
        <time>2024-02-04T10:54:25Z</time>
      </trkpt>
      <trkpt lat="49.20831" lon="-0.06835">
        <ele>8.3</ele>
        <time>2024-02-04T10:54:26Z</time>
      </trkpt>
      <trkpt lat="49.2084" lon="-0.06837">
        <ele>8.3</ele>
        <time>2024-02-04T10:54:27Z</time>
      </trkpt>
      <trkpt lat="49.20848" lon="-0.06838">
        <ele>8.3</ele>
        <time>2024-02-04T10:54:28Z</time>
      </trkpt>
      <trkpt lat="49.20857" lon="-0.06839">
        <ele>8.2</ele>
        <time>2024-02-04T10:54:29Z</time>
      </trkpt>
      <trkpt lat="49.20865" lon="-0.06841">
        <ele>8.2</ele>
        <time>2024-02-04T10:54:30Z</time>
      </trkpt>
      <trkpt lat="49.20873" lon="-0.06843">
        <ele>8.2</ele>
        <time>2024-02-04T10:54:31Z</time>
      </trkpt>
      <trkpt lat="49.20881" lon="-0.06847">
        <ele>8.2</ele>
        <time>2024-02-04T10:54:32Z</time>
      </trkpt>
      <trkpt lat="49.2089" lon="-0.06851">
        <ele>8.2</ele>
        <time>2024-02-04T10:54:33Z</time>
      </trkpt>
      <trkpt lat="49.20897" lon="-0.06856">
        <ele>8.2</ele>
        <time>2024-02-04T10:54:34Z</time>
      </trkpt>
      <trkpt lat="49.20905" lon="-0.06859">
        <ele>8.2</ele>
        <time>2024-02-04T10:54:35Z</time>
      </trkpt>
      <trkpt lat="49.20914" lon="-0.06862">
        <ele>8.3</ele>
        <time>2024-02-04T10:54:36Z</time>
      </trkpt>
      <trkpt lat="49.20922" lon="-0.06864">
        <ele>8.3</ele>
        <time>2024-02-04T10:54:37Z</time>
      </trkpt>
      <trkpt lat="49.2093" lon="-0.06864">
        <ele>8.3</ele>
        <time>2024-02-04T10:54:38Z</time>
      </trkpt>
      <trkpt lat="49.20939" lon="-0.06864">
        <ele>8.3</ele>
        <time>2024-02-04T10:54:39Z</time>
      </trkpt>
      <trkpt lat="49.20947" lon="-0.06863">
        <ele>8.3</ele>
        <time>2024-02-04T10:54:40Z</time>
      </trkpt>
      <trkpt lat="49.20955" lon="-0.06863">
        <ele>8.3</ele>
        <time>2024-02-04T10:54:41Z</time>
      </trkpt>
      <trkpt lat="49.20963" lon="-0.06862">
        <ele>8.3</ele>
        <time>2024-02-04T10:54:42Z</time>
      </trkpt>
      <trkpt lat="49.20972" lon="-0.06861">
        <ele>8.3</ele>
        <time>2024-02-04T10:54:43Z</time>
      </trkpt>
      <trkpt lat="49.2098" lon="-0.0686">
        <ele>8.3</ele>
        <time>2024-02-04T10:54:44Z</time>
      </trkpt>
      <trkpt lat="49.20988" lon="-0.06859">
        <ele>8.4</ele>
        <time>2024-02-04T10:54:45Z</time>
      </trkpt>
      <trkpt lat="49.20997" lon="-0.06858">
        <ele>8.4</ele>
        <time>2024-02-04T10:54:46Z</time>
      </trkpt>
      <trkpt lat="49.21005" lon="-0.06857">
        <ele>8.5</ele>
        <time>2024-02-04T10:54:47Z</time>
      </trkpt>
      <trkpt lat="49.21014" lon="-0.06857">
        <ele>8.5</ele>
        <time>2024-02-04T10:54:48Z</time>
      </trkpt>
      <trkpt lat="49.21022" lon="-0.06856">
        <ele>8.5</ele>
        <time>2024-02-04T10:54:49Z</time>
      </trkpt>
      <trkpt lat="49.2103" lon="-0.06855">
        <ele>8.6</ele>
        <time>2024-02-04T10:54:50Z</time>
      </trkpt>
      <trkpt lat="49.21039" lon="-0.06854">
        <ele>8.6</ele>
        <time>2024-02-04T10:54:51Z</time>
      </trkpt>
      <trkpt lat="49.21047" lon="-0.06853">
        <ele>8.6</ele>
        <time>2024-02-04T10:54:52Z</time>
      </trkpt>
      <trkpt lat="49.21055" lon="-0.06853">
        <ele>8.6</ele>
        <time>2024-02-04T10:54:53Z</time>
      </trkpt>
      <trkpt lat="49.21063" lon="-0.06853">
        <ele>8.7</ele>
        <time>2024-02-04T10:54:54Z</time>
      </trkpt>
      <trkpt lat="49.21072" lon="-0.06853">
        <ele>8.7</ele>
        <time>2024-02-04T10:54:55Z</time>
      </trkpt>
      <trkpt lat="49.21079" lon="-0.06853">
        <ele>8.7</ele>
        <time>2024-02-04T10:54:56Z</time>
      </trkpt>
      <trkpt lat="49.21088" lon="-0.06854">
        <ele>8.8</ele>
        <time>2024-02-04T10:54:57Z</time>
      </trkpt>
      <trkpt lat="49.21096" lon="-0.06856">
        <ele>8.8</ele>
        <time>2024-02-04T10:54:58Z</time>
      </trkpt>
      <trkpt lat="49.21104" lon="-0.06858">
        <ele>8.9</ele>
        <time>2024-02-04T10:54:59Z</time>
      </trkpt>
      <trkpt lat="49.21112" lon="-0.06859">
        <ele>8.9</ele>
        <time>2024-02-04T10:55:00Z</time>
      </trkpt>
      <trkpt lat="49.21121" lon="-0.06861">
        <ele>8.9</ele>
        <time>2024-02-04T10:55:01Z</time>
      </trkpt>
      <trkpt lat="49.21129" lon="-0.06862">
        <ele>8.9</ele>
        <time>2024-02-04T10:55:02Z</time>
      </trkpt>
      <trkpt lat="49.21136" lon="-0.06864">
        <ele>8.9</ele>
        <time>2024-02-04T10:55:03Z</time>
      </trkpt>
      <trkpt lat="49.21144" lon="-0.06866">
        <ele>8.9</ele>
        <time>2024-02-04T10:55:04Z</time>
      </trkpt>
      <trkpt lat="49.21152" lon="-0.06867">
        <ele>8.9</ele>
        <time>2024-02-04T10:55:05Z</time>
      </trkpt>
      <trkpt lat="49.21161" lon="-0.06868">
        <ele>9</ele>
        <time>2024-02-04T10:55:06Z</time>
      </trkpt>
      <trkpt lat="49.21168" lon="-0.06869">
        <ele>9.1</ele>
        <time>2024-02-04T10:55:07Z</time>
      </trkpt>
      <trkpt lat="49.21176" lon="-0.0687">
        <ele>9.2</ele>
        <time>2024-02-04T10:55:08Z</time>
      </trkpt>
      <trkpt lat="49.21184" lon="-0.06871">
        <ele>9.3</ele>
        <time>2024-02-04T10:55:09Z</time>
      </trkpt>
      <trkpt lat="49.21191" lon="-0.06872">
        <ele>9.4</ele>
        <time>2024-02-04T10:55:10Z</time>
      </trkpt>
      <trkpt lat="49.21199" lon="-0.06873">
        <ele>9.6</ele>
        <time>2024-02-04T10:55:11Z</time>
      </trkpt>
      <trkpt lat="49.21207" lon="-0.06874">
        <ele>9.7</ele>
        <time>2024-02-04T10:55:12Z</time>
      </trkpt>
      <trkpt lat="49.21214" lon="-0.06875">
        <ele>9.8</ele>
        <time>2024-02-04T10:55:13Z</time>
      </trkpt>
      <trkpt lat="49.21222" lon="-0.06876">
        <ele>9.9</ele>
        <time>2024-02-04T10:55:14Z</time>
      </trkpt>
      <trkpt lat="49.21229" lon="-0.06877">
        <ele>10.1</ele>
        <time>2024-02-04T10:55:15Z</time>
      </trkpt>
      <trkpt lat="49.21236" lon="-0.06878">
        <ele>10.2</ele>
        <time>2024-02-04T10:55:16Z</time>
      </trkpt>
      <trkpt lat="49.21243" lon="-0.0688">
        <ele>10.4</ele>
        <time>2024-02-04T10:55:17Z</time>
      </trkpt>
      <trkpt lat="49.2125" lon="-0.06881">
        <ele>10.6</ele>
        <time>2024-02-04T10:55:18Z</time>
      </trkpt>
      <trkpt lat="49.21258" lon="-0.06882">
        <ele>10.8</ele>
        <time>2024-02-04T10:55:19Z</time>
      </trkpt>
      <trkpt lat="49.21265" lon="-0.06882">
        <ele>11</ele>
        <time>2024-02-04T10:55:20Z</time>
      </trkpt>
      <trkpt lat="49.21272" lon="-0.06883">
        <ele>11.3</ele>
        <time>2024-02-04T10:55:21Z</time>
      </trkpt>
      <trkpt lat="49.21279" lon="-0.06884">
        <ele>11.5</ele>
        <time>2024-02-04T10:55:22Z</time>
      </trkpt>
      <trkpt lat="49.21286" lon="-0.06885">
        <ele>11.7</ele>
        <time>2024-02-04T10:55:23Z</time>
      </trkpt>
      <trkpt lat="49.21293" lon="-0.06886">
        <ele>11.9</ele>
        <time>2024-02-04T10:55:24Z</time>
      </trkpt>
      <trkpt lat="49.213" lon="-0.06888">
        <ele>12.1</ele>
        <time>2024-02-04T10:55:25Z</time>
      </trkpt>
      <trkpt lat="49.21307" lon="-0.06889">
        <ele>12.3</ele>
        <time>2024-02-04T10:55:26Z</time>
      </trkpt>
      <trkpt lat="49.21314" lon="-0.0689">
        <ele>12.6</ele>
        <time>2024-02-04T10:55:27Z</time>
      </trkpt>
      <trkpt lat="49.21321" lon="-0.06891">
        <ele>12.8</ele>
        <time>2024-02-04T10:55:28Z</time>
      </trkpt>
      <trkpt lat="49.21328" lon="-0.06892">
        <ele>13.1</ele>
        <time>2024-02-04T10:55:29Z</time>
      </trkpt>
      <trkpt lat="49.21334" lon="-0.06893">
        <ele>13.3</ele>
        <time>2024-02-04T10:55:30Z</time>
      </trkpt>
      <trkpt lat="49.21341" lon="-0.06894">
        <ele>13.6</ele>
        <time>2024-02-04T10:55:31Z</time>
      </trkpt>
      <trkpt lat="49.21347" lon="-0.06895">
        <ele>13.8</ele>
        <time>2024-02-04T10:55:32Z</time>
      </trkpt>
      <trkpt lat="49.21354" lon="-0.06896">
        <ele>13.9</ele>
        <time>2024-02-04T10:55:33Z</time>
      </trkpt>
      <trkpt lat="49.2136" lon="-0.06897">
        <ele>14.1</ele>
        <time>2024-02-04T10:55:34Z</time>
      </trkpt>
      <trkpt lat="49.21367" lon="-0.06898">
        <ele>14.2</ele>
        <time>2024-02-04T10:55:35Z</time>
      </trkpt>
      <trkpt lat="49.21375" lon="-0.06899">
        <ele>14.3</ele>
        <time>2024-02-04T10:55:36Z</time>
      </trkpt>
      <trkpt lat="49.21382" lon="-0.06899">
        <ele>14.4</ele>
        <time>2024-02-04T10:55:37Z</time>
      </trkpt>
      <trkpt lat="49.21389" lon="-0.06899">
        <ele>14.4</ele>
        <time>2024-02-04T10:55:38Z</time>
      </trkpt>
      <trkpt lat="49.21396" lon="-0.06899">
        <ele>14.4</ele>
        <time>2024-02-04T10:55:39Z</time>
      </trkpt>
      <trkpt lat="49.21403" lon="-0.06898">
        <ele>14.3</ele>
        <time>2024-02-04T10:55:40Z</time>
      </trkpt>
      <trkpt lat="49.2141" lon="-0.06896">
        <ele>14.2</ele>
        <time>2024-02-04T10:55:41Z</time>
      </trkpt>
      <trkpt lat="49.21418" lon="-0.06895">
        <ele>14.1</ele>
        <time>2024-02-04T10:55:42Z</time>
      </trkpt>
      <trkpt lat="49.21426" lon="-0.06893">
        <ele>14.1</ele>
        <time>2024-02-04T10:55:43Z</time>
      </trkpt>
      <trkpt lat="49.21433" lon="-0.06891">
        <ele>14</ele>
        <time>2024-02-04T10:55:44Z</time>
      </trkpt>
      <trkpt lat="49.21441" lon="-0.0689">
        <ele>14</ele>
        <time>2024-02-04T10:55:45Z</time>
      </trkpt>
      <trkpt lat="49.21449" lon="-0.06889">
        <ele>13.9</ele>
        <time>2024-02-04T10:55:46Z</time>
      </trkpt>
      <trkpt lat="49.21456" lon="-0.06888">
        <ele>13.9</ele>
        <time>2024-02-04T10:55:47Z</time>
      </trkpt>
      <trkpt lat="49.21465" lon="-0.06887">
        <ele>13.8</ele>
        <time>2024-02-04T10:55:48Z</time>
      </trkpt>
      <trkpt lat="49.21473" lon="-0.06886">
        <ele>13.8</ele>
        <time>2024-02-04T10:55:49Z</time>
      </trkpt>
      <trkpt lat="49.21481" lon="-0.06885">
        <ele>13.8</ele>
        <time>2024-02-04T10:55:50Z</time>
      </trkpt>
      <trkpt lat="49.21489" lon="-0.06884">
        <ele>13.9</ele>
        <time>2024-02-04T10:55:51Z</time>
      </trkpt>
      <trkpt lat="49.21497" lon="-0.06884">
        <ele>14</ele>
        <time>2024-02-04T10:55:52Z</time>
      </trkpt>
      <trkpt lat="49.21504" lon="-0.06883">
        <ele>14.2</ele>
        <time>2024-02-04T10:55:53Z</time>
      </trkpt>
      <trkpt lat="49.21512" lon="-0.06882">
        <ele>14.4</ele>
        <time>2024-02-04T10:55:54Z</time>
      </trkpt>
      <trkpt lat="49.21519" lon="-0.06881">
        <ele>14.5</ele>
        <time>2024-02-04T10:55:55Z</time>
      </trkpt>
      <trkpt lat="49.21527" lon="-0.0688">
        <ele>14.8</ele>
        <time>2024-02-04T10:55:56Z</time>
      </trkpt>
      <trkpt lat="49.21534" lon="-0.06879">
        <ele>15</ele>
        <time>2024-02-04T10:55:57Z</time>
      </trkpt>
      <trkpt lat="49.21541" lon="-0.06879">
        <ele>15.3</ele>
        <time>2024-02-04T10:55:58Z</time>
      </trkpt>
      <trkpt lat="49.21548" lon="-0.06878">
        <ele>15.6</ele>
        <time>2024-02-04T10:55:59Z</time>
      </trkpt>
      <trkpt lat="49.21554" lon="-0.06878">
        <ele>15.9</ele>
        <time>2024-02-04T10:56:00Z</time>
      </trkpt>
      <trkpt lat="49.21561" lon="-0.06877">
        <ele>16.2</ele>
        <time>2024-02-04T10:56:01Z</time>
      </trkpt>
      <trkpt lat="49.21567" lon="-0.06877">
        <ele>16.5</ele>
        <time>2024-02-04T10:56:02Z</time>
      </trkpt>
      <trkpt lat="49.21573" lon="-0.06876">
        <ele>16.8</ele>
        <time>2024-02-04T10:56:03Z</time>
      </trkpt>
      <trkpt lat="49.21579" lon="-0.06875">
        <ele>17.1</ele>
        <time>2024-02-04T10:56:04Z</time>
      </trkpt>
      <trkpt lat="49.21585" lon="-0.06875">
        <ele>17.5</ele>
        <time>2024-02-04T10:56:05Z</time>
      </trkpt>
      <trkpt lat="49.21591" lon="-0.06874">
        <ele>17.9</ele>
        <time>2024-02-04T10:56:06Z</time>
      </trkpt>
      <trkpt lat="49.21597" lon="-0.06873">
        <ele>18.2</ele>
        <time>2024-02-04T10:56:07Z</time>
      </trkpt>
      <trkpt lat="49.21603" lon="-0.06873">
        <ele>18.5</ele>
        <time>2024-02-04T10:56:08Z</time>
      </trkpt>
      <trkpt lat="49.21609" lon="-0.06871">
        <ele>18.9</ele>
        <time>2024-02-04T10:56:09Z</time>
      </trkpt>
      <trkpt lat="49.21614" lon="-0.0687">
        <ele>19.2</ele>
        <time>2024-02-04T10:56:10Z</time>
      </trkpt>
      <trkpt lat="49.21619" lon="-0.06868">
        <ele>19.6</ele>
        <time>2024-02-04T10:56:11Z</time>
      </trkpt>
      <trkpt lat="49.21623" lon="-0.06865">
        <ele>20</ele>
        <time>2024-02-04T10:56:12Z</time>
      </trkpt>
      <trkpt lat="49.21628" lon="-0.06861">
        <ele>20.4</ele>
        <time>2024-02-04T10:56:13Z</time>
      </trkpt>
      <trkpt lat="49.21632" lon="-0.06857">
        <ele>20.8</ele>
        <time>2024-02-04T10:56:14Z</time>
      </trkpt>
      <trkpt lat="49.21636" lon="-0.06853">
        <ele>21.2</ele>
        <time>2024-02-04T10:56:15Z</time>
      </trkpt>
      <trkpt lat="49.2164" lon="-0.06849">
        <ele>21.6</ele>
        <time>2024-02-04T10:56:16Z</time>
      </trkpt>
      <trkpt lat="49.21643" lon="-0.06844">
        <ele>22</ele>
        <time>2024-02-04T10:56:17Z</time>
      </trkpt>
      <trkpt lat="49.21647" lon="-0.06839">
        <ele>22.3</ele>
        <time>2024-02-04T10:56:18Z</time>
      </trkpt>
      <trkpt lat="49.21651" lon="-0.06834">
        <ele>22.7</ele>
        <time>2024-02-04T10:56:19Z</time>
      </trkpt>
      <trkpt lat="49.21654" lon="-0.06829">
        <ele>23.1</ele>
        <time>2024-02-04T10:56:20Z</time>
      </trkpt>
      <trkpt lat="49.21657" lon="-0.06823">
        <ele>23.5</ele>
        <time>2024-02-04T10:56:21Z</time>
      </trkpt>
      <trkpt lat="49.2166" lon="-0.06817">
        <ele>24</ele>
        <time>2024-02-04T10:56:22Z</time>
      </trkpt>
      <trkpt lat="49.21662" lon="-0.0681">
        <ele>24.4</ele>
        <time>2024-02-04T10:56:23Z</time>
      </trkpt>
      <trkpt lat="49.21664" lon="-0.06804">
        <ele>24.8</ele>
        <time>2024-02-04T10:56:24Z</time>
      </trkpt>
      <trkpt lat="49.21666" lon="-0.06797">
        <ele>25.3</ele>
        <time>2024-02-04T10:56:25Z</time>
      </trkpt>
      <trkpt lat="49.21668" lon="-0.0679">
        <ele>25.7</ele>
        <time>2024-02-04T10:56:26Z</time>
      </trkpt>
      <trkpt lat="49.2167" lon="-0.06783">
        <ele>26.1</ele>
        <time>2024-02-04T10:56:27Z</time>
      </trkpt>
      <trkpt lat="49.21673" lon="-0.06777">
        <ele>26.5</ele>
        <time>2024-02-04T10:56:28Z</time>
      </trkpt>
      <trkpt lat="49.21678" lon="-0.06773">
        <ele>26.9</ele>
        <time>2024-02-04T10:56:29Z</time>
      </trkpt>
      <trkpt lat="49.21682" lon="-0.0677">
        <ele>27.3</ele>
        <time>2024-02-04T10:56:30Z</time>
      </trkpt>
      <trkpt lat="49.21688" lon="-0.06767">
        <ele>27.7</ele>
        <time>2024-02-04T10:56:31Z</time>
      </trkpt>
      <trkpt lat="49.21693" lon="-0.06766">
        <ele>28</ele>
        <time>2024-02-04T10:56:32Z</time>
      </trkpt>
      <trkpt lat="49.21699" lon="-0.06765">
        <ele>28.3</ele>
        <time>2024-02-04T10:56:33Z</time>
      </trkpt>
      <trkpt lat="49.21705" lon="-0.06765">
        <ele>28.6</ele>
        <time>2024-02-04T10:56:34Z</time>
      </trkpt>
      <trkpt lat="49.21711" lon="-0.06765">
        <ele>28.8</ele>
        <time>2024-02-04T10:56:35Z</time>
      </trkpt>
      <trkpt lat="49.21717" lon="-0.06766">
        <ele>28.9</ele>
        <time>2024-02-04T10:56:36Z</time>
      </trkpt>
      <trkpt lat="49.21722" lon="-0.06767">
        <ele>28.9</ele>
        <time>2024-02-04T10:56:37Z</time>
      </trkpt>
      <trkpt lat="49.21729" lon="-0.06768">
        <ele>28.9</ele>
        <time>2024-02-04T10:56:38Z</time>
      </trkpt>
      <trkpt lat="49.21735" lon="-0.06768">
        <ele>28.9</ele>
        <time>2024-02-04T10:56:39Z</time>
      </trkpt>
      <trkpt lat="49.21742" lon="-0.06769">
        <ele>28.9</ele>
        <time>2024-02-04T10:56:40Z</time>
      </trkpt>
      <trkpt lat="49.21749" lon="-0.06769">
        <ele>28.9</ele>
        <time>2024-02-04T10:56:41Z</time>
      </trkpt>
      <trkpt lat="49.21756" lon="-0.06769">
        <ele>28.9</ele>
        <time>2024-02-04T10:56:42Z</time>
      </trkpt>
      <trkpt lat="49.21762" lon="-0.0677">
        <ele>28.9</ele>
        <time>2024-02-04T10:56:43Z</time>
      </trkpt>
      <trkpt lat="49.21769" lon="-0.0677">
        <ele>28.8</ele>
        <time>2024-02-04T10:56:44Z</time>
      </trkpt>
      <trkpt lat="49.21776" lon="-0.06771">
        <ele>28.7</ele>
        <time>2024-02-04T10:56:45Z</time>
      </trkpt>
      <trkpt lat="49.21783" lon="-0.06771">
        <ele>28.6</ele>
        <time>2024-02-04T10:56:46Z</time>
      </trkpt>
      <trkpt lat="49.2179" lon="-0.06772">
        <ele>28.5</ele>
        <time>2024-02-04T10:56:47Z</time>
      </trkpt>
      <trkpt lat="49.21797" lon="-0.06772">
        <ele>28.4</ele>
        <time>2024-02-04T10:56:48Z</time>
      </trkpt>
      <trkpt lat="49.21804" lon="-0.06772">
        <ele>28.3</ele>
        <time>2024-02-04T10:56:49Z</time>
      </trkpt>
      <trkpt lat="49.21811" lon="-0.06773">
        <ele>28.2</ele>
        <time>2024-02-04T10:56:50Z</time>
      </trkpt>
      <trkpt lat="49.21818" lon="-0.06775">
        <ele>28.1</ele>
        <time>2024-02-04T10:56:51Z</time>
      </trkpt>
      <trkpt lat="49.21825" lon="-0.06779">
        <ele>28</ele>
        <time>2024-02-04T10:56:52Z</time>
      </trkpt>
      <trkpt lat="49.21832" lon="-0.06784">
        <ele>27.8</ele>
        <time>2024-02-04T10:56:53Z</time>
      </trkpt>
      <trkpt lat="49.21839" lon="-0.0679">
        <ele>27.6</ele>
        <time>2024-02-04T10:56:54Z</time>
      </trkpt>
      <trkpt lat="49.21845" lon="-0.06798">
        <ele>27.4</ele>
        <time>2024-02-04T10:56:55Z</time>
      </trkpt>
      <trkpt lat="49.21851" lon="-0.06807">
        <ele>27.2</ele>
        <time>2024-02-04T10:56:56Z</time>
      </trkpt>
      <trkpt lat="49.21857" lon="-0.06816">
        <ele>26.9</ele>
        <time>2024-02-04T10:56:57Z</time>
      </trkpt>
      <trkpt lat="49.21863" lon="-0.06825">
        <ele>26.6</ele>
        <time>2024-02-04T10:56:58Z</time>
      </trkpt>
      <trkpt lat="49.21869" lon="-0.06834">
        <ele>26.3</ele>
        <time>2024-02-04T10:56:59Z</time>
      </trkpt>
      <trkpt lat="49.21875" lon="-0.06844">
        <ele>26</ele>
        <time>2024-02-04T10:57:00Z</time>
      </trkpt>
      <trkpt lat="49.21881" lon="-0.06853">
        <ele>25.7</ele>
        <time>2024-02-04T10:57:01Z</time>
      </trkpt>
      <trkpt lat="49.21887" lon="-0.06863">
        <ele>25.3</ele>
        <time>2024-02-04T10:57:02Z</time>
      </trkpt>
      <trkpt lat="49.21895" lon="-0.06871">
        <ele>25</ele>
        <time>2024-02-04T10:57:03Z</time>
      </trkpt>
      <trkpt lat="49.21902" lon="-0.06877">
        <ele>24.6</ele>
        <time>2024-02-04T10:57:04Z</time>
      </trkpt>
      <trkpt lat="49.2191" lon="-0.06883">
        <ele>24.2</ele>
        <time>2024-02-04T10:57:05Z</time>
      </trkpt>
      <trkpt lat="49.21919" lon="-0.06887">
        <ele>24.1</ele>
        <time>2024-02-04T10:57:06Z</time>
      </trkpt>
      <trkpt lat="49.21928" lon="-0.06889">
        <ele>23.6</ele>
        <time>2024-02-04T10:57:07Z</time>
      </trkpt>
      <trkpt lat="49.21937" lon="-0.0689">
        <ele>23.1</ele>
        <time>2024-02-04T10:57:08Z</time>
      </trkpt>
      <trkpt lat="49.21947" lon="-0.06889">
        <ele>22.6</ele>
        <time>2024-02-04T10:57:09Z</time>
      </trkpt>
      <trkpt lat="49.21957" lon="-0.06888">
        <ele>22.1</ele>
        <time>2024-02-04T10:57:10Z</time>
      </trkpt>
      <trkpt lat="49.21967" lon="-0.06886">
        <ele>21.5</ele>
        <time>2024-02-04T10:57:11Z</time>
      </trkpt>
      <trkpt lat="49.21976" lon="-0.06884">
        <ele>21</ele>
        <time>2024-02-04T10:57:12Z</time>
      </trkpt>
      <trkpt lat="49.21986" lon="-0.06882">
        <ele>20.5</ele>
        <time>2024-02-04T10:57:13Z</time>
      </trkpt>
      <trkpt lat="49.21996" lon="-0.06881">
        <ele>20.1</ele>
        <time>2024-02-04T10:57:14Z</time>
      </trkpt>
      <trkpt lat="49.22006" lon="-0.0688">
        <ele>19.5</ele>
        <time>2024-02-04T10:57:15Z</time>
      </trkpt>
      <trkpt lat="49.22017" lon="-0.06878">
        <ele>19</ele>
        <time>2024-02-04T10:57:16Z</time>
      </trkpt>
      <trkpt lat="49.22027" lon="-0.06875">
        <ele>18.5</ele>
        <time>2024-02-04T10:57:17Z</time>
      </trkpt>
      <trkpt lat="49.22037" lon="-0.06873">
        <ele>18</ele>
        <time>2024-02-04T10:57:18Z</time>
      </trkpt>
      <trkpt lat="49.22048" lon="-0.06871">
        <ele>17.5</ele>
        <time>2024-02-04T10:57:19Z</time>
      </trkpt>
      <trkpt lat="49.22058" lon="-0.06868">
        <ele>17</ele>
        <time>2024-02-04T10:57:20Z</time>
      </trkpt>
      <trkpt lat="49.22069" lon="-0.06866">
        <ele>16.5</ele>
        <time>2024-02-04T10:57:21Z</time>
      </trkpt>
      <trkpt lat="49.2208" lon="-0.06864">
        <ele>16</ele>
        <time>2024-02-04T10:57:22Z</time>
      </trkpt>
      <trkpt lat="49.22091" lon="-0.06862">
        <ele>15.6</ele>
        <time>2024-02-04T10:57:23Z</time>
      </trkpt>
      <trkpt lat="49.22101" lon="-0.06861">
        <ele>15.1</ele>
        <time>2024-02-04T10:57:24Z</time>
      </trkpt>
      <trkpt lat="49.22112" lon="-0.06859">
        <ele>14.7</ele>
        <time>2024-02-04T10:57:25Z</time>
      </trkpt>
      <trkpt lat="49.22123" lon="-0.06857">
        <ele>14.2</ele>
        <time>2024-02-04T10:57:26Z</time>
      </trkpt>
      <trkpt lat="49.22134" lon="-0.06855">
        <ele>13.8</ele>
        <time>2024-02-04T10:57:27Z</time>
      </trkpt>
      <trkpt lat="49.22144" lon="-0.06853">
        <ele>13.4</ele>
        <time>2024-02-04T10:57:28Z</time>
      </trkpt>
      <trkpt lat="49.22155" lon="-0.06851">
        <ele>13</ele>
        <time>2024-02-04T10:57:29Z</time>
      </trkpt>
      <trkpt lat="49.22166" lon="-0.0685">
        <ele>12.8</ele>
        <time>2024-02-04T10:57:30Z</time>
      </trkpt>
      <trkpt lat="49.22177" lon="-0.06848">
        <ele>12.5</ele>
        <time>2024-02-04T10:57:31Z</time>
      </trkpt>
      <trkpt lat="49.22187" lon="-0.06847">
        <ele>12.4</ele>
        <time>2024-02-04T10:57:32Z</time>
      </trkpt>
      <trkpt lat="49.22197" lon="-0.06846">
        <ele>12.3</ele>
        <time>2024-02-04T10:57:33Z</time>
      </trkpt>
      <trkpt lat="49.22207" lon="-0.06846">
        <ele>12.3</ele>
        <time>2024-02-04T10:57:34Z</time>
      </trkpt>
      <trkpt lat="49.22216" lon="-0.06846">
        <ele>12.3</ele>
        <time>2024-02-04T10:57:36Z</time>
      </trkpt>
      <trkpt lat="49.22234" lon="-0.06846">
        <ele>12.3</ele>
        <time>2024-02-04T10:57:37Z</time>
      </trkpt>
      <trkpt lat="49.22244" lon="-0.06846">
        <ele>12.4</ele>
        <time>2024-02-04T10:57:38Z</time>
      </trkpt>
      <trkpt lat="49.22253" lon="-0.06847">
        <ele>12.5</ele>
        <time>2024-02-04T10:57:39Z</time>
      </trkpt>
      <trkpt lat="49.22262" lon="-0.06847">
        <ele>12.7</ele>
        <time>2024-02-04T10:57:40Z</time>
      </trkpt>
      <trkpt lat="49.22272" lon="-0.06848">
        <ele>12.9</ele>
        <time>2024-02-04T10:57:41Z</time>
      </trkpt>
      <trkpt lat="49.2228" lon="-0.06848">
        <ele>13</ele>
        <time>2024-02-04T10:57:42Z</time>
      </trkpt>
      <trkpt lat="49.22289" lon="-0.06847">
        <ele>13.2</ele>
        <time>2024-02-04T10:57:43Z</time>
      </trkpt>
      <trkpt lat="49.22297" lon="-0.06847">
        <ele>13.4</ele>
        <time>2024-02-04T10:57:44Z</time>
      </trkpt>
      <trkpt lat="49.22306" lon="-0.06847">
        <ele>13.5</ele>
        <time>2024-02-04T10:57:45Z</time>
      </trkpt>
      <trkpt lat="49.22315" lon="-0.06848">
        <ele>13.7</ele>
        <time>2024-02-04T10:57:46Z</time>
      </trkpt>
      <trkpt lat="49.22324" lon="-0.06848">
        <ele>13.9</ele>
        <time>2024-02-04T10:57:47Z</time>
      </trkpt>
      <trkpt lat="49.22332" lon="-0.06848">
        <ele>14</ele>
        <time>2024-02-04T10:57:48Z</time>
      </trkpt>
      <trkpt lat="49.2234" lon="-0.06848">
        <ele>14.2</ele>
        <time>2024-02-04T10:57:49Z</time>
      </trkpt>
      <trkpt lat="49.22348" lon="-0.06848">
        <ele>14.3</ele>
        <time>2024-02-04T10:57:50Z</time>
      </trkpt>
      <trkpt lat="49.22363" lon="-0.06848">
        <ele>14.7</ele>
        <time>2024-02-04T10:57:52Z</time>
      </trkpt>
      <trkpt lat="49.2237" lon="-0.06848">
        <ele>14.8</ele>
        <time>2024-02-04T10:57:53Z</time>
      </trkpt>
      <trkpt lat="49.22377" lon="-0.06849">
        <ele>15</ele>
        <time>2024-02-04T10:57:54Z</time>
      </trkpt>
      <trkpt lat="49.22391" lon="-0.06849">
        <ele>15.3</ele>
        <time>2024-02-04T10:57:56Z</time>
      </trkpt>
      <trkpt lat="49.22397" lon="-0.06848">
        <ele>15.3</ele>
        <time>2024-02-04T10:57:57Z</time>
      </trkpt>
      <trkpt lat="49.22403" lon="-0.06849">
        <ele>15.4</ele>
        <time>2024-02-04T10:57:58Z</time>
      </trkpt>
      <trkpt lat="49.22409" lon="-0.06849">
        <ele>15.5</ele>
        <time>2024-02-04T10:57:59Z</time>
      </trkpt>
      <trkpt lat="49.22414" lon="-0.06849">
        <ele>15.6</ele>
        <time>2024-02-04T10:58:00Z</time>
      </trkpt>
      <trkpt lat="49.2242" lon="-0.06849">
        <ele>15.7</ele>
        <time>2024-02-04T10:58:01Z</time>
      </trkpt>
      <trkpt lat="49.22424" lon="-0.06849">
        <ele>15.8</ele>
        <time>2024-02-04T10:58:02Z</time>
      </trkpt>
      <trkpt lat="49.22429" lon="-0.06848">
        <ele>16</ele>
        <time>2024-02-04T10:58:03Z</time>
      </trkpt>
      <trkpt lat="49.22432" lon="-0.06848">
        <ele>16.1</ele>
        <time>2024-02-04T10:58:04Z</time>
      </trkpt>
      <trkpt lat="49.22435" lon="-0.06848">
        <ele>16.2</ele>
        <time>2024-02-04T10:58:05Z</time>
      </trkpt>
      <trkpt lat="49.22438" lon="-0.06847">
        <ele>16.3</ele>
        <time>2024-02-04T10:58:06Z</time>
      </trkpt>
      <trkpt lat="49.22443" lon="-0.06847">
        <ele>16.5</ele>
        <time>2024-02-04T10:58:08Z</time>
      </trkpt>
      <trkpt lat="49.22446" lon="-0.06846">
        <ele>16.6</ele>
        <time>2024-02-04T10:58:09Z</time>
      </trkpt>
      <trkpt lat="49.22449" lon="-0.06847">
        <ele>16.6</ele>
        <time>2024-02-04T10:58:10Z</time>
      </trkpt>
      <trkpt lat="49.22459" lon="-0.0685">
        <ele>16.5</ele>
        <time>2024-02-04T10:58:12Z</time>
      </trkpt>
      <trkpt lat="49.22464" lon="-0.06852">
        <ele>16.4</ele>
        <time>2024-02-04T10:58:13Z</time>
      </trkpt>
      <trkpt lat="49.2247" lon="-0.06853">
        <ele>16.3</ele>
        <time>2024-02-04T10:58:14Z</time>
      </trkpt>
      <trkpt lat="49.22476" lon="-0.06855">
        <ele>16.3</ele>
        <time>2024-02-04T10:58:15Z</time>
      </trkpt>
      <trkpt lat="49.22481" lon="-0.06858">
        <ele>16.2</ele>
        <time>2024-02-04T10:58:16Z</time>
      </trkpt>
      <trkpt lat="49.22487" lon="-0.06859">
        <ele>16.2</ele>
        <time>2024-02-04T10:58:17Z</time>
      </trkpt>
      <trkpt lat="49.22492" lon="-0.06861">
        <ele>16.2</ele>
        <time>2024-02-04T10:58:18Z</time>
      </trkpt>
      <trkpt lat="49.22497" lon="-0.06862">
        <ele>16.2</ele>
        <time>2024-02-04T10:58:19Z</time>
      </trkpt>
      <trkpt lat="49.22502" lon="-0.06863">
        <ele>16.2</ele>
        <time>2024-02-04T10:58:20Z</time>
      </trkpt>
      <trkpt lat="49.22508" lon="-0.06864">
        <ele>16.3</ele>
        <time>2024-02-04T10:58:21Z</time>
      </trkpt>
      <trkpt lat="49.22513" lon="-0.06865">
        <ele>16.3</ele>
        <time>2024-02-04T10:58:22Z</time>
      </trkpt>
      <trkpt lat="49.22518" lon="-0.06866">
        <ele>16.4</ele>
        <time>2024-02-04T10:58:23Z</time>
      </trkpt>
      <trkpt lat="49.22523" lon="-0.06868">
        <ele>16.5</ele>
        <time>2024-02-04T10:58:24Z</time>
      </trkpt>
      <trkpt lat="49.22529" lon="-0.06869">
        <ele>16.6</ele>
        <time>2024-02-04T10:58:25Z</time>
      </trkpt>
      <trkpt lat="49.22534" lon="-0.06869">
        <ele>16.7</ele>
        <time>2024-02-04T10:58:26Z</time>
      </trkpt>
      <trkpt lat="49.22539" lon="-0.0687">
        <ele>16.8</ele>
        <time>2024-02-04T10:58:27Z</time>
      </trkpt>
      <trkpt lat="49.22544" lon="-0.06871">
        <ele>17</ele>
        <time>2024-02-04T10:58:28Z</time>
      </trkpt>
      <trkpt lat="49.22549" lon="-0.06872">
        <ele>17.1</ele>
        <time>2024-02-04T10:58:29Z</time>
      </trkpt>
      <trkpt lat="49.22553" lon="-0.06873">
        <ele>17.3</ele>
        <time>2024-02-04T10:58:30Z</time>
      </trkpt>
      <trkpt lat="49.22558" lon="-0.06875">
        <ele>17.4</ele>
        <time>2024-02-04T10:58:31Z</time>
      </trkpt>
      <trkpt lat="49.22564" lon="-0.06876">
        <ele>17.6</ele>
        <time>2024-02-04T10:58:32Z</time>
      </trkpt>
      <trkpt lat="49.22568" lon="-0.06878">
        <ele>17.8</ele>
        <time>2024-02-04T10:58:33Z</time>
      </trkpt>
      <trkpt lat="49.22574" lon="-0.0688">
        <ele>18</ele>
        <time>2024-02-04T10:58:34Z</time>
      </trkpt>
      <trkpt lat="49.22579" lon="-0.06881">
        <ele>18.1</ele>
        <time>2024-02-04T10:58:35Z</time>
      </trkpt>
      <trkpt lat="49.22584" lon="-0.06883">
        <ele>18.3</ele>
        <time>2024-02-04T10:58:36Z</time>
      </trkpt>
      <trkpt lat="49.22589" lon="-0.06884">
        <ele>18.5</ele>
        <time>2024-02-04T10:58:37Z</time>
      </trkpt>
      <trkpt lat="49.22594" lon="-0.06885">
        <ele>18.7</ele>
        <time>2024-02-04T10:58:38Z</time>
      </trkpt>
      <trkpt lat="49.22599" lon="-0.06886">
        <ele>18.8</ele>
        <time>2024-02-04T10:58:39Z</time>
      </trkpt>
      <trkpt lat="49.2261" lon="-0.06888">
        <ele>19.2</ele>
        <time>2024-02-04T10:58:41Z</time>
      </trkpt>
      <trkpt lat="49.22615" lon="-0.06889">
        <ele>19.4</ele>
        <time>2024-02-04T10:58:42Z</time>
      </trkpt>
      <trkpt lat="49.2262" lon="-0.06891">
        <ele>19.6</ele>
        <time>2024-02-04T10:58:43Z</time>
      </trkpt>
      <trkpt lat="49.22625" lon="-0.06892">
        <ele>19.8</ele>
        <time>2024-02-04T10:58:44Z</time>
      </trkpt>
      <trkpt lat="49.2263" lon="-0.06893">
        <ele>20</ele>
        <time>2024-02-04T10:58:45Z</time>
      </trkpt>
      <trkpt lat="49.22634" lon="-0.06894">
        <ele>20.2</ele>
        <time>2024-02-04T10:58:46Z</time>
      </trkpt>
      <trkpt lat="49.22639" lon="-0.06896">
        <ele>20.4</ele>
        <time>2024-02-04T10:58:47Z</time>
      </trkpt>
      <trkpt lat="49.22643" lon="-0.06897">
        <ele>20.6</ele>
        <time>2024-02-04T10:58:48Z</time>
      </trkpt>
      <trkpt lat="49.22648" lon="-0.06898">
        <ele>20.8</ele>
        <time>2024-02-04T10:58:49Z</time>
      </trkpt>
      <trkpt lat="49.22653" lon="-0.06899">
        <ele>20.9</ele>
        <time>2024-02-04T10:58:50Z</time>
      </trkpt>
      <trkpt lat="49.22658" lon="-0.069">
        <ele>21.1</ele>
        <time>2024-02-04T10:58:51Z</time>
      </trkpt>
      <trkpt lat="49.22663" lon="-0.06901">
        <ele>21.3</ele>
        <time>2024-02-04T10:58:52Z</time>
      </trkpt>
      <trkpt lat="49.22668" lon="-0.06902">
        <ele>21.5</ele>
        <time>2024-02-04T10:58:53Z</time>
      </trkpt>
      <trkpt lat="49.22674" lon="-0.06903">
        <ele>21.7</ele>
        <time>2024-02-04T10:58:54Z</time>
      </trkpt>
      <trkpt lat="49.22679" lon="-0.06904">
        <ele>21.9</ele>
        <time>2024-02-04T10:58:55Z</time>
      </trkpt>
      <trkpt lat="49.22684" lon="-0.06905">
        <ele>22</ele>
        <time>2024-02-04T10:58:56Z</time>
      </trkpt>
      <trkpt lat="49.2269" lon="-0.06906">
        <ele>22.2</ele>
        <time>2024-02-04T10:58:57Z</time>
      </trkpt>
      <trkpt lat="49.22695" lon="-0.06907">
        <ele>22.3</ele>
        <time>2024-02-04T10:58:58Z</time>
      </trkpt>
      <trkpt lat="49.227" lon="-0.06908">
        <ele>22.5</ele>
        <time>2024-02-04T10:58:59Z</time>
      </trkpt>
      <trkpt lat="49.22706" lon="-0.06909">
        <ele>22.6</ele>
        <time>2024-02-04T10:59:00Z</time>
      </trkpt>
      <trkpt lat="49.22711" lon="-0.0691">
        <ele>22.7</ele>
        <time>2024-02-04T10:59:01Z</time>
      </trkpt>
      <trkpt lat="49.22716" lon="-0.0691">
        <ele>22.8</ele>
        <time>2024-02-04T10:59:02Z</time>
      </trkpt>
      <trkpt lat="49.22721" lon="-0.06911">
        <ele>22.9</ele>
        <time>2024-02-04T10:59:03Z</time>
      </trkpt>
      <trkpt lat="49.22727" lon="-0.06912">
        <ele>23</ele>
        <time>2024-02-04T10:59:04Z</time>
      </trkpt>
      <trkpt lat="49.22733" lon="-0.06913">
        <ele>23.1</ele>
        <time>2024-02-04T10:59:05Z</time>
      </trkpt>
      <trkpt lat="49.22739" lon="-0.06914">
        <ele>23.2</ele>
        <time>2024-02-04T10:59:06Z</time>
      </trkpt>
      <trkpt lat="49.22745" lon="-0.06915">
        <ele>23.3</ele>
        <time>2024-02-04T10:59:07Z</time>
      </trkpt>
      <trkpt lat="49.22751" lon="-0.06916">
        <ele>23.4</ele>
        <time>2024-02-04T10:59:08Z</time>
      </trkpt>
      <trkpt lat="49.22757" lon="-0.06918">
        <ele>23.5</ele>
        <time>2024-02-04T10:59:09Z</time>
      </trkpt>
      <trkpt lat="49.22763" lon="-0.06919">
        <ele>23.5</ele>
        <time>2024-02-04T10:59:10Z</time>
      </trkpt>
      <trkpt lat="49.22769" lon="-0.0692">
        <ele>23.6</ele>
        <time>2024-02-04T10:59:11Z</time>
      </trkpt>
      <trkpt lat="49.22775" lon="-0.06921">
        <ele>23.6</ele>
        <time>2024-02-04T10:59:12Z</time>
      </trkpt>
      <trkpt lat="49.2278" lon="-0.06922">
        <ele>23.6</ele>
        <time>2024-02-04T10:59:13Z</time>
      </trkpt>
      <trkpt lat="49.22786" lon="-0.06923">
        <ele>23.5</ele>
        <time>2024-02-04T10:59:14Z</time>
      </trkpt>
      <trkpt lat="49.22792" lon="-0.06924">
        <ele>23.5</ele>
        <time>2024-02-04T10:59:15Z</time>
      </trkpt>
      <trkpt lat="49.22798" lon="-0.06925">
        <ele>23.4</ele>
        <time>2024-02-04T10:59:16Z</time>
      </trkpt>
      <trkpt lat="49.22804" lon="-0.06927">
        <ele>23.3</ele>
        <time>2024-02-04T10:59:17Z</time>
      </trkpt>
      <trkpt lat="49.22811" lon="-0.06929">
        <ele>23.1</ele>
        <time>2024-02-04T10:59:18Z</time>
      </trkpt>
      <trkpt lat="49.22818" lon="-0.0693">
        <ele>22.9</ele>
        <time>2024-02-04T10:59:19Z</time>
      </trkpt>
      <trkpt lat="49.22824" lon="-0.06932">
        <ele>22.7</ele>
        <time>2024-02-04T10:59:20Z</time>
      </trkpt>
      <trkpt lat="49.22831" lon="-0.06933">
        <ele>22.5</ele>
        <time>2024-02-04T10:59:21Z</time>
      </trkpt>
      <trkpt lat="49.22838" lon="-0.06935">
        <ele>22.2</ele>
        <time>2024-02-04T10:59:22Z</time>
      </trkpt>
      <trkpt lat="49.22845" lon="-0.06936">
        <ele>22</ele>
        <time>2024-02-04T10:59:23Z</time>
      </trkpt>
      <trkpt lat="49.22853" lon="-0.06937">
        <ele>21.7</ele>
        <time>2024-02-04T10:59:24Z</time>
      </trkpt>
      <trkpt lat="49.22861" lon="-0.06938">
        <ele>21.4</ele>
        <time>2024-02-04T10:59:25Z</time>
      </trkpt>
      <trkpt lat="49.22869" lon="-0.06937">
        <ele>21.1</ele>
        <time>2024-02-04T10:59:26Z</time>
      </trkpt>
      <trkpt lat="49.22877" lon="-0.06935">
        <ele>20.8</ele>
        <time>2024-02-04T10:59:27Z</time>
      </trkpt>
      <trkpt lat="49.22884" lon="-0.06932">
        <ele>20.6</ele>
        <time>2024-02-04T10:59:28Z</time>
      </trkpt>
      <trkpt lat="49.22891" lon="-0.06928">
        <ele>20.3</ele>
        <time>2024-02-04T10:59:29Z</time>
      </trkpt>
      <trkpt lat="49.22899" lon="-0.06922">
        <ele>20</ele>
        <time>2024-02-04T10:59:30Z</time>
      </trkpt>
      <trkpt lat="49.22905" lon="-0.06915">
        <ele>19.7</ele>
        <time>2024-02-04T10:59:31Z</time>
      </trkpt>
      <trkpt lat="49.22911" lon="-0.06906">
        <ele>19.5</ele>
        <time>2024-02-04T10:59:32Z</time>
      </trkpt>
      <trkpt lat="49.22915" lon="-0.06896">
        <ele>19.3</ele>
        <time>2024-02-04T10:59:33Z</time>
      </trkpt>
      <trkpt lat="49.2292" lon="-0.06886">
        <ele>19.1</ele>
        <time>2024-02-04T10:59:34Z</time>
      </trkpt>
      <trkpt lat="49.22924" lon="-0.06875">
        <ele>18.9</ele>
        <time>2024-02-04T10:59:35Z</time>
      </trkpt>
      <trkpt lat="49.22927" lon="-0.06863">
        <ele>18.7</ele>
        <time>2024-02-04T10:59:36Z</time>
      </trkpt>
      <trkpt lat="49.2293" lon="-0.06852">
        <ele>18.5</ele>
        <time>2024-02-04T10:59:37Z</time>
      </trkpt>
      <trkpt lat="49.22933" lon="-0.0684">
        <ele>18.3</ele>
        <time>2024-02-04T10:59:38Z</time>
      </trkpt>
      <trkpt lat="49.22937" lon="-0.06827">
        <ele>18</ele>
        <time>2024-02-04T10:59:39Z</time>
      </trkpt>
      <trkpt lat="49.22941" lon="-0.06816">
        <ele>17.8</ele>
        <time>2024-02-04T10:59:40Z</time>
      </trkpt>
      <trkpt lat="49.22946" lon="-0.06806">
        <ele>17.6</ele>
        <time>2024-02-04T10:59:41Z</time>
      </trkpt>
      <trkpt lat="49.22951" lon="-0.06796">
        <ele>17.3</ele>
        <time>2024-02-04T10:59:42Z</time>
      </trkpt>
      <trkpt lat="49.22957" lon="-0.06787">
        <ele>17.1</ele>
        <time>2024-02-04T10:59:43Z</time>
      </trkpt>
      <trkpt lat="49.22964" lon="-0.0678">
        <ele>16.8</ele>
        <time>2024-02-04T10:59:44Z</time>
      </trkpt>
      <trkpt lat="49.22972" lon="-0.06772">
        <ele>16.5</ele>
        <time>2024-02-04T10:59:45Z</time>
      </trkpt>
      <trkpt lat="49.22979" lon="-0.06765">
        <ele>16.3</ele>
        <time>2024-02-04T10:59:46Z</time>
      </trkpt>
      <trkpt lat="49.22987" lon="-0.06759">
        <ele>16</ele>
        <time>2024-02-04T10:59:47Z</time>
      </trkpt>
      <trkpt lat="49.22994" lon="-0.06755">
        <ele>15.8</ele>
        <time>2024-02-04T10:59:48Z</time>
      </trkpt>
      <trkpt lat="49.23003" lon="-0.06751">
        <ele>15.5</ele>
        <time>2024-02-04T10:59:49Z</time>
      </trkpt>
      <trkpt lat="49.23011" lon="-0.06748">
        <ele>15.2</ele>
        <time>2024-02-04T10:59:50Z</time>
      </trkpt>
      <trkpt lat="49.2302" lon="-0.06748">
        <ele>15</ele>
        <time>2024-02-04T10:59:51Z</time>
      </trkpt>
      <trkpt lat="49.23029" lon="-0.06749">
        <ele>14.7</ele>
        <time>2024-02-04T10:59:52Z</time>
      </trkpt>
      <trkpt lat="49.23038" lon="-0.06752">
        <ele>14.4</ele>
        <time>2024-02-04T10:59:53Z</time>
      </trkpt>
      <trkpt lat="49.23047" lon="-0.06754">
        <ele>14.1</ele>
        <time>2024-02-04T10:59:54Z</time>
      </trkpt>
      <trkpt lat="49.23055" lon="-0.06758">
        <ele>13.8</ele>
        <time>2024-02-04T10:59:55Z</time>
      </trkpt>
      <trkpt lat="49.23064" lon="-0.06762">
        <ele>13.5</ele>
        <time>2024-02-04T10:59:56Z</time>
      </trkpt>
      <trkpt lat="49.23073" lon="-0.06766">
        <ele>13.2</ele>
        <time>2024-02-04T10:59:57Z</time>
      </trkpt>
      <trkpt lat="49.23082" lon="-0.06771">
        <ele>12.9</ele>
        <time>2024-02-04T10:59:58Z</time>
      </trkpt>
      <trkpt lat="49.23091" lon="-0.06775">
        <ele>12.6</ele>
        <time>2024-02-04T10:59:59Z</time>
      </trkpt>
      <trkpt lat="49.23099" lon="-0.0678">
        <ele>12.3</ele>
        <time>2024-02-04T11:00:00Z</time>
      </trkpt>
      <trkpt lat="49.23108" lon="-0.06784">
        <ele>12</ele>
        <time>2024-02-04T11:00:01Z</time>
      </trkpt>
      <trkpt lat="49.23117" lon="-0.06789">
        <ele>11.9</ele>
        <time>2024-02-04T11:00:02Z</time>
      </trkpt>
      <trkpt lat="49.23126" lon="-0.06793">
        <ele>11.8</ele>
        <time>2024-02-04T11:00:03Z</time>
      </trkpt>
      <trkpt lat="49.23135" lon="-0.06797">
        <ele>11.7</ele>
        <time>2024-02-04T11:00:04Z</time>
      </trkpt>
      <trkpt lat="49.23143" lon="-0.068">
        <ele>11.7</ele>
        <time>2024-02-04T11:00:05Z</time>
      </trkpt>
      <trkpt lat="49.23151" lon="-0.06803">
        <ele>11.6</ele>
        <time>2024-02-04T11:00:06Z</time>
      </trkpt>
      <trkpt lat="49.23159" lon="-0.06807">
        <ele>11.5</ele>
        <time>2024-02-04T11:00:07Z</time>
      </trkpt>
      <trkpt lat="49.23166" lon="-0.06812">
        <ele>11.4</ele>
        <time>2024-02-04T11:00:08Z</time>
      </trkpt>
      <trkpt lat="49.23172" lon="-0.0682">
        <ele>11.4</ele>
        <time>2024-02-04T11:00:09Z</time>
      </trkpt>
      <trkpt lat="49.23181" lon="-0.06821">
        <ele>11.4</ele>
        <time>2024-02-04T11:00:10Z</time>
      </trkpt>
      <trkpt lat="49.23188" lon="-0.06824">
        <ele>11.4</ele>
        <time>2024-02-04T11:00:11Z</time>
      </trkpt>
      <trkpt lat="49.23196" lon="-0.06828">
        <ele>11.4</ele>
        <time>2024-02-04T11:00:12Z</time>
      </trkpt>
      <trkpt lat="49.23204" lon="-0.06832">
        <ele>11.4</ele>
        <time>2024-02-04T11:00:13Z</time>
      </trkpt>
      <trkpt lat="49.23212" lon="-0.06836">
        <ele>11.3</ele>
        <time>2024-02-04T11:00:14Z</time>
      </trkpt>
      <trkpt lat="49.23219" lon="-0.06839">
        <ele>11.3</ele>
        <time>2024-02-04T11:00:15Z</time>
      </trkpt>
      <trkpt lat="49.23227" lon="-0.06843">
        <ele>11.2</ele>
        <time>2024-02-04T11:00:16Z</time>
      </trkpt>
      <trkpt lat="49.23235" lon="-0.06846">
        <ele>11.2</ele>
        <time>2024-02-04T11:00:17Z</time>
      </trkpt>
      <trkpt lat="49.23242" lon="-0.0685">
        <ele>11.2</ele>
        <time>2024-02-04T11:00:18Z</time>
      </trkpt>
      <trkpt lat="49.2325" lon="-0.06853">
        <ele>11.1</ele>
        <time>2024-02-04T11:00:19Z</time>
      </trkpt>
      <trkpt lat="49.23257" lon="-0.06857">
        <ele>11.1</ele>
        <time>2024-02-04T11:00:20Z</time>
      </trkpt>
      <trkpt lat="49.23264" lon="-0.06861">
        <ele>11</ele>
        <time>2024-02-04T11:00:21Z</time>
      </trkpt>
      <trkpt lat="49.23272" lon="-0.06865">
        <ele>10.9</ele>
        <time>2024-02-04T11:00:22Z</time>
      </trkpt>
      <trkpt lat="49.2328" lon="-0.06869">
        <ele>10.9</ele>
        <time>2024-02-04T11:00:23Z</time>
      </trkpt>
      <trkpt lat="49.23287" lon="-0.06873">
        <ele>10.8</ele>
        <time>2024-02-04T11:00:24Z</time>
      </trkpt>
      <trkpt lat="49.23295" lon="-0.06878">
        <ele>10.7</ele>
        <time>2024-02-04T11:00:25Z</time>
      </trkpt>
      <trkpt lat="49.23303" lon="-0.06882">
        <ele>10.6</ele>
        <time>2024-02-04T11:00:26Z</time>
      </trkpt>
      <trkpt lat="49.2331" lon="-0.06887">
        <ele>10.5</ele>
        <time>2024-02-04T11:00:27Z</time>
      </trkpt>
      <trkpt lat="49.23318" lon="-0.06891">
        <ele>10.4</ele>
        <time>2024-02-04T11:00:28Z</time>
      </trkpt>
      <trkpt lat="49.23326" lon="-0.06895">
        <ele>10.2</ele>
        <time>2024-02-04T11:00:29Z</time>
      </trkpt>
      <trkpt lat="49.23334" lon="-0.06899">
        <ele>10.1</ele>
        <time>2024-02-04T11:00:30Z</time>
      </trkpt>
      <trkpt lat="49.23341" lon="-0.06903">
        <ele>9.9</ele>
        <time>2024-02-04T11:00:31Z</time>
      </trkpt>
      <trkpt lat="49.23349" lon="-0.06908">
        <ele>9.8</ele>
        <time>2024-02-04T11:00:32Z</time>
      </trkpt>
      <trkpt lat="49.23357" lon="-0.06912">
        <ele>9.6</ele>
        <time>2024-02-04T11:00:33Z</time>
      </trkpt>
      <trkpt lat="49.23366" lon="-0.06917">
        <ele>9.4</ele>
        <time>2024-02-04T11:00:34Z</time>
      </trkpt>
      <trkpt lat="49.23374" lon="-0.06922">
        <ele>9.2</ele>
        <time>2024-02-04T11:00:35Z</time>
      </trkpt>
      <trkpt lat="49.23382" lon="-0.06927">
        <ele>9</ele>
        <time>2024-02-04T11:00:36Z</time>
      </trkpt>
      <trkpt lat="49.2339" lon="-0.06931">
        <ele>8.9</ele>
        <time>2024-02-04T11:00:37Z</time>
      </trkpt>
      <trkpt lat="49.23398" lon="-0.06936">
        <ele>8.7</ele>
        <time>2024-02-04T11:00:38Z</time>
      </trkpt>
      <trkpt lat="49.23407" lon="-0.06941">
        <ele>8.5</ele>
        <time>2024-02-04T11:00:39Z</time>
      </trkpt>
      <trkpt lat="49.23415" lon="-0.06945">
        <ele>8.4</ele>
        <time>2024-02-04T11:00:40Z</time>
      </trkpt>
      <trkpt lat="49.23423" lon="-0.0695">
        <ele>8.2</ele>
        <time>2024-02-04T11:00:41Z</time>
      </trkpt>
      <trkpt lat="49.2344" lon="-0.06959">
        <ele>8</ele>
        <time>2024-02-04T11:00:43Z</time>
      </trkpt>
      <trkpt lat="49.23449" lon="-0.06964">
        <ele>7.8</ele>
        <time>2024-02-04T11:00:44Z</time>
      </trkpt>
      <trkpt lat="49.23458" lon="-0.06969">
        <ele>7.7</ele>
        <time>2024-02-04T11:00:45Z</time>
      </trkpt>
      <trkpt lat="49.23466" lon="-0.06974">
        <ele>7.6</ele>
        <time>2024-02-04T11:00:46Z</time>
      </trkpt>
      <trkpt lat="49.23475" lon="-0.06979">
        <ele>7.6</ele>
        <time>2024-02-04T11:00:47Z</time>
      </trkpt>
      <trkpt lat="49.23483" lon="-0.06984">
        <ele>7.5</ele>
        <time>2024-02-04T11:00:48Z</time>
      </trkpt>
      <trkpt lat="49.23491" lon="-0.0699">
        <ele>7.5</ele>
        <time>2024-02-04T11:00:49Z</time>
      </trkpt>
      <trkpt lat="49.23499" lon="-0.06995">
        <ele>7.5</ele>
        <time>2024-02-04T11:00:50Z</time>
      </trkpt>
      <trkpt lat="49.23507" lon="-0.07">
        <ele>7.5</ele>
        <time>2024-02-04T11:00:51Z</time>
      </trkpt>
      <trkpt lat="49.23515" lon="-0.07006">
        <ele>7.5</ele>
        <time>2024-02-04T11:00:52Z</time>
      </trkpt>
      <trkpt lat="49.23522" lon="-0.0701">
        <ele>7.5</ele>
        <time>2024-02-04T11:00:53Z</time>
      </trkpt>
      <trkpt lat="49.2353" lon="-0.07015">
        <ele>7.4</ele>
        <time>2024-02-04T11:00:54Z</time>
      </trkpt>
      <trkpt lat="49.23538" lon="-0.07019">
        <ele>7.4</ele>
        <time>2024-02-04T11:00:55Z</time>
      </trkpt>
      <trkpt lat="49.23546" lon="-0.07024">
        <ele>7.4</ele>
        <time>2024-02-04T11:00:56Z</time>
      </trkpt>
      <trkpt lat="49.23561" lon="-0.07034">
        <ele>7.4</ele>
        <time>2024-02-04T11:00:58Z</time>
      </trkpt>
      <trkpt lat="49.23569" lon="-0.07039">
        <ele>7.4</ele>
        <time>2024-02-04T11:00:59Z</time>
      </trkpt>
      <trkpt lat="49.23576" lon="-0.07044">
        <ele>7.4</ele>
        <time>2024-02-04T11:01:00Z</time>
      </trkpt>
      <trkpt lat="49.23584" lon="-0.07049">
        <ele>7.4</ele>
        <time>2024-02-04T11:01:01Z</time>
      </trkpt>
      <trkpt lat="49.23592" lon="-0.07054">
        <ele>7.4</ele>
        <time>2024-02-04T11:01:02Z</time>
      </trkpt>
      <trkpt lat="49.236" lon="-0.07059">
        <ele>7.4</ele>
        <time>2024-02-04T11:01:03Z</time>
      </trkpt>
      <trkpt lat="49.23608" lon="-0.07065">
        <ele>7.4</ele>
        <time>2024-02-04T11:01:04Z</time>
      </trkpt>
      <trkpt lat="49.23615" lon="-0.0707">
        <ele>7.4</ele>
        <time>2024-02-04T11:01:05Z</time>
      </trkpt>
      <trkpt lat="49.23623" lon="-0.07076">
        <ele>7.4</ele>
        <time>2024-02-04T11:01:06Z</time>
      </trkpt>
      <trkpt lat="49.2363" lon="-0.07083">
        <ele>7.4</ele>
        <time>2024-02-04T11:01:07Z</time>
      </trkpt>
      <trkpt lat="49.23637" lon="-0.0709">
        <ele>7.4</ele>
        <time>2024-02-04T11:01:08Z</time>
      </trkpt>
      <trkpt lat="49.23644" lon="-0.07098">
        <ele>7.4</ele>
        <time>2024-02-04T11:01:09Z</time>
      </trkpt>
      <trkpt lat="49.23651" lon="-0.07106">
        <ele>7.4</ele>
        <time>2024-02-04T11:01:10Z</time>
      </trkpt>
      <trkpt lat="49.23657" lon="-0.07115">
        <ele>7.4</ele>
        <time>2024-02-04T11:01:11Z</time>
      </trkpt>
      <trkpt lat="49.23662" lon="-0.07123">
        <ele>7.4</ele>
        <time>2024-02-04T11:01:12Z</time>
      </trkpt>
      <trkpt lat="49.23668" lon="-0.07133">
        <ele>7.5</ele>
        <time>2024-02-04T11:01:13Z</time>
      </trkpt>
      <trkpt lat="49.23674" lon="-0.07142">
        <ele>7.5</ele>
        <time>2024-02-04T11:01:14Z</time>
      </trkpt>
      <trkpt lat="49.23679" lon="-0.07153">
        <ele>7.5</ele>
        <time>2024-02-04T11:01:15Z</time>
      </trkpt>
      <trkpt lat="49.23683" lon="-0.07163">
        <ele>7.5</ele>
        <time>2024-02-04T11:01:16Z</time>
      </trkpt>
      <trkpt lat="49.23686" lon="-0.07174">
        <ele>7.5</ele>
        <time>2024-02-04T11:01:17Z</time>
      </trkpt>
      <trkpt lat="49.23688" lon="-0.07185">
        <ele>7.5</ele>
        <time>2024-02-04T11:01:18Z</time>
      </trkpt>
      <trkpt lat="49.23691" lon="-0.07197">
        <ele>7.5</ele>
        <time>2024-02-04T11:01:19Z</time>
      </trkpt>
      <trkpt lat="49.23693" lon="-0.07209">
        <ele>7.5</ele>
        <time>2024-02-04T11:01:20Z</time>
      </trkpt>
      <trkpt lat="49.23695" lon="-0.07221">
        <ele>7.5</ele>
        <time>2024-02-04T11:01:21Z</time>
      </trkpt>
      <trkpt lat="49.23697" lon="-0.07233">
        <ele>7.5</ele>
        <time>2024-02-04T11:01:22Z</time>
      </trkpt>
      <trkpt lat="49.23699" lon="-0.07245">
        <ele>7.5</ele>
        <time>2024-02-04T11:01:23Z</time>
      </trkpt>
      <trkpt lat="49.23699" lon="-0.07258">
        <ele>7.5</ele>
        <time>2024-02-04T11:01:24Z</time>
      </trkpt>
      <trkpt lat="49.237" lon="-0.0727">
        <ele>7.4</ele>
        <time>2024-02-04T11:01:25Z</time>
      </trkpt>
      <trkpt lat="49.23701" lon="-0.07283">
        <ele>7.4</ele>
        <time>2024-02-04T11:01:26Z</time>
      </trkpt>
      <trkpt lat="49.23703" lon="-0.07295">
        <ele>7.4</ele>
        <time>2024-02-04T11:01:27Z</time>
      </trkpt>
      <trkpt lat="49.23705" lon="-0.07308">
        <ele>7.4</ele>
        <time>2024-02-04T11:01:28Z</time>
      </trkpt>
      <trkpt lat="49.23707" lon="-0.07321">
        <ele>7.4</ele>
        <time>2024-02-04T11:01:29Z</time>
      </trkpt>
      <trkpt lat="49.2371" lon="-0.07333">
        <ele>7.4</ele>
        <time>2024-02-04T11:01:30Z</time>
      </trkpt>
      <trkpt lat="49.23712" lon="-0.07345">
        <ele>7.4</ele>
        <time>2024-02-04T11:01:31Z</time>
      </trkpt>
      <trkpt lat="49.23714" lon="-0.07358">
        <ele>7.4</ele>
        <time>2024-02-04T11:01:32Z</time>
      </trkpt>
      <trkpt lat="49.23716" lon="-0.0737">
        <ele>7.4</ele>
        <time>2024-02-04T11:01:33Z</time>
      </trkpt>
      <trkpt lat="49.23717" lon="-0.07383">
        <ele>7.4</ele>
        <time>2024-02-04T11:01:34Z</time>
      </trkpt>
      <trkpt lat="49.23719" lon="-0.07395">
        <ele>7.3</ele>
        <time>2024-02-04T11:01:35Z</time>
      </trkpt>
      <trkpt lat="49.2372" lon="-0.07408">
        <ele>7.3</ele>
        <time>2024-02-04T11:01:36Z</time>
      </trkpt>
      <trkpt lat="49.23721" lon="-0.0742">
        <ele>7.3</ele>
        <time>2024-02-04T11:01:37Z</time>
      </trkpt>
      <trkpt lat="49.23722" lon="-0.07433">
        <ele>7.3</ele>
        <time>2024-02-04T11:01:38Z</time>
      </trkpt>
      <trkpt lat="49.23722" lon="-0.07445">
        <ele>7.3</ele>
        <time>2024-02-04T11:01:39Z</time>
      </trkpt>
      <trkpt lat="49.23723" lon="-0.07457">
        <ele>7.3</ele>
        <time>2024-02-04T11:01:40Z</time>
      </trkpt>
      <trkpt lat="49.23723" lon="-0.0747">
        <ele>7.3</ele>
        <time>2024-02-04T11:01:41Z</time>
      </trkpt>
      <trkpt lat="49.23722" lon="-0.07482">
        <ele>7.3</ele>
        <time>2024-02-04T11:01:42Z</time>
      </trkpt>
      <trkpt lat="49.23721" lon="-0.07494">
        <ele>7.3</ele>
        <time>2024-02-04T11:01:43Z</time>
      </trkpt>
      <trkpt lat="49.23719" lon="-0.07506">
        <ele>7.3</ele>
        <time>2024-02-04T11:01:44Z</time>
      </trkpt>
      <trkpt lat="49.23718" lon="-0.07519">
        <ele>7.3</ele>
        <time>2024-02-04T11:01:45Z</time>
      </trkpt>
      <trkpt lat="49.23717" lon="-0.07531">
        <ele>7.3</ele>
        <time>2024-02-04T11:01:46Z</time>
      </trkpt>
      <trkpt lat="49.23716" lon="-0.07543">
        <ele>7.3</ele>
        <time>2024-02-04T11:01:47Z</time>
      </trkpt>
      <trkpt lat="49.23716" lon="-0.07555">
        <ele>7.3</ele>
        <time>2024-02-04T11:01:48Z</time>
      </trkpt>
      <trkpt lat="49.23716" lon="-0.07567">
        <ele>7.4</ele>
        <time>2024-02-04T11:01:49Z</time>
      </trkpt>
      <trkpt lat="49.23716" lon="-0.0758">
        <ele>7.4</ele>
        <time>2024-02-04T11:01:50Z</time>
      </trkpt>
      <trkpt lat="49.23716" lon="-0.07592">
        <ele>7.3</ele>
        <time>2024-02-04T11:01:51Z</time>
      </trkpt>
      <trkpt lat="49.23717" lon="-0.07604">
        <ele>7.3</ele>
        <time>2024-02-04T11:01:52Z</time>
      </trkpt>
      <trkpt lat="49.23717" lon="-0.07617">
        <ele>7.3</ele>
        <time>2024-02-04T11:01:53Z</time>
      </trkpt>
      <trkpt lat="49.23716" lon="-0.07629">
        <ele>7.3</ele>
        <time>2024-02-04T11:01:54Z</time>
      </trkpt>
      <trkpt lat="49.23715" lon="-0.07641">
        <ele>7.3</ele>
        <time>2024-02-04T11:01:55Z</time>
      </trkpt>
      <trkpt lat="49.23714" lon="-0.07654">
        <ele>7.3</ele>
        <time>2024-02-04T11:01:56Z</time>
      </trkpt>
      <trkpt lat="49.23713" lon="-0.07667">
        <ele>7.2</ele>
        <time>2024-02-04T11:01:57Z</time>
      </trkpt>
      <trkpt lat="49.23712" lon="-0.07679">
        <ele>7.2</ele>
        <time>2024-02-04T11:01:58Z</time>
      </trkpt>
      <trkpt lat="49.23712" lon="-0.07692">
        <ele>7.2</ele>
        <time>2024-02-04T11:01:59Z</time>
      </trkpt>
      <trkpt lat="49.23712" lon="-0.07705">
        <ele>7.2</ele>
        <time>2024-02-04T11:02:00Z</time>
      </trkpt>
      <trkpt lat="49.23712" lon="-0.07718">
        <ele>7.2</ele>
        <time>2024-02-04T11:02:01Z</time>
      </trkpt>
      <trkpt lat="49.23713" lon="-0.07731">
        <ele>7.2</ele>
        <time>2024-02-04T11:02:02Z</time>
      </trkpt>
      <trkpt lat="49.23715" lon="-0.07744">
        <ele>7.2</ele>
        <time>2024-02-04T11:02:03Z</time>
      </trkpt>
      <trkpt lat="49.23718" lon="-0.07757">
        <ele>7.2</ele>
        <time>2024-02-04T11:02:04Z</time>
      </trkpt>
      <trkpt lat="49.23721" lon="-0.07769">
        <ele>7.2</ele>
        <time>2024-02-04T11:02:05Z</time>
      </trkpt>
      <trkpt lat="49.23725" lon="-0.07781">
        <ele>7.1</ele>
        <time>2024-02-04T11:02:06Z</time>
      </trkpt>
      <trkpt lat="49.23729" lon="-0.07793">
        <ele>7.1</ele>
        <time>2024-02-04T11:02:07Z</time>
      </trkpt>
      <trkpt lat="49.23733" lon="-0.07806">
        <ele>7</ele>
        <time>2024-02-04T11:02:08Z</time>
      </trkpt>
      <trkpt lat="49.23736" lon="-0.07819">
        <ele>7</ele>
        <time>2024-02-04T11:02:09Z</time>
      </trkpt>
      <trkpt lat="49.23737" lon="-0.07831">
        <ele>6.9</ele>
        <time>2024-02-04T11:02:10Z</time>
      </trkpt>
      <trkpt lat="49.23738" lon="-0.07844">
        <ele>6.9</ele>
        <time>2024-02-04T11:02:11Z</time>
      </trkpt>
      <trkpt lat="49.23738" lon="-0.07856">
        <ele>6.8</ele>
        <time>2024-02-04T11:02:12Z</time>
      </trkpt>
      <trkpt lat="49.23737" lon="-0.07868">
        <ele>6.8</ele>
        <time>2024-02-04T11:02:13Z</time>
      </trkpt>
      <trkpt lat="49.23735" lon="-0.0788">
        <ele>6.7</ele>
        <time>2024-02-04T11:02:14Z</time>
      </trkpt>
      <trkpt lat="49.23733" lon="-0.07893">
        <ele>6.6</ele>
        <time>2024-02-04T11:02:15Z</time>
      </trkpt>
      <trkpt lat="49.23731" lon="-0.07906">
        <ele>6.6</ele>
        <time>2024-02-04T11:02:16Z</time>
      </trkpt>
      <trkpt lat="49.2373" lon="-0.07918">
        <ele>6.5</ele>
        <time>2024-02-04T11:02:17Z</time>
      </trkpt>
      <trkpt lat="49.23728" lon="-0.0793">
        <ele>6.5</ele>
        <time>2024-02-04T11:02:18Z</time>
      </trkpt>
      <trkpt lat="49.23727" lon="-0.07943">
        <ele>6.5</ele>
        <time>2024-02-04T11:02:19Z</time>
      </trkpt>
      <trkpt lat="49.23725" lon="-0.07955">
        <ele>6.5</ele>
        <time>2024-02-04T11:02:20Z</time>
      </trkpt>
      <trkpt lat="49.23724" lon="-0.07968">
        <ele>6.5</ele>
        <time>2024-02-04T11:02:21Z</time>
      </trkpt>
      <trkpt lat="49.23722" lon="-0.0798">
        <ele>6.4</ele>
        <time>2024-02-04T11:02:22Z</time>
      </trkpt>
      <trkpt lat="49.23721" lon="-0.07993">
        <ele>6.4</ele>
        <time>2024-02-04T11:02:23Z</time>
      </trkpt>
      <trkpt lat="49.2372" lon="-0.08005">
        <ele>6.4</ele>
        <time>2024-02-04T11:02:24Z</time>
      </trkpt>
      <trkpt lat="49.23718" lon="-0.08018">
        <ele>6.3</ele>
        <time>2024-02-04T11:02:25Z</time>
      </trkpt>
      <trkpt lat="49.23718" lon="-0.08031">
        <ele>6.3</ele>
        <time>2024-02-04T11:02:26Z</time>
      </trkpt>
      <trkpt lat="49.23717" lon="-0.08044">
        <ele>6.3</ele>
        <time>2024-02-04T11:02:27Z</time>
      </trkpt>
      <trkpt lat="49.23718" lon="-0.08056">
        <ele>6.3</ele>
        <time>2024-02-04T11:02:28Z</time>
      </trkpt>
      <trkpt lat="49.23722" lon="-0.08067">
        <ele>6.2</ele>
        <time>2024-02-04T11:02:29Z</time>
      </trkpt>
      <trkpt lat="49.23727" lon="-0.08076">
        <ele>6.2</ele>
        <time>2024-02-04T11:02:30Z</time>
      </trkpt>
      <trkpt lat="49.23733" lon="-0.08084">
        <ele>6.2</ele>
        <time>2024-02-04T11:02:31Z</time>
      </trkpt>
      <trkpt lat="49.23739" lon="-0.08092">
        <ele>6.2</ele>
        <time>2024-02-04T11:02:32Z</time>
      </trkpt>
      <trkpt lat="49.23745" lon="-0.08099">
        <ele>6.2</ele>
        <time>2024-02-04T11:02:33Z</time>
      </trkpt>
      <trkpt lat="49.23752" lon="-0.08106">
        <ele>6.2</ele>
        <time>2024-02-04T11:02:34Z</time>
      </trkpt>
      <trkpt lat="49.23758" lon="-0.08112">
        <ele>6.3</ele>
        <time>2024-02-04T11:02:35Z</time>
      </trkpt>
      <trkpt lat="49.23764" lon="-0.08119">
        <ele>6.3</ele>
        <time>2024-02-04T11:02:36Z</time>
      </trkpt>
      <trkpt lat="49.2377" lon="-0.08126">
        <ele>6.4</ele>
        <time>2024-02-04T11:02:37Z</time>
      </trkpt>
      <trkpt lat="49.23776" lon="-0.08132">
        <ele>6.4</ele>
        <time>2024-02-04T11:02:38Z</time>
      </trkpt>
      <trkpt lat="49.23782" lon="-0.08139">
        <ele>6.5</ele>
        <time>2024-02-04T11:02:39Z</time>
      </trkpt>
      <trkpt lat="49.23788" lon="-0.08147">
        <ele>6.6</ele>
        <time>2024-02-04T11:02:40Z</time>
      </trkpt>
      <trkpt lat="49.23794" lon="-0.08153">
        <ele>6.7</ele>
        <time>2024-02-04T11:02:41Z</time>
      </trkpt>
      <trkpt lat="49.238" lon="-0.0816">
        <ele>6.8</ele>
        <time>2024-02-04T11:02:42Z</time>
      </trkpt>
      <trkpt lat="49.23806" lon="-0.08167">
        <ele>6.8</ele>
        <time>2024-02-04T11:02:43Z</time>
      </trkpt>
      <trkpt lat="49.23811" lon="-0.08174">
        <ele>7</ele>
        <time>2024-02-04T11:02:44Z</time>
      </trkpt>
      <trkpt lat="49.23817" lon="-0.08181">
        <ele>7.1</ele>
        <time>2024-02-04T11:02:45Z</time>
      </trkpt>
      <trkpt lat="49.23823" lon="-0.08188">
        <ele>7.2</ele>
        <time>2024-02-04T11:02:46Z</time>
      </trkpt>
      <trkpt lat="49.23828" lon="-0.08196">
        <ele>7.3</ele>
        <time>2024-02-04T11:02:47Z</time>
      </trkpt>
      <trkpt lat="49.23833" lon="-0.08203">
        <ele>7.5</ele>
        <time>2024-02-04T11:02:48Z</time>
      </trkpt>
      <trkpt lat="49.23839" lon="-0.0821">
        <ele>7.6</ele>
        <time>2024-02-04T11:02:49Z</time>
      </trkpt>
      <trkpt lat="49.23844" lon="-0.08217">
        <ele>7.7</ele>
        <time>2024-02-04T11:02:50Z</time>
      </trkpt>
      <trkpt lat="49.23849" lon="-0.08223">
        <ele>7.9</ele>
        <time>2024-02-04T11:02:51Z</time>
      </trkpt>
      <trkpt lat="49.23853" lon="-0.0823">
        <ele>8</ele>
        <time>2024-02-04T11:02:52Z</time>
      </trkpt>
      <trkpt lat="49.23858" lon="-0.08237">
        <ele>8.1</ele>
        <time>2024-02-04T11:02:53Z</time>
      </trkpt>
      <trkpt lat="49.23863" lon="-0.08243">
        <ele>8.1</ele>
        <time>2024-02-04T11:02:54Z</time>
      </trkpt>
      <trkpt lat="49.23867" lon="-0.08251">
        <ele>8.2</ele>
        <time>2024-02-04T11:02:55Z</time>
      </trkpt>
      <trkpt lat="49.23872" lon="-0.08259">
        <ele>8.2</ele>
        <time>2024-02-04T11:02:56Z</time>
      </trkpt>
      <trkpt lat="49.23876" lon="-0.08268">
        <ele>8.2</ele>
        <time>2024-02-04T11:02:57Z</time>
      </trkpt>
      <trkpt lat="49.23879" lon="-0.08279">
        <ele>8.1</ele>
        <time>2024-02-04T11:02:58Z</time>
      </trkpt>
      <trkpt lat="49.23881" lon="-0.08291">
        <ele>8</ele>
        <time>2024-02-04T11:02:59Z</time>
      </trkpt>
      <trkpt lat="49.23882" lon="-0.08303">
        <ele>8</ele>
        <time>2024-02-04T11:03:00Z</time>
      </trkpt>
      <trkpt lat="49.23884" lon="-0.08314">
        <ele>7.9</ele>
        <time>2024-02-04T11:03:01Z</time>
      </trkpt>
      <trkpt lat="49.23884" lon="-0.08326">
        <ele>7.8</ele>
        <time>2024-02-04T11:03:02Z</time>
      </trkpt>
      <trkpt lat="49.23884" lon="-0.08338">
        <ele>7.8</ele>
        <time>2024-02-04T11:03:03Z</time>
      </trkpt>
      <trkpt lat="49.23884" lon="-0.0835">
        <ele>7.7</ele>
        <time>2024-02-04T11:03:04Z</time>
      </trkpt>
      <trkpt lat="49.23883" lon="-0.08362">
        <ele>7.7</ele>
        <time>2024-02-04T11:03:05Z</time>
      </trkpt>
      <trkpt lat="49.23883" lon="-0.08375">
        <ele>7.7</ele>
        <time>2024-02-04T11:03:06Z</time>
      </trkpt>
      <trkpt lat="49.23882" lon="-0.08386">
        <ele>7.7</ele>
        <time>2024-02-04T11:03:07Z</time>
      </trkpt>
      <trkpt lat="49.23881" lon="-0.08398">
        <ele>7.7</ele>
        <time>2024-02-04T11:03:08Z</time>
      </trkpt>
      <trkpt lat="49.2388" lon="-0.0841">
        <ele>7.6</ele>
        <time>2024-02-04T11:03:09Z</time>
      </trkpt>
      <trkpt lat="49.23881" lon="-0.08421">
        <ele>7.6</ele>
        <time>2024-02-04T11:03:10Z</time>
      </trkpt>
      <trkpt lat="49.23882" lon="-0.08433">
        <ele>7.6</ele>
        <time>2024-02-04T11:03:11Z</time>
      </trkpt>
      <trkpt lat="49.23883" lon="-0.08445">
        <ele>7.6</ele>
        <time>2024-02-04T11:03:12Z</time>
      </trkpt>
      <trkpt lat="49.23884" lon="-0.08456">
        <ele>7.5</ele>
        <time>2024-02-04T11:03:13Z</time>
      </trkpt>
      <trkpt lat="49.23886" lon="-0.08467">
        <ele>7.5</ele>
        <time>2024-02-04T11:03:14Z</time>
      </trkpt>
      <trkpt lat="49.23889" lon="-0.08478">
        <ele>7.5</ele>
        <time>2024-02-04T11:03:15Z</time>
      </trkpt>
      <trkpt lat="49.23891" lon="-0.0849">
        <ele>7.5</ele>
        <time>2024-02-04T11:03:16Z</time>
      </trkpt>
      <trkpt lat="49.23894" lon="-0.085">
        <ele>7.5</ele>
        <time>2024-02-04T11:03:17Z</time>
      </trkpt>
      <trkpt lat="49.23897" lon="-0.0851">
        <ele>7.6</ele>
        <time>2024-02-04T11:03:18Z</time>
      </trkpt>
      <trkpt lat="49.23901" lon="-0.0852">
        <ele>7.6</ele>
        <time>2024-02-04T11:03:19Z</time>
      </trkpt>
      <trkpt lat="49.23904" lon="-0.0853">
        <ele>7.6</ele>
        <time>2024-02-04T11:03:20Z</time>
      </trkpt>
      <trkpt lat="49.23907" lon="-0.08541">
        <ele>7.6</ele>
        <time>2024-02-04T11:03:21Z</time>
      </trkpt>
      <trkpt lat="49.2391" lon="-0.08552">
        <ele>7.6</ele>
        <time>2024-02-04T11:03:22Z</time>
      </trkpt>
      <trkpt lat="49.23913" lon="-0.08562">
        <ele>7.6</ele>
        <time>2024-02-04T11:03:23Z</time>
      </trkpt>
      <trkpt lat="49.23916" lon="-0.08573">
        <ele>7.6</ele>
        <time>2024-02-04T11:03:24Z</time>
      </trkpt>
      <trkpt lat="49.23918" lon="-0.08584">
        <ele>7.6</ele>
        <time>2024-02-04T11:03:25Z</time>
      </trkpt>
      <trkpt lat="49.23921" lon="-0.08596">
        <ele>7.6</ele>
        <time>2024-02-04T11:03:26Z</time>
      </trkpt>
      <trkpt lat="49.23923" lon="-0.08608">
        <ele>7.5</ele>
        <time>2024-02-04T11:03:27Z</time>
      </trkpt>
      <trkpt lat="49.23923" lon="-0.0862">
        <ele>7.5</ele>
        <time>2024-02-04T11:03:28Z</time>
      </trkpt>
      <trkpt lat="49.23924" lon="-0.08631">
        <ele>7.5</ele>
        <time>2024-02-04T11:03:29Z</time>
      </trkpt>
      <trkpt lat="49.23926" lon="-0.08643">
        <ele>7.5</ele>
        <time>2024-02-04T11:03:30Z</time>
      </trkpt>
      <trkpt lat="49.23927" lon="-0.08655">
        <ele>7.5</ele>
        <time>2024-02-04T11:03:31Z</time>
      </trkpt>
      <trkpt lat="49.23928" lon="-0.08666">
        <ele>7.5</ele>
        <time>2024-02-04T11:03:32Z</time>
      </trkpt>
      <trkpt lat="49.23929" lon="-0.08677">
        <ele>7.4</ele>
        <time>2024-02-04T11:03:33Z</time>
      </trkpt>
      <trkpt lat="49.23931" lon="-0.08688">
        <ele>7.4</ele>
        <time>2024-02-04T11:03:34Z</time>
      </trkpt>
      <trkpt lat="49.23932" lon="-0.08699">
        <ele>7.4</ele>
        <time>2024-02-04T11:03:35Z</time>
      </trkpt>
      <trkpt lat="49.23935" lon="-0.0871">
        <ele>7.4</ele>
        <time>2024-02-04T11:03:36Z</time>
      </trkpt>
      <trkpt lat="49.23937" lon="-0.08721">
        <ele>7.4</ele>
        <time>2024-02-04T11:03:37Z</time>
      </trkpt>
      <trkpt lat="49.2394" lon="-0.08732">
        <ele>7.4</ele>
        <time>2024-02-04T11:03:38Z</time>
      </trkpt>
      <trkpt lat="49.23942" lon="-0.08744">
        <ele>7.4</ele>
        <time>2024-02-04T11:03:39Z</time>
      </trkpt>
      <trkpt lat="49.23944" lon="-0.08755">
        <ele>7.4</ele>
        <time>2024-02-04T11:03:40Z</time>
      </trkpt>
      <trkpt lat="49.23947" lon="-0.08766">
        <ele>7.4</ele>
        <time>2024-02-04T11:03:41Z</time>
      </trkpt>
      <trkpt lat="49.2395" lon="-0.08777">
        <ele>7.4</ele>
        <time>2024-02-04T11:03:42Z</time>
      </trkpt>
      <trkpt lat="49.23952" lon="-0.08788">
        <ele>7.4</ele>
        <time>2024-02-04T11:03:43Z</time>
      </trkpt>
      <trkpt lat="49.23955" lon="-0.08799">
        <ele>7.4</ele>
        <time>2024-02-04T11:03:44Z</time>
      </trkpt>
      <trkpt lat="49.23957" lon="-0.0881">
        <ele>7.4</ele>
        <time>2024-02-04T11:03:45Z</time>
      </trkpt>
      <trkpt lat="49.23959" lon="-0.08821">
        <ele>7.4</ele>
        <time>2024-02-04T11:03:46Z</time>
      </trkpt>
      <trkpt lat="49.23961" lon="-0.08833">
        <ele>7.3</ele>
        <time>2024-02-04T11:03:47Z</time>
      </trkpt>
      <trkpt lat="49.23963" lon="-0.08844">
        <ele>7.3</ele>
        <time>2024-02-04T11:03:48Z</time>
      </trkpt>
      <trkpt lat="49.23964" lon="-0.08856">
        <ele>7.3</ele>
        <time>2024-02-04T11:03:49Z</time>
      </trkpt>
      <trkpt lat="49.23965" lon="-0.08869">
        <ele>7.2</ele>
        <time>2024-02-04T11:03:50Z</time>
      </trkpt>
      <trkpt lat="49.23966" lon="-0.08881">
        <ele>7.2</ele>
        <time>2024-02-04T11:03:51Z</time>
      </trkpt>
      <trkpt lat="49.23968" lon="-0.08892">
        <ele>7.2</ele>
        <time>2024-02-04T11:03:52Z</time>
      </trkpt>
      <trkpt lat="49.23969" lon="-0.08904">
        <ele>7.2</ele>
        <time>2024-02-04T11:03:53Z</time>
      </trkpt>
      <trkpt lat="49.23971" lon="-0.08916">
        <ele>7.2</ele>
        <time>2024-02-04T11:03:54Z</time>
      </trkpt>
      <trkpt lat="49.23974" lon="-0.08927">
        <ele>7.1</ele>
        <time>2024-02-04T11:03:55Z</time>
      </trkpt>
      <trkpt lat="49.23977" lon="-0.08938">
        <ele>7.1</ele>
        <time>2024-02-04T11:03:56Z</time>
      </trkpt>
      <trkpt lat="49.23981" lon="-0.08948">
        <ele>7.1</ele>
        <time>2024-02-04T11:03:57Z</time>
      </trkpt>
      <trkpt lat="49.23986" lon="-0.08958">
        <ele>7.1</ele>
        <time>2024-02-04T11:03:58Z</time>
      </trkpt>
      <trkpt lat="49.23992" lon="-0.08967">
        <ele>7.1</ele>
        <time>2024-02-04T11:03:59Z</time>
      </trkpt>
      <trkpt lat="49.23997" lon="-0.08975">
        <ele>7</ele>
        <time>2024-02-04T11:04:00Z</time>
      </trkpt>
      <trkpt lat="49.24003" lon="-0.08984">
        <ele>7</ele>
        <time>2024-02-04T11:04:01Z</time>
      </trkpt>
      <trkpt lat="49.24008" lon="-0.08991">
        <ele>7</ele>
        <time>2024-02-04T11:04:02Z</time>
      </trkpt>
      <trkpt lat="49.24014" lon="-0.09">
        <ele>7</ele>
        <time>2024-02-04T11:04:03Z</time>
      </trkpt>
      <trkpt lat="49.2402" lon="-0.09008">
        <ele>7</ele>
        <time>2024-02-04T11:04:04Z</time>
      </trkpt>
      <trkpt lat="49.24026" lon="-0.09014">
        <ele>7</ele>
        <time>2024-02-04T11:04:05Z</time>
      </trkpt>
      <trkpt lat="49.24033" lon="-0.0902">
        <ele>7.1</ele>
        <time>2024-02-04T11:04:06Z</time>
      </trkpt>
      <trkpt lat="49.2404" lon="-0.09025">
        <ele>7.1</ele>
        <time>2024-02-04T11:04:07Z</time>
      </trkpt>
      <trkpt lat="49.24047" lon="-0.09029">
        <ele>7.1</ele>
        <time>2024-02-04T11:04:08Z</time>
      </trkpt>
      <trkpt lat="49.24055" lon="-0.09033">
        <ele>7.1</ele>
        <time>2024-02-04T11:04:09Z</time>
      </trkpt>
      <trkpt lat="49.24062" lon="-0.09038">
        <ele>7.1</ele>
        <time>2024-02-04T11:04:10Z</time>
      </trkpt>
      <trkpt lat="49.2407" lon="-0.09042">
        <ele>7.1</ele>
        <time>2024-02-04T11:04:11Z</time>
      </trkpt>
      <trkpt lat="49.24077" lon="-0.09048">
        <ele>7.1</ele>
        <time>2024-02-04T11:04:12Z</time>
      </trkpt>
      <trkpt lat="49.24083" lon="-0.09055">
        <ele>7.2</ele>
        <time>2024-02-04T11:04:13Z</time>
      </trkpt>
      <trkpt lat="49.24088" lon="-0.09064">
        <ele>7.2</ele>
        <time>2024-02-04T11:04:14Z</time>
      </trkpt>
      <trkpt lat="49.24093" lon="-0.09074">
        <ele>7.2</ele>
        <time>2024-02-04T11:04:15Z</time>
      </trkpt>
      <trkpt lat="49.24098" lon="-0.09084">
        <ele>7.2</ele>
        <time>2024-02-04T11:04:16Z</time>
      </trkpt>
      <trkpt lat="49.24101" lon="-0.09095">
        <ele>7.2</ele>
        <time>2024-02-04T11:04:17Z</time>
      </trkpt>
      <trkpt lat="49.24105" lon="-0.09107">
        <ele>7.2</ele>
        <time>2024-02-04T11:04:18Z</time>
      </trkpt>
      <trkpt lat="49.24108" lon="-0.09119">
        <ele>7.2</ele>
        <time>2024-02-04T11:04:19Z</time>
      </trkpt>
      <trkpt lat="49.24111" lon="-0.09131">
        <ele>7.2</ele>
        <time>2024-02-04T11:04:20Z</time>
      </trkpt>
      <trkpt lat="49.24115" lon="-0.09142">
        <ele>7.2</ele>
        <time>2024-02-04T11:04:21Z</time>
      </trkpt>
      <trkpt lat="49.24119" lon="-0.09153">
        <ele>7.2</ele>
        <time>2024-02-04T11:04:22Z</time>
      </trkpt>
      <trkpt lat="49.24122" lon="-0.09164">
        <ele>7.3</ele>
        <time>2024-02-04T11:04:23Z</time>
      </trkpt>
      <trkpt lat="49.24125" lon="-0.09176">
        <ele>7.3</ele>
        <time>2024-02-04T11:04:24Z</time>
      </trkpt>
      <trkpt lat="49.24127" lon="-0.09187">
        <ele>7.3</ele>
        <time>2024-02-04T11:04:25Z</time>
      </trkpt>
      <trkpt lat="49.2413" lon="-0.09199">
        <ele>7.3</ele>
        <time>2024-02-04T11:04:26Z</time>
      </trkpt>
      <trkpt lat="49.24132" lon="-0.09211">
        <ele>7.3</ele>
        <time>2024-02-04T11:04:27Z</time>
      </trkpt>
      <trkpt lat="49.24134" lon="-0.09223">
        <ele>7.3</ele>
        <time>2024-02-04T11:04:28Z</time>
      </trkpt>
      <trkpt lat="49.24136" lon="-0.09235">
        <ele>7.4</ele>
        <time>2024-02-04T11:04:29Z</time>
      </trkpt>
      <trkpt lat="49.24137" lon="-0.09247">
        <ele>7.4</ele>
        <time>2024-02-04T11:04:30Z</time>
      </trkpt>
      <trkpt lat="49.24139" lon="-0.09259">
        <ele>7.4</ele>
        <time>2024-02-04T11:04:31Z</time>
      </trkpt>
      <trkpt lat="49.2414" lon="-0.09271">
        <ele>7.4</ele>
        <time>2024-02-04T11:04:32Z</time>
      </trkpt>
      <trkpt lat="49.24142" lon="-0.09283">
        <ele>7.5</ele>
        <time>2024-02-04T11:04:33Z</time>
      </trkpt>
      <trkpt lat="49.24143" lon="-0.09296">
        <ele>7.5</ele>
        <time>2024-02-04T11:04:34Z</time>
      </trkpt>
      <trkpt lat="49.24145" lon="-0.09308">
        <ele>7.5</ele>
        <time>2024-02-04T11:04:35Z</time>
      </trkpt>
      <trkpt lat="49.24146" lon="-0.0932">
        <ele>7.6</ele>
        <time>2024-02-04T11:04:36Z</time>
      </trkpt>
      <trkpt lat="49.24147" lon="-0.09332">
        <ele>7.7</ele>
        <time>2024-02-04T11:04:37Z</time>
      </trkpt>
      <trkpt lat="49.24149" lon="-0.09344">
        <ele>7.7</ele>
        <time>2024-02-04T11:04:38Z</time>
      </trkpt>
      <trkpt lat="49.2415" lon="-0.09356">
        <ele>7.8</ele>
        <time>2024-02-04T11:04:39Z</time>
      </trkpt>
      <trkpt lat="49.24152" lon="-0.09368">
        <ele>7.8</ele>
        <time>2024-02-04T11:04:40Z</time>
      </trkpt>
      <trkpt lat="49.24153" lon="-0.0938">
        <ele>7.9</ele>
        <time>2024-02-04T11:04:41Z</time>
      </trkpt>
      <trkpt lat="49.24154" lon="-0.09391">
        <ele>7.9</ele>
        <time>2024-02-04T11:04:42Z</time>
      </trkpt>
      <trkpt lat="49.24156" lon="-0.09403">
        <ele>8</ele>
        <time>2024-02-04T11:04:43Z</time>
      </trkpt>
      <trkpt lat="49.24158" lon="-0.09415">
        <ele>8</ele>
        <time>2024-02-04T11:04:44Z</time>
      </trkpt>
      <trkpt lat="49.24159" lon="-0.09427">
        <ele>8</ele>
        <time>2024-02-04T11:04:45Z</time>
      </trkpt>
      <trkpt lat="49.2416" lon="-0.09439">
        <ele>8.1</ele>
        <time>2024-02-04T11:04:46Z</time>
      </trkpt>
      <trkpt lat="49.24162" lon="-0.09451">
        <ele>8.1</ele>
        <time>2024-02-04T11:04:47Z</time>
      </trkpt>
      <trkpt lat="49.24164" lon="-0.09462">
        <ele>8.2</ele>
        <time>2024-02-04T11:04:48Z</time>
      </trkpt>
      <trkpt lat="49.24166" lon="-0.09474">
        <ele>8.3</ele>
        <time>2024-02-04T11:04:49Z</time>
      </trkpt>
      <trkpt lat="49.24169" lon="-0.09485">
        <ele>8.3</ele>
        <time>2024-02-04T11:04:50Z</time>
      </trkpt>
      <trkpt lat="49.24172" lon="-0.09496">
        <ele>8.4</ele>
        <time>2024-02-04T11:04:51Z</time>
      </trkpt>
      <trkpt lat="49.24175" lon="-0.09507">
        <ele>8.4</ele>
        <time>2024-02-04T11:04:52Z</time>
      </trkpt>
      <trkpt lat="49.24179" lon="-0.09517">
        <ele>8.5</ele>
        <time>2024-02-04T11:04:53Z</time>
      </trkpt>
      <trkpt lat="49.24183" lon="-0.09528">
        <ele>8.5</ele>
        <time>2024-02-04T11:04:54Z</time>
      </trkpt>
      <trkpt lat="49.24187" lon="-0.09538">
        <ele>8.5</ele>
        <time>2024-02-04T11:04:55Z</time>
      </trkpt>
      <trkpt lat="49.24192" lon="-0.09547">
        <ele>8.5</ele>
        <time>2024-02-04T11:04:56Z</time>
      </trkpt>
      <trkpt lat="49.24197" lon="-0.09556">
        <ele>8.5</ele>
        <time>2024-02-04T11:04:57Z</time>
      </trkpt>
      <trkpt lat="49.24203" lon="-0.09565">
        <ele>8.5</ele>
        <time>2024-02-04T11:04:58Z</time>
      </trkpt>
      <trkpt lat="49.24209" lon="-0.09574">
        <ele>8.5</ele>
        <time>2024-02-04T11:04:59Z</time>
      </trkpt>
      <trkpt lat="49.24215" lon="-0.09582">
        <ele>8.4</ele>
        <time>2024-02-04T11:05:00Z</time>
      </trkpt>
      <trkpt lat="49.24221" lon="-0.0959">
        <ele>8.4</ele>
        <time>2024-02-04T11:05:01Z</time>
      </trkpt>
      <trkpt lat="49.24228" lon="-0.09598">
        <ele>8.4</ele>
        <time>2024-02-04T11:05:02Z</time>
      </trkpt>
      <trkpt lat="49.24235" lon="-0.09605">
        <ele>8.4</ele>
        <time>2024-02-04T11:05:03Z</time>
      </trkpt>
      <trkpt lat="49.24242" lon="-0.09612">
        <ele>8.3</ele>
        <time>2024-02-04T11:05:04Z</time>
      </trkpt>
      <trkpt lat="49.24249" lon="-0.0962">
        <ele>8.2</ele>
        <time>2024-02-04T11:05:05Z</time>
      </trkpt>
      <trkpt lat="49.24256" lon="-0.09627">
        <ele>8.1</ele>
        <time>2024-02-04T11:05:06Z</time>
      </trkpt>
      <trkpt lat="49.24263" lon="-0.09635">
        <ele>8</ele>
        <time>2024-02-04T11:05:07Z</time>
      </trkpt>
      <trkpt lat="49.2427" lon="-0.09642">
        <ele>8</ele>
        <time>2024-02-04T11:05:08Z</time>
      </trkpt>
      <trkpt lat="49.24277" lon="-0.0965">
        <ele>7.9</ele>
        <time>2024-02-04T11:05:09Z</time>
      </trkpt>
      <trkpt lat="49.24284" lon="-0.09657">
        <ele>7.8</ele>
        <time>2024-02-04T11:05:10Z</time>
      </trkpt>
      <trkpt lat="49.24291" lon="-0.09664">
        <ele>7.8</ele>
        <time>2024-02-04T11:05:11Z</time>
      </trkpt>
      <trkpt lat="49.24298" lon="-0.09672">
        <ele>7.8</ele>
        <time>2024-02-04T11:05:12Z</time>
      </trkpt>
      <trkpt lat="49.24305" lon="-0.0968">
        <ele>7.8</ele>
        <time>2024-02-04T11:05:13Z</time>
      </trkpt>
      <trkpt lat="49.24312" lon="-0.09687">
        <ele>7.8</ele>
        <time>2024-02-04T11:05:14Z</time>
      </trkpt>
      <trkpt lat="49.24319" lon="-0.09694">
        <ele>7.8</ele>
        <time>2024-02-04T11:05:15Z</time>
      </trkpt>
      <trkpt lat="49.24326" lon="-0.09701">
        <ele>7.9</ele>
        <time>2024-02-04T11:05:16Z</time>
      </trkpt>
      <trkpt lat="49.24333" lon="-0.09709">
        <ele>8.1</ele>
        <time>2024-02-04T11:05:17Z</time>
      </trkpt>
      <trkpt lat="49.24339" lon="-0.09716">
        <ele>8.2</ele>
        <time>2024-02-04T11:05:18Z</time>
      </trkpt>
      <trkpt lat="49.24346" lon="-0.09723">
        <ele>8.4</ele>
        <time>2024-02-04T11:05:19Z</time>
      </trkpt>
      <trkpt lat="49.24352" lon="-0.09729">
        <ele>8.6</ele>
        <time>2024-02-04T11:05:20Z</time>
      </trkpt>
      <trkpt lat="49.24359" lon="-0.09736">
        <ele>8.8</ele>
        <time>2024-02-04T11:05:21Z</time>
      </trkpt>
      <trkpt lat="49.24365" lon="-0.09744">
        <ele>9.1</ele>
        <time>2024-02-04T11:05:22Z</time>
      </trkpt>
      <trkpt lat="49.2437" lon="-0.09752">
        <ele>9.3</ele>
        <time>2024-02-04T11:05:23Z</time>
      </trkpt>
      <trkpt lat="49.24376" lon="-0.09761">
        <ele>9.5</ele>
        <time>2024-02-04T11:05:24Z</time>
      </trkpt>
      <trkpt lat="49.24381" lon="-0.0977">
        <ele>9.8</ele>
        <time>2024-02-04T11:05:25Z</time>
      </trkpt>
      <trkpt lat="49.24387" lon="-0.0978">
        <ele>10</ele>
        <time>2024-02-04T11:05:26Z</time>
      </trkpt>
      <trkpt lat="49.24391" lon="-0.0979">
        <ele>10.2</ele>
        <time>2024-02-04T11:05:27Z</time>
      </trkpt>
      <trkpt lat="49.24395" lon="-0.09801">
        <ele>10.5</ele>
        <time>2024-02-04T11:05:28Z</time>
      </trkpt>
      <trkpt lat="49.24398" lon="-0.09813">
        <ele>10.7</ele>
        <time>2024-02-04T11:05:29Z</time>
      </trkpt>
      <trkpt lat="49.24401" lon="-0.09824">
        <ele>10.9</ele>
        <time>2024-02-04T11:05:30Z</time>
      </trkpt>
      <trkpt lat="49.24404" lon="-0.09835">
        <ele>11.1</ele>
        <time>2024-02-04T11:05:31Z</time>
      </trkpt>
      <trkpt lat="49.24407" lon="-0.09846">
        <ele>11.3</ele>
        <time>2024-02-04T11:05:32Z</time>
      </trkpt>
      <trkpt lat="49.2441" lon="-0.09858">
        <ele>11.5</ele>
        <time>2024-02-04T11:05:33Z</time>
      </trkpt>
      <trkpt lat="49.24413" lon="-0.0987">
        <ele>11.7</ele>
        <time>2024-02-04T11:05:34Z</time>
      </trkpt>
      <trkpt lat="49.24416" lon="-0.09882">
        <ele>11.8</ele>
        <time>2024-02-04T11:05:35Z</time>
      </trkpt>
      <trkpt lat="49.24419" lon="-0.09894">
        <ele>12</ele>
        <time>2024-02-04T11:05:36Z</time>
      </trkpt>
      <trkpt lat="49.24422" lon="-0.09906">
        <ele>12.1</ele>
        <time>2024-02-04T11:05:37Z</time>
      </trkpt>
      <trkpt lat="49.24425" lon="-0.09917">
        <ele>12.2</ele>
        <time>2024-02-04T11:05:38Z</time>
      </trkpt>
      <trkpt lat="49.24428" lon="-0.09929">
        <ele>12.3</ele>
        <time>2024-02-04T11:05:39Z</time>
      </trkpt>
      <trkpt lat="49.24432" lon="-0.09941">
        <ele>12.2</ele>
        <time>2024-02-04T11:05:40Z</time>
      </trkpt>
      <trkpt lat="49.24435" lon="-0.09953">
        <ele>12.1</ele>
        <time>2024-02-04T11:05:41Z</time>
      </trkpt>
      <trkpt lat="49.24439" lon="-0.09965">
        <ele>11.9</ele>
        <time>2024-02-04T11:05:42Z</time>
      </trkpt>
      <trkpt lat="49.24445" lon="-0.09976">
        <ele>11.7</ele>
        <time>2024-02-04T11:05:43Z</time>
      </trkpt>
      <trkpt lat="49.24451" lon="-0.09986">
        <ele>11.4</ele>
        <time>2024-02-04T11:05:44Z</time>
      </trkpt>
      <trkpt lat="49.24457" lon="-0.09996">
        <ele>11.1</ele>
        <time>2024-02-04T11:05:45Z</time>
      </trkpt>
      <trkpt lat="49.24465" lon="-0.10005">
        <ele>10.7</ele>
        <time>2024-02-04T11:05:46Z</time>
      </trkpt>
      <trkpt lat="49.24473" lon="-0.10012">
        <ele>10.3</ele>
        <time>2024-02-04T11:05:47Z</time>
      </trkpt>
      <trkpt lat="49.24482" lon="-0.1002">
        <ele>9.9</ele>
        <time>2024-02-04T11:05:48Z</time>
      </trkpt>
      <trkpt lat="49.24492" lon="-0.10028">
        <ele>9.5</ele>
        <time>2024-02-04T11:05:49Z</time>
      </trkpt>
      <trkpt lat="49.24501" lon="-0.10035">
        <ele>9.1</ele>
        <time>2024-02-04T11:05:50Z</time>
      </trkpt>
      <trkpt lat="49.2451" lon="-0.10042">
        <ele>8.6</ele>
        <time>2024-02-04T11:05:51Z</time>
      </trkpt>
      <trkpt lat="49.2452" lon="-0.10049">
        <ele>8.2</ele>
        <time>2024-02-04T11:05:52Z</time>
      </trkpt>
      <trkpt lat="49.24529" lon="-0.10056">
        <ele>7.7</ele>
        <time>2024-02-04T11:05:53Z</time>
      </trkpt>
      <trkpt lat="49.24539" lon="-0.10063">
        <ele>7.3</ele>
        <time>2024-02-04T11:05:54Z</time>
      </trkpt>
      <trkpt lat="49.24549" lon="-0.1007">
        <ele>6.8</ele>
        <time>2024-02-04T11:05:55Z</time>
      </trkpt>
      <trkpt lat="49.24559" lon="-0.10078">
        <ele>6.5</ele>
        <time>2024-02-04T11:05:56Z</time>
      </trkpt>
      <trkpt lat="49.24569" lon="-0.10086">
        <ele>6.3</ele>
        <time>2024-02-04T11:05:57Z</time>
      </trkpt>
      <trkpt lat="49.24579" lon="-0.10093">
        <ele>5.9</ele>
        <time>2024-02-04T11:05:58Z</time>
      </trkpt>
      <trkpt lat="49.24588" lon="-0.101">
        <ele>5.5</ele>
        <time>2024-02-04T11:05:59Z</time>
      </trkpt>
      <trkpt lat="49.24598" lon="-0.10108">
        <ele>5.2</ele>
        <time>2024-02-04T11:06:00Z</time>
      </trkpt>
      <trkpt lat="49.24608" lon="-0.10116">
        <ele>4.8</ele>
        <time>2024-02-04T11:06:01Z</time>
      </trkpt>
      <trkpt lat="49.24618" lon="-0.10124">
        <ele>4.6</ele>
        <time>2024-02-04T11:06:02Z</time>
      </trkpt>
      <trkpt lat="49.24628" lon="-0.10132">
        <ele>4.4</ele>
        <time>2024-02-04T11:06:03Z</time>
      </trkpt>
      <trkpt lat="49.24637" lon="-0.10139">
        <ele>4.3</ele>
        <time>2024-02-04T11:06:04Z</time>
      </trkpt>
      <trkpt lat="49.24647" lon="-0.10146">
        <ele>4.2</ele>
        <time>2024-02-04T11:06:05Z</time>
      </trkpt>
      <trkpt lat="49.24656" lon="-0.10154">
        <ele>4.2</ele>
        <time>2024-02-04T11:06:06Z</time>
      </trkpt>
      <trkpt lat="49.24665" lon="-0.10161">
        <ele>4.2</ele>
        <time>2024-02-04T11:06:07Z</time>
      </trkpt>
      <trkpt lat="49.24675" lon="-0.10167">
        <ele>4.2</ele>
        <time>2024-02-04T11:06:08Z</time>
      </trkpt>
      <trkpt lat="49.24683" lon="-0.10174">
        <ele>4.2</ele>
        <time>2024-02-04T11:06:09Z</time>
      </trkpt>
      <trkpt lat="49.24692" lon="-0.10181">
        <ele>4.3</ele>
        <time>2024-02-04T11:06:10Z</time>
      </trkpt>
      <trkpt lat="49.247" lon="-0.10187">
        <ele>4.3</ele>
        <time>2024-02-04T11:06:11Z</time>
      </trkpt>
      <trkpt lat="49.24709" lon="-0.10194">
        <ele>4.4</ele>
        <time>2024-02-04T11:06:12Z</time>
      </trkpt>
      <trkpt lat="49.24717" lon="-0.10201">
        <ele>4.5</ele>
        <time>2024-02-04T11:06:13Z</time>
      </trkpt>
      <trkpt lat="49.24725" lon="-0.10207">
        <ele>4.6</ele>
        <time>2024-02-04T11:06:14Z</time>
      </trkpt>
      <trkpt lat="49.24733" lon="-0.10213">
        <ele>4.7</ele>
        <time>2024-02-04T11:06:15Z</time>
      </trkpt>
      <trkpt lat="49.24741" lon="-0.10219">
        <ele>4.8</ele>
        <time>2024-02-04T11:06:16Z</time>
      </trkpt>
      <trkpt lat="49.24749" lon="-0.10226">
        <ele>4.9</ele>
        <time>2024-02-04T11:06:17Z</time>
      </trkpt>
      <trkpt lat="49.24756" lon="-0.10232">
        <ele>5</ele>
        <time>2024-02-04T11:06:18Z</time>
      </trkpt>
      <trkpt lat="49.24764" lon="-0.10238">
        <ele>5.1</ele>
        <time>2024-02-04T11:06:19Z</time>
      </trkpt>
      <trkpt lat="49.24771" lon="-0.10244">
        <ele>5.2</ele>
        <time>2024-02-04T11:06:20Z</time>
      </trkpt>
      <trkpt lat="49.24778" lon="-0.1025">
        <ele>5.4</ele>
        <time>2024-02-04T11:06:21Z</time>
      </trkpt>
      <trkpt lat="49.24785" lon="-0.10255">
        <ele>5.5</ele>
        <time>2024-02-04T11:06:22Z</time>
      </trkpt>
      <trkpt lat="49.24793" lon="-0.1026">
        <ele>5.6</ele>
        <time>2024-02-04T11:06:23Z</time>
      </trkpt>
      <trkpt lat="49.248" lon="-0.10265">
        <ele>5.7</ele>
        <time>2024-02-04T11:06:24Z</time>
      </trkpt>
      <trkpt lat="49.24807" lon="-0.1027">
        <ele>5.8</ele>
        <time>2024-02-04T11:06:25Z</time>
      </trkpt>
      <trkpt lat="49.2481" lon="-0.10274">
        <ele>5.8</ele>
        <time>2024-02-04T11:06:26Z</time>
      </trkpt>
      <trkpt lat="49.24811" lon="-0.10275">
        <ele>5.8</ele>
        <time>2024-02-04T11:06:27Z</time>
      </trkpt>
      <trkpt lat="49.24818" lon="-0.10279">
        <ele>5.9</ele>
        <time>2024-02-04T11:06:28Z</time>
      </trkpt>
      <trkpt lat="49.24827" lon="-0.10283">
        <ele>6</ele>
        <time>2024-02-04T11:06:29Z</time>
      </trkpt>
      <trkpt lat="49.24837" lon="-0.10286">
        <ele>6.1</ele>
        <time>2024-02-04T11:06:30Z</time>
      </trkpt>
      <trkpt lat="49.24847" lon="-0.10288">
        <ele>6.2</ele>
        <time>2024-02-04T11:06:31Z</time>
      </trkpt>
      <trkpt lat="49.24856" lon="-0.1029">
        <ele>6.2</ele>
        <time>2024-02-04T11:06:32Z</time>
      </trkpt>
      <trkpt lat="49.24865" lon="-0.10291">
        <ele>6.3</ele>
        <time>2024-02-04T11:06:33Z</time>
      </trkpt>
      <trkpt lat="49.24873" lon="-0.10291">
        <ele>6.4</ele>
        <time>2024-02-04T11:06:34Z</time>
      </trkpt>
      <trkpt lat="49.24882" lon="-0.10289">
        <ele>6.5</ele>
        <time>2024-02-04T11:06:35Z</time>
      </trkpt>
      <trkpt lat="49.2489" lon="-0.10286">
        <ele>6.5</ele>
        <time>2024-02-04T11:06:36Z</time>
      </trkpt>
      <trkpt lat="49.24898" lon="-0.10282">
        <ele>6.4</ele>
        <time>2024-02-04T11:06:37Z</time>
      </trkpt>
      <trkpt lat="49.24907" lon="-0.10277">
        <ele>6.4</ele>
        <time>2024-02-04T11:06:38Z</time>
      </trkpt>
      <trkpt lat="49.24915" lon="-0.10271">
        <ele>6.3</ele>
        <time>2024-02-04T11:06:39Z</time>
      </trkpt>
      <trkpt lat="49.24923" lon="-0.10264">
        <ele>6.2</ele>
        <time>2024-02-04T11:06:40Z</time>
      </trkpt>
      <trkpt lat="49.24929" lon="-0.10255">
        <ele>6</ele>
        <time>2024-02-04T11:06:41Z</time>
      </trkpt>
      <trkpt lat="49.24935" lon="-0.10245">
        <ele>5.9</ele>
        <time>2024-02-04T11:06:42Z</time>
      </trkpt>
      <trkpt lat="49.24941" lon="-0.10234">
        <ele>5.8</ele>
        <time>2024-02-04T11:06:43Z</time>
      </trkpt>
      <trkpt lat="49.24946" lon="-0.10223">
        <ele>5.7</ele>
        <time>2024-02-04T11:06:44Z</time>
      </trkpt>
      <trkpt lat="49.24951" lon="-0.10212">
        <ele>5.7</ele>
        <time>2024-02-04T11:06:45Z</time>
      </trkpt>
      <trkpt lat="49.24957" lon="-0.10201">
        <ele>5.6</ele>
        <time>2024-02-04T11:06:46Z</time>
      </trkpt>
      <trkpt lat="49.24961" lon="-0.10189">
        <ele>5.6</ele>
        <time>2024-02-04T11:06:47Z</time>
      </trkpt>
      <trkpt lat="49.24965" lon="-0.10177">
        <ele>5.6</ele>
        <time>2024-02-04T11:06:48Z</time>
      </trkpt>
      <trkpt lat="49.2497" lon="-0.10165">
        <ele>5.6</ele>
        <time>2024-02-04T11:06:49Z</time>
      </trkpt>
      <trkpt lat="49.24974" lon="-0.10154">
        <ele>5.6</ele>
        <time>2024-02-04T11:06:50Z</time>
      </trkpt>
      <trkpt lat="49.24977" lon="-0.10142">
        <ele>5.5</ele>
        <time>2024-02-04T11:06:51Z</time>
      </trkpt>
      <trkpt lat="49.24981" lon="-0.10131">
        <ele>5.4</ele>
        <time>2024-02-04T11:06:52Z</time>
      </trkpt>
      <trkpt lat="49.24985" lon="-0.10119">
        <ele>5.4</ele>
        <time>2024-02-04T11:06:53Z</time>
      </trkpt>
      <trkpt lat="49.24989" lon="-0.10107">
        <ele>5.3</ele>
        <time>2024-02-04T11:06:54Z</time>
      </trkpt>
      <trkpt lat="49.24994" lon="-0.10095">
        <ele>5.2</ele>
        <time>2024-02-04T11:06:55Z</time>
      </trkpt>
      <trkpt lat="49.24998" lon="-0.10084">
        <ele>5.1</ele>
        <time>2024-02-04T11:06:56Z</time>
      </trkpt>
      <trkpt lat="49.25003" lon="-0.10072">
        <ele>5.1</ele>
        <time>2024-02-04T11:06:57Z</time>
      </trkpt>
      <trkpt lat="49.25007" lon="-0.10062">
        <ele>5</ele>
        <time>2024-02-04T11:06:58Z</time>
      </trkpt>
      <trkpt lat="49.25011" lon="-0.10051">
        <ele>5</ele>
        <time>2024-02-04T11:06:59Z</time>
      </trkpt>
      <trkpt lat="49.25015" lon="-0.1004">
        <ele>4.9</ele>
        <time>2024-02-04T11:07:00Z</time>
      </trkpt>
      <trkpt lat="49.25019" lon="-0.10028">
        <ele>4.9</ele>
        <time>2024-02-04T11:07:01Z</time>
      </trkpt>
      <trkpt lat="49.25023" lon="-0.10017">
        <ele>4.8</ele>
        <time>2024-02-04T11:07:02Z</time>
      </trkpt>
      <trkpt lat="49.25028" lon="-0.10006">
        <ele>4.7</ele>
        <time>2024-02-04T11:07:03Z</time>
      </trkpt>
      <trkpt lat="49.25033" lon="-0.09995">
        <ele>4.6</ele>
        <time>2024-02-04T11:07:04Z</time>
      </trkpt>
      <trkpt lat="49.25037" lon="-0.09983">
        <ele>4.5</ele>
        <time>2024-02-04T11:07:05Z</time>
      </trkpt>
      <trkpt lat="49.25042" lon="-0.09972">
        <ele>4.5</ele>
        <time>2024-02-04T11:07:06Z</time>
      </trkpt>
      <trkpt lat="49.25046" lon="-0.0996">
        <ele>4.4</ele>
        <time>2024-02-04T11:07:07Z</time>
      </trkpt>
      <trkpt lat="49.25051" lon="-0.09949">
        <ele>4.4</ele>
        <time>2024-02-04T11:07:08Z</time>
      </trkpt>
      <trkpt lat="49.25055" lon="-0.09937">
        <ele>4.4</ele>
        <time>2024-02-04T11:07:09Z</time>
      </trkpt>
      <trkpt lat="49.25059" lon="-0.09925">
        <ele>4.4</ele>
        <time>2024-02-04T11:07:10Z</time>
      </trkpt>
      <trkpt lat="49.25063" lon="-0.09914">
        <ele>4.3</ele>
        <time>2024-02-04T11:07:11Z</time>
      </trkpt>
      <trkpt lat="49.25068" lon="-0.09902">
        <ele>4.3</ele>
        <time>2024-02-04T11:07:12Z</time>
      </trkpt>
      <trkpt lat="49.25072" lon="-0.09891">
        <ele>4.2</ele>
        <time>2024-02-04T11:07:13Z</time>
      </trkpt>
      <trkpt lat="49.25077" lon="-0.09879">
        <ele>4.2</ele>
        <time>2024-02-04T11:07:14Z</time>
      </trkpt>
      <trkpt lat="49.25081" lon="-0.09868">
        <ele>4.2</ele>
        <time>2024-02-04T11:07:15Z</time>
      </trkpt>
      <trkpt lat="49.25085" lon="-0.09856">
        <ele>4.2</ele>
        <time>2024-02-04T11:07:16Z</time>
      </trkpt>
      <trkpt lat="49.25089" lon="-0.09844">
        <ele>4.2</ele>
        <time>2024-02-04T11:07:17Z</time>
      </trkpt>
      <trkpt lat="49.25094" lon="-0.09833">
        <ele>4.2</ele>
        <time>2024-02-04T11:07:18Z</time>
      </trkpt>
      <trkpt lat="49.25098" lon="-0.09822">
        <ele>4.2</ele>
        <time>2024-02-04T11:07:19Z</time>
      </trkpt>
      <trkpt lat="49.25102" lon="-0.09811">
        <ele>4.2</ele>
        <time>2024-02-04T11:07:20Z</time>
      </trkpt>
      <trkpt lat="49.25106" lon="-0.098">
        <ele>4.3</ele>
        <time>2024-02-04T11:07:21Z</time>
      </trkpt>
      <trkpt lat="49.2511" lon="-0.09789">
        <ele>4.3</ele>
        <time>2024-02-04T11:07:22Z</time>
      </trkpt>
      <trkpt lat="49.25115" lon="-0.09778">
        <ele>4.4</ele>
        <time>2024-02-04T11:07:23Z</time>
      </trkpt>
      <trkpt lat="49.2512" lon="-0.09768">
        <ele>4.4</ele>
        <time>2024-02-04T11:07:24Z</time>
      </trkpt>
      <trkpt lat="49.25125" lon="-0.09758">
        <ele>4.4</ele>
        <time>2024-02-04T11:07:25Z</time>
      </trkpt>
      <trkpt lat="49.2513" lon="-0.09749">
        <ele>4.6</ele>
        <time>2024-02-04T11:07:26Z</time>
      </trkpt>
      <trkpt lat="49.25137" lon="-0.09741">
        <ele>4.7</ele>
        <time>2024-02-04T11:07:27Z</time>
      </trkpt>
      <trkpt lat="49.25143" lon="-0.09734">
        <ele>4.7</ele>
        <time>2024-02-04T11:07:28Z</time>
      </trkpt>
      <trkpt lat="49.25151" lon="-0.09729">
        <ele>4.8</ele>
        <time>2024-02-04T11:07:29Z</time>
      </trkpt>
      <trkpt lat="49.25159" lon="-0.09726">
        <ele>4.8</ele>
        <time>2024-02-04T11:07:30Z</time>
      </trkpt>
      <trkpt lat="49.25166" lon="-0.09723">
        <ele>4.9</ele>
        <time>2024-02-04T11:07:31Z</time>
      </trkpt>
      <trkpt lat="49.25174" lon="-0.0972">
        <ele>5</ele>
        <time>2024-02-04T11:07:32Z</time>
      </trkpt>
      <trkpt lat="49.25182" lon="-0.09717">
        <ele>5.1</ele>
        <time>2024-02-04T11:07:33Z</time>
      </trkpt>
      <trkpt lat="49.2519" lon="-0.09714">
        <ele>5.2</ele>
        <time>2024-02-04T11:07:34Z</time>
      </trkpt>
      <trkpt lat="49.25198" lon="-0.09711">
        <ele>5.3</ele>
        <time>2024-02-04T11:07:35Z</time>
      </trkpt>
      <trkpt lat="49.25206" lon="-0.09708">
        <ele>5.4</ele>
        <time>2024-02-04T11:07:36Z</time>
      </trkpt>
      <trkpt lat="49.25214" lon="-0.09704">
        <ele>5.5</ele>
        <time>2024-02-04T11:07:37Z</time>
      </trkpt>
      <trkpt lat="49.25222" lon="-0.09701">
        <ele>5.5</ele>
        <time>2024-02-04T11:07:38Z</time>
      </trkpt>
      <trkpt lat="49.2523" lon="-0.09698">
        <ele>5.6</ele>
        <time>2024-02-04T11:07:39Z</time>
      </trkpt>
      <trkpt lat="49.25238" lon="-0.09694">
        <ele>5.6</ele>
        <time>2024-02-04T11:07:40Z</time>
      </trkpt>
      <trkpt lat="49.25246" lon="-0.0969">
        <ele>5.6</ele>
        <time>2024-02-04T11:07:41Z</time>
      </trkpt>
      <trkpt lat="49.25254" lon="-0.09685">
        <ele>5.6</ele>
        <time>2024-02-04T11:07:42Z</time>
      </trkpt>
      <trkpt lat="49.25262" lon="-0.09679">
        <ele>5.6</ele>
        <time>2024-02-04T11:07:43Z</time>
      </trkpt>
      <trkpt lat="49.25269" lon="-0.09672">
        <ele>5.5</ele>
        <time>2024-02-04T11:07:44Z</time>
      </trkpt>
      <trkpt lat="49.25277" lon="-0.09665">
        <ele>5.5</ele>
        <time>2024-02-04T11:07:45Z</time>
      </trkpt>
      <trkpt lat="49.25285" lon="-0.09658">
        <ele>5.5</ele>
        <time>2024-02-04T11:07:46Z</time>
      </trkpt>
      <trkpt lat="49.25292" lon="-0.0965">
        <ele>5.4</ele>
        <time>2024-02-04T11:07:47Z</time>
      </trkpt>
      <trkpt lat="49.253" lon="-0.09643">
        <ele>5.4</ele>
        <time>2024-02-04T11:07:48Z</time>
      </trkpt>
      <trkpt lat="49.25308" lon="-0.09637">
        <ele>5.3</ele>
        <time>2024-02-04T11:07:49Z</time>
      </trkpt>
      <trkpt lat="49.25317" lon="-0.09632">
        <ele>5.3</ele>
        <time>2024-02-04T11:07:50Z</time>
      </trkpt>
      <trkpt lat="49.25326" lon="-0.09628">
        <ele>5.2</ele>
        <time>2024-02-04T11:07:51Z</time>
      </trkpt>
      <trkpt lat="49.25334" lon="-0.09625">
        <ele>5.2</ele>
        <time>2024-02-04T11:07:52Z</time>
      </trkpt>
      <trkpt lat="49.25343" lon="-0.09623">
        <ele>5.2</ele>
        <time>2024-02-04T11:07:53Z</time>
      </trkpt>
      <trkpt lat="49.25353" lon="-0.09621">
        <ele>5.2</ele>
        <time>2024-02-04T11:07:54Z</time>
      </trkpt>
      <trkpt lat="49.25362" lon="-0.0962">
        <ele>5.1</ele>
        <time>2024-02-04T11:07:55Z</time>
      </trkpt>
      <trkpt lat="49.25371" lon="-0.09618">
        <ele>5.1</ele>
        <time>2024-02-04T11:07:56Z</time>
      </trkpt>
      <trkpt lat="49.2538" lon="-0.09617">
        <ele>5.2</ele>
        <time>2024-02-04T11:07:57Z</time>
      </trkpt>
      <trkpt lat="49.25388" lon="-0.09615">
        <ele>5.2</ele>
        <time>2024-02-04T11:07:58Z</time>
      </trkpt>
      <trkpt lat="49.25397" lon="-0.09613">
        <ele>5.2</ele>
        <time>2024-02-04T11:07:59Z</time>
      </trkpt>
      <trkpt lat="49.25406" lon="-0.09612">
        <ele>5.2</ele>
        <time>2024-02-04T11:08:00Z</time>
      </trkpt>
      <trkpt lat="49.25415" lon="-0.0961">
        <ele>5.3</ele>
        <time>2024-02-04T11:08:01Z</time>
      </trkpt>
      <trkpt lat="49.25424" lon="-0.09608">
        <ele>5.3</ele>
        <time>2024-02-04T11:08:02Z</time>
      </trkpt>
      <trkpt lat="49.25432" lon="-0.09606">
        <ele>5.4</ele>
        <time>2024-02-04T11:08:03Z</time>
      </trkpt>
      <trkpt lat="49.25441" lon="-0.09604">
        <ele>5.5</ele>
        <time>2024-02-04T11:08:04Z</time>
      </trkpt>
      <trkpt lat="49.25449" lon="-0.09602">
        <ele>5.6</ele>
        <time>2024-02-04T11:08:05Z</time>
      </trkpt>
      <trkpt lat="49.25457" lon="-0.096">
        <ele>5.7</ele>
        <time>2024-02-04T11:08:06Z</time>
      </trkpt>
      <trkpt lat="49.25466" lon="-0.09598">
        <ele>5.7</ele>
        <time>2024-02-04T11:08:07Z</time>
      </trkpt>
      <trkpt lat="49.25474" lon="-0.09597">
        <ele>5.8</ele>
        <time>2024-02-04T11:08:08Z</time>
      </trkpt>
      <trkpt lat="49.25482" lon="-0.09596">
        <ele>5.8</ele>
        <time>2024-02-04T11:08:09Z</time>
      </trkpt>
      <trkpt lat="49.25491" lon="-0.09595">
        <ele>5.9</ele>
        <time>2024-02-04T11:08:10Z</time>
      </trkpt>
      <trkpt lat="49.25499" lon="-0.09595">
        <ele>6</ele>
        <time>2024-02-04T11:08:11Z</time>
      </trkpt>
      <trkpt lat="49.25507" lon="-0.09594">
        <ele>6.1</ele>
        <time>2024-02-04T11:08:12Z</time>
      </trkpt>
      <trkpt lat="49.25516" lon="-0.09594">
        <ele>6.2</ele>
        <time>2024-02-04T11:08:13Z</time>
      </trkpt>
      <trkpt lat="49.25524" lon="-0.09593">
        <ele>6.3</ele>
        <time>2024-02-04T11:08:14Z</time>
      </trkpt>
      <trkpt lat="49.25533" lon="-0.09593">
        <ele>6.4</ele>
        <time>2024-02-04T11:08:15Z</time>
      </trkpt>
      <trkpt lat="49.25542" lon="-0.09593">
        <ele>6.5</ele>
        <time>2024-02-04T11:08:16Z</time>
      </trkpt>
      <trkpt lat="49.2555" lon="-0.09593">
        <ele>6.6</ele>
        <time>2024-02-04T11:08:17Z</time>
      </trkpt>
      <trkpt lat="49.25559" lon="-0.09594">
        <ele>6.7</ele>
        <time>2024-02-04T11:08:18Z</time>
      </trkpt>
      <trkpt lat="49.25568" lon="-0.09594">
        <ele>6.8</ele>
        <time>2024-02-04T11:08:19Z</time>
      </trkpt>
      <trkpt lat="49.25576" lon="-0.09595">
        <ele>6.9</ele>
        <time>2024-02-04T11:08:20Z</time>
      </trkpt>
      <trkpt lat="49.25585" lon="-0.09595">
        <ele>7</ele>
        <time>2024-02-04T11:08:21Z</time>
      </trkpt>
      <trkpt lat="49.25593" lon="-0.09595">
        <ele>7</ele>
        <time>2024-02-04T11:08:22Z</time>
      </trkpt>
      <trkpt lat="49.25601" lon="-0.09594">
        <ele>7.1</ele>
        <time>2024-02-04T11:08:23Z</time>
      </trkpt>
      <trkpt lat="49.2561" lon="-0.09594">
        <ele>7.1</ele>
        <time>2024-02-04T11:08:24Z</time>
      </trkpt>
      <trkpt lat="49.25618" lon="-0.09593">
        <ele>7.2</ele>
        <time>2024-02-04T11:08:25Z</time>
      </trkpt>
      <trkpt lat="49.25627" lon="-0.09591">
        <ele>7.2</ele>
        <time>2024-02-04T11:08:26Z</time>
      </trkpt>
      <trkpt lat="49.25635" lon="-0.09588">
        <ele>7.3</ele>
        <time>2024-02-04T11:08:27Z</time>
      </trkpt>
      <trkpt lat="49.25643" lon="-0.09584">
        <ele>7.3</ele>
        <time>2024-02-04T11:08:28Z</time>
      </trkpt>
      <trkpt lat="49.25652" lon="-0.0958">
        <ele>7.4</ele>
        <time>2024-02-04T11:08:29Z</time>
      </trkpt>
      <trkpt lat="49.2566" lon="-0.09575">
        <ele>7.4</ele>
        <time>2024-02-04T11:08:30Z</time>
      </trkpt>
      <trkpt lat="49.25668" lon="-0.0957">
        <ele>7.5</ele>
        <time>2024-02-04T11:08:31Z</time>
      </trkpt>
      <trkpt lat="49.25675" lon="-0.09564">
        <ele>7.5</ele>
        <time>2024-02-04T11:08:32Z</time>
      </trkpt>
      <trkpt lat="49.25683" lon="-0.09558">
        <ele>7.6</ele>
        <time>2024-02-04T11:08:33Z</time>
      </trkpt>
      <trkpt lat="49.2569" lon="-0.09552">
        <ele>7.6</ele>
        <time>2024-02-04T11:08:34Z</time>
      </trkpt>
      <trkpt lat="49.25698" lon="-0.09547">
        <ele>7.7</ele>
        <time>2024-02-04T11:08:35Z</time>
      </trkpt>
      <trkpt lat="49.25706" lon="-0.09541">
        <ele>7.7</ele>
        <time>2024-02-04T11:08:36Z</time>
      </trkpt>
      <trkpt lat="49.25713" lon="-0.09536">
        <ele>7.8</ele>
        <time>2024-02-04T11:08:37Z</time>
      </trkpt>
      <trkpt lat="49.25721" lon="-0.09531">
        <ele>7.8</ele>
        <time>2024-02-04T11:08:38Z</time>
      </trkpt>
      <trkpt lat="49.25728" lon="-0.09525">
        <ele>7.9</ele>
        <time>2024-02-04T11:08:39Z</time>
      </trkpt>
      <trkpt lat="49.25735" lon="-0.0952">
        <ele>7.9</ele>
        <time>2024-02-04T11:08:40Z</time>
      </trkpt>
      <trkpt lat="49.25742" lon="-0.09515">
        <ele>8</ele>
        <time>2024-02-04T11:08:41Z</time>
      </trkpt>
      <trkpt lat="49.2575" lon="-0.0951">
        <ele>8.1</ele>
        <time>2024-02-04T11:08:42Z</time>
      </trkpt>
      <trkpt lat="49.25757" lon="-0.09505">
        <ele>8.1</ele>
        <time>2024-02-04T11:08:43Z</time>
      </trkpt>
      <trkpt lat="49.25764" lon="-0.09499">
        <ele>8.3</ele>
        <time>2024-02-04T11:08:44Z</time>
      </trkpt>
      <trkpt lat="49.25772" lon="-0.09494">
        <ele>8.4</ele>
        <time>2024-02-04T11:08:45Z</time>
      </trkpt>
      <trkpt lat="49.25779" lon="-0.09489">
        <ele>8.5</ele>
        <time>2024-02-04T11:08:46Z</time>
      </trkpt>
      <trkpt lat="49.25785" lon="-0.09486">
        <ele>8.4</ele>
        <time>2024-02-04T11:08:47Z</time>
      </trkpt>
      <trkpt lat="49.25792" lon="-0.09483">
        <ele>8.4</ele>
        <time>2024-02-04T11:08:48Z</time>
      </trkpt>
      <trkpt lat="49.25798" lon="-0.09481">
        <ele>8.4</ele>
        <time>2024-02-04T11:08:49Z</time>
      </trkpt>
      <trkpt lat="49.25805" lon="-0.0948">
        <ele>8.4</ele>
        <time>2024-02-04T11:08:50Z</time>
      </trkpt>
      <trkpt lat="49.25811" lon="-0.09478">
        <ele>8.4</ele>
        <time>2024-02-04T11:08:51Z</time>
      </trkpt>
      <trkpt lat="49.25818" lon="-0.09477">
        <ele>8.4</ele>
        <time>2024-02-04T11:08:52Z</time>
      </trkpt>
      <trkpt lat="49.25824" lon="-0.09476">
        <ele>8.4</ele>
        <time>2024-02-04T11:08:53Z</time>
      </trkpt>
      <trkpt lat="49.2583" lon="-0.09477">
        <ele>8.5</ele>
        <time>2024-02-04T11:08:54Z</time>
      </trkpt>
      <trkpt lat="49.25834" lon="-0.09478">
        <ele>8.5</ele>
        <time>2024-02-04T11:08:55Z</time>
      </trkpt>
      <trkpt lat="49.25838" lon="-0.09479">
        <ele>8.5</ele>
        <time>2024-02-04T11:08:56Z</time>
      </trkpt>
      <trkpt lat="49.25842" lon="-0.09479">
        <ele>8.5</ele>
        <time>2024-02-04T11:08:57Z</time>
      </trkpt>
      <trkpt lat="49.25847" lon="-0.0948">
        <ele>8.4</ele>
        <time>2024-02-04T11:08:58Z</time>
      </trkpt>
      <trkpt lat="49.2585" lon="-0.0948">
        <ele>8.4</ele>
        <time>2024-02-04T11:08:59Z</time>
      </trkpt>
      <trkpt lat="49.25855" lon="-0.09479">
        <ele>8.4</ele>
        <time>2024-02-04T11:09:00Z</time>
      </trkpt>
      <trkpt lat="49.25859" lon="-0.09479">
        <ele>8.4</ele>
        <time>2024-02-04T11:09:01Z</time>
      </trkpt>
      <trkpt lat="49.25864" lon="-0.0948">
        <ele>8.4</ele>
        <time>2024-02-04T11:09:02Z</time>
      </trkpt>
      <trkpt lat="49.25868" lon="-0.09481">
        <ele>8.4</ele>
        <time>2024-02-04T11:09:03Z</time>
      </trkpt>
      <trkpt lat="49.25873" lon="-0.09482">
        <ele>8.4</ele>
        <time>2024-02-04T11:09:04Z</time>
      </trkpt>
      <trkpt lat="49.25878" lon="-0.09483">
        <ele>8.4</ele>
        <time>2024-02-04T11:09:05Z</time>
      </trkpt>
      <trkpt lat="49.25883" lon="-0.09483">
        <ele>8.5</ele>
        <time>2024-02-04T11:09:06Z</time>
      </trkpt>
      <trkpt lat="49.25888" lon="-0.09484">
        <ele>8.6</ele>
        <time>2024-02-04T11:09:07Z</time>
      </trkpt>
      <trkpt lat="49.25893" lon="-0.09485">
        <ele>8.7</ele>
        <time>2024-02-04T11:09:08Z</time>
      </trkpt>
      <trkpt lat="49.25898" lon="-0.09486">
        <ele>8.8</ele>
        <time>2024-02-04T11:09:09Z</time>
      </trkpt>
      <trkpt lat="49.25903" lon="-0.09487">
        <ele>8.9</ele>
        <time>2024-02-04T11:09:10Z</time>
      </trkpt>
      <trkpt lat="49.25908" lon="-0.09487">
        <ele>9.1</ele>
        <time>2024-02-04T11:09:11Z</time>
      </trkpt>
      <trkpt lat="49.25913" lon="-0.09488">
        <ele>9.2</ele>
        <time>2024-02-04T11:09:12Z</time>
      </trkpt>
      <trkpt lat="49.25919" lon="-0.09488">
        <ele>9.4</ele>
        <time>2024-02-04T11:09:13Z</time>
      </trkpt>
      <trkpt lat="49.25925" lon="-0.09488">
        <ele>9.6</ele>
        <time>2024-02-04T11:09:14Z</time>
      </trkpt>
      <trkpt lat="49.2593" lon="-0.09489">
        <ele>9.8</ele>
        <time>2024-02-04T11:09:15Z</time>
      </trkpt>
      <trkpt lat="49.25936" lon="-0.09489">
        <ele>10</ele>
        <time>2024-02-04T11:09:16Z</time>
      </trkpt>
      <trkpt lat="49.25941" lon="-0.09488">
        <ele>10.1</ele>
        <time>2024-02-04T11:09:17Z</time>
      </trkpt>
      <trkpt lat="49.25947" lon="-0.09488">
        <ele>10.4</ele>
        <time>2024-02-04T11:09:18Z</time>
      </trkpt>
      <trkpt lat="49.25952" lon="-0.09488">
        <ele>10.5</ele>
        <time>2024-02-04T11:09:19Z</time>
      </trkpt>
      <trkpt lat="49.25958" lon="-0.09486">
        <ele>10.7</ele>
        <time>2024-02-04T11:09:20Z</time>
      </trkpt>
      <trkpt lat="49.25963" lon="-0.09484">
        <ele>10.9</ele>
        <time>2024-02-04T11:09:21Z</time>
      </trkpt>
      <trkpt lat="49.25968" lon="-0.09482">
        <ele>11.2</ele>
        <time>2024-02-04T11:09:22Z</time>
      </trkpt>
      <trkpt lat="49.25974" lon="-0.0948">
        <ele>11.4</ele>
        <time>2024-02-04T11:09:23Z</time>
      </trkpt>
      <trkpt lat="49.25979" lon="-0.09478">
        <ele>11.5</ele>
        <time>2024-02-04T11:09:24Z</time>
      </trkpt>
      <trkpt lat="49.25985" lon="-0.09476">
        <ele>11.6</ele>
        <time>2024-02-04T11:09:25Z</time>
      </trkpt>
      <trkpt lat="49.2599" lon="-0.09474">
        <ele>11.7</ele>
        <time>2024-02-04T11:09:26Z</time>
      </trkpt>
      <trkpt lat="49.25996" lon="-0.09472">
        <ele>11.8</ele>
        <time>2024-02-04T11:09:27Z</time>
      </trkpt>
      <trkpt lat="49.26001" lon="-0.09471">
        <ele>11.9</ele>
        <time>2024-02-04T11:09:28Z</time>
      </trkpt>
      <trkpt lat="49.26007" lon="-0.09469">
        <ele>12</ele>
        <time>2024-02-04T11:09:29Z</time>
      </trkpt>
      <trkpt lat="49.26012" lon="-0.09467">
        <ele>12.1</ele>
        <time>2024-02-04T11:09:30Z</time>
      </trkpt>
      <trkpt lat="49.26018" lon="-0.09466">
        <ele>12.1</ele>
        <time>2024-02-04T11:09:31Z</time>
      </trkpt>
      <trkpt lat="49.26024" lon="-0.09465">
        <ele>12.1</ele>
        <time>2024-02-04T11:09:32Z</time>
      </trkpt>
      <trkpt lat="49.2603" lon="-0.09463">
        <ele>12.2</ele>
        <time>2024-02-04T11:09:33Z</time>
      </trkpt>
      <trkpt lat="49.26036" lon="-0.09462">
        <ele>12.2</ele>
        <time>2024-02-04T11:09:34Z</time>
      </trkpt>
      <trkpt lat="49.26043" lon="-0.09461">
        <ele>12.1</ele>
        <time>2024-02-04T11:09:35Z</time>
      </trkpt>
      <trkpt lat="49.26049" lon="-0.09459">
        <ele>12.1</ele>
        <time>2024-02-04T11:09:36Z</time>
      </trkpt>
      <trkpt lat="49.26055" lon="-0.09458">
        <ele>12.1</ele>
        <time>2024-02-04T11:09:37Z</time>
      </trkpt>
      <trkpt lat="49.26062" lon="-0.09456">
        <ele>12</ele>
        <time>2024-02-04T11:09:38Z</time>
      </trkpt>
      <trkpt lat="49.26069" lon="-0.09455">
        <ele>12</ele>
        <time>2024-02-04T11:09:39Z</time>
      </trkpt>
      <trkpt lat="49.26076" lon="-0.09454">
        <ele>11.9</ele>
        <time>2024-02-04T11:09:40Z</time>
      </trkpt>
      <trkpt lat="49.26083" lon="-0.09452">
        <ele>11.9</ele>
        <time>2024-02-04T11:09:41Z</time>
      </trkpt>
      <trkpt lat="49.2609" lon="-0.09451">
        <ele>11.9</ele>
        <time>2024-02-04T11:09:42Z</time>
      </trkpt>
      <trkpt lat="49.26096" lon="-0.0945">
        <ele>11.9</ele>
        <time>2024-02-04T11:09:43Z</time>
      </trkpt>
      <trkpt lat="49.26103" lon="-0.09448">
        <ele>11.9</ele>
        <time>2024-02-04T11:09:44Z</time>
      </trkpt>
      <trkpt lat="49.2611" lon="-0.09447">
        <ele>11.9</ele>
        <time>2024-02-04T11:09:45Z</time>
      </trkpt>
      <trkpt lat="49.26117" lon="-0.09445">
        <ele>11.8</ele>
        <time>2024-02-04T11:09:46Z</time>
      </trkpt>
      <trkpt lat="49.26124" lon="-0.09444">
        <ele>11.8</ele>
        <time>2024-02-04T11:09:47Z</time>
      </trkpt>
      <trkpt lat="49.26131" lon="-0.09443">
        <ele>11.8</ele>
        <time>2024-02-04T11:09:48Z</time>
      </trkpt>
      <trkpt lat="49.26138" lon="-0.09443">
        <ele>11.8</ele>
        <time>2024-02-04T11:09:49Z</time>
      </trkpt>
      <trkpt lat="49.26145" lon="-0.09443">
        <ele>11.7</ele>
        <time>2024-02-04T11:09:50Z</time>
      </trkpt>
      <trkpt lat="49.26152" lon="-0.09442">
        <ele>11.6</ele>
        <time>2024-02-04T11:09:51Z</time>
      </trkpt>
      <trkpt lat="49.2616" lon="-0.09443">
        <ele>11.5</ele>
        <time>2024-02-04T11:09:52Z</time>
      </trkpt>
      <trkpt lat="49.26167" lon="-0.09446">
        <ele>11.3</ele>
        <time>2024-02-04T11:09:53Z</time>
      </trkpt>
      <trkpt lat="49.26174" lon="-0.09449">
        <ele>11.2</ele>
        <time>2024-02-04T11:09:54Z</time>
      </trkpt>
      <trkpt lat="49.26181" lon="-0.09453">
        <ele>11.1</ele>
        <time>2024-02-04T11:09:55Z</time>
      </trkpt>
      <trkpt lat="49.26189" lon="-0.09458">
        <ele>11.1</ele>
        <time>2024-02-04T11:09:56Z</time>
      </trkpt>
      <trkpt lat="49.26196" lon="-0.09462">
        <ele>11</ele>
        <time>2024-02-04T11:09:57Z</time>
      </trkpt>
      <trkpt lat="49.26204" lon="-0.09466">
        <ele>11</ele>
        <time>2024-02-04T11:09:58Z</time>
      </trkpt>
      <trkpt lat="49.26211" lon="-0.09466">
        <ele>11</ele>
        <time>2024-02-04T11:09:59Z</time>
      </trkpt>
      <trkpt lat="49.26219" lon="-0.09466">
        <ele>10.9</ele>
        <time>2024-02-04T11:10:00Z</time>
      </trkpt>
      <trkpt lat="49.26226" lon="-0.09464">
        <ele>10.9</ele>
        <time>2024-02-04T11:10:01Z</time>
      </trkpt>
      <trkpt lat="49.26233" lon="-0.09462">
        <ele>11</ele>
        <time>2024-02-04T11:10:02Z</time>
      </trkpt>
      <trkpt lat="49.2624" lon="-0.09458">
        <ele>11</ele>
        <time>2024-02-04T11:10:03Z</time>
      </trkpt>
      <trkpt lat="49.26247" lon="-0.09455">
        <ele>11.2</ele>
        <time>2024-02-04T11:10:04Z</time>
      </trkpt>
      <trkpt lat="49.26253" lon="-0.09452">
        <ele>11.3</ele>
        <time>2024-02-04T11:10:05Z</time>
      </trkpt>
      <trkpt lat="49.26259" lon="-0.09447">
        <ele>11.5</ele>
        <time>2024-02-04T11:10:06Z</time>
      </trkpt>
      <trkpt lat="49.26265" lon="-0.09444">
        <ele>11.7</ele>
        <time>2024-02-04T11:10:07Z</time>
      </trkpt>
      <trkpt lat="49.2627" lon="-0.09439">
        <ele>11.9</ele>
        <time>2024-02-04T11:10:08Z</time>
      </trkpt>
      <trkpt lat="49.26276" lon="-0.09436">
        <ele>12</ele>
        <time>2024-02-04T11:10:09Z</time>
      </trkpt>
      <trkpt lat="49.26282" lon="-0.09432">
        <ele>12.2</ele>
        <time>2024-02-04T11:10:10Z</time>
      </trkpt>
      <trkpt lat="49.26287" lon="-0.09429">
        <ele>12.4</ele>
        <time>2024-02-04T11:10:11Z</time>
      </trkpt>
      <trkpt lat="49.26293" lon="-0.09426">
        <ele>12.6</ele>
        <time>2024-02-04T11:10:12Z</time>
      </trkpt>
      <trkpt lat="49.26299" lon="-0.09423">
        <ele>12.8</ele>
        <time>2024-02-04T11:10:13Z</time>
      </trkpt>
      <trkpt lat="49.26304" lon="-0.0942">
        <ele>13.1</ele>
        <time>2024-02-04T11:10:14Z</time>
      </trkpt>
      <trkpt lat="49.26311" lon="-0.09418">
        <ele>13.3</ele>
        <time>2024-02-04T11:10:15Z</time>
      </trkpt>
      <trkpt lat="49.26317" lon="-0.09416">
        <ele>13.5</ele>
        <time>2024-02-04T11:10:16Z</time>
      </trkpt>
      <trkpt lat="49.26323" lon="-0.09414">
        <ele>13.7</ele>
        <time>2024-02-04T11:10:17Z</time>
      </trkpt>
      <trkpt lat="49.26328" lon="-0.09413">
        <ele>13.9</ele>
        <time>2024-02-04T11:10:18Z</time>
      </trkpt>
      <trkpt lat="49.26334" lon="-0.09411">
        <ele>14.1</ele>
        <time>2024-02-04T11:10:19Z</time>
      </trkpt>
      <trkpt lat="49.2634" lon="-0.0941">
        <ele>14.2</ele>
        <time>2024-02-04T11:10:20Z</time>
      </trkpt>
      <trkpt lat="49.26346" lon="-0.09409">
        <ele>14.4</ele>
        <time>2024-02-04T11:10:21Z</time>
      </trkpt>
      <trkpt lat="49.26352" lon="-0.09409">
        <ele>14.6</ele>
        <time>2024-02-04T11:10:22Z</time>
      </trkpt>
      <trkpt lat="49.26359" lon="-0.09409">
        <ele>14.8</ele>
        <time>2024-02-04T11:10:23Z</time>
      </trkpt>
      <trkpt lat="49.26365" lon="-0.09409">
        <ele>14.9</ele>
        <time>2024-02-04T11:10:24Z</time>
      </trkpt>
      <trkpt lat="49.26371" lon="-0.0941">
        <ele>15.1</ele>
        <time>2024-02-04T11:10:25Z</time>
      </trkpt>
      <trkpt lat="49.26378" lon="-0.0941">
        <ele>15.2</ele>
        <time>2024-02-04T11:10:26Z</time>
      </trkpt>
      <trkpt lat="49.26386" lon="-0.0941">
        <ele>15.3</ele>
        <time>2024-02-04T11:10:27Z</time>
      </trkpt>
      <trkpt lat="49.26393" lon="-0.0941">
        <ele>15.5</ele>
        <time>2024-02-04T11:10:28Z</time>
      </trkpt>
      <trkpt lat="49.264" lon="-0.09411">
        <ele>15.6</ele>
        <time>2024-02-04T11:10:29Z</time>
      </trkpt>
      <trkpt lat="49.26407" lon="-0.09411">
        <ele>15.7</ele>
        <time>2024-02-04T11:10:30Z</time>
      </trkpt>
      <trkpt lat="49.26414" lon="-0.09411">
        <ele>15.7</ele>
        <time>2024-02-04T11:10:31Z</time>
      </trkpt>
      <trkpt lat="49.26421" lon="-0.09411">
        <ele>15.8</ele>
        <time>2024-02-04T11:10:32Z</time>
      </trkpt>
      <trkpt lat="49.26428" lon="-0.09411">
        <ele>15.8</ele>
        <time>2024-02-04T11:10:33Z</time>
      </trkpt>
      <trkpt lat="49.26435" lon="-0.09412">
        <ele>15.8</ele>
        <time>2024-02-04T11:10:34Z</time>
      </trkpt>
      <trkpt lat="49.26442" lon="-0.09412">
        <ele>15.8</ele>
        <time>2024-02-04T11:10:35Z</time>
      </trkpt>
      <trkpt lat="49.26449" lon="-0.09413">
        <ele>15.8</ele>
        <time>2024-02-04T11:10:36Z</time>
      </trkpt>
      <trkpt lat="49.26456" lon="-0.09414">
        <ele>15.7</ele>
        <time>2024-02-04T11:10:37Z</time>
      </trkpt>
      <trkpt lat="49.26464" lon="-0.09414">
        <ele>15.7</ele>
        <time>2024-02-04T11:10:38Z</time>
      </trkpt>
      <trkpt lat="49.26471" lon="-0.09415">
        <ele>15.6</ele>
        <time>2024-02-04T11:10:39Z</time>
      </trkpt>
      <trkpt lat="49.26478" lon="-0.09415">
        <ele>15.6</ele>
        <time>2024-02-04T11:10:40Z</time>
      </trkpt>
      <trkpt lat="49.26485" lon="-0.09415">
        <ele>15.5</ele>
        <time>2024-02-04T11:10:41Z</time>
      </trkpt>
      <trkpt lat="49.26493" lon="-0.09415">
        <ele>15.4</ele>
        <time>2024-02-04T11:10:42Z</time>
      </trkpt>
      <trkpt lat="49.265" lon="-0.09416">
        <ele>15.3</ele>
        <time>2024-02-04T11:10:43Z</time>
      </trkpt>
      <trkpt lat="49.26508" lon="-0.09416">
        <ele>15.1</ele>
        <time>2024-02-04T11:10:44Z</time>
      </trkpt>
      <trkpt lat="49.26515" lon="-0.09416">
        <ele>15</ele>
        <time>2024-02-04T11:10:45Z</time>
      </trkpt>
      <trkpt lat="49.26522" lon="-0.09416">
        <ele>14.8</ele>
        <time>2024-02-04T11:10:46Z</time>
      </trkpt>
      <trkpt lat="49.2653" lon="-0.09416">
        <ele>14.6</ele>
        <time>2024-02-04T11:10:47Z</time>
      </trkpt>
      <trkpt lat="49.26538" lon="-0.09416">
        <ele>14.4</ele>
        <time>2024-02-04T11:10:48Z</time>
      </trkpt>
      <trkpt lat="49.26545" lon="-0.09416">
        <ele>14.2</ele>
        <time>2024-02-04T11:10:49Z</time>
      </trkpt>
      <trkpt lat="49.26552" lon="-0.09416">
        <ele>13.9</ele>
        <time>2024-02-04T11:10:50Z</time>
      </trkpt>
      <trkpt lat="49.26559" lon="-0.09416">
        <ele>13.5</ele>
        <time>2024-02-04T11:10:51Z</time>
      </trkpt>
      <trkpt lat="49.26567" lon="-0.09416">
        <ele>13.1</ele>
        <time>2024-02-04T11:10:52Z</time>
      </trkpt>
      <trkpt lat="49.26575" lon="-0.09417">
        <ele>12.6</ele>
        <time>2024-02-04T11:10:53Z</time>
      </trkpt>
      <trkpt lat="49.26584" lon="-0.09417">
        <ele>12.1</ele>
        <time>2024-02-04T11:10:54Z</time>
      </trkpt>
      <trkpt lat="49.26593" lon="-0.09418">
        <ele>11.6</ele>
        <time>2024-02-04T11:10:55Z</time>
      </trkpt>
      <trkpt lat="49.26601" lon="-0.09418">
        <ele>11.1</ele>
        <time>2024-02-04T11:10:56Z</time>
      </trkpt>
      <trkpt lat="49.2661" lon="-0.09419">
        <ele>10.6</ele>
        <time>2024-02-04T11:10:57Z</time>
      </trkpt>
      <trkpt lat="49.26619" lon="-0.09419">
        <ele>10.1</ele>
        <time>2024-02-04T11:10:58Z</time>
      </trkpt>
      <trkpt lat="49.26629" lon="-0.0942">
        <ele>9.7</ele>
        <time>2024-02-04T11:10:59Z</time>
      </trkpt>
      <trkpt lat="49.26638" lon="-0.09421">
        <ele>9.2</ele>
        <time>2024-02-04T11:11:00Z</time>
      </trkpt>
      <trkpt lat="49.26647" lon="-0.09421">
        <ele>8.8</ele>
        <time>2024-02-04T11:11:01Z</time>
      </trkpt>
      <trkpt lat="49.26657" lon="-0.09422">
        <ele>8.5</ele>
        <time>2024-02-04T11:11:02Z</time>
      </trkpt>
      <trkpt lat="49.26666" lon="-0.09422">
        <ele>8.2</ele>
        <time>2024-02-04T11:11:03Z</time>
      </trkpt>
      <trkpt lat="49.26676" lon="-0.09422">
        <ele>8</ele>
        <time>2024-02-04T11:11:04Z</time>
      </trkpt>
      <trkpt lat="49.26686" lon="-0.09423">
        <ele>8</ele>
        <time>2024-02-04T11:11:05Z</time>
      </trkpt>
      <trkpt lat="49.26696" lon="-0.09423">
        <ele>8</ele>
        <time>2024-02-04T11:11:06Z</time>
      </trkpt>
      <trkpt lat="49.26705" lon="-0.09423">
        <ele>8</ele>
        <time>2024-02-04T11:11:07Z</time>
      </trkpt>
      <trkpt lat="49.26713" lon="-0.09423">
        <ele>8.1</ele>
        <time>2024-02-04T11:11:08Z</time>
      </trkpt>
      <trkpt lat="49.26722" lon="-0.09422">
        <ele>8.3</ele>
        <time>2024-02-04T11:11:09Z</time>
      </trkpt>
      <trkpt lat="49.2673" lon="-0.09421">
        <ele>8.4</ele>
        <time>2024-02-04T11:11:10Z</time>
      </trkpt>
      <trkpt lat="49.26739" lon="-0.09421">
        <ele>8.7</ele>
        <time>2024-02-04T11:11:11Z</time>
      </trkpt>
      <trkpt lat="49.26747" lon="-0.09421">
        <ele>8.9</ele>
        <time>2024-02-04T11:11:12Z</time>
      </trkpt>
      <trkpt lat="49.26754" lon="-0.09421">
        <ele>9.2</ele>
        <time>2024-02-04T11:11:13Z</time>
      </trkpt>
      <trkpt lat="49.26761" lon="-0.09421">
        <ele>9.5</ele>
        <time>2024-02-04T11:11:14Z</time>
      </trkpt>
      <trkpt lat="49.26769" lon="-0.09421">
        <ele>9.8</ele>
        <time>2024-02-04T11:11:15Z</time>
      </trkpt>
      <trkpt lat="49.26775" lon="-0.09421">
        <ele>10.2</ele>
        <time>2024-02-04T11:11:16Z</time>
      </trkpt>
      <trkpt lat="49.26783" lon="-0.09421">
        <ele>10.5</ele>
        <time>2024-02-04T11:11:17Z</time>
      </trkpt>
      <trkpt lat="49.2679" lon="-0.09421">
        <ele>10.8</ele>
        <time>2024-02-04T11:11:18Z</time>
      </trkpt>
      <trkpt lat="49.26796" lon="-0.09421">
        <ele>11.2</ele>
        <time>2024-02-04T11:11:19Z</time>
      </trkpt>
      <trkpt lat="49.26803" lon="-0.09421">
        <ele>11.5</ele>
        <time>2024-02-04T11:11:20Z</time>
      </trkpt>
      <trkpt lat="49.2681" lon="-0.0942">
        <ele>11.8</ele>
        <time>2024-02-04T11:11:21Z</time>
      </trkpt>
      <trkpt lat="49.26817" lon="-0.09421">
        <ele>12.2</ele>
        <time>2024-02-04T11:11:22Z</time>
      </trkpt>
      <trkpt lat="49.26824" lon="-0.09421">
        <ele>12.6</ele>
        <time>2024-02-04T11:11:23Z</time>
      </trkpt>
      <trkpt lat="49.26831" lon="-0.09421">
        <ele>13</ele>
        <time>2024-02-04T11:11:24Z</time>
      </trkpt>
      <trkpt lat="49.26837" lon="-0.0942">
        <ele>13.4</ele>
        <time>2024-02-04T11:11:25Z</time>
      </trkpt>
      <trkpt lat="49.26843" lon="-0.0942">
        <ele>13.7</ele>
        <time>2024-02-04T11:11:26Z</time>
      </trkpt>
      <trkpt lat="49.26849" lon="-0.09419">
        <ele>14.1</ele>
        <time>2024-02-04T11:11:27Z</time>
      </trkpt>
      <trkpt lat="49.26855" lon="-0.09419">
        <ele>14.4</ele>
        <time>2024-02-04T11:11:28Z</time>
      </trkpt>
      <trkpt lat="49.26861" lon="-0.09419">
        <ele>14.8</ele>
        <time>2024-02-04T11:11:29Z</time>
      </trkpt>
      <trkpt lat="49.26867" lon="-0.09418">
        <ele>15.1</ele>
        <time>2024-02-04T11:11:30Z</time>
      </trkpt>
      <trkpt lat="49.26873" lon="-0.09418">
        <ele>15.5</ele>
        <time>2024-02-04T11:11:31Z</time>
      </trkpt>
      <trkpt lat="49.26879" lon="-0.09417">
        <ele>15.8</ele>
        <time>2024-02-04T11:11:32Z</time>
      </trkpt>
      <trkpt lat="49.26885" lon="-0.09417">
        <ele>16.2</ele>
        <time>2024-02-04T11:11:33Z</time>
      </trkpt>
      <trkpt lat="49.26891" lon="-0.09418">
        <ele>16.6</ele>
        <time>2024-02-04T11:11:34Z</time>
      </trkpt>
      <trkpt lat="49.26897" lon="-0.09418">
        <ele>16.9</ele>
        <time>2024-02-04T11:11:35Z</time>
      </trkpt>
      <trkpt lat="49.26903" lon="-0.09418">
        <ele>17.3</ele>
        <time>2024-02-04T11:11:36Z</time>
      </trkpt>
      <trkpt lat="49.26909" lon="-0.09418">
        <ele>17.6</ele>
        <time>2024-02-04T11:11:37Z</time>
      </trkpt>
      <trkpt lat="49.26916" lon="-0.09418">
        <ele>18</ele>
        <time>2024-02-04T11:11:38Z</time>
      </trkpt>
      <trkpt lat="49.26921" lon="-0.09417">
        <ele>18.4</ele>
        <time>2024-02-04T11:11:39Z</time>
      </trkpt>
      <trkpt lat="49.26927" lon="-0.09417">
        <ele>18.7</ele>
        <time>2024-02-04T11:11:40Z</time>
      </trkpt>
      <trkpt lat="49.26933" lon="-0.09416">
        <ele>19.1</ele>
        <time>2024-02-04T11:11:41Z</time>
      </trkpt>
      <trkpt lat="49.26938" lon="-0.09416">
        <ele>19.4</ele>
        <time>2024-02-04T11:11:42Z</time>
      </trkpt>
      <trkpt lat="49.26944" lon="-0.09415">
        <ele>19.7</ele>
        <time>2024-02-04T11:11:43Z</time>
      </trkpt>
      <trkpt lat="49.26951" lon="-0.09415">
        <ele>20.1</ele>
        <time>2024-02-04T11:11:44Z</time>
      </trkpt>
      <trkpt lat="49.26958" lon="-0.09414">
        <ele>20.5</ele>
        <time>2024-02-04T11:11:45Z</time>
      </trkpt>
      <trkpt lat="49.26964" lon="-0.09414">
        <ele>20.9</ele>
        <time>2024-02-04T11:11:46Z</time>
      </trkpt>
      <trkpt lat="49.26969" lon="-0.09414">
        <ele>21.2</ele>
        <time>2024-02-04T11:11:47Z</time>
      </trkpt>
      <trkpt lat="49.26975" lon="-0.09413">
        <ele>21.5</ele>
        <time>2024-02-04T11:11:48Z</time>
      </trkpt>
      <trkpt lat="49.26981" lon="-0.09413">
        <ele>21.8</ele>
        <time>2024-02-04T11:11:49Z</time>
      </trkpt>
      <trkpt lat="49.26987" lon="-0.09414">
        <ele>22</ele>
        <time>2024-02-04T11:11:50Z</time>
      </trkpt>
      <trkpt lat="49.26993" lon="-0.09414">
        <ele>22.2</ele>
        <time>2024-02-04T11:11:51Z</time>
      </trkpt>
      <trkpt lat="49.27" lon="-0.09413">
        <ele>22.4</ele>
        <time>2024-02-04T11:11:52Z</time>
      </trkpt>
      <trkpt lat="49.27007" lon="-0.09414">
        <ele>22.5</ele>
        <time>2024-02-04T11:11:53Z</time>
      </trkpt>
      <trkpt lat="49.27015" lon="-0.09415">
        <ele>22.6</ele>
        <time>2024-02-04T11:11:54Z</time>
      </trkpt>
      <trkpt lat="49.27022" lon="-0.09416">
        <ele>22.6</ele>
        <time>2024-02-04T11:11:55Z</time>
      </trkpt>
      <trkpt lat="49.2703" lon="-0.09419">
        <ele>22.5</ele>
        <time>2024-02-04T11:11:56Z</time>
      </trkpt>
      <trkpt lat="49.27037" lon="-0.09421">
        <ele>22.4</ele>
        <time>2024-02-04T11:11:57Z</time>
      </trkpt>
      <trkpt lat="49.27045" lon="-0.09425">
        <ele>22.3</ele>
        <time>2024-02-04T11:11:58Z</time>
      </trkpt>
      <trkpt lat="49.27052" lon="-0.0943">
        <ele>22.1</ele>
        <time>2024-02-04T11:11:59Z</time>
      </trkpt>
      <trkpt lat="49.27058" lon="-0.09436">
        <ele>22</ele>
        <time>2024-02-04T11:12:00Z</time>
      </trkpt>
      <trkpt lat="49.27065" lon="-0.09443">
        <ele>21.8</ele>
        <time>2024-02-04T11:12:01Z</time>
      </trkpt>
      <trkpt lat="49.27072" lon="-0.09449">
        <ele>21.6</ele>
        <time>2024-02-04T11:12:02Z</time>
      </trkpt>
      <trkpt lat="49.27078" lon="-0.09456">
        <ele>21.3</ele>
        <time>2024-02-04T11:12:03Z</time>
      </trkpt>
      <trkpt lat="49.27085" lon="-0.09461">
        <ele>21.1</ele>
        <time>2024-02-04T11:12:04Z</time>
      </trkpt>
      <trkpt lat="49.27093" lon="-0.09466">
        <ele>20.8</ele>
        <time>2024-02-04T11:12:05Z</time>
      </trkpt>
      <trkpt lat="49.271" lon="-0.09471">
        <ele>20.5</ele>
        <time>2024-02-04T11:12:06Z</time>
      </trkpt>
      <trkpt lat="49.27107" lon="-0.09475">
        <ele>20.2</ele>
        <time>2024-02-04T11:12:07Z</time>
      </trkpt>
      <trkpt lat="49.27115" lon="-0.09478">
        <ele>19.9</ele>
        <time>2024-02-04T11:12:08Z</time>
      </trkpt>
      <trkpt lat="49.27123" lon="-0.09483">
        <ele>19.5</ele>
        <time>2024-02-04T11:12:09Z</time>
      </trkpt>
      <trkpt lat="49.27131" lon="-0.09487">
        <ele>19</ele>
        <time>2024-02-04T11:12:10Z</time>
      </trkpt>
      <trkpt lat="49.27139" lon="-0.09492">
        <ele>18.6</ele>
        <time>2024-02-04T11:12:11Z</time>
      </trkpt>
      <trkpt lat="49.27147" lon="-0.09496">
        <ele>18.2</ele>
        <time>2024-02-04T11:12:12Z</time>
      </trkpt>
      <trkpt lat="49.27155" lon="-0.09502">
        <ele>17.6</ele>
        <time>2024-02-04T11:12:13Z</time>
      </trkpt>
      <trkpt lat="49.27164" lon="-0.09508">
        <ele>17</ele>
        <time>2024-02-04T11:12:14Z</time>
      </trkpt>
      <trkpt lat="49.27172" lon="-0.09514">
        <ele>16.4</ele>
        <time>2024-02-04T11:12:15Z</time>
      </trkpt>
      <trkpt lat="49.27181" lon="-0.09518">
        <ele>15.9</ele>
        <time>2024-02-04T11:12:16Z</time>
      </trkpt>
      <trkpt lat="49.27191" lon="-0.09522">
        <ele>15.3</ele>
        <time>2024-02-04T11:12:17Z</time>
      </trkpt>
      <trkpt lat="49.27201" lon="-0.09526">
        <ele>14.7</ele>
        <time>2024-02-04T11:12:18Z</time>
      </trkpt>
      <trkpt lat="49.27211" lon="-0.09528">
        <ele>14.1</ele>
        <time>2024-02-04T11:12:19Z</time>
      </trkpt>
      <trkpt lat="49.27221" lon="-0.09531">
        <ele>13.6</ele>
        <time>2024-02-04T11:12:20Z</time>
      </trkpt>
      <trkpt lat="49.27231" lon="-0.09534">
        <ele>13</ele>
        <time>2024-02-04T11:12:21Z</time>
      </trkpt>
      <trkpt lat="49.27241" lon="-0.09536">
        <ele>12.5</ele>
        <time>2024-02-04T11:12:22Z</time>
      </trkpt>
      <trkpt lat="49.27252" lon="-0.09538">
        <ele>12</ele>
        <time>2024-02-04T11:12:23Z</time>
      </trkpt>
      <trkpt lat="49.27262" lon="-0.09541">
        <ele>11.5</ele>
        <time>2024-02-04T11:12:24Z</time>
      </trkpt>
      <trkpt lat="49.27273" lon="-0.09543">
        <ele>11</ele>
        <time>2024-02-04T11:12:25Z</time>
      </trkpt>
      <trkpt lat="49.27283" lon="-0.09545">
        <ele>10.6</ele>
        <time>2024-02-04T11:12:26Z</time>
      </trkpt>
      <trkpt lat="49.27294" lon="-0.09547">
        <ele>10.2</ele>
        <time>2024-02-04T11:12:27Z</time>
      </trkpt>
      <trkpt lat="49.27304" lon="-0.09549">
        <ele>9.8</ele>
        <time>2024-02-04T11:12:28Z</time>
      </trkpt>
      <trkpt lat="49.27314" lon="-0.09552">
        <ele>9.4</ele>
        <time>2024-02-04T11:12:29Z</time>
      </trkpt>
      <trkpt lat="49.27324" lon="-0.09554">
        <ele>9</ele>
        <time>2024-02-04T11:12:30Z</time>
      </trkpt>
      <trkpt lat="49.27334" lon="-0.09556">
        <ele>8.6</ele>
        <time>2024-02-04T11:12:31Z</time>
      </trkpt>
      <trkpt lat="49.27344" lon="-0.09559">
        <ele>8.3</ele>
        <time>2024-02-04T11:12:32Z</time>
      </trkpt>
      <trkpt lat="49.27353" lon="-0.09562">
        <ele>7.9</ele>
        <time>2024-02-04T11:12:33Z</time>
      </trkpt>
      <trkpt lat="49.27363" lon="-0.09565">
        <ele>7.6</ele>
        <time>2024-02-04T11:12:34Z</time>
      </trkpt>
      <trkpt lat="49.27373" lon="-0.09568">
        <ele>7.3</ele>
        <time>2024-02-04T11:12:35Z</time>
      </trkpt>
      <trkpt lat="49.27382" lon="-0.09571">
        <ele>6.9</ele>
        <time>2024-02-04T11:12:36Z</time>
      </trkpt>
      <trkpt lat="49.27392" lon="-0.09575">
        <ele>6.6</ele>
        <time>2024-02-04T11:12:37Z</time>
      </trkpt>
      <trkpt lat="49.27401" lon="-0.09578">
        <ele>6.3</ele>
        <time>2024-02-04T11:12:38Z</time>
      </trkpt>
      <trkpt lat="49.27411" lon="-0.09581">
        <ele>6.1</ele>
        <time>2024-02-04T11:12:39Z</time>
      </trkpt>
      <trkpt lat="49.27421" lon="-0.09582">
        <ele>5.9</ele>
        <time>2024-02-04T11:12:40Z</time>
      </trkpt>
      <trkpt lat="49.27431" lon="-0.09581">
        <ele>5.7</ele>
        <time>2024-02-04T11:12:41Z</time>
      </trkpt>
      <trkpt lat="49.27441" lon="-0.0958">
        <ele>5.7</ele>
        <time>2024-02-04T11:12:42Z</time>
      </trkpt>
      <trkpt lat="49.2745" lon="-0.09579">
        <ele>5.6</ele>
        <time>2024-02-04T11:12:43Z</time>
      </trkpt>
      <trkpt lat="49.2746" lon="-0.09577">
        <ele>5.5</ele>
        <time>2024-02-04T11:12:44Z</time>
      </trkpt>
      <trkpt lat="49.27469" lon="-0.09576">
        <ele>5.4</ele>
        <time>2024-02-04T11:12:45Z</time>
      </trkpt>
      <trkpt lat="49.27478" lon="-0.09575">
        <ele>5.3</ele>
        <time>2024-02-04T11:12:46Z</time>
      </trkpt>
      <trkpt lat="49.27487" lon="-0.09574">
        <ele>5.2</ele>
        <time>2024-02-04T11:12:47Z</time>
      </trkpt>
      <trkpt lat="49.27496" lon="-0.09572">
        <ele>5.2</ele>
        <time>2024-02-04T11:12:48Z</time>
      </trkpt>
      <trkpt lat="49.27504" lon="-0.09571">
        <ele>5.2</ele>
        <time>2024-02-04T11:12:49Z</time>
      </trkpt>
      <trkpt lat="49.27513" lon="-0.0957">
        <ele>5.1</ele>
        <time>2024-02-04T11:12:50Z</time>
      </trkpt>
      <trkpt lat="49.27521" lon="-0.09568">
        <ele>5.1</ele>
        <time>2024-02-04T11:12:51Z</time>
      </trkpt>
      <trkpt lat="49.27529" lon="-0.09565">
        <ele>5.1</ele>
        <time>2024-02-04T11:12:52Z</time>
      </trkpt>
      <trkpt lat="49.27537" lon="-0.09562">
        <ele>5.1</ele>
        <time>2024-02-04T11:12:53Z</time>
      </trkpt>
      <trkpt lat="49.27544" lon="-0.09558">
        <ele>5.1</ele>
        <time>2024-02-04T11:12:54Z</time>
      </trkpt>
      <trkpt lat="49.27549" lon="-0.09555">
        <ele>5.1</ele>
        <time>2024-02-04T11:12:55Z</time>
      </trkpt>
      <trkpt lat="49.27554" lon="-0.09554">
        <ele>5.2</ele>
        <time>2024-02-04T11:12:56Z</time>
      </trkpt>
      <trkpt lat="49.27557" lon="-0.09552">
        <ele>5.2</ele>
        <time>2024-02-04T11:12:57Z</time>
      </trkpt>
      <trkpt lat="49.27561" lon="-0.09551">
        <ele>5.2</ele>
        <time>2024-02-04T11:12:58Z</time>
      </trkpt>
      <trkpt lat="49.27566" lon="-0.09551">
        <ele>5.2</ele>
        <time>2024-02-04T11:12:59Z</time>
      </trkpt>
      <trkpt lat="49.27571" lon="-0.09552">
        <ele>5.2</ele>
        <time>2024-02-04T11:13:00Z</time>
      </trkpt>
      <trkpt lat="49.27576" lon="-0.09552">
        <ele>5.2</ele>
        <time>2024-02-04T11:13:01Z</time>
      </trkpt>
      <trkpt lat="49.27581" lon="-0.09551">
        <ele>5.2</ele>
        <time>2024-02-04T11:13:02Z</time>
      </trkpt>
      <trkpt lat="49.27585" lon="-0.09549">
        <ele>5.1</ele>
        <time>2024-02-04T11:13:03Z</time>
      </trkpt>
      <trkpt lat="49.2759" lon="-0.09548">
        <ele>5.1</ele>
        <time>2024-02-04T11:13:04Z</time>
      </trkpt>
      <trkpt lat="49.27594" lon="-0.09547">
        <ele>5</ele>
        <time>2024-02-04T11:13:05Z</time>
      </trkpt>
      <trkpt lat="49.27599" lon="-0.09546">
        <ele>5</ele>
        <time>2024-02-04T11:13:06Z</time>
      </trkpt>
      <trkpt lat="49.27604" lon="-0.09545">
        <ele>5</ele>
        <time>2024-02-04T11:13:07Z</time>
      </trkpt>
      <trkpt lat="49.27608" lon="-0.09544">
        <ele>4.9</ele>
        <time>2024-02-04T11:13:08Z</time>
      </trkpt>
      <trkpt lat="49.27613" lon="-0.09544">
        <ele>4.9</ele>
        <time>2024-02-04T11:13:09Z</time>
      </trkpt>
      <trkpt lat="49.27617" lon="-0.09544">
        <ele>4.9</ele>
        <time>2024-02-04T11:13:10Z</time>
      </trkpt>
      <trkpt lat="49.27622" lon="-0.09543">
        <ele>4.9</ele>
        <time>2024-02-04T11:13:11Z</time>
      </trkpt>
      <trkpt lat="49.27627" lon="-0.09542">
        <ele>5</ele>
        <time>2024-02-04T11:13:12Z</time>
      </trkpt>
      <trkpt lat="49.27631" lon="-0.09542">
        <ele>5</ele>
        <time>2024-02-04T11:13:13Z</time>
      </trkpt>
      <trkpt lat="49.27636" lon="-0.09542">
        <ele>5</ele>
        <time>2024-02-04T11:13:14Z</time>
      </trkpt>
      <trkpt lat="49.2764" lon="-0.0954">
        <ele>5</ele>
        <time>2024-02-04T11:13:15Z</time>
      </trkpt>
      <trkpt lat="49.27645" lon="-0.09539">
        <ele>5.1</ele>
        <time>2024-02-04T11:13:16Z</time>
      </trkpt>
      <trkpt lat="49.27651" lon="-0.09538">
        <ele>5.1</ele>
        <time>2024-02-04T11:13:17Z</time>
      </trkpt>
      <trkpt lat="49.27656" lon="-0.09538">
        <ele>5.1</ele>
        <time>2024-02-04T11:13:18Z</time>
      </trkpt>
      <trkpt lat="49.27661" lon="-0.09538">
        <ele>5.1</ele>
        <time>2024-02-04T11:13:19Z</time>
      </trkpt>
      <trkpt lat="49.27666" lon="-0.09538">
        <ele>5.1</ele>
        <time>2024-02-04T11:13:20Z</time>
      </trkpt>
      <trkpt lat="49.27671" lon="-0.09539">
        <ele>5.1</ele>
        <time>2024-02-04T11:13:21Z</time>
      </trkpt>
      <trkpt lat="49.27677" lon="-0.09539">
        <ele>5.1</ele>
        <time>2024-02-04T11:13:22Z</time>
      </trkpt>
      <trkpt lat="49.27682" lon="-0.0954">
        <ele>5.1</ele>
        <time>2024-02-04T11:13:23Z</time>
      </trkpt>
      <trkpt lat="49.27688" lon="-0.0954">
        <ele>5.1</ele>
        <time>2024-02-04T11:13:24Z</time>
      </trkpt>
      <trkpt lat="49.27694" lon="-0.0954">
        <ele>5.1</ele>
        <time>2024-02-04T11:13:25Z</time>
      </trkpt>
      <trkpt lat="49.277" lon="-0.09539">
        <ele>5.1</ele>
        <time>2024-02-04T11:13:26Z</time>
      </trkpt>
      <trkpt lat="49.27706" lon="-0.09539">
        <ele>5.1</ele>
        <time>2024-02-04T11:13:27Z</time>
      </trkpt>
      <trkpt lat="49.27712" lon="-0.09538">
        <ele>5.1</ele>
        <time>2024-02-04T11:13:28Z</time>
      </trkpt>
      <trkpt lat="49.27717" lon="-0.09537">
        <ele>5.1</ele>
        <time>2024-02-04T11:13:29Z</time>
      </trkpt>
      <trkpt lat="49.27723" lon="-0.09536">
        <ele>5.1</ele>
        <time>2024-02-04T11:13:30Z</time>
      </trkpt>
      <trkpt lat="49.27728" lon="-0.09535">
        <ele>5.1</ele>
        <time>2024-02-04T11:13:31Z</time>
      </trkpt>
      <trkpt lat="49.27734" lon="-0.09534">
        <ele>5.1</ele>
        <time>2024-02-04T11:13:32Z</time>
      </trkpt>
      <trkpt lat="49.2774" lon="-0.09533">
        <ele>5.1</ele>
        <time>2024-02-04T11:13:33Z</time>
      </trkpt>
      <trkpt lat="49.27745" lon="-0.09533">
        <ele>5.1</ele>
        <time>2024-02-04T11:13:34Z</time>
      </trkpt>
      <trkpt lat="49.27751" lon="-0.09532">
        <ele>5.1</ele>
        <time>2024-02-04T11:13:35Z</time>
      </trkpt>
      <trkpt lat="49.27757" lon="-0.09531">
        <ele>5.1</ele>
        <time>2024-02-04T11:13:36Z</time>
      </trkpt>
      <trkpt lat="49.27763" lon="-0.0953">
        <ele>5.1</ele>
        <time>2024-02-04T11:13:37Z</time>
      </trkpt>
      <trkpt lat="49.27768" lon="-0.09529">
        <ele>5.1</ele>
        <time>2024-02-04T11:13:38Z</time>
      </trkpt>
      <trkpt lat="49.27774" lon="-0.09528">
        <ele>5.1</ele>
        <time>2024-02-04T11:13:39Z</time>
      </trkpt>
      <trkpt lat="49.2778" lon="-0.09527">
        <ele>5.1</ele>
        <time>2024-02-04T11:13:40Z</time>
      </trkpt>
      <trkpt lat="49.27786" lon="-0.09527">
        <ele>5.1</ele>
        <time>2024-02-04T11:13:41Z</time>
      </trkpt>
      <trkpt lat="49.27792" lon="-0.09525">
        <ele>5.1</ele>
        <time>2024-02-04T11:13:42Z</time>
      </trkpt>
      <trkpt lat="49.27799" lon="-0.09524">
        <ele>5.1</ele>
        <time>2024-02-04T11:13:43Z</time>
      </trkpt>
      <trkpt lat="49.27805" lon="-0.09523">
        <ele>5.1</ele>
        <time>2024-02-04T11:13:44Z</time>
      </trkpt>
      <trkpt lat="49.2781" lon="-0.09523">
        <ele>5.1</ele>
        <time>2024-02-04T11:13:45Z</time>
      </trkpt>
      <trkpt lat="49.27816" lon="-0.09522">
        <ele>5.1</ele>
        <time>2024-02-04T11:13:46Z</time>
      </trkpt>
      <trkpt lat="49.27822" lon="-0.09522">
        <ele>5.1</ele>
        <time>2024-02-04T11:13:47Z</time>
      </trkpt>
      <trkpt lat="49.27827" lon="-0.09521">
        <ele>5.1</ele>
        <time>2024-02-04T11:13:48Z</time>
      </trkpt>
      <trkpt lat="49.27832" lon="-0.09519">
        <ele>5.1</ele>
        <time>2024-02-04T11:13:49Z</time>
      </trkpt>
      <trkpt lat="49.27838" lon="-0.09518">
        <ele>5.1</ele>
        <time>2024-02-04T11:13:50Z</time>
      </trkpt>
      <trkpt lat="49.27844" lon="-0.09517">
        <ele>5.1</ele>
        <time>2024-02-04T11:13:51Z</time>
      </trkpt>
      <trkpt lat="49.27849" lon="-0.09517">
        <ele>5.1</ele>
        <time>2024-02-04T11:13:52Z</time>
      </trkpt>
      <trkpt lat="49.27854" lon="-0.09517">
        <ele>5.1</ele>
        <time>2024-02-04T11:13:53Z</time>
      </trkpt>
      <trkpt lat="49.2786" lon="-0.09516">
        <ele>5.1</ele>
        <time>2024-02-04T11:13:54Z</time>
      </trkpt>
      <trkpt lat="49.27865" lon="-0.09517">
        <ele>5.1</ele>
        <time>2024-02-04T11:13:55Z</time>
      </trkpt>
      <trkpt lat="49.27871" lon="-0.09516">
        <ele>5.2</ele>
        <time>2024-02-04T11:13:56Z</time>
      </trkpt>
      <trkpt lat="49.27877" lon="-0.09516">
        <ele>5.2</ele>
        <time>2024-02-04T11:13:57Z</time>
      </trkpt>
      <trkpt lat="49.27883" lon="-0.09516">
        <ele>5.2</ele>
        <time>2024-02-04T11:13:58Z</time>
      </trkpt>
      <trkpt lat="49.2789" lon="-0.09516">
        <ele>5.2</ele>
        <time>2024-02-04T11:13:59Z</time>
      </trkpt>
      <trkpt lat="49.27896" lon="-0.09516">
        <ele>5.2</ele>
        <time>2024-02-04T11:14:00Z</time>
      </trkpt>
      <trkpt lat="49.27902" lon="-0.09516">
        <ele>5.2</ele>
        <time>2024-02-04T11:14:01Z</time>
      </trkpt>
      <trkpt lat="49.27909" lon="-0.09516">
        <ele>5.2</ele>
        <time>2024-02-04T11:14:02Z</time>
      </trkpt>
      <trkpt lat="49.27915" lon="-0.09516">
        <ele>5.2</ele>
        <time>2024-02-04T11:14:03Z</time>
      </trkpt>
      <trkpt lat="49.27921" lon="-0.09517">
        <ele>5.2</ele>
        <time>2024-02-04T11:14:04Z</time>
      </trkpt>
      <trkpt lat="49.27928" lon="-0.09517">
        <ele>5.2</ele>
        <time>2024-02-04T11:14:05Z</time>
      </trkpt>
      <trkpt lat="49.27934" lon="-0.09518">
        <ele>5.2</ele>
        <time>2024-02-04T11:14:06Z</time>
      </trkpt>
      <trkpt lat="49.27941" lon="-0.09519">
        <ele>5.2</ele>
        <time>2024-02-04T11:14:07Z</time>
      </trkpt>
      <trkpt lat="49.27947" lon="-0.0952">
        <ele>5.2</ele>
        <time>2024-02-04T11:14:08Z</time>
      </trkpt>
      <trkpt lat="49.27954" lon="-0.0952">
        <ele>5.2</ele>
        <time>2024-02-04T11:14:09Z</time>
      </trkpt>
      <trkpt lat="49.27961" lon="-0.09522">
        <ele>5.2</ele>
        <time>2024-02-04T11:14:10Z</time>
      </trkpt>
      <trkpt lat="49.27967" lon="-0.09523">
        <ele>5.2</ele>
        <time>2024-02-04T11:14:11Z</time>
      </trkpt>
      <trkpt lat="49.27974" lon="-0.09526">
        <ele>5.1</ele>
        <time>2024-02-04T11:14:12Z</time>
      </trkpt>
      <trkpt lat="49.27981" lon="-0.09528">
        <ele>5.1</ele>
        <time>2024-02-04T11:14:13Z</time>
      </trkpt>
      <trkpt lat="49.27988" lon="-0.0953">
        <ele>5.1</ele>
        <time>2024-02-04T11:14:14Z</time>
      </trkpt>
      <trkpt lat="49.27994" lon="-0.09532">
        <ele>5.1</ele>
        <time>2024-02-04T11:14:15Z</time>
      </trkpt>
      <trkpt lat="49.28001" lon="-0.09534">
        <ele>5.1</ele>
        <time>2024-02-04T11:14:16Z</time>
      </trkpt>
      <trkpt lat="49.28008" lon="-0.09537">
        <ele>5.1</ele>
        <time>2024-02-04T11:14:17Z</time>
      </trkpt>
      <trkpt lat="49.28014" lon="-0.09539">
        <ele>5.1</ele>
        <time>2024-02-04T11:14:18Z</time>
      </trkpt>
      <trkpt lat="49.28021" lon="-0.09542">
        <ele>5.1</ele>
        <time>2024-02-04T11:14:19Z</time>
      </trkpt>
      <trkpt lat="49.28027" lon="-0.09544">
        <ele>5.1</ele>
        <time>2024-02-04T11:14:20Z</time>
      </trkpt>
      <trkpt lat="49.28034" lon="-0.09548">
        <ele>5.1</ele>
        <time>2024-02-04T11:14:21Z</time>
      </trkpt>
      <trkpt lat="49.28041" lon="-0.09551">
        <ele>5.1</ele>
        <time>2024-02-04T11:14:22Z</time>
      </trkpt>
      <trkpt lat="49.28047" lon="-0.09554">
        <ele>5.1</ele>
        <time>2024-02-04T11:14:23Z</time>
      </trkpt>
      <trkpt lat="49.28054" lon="-0.09557">
        <ele>5.1</ele>
        <time>2024-02-04T11:14:24Z</time>
      </trkpt>
      <trkpt lat="49.2806" lon="-0.0956">
        <ele>5.1</ele>
        <time>2024-02-04T11:14:25Z</time>
      </trkpt>
      <trkpt lat="49.28066" lon="-0.09564">
        <ele>5.1</ele>
        <time>2024-02-04T11:14:26Z</time>
      </trkpt>
      <trkpt lat="49.28073" lon="-0.09567">
        <ele>5.1</ele>
        <time>2024-02-04T11:14:27Z</time>
      </trkpt>
      <trkpt lat="49.28079" lon="-0.0957">
        <ele>5.1</ele>
        <time>2024-02-04T11:14:28Z</time>
      </trkpt>
      <trkpt lat="49.28086" lon="-0.09573">
        <ele>5.1</ele>
        <time>2024-02-04T11:14:29Z</time>
      </trkpt>
      <trkpt lat="49.28092" lon="-0.09576">
        <ele>5.1</ele>
        <time>2024-02-04T11:14:30Z</time>
      </trkpt>
      <trkpt lat="49.28098" lon="-0.09579">
        <ele>5.1</ele>
        <time>2024-02-04T11:14:31Z</time>
      </trkpt>
      <trkpt lat="49.28105" lon="-0.09583">
        <ele>5.1</ele>
        <time>2024-02-04T11:14:32Z</time>
      </trkpt>
      <trkpt lat="49.28111" lon="-0.09586">
        <ele>5.1</ele>
        <time>2024-02-04T11:14:33Z</time>
      </trkpt>
      <trkpt lat="49.28118" lon="-0.0959">
        <ele>5</ele>
        <time>2024-02-04T11:14:34Z</time>
      </trkpt>
      <trkpt lat="49.28124" lon="-0.09594">
        <ele>5</ele>
        <time>2024-02-04T11:14:35Z</time>
      </trkpt>
      <trkpt lat="49.28131" lon="-0.09598">
        <ele>5</ele>
        <time>2024-02-04T11:14:36Z</time>
      </trkpt>
      <trkpt lat="49.28137" lon="-0.09602">
        <ele>5</ele>
        <time>2024-02-04T11:14:37Z</time>
      </trkpt>
      <trkpt lat="49.28143" lon="-0.09606">
        <ele>5</ele>
        <time>2024-02-04T11:14:38Z</time>
      </trkpt>
      <trkpt lat="49.28149" lon="-0.0961">
        <ele>5</ele>
        <time>2024-02-04T11:14:39Z</time>
      </trkpt>
      <trkpt lat="49.28156" lon="-0.09614">
        <ele>5</ele>
        <time>2024-02-04T11:14:40Z</time>
      </trkpt>
      <trkpt lat="49.28162" lon="-0.09618">
        <ele>5</ele>
        <time>2024-02-04T11:14:41Z</time>
      </trkpt>
      <trkpt lat="49.28168" lon="-0.09622">
        <ele>5</ele>
        <time>2024-02-04T11:14:42Z</time>
      </trkpt>
      <trkpt lat="49.28175" lon="-0.09625">
        <ele>5</ele>
        <time>2024-02-04T11:14:43Z</time>
      </trkpt>
      <trkpt lat="49.28181" lon="-0.09629">
        <ele>5</ele>
        <time>2024-02-04T11:14:44Z</time>
      </trkpt>
      <trkpt lat="49.28187" lon="-0.09633">
        <ele>5</ele>
        <time>2024-02-04T11:14:45Z</time>
      </trkpt>
      <trkpt lat="49.28192" lon="-0.09637">
        <ele>5</ele>
        <time>2024-02-04T11:14:46Z</time>
      </trkpt>
      <trkpt lat="49.28198" lon="-0.09641">
        <ele>5</ele>
        <time>2024-02-04T11:14:47Z</time>
      </trkpt>
      <trkpt lat="49.28204" lon="-0.09646">
        <ele>5</ele>
        <time>2024-02-04T11:14:48Z</time>
      </trkpt>
      <trkpt lat="49.2821" lon="-0.0965">
        <ele>5</ele>
        <time>2024-02-04T11:14:49Z</time>
      </trkpt>
      <trkpt lat="49.28216" lon="-0.09654">
        <ele>5.1</ele>
        <time>2024-02-04T11:14:50Z</time>
      </trkpt>
      <trkpt lat="49.28221" lon="-0.09658">
        <ele>5.1</ele>
        <time>2024-02-04T11:14:51Z</time>
      </trkpt>
      <trkpt lat="49.28227" lon="-0.09662">
        <ele>5.1</ele>
        <time>2024-02-04T11:14:52Z</time>
      </trkpt>
      <trkpt lat="49.28232" lon="-0.09667">
        <ele>5.1</ele>
        <time>2024-02-04T11:14:53Z</time>
      </trkpt>
      <trkpt lat="49.28238" lon="-0.09671">
        <ele>5.1</ele>
        <time>2024-02-04T11:14:54Z</time>
      </trkpt>
      <trkpt lat="49.28244" lon="-0.09675">
        <ele>5.1</ele>
        <time>2024-02-04T11:14:55Z</time>
      </trkpt>
      <trkpt lat="49.2825" lon="-0.09679">
        <ele>5.1</ele>
        <time>2024-02-04T11:14:56Z</time>
      </trkpt>
      <trkpt lat="49.28256" lon="-0.09682">
        <ele>5.2</ele>
        <time>2024-02-04T11:14:57Z</time>
      </trkpt>
      <trkpt lat="49.28262" lon="-0.09686">
        <ele>5.2</ele>
        <time>2024-02-04T11:14:58Z</time>
      </trkpt>
      <trkpt lat="49.28268" lon="-0.09689">
        <ele>5.2</ele>
        <time>2024-02-04T11:14:59Z</time>
      </trkpt>
      <trkpt lat="49.28274" lon="-0.09693">
        <ele>5.2</ele>
        <time>2024-02-04T11:15:00Z</time>
      </trkpt>
      <trkpt lat="49.2828" lon="-0.09696">
        <ele>5.3</ele>
        <time>2024-02-04T11:15:01Z</time>
      </trkpt>
      <trkpt lat="49.28287" lon="-0.09699">
        <ele>5.3</ele>
        <time>2024-02-04T11:15:02Z</time>
      </trkpt>
      <trkpt lat="49.28293" lon="-0.09701">
        <ele>5.4</ele>
        <time>2024-02-04T11:15:03Z</time>
      </trkpt>
      <trkpt lat="49.28299" lon="-0.09704">
        <ele>5.4</ele>
        <time>2024-02-04T11:15:04Z</time>
      </trkpt>
      <trkpt lat="49.28305" lon="-0.09706">
        <ele>5.4</ele>
        <time>2024-02-04T11:15:05Z</time>
      </trkpt>
      <trkpt lat="49.28311" lon="-0.09708">
        <ele>5.4</ele>
        <time>2024-02-04T11:15:06Z</time>
      </trkpt>
      <trkpt lat="49.2832" lon="-0.0971">
        <ele>5.5</ele>
        <time>2024-02-04T11:15:08Z</time>
      </trkpt>
      <trkpt lat="49.28323" lon="-0.09711">
        <ele>5.5</ele>
        <time>2024-02-04T11:15:09Z</time>
      </trkpt>
      <trkpt lat="49.28326" lon="-0.09712">
        <ele>5.5</ele>
        <time>2024-02-04T11:15:10Z</time>
      </trkpt>
      <trkpt lat="49.28328" lon="-0.09714">
        <ele>5.4</ele>
        <time>2024-02-04T11:15:11Z</time>
      </trkpt>
      <trkpt lat="49.28329" lon="-0.09719">
        <ele>5.4</ele>
        <time>2024-02-04T11:15:12Z</time>
      </trkpt>
      <trkpt lat="49.28328" lon="-0.09724">
        <ele>5.4</ele>
        <time>2024-02-04T11:15:13Z</time>
      </trkpt>
      <trkpt lat="49.28328" lon="-0.09729">
        <ele>5.3</ele>
        <time>2024-02-04T11:15:14Z</time>
      </trkpt>
      <trkpt lat="49.28328" lon="-0.09734">
        <ele>5.3</ele>
        <time>2024-02-04T11:15:15Z</time>
      </trkpt>
      <trkpt lat="49.28329" lon="-0.0974">
        <ele>5.3</ele>
        <time>2024-02-04T11:15:16Z</time>
      </trkpt>
      <trkpt lat="49.2833" lon="-0.09746">
        <ele>5.2</ele>
        <time>2024-02-04T11:15:17Z</time>
      </trkpt>
      <trkpt lat="49.2833" lon="-0.09752">
        <ele>5.2</ele>
        <time>2024-02-04T11:15:18Z</time>
      </trkpt>
      <trkpt lat="49.28331" lon="-0.09759">
        <ele>5.1</ele>
        <time>2024-02-04T11:15:19Z</time>
      </trkpt>
      <trkpt lat="49.28331" lon="-0.09766">
        <ele>5.1</ele>
        <time>2024-02-04T11:15:20Z</time>
      </trkpt>
      <trkpt lat="49.28331" lon="-0.09773">
        <ele>5</ele>
        <time>2024-02-04T11:15:21Z</time>
      </trkpt>
      <trkpt lat="49.28332" lon="-0.0978">
        <ele>5</ele>
        <time>2024-02-04T11:15:22Z</time>
      </trkpt>
      <trkpt lat="49.28332" lon="-0.09787">
        <ele>5</ele>
        <time>2024-02-04T11:15:23Z</time>
      </trkpt>
      <trkpt lat="49.28332" lon="-0.09794">
        <ele>5</ele>
        <time>2024-02-04T11:15:24Z</time>
      </trkpt>
      <trkpt lat="49.28332" lon="-0.09801">
        <ele>4.9</ele>
        <time>2024-02-04T11:15:25Z</time>
      </trkpt>
      <trkpt lat="49.28332" lon="-0.09808">
        <ele>4.9</ele>
        <time>2024-02-04T11:15:26Z</time>
      </trkpt>
      <trkpt lat="49.28332" lon="-0.09815">
        <ele>4.9</ele>
        <time>2024-02-04T11:15:27Z</time>
      </trkpt>
      <trkpt lat="49.28332" lon="-0.09824">
        <ele>4.9</ele>
        <time>2024-02-04T11:15:28Z</time>
      </trkpt>
      <trkpt lat="49.28332" lon="-0.09832">
        <ele>4.9</ele>
        <time>2024-02-04T11:15:29Z</time>
      </trkpt>
      <trkpt lat="49.28333" lon="-0.0984">
        <ele>4.9</ele>
        <time>2024-02-04T11:15:30Z</time>
      </trkpt>
      <trkpt lat="49.28333" lon="-0.09848">
        <ele>4.9</ele>
        <time>2024-02-04T11:15:31Z</time>
      </trkpt>
      <trkpt lat="49.28334" lon="-0.09856">
        <ele>4.8</ele>
        <time>2024-02-04T11:15:32Z</time>
      </trkpt>
      <trkpt lat="49.28334" lon="-0.09865">
        <ele>4.8</ele>
        <time>2024-02-04T11:15:33Z</time>
      </trkpt>
      <trkpt lat="49.28334" lon="-0.09873">
        <ele>4.8</ele>
        <time>2024-02-04T11:15:34Z</time>
      </trkpt>
      <trkpt lat="49.28335" lon="-0.09882">
        <ele>4.8</ele>
        <time>2024-02-04T11:15:35Z</time>
      </trkpt>
      <trkpt lat="49.28335" lon="-0.09891">
        <ele>4.8</ele>
        <time>2024-02-04T11:15:36Z</time>
      </trkpt>
      <trkpt lat="49.28336" lon="-0.099">
        <ele>4.8</ele>
        <time>2024-02-04T11:15:37Z</time>
      </trkpt>
      <trkpt lat="49.28336" lon="-0.09909">
        <ele>4.8</ele>
        <time>2024-02-04T11:15:38Z</time>
      </trkpt>
      <trkpt lat="49.28336" lon="-0.09918">
        <ele>4.8</ele>
        <time>2024-02-04T11:15:39Z</time>
      </trkpt>
      <trkpt lat="49.28337" lon="-0.09927">
        <ele>4.8</ele>
        <time>2024-02-04T11:15:40Z</time>
      </trkpt>
      <trkpt lat="49.28337" lon="-0.09936">
        <ele>4.7</ele>
        <time>2024-02-04T11:15:41Z</time>
      </trkpt>
      <trkpt lat="49.28337" lon="-0.09945">
        <ele>4.7</ele>
        <time>2024-02-04T11:15:42Z</time>
      </trkpt>
      <trkpt lat="49.28337" lon="-0.09954">
        <ele>4.7</ele>
        <time>2024-02-04T11:15:43Z</time>
      </trkpt>
      <trkpt lat="49.28338" lon="-0.09964">
        <ele>4.6</ele>
        <time>2024-02-04T11:15:44Z</time>
      </trkpt>
      <trkpt lat="49.28339" lon="-0.09973">
        <ele>4.6</ele>
        <time>2024-02-04T11:15:45Z</time>
      </trkpt>
      <trkpt lat="49.28339" lon="-0.09984">
        <ele>4.5</ele>
        <time>2024-02-04T11:15:46Z</time>
      </trkpt>
      <trkpt lat="49.2834" lon="-0.09993">
        <ele>4.4</ele>
        <time>2024-02-04T11:15:47Z</time>
      </trkpt>
      <trkpt lat="49.2834" lon="-0.10004">
        <ele>4.4</ele>
        <time>2024-02-04T11:15:48Z</time>
      </trkpt>
      <trkpt lat="49.28341" lon="-0.10014">
        <ele>4.3</ele>
        <time>2024-02-04T11:15:49Z</time>
      </trkpt>
      <trkpt lat="49.28341" lon="-0.10024">
        <ele>4.3</ele>
        <time>2024-02-04T11:15:50Z</time>
      </trkpt>
      <trkpt lat="49.28342" lon="-0.10034">
        <ele>4.3</ele>
        <time>2024-02-04T11:15:51Z</time>
      </trkpt>
      <trkpt lat="49.28342" lon="-0.10045">
        <ele>4.2</ele>
        <time>2024-02-04T11:15:52Z</time>
      </trkpt>
      <trkpt lat="49.28343" lon="-0.10055">
        <ele>4.2</ele>
        <time>2024-02-04T11:15:53Z</time>
      </trkpt>
      <trkpt lat="49.28343" lon="-0.10066">
        <ele>4.1</ele>
        <time>2024-02-04T11:15:54Z</time>
      </trkpt>
      <trkpt lat="49.28344" lon="-0.10076">
        <ele>4.1</ele>
        <time>2024-02-04T11:15:55Z</time>
      </trkpt>
      <trkpt lat="49.28345" lon="-0.10087">
        <ele>4</ele>
        <time>2024-02-04T11:15:56Z</time>
      </trkpt>
      <trkpt lat="49.28345" lon="-0.10097">
        <ele>4</ele>
        <time>2024-02-04T11:15:57Z</time>
      </trkpt>
      <trkpt lat="49.28345" lon="-0.10108">
        <ele>4</ele>
        <time>2024-02-04T11:15:58Z</time>
      </trkpt>
      <trkpt lat="49.28346" lon="-0.10119">
        <ele>4</ele>
        <time>2024-02-04T11:15:59Z</time>
      </trkpt>
      <trkpt lat="49.28346" lon="-0.10129">
        <ele>3.9</ele>
        <time>2024-02-04T11:16:00Z</time>
      </trkpt>
      <trkpt lat="49.28346" lon="-0.1014">
        <ele>3.9</ele>
        <time>2024-02-04T11:16:01Z</time>
      </trkpt>
      <trkpt lat="49.28347" lon="-0.10151">
        <ele>3.9</ele>
        <time>2024-02-04T11:16:02Z</time>
      </trkpt>
      <trkpt lat="49.28348" lon="-0.10161">
        <ele>3.9</ele>
        <time>2024-02-04T11:16:03Z</time>
      </trkpt>
      <trkpt lat="49.28348" lon="-0.10172">
        <ele>3.9</ele>
        <time>2024-02-04T11:16:04Z</time>
      </trkpt>
      <trkpt lat="49.28348" lon="-0.10182">
        <ele>3.9</ele>
        <time>2024-02-04T11:16:05Z</time>
      </trkpt>
      <trkpt lat="49.28348" lon="-0.10191">
        <ele>3.9</ele>
        <time>2024-02-04T11:16:06Z</time>
      </trkpt>
      <trkpt lat="49.28349" lon="-0.102">
        <ele>3.9</ele>
        <time>2024-02-04T11:16:07Z</time>
      </trkpt>
      <trkpt lat="49.28349" lon="-0.10208">
        <ele>3.9</ele>
        <time>2024-02-04T11:16:08Z</time>
      </trkpt>
      <trkpt lat="49.2835" lon="-0.10216">
        <ele>3.9</ele>
        <time>2024-02-04T11:16:09Z</time>
      </trkpt>
      <trkpt lat="49.2835" lon="-0.10223">
        <ele>4</ele>
        <time>2024-02-04T11:16:10Z</time>
      </trkpt>
      <trkpt lat="49.2835" lon="-0.10229">
        <ele>4</ele>
        <time>2024-02-04T11:16:11Z</time>
      </trkpt>
      <trkpt lat="49.2835" lon="-0.10235">
        <ele>4</ele>
        <time>2024-02-04T11:16:12Z</time>
      </trkpt>
      <trkpt lat="49.2835" lon="-0.1024">
        <ele>4</ele>
        <time>2024-02-04T11:16:13Z</time>
      </trkpt>
      <trkpt lat="49.2835" lon="-0.10245">
        <ele>4</ele>
        <time>2024-02-04T11:16:14Z</time>
      </trkpt>
      <trkpt lat="49.28351" lon="-0.10249">
        <ele>4</ele>
        <time>2024-02-04T11:16:15Z</time>
      </trkpt>
      <trkpt lat="49.28351" lon="-0.10255">
        <ele>4.1</ele>
        <time>2024-02-04T11:16:16Z</time>
      </trkpt>
      <trkpt lat="49.28351" lon="-0.10256">
        <ele>4.1</ele>
        <time>2024-02-04T11:16:17Z</time>
      </trkpt>
      <trkpt lat="49.28351" lon="-0.10259">
        <ele>4.1</ele>
        <time>2024-02-04T11:16:18Z</time>
      </trkpt>
      <trkpt lat="49.28352" lon="-0.10261">
        <ele>4.1</ele>
        <time>2024-02-04T11:16:19Z</time>
      </trkpt>
      <trkpt lat="49.28352" lon="-0.10262">
        <ele>4.1</ele>
        <time>2024-02-04T11:16:20Z</time>
      </trkpt>
      <trkpt lat="49.28352" lon="-0.10261">
        <ele>4.1</ele>
        <time>2024-02-04T11:16:21Z</time>
      </trkpt>
      <trkpt lat="49.28352" lon="-0.10261">
        <ele>4.1</ele>
        <time>2024-02-04T11:16:22Z</time>
      </trkpt>
      <trkpt lat="49.28352" lon="-0.10261">
        <ele>4.1</ele>
        <time>2024-02-04T11:16:23Z</time>
      </trkpt>
      <trkpt lat="49.28352" lon="-0.10261">
        <ele>4.1</ele>
        <time>2024-02-04T11:16:24Z</time>
      </trkpt>
      <trkpt lat="49.28352" lon="-0.10261">
        <ele>4.1</ele>
        <time>2024-02-04T11:16:25Z</time>
      </trkpt>
      <trkpt lat="49.28352" lon="-0.10261">
        <ele>4.1</ele>
        <time>2024-02-04T11:16:26Z</time>
      </trkpt>
      <trkpt lat="49.28352" lon="-0.10261">
        <ele>4.1</ele>
        <time>2024-02-04T11:16:27Z</time>
      </trkpt>
      <trkpt lat="49.28352" lon="-0.10261">
        <ele>4.1</ele>
        <time>2024-02-04T11:16:28Z</time>
      </trkpt>
      <trkpt lat="49.28352" lon="-0.10261">
        <ele>4.1</ele>
        <time>2024-02-04T11:16:29Z</time>
      </trkpt>
      <trkpt lat="49.28352" lon="-0.10261">
        <ele>4.1</ele>
        <time>2024-02-04T11:16:30Z</time>
      </trkpt>
      <trkpt lat="49.28353" lon="-0.10265">
        <ele>4.1</ele>
        <time>2024-02-04T11:17:42Z</time>
      </trkpt>
      <trkpt lat="49.28353" lon="-0.10268">
        <ele>4.1</ele>
        <time>2024-02-04T11:17:43Z</time>
      </trkpt>
      <trkpt lat="49.28353" lon="-0.10271">
        <ele>4.1</ele>
        <time>2024-02-04T11:17:44Z</time>
      </trkpt>
      <trkpt lat="49.28353" lon="-0.10276">
        <ele>4.1</ele>
        <time>2024-02-04T11:17:45Z</time>
      </trkpt>
      <trkpt lat="49.28353" lon="-0.10278">
        <ele>4.1</ele>
        <time>2024-02-04T11:17:46Z</time>
      </trkpt>
      <trkpt lat="49.28353" lon="-0.10283">
        <ele>4.1</ele>
        <time>2024-02-04T11:17:47Z</time>
      </trkpt>
      <trkpt lat="49.28352" lon="-0.10288">
        <ele>4.1</ele>
        <time>2024-02-04T11:17:48Z</time>
      </trkpt>
      <trkpt lat="49.28351" lon="-0.10292">
        <ele>4.1</ele>
        <time>2024-02-04T11:17:49Z</time>
      </trkpt>
      <trkpt lat="49.28351" lon="-0.10297">
        <ele>4.1</ele>
        <time>2024-02-04T11:17:50Z</time>
      </trkpt>
      <trkpt lat="49.2835" lon="-0.10303">
        <ele>4.1</ele>
        <time>2024-02-04T11:17:51Z</time>
      </trkpt>
      <trkpt lat="49.28349" lon="-0.10308">
        <ele>4.1</ele>
        <time>2024-02-04T11:17:52Z</time>
      </trkpt>
      <trkpt lat="49.28347" lon="-0.10314">
        <ele>4</ele>
        <time>2024-02-04T11:17:53Z</time>
      </trkpt>
      <trkpt lat="49.28345" lon="-0.1032">
        <ele>4</ele>
        <time>2024-02-04T11:17:54Z</time>
      </trkpt>
      <trkpt lat="49.28343" lon="-0.10326">
        <ele>4</ele>
        <time>2024-02-04T11:17:55Z</time>
      </trkpt>
      <trkpt lat="49.28342" lon="-0.10333">
        <ele>4</ele>
        <time>2024-02-04T11:17:56Z</time>
      </trkpt>
      <trkpt lat="49.2834" lon="-0.1034">
        <ele>4</ele>
        <time>2024-02-04T11:17:57Z</time>
      </trkpt>
      <trkpt lat="49.2834" lon="-0.10348">
        <ele>4</ele>
        <time>2024-02-04T11:17:58Z</time>
      </trkpt>
      <trkpt lat="49.2834" lon="-0.10355">
        <ele>4</ele>
        <time>2024-02-04T11:17:59Z</time>
      </trkpt>
      <trkpt lat="49.28341" lon="-0.10363">
        <ele>4</ele>
        <time>2024-02-04T11:18:00Z</time>
      </trkpt>
      <trkpt lat="49.28341" lon="-0.10371">
        <ele>4</ele>
        <time>2024-02-04T11:18:01Z</time>
      </trkpt>
      <trkpt lat="49.28341" lon="-0.10379">
        <ele>4</ele>
        <time>2024-02-04T11:18:02Z</time>
      </trkpt>
      <trkpt lat="49.28342" lon="-0.10387">
        <ele>4</ele>
        <time>2024-02-04T11:18:03Z</time>
      </trkpt>
      <trkpt lat="49.28342" lon="-0.10395">
        <ele>4</ele>
        <time>2024-02-04T11:18:04Z</time>
      </trkpt>
      <trkpt lat="49.28342" lon="-0.10404">
        <ele>4</ele>
        <time>2024-02-04T11:18:05Z</time>
      </trkpt>
      <trkpt lat="49.28342" lon="-0.10412">
        <ele>4</ele>
        <time>2024-02-04T11:18:06Z</time>
      </trkpt>
      <trkpt lat="49.28343" lon="-0.1042">
        <ele>4</ele>
        <time>2024-02-04T11:18:07Z</time>
      </trkpt>
      <trkpt lat="49.28343" lon="-0.10429">
        <ele>4</ele>
        <time>2024-02-04T11:18:08Z</time>
      </trkpt>
      <trkpt lat="49.28343" lon="-0.10437">
        <ele>4</ele>
        <time>2024-02-04T11:18:09Z</time>
      </trkpt>
      <trkpt lat="49.28344" lon="-0.10446">
        <ele>4</ele>
        <time>2024-02-04T11:18:10Z</time>
      </trkpt>
      <trkpt lat="49.28345" lon="-0.10455">
        <ele>4</ele>
        <time>2024-02-04T11:18:11Z</time>
      </trkpt>
      <trkpt lat="49.28345" lon="-0.10463">
        <ele>4</ele>
        <time>2024-02-04T11:18:12Z</time>
      </trkpt>
      <trkpt lat="49.28345" lon="-0.10471">
        <ele>4</ele>
        <time>2024-02-04T11:18:13Z</time>
      </trkpt>
      <trkpt lat="49.28345" lon="-0.10479">
        <ele>4</ele>
        <time>2024-02-04T11:18:14Z</time>
      </trkpt>
      <trkpt lat="49.28345" lon="-0.10487">
        <ele>4</ele>
        <time>2024-02-04T11:18:15Z</time>
      </trkpt>
      <trkpt lat="49.28346" lon="-0.10495">
        <ele>4</ele>
        <time>2024-02-04T11:18:16Z</time>
      </trkpt>
      <trkpt lat="49.28346" lon="-0.10503">
        <ele>4</ele>
        <time>2024-02-04T11:18:17Z</time>
      </trkpt>
      <trkpt lat="49.28346" lon="-0.1051">
        <ele>4</ele>
        <time>2024-02-04T11:18:18Z</time>
      </trkpt>
      <trkpt lat="49.28346" lon="-0.10518">
        <ele>4</ele>
        <time>2024-02-04T11:18:19Z</time>
      </trkpt>
      <trkpt lat="49.28346" lon="-0.10524">
        <ele>4</ele>
        <time>2024-02-04T11:18:20Z</time>
      </trkpt>
      <trkpt lat="49.28347" lon="-0.10528">
        <ele>4</ele>
        <time>2024-02-04T11:18:21Z</time>
      </trkpt>
      <trkpt lat="49.28347" lon="-0.10533">
        <ele>4</ele>
        <time>2024-02-04T11:18:22Z</time>
      </trkpt>
      <trkpt lat="49.28348" lon="-0.10539">
        <ele>4.1</ele>
        <time>2024-02-04T11:18:23Z</time>
      </trkpt>
      <trkpt lat="49.28348" lon="-0.10546">
        <ele>4.1</ele>
        <time>2024-02-04T11:18:24Z</time>
      </trkpt>
      <trkpt lat="49.28348" lon="-0.10553">
        <ele>4.1</ele>
        <time>2024-02-04T11:18:25Z</time>
      </trkpt>
      <trkpt lat="49.28349" lon="-0.1056">
        <ele>4.1</ele>
        <time>2024-02-04T11:18:26Z</time>
      </trkpt>
      <trkpt lat="49.28349" lon="-0.10567">
        <ele>4.1</ele>
        <time>2024-02-04T11:18:27Z</time>
      </trkpt>
      <trkpt lat="49.2835" lon="-0.10575">
        <ele>4.1</ele>
        <time>2024-02-04T11:18:28Z</time>
      </trkpt>
      <trkpt lat="49.2835" lon="-0.10582">
        <ele>4.1</ele>
        <time>2024-02-04T11:18:29Z</time>
      </trkpt>
      <trkpt lat="49.2835" lon="-0.1059">
        <ele>4.1</ele>
        <time>2024-02-04T11:18:30Z</time>
      </trkpt>
      <trkpt lat="49.2835" lon="-0.10598">
        <ele>4.1</ele>
        <time>2024-02-04T11:18:31Z</time>
      </trkpt>
      <trkpt lat="49.28351" lon="-0.10605">
        <ele>4.1</ele>
        <time>2024-02-04T11:18:32Z</time>
      </trkpt>
      <trkpt lat="49.28351" lon="-0.10613">
        <ele>4.1</ele>
        <time>2024-02-04T11:18:33Z</time>
      </trkpt>
      <trkpt lat="49.28351" lon="-0.10621">
        <ele>4.1</ele>
        <time>2024-02-04T11:18:34Z</time>
      </trkpt>
      <trkpt lat="49.28352" lon="-0.10629">
        <ele>4.1</ele>
        <time>2024-02-04T11:18:35Z</time>
      </trkpt>
      <trkpt lat="49.28352" lon="-0.10637">
        <ele>4.1</ele>
        <time>2024-02-04T11:18:36Z</time>
      </trkpt>
      <trkpt lat="49.28352" lon="-0.10645">
        <ele>4.1</ele>
        <time>2024-02-04T11:18:37Z</time>
      </trkpt>
      <trkpt lat="49.28352" lon="-0.10653">
        <ele>4.1</ele>
        <time>2024-02-04T11:18:38Z</time>
      </trkpt>
      <trkpt lat="49.28353" lon="-0.10661">
        <ele>4.1</ele>
        <time>2024-02-04T11:18:39Z</time>
      </trkpt>
      <trkpt lat="49.28353" lon="-0.10669">
        <ele>4.1</ele>
        <time>2024-02-04T11:18:40Z</time>
      </trkpt>
      <trkpt lat="49.28354" lon="-0.10677">
        <ele>4.1</ele>
        <time>2024-02-04T11:18:41Z</time>
      </trkpt>
      <trkpt lat="49.28354" lon="-0.10685">
        <ele>4.1</ele>
        <time>2024-02-04T11:18:42Z</time>
      </trkpt>
      <trkpt lat="49.28355" lon="-0.10694">
        <ele>4.1</ele>
        <time>2024-02-04T11:18:43Z</time>
      </trkpt>
      <trkpt lat="49.28355" lon="-0.10702">
        <ele>4.1</ele>
        <time>2024-02-04T11:18:44Z</time>
      </trkpt>
      <trkpt lat="49.28355" lon="-0.1071">
        <ele>4.1</ele>
        <time>2024-02-04T11:18:45Z</time>
      </trkpt>
      <trkpt lat="49.28355" lon="-0.10719">
        <ele>4.1</ele>
        <time>2024-02-04T11:18:46Z</time>
      </trkpt>
      <trkpt lat="49.28356" lon="-0.10727">
        <ele>4.1</ele>
        <time>2024-02-04T11:18:47Z</time>
      </trkpt>
      <trkpt lat="49.28356" lon="-0.10735">
        <ele>4.1</ele>
        <time>2024-02-04T11:18:48Z</time>
      </trkpt>
      <trkpt lat="49.28356" lon="-0.10742">
        <ele>4.1</ele>
        <time>2024-02-04T11:18:49Z</time>
      </trkpt>
      <trkpt lat="49.28357" lon="-0.1075">
        <ele>4.1</ele>
        <time>2024-02-04T11:18:50Z</time>
      </trkpt>
      <trkpt lat="49.28357" lon="-0.10757">
        <ele>4.1</ele>
        <time>2024-02-04T11:18:51Z</time>
      </trkpt>
      <trkpt lat="49.28358" lon="-0.10763">
        <ele>4.2</ele>
        <time>2024-02-04T11:18:52Z</time>
      </trkpt>
      <trkpt lat="49.28359" lon="-0.10767">
        <ele>4.2</ele>
        <time>2024-02-04T11:18:53Z</time>
      </trkpt>
      <trkpt lat="49.28362" lon="-0.10769">
        <ele>4.1</ele>
        <time>2024-02-04T11:18:54Z</time>
      </trkpt>
      <trkpt lat="49.28366" lon="-0.10768">
        <ele>4.1</ele>
        <time>2024-02-04T11:18:55Z</time>
      </trkpt>
      <trkpt lat="49.2837" lon="-0.10768">
        <ele>4.1</ele>
        <time>2024-02-04T11:18:56Z</time>
      </trkpt>
      <trkpt lat="49.28374" lon="-0.10767">
        <ele>4.1</ele>
        <time>2024-02-04T11:18:57Z</time>
      </trkpt>
      <trkpt lat="49.28378" lon="-0.10767">
        <ele>4.1</ele>
        <time>2024-02-04T11:18:58Z</time>
      </trkpt>
      <trkpt lat="49.28381" lon="-0.10767">
        <ele>4.1</ele>
        <time>2024-02-04T11:18:59Z</time>
      </trkpt>
      <trkpt lat="49.28385" lon="-0.10767">
        <ele>4.1</ele>
        <time>2024-02-04T11:19:00Z</time>
      </trkpt>
      <trkpt lat="49.28388" lon="-0.10767">
        <ele>4.1</ele>
        <time>2024-02-04T11:19:01Z</time>
      </trkpt>
      <trkpt lat="49.28392" lon="-0.10766">
        <ele>4.1</ele>
        <time>2024-02-04T11:19:02Z</time>
      </trkpt>
      <trkpt lat="49.28395" lon="-0.10766">
        <ele>4.1</ele>
        <time>2024-02-04T11:19:03Z</time>
      </trkpt>
      <trkpt lat="49.28398" lon="-0.10765">
        <ele>4.2</ele>
        <time>2024-02-04T11:19:04Z</time>
      </trkpt>
      <trkpt lat="49.28399" lon="-0.10765">
        <ele>4.2</ele>
        <time>2024-02-04T11:19:05Z</time>
      </trkpt>
      <trkpt lat="49.28403" lon="-0.10763">
        <ele>4.2</ele>
        <time>2024-02-04T11:19:06Z</time>
      </trkpt>
      <trkpt lat="49.28405" lon="-0.10763">
        <ele>4.2</ele>
        <time>2024-02-04T11:19:07Z</time>
      </trkpt>
      <trkpt lat="49.28408" lon="-0.10762">
        <ele>4.2</ele>
        <time>2024-02-04T11:19:08Z</time>
      </trkpt>
      <trkpt lat="49.28411" lon="-0.10761">
        <ele>4.2</ele>
        <time>2024-02-04T11:19:09Z</time>
      </trkpt>
      <trkpt lat="49.28414" lon="-0.1076">
        <ele>4.2</ele>
        <time>2024-02-04T11:19:10Z</time>
      </trkpt>
      <trkpt lat="49.28416" lon="-0.10759">
        <ele>4.2</ele>
        <time>2024-02-04T11:19:11Z</time>
      </trkpt>
      <trkpt lat="49.2842" lon="-0.10758">
        <ele>4.1</ele>
        <time>2024-02-04T11:19:12Z</time>
      </trkpt>
      <trkpt lat="49.28421" lon="-0.10758">
        <ele>4.1</ele>
        <time>2024-02-04T11:19:13Z</time>
      </trkpt>
      <trkpt lat="49.28424" lon="-0.10761">
        <ele>4.1</ele>
        <time>2024-02-04T11:19:14Z</time>
      </trkpt>
      <trkpt lat="49.28425" lon="-0.10763">
        <ele>4.1</ele>
        <time>2024-02-04T11:19:15Z</time>
      </trkpt>
      <trkpt lat="49.28425" lon="-0.10767">
        <ele>4.1</ele>
        <time>2024-02-04T11:19:16Z</time>
      </trkpt>
      <trkpt lat="49.28426" lon="-0.10772">
        <ele>4</ele>
        <time>2024-02-04T11:19:17Z</time>
      </trkpt>
      <trkpt lat="49.28426" lon="-0.10774">
        <ele>4</ele>
        <time>2024-02-04T11:19:18Z</time>
      </trkpt>
      <trkpt lat="49.28427" lon="-0.1078">
        <ele>3.9</ele>
        <time>2024-02-04T11:19:19Z</time>
      </trkpt>
      <trkpt lat="49.28428" lon="-0.10782">
        <ele>3.8</ele>
        <time>2024-02-04T11:19:20Z</time>
      </trkpt>
      <trkpt lat="49.28429" lon="-0.10786">
        <ele>3.8</ele>
        <time>2024-02-04T11:19:21Z</time>
      </trkpt>
      <trkpt lat="49.2843" lon="-0.10791">
        <ele>3.7</ele>
        <time>2024-02-04T11:19:22Z</time>
      </trkpt>
      <trkpt lat="49.28431" lon="-0.10796">
        <ele>3.7</ele>
        <time>2024-02-04T11:19:23Z</time>
      </trkpt>
      <trkpt lat="49.2843" lon="-0.10802">
        <ele>3.6</ele>
        <time>2024-02-04T11:19:24Z</time>
      </trkpt>
      <trkpt lat="49.28429" lon="-0.10809">
        <ele>3.6</ele>
        <time>2024-02-04T11:19:25Z</time>
      </trkpt>
      <trkpt lat="49.28429" lon="-0.10817">
        <ele>3.6</ele>
        <time>2024-02-04T11:19:26Z</time>
      </trkpt>
      <trkpt lat="49.28429" lon="-0.10825">
        <ele>3.6</ele>
        <time>2024-02-04T11:19:27Z</time>
      </trkpt>
      <trkpt lat="49.2843" lon="-0.10834">
        <ele>3.6</ele>
        <time>2024-02-04T11:19:28Z</time>
      </trkpt>
      <trkpt lat="49.28432" lon="-0.10844">
        <ele>3.6</ele>
        <time>2024-02-04T11:19:29Z</time>
      </trkpt>
      <trkpt lat="49.28433" lon="-0.10853">
        <ele>3.7</ele>
        <time>2024-02-04T11:19:30Z</time>
      </trkpt>
      <trkpt lat="49.28435" lon="-0.10863">
        <ele>3.8</ele>
        <time>2024-02-04T11:19:31Z</time>
      </trkpt>
      <trkpt lat="49.28436" lon="-0.10872">
        <ele>3.9</ele>
        <time>2024-02-04T11:19:32Z</time>
      </trkpt>
      <trkpt lat="49.28438" lon="-0.10879">
        <ele>4</ele>
        <time>2024-02-04T11:19:33Z</time>
      </trkpt>
      <trkpt lat="49.28441" lon="-0.10884">
        <ele>4.1</ele>
        <time>2024-02-04T11:19:34Z</time>
      </trkpt>
      <trkpt lat="49.28445" lon="-0.10884">
        <ele>4.2</ele>
        <time>2024-02-04T11:19:35Z</time>
      </trkpt>
      <trkpt lat="49.2845" lon="-0.10882">
        <ele>4.2</ele>
        <time>2024-02-04T11:19:36Z</time>
      </trkpt>
      <trkpt lat="49.28455" lon="-0.10879">
        <ele>4.1</ele>
        <time>2024-02-04T11:19:37Z</time>
      </trkpt>
      <trkpt lat="49.2846" lon="-0.10876">
        <ele>4.1</ele>
        <time>2024-02-04T11:19:38Z</time>
      </trkpt>
      <trkpt lat="49.2847" lon="-0.10871">
        <ele>4</ele>
        <time>2024-02-04T11:19:40Z</time>
      </trkpt>
      <trkpt lat="49.28475" lon="-0.10868">
        <ele>4</ele>
        <time>2024-02-04T11:19:41Z</time>
      </trkpt>
      <trkpt lat="49.2848" lon="-0.10866">
        <ele>4</ele>
        <time>2024-02-04T11:19:42Z</time>
      </trkpt>
      <trkpt lat="49.28485" lon="-0.10863">
        <ele>4.1</ele>
        <time>2024-02-04T11:19:43Z</time>
      </trkpt>
      <trkpt lat="49.2849" lon="-0.10861">
        <ele>4.1</ele>
        <time>2024-02-04T11:19:44Z</time>
      </trkpt>
      <trkpt lat="49.28495" lon="-0.10858">
        <ele>4.2</ele>
        <time>2024-02-04T11:19:45Z</time>
      </trkpt>
      <trkpt lat="49.285" lon="-0.10856">
        <ele>4.3</ele>
        <time>2024-02-04T11:19:46Z</time>
      </trkpt>
      <trkpt lat="49.28505" lon="-0.10855">
        <ele>4.4</ele>
        <time>2024-02-04T11:19:47Z</time>
      </trkpt>
      <trkpt lat="49.28509" lon="-0.10853">
        <ele>4.5</ele>
        <time>2024-02-04T11:19:48Z</time>
      </trkpt>
      <trkpt lat="49.28513" lon="-0.10851">
        <ele>4.6</ele>
        <time>2024-02-04T11:19:49Z</time>
      </trkpt>
      <trkpt lat="49.28518" lon="-0.10848">
        <ele>4.8</ele>
        <time>2024-02-04T11:19:50Z</time>
      </trkpt>
      <trkpt lat="49.28521" lon="-0.10846">
        <ele>4.8</ele>
        <time>2024-02-04T11:19:51Z</time>
      </trkpt>
      <trkpt lat="49.28525" lon="-0.10843">
        <ele>4.8</ele>
        <time>2024-02-04T11:19:52Z</time>
      </trkpt>
      <trkpt lat="49.28529" lon="-0.10842">
        <ele>4.8</ele>
        <time>2024-02-04T11:19:53Z</time>
      </trkpt>
      <trkpt lat="49.28535" lon="-0.10842">
        <ele>4.8</ele>
        <time>2024-02-04T11:19:54Z</time>
      </trkpt>
      <trkpt lat="49.28539" lon="-0.10846">
        <ele>4.8</ele>
        <time>2024-02-04T11:19:55Z</time>
      </trkpt>
      <trkpt lat="49.28541" lon="-0.10853">
        <ele>4.7</ele>
        <time>2024-02-04T11:19:56Z</time>
      </trkpt>
      <trkpt lat="49.28542" lon="-0.10861">
        <ele>4.7</ele>
        <time>2024-02-04T11:19:57Z</time>
      </trkpt>
      <trkpt lat="49.28542" lon="-0.10869">
        <ele>4.7</ele>
        <time>2024-02-04T11:19:58Z</time>
      </trkpt>
      <trkpt lat="49.28542" lon="-0.10877">
        <ele>4.7</ele>
        <time>2024-02-04T11:19:59Z</time>
      </trkpt>
      <trkpt lat="49.28541" lon="-0.10885">
        <ele>4.7</ele>
        <time>2024-02-04T11:20:00Z</time>
      </trkpt>
      <trkpt lat="49.28538" lon="-0.10893">
        <ele>4.7</ele>
        <time>2024-02-04T11:20:01Z</time>
      </trkpt>
      <trkpt lat="49.28535" lon="-0.109">
        <ele>4.8</ele>
        <time>2024-02-04T11:20:02Z</time>
      </trkpt>
      <trkpt lat="49.28532" lon="-0.10906">
        <ele>4.9</ele>
        <time>2024-02-04T11:20:03Z</time>
      </trkpt>
      <trkpt lat="49.28529" lon="-0.10914">
        <ele>4.9</ele>
        <time>2024-02-04T11:20:04Z</time>
      </trkpt>
      <trkpt lat="49.28527" lon="-0.10923">
        <ele>4.9</ele>
        <time>2024-02-04T11:20:05Z</time>
      </trkpt>
      <trkpt lat="49.28528" lon="-0.10933">
        <ele>5</ele>
        <time>2024-02-04T11:20:06Z</time>
      </trkpt>
      <trkpt lat="49.28529" lon="-0.10942">
        <ele>5</ele>
        <time>2024-02-04T11:20:07Z</time>
      </trkpt>
      <trkpt lat="49.28531" lon="-0.1095">
        <ele>5</ele>
        <time>2024-02-04T11:20:08Z</time>
      </trkpt>
      <trkpt lat="49.28533" lon="-0.10959">
        <ele>5</ele>
        <time>2024-02-04T11:20:09Z</time>
      </trkpt>
      <trkpt lat="49.28534" lon="-0.10968">
        <ele>5.1</ele>
        <time>2024-02-04T11:20:10Z</time>
      </trkpt>
      <trkpt lat="49.28536" lon="-0.10977">
        <ele>5.2</ele>
        <time>2024-02-04T11:20:11Z</time>
      </trkpt>
      <trkpt lat="49.28537" lon="-0.10986">
        <ele>5.2</ele>
        <time>2024-02-04T11:20:12Z</time>
      </trkpt>
      <trkpt lat="49.28539" lon="-0.10994">
        <ele>5.3</ele>
        <time>2024-02-04T11:20:13Z</time>
      </trkpt>
      <trkpt lat="49.2854" lon="-0.11003">
        <ele>5.4</ele>
        <time>2024-02-04T11:20:14Z</time>
      </trkpt>
      <trkpt lat="49.28542" lon="-0.11012">
        <ele>5.4</ele>
        <time>2024-02-04T11:20:15Z</time>
      </trkpt>
      <trkpt lat="49.28544" lon="-0.1102">
        <ele>5.5</ele>
        <time>2024-02-04T11:20:16Z</time>
      </trkpt>
      <trkpt lat="49.28546" lon="-0.11029">
        <ele>5.6</ele>
        <time>2024-02-04T11:20:17Z</time>
      </trkpt>
      <trkpt lat="49.28548" lon="-0.11038">
        <ele>5.7</ele>
        <time>2024-02-04T11:20:18Z</time>
      </trkpt>
      <trkpt lat="49.2855" lon="-0.11046">
        <ele>5.8</ele>
        <time>2024-02-04T11:20:19Z</time>
      </trkpt>
      <trkpt lat="49.28552" lon="-0.11054">
        <ele>5.8</ele>
        <time>2024-02-04T11:20:20Z</time>
      </trkpt>
      <trkpt lat="49.28554" lon="-0.11062">
        <ele>5.9</ele>
        <time>2024-02-04T11:20:21Z</time>
      </trkpt>
      <trkpt lat="49.28555" lon="-0.1107">
        <ele>6</ele>
        <time>2024-02-04T11:20:22Z</time>
      </trkpt>
      <trkpt lat="49.28557" lon="-0.11078">
        <ele>6.1</ele>
        <time>2024-02-04T11:20:23Z</time>
      </trkpt>
      <trkpt lat="49.28559" lon="-0.11086">
        <ele>6.1</ele>
        <time>2024-02-04T11:20:24Z</time>
      </trkpt>
      <trkpt lat="49.28561" lon="-0.11094">
        <ele>6.2</ele>
        <time>2024-02-04T11:20:25Z</time>
      </trkpt>
      <trkpt lat="49.28563" lon="-0.11102">
        <ele>6.2</ele>
        <time>2024-02-04T11:20:26Z</time>
      </trkpt>
      <trkpt lat="49.28566" lon="-0.1111">
        <ele>6.3</ele>
        <time>2024-02-04T11:20:27Z</time>
      </trkpt>
      <trkpt lat="49.28568" lon="-0.11118">
        <ele>6.4</ele>
        <time>2024-02-04T11:20:28Z</time>
      </trkpt>
      <trkpt lat="49.2857" lon="-0.11127">
        <ele>6.4</ele>
        <time>2024-02-04T11:20:29Z</time>
      </trkpt>
      <trkpt lat="49.28572" lon="-0.11135">
        <ele>6.5</ele>
        <time>2024-02-04T11:20:30Z</time>
      </trkpt>
      <trkpt lat="49.28574" lon="-0.11144">
        <ele>6.5</ele>
        <time>2024-02-04T11:20:31Z</time>
      </trkpt>
      <trkpt lat="49.28576" lon="-0.11152">
        <ele>6.5</ele>
        <time>2024-02-04T11:20:32Z</time>
      </trkpt>
      <trkpt lat="49.28579" lon="-0.1116">
        <ele>6.5</ele>
        <time>2024-02-04T11:20:33Z</time>
      </trkpt>
      <trkpt lat="49.28581" lon="-0.11168">
        <ele>6.6</ele>
        <time>2024-02-04T11:20:34Z</time>
      </trkpt>
      <trkpt lat="49.28583" lon="-0.11177">
        <ele>6.6</ele>
        <time>2024-02-04T11:20:35Z</time>
      </trkpt>
      <trkpt lat="49.28585" lon="-0.11186">
        <ele>6.6</ele>
        <time>2024-02-04T11:20:36Z</time>
      </trkpt>
      <trkpt lat="49.28588" lon="-0.11194">
        <ele>6.6</ele>
        <time>2024-02-04T11:20:37Z</time>
      </trkpt>
      <trkpt lat="49.2859" lon="-0.11202">
        <ele>6.6</ele>
        <time>2024-02-04T11:20:38Z</time>
      </trkpt>
      <trkpt lat="49.28592" lon="-0.1121">
        <ele>6.6</ele>
        <time>2024-02-04T11:20:39Z</time>
      </trkpt>
      <trkpt lat="49.28595" lon="-0.11217">
        <ele>6.5</ele>
        <time>2024-02-04T11:20:40Z</time>
      </trkpt>
      <trkpt lat="49.28598" lon="-0.11225">
        <ele>6.5</ele>
        <time>2024-02-04T11:20:41Z</time>
      </trkpt>
      <trkpt lat="49.28602" lon="-0.11232">
        <ele>6.5</ele>
        <time>2024-02-04T11:20:42Z</time>
      </trkpt>
      <trkpt lat="49.28604" lon="-0.11241">
        <ele>6.5</ele>
        <time>2024-02-04T11:20:43Z</time>
      </trkpt>
      <trkpt lat="49.28605" lon="-0.11251">
        <ele>6.4</ele>
        <time>2024-02-04T11:20:44Z</time>
      </trkpt>
      <trkpt lat="49.28607" lon="-0.11261">
        <ele>6.3</ele>
        <time>2024-02-04T11:20:45Z</time>
      </trkpt>
      <trkpt lat="49.28608" lon="-0.11271">
        <ele>6.2</ele>
        <time>2024-02-04T11:20:46Z</time>
      </trkpt>
      <trkpt lat="49.28611" lon="-0.11281">
        <ele>6</ele>
        <time>2024-02-04T11:20:47Z</time>
      </trkpt>
      <trkpt lat="49.28614" lon="-0.11291">
        <ele>5.9</ele>
        <time>2024-02-04T11:20:48Z</time>
      </trkpt>
      <trkpt lat="49.28617" lon="-0.11301">
        <ele>5.8</ele>
        <time>2024-02-04T11:20:49Z</time>
      </trkpt>
      <trkpt lat="49.28619" lon="-0.11311">
        <ele>5.7</ele>
        <time>2024-02-04T11:20:50Z</time>
      </trkpt>
      <trkpt lat="49.28622" lon="-0.11321">
        <ele>5.6</ele>
        <time>2024-02-04T11:20:51Z</time>
      </trkpt>
      <trkpt lat="49.28625" lon="-0.11331">
        <ele>5.5</ele>
        <time>2024-02-04T11:20:52Z</time>
      </trkpt>
      <trkpt lat="49.28628" lon="-0.11341">
        <ele>5.4</ele>
        <time>2024-02-04T11:20:53Z</time>
      </trkpt>
      <trkpt lat="49.28631" lon="-0.11352">
        <ele>5.3</ele>
        <time>2024-02-04T11:20:54Z</time>
      </trkpt>
      <trkpt lat="49.28634" lon="-0.11362">
        <ele>5.2</ele>
        <time>2024-02-04T11:20:55Z</time>
      </trkpt>
      <trkpt lat="49.28636" lon="-0.11372">
        <ele>5.2</ele>
        <time>2024-02-04T11:20:56Z</time>
      </trkpt>
      <trkpt lat="49.28639" lon="-0.11382">
        <ele>5.1</ele>
        <time>2024-02-04T11:20:57Z</time>
      </trkpt>
      <trkpt lat="49.28642" lon="-0.11392">
        <ele>5.1</ele>
        <time>2024-02-04T11:20:58Z</time>
      </trkpt>
      <trkpt lat="49.28645" lon="-0.11402">
        <ele>5.1</ele>
        <time>2024-02-04T11:20:59Z</time>
      </trkpt>
      <trkpt lat="49.28648" lon="-0.11412">
        <ele>5</ele>
        <time>2024-02-04T11:21:00Z</time>
      </trkpt>
      <trkpt lat="49.28651" lon="-0.11422">
        <ele>5</ele>
        <time>2024-02-04T11:21:01Z</time>
      </trkpt>
      <trkpt lat="49.28654" lon="-0.11432">
        <ele>5</ele>
        <time>2024-02-04T11:21:02Z</time>
      </trkpt>
      <trkpt lat="49.28657" lon="-0.11442">
        <ele>5</ele>
        <time>2024-02-04T11:21:03Z</time>
      </trkpt>
      <trkpt lat="49.2866" lon="-0.11452">
        <ele>5</ele>
        <time>2024-02-04T11:21:04Z</time>
      </trkpt>
      <trkpt lat="49.28662" lon="-0.11462">
        <ele>5</ele>
        <time>2024-02-04T11:21:05Z</time>
      </trkpt>
      <trkpt lat="49.28665" lon="-0.11472">
        <ele>5</ele>
        <time>2024-02-04T11:21:06Z</time>
      </trkpt>
      <trkpt lat="49.28667" lon="-0.11481">
        <ele>5</ele>
        <time>2024-02-04T11:21:07Z</time>
      </trkpt>
      <trkpt lat="49.2867" lon="-0.11489">
        <ele>5</ele>
        <time>2024-02-04T11:21:08Z</time>
      </trkpt>
      <trkpt lat="49.28672" lon="-0.11498">
        <ele>5.1</ele>
        <time>2024-02-04T11:21:09Z</time>
      </trkpt>
      <trkpt lat="49.28673" lon="-0.11508">
        <ele>5.1</ele>
        <time>2024-02-04T11:21:10Z</time>
      </trkpt>
      <trkpt lat="49.28675" lon="-0.11517">
        <ele>5.1</ele>
        <time>2024-02-04T11:21:11Z</time>
      </trkpt>
      <trkpt lat="49.28677" lon="-0.11526">
        <ele>5.1</ele>
        <time>2024-02-04T11:21:12Z</time>
      </trkpt>
      <trkpt lat="49.28678" lon="-0.11534">
        <ele>5.1</ele>
        <time>2024-02-04T11:21:13Z</time>
      </trkpt>
      <trkpt lat="49.28679" lon="-0.11542">
        <ele>5.1</ele>
        <time>2024-02-04T11:21:14Z</time>
      </trkpt>
      <trkpt lat="49.2868" lon="-0.1155">
        <ele>5</ele>
        <time>2024-02-04T11:21:15Z</time>
      </trkpt>
      <trkpt lat="49.28681" lon="-0.11557">
        <ele>5</ele>
        <time>2024-02-04T11:21:16Z</time>
      </trkpt>
      <trkpt lat="49.28682" lon="-0.11565">
        <ele>5</ele>
        <time>2024-02-04T11:21:17Z</time>
      </trkpt>
      <trkpt lat="49.28683" lon="-0.11572">
        <ele>5</ele>
        <time>2024-02-04T11:21:18Z</time>
      </trkpt>
      <trkpt lat="49.28684" lon="-0.11579">
        <ele>5</ele>
        <time>2024-02-04T11:21:19Z</time>
      </trkpt>
      <trkpt lat="49.28685" lon="-0.11586">
        <ele>5</ele>
        <time>2024-02-04T11:21:20Z</time>
      </trkpt>
      <trkpt lat="49.28685" lon="-0.11592">
        <ele>5</ele>
        <time>2024-02-04T11:21:21Z</time>
      </trkpt>
      <trkpt lat="49.28685" lon="-0.11598">
        <ele>5</ele>
        <time>2024-02-04T11:21:22Z</time>
      </trkpt>
      <trkpt lat="49.28686" lon="-0.11603">
        <ele>5</ele>
        <time>2024-02-04T11:21:23Z</time>
      </trkpt>
      <trkpt lat="49.28686" lon="-0.11607">
        <ele>5</ele>
        <time>2024-02-04T11:21:24Z</time>
      </trkpt>
      <trkpt lat="49.28686" lon="-0.11612">
        <ele>5</ele>
        <time>2024-02-04T11:21:25Z</time>
      </trkpt>
      <trkpt lat="49.28687" lon="-0.11617">
        <ele>5</ele>
        <time>2024-02-04T11:21:26Z</time>
      </trkpt>
      <trkpt lat="49.28687" lon="-0.11619">
        <ele>5</ele>
        <time>2024-02-04T11:21:27Z</time>
      </trkpt>
      <trkpt lat="49.28687" lon="-0.11625">
        <ele>5</ele>
        <time>2024-02-04T11:21:28Z</time>
      </trkpt>
      <trkpt lat="49.28688" lon="-0.11627">
        <ele>5</ele>
        <time>2024-02-04T11:21:29Z</time>
      </trkpt>
      <trkpt lat="49.28688" lon="-0.11629">
        <ele>5</ele>
        <time>2024-02-04T11:21:30Z</time>
      </trkpt>
      <trkpt lat="49.28688" lon="-0.1163">
        <ele>5</ele>
        <time>2024-02-04T11:21:31Z</time>
      </trkpt>
      <trkpt lat="49.28687" lon="-0.11629">
        <ele>5</ele>
        <time>2024-02-04T11:21:32Z</time>
      </trkpt>
      <trkpt lat="49.28687" lon="-0.11629">
        <ele>5</ele>
        <time>2024-02-04T11:21:33Z</time>
      </trkpt>
      <trkpt lat="49.28687" lon="-0.11629">
        <ele>5</ele>
        <time>2024-02-04T11:21:34Z</time>
      </trkpt>
      <trkpt lat="49.28687" lon="-0.11629">
        <ele>5</ele>
        <time>2024-02-04T11:21:35Z</time>
      </trkpt>
      <trkpt lat="49.28687" lon="-0.11629">
        <ele>5</ele>
        <time>2024-02-04T11:21:36Z</time>
      </trkpt>
      <trkpt lat="49.28687" lon="-0.11629">
        <ele>5</ele>
        <time>2024-02-04T11:21:37Z</time>
      </trkpt>
      <trkpt lat="49.28687" lon="-0.11629">
        <ele>5</ele>
        <time>2024-02-04T11:21:38Z</time>
      </trkpt>
      <trkpt lat="49.28687" lon="-0.11629">
        <ele>5</ele>
        <time>2024-02-04T11:21:39Z</time>
      </trkpt>
      <trkpt lat="49.28687" lon="-0.11629">
        <ele>5</ele>
        <time>2024-02-04T11:21:40Z</time>
      </trkpt>
      <trkpt lat="49.28688" lon="-0.11629">
        <ele>5</ele>
        <time>2024-02-04T11:21:41Z</time>
      </trkpt>
      <trkpt lat="49.28688" lon="-0.11636">
        <ele>5</ele>
        <time>2024-02-04T11:21:43Z</time>
      </trkpt>
      <trkpt lat="49.28688" lon="-0.1164">
        <ele>5</ele>
        <time>2024-02-04T11:21:44Z</time>
      </trkpt>
      <trkpt lat="49.28688" lon="-0.11645">
        <ele>5</ele>
        <time>2024-02-04T11:21:45Z</time>
      </trkpt>
      <trkpt lat="49.28688" lon="-0.1165">
        <ele>5</ele>
        <time>2024-02-04T11:21:46Z</time>
      </trkpt>
      <trkpt lat="49.28688" lon="-0.11655">
        <ele>5</ele>
        <time>2024-02-04T11:21:47Z</time>
      </trkpt>
      <trkpt lat="49.28688" lon="-0.11661">
        <ele>4.9</ele>
        <time>2024-02-04T11:21:48Z</time>
      </trkpt>
      <trkpt lat="49.28688" lon="-0.11668">
        <ele>4.9</ele>
        <time>2024-02-04T11:21:49Z</time>
      </trkpt>
      <trkpt lat="49.28687" lon="-0.11675">
        <ele>4.9</ele>
        <time>2024-02-04T11:21:50Z</time>
      </trkpt>
      <trkpt lat="49.28687" lon="-0.11682">
        <ele>4.9</ele>
        <time>2024-02-04T11:21:51Z</time>
      </trkpt>
      <trkpt lat="49.28687" lon="-0.1169">
        <ele>4.9</ele>
        <time>2024-02-04T11:21:52Z</time>
      </trkpt>
      <trkpt lat="49.28686" lon="-0.11698">
        <ele>4.9</ele>
        <time>2024-02-04T11:21:53Z</time>
      </trkpt>
      <trkpt lat="49.28686" lon="-0.11706">
        <ele>4.8</ele>
        <time>2024-02-04T11:21:54Z</time>
      </trkpt>
      <trkpt lat="49.28686" lon="-0.11715">
        <ele>4.8</ele>
        <time>2024-02-04T11:21:55Z</time>
      </trkpt>
      <trkpt lat="49.28685" lon="-0.11724">
        <ele>4.8</ele>
        <time>2024-02-04T11:21:56Z</time>
      </trkpt>
      <trkpt lat="49.28685" lon="-0.11732">
        <ele>4.7</ele>
        <time>2024-02-04T11:21:57Z</time>
      </trkpt>
      <trkpt lat="49.28685" lon="-0.11741">
        <ele>4.7</ele>
        <time>2024-02-04T11:21:58Z</time>
      </trkpt>
      <trkpt lat="49.28684" lon="-0.11751">
        <ele>4.7</ele>
        <time>2024-02-04T11:21:59Z</time>
      </trkpt>
      <trkpt lat="49.28684" lon="-0.1176">
        <ele>4.7</ele>
        <time>2024-02-04T11:22:00Z</time>
      </trkpt>
      <trkpt lat="49.28684" lon="-0.11769">
        <ele>4.6</ele>
        <time>2024-02-04T11:22:01Z</time>
      </trkpt>
      <trkpt lat="49.28683" lon="-0.11778">
        <ele>4.6</ele>
        <time>2024-02-04T11:22:02Z</time>
      </trkpt>
      <trkpt lat="49.28683" lon="-0.11787">
        <ele>4.6</ele>
        <time>2024-02-04T11:22:03Z</time>
      </trkpt>
      <trkpt lat="49.28683" lon="-0.11796">
        <ele>4.6</ele>
        <time>2024-02-04T11:22:04Z</time>
      </trkpt>
      <trkpt lat="49.28682" lon="-0.11805">
        <ele>4.6</ele>
        <time>2024-02-04T11:22:05Z</time>
      </trkpt>
      <trkpt lat="49.28681" lon="-0.11814">
        <ele>4.6</ele>
        <time>2024-02-04T11:22:06Z</time>
      </trkpt>
      <trkpt lat="49.2868" lon="-0.11823">
        <ele>4.6</ele>
        <time>2024-02-04T11:22:07Z</time>
      </trkpt>
      <trkpt lat="49.28678" lon="-0.11832">
        <ele>4.6</ele>
        <time>2024-02-04T11:22:08Z</time>
      </trkpt>
      <trkpt lat="49.28677" lon="-0.1184">
        <ele>4.6</ele>
        <time>2024-02-04T11:22:09Z</time>
      </trkpt>
      <trkpt lat="49.28676" lon="-0.11848">
        <ele>4.6</ele>
        <time>2024-02-04T11:22:10Z</time>
      </trkpt>
      <trkpt lat="49.28674" lon="-0.11856">
        <ele>4.6</ele>
        <time>2024-02-04T11:22:11Z</time>
      </trkpt>
      <trkpt lat="49.28671" lon="-0.11863">
        <ele>4.6</ele>
        <time>2024-02-04T11:22:12Z</time>
      </trkpt>
      <trkpt lat="49.28669" lon="-0.1187">
        <ele>4.6</ele>
        <time>2024-02-04T11:22:13Z</time>
      </trkpt>
      <trkpt lat="49.28665" lon="-0.11876">
        <ele>4.6</ele>
        <time>2024-02-04T11:22:14Z</time>
      </trkpt>
      <trkpt lat="49.2866" lon="-0.1188">
        <ele>4.7</ele>
        <time>2024-02-04T11:22:15Z</time>
      </trkpt>
      <trkpt lat="49.28656" lon="-0.11884">
        <ele>4.7</ele>
        <time>2024-02-04T11:22:16Z</time>
      </trkpt>
      <trkpt lat="49.28652" lon="-0.11887">
        <ele>4.8</ele>
        <time>2024-02-04T11:22:17Z</time>
      </trkpt>
      <trkpt lat="49.28648" lon="-0.1189">
        <ele>4.8</ele>
        <time>2024-02-04T11:22:18Z</time>
      </trkpt>
      <trkpt lat="49.28646" lon="-0.11892">
        <ele>4.8</ele>
        <time>2024-02-04T11:22:19Z</time>
      </trkpt>
      <trkpt lat="49.28644" lon="-0.11897">
        <ele>4.9</ele>
        <time>2024-02-04T11:22:20Z</time>
      </trkpt>
      <trkpt lat="49.28643" lon="-0.11899">
        <ele>4.9</ele>
        <time>2024-02-04T11:22:21Z</time>
      </trkpt>
      <trkpt lat="49.28643" lon="-0.11904">
        <ele>4.9</ele>
        <time>2024-02-04T11:22:22Z</time>
      </trkpt>
      <trkpt lat="49.28643" lon="-0.11905">
        <ele>4.9</ele>
        <time>2024-02-04T11:22:23Z</time>
      </trkpt>
      <trkpt lat="49.28644" lon="-0.1191">
        <ele>5</ele>
        <time>2024-02-04T11:22:24Z</time>
      </trkpt>
      <trkpt lat="49.28645" lon="-0.11912">
        <ele>5</ele>
        <time>2024-02-04T11:22:25Z</time>
      </trkpt>
      <trkpt lat="49.28646" lon="-0.11914">
        <ele>5</ele>
        <time>2024-02-04T11:22:26Z</time>
      </trkpt>
      <trkpt lat="49.28647" lon="-0.11915">
        <ele>5</ele>
        <time>2024-02-04T11:22:27Z</time>
      </trkpt>
      <trkpt lat="49.28648" lon="-0.11916">
        <ele>5</ele>
        <time>2024-02-04T11:22:28Z</time>
      </trkpt>
      <trkpt lat="49.28649" lon="-0.11918">
        <ele>5</ele>
        <time>2024-02-04T11:22:29Z</time>
      </trkpt>
      <trkpt lat="49.28649" lon="-0.11918">
        <ele>5.1</ele>
        <time>2024-02-04T11:22:30Z</time>
      </trkpt>
      <trkpt lat="49.28649" lon="-0.11918">
        <ele>5.1</ele>
        <time>2024-02-04T11:22:31Z</time>
      </trkpt>
      <trkpt lat="49.28648" lon="-0.11918">
        <ele>5.1</ele>
        <time>2024-02-04T11:22:32Z</time>
      </trkpt>
      <trkpt lat="49.28648" lon="-0.11918">
        <ele>5.1</ele>
        <time>2024-02-04T11:22:33Z</time>
      </trkpt>
      <trkpt lat="49.28648" lon="-0.11917">
        <ele>5.1</ele>
        <time>2024-02-04T11:22:34Z</time>
      </trkpt>
      <trkpt lat="49.28648" lon="-0.11917">
        <ele>5.1</ele>
        <time>2024-02-04T11:22:35Z</time>
      </trkpt>
      <trkpt lat="49.28648" lon="-0.11917">
        <ele>5.1</ele>
        <time>2024-02-04T11:22:36Z</time>
      </trkpt>
      <trkpt lat="49.28648" lon="-0.11917">
        <ele>5.1</ele>
        <time>2024-02-04T11:22:37Z</time>
      </trkpt>
      <trkpt lat="49.28648" lon="-0.11917">
        <ele>5.1</ele>
        <time>2024-02-04T11:22:38Z</time>
      </trkpt>
      <trkpt lat="49.28648" lon="-0.11917">
        <ele>5.1</ele>
        <time>2024-02-04T11:22:39Z</time>
      </trkpt>
      <trkpt lat="49.28648" lon="-0.11917">
        <ele>5.1</ele>
        <time>2024-02-04T11:22:40Z</time>
      </trkpt>
      <trkpt lat="49.28652" lon="-0.11917">
        <ele>5.1</ele>
        <time>2024-02-04T11:24:25Z</time>
      </trkpt>
      <trkpt lat="49.28652" lon="-0.11917">
        <ele>5.1</ele>
        <time>2024-02-04T11:24:27Z</time>
      </trkpt>
    </trkseg>
  </trk>
</gpx>